<?xml version="1.0" encoding="UTF-8" standalone="no" ?>
<gpx xmlns="http://www.topografix.com/GPX/1/1" xmlns:xsi="http://www.w3.org/2001/XMLSchema-instance" xsi:schemaLocation="http://www.topografix.com/GPX/1/1 http://www.topografix.com/GPX/1/1/gpx.xsd" version="1.1" creator="VisuGPX - https://www.visugpx.com">
  <metadata>
    <name>2018-03-22 Bike ride-Chatillon-Limas 39k</name>
    <desc><![CDATA[2018-03-22 Bike ride-Chatillon-Limas 39k]]></desc>
  </metadata>
  <wpt lat="45.92461" lon="4.73705">
    <ele>174</ele>
    <name><![CDATA[2018-03-22 15:05 (Start)]]></name>
  </wpt>
  <wpt lat="45.92462" lon="4.73711">
    <ele>174</ele>
    <name><![CDATA[2018-03-22 15:05 (End)]]></name>
  </wpt>
  <trk>
    <name><![CDATA[2018-03-22 15:05]]></name>
    <trkseg>
      <trkpt lat="45.92461" lon="4.73705">
        <ele>174</ele>
        <time>2018-03-22T14:05:12.314Z</time>
      </trkpt>
      <trkpt lat="45.92456" lon="4.73721">
        <ele>174</ele>
        <time>2018-03-22T14:05:09.774Z</time>
      </trkpt>
      <trkpt lat="45.92459" lon="4.73713">
        <ele>174</ele>
        <time>2018-03-22T14:05:21Z</time>
      </trkpt>
      <trkpt lat="45.9246" lon="4.73713">
        <ele>174</ele>
        <time>2018-03-22T14:05:22Z</time>
      </trkpt>
      <trkpt lat="45.9246" lon="4.73713">
        <ele>174</ele>
        <time>2018-03-22T14:05:25Z</time>
      </trkpt>
      <trkpt lat="45.9246" lon="4.73713">
        <ele>174</ele>
        <time>2018-03-22T14:05:26Z</time>
      </trkpt>
      <trkpt lat="45.92467" lon="4.73705">
        <ele>174</ele>
        <time>2018-03-22T14:05:33Z</time>
      </trkpt>
      <trkpt lat="45.92468" lon="4.73703">
        <ele>174</ele>
        <time>2018-03-22T14:05:34Z</time>
      </trkpt>
      <trkpt lat="45.9247" lon="4.73693">
        <ele>174</ele>
        <time>2018-03-22T14:05:38Z</time>
      </trkpt>
      <trkpt lat="45.9247" lon="4.7369">
        <ele>174</ele>
        <time>2018-03-22T14:05:39Z</time>
      </trkpt>
      <trkpt lat="45.92471" lon="4.7368">
        <ele>174</ele>
        <time>2018-03-22T14:05:42Z</time>
      </trkpt>
      <trkpt lat="45.92472" lon="4.73676">
        <ele>174</ele>
        <time>2018-03-22T14:05:43Z</time>
      </trkpt>
      <trkpt lat="45.92473" lon="4.73664">
        <ele>174</ele>
        <time>2018-03-22T14:05:46Z</time>
      </trkpt>
      <trkpt lat="45.92473" lon="4.73659">
        <ele>174</ele>
        <time>2018-03-22T14:05:47Z</time>
      </trkpt>
      <trkpt lat="45.92474" lon="4.73655">
        <ele>174</ele>
        <time>2018-03-22T14:05:48Z</time>
      </trkpt>
      <trkpt lat="45.92475" lon="4.73643">
        <ele>174</ele>
        <time>2018-03-22T14:05:49Z</time>
      </trkpt>
      <trkpt lat="45.92475" lon="4.73632">
        <ele>174</ele>
        <time>2018-03-22T14:05:51Z</time>
      </trkpt>
      <trkpt lat="45.92474" lon="4.73627">
        <ele>174</ele>
        <time>2018-03-22T14:05:52Z</time>
      </trkpt>
      <trkpt lat="45.92473" lon="4.73615">
        <ele>174</ele>
        <time>2018-03-22T14:05:54Z</time>
      </trkpt>
      <trkpt lat="45.92472" lon="4.73609">
        <ele>174</ele>
        <time>2018-03-22T14:05:55Z</time>
      </trkpt>
      <trkpt lat="45.92471" lon="4.73598">
        <ele>174</ele>
        <time>2018-03-22T14:05:57Z</time>
      </trkpt>
      <trkpt lat="45.92471" lon="4.73592">
        <ele>174</ele>
        <time>2018-03-22T14:05:58Z</time>
      </trkpt>
      <trkpt lat="45.92471" lon="4.7358">
        <ele>173</ele>
        <time>2018-03-22T14:06:00Z</time>
      </trkpt>
      <trkpt lat="45.92471" lon="4.73575">
        <ele>173</ele>
        <time>2018-03-22T14:06:01Z</time>
      </trkpt>
      <trkpt lat="45.9247" lon="4.73564">
        <ele>173</ele>
        <time>2018-03-22T14:06:03Z</time>
      </trkpt>
      <trkpt lat="45.9247" lon="4.73561">
        <ele>173</ele>
        <time>2018-03-22T14:06:04Z</time>
      </trkpt>
      <trkpt lat="45.92467" lon="4.73552">
        <ele>173</ele>
        <time>2018-03-22T14:06:07Z</time>
      </trkpt>
      <trkpt lat="45.92461" lon="4.73545">
        <ele>173</ele>
        <time>2018-03-22T14:06:08Z</time>
      </trkpt>
      <trkpt lat="45.92452" lon="4.73546">
        <ele>174</ele>
        <time>2018-03-22T14:06:10Z</time>
      </trkpt>
      <trkpt lat="45.92448" lon="4.73549">
        <ele>174</ele>
        <time>2018-03-22T14:06:11Z</time>
      </trkpt>
      <trkpt lat="45.92443" lon="4.73551">
        <ele>174</ele>
        <time>2018-03-22T14:06:12Z</time>
      </trkpt>
      <trkpt lat="45.92438" lon="4.73557">
        <ele>174</ele>
        <time>2018-03-22T14:06:13Z</time>
      </trkpt>
      <trkpt lat="45.92433" lon="4.7356">
        <ele>174</ele>
        <time>2018-03-22T14:06:14Z</time>
      </trkpt>
      <trkpt lat="45.92429" lon="4.73563">
        <ele>174</ele>
        <time>2018-03-22T14:06:15Z</time>
      </trkpt>
      <trkpt lat="45.92424" lon="4.73566">
        <ele>174</ele>
        <time>2018-03-22T14:06:16Z</time>
      </trkpt>
      <trkpt lat="45.92419" lon="4.73568">
        <ele>174</ele>
        <time>2018-03-22T14:06:17Z</time>
      </trkpt>
      <trkpt lat="45.92414" lon="4.73571">
        <ele>173</ele>
        <time>2018-03-22T14:06:18Z</time>
      </trkpt>
      <trkpt lat="45.92409" lon="4.73573">
        <ele>173</ele>
        <time>2018-03-22T14:06:19Z</time>
      </trkpt>
      <trkpt lat="45.92404" lon="4.73575">
        <ele>173</ele>
        <time>2018-03-22T14:06:20Z</time>
      </trkpt>
      <trkpt lat="45.92399" lon="4.73577">
        <ele>173</ele>
        <time>2018-03-22T14:06:21Z</time>
      </trkpt>
      <trkpt lat="45.92394" lon="4.73579">
        <ele>173</ele>
        <time>2018-03-22T14:06:22Z</time>
      </trkpt>
      <trkpt lat="45.92389" lon="4.73581">
        <ele>173</ele>
        <time>2018-03-22T14:06:23Z</time>
      </trkpt>
      <trkpt lat="45.92384" lon="4.73584">
        <ele>173</ele>
        <time>2018-03-22T14:06:24Z</time>
      </trkpt>
      <trkpt lat="45.92377" lon="4.73588">
        <ele>173</ele>
        <time>2018-03-22T14:06:25Z</time>
      </trkpt>
      <trkpt lat="45.92373" lon="4.73591">
        <ele>173</ele>
        <time>2018-03-22T14:06:26Z</time>
      </trkpt>
      <trkpt lat="45.92367" lon="4.73593">
        <ele>173</ele>
        <time>2018-03-22T14:06:27Z</time>
      </trkpt>
      <trkpt lat="45.92362" lon="4.73596">
        <ele>173</ele>
        <time>2018-03-22T14:06:28Z</time>
      </trkpt>
      <trkpt lat="45.92357" lon="4.73599">
        <ele>173</ele>
        <time>2018-03-22T14:06:29Z</time>
      </trkpt>
      <trkpt lat="45.92351" lon="4.73602">
        <ele>173</ele>
        <time>2018-03-22T14:06:30Z</time>
      </trkpt>
      <trkpt lat="45.92346" lon="4.73604">
        <ele>173</ele>
        <time>2018-03-22T14:06:31Z</time>
      </trkpt>
      <trkpt lat="45.92341" lon="4.73607">
        <ele>173</ele>
        <time>2018-03-22T14:06:32Z</time>
      </trkpt>
      <trkpt lat="45.92336" lon="4.7361">
        <ele>173</ele>
        <time>2018-03-22T14:06:33Z</time>
      </trkpt>
      <trkpt lat="45.92331" lon="4.73613">
        <ele>172</ele>
        <time>2018-03-22T14:06:34Z</time>
      </trkpt>
      <trkpt lat="45.92326" lon="4.73616">
        <ele>172</ele>
        <time>2018-03-22T14:06:35Z</time>
      </trkpt>
      <trkpt lat="45.92321" lon="4.73619">
        <ele>172</ele>
        <time>2018-03-22T14:06:36Z</time>
      </trkpt>
      <trkpt lat="45.92315" lon="4.73622">
        <ele>172</ele>
        <time>2018-03-22T14:06:37Z</time>
      </trkpt>
      <trkpt lat="45.92308" lon="4.73626">
        <ele>172</ele>
        <time>2018-03-22T14:06:38Z</time>
      </trkpt>
      <trkpt lat="45.92303" lon="4.73629">
        <ele>172</ele>
        <time>2018-03-22T14:06:39Z</time>
      </trkpt>
      <trkpt lat="45.92298" lon="4.73631">
        <ele>172</ele>
        <time>2018-03-22T14:06:40Z</time>
      </trkpt>
      <trkpt lat="45.92293" lon="4.73634">
        <ele>172</ele>
        <time>2018-03-22T14:06:41Z</time>
      </trkpt>
      <trkpt lat="45.92286" lon="4.73637">
        <ele>172</ele>
        <time>2018-03-22T14:06:42Z</time>
      </trkpt>
      <trkpt lat="45.9228" lon="4.73641">
        <ele>172</ele>
        <time>2018-03-22T14:06:43Z</time>
      </trkpt>
      <trkpt lat="45.92275" lon="4.73644">
        <ele>172</ele>
        <time>2018-03-22T14:06:44Z</time>
      </trkpt>
      <trkpt lat="45.9227" lon="4.73648">
        <ele>172</ele>
        <time>2018-03-22T14:06:45Z</time>
      </trkpt>
      <trkpt lat="45.92264" lon="4.73652">
        <ele>171</ele>
        <time>2018-03-22T14:06:46Z</time>
      </trkpt>
      <trkpt lat="45.92258" lon="4.73655">
        <ele>171</ele>
        <time>2018-03-22T14:06:47Z</time>
      </trkpt>
      <trkpt lat="45.92252" lon="4.73658">
        <ele>171</ele>
        <time>2018-03-22T14:06:48Z</time>
      </trkpt>
      <trkpt lat="45.92247" lon="4.73662">
        <ele>171</ele>
        <time>2018-03-22T14:06:49Z</time>
      </trkpt>
      <trkpt lat="45.92241" lon="4.73665">
        <ele>171</ele>
        <time>2018-03-22T14:06:50Z</time>
      </trkpt>
      <trkpt lat="45.92235" lon="4.73667">
        <ele>171</ele>
        <time>2018-03-22T14:06:51Z</time>
      </trkpt>
      <trkpt lat="45.92229" lon="4.73669">
        <ele>171</ele>
        <time>2018-03-22T14:06:52Z</time>
      </trkpt>
      <trkpt lat="45.92223" lon="4.73671">
        <ele>171</ele>
        <time>2018-03-22T14:06:53Z</time>
      </trkpt>
      <trkpt lat="45.92217" lon="4.73674">
        <ele>171</ele>
        <time>2018-03-22T14:06:54Z</time>
      </trkpt>
      <trkpt lat="45.92211" lon="4.73678">
        <ele>171</ele>
        <time>2018-03-22T14:06:55Z</time>
      </trkpt>
      <trkpt lat="45.92205" lon="4.73682">
        <ele>171</ele>
        <time>2018-03-22T14:06:56Z</time>
      </trkpt>
      <trkpt lat="45.92199" lon="4.73685">
        <ele>171</ele>
        <time>2018-03-22T14:06:57Z</time>
      </trkpt>
      <trkpt lat="45.92193" lon="4.73688">
        <ele>171</ele>
        <time>2018-03-22T14:06:58Z</time>
      </trkpt>
      <trkpt lat="45.92186" lon="4.73691">
        <ele>171</ele>
        <time>2018-03-22T14:06:59Z</time>
      </trkpt>
      <trkpt lat="45.9218" lon="4.73694">
        <ele>171</ele>
        <time>2018-03-22T14:07:00Z</time>
      </trkpt>
      <trkpt lat="45.92174" lon="4.73697">
        <ele>171</ele>
        <time>2018-03-22T14:07:01Z</time>
      </trkpt>
      <trkpt lat="45.92168" lon="4.737">
        <ele>171</ele>
        <time>2018-03-22T14:07:02Z</time>
      </trkpt>
      <trkpt lat="45.92162" lon="4.73702">
        <ele>171</ele>
        <time>2018-03-22T14:07:03Z</time>
      </trkpt>
      <trkpt lat="45.92155" lon="4.73705">
        <ele>171</ele>
        <time>2018-03-22T14:07:04Z</time>
      </trkpt>
      <trkpt lat="45.92149" lon="4.73709">
        <ele>171</ele>
        <time>2018-03-22T14:07:05Z</time>
      </trkpt>
      <trkpt lat="45.92143" lon="4.73712">
        <ele>171</ele>
        <time>2018-03-22T14:07:06Z</time>
      </trkpt>
      <trkpt lat="45.92137" lon="4.73714">
        <ele>171</ele>
        <time>2018-03-22T14:07:07Z</time>
      </trkpt>
      <trkpt lat="45.9213" lon="4.73717">
        <ele>171</ele>
        <time>2018-03-22T14:07:08Z</time>
      </trkpt>
      <trkpt lat="45.92123" lon="4.73719">
        <ele>171</ele>
        <time>2018-03-22T14:07:09Z</time>
      </trkpt>
      <trkpt lat="45.92117" lon="4.73722">
        <ele>171</ele>
        <time>2018-03-22T14:07:10Z</time>
      </trkpt>
      <trkpt lat="45.9211" lon="4.73723">
        <ele>171</ele>
        <time>2018-03-22T14:07:11Z</time>
      </trkpt>
      <trkpt lat="45.92103" lon="4.73724">
        <ele>171</ele>
        <time>2018-03-22T14:07:12Z</time>
      </trkpt>
      <trkpt lat="45.92096" lon="4.73726">
        <ele>171</ele>
        <time>2018-03-22T14:07:13Z</time>
      </trkpt>
      <trkpt lat="45.92089" lon="4.73727">
        <ele>171</ele>
        <time>2018-03-22T14:07:14Z</time>
      </trkpt>
      <trkpt lat="45.92082" lon="4.73728">
        <ele>171</ele>
        <time>2018-03-22T14:07:15Z</time>
      </trkpt>
      <trkpt lat="45.92075" lon="4.73729">
        <ele>171</ele>
        <time>2018-03-22T14:07:16Z</time>
      </trkpt>
      <trkpt lat="45.92068" lon="4.73728">
        <ele>171</ele>
        <time>2018-03-22T14:07:17Z</time>
      </trkpt>
      <trkpt lat="45.92061" lon="4.73729">
        <ele>171</ele>
        <time>2018-03-22T14:07:18Z</time>
      </trkpt>
      <trkpt lat="45.92054" lon="4.73729">
        <ele>171</ele>
        <time>2018-03-22T14:07:19Z</time>
      </trkpt>
      <trkpt lat="45.92048" lon="4.7373">
        <ele>171</ele>
        <time>2018-03-22T14:07:20Z</time>
      </trkpt>
      <trkpt lat="45.92041" lon="4.7373">
        <ele>171</ele>
        <time>2018-03-22T14:07:21Z</time>
      </trkpt>
      <trkpt lat="45.92034" lon="4.7373">
        <ele>171</ele>
        <time>2018-03-22T14:07:22Z</time>
      </trkpt>
      <trkpt lat="45.92027" lon="4.7373">
        <ele>171</ele>
        <time>2018-03-22T14:07:23Z</time>
      </trkpt>
      <trkpt lat="45.92022" lon="4.7373">
        <ele>171</ele>
        <time>2018-03-22T14:07:24Z</time>
      </trkpt>
      <trkpt lat="45.92015" lon="4.7373">
        <ele>171</ele>
        <time>2018-03-22T14:07:25Z</time>
      </trkpt>
      <trkpt lat="45.92008" lon="4.7373">
        <ele>171</ele>
        <time>2018-03-22T14:07:26Z</time>
      </trkpt>
      <trkpt lat="45.92001" lon="4.73731">
        <ele>171</ele>
        <time>2018-03-22T14:07:27Z</time>
      </trkpt>
      <trkpt lat="45.91994" lon="4.73731">
        <ele>171</ele>
        <time>2018-03-22T14:07:28Z</time>
      </trkpt>
      <trkpt lat="45.91988" lon="4.73731">
        <ele>171</ele>
        <time>2018-03-22T14:07:29Z</time>
      </trkpt>
      <trkpt lat="45.91981" lon="4.7373">
        <ele>171</ele>
        <time>2018-03-22T14:07:30Z</time>
      </trkpt>
      <trkpt lat="45.91974" lon="4.7373">
        <ele>171</ele>
        <time>2018-03-22T14:07:31Z</time>
      </trkpt>
      <trkpt lat="45.91967" lon="4.73729">
        <ele>171</ele>
        <time>2018-03-22T14:07:32Z</time>
      </trkpt>
      <trkpt lat="45.9196" lon="4.73729">
        <ele>171</ele>
        <time>2018-03-22T14:07:33Z</time>
      </trkpt>
      <trkpt lat="45.91953" lon="4.7373">
        <ele>170</ele>
        <time>2018-03-22T14:07:34Z</time>
      </trkpt>
      <trkpt lat="45.91946" lon="4.7373">
        <ele>170</ele>
        <time>2018-03-22T14:07:35Z</time>
      </trkpt>
      <trkpt lat="45.91939" lon="4.7373">
        <ele>170</ele>
        <time>2018-03-22T14:07:36Z</time>
      </trkpt>
      <trkpt lat="45.91931" lon="4.73729">
        <ele>170</ele>
        <time>2018-03-22T14:07:37Z</time>
      </trkpt>
      <trkpt lat="45.91924" lon="4.73729">
        <ele>170</ele>
        <time>2018-03-22T14:07:38Z</time>
      </trkpt>
      <trkpt lat="45.91916" lon="4.73729">
        <ele>171</ele>
        <time>2018-03-22T14:07:39Z</time>
      </trkpt>
      <trkpt lat="45.91909" lon="4.73729">
        <ele>171</ele>
        <time>2018-03-22T14:07:40Z</time>
      </trkpt>
      <trkpt lat="45.91902" lon="4.73729">
        <ele>171</ele>
        <time>2018-03-22T14:07:41Z</time>
      </trkpt>
      <trkpt lat="45.91895" lon="4.73729">
        <ele>171</ele>
        <time>2018-03-22T14:07:42Z</time>
      </trkpt>
      <trkpt lat="45.91888" lon="4.73729">
        <ele>171</ele>
        <time>2018-03-22T14:07:43Z</time>
      </trkpt>
      <trkpt lat="45.9188" lon="4.73729">
        <ele>171</ele>
        <time>2018-03-22T14:07:44Z</time>
      </trkpt>
      <trkpt lat="45.91873" lon="4.73729">
        <ele>171</ele>
        <time>2018-03-22T14:07:45Z</time>
      </trkpt>
      <trkpt lat="45.91865" lon="4.7373">
        <ele>171</ele>
        <time>2018-03-22T14:07:46Z</time>
      </trkpt>
      <trkpt lat="45.91858" lon="4.7373">
        <ele>171</ele>
        <time>2018-03-22T14:07:47Z</time>
      </trkpt>
      <trkpt lat="45.9185" lon="4.73729">
        <ele>171</ele>
        <time>2018-03-22T14:07:48Z</time>
      </trkpt>
      <trkpt lat="45.91843" lon="4.73729">
        <ele>172</ele>
        <time>2018-03-22T14:07:49Z</time>
      </trkpt>
      <trkpt lat="45.91836" lon="4.73729">
        <ele>172</ele>
        <time>2018-03-22T14:07:50Z</time>
      </trkpt>
      <trkpt lat="45.91829" lon="4.73729">
        <ele>172</ele>
        <time>2018-03-22T14:07:51Z</time>
      </trkpt>
      <trkpt lat="45.91822" lon="4.7373">
        <ele>172</ele>
        <time>2018-03-22T14:07:52Z</time>
      </trkpt>
      <trkpt lat="45.91816" lon="4.73729">
        <ele>172</ele>
        <time>2018-03-22T14:07:53Z</time>
      </trkpt>
      <trkpt lat="45.91809" lon="4.73729">
        <ele>172</ele>
        <time>2018-03-22T14:07:54Z</time>
      </trkpt>
      <trkpt lat="45.91801" lon="4.73729">
        <ele>172</ele>
        <time>2018-03-22T14:07:55Z</time>
      </trkpt>
      <trkpt lat="45.91795" lon="4.73729">
        <ele>172</ele>
        <time>2018-03-22T14:07:56Z</time>
      </trkpt>
      <trkpt lat="45.91788" lon="4.7373">
        <ele>173</ele>
        <time>2018-03-22T14:07:57Z</time>
      </trkpt>
      <trkpt lat="45.91782" lon="4.7373">
        <ele>173</ele>
        <time>2018-03-22T14:07:58Z</time>
      </trkpt>
      <trkpt lat="45.91775" lon="4.7373">
        <ele>173</ele>
        <time>2018-03-22T14:07:59Z</time>
      </trkpt>
      <trkpt lat="45.91768" lon="4.7373">
        <ele>173</ele>
        <time>2018-03-22T14:08:00Z</time>
      </trkpt>
      <trkpt lat="45.91761" lon="4.7373">
        <ele>173</ele>
        <time>2018-03-22T14:08:01Z</time>
      </trkpt>
      <trkpt lat="45.91755" lon="4.73729">
        <ele>173</ele>
        <time>2018-03-22T14:08:02Z</time>
      </trkpt>
      <trkpt lat="45.91749" lon="4.7373">
        <ele>173</ele>
        <time>2018-03-22T14:08:03Z</time>
      </trkpt>
      <trkpt lat="45.91742" lon="4.7373">
        <ele>173</ele>
        <time>2018-03-22T14:08:04Z</time>
      </trkpt>
      <trkpt lat="45.91735" lon="4.7373">
        <ele>173</ele>
        <time>2018-03-22T14:08:05Z</time>
      </trkpt>
      <trkpt lat="45.91728" lon="4.7373">
        <ele>173</ele>
        <time>2018-03-22T14:08:06Z</time>
      </trkpt>
      <trkpt lat="45.91721" lon="4.7373">
        <ele>173</ele>
        <time>2018-03-22T14:08:07Z</time>
      </trkpt>
      <trkpt lat="45.91713" lon="4.73731">
        <ele>173</ele>
        <time>2018-03-22T14:08:08Z</time>
      </trkpt>
      <trkpt lat="45.91706" lon="4.73732">
        <ele>172</ele>
        <time>2018-03-22T14:08:09Z</time>
      </trkpt>
      <trkpt lat="45.91699" lon="4.73731">
        <ele>172</ele>
        <time>2018-03-22T14:08:10Z</time>
      </trkpt>
      <trkpt lat="45.91691" lon="4.73731">
        <ele>172</ele>
        <time>2018-03-22T14:08:11Z</time>
      </trkpt>
      <trkpt lat="45.91684" lon="4.73732">
        <ele>172</ele>
        <time>2018-03-22T14:08:12Z</time>
      </trkpt>
      <trkpt lat="45.91677" lon="4.73733">
        <ele>172</ele>
        <time>2018-03-22T14:08:13Z</time>
      </trkpt>
      <trkpt lat="45.9167" lon="4.73733">
        <ele>172</ele>
        <time>2018-03-22T14:08:14Z</time>
      </trkpt>
      <trkpt lat="45.91662" lon="4.73734">
        <ele>172</ele>
        <time>2018-03-22T14:08:15Z</time>
      </trkpt>
      <trkpt lat="45.91654" lon="4.73734">
        <ele>172</ele>
        <time>2018-03-22T14:08:16Z</time>
      </trkpt>
      <trkpt lat="45.91648" lon="4.73734">
        <ele>172</ele>
        <time>2018-03-22T14:08:17Z</time>
      </trkpt>
      <trkpt lat="45.9164" lon="4.73733">
        <ele>172</ele>
        <time>2018-03-22T14:08:18Z</time>
      </trkpt>
      <trkpt lat="45.91633" lon="4.73734">
        <ele>172</ele>
        <time>2018-03-22T14:08:19Z</time>
      </trkpt>
      <trkpt lat="45.91626" lon="4.73734">
        <ele>172</ele>
        <time>2018-03-22T14:08:20Z</time>
      </trkpt>
      <trkpt lat="45.91618" lon="4.73734">
        <ele>173</ele>
        <time>2018-03-22T14:08:21Z</time>
      </trkpt>
      <trkpt lat="45.91611" lon="4.73734">
        <ele>173</ele>
        <time>2018-03-22T14:08:22Z</time>
      </trkpt>
      <trkpt lat="45.91604" lon="4.73734">
        <ele>173</ele>
        <time>2018-03-22T14:08:23Z</time>
      </trkpt>
      <trkpt lat="45.91597" lon="4.73734">
        <ele>173</ele>
        <time>2018-03-22T14:08:24Z</time>
      </trkpt>
      <trkpt lat="45.91589" lon="4.73733">
        <ele>173</ele>
        <time>2018-03-22T14:08:25Z</time>
      </trkpt>
      <trkpt lat="45.91582" lon="4.73734">
        <ele>173</ele>
        <time>2018-03-22T14:08:26Z</time>
      </trkpt>
      <trkpt lat="45.91574" lon="4.73734">
        <ele>173</ele>
        <time>2018-03-22T14:08:27Z</time>
      </trkpt>
      <trkpt lat="45.91567" lon="4.73735">
        <ele>173</ele>
        <time>2018-03-22T14:08:28Z</time>
      </trkpt>
      <trkpt lat="45.91561" lon="4.73735">
        <ele>173</ele>
        <time>2018-03-22T14:08:29Z</time>
      </trkpt>
      <trkpt lat="45.91553" lon="4.73735">
        <ele>174</ele>
        <time>2018-03-22T14:08:30Z</time>
      </trkpt>
      <trkpt lat="45.91546" lon="4.73735">
        <ele>174</ele>
        <time>2018-03-22T14:08:31Z</time>
      </trkpt>
      <trkpt lat="45.91539" lon="4.73735">
        <ele>174</ele>
        <time>2018-03-22T14:08:32Z</time>
      </trkpt>
      <trkpt lat="45.91531" lon="4.73735">
        <ele>174</ele>
        <time>2018-03-22T14:08:33Z</time>
      </trkpt>
      <trkpt lat="45.91524" lon="4.73735">
        <ele>174</ele>
        <time>2018-03-22T14:08:34Z</time>
      </trkpt>
      <trkpt lat="45.91517" lon="4.73736">
        <ele>174</ele>
        <time>2018-03-22T14:08:35Z</time>
      </trkpt>
      <trkpt lat="45.91509" lon="4.73736">
        <ele>174</ele>
        <time>2018-03-22T14:08:36Z</time>
      </trkpt>
      <trkpt lat="45.91502" lon="4.73735">
        <ele>174</ele>
        <time>2018-03-22T14:08:37Z</time>
      </trkpt>
      <trkpt lat="45.91495" lon="4.73736">
        <ele>174</ele>
        <time>2018-03-22T14:08:38Z</time>
      </trkpt>
      <trkpt lat="45.91489" lon="4.73736">
        <ele>174</ele>
        <time>2018-03-22T14:08:39Z</time>
      </trkpt>
      <trkpt lat="45.91482" lon="4.73736">
        <ele>174</ele>
        <time>2018-03-22T14:08:40Z</time>
      </trkpt>
      <trkpt lat="45.91475" lon="4.73735">
        <ele>174</ele>
        <time>2018-03-22T14:08:41Z</time>
      </trkpt>
      <trkpt lat="45.91467" lon="4.73735">
        <ele>174</ele>
        <time>2018-03-22T14:08:42Z</time>
      </trkpt>
      <trkpt lat="45.9146" lon="4.73735">
        <ele>174</ele>
        <time>2018-03-22T14:08:43Z</time>
      </trkpt>
      <trkpt lat="45.91453" lon="4.73737">
        <ele>173</ele>
        <time>2018-03-22T14:08:44Z</time>
      </trkpt>
      <trkpt lat="45.91445" lon="4.73738">
        <ele>173</ele>
        <time>2018-03-22T14:08:45Z</time>
      </trkpt>
      <trkpt lat="45.91438" lon="4.73737">
        <ele>173</ele>
        <time>2018-03-22T14:08:46Z</time>
      </trkpt>
      <trkpt lat="45.91431" lon="4.73736">
        <ele>173</ele>
        <time>2018-03-22T14:08:47Z</time>
      </trkpt>
      <trkpt lat="45.91424" lon="4.73736">
        <ele>173</ele>
        <time>2018-03-22T14:08:48Z</time>
      </trkpt>
      <trkpt lat="45.91417" lon="4.73736">
        <ele>173</ele>
        <time>2018-03-22T14:08:49Z</time>
      </trkpt>
      <trkpt lat="45.9141" lon="4.73736">
        <ele>173</ele>
        <time>2018-03-22T14:08:50Z</time>
      </trkpt>
      <trkpt lat="45.91404" lon="4.73736">
        <ele>173</ele>
        <time>2018-03-22T14:08:51Z</time>
      </trkpt>
      <trkpt lat="45.91397" lon="4.73736">
        <ele>173</ele>
        <time>2018-03-22T14:08:52Z</time>
      </trkpt>
      <trkpt lat="45.9139" lon="4.73737">
        <ele>173</ele>
        <time>2018-03-22T14:08:53Z</time>
      </trkpt>
      <trkpt lat="45.91384" lon="4.73737">
        <ele>173</ele>
        <time>2018-03-22T14:08:54Z</time>
      </trkpt>
      <trkpt lat="45.91377" lon="4.73737">
        <ele>173</ele>
        <time>2018-03-22T14:08:55Z</time>
      </trkpt>
      <trkpt lat="45.9137" lon="4.73737">
        <ele>173</ele>
        <time>2018-03-22T14:08:56Z</time>
      </trkpt>
      <trkpt lat="45.91363" lon="4.73738">
        <ele>173</ele>
        <time>2018-03-22T14:08:57Z</time>
      </trkpt>
      <trkpt lat="45.91357" lon="4.73738">
        <ele>173</ele>
        <time>2018-03-22T14:08:58Z</time>
      </trkpt>
      <trkpt lat="45.91349" lon="4.73738">
        <ele>173</ele>
        <time>2018-03-22T14:08:59Z</time>
      </trkpt>
      <trkpt lat="45.91342" lon="4.73739">
        <ele>173</ele>
        <time>2018-03-22T14:09:00Z</time>
      </trkpt>
      <trkpt lat="45.91336" lon="4.7374">
        <ele>173</ele>
        <time>2018-03-22T14:09:01Z</time>
      </trkpt>
      <trkpt lat="45.91328" lon="4.73739">
        <ele>173</ele>
        <time>2018-03-22T14:09:02Z</time>
      </trkpt>
      <trkpt lat="45.91321" lon="4.7374">
        <ele>174</ele>
        <time>2018-03-22T14:09:03Z</time>
      </trkpt>
      <trkpt lat="45.91315" lon="4.7374">
        <ele>174</ele>
        <time>2018-03-22T14:09:04Z</time>
      </trkpt>
      <trkpt lat="45.91308" lon="4.73739">
        <ele>174</ele>
        <time>2018-03-22T14:09:05Z</time>
      </trkpt>
      <trkpt lat="45.91302" lon="4.7374">
        <ele>174</ele>
        <time>2018-03-22T14:09:06Z</time>
      </trkpt>
      <trkpt lat="45.91295" lon="4.7374">
        <ele>174</ele>
        <time>2018-03-22T14:09:07Z</time>
      </trkpt>
      <trkpt lat="45.91288" lon="4.73741">
        <ele>174</ele>
        <time>2018-03-22T14:09:08Z</time>
      </trkpt>
      <trkpt lat="45.91282" lon="4.73741">
        <ele>174</ele>
        <time>2018-03-22T14:09:09Z</time>
      </trkpt>
      <trkpt lat="45.91275" lon="4.73741">
        <ele>174</ele>
        <time>2018-03-22T14:09:10Z</time>
      </trkpt>
      <trkpt lat="45.91267" lon="4.73741">
        <ele>174</ele>
        <time>2018-03-22T14:09:11Z</time>
      </trkpt>
      <trkpt lat="45.9126" lon="4.7374">
        <ele>175</ele>
        <time>2018-03-22T14:09:12Z</time>
      </trkpt>
      <trkpt lat="45.91253" lon="4.7374">
        <ele>175</ele>
        <time>2018-03-22T14:09:13Z</time>
      </trkpt>
      <trkpt lat="45.91246" lon="4.73741">
        <ele>175</ele>
        <time>2018-03-22T14:09:14Z</time>
      </trkpt>
      <trkpt lat="45.91238" lon="4.7374">
        <ele>175</ele>
        <time>2018-03-22T14:09:15Z</time>
      </trkpt>
      <trkpt lat="45.91231" lon="4.73741">
        <ele>175</ele>
        <time>2018-03-22T14:09:16Z</time>
      </trkpt>
      <trkpt lat="45.91225" lon="4.73742">
        <ele>175</ele>
        <time>2018-03-22T14:09:17Z</time>
      </trkpt>
      <trkpt lat="45.91217" lon="4.73741">
        <ele>175</ele>
        <time>2018-03-22T14:09:18Z</time>
      </trkpt>
      <trkpt lat="45.9121" lon="4.73742">
        <ele>175</ele>
        <time>2018-03-22T14:09:19Z</time>
      </trkpt>
      <trkpt lat="45.91203" lon="4.73741">
        <ele>175</ele>
        <time>2018-03-22T14:09:20Z</time>
      </trkpt>
      <trkpt lat="45.91196" lon="4.7374">
        <ele>175</ele>
        <time>2018-03-22T14:09:21Z</time>
      </trkpt>
      <trkpt lat="45.9119" lon="4.73737">
        <ele>175</ele>
        <time>2018-03-22T14:09:22Z</time>
      </trkpt>
      <trkpt lat="45.91183" lon="4.73735">
        <ele>175</ele>
        <time>2018-03-22T14:09:23Z</time>
      </trkpt>
      <trkpt lat="45.91177" lon="4.73732">
        <ele>175</ele>
        <time>2018-03-22T14:09:24Z</time>
      </trkpt>
      <trkpt lat="45.91171" lon="4.7373">
        <ele>175</ele>
        <time>2018-03-22T14:09:25Z</time>
      </trkpt>
      <trkpt lat="45.91164" lon="4.73728">
        <ele>175</ele>
        <time>2018-03-22T14:09:26Z</time>
      </trkpt>
      <trkpt lat="45.91158" lon="4.73725">
        <ele>175</ele>
        <time>2018-03-22T14:09:27Z</time>
      </trkpt>
      <trkpt lat="45.91154" lon="4.73721">
        <ele>175</ele>
        <time>2018-03-22T14:09:28Z</time>
      </trkpt>
      <trkpt lat="45.91149" lon="4.73715">
        <ele>174</ele>
        <time>2018-03-22T14:09:29Z</time>
      </trkpt>
      <trkpt lat="45.91145" lon="4.73708">
        <ele>174</ele>
        <time>2018-03-22T14:09:30Z</time>
      </trkpt>
      <trkpt lat="45.91142" lon="4.737">
        <ele>174</ele>
        <time>2018-03-22T14:09:31Z</time>
      </trkpt>
      <trkpt lat="45.91139" lon="4.73692">
        <ele>174</ele>
        <time>2018-03-22T14:09:32Z</time>
      </trkpt>
      <trkpt lat="45.91135" lon="4.73684">
        <ele>174</ele>
        <time>2018-03-22T14:09:33Z</time>
      </trkpt>
      <trkpt lat="45.91132" lon="4.73677">
        <ele>174</ele>
        <time>2018-03-22T14:09:34Z</time>
      </trkpt>
      <trkpt lat="45.91129" lon="4.73669">
        <ele>174</ele>
        <time>2018-03-22T14:09:35Z</time>
      </trkpt>
      <trkpt lat="45.91126" lon="4.73662">
        <ele>174</ele>
        <time>2018-03-22T14:09:36Z</time>
      </trkpt>
      <trkpt lat="45.91122" lon="4.73655">
        <ele>174</ele>
        <time>2018-03-22T14:09:37Z</time>
      </trkpt>
      <trkpt lat="45.91119" lon="4.73648">
        <ele>174</ele>
        <time>2018-03-22T14:09:38Z</time>
      </trkpt>
      <trkpt lat="45.91115" lon="4.73641">
        <ele>174</ele>
        <time>2018-03-22T14:09:39Z</time>
      </trkpt>
      <trkpt lat="45.91111" lon="4.73634">
        <ele>174</ele>
        <time>2018-03-22T14:09:40Z</time>
      </trkpt>
      <trkpt lat="45.91108" lon="4.73626">
        <ele>174</ele>
        <time>2018-03-22T14:09:41Z</time>
      </trkpt>
      <trkpt lat="45.91105" lon="4.7362">
        <ele>174</ele>
        <time>2018-03-22T14:09:42Z</time>
      </trkpt>
      <trkpt lat="45.91101" lon="4.73613">
        <ele>174</ele>
        <time>2018-03-22T14:09:43Z</time>
      </trkpt>
      <trkpt lat="45.91097" lon="4.73607">
        <ele>174</ele>
        <time>2018-03-22T14:09:44Z</time>
      </trkpt>
      <trkpt lat="45.91094" lon="4.736">
        <ele>174</ele>
        <time>2018-03-22T14:09:45Z</time>
      </trkpt>
      <trkpt lat="45.9109" lon="4.73592">
        <ele>174</ele>
        <time>2018-03-22T14:09:46Z</time>
      </trkpt>
      <trkpt lat="45.91087" lon="4.73585">
        <ele>174</ele>
        <time>2018-03-22T14:09:47Z</time>
      </trkpt>
      <trkpt lat="45.91083" lon="4.73579">
        <ele>174</ele>
        <time>2018-03-22T14:09:48Z</time>
      </trkpt>
      <trkpt lat="45.91081" lon="4.73572">
        <ele>174</ele>
        <time>2018-03-22T14:09:49Z</time>
      </trkpt>
      <trkpt lat="45.91078" lon="4.73564">
        <ele>174</ele>
        <time>2018-03-22T14:09:50Z</time>
      </trkpt>
      <trkpt lat="45.91075" lon="4.73557">
        <ele>174</ele>
        <time>2018-03-22T14:09:51Z</time>
      </trkpt>
      <trkpt lat="45.91072" lon="4.7355">
        <ele>174</ele>
        <time>2018-03-22T14:09:52Z</time>
      </trkpt>
      <trkpt lat="45.91069" lon="4.73544">
        <ele>174</ele>
        <time>2018-03-22T14:09:53Z</time>
      </trkpt>
      <trkpt lat="45.91066" lon="4.73536">
        <ele>175</ele>
        <time>2018-03-22T14:09:54Z</time>
      </trkpt>
      <trkpt lat="45.91063" lon="4.73529">
        <ele>175</ele>
        <time>2018-03-22T14:09:55Z</time>
      </trkpt>
      <trkpt lat="45.9106" lon="4.73521">
        <ele>175</ele>
        <time>2018-03-22T14:09:56Z</time>
      </trkpt>
      <trkpt lat="45.91056" lon="4.73515">
        <ele>175</ele>
        <time>2018-03-22T14:09:57Z</time>
      </trkpt>
      <trkpt lat="45.91052" lon="4.73509">
        <ele>175</ele>
        <time>2018-03-22T14:09:58Z</time>
      </trkpt>
      <trkpt lat="45.91049" lon="4.73502">
        <ele>175</ele>
        <time>2018-03-22T14:09:59Z</time>
      </trkpt>
      <trkpt lat="45.91045" lon="4.73494">
        <ele>175</ele>
        <time>2018-03-22T14:10:00Z</time>
      </trkpt>
      <trkpt lat="45.91042" lon="4.73488">
        <ele>175</ele>
        <time>2018-03-22T14:10:01Z</time>
      </trkpt>
      <trkpt lat="45.91039" lon="4.7348">
        <ele>175</ele>
        <time>2018-03-22T14:10:02Z</time>
      </trkpt>
      <trkpt lat="45.91037" lon="4.73472">
        <ele>175</ele>
        <time>2018-03-22T14:10:03Z</time>
      </trkpt>
      <trkpt lat="45.91036" lon="4.73464">
        <ele>175</ele>
        <time>2018-03-22T14:10:04Z</time>
      </trkpt>
      <trkpt lat="45.91035" lon="4.73457">
        <ele>175</ele>
        <time>2018-03-22T14:10:05Z</time>
      </trkpt>
      <trkpt lat="45.91034" lon="4.73444">
        <ele>175</ele>
        <time>2018-03-22T14:10:07Z</time>
      </trkpt>
      <trkpt lat="45.91034" lon="4.73437">
        <ele>175</ele>
        <time>2018-03-22T14:10:08Z</time>
      </trkpt>
      <trkpt lat="45.91034" lon="4.73429">
        <ele>175</ele>
        <time>2018-03-22T14:10:09Z</time>
      </trkpt>
      <trkpt lat="45.91032" lon="4.73423">
        <ele>175</ele>
        <time>2018-03-22T14:10:10Z</time>
      </trkpt>
      <trkpt lat="45.91028" lon="4.73418">
        <ele>175</ele>
        <time>2018-03-22T14:10:11Z</time>
      </trkpt>
      <trkpt lat="45.91023" lon="4.73416">
        <ele>174</ele>
        <time>2018-03-22T14:10:12Z</time>
      </trkpt>
      <trkpt lat="45.91017" lon="4.73416">
        <ele>175</ele>
        <time>2018-03-22T14:10:13Z</time>
      </trkpt>
      <trkpt lat="45.91012" lon="4.73418">
        <ele>175</ele>
        <time>2018-03-22T14:10:14Z</time>
      </trkpt>
      <trkpt lat="45.91008" lon="4.73423">
        <ele>175</ele>
        <time>2018-03-22T14:10:15Z</time>
      </trkpt>
      <trkpt lat="45.91005" lon="4.73429">
        <ele>175</ele>
        <time>2018-03-22T14:10:16Z</time>
      </trkpt>
      <trkpt lat="45.91" lon="4.73434">
        <ele>175</ele>
        <time>2018-03-22T14:10:17Z</time>
      </trkpt>
      <trkpt lat="45.90995" lon="4.73439">
        <ele>175</ele>
        <time>2018-03-22T14:10:18Z</time>
      </trkpt>
      <trkpt lat="45.9099" lon="4.73443">
        <ele>175</ele>
        <time>2018-03-22T14:10:19Z</time>
      </trkpt>
      <trkpt lat="45.90984" lon="4.73446">
        <ele>175</ele>
        <time>2018-03-22T14:10:20Z</time>
      </trkpt>
      <trkpt lat="45.90978" lon="4.73448">
        <ele>175</ele>
        <time>2018-03-22T14:10:21Z</time>
      </trkpt>
      <trkpt lat="45.90972" lon="4.73451">
        <ele>175</ele>
        <time>2018-03-22T14:10:22Z</time>
      </trkpt>
      <trkpt lat="45.90966" lon="4.73453">
        <ele>175</ele>
        <time>2018-03-22T14:10:23Z</time>
      </trkpt>
      <trkpt lat="45.90961" lon="4.73455">
        <ele>175</ele>
        <time>2018-03-22T14:10:24Z</time>
      </trkpt>
      <trkpt lat="45.90955" lon="4.73458">
        <ele>175</ele>
        <time>2018-03-22T14:10:25Z</time>
      </trkpt>
      <trkpt lat="45.90949" lon="4.7346">
        <ele>175</ele>
        <time>2018-03-22T14:10:26Z</time>
      </trkpt>
      <trkpt lat="45.90944" lon="4.73462">
        <ele>175</ele>
        <time>2018-03-22T14:10:27Z</time>
      </trkpt>
      <trkpt lat="45.90937" lon="4.73465">
        <ele>175</ele>
        <time>2018-03-22T14:10:28Z</time>
      </trkpt>
      <trkpt lat="45.90932" lon="4.73467">
        <ele>175</ele>
        <time>2018-03-22T14:10:29Z</time>
      </trkpt>
      <trkpt lat="45.90925" lon="4.73471">
        <ele>175</ele>
        <time>2018-03-22T14:10:30Z</time>
      </trkpt>
      <trkpt lat="45.90919" lon="4.73473">
        <ele>175</ele>
        <time>2018-03-22T14:10:31Z</time>
      </trkpt>
      <trkpt lat="45.90913" lon="4.73476">
        <ele>175</ele>
        <time>2018-03-22T14:10:32Z</time>
      </trkpt>
      <trkpt lat="45.90907" lon="4.73479">
        <ele>175</ele>
        <time>2018-03-22T14:10:33Z</time>
      </trkpt>
      <trkpt lat="45.909" lon="4.73482">
        <ele>175</ele>
        <time>2018-03-22T14:10:34Z</time>
      </trkpt>
      <trkpt lat="45.90893" lon="4.73485">
        <ele>175</ele>
        <time>2018-03-22T14:10:35Z</time>
      </trkpt>
      <trkpt lat="45.90886" lon="4.73487">
        <ele>175</ele>
        <time>2018-03-22T14:10:36Z</time>
      </trkpt>
      <trkpt lat="45.90879" lon="4.7349">
        <ele>175</ele>
        <time>2018-03-22T14:10:37Z</time>
      </trkpt>
      <trkpt lat="45.90873" lon="4.73493">
        <ele>175</ele>
        <time>2018-03-22T14:10:38Z</time>
      </trkpt>
      <trkpt lat="45.90867" lon="4.73495">
        <ele>175</ele>
        <time>2018-03-22T14:10:39Z</time>
      </trkpt>
      <trkpt lat="45.9086" lon="4.73499">
        <ele>175</ele>
        <time>2018-03-22T14:10:40Z</time>
      </trkpt>
      <trkpt lat="45.90854" lon="4.73502">
        <ele>174</ele>
        <time>2018-03-22T14:10:41Z</time>
      </trkpt>
      <trkpt lat="45.90847" lon="4.73504">
        <ele>174</ele>
        <time>2018-03-22T14:10:42Z</time>
      </trkpt>
      <trkpt lat="45.90841" lon="4.73507">
        <ele>174</ele>
        <time>2018-03-22T14:10:43Z</time>
      </trkpt>
      <trkpt lat="45.90834" lon="4.7351">
        <ele>174</ele>
        <time>2018-03-22T14:10:44Z</time>
      </trkpt>
      <trkpt lat="45.90827" lon="4.73512">
        <ele>175</ele>
        <time>2018-03-22T14:10:45Z</time>
      </trkpt>
      <trkpt lat="45.90821" lon="4.73515">
        <ele>175</ele>
        <time>2018-03-22T14:10:46Z</time>
      </trkpt>
      <trkpt lat="45.90815" lon="4.73518">
        <ele>175</ele>
        <time>2018-03-22T14:10:47Z</time>
      </trkpt>
      <trkpt lat="45.90809" lon="4.7352">
        <ele>175</ele>
        <time>2018-03-22T14:10:48Z</time>
      </trkpt>
      <trkpt lat="45.90803" lon="4.73522">
        <ele>175</ele>
        <time>2018-03-22T14:10:49Z</time>
      </trkpt>
      <trkpt lat="45.90797" lon="4.73525">
        <ele>175</ele>
        <time>2018-03-22T14:10:50Z</time>
      </trkpt>
      <trkpt lat="45.90791" lon="4.73528">
        <ele>176</ele>
        <time>2018-03-22T14:10:51Z</time>
      </trkpt>
      <trkpt lat="45.90784" lon="4.73531">
        <ele>176</ele>
        <time>2018-03-22T14:10:52Z</time>
      </trkpt>
      <trkpt lat="45.90778" lon="4.73533">
        <ele>176</ele>
        <time>2018-03-22T14:10:53Z</time>
      </trkpt>
      <trkpt lat="45.90772" lon="4.73536">
        <ele>176</ele>
        <time>2018-03-22T14:10:54Z</time>
      </trkpt>
      <trkpt lat="45.90766" lon="4.73537">
        <ele>176</ele>
        <time>2018-03-22T14:10:55Z</time>
      </trkpt>
      <trkpt lat="45.9076" lon="4.73539">
        <ele>176</ele>
        <time>2018-03-22T14:10:56Z</time>
      </trkpt>
      <trkpt lat="45.90754" lon="4.73543">
        <ele>176</ele>
        <time>2018-03-22T14:10:57Z</time>
      </trkpt>
      <trkpt lat="45.90749" lon="4.73547">
        <ele>177</ele>
        <time>2018-03-22T14:10:58Z</time>
      </trkpt>
      <trkpt lat="45.90744" lon="4.7355">
        <ele>178</ele>
        <time>2018-03-22T14:10:59Z</time>
      </trkpt>
      <trkpt lat="45.90739" lon="4.73551">
        <ele>178</ele>
        <time>2018-03-22T14:11:00Z</time>
      </trkpt>
      <trkpt lat="45.90734" lon="4.73553">
        <ele>178</ele>
        <time>2018-03-22T14:11:01Z</time>
      </trkpt>
      <trkpt lat="45.90729" lon="4.73554">
        <ele>178</ele>
        <time>2018-03-22T14:11:02Z</time>
      </trkpt>
      <trkpt lat="45.90724" lon="4.73558">
        <ele>178</ele>
        <time>2018-03-22T14:11:03Z</time>
      </trkpt>
      <trkpt lat="45.9072" lon="4.73559">
        <ele>178</ele>
        <time>2018-03-22T14:11:04Z</time>
      </trkpt>
      <trkpt lat="45.90715" lon="4.73563">
        <ele>178</ele>
        <time>2018-03-22T14:11:05Z</time>
      </trkpt>
      <trkpt lat="45.90711" lon="4.73565">
        <ele>178</ele>
        <time>2018-03-22T14:11:06Z</time>
      </trkpt>
      <trkpt lat="45.90703" lon="4.73569">
        <ele>178</ele>
        <time>2018-03-22T14:11:08Z</time>
      </trkpt>
      <trkpt lat="45.90699" lon="4.73569">
        <ele>178</ele>
        <time>2018-03-22T14:11:09Z</time>
      </trkpt>
      <trkpt lat="45.90692" lon="4.73574">
        <ele>178</ele>
        <time>2018-03-22T14:11:11Z</time>
      </trkpt>
      <trkpt lat="45.90687" lon="4.73576">
        <ele>179</ele>
        <time>2018-03-22T14:11:12Z</time>
      </trkpt>
      <trkpt lat="45.90679" lon="4.7358">
        <ele>179</ele>
        <time>2018-03-22T14:11:14Z</time>
      </trkpt>
      <trkpt lat="45.90675" lon="4.73582">
        <ele>179</ele>
        <time>2018-03-22T14:11:15Z</time>
      </trkpt>
      <trkpt lat="45.90667" lon="4.73585">
        <ele>180</ele>
        <time>2018-03-22T14:11:17Z</time>
      </trkpt>
      <trkpt lat="45.90663" lon="4.73587">
        <ele>180</ele>
        <time>2018-03-22T14:11:18Z</time>
      </trkpt>
      <trkpt lat="45.90655" lon="4.73589">
        <ele>181</ele>
        <time>2018-03-22T14:11:20Z</time>
      </trkpt>
      <trkpt lat="45.90651" lon="4.73591">
        <ele>181</ele>
        <time>2018-03-22T14:11:21Z</time>
      </trkpt>
      <trkpt lat="45.90643" lon="4.73594">
        <ele>181</ele>
        <time>2018-03-22T14:11:23Z</time>
      </trkpt>
      <trkpt lat="45.90639" lon="4.73595">
        <ele>181</ele>
        <time>2018-03-22T14:11:24Z</time>
      </trkpt>
      <trkpt lat="45.90631" lon="4.73599">
        <ele>181</ele>
        <time>2018-03-22T14:11:26Z</time>
      </trkpt>
      <trkpt lat="45.90627" lon="4.736">
        <ele>181</ele>
        <time>2018-03-22T14:11:27Z</time>
      </trkpt>
      <trkpt lat="45.90619" lon="4.73603">
        <ele>181</ele>
        <time>2018-03-22T14:11:29Z</time>
      </trkpt>
      <trkpt lat="45.90615" lon="4.73604">
        <ele>181</ele>
        <time>2018-03-22T14:11:30Z</time>
      </trkpt>
      <trkpt lat="45.90607" lon="4.73608">
        <ele>180</ele>
        <time>2018-03-22T14:11:32Z</time>
      </trkpt>
      <trkpt lat="45.90603" lon="4.7361">
        <ele>180</ele>
        <time>2018-03-22T14:11:33Z</time>
      </trkpt>
      <trkpt lat="45.90595" lon="4.73613">
        <ele>180</ele>
        <time>2018-03-22T14:11:35Z</time>
      </trkpt>
      <trkpt lat="45.9059" lon="4.73615">
        <ele>180</ele>
        <time>2018-03-22T14:11:36Z</time>
      </trkpt>
      <trkpt lat="45.90582" lon="4.73617">
        <ele>179</ele>
        <time>2018-03-22T14:11:38Z</time>
      </trkpt>
      <trkpt lat="45.90578" lon="4.73619">
        <ele>179</ele>
        <time>2018-03-22T14:11:39Z</time>
      </trkpt>
      <trkpt lat="45.90574" lon="4.73622">
        <ele>179</ele>
        <time>2018-03-22T14:11:40Z</time>
      </trkpt>
      <trkpt lat="45.90569" lon="4.73624">
        <ele>179</ele>
        <time>2018-03-22T14:11:41Z</time>
      </trkpt>
      <trkpt lat="45.9056" lon="4.73626">
        <ele>179</ele>
        <time>2018-03-22T14:11:43Z</time>
      </trkpt>
      <trkpt lat="45.90556" lon="4.73628">
        <ele>179</ele>
        <time>2018-03-22T14:11:44Z</time>
      </trkpt>
      <trkpt lat="45.90551" lon="4.7363">
        <ele>178</ele>
        <time>2018-03-22T14:11:45Z</time>
      </trkpt>
      <trkpt lat="45.90546" lon="4.73632">
        <ele>178</ele>
        <time>2018-03-22T14:11:46Z</time>
      </trkpt>
      <trkpt lat="45.90541" lon="4.73634">
        <ele>178</ele>
        <time>2018-03-22T14:11:47Z</time>
      </trkpt>
      <trkpt lat="45.90537" lon="4.73636">
        <ele>178</ele>
        <time>2018-03-22T14:11:48Z</time>
      </trkpt>
      <trkpt lat="45.90532" lon="4.73638">
        <ele>178</ele>
        <time>2018-03-22T14:11:49Z</time>
      </trkpt>
      <trkpt lat="45.90526" lon="4.73641">
        <ele>178</ele>
        <time>2018-03-22T14:11:50Z</time>
      </trkpt>
      <trkpt lat="45.90521" lon="4.73643">
        <ele>178</ele>
        <time>2018-03-22T14:11:51Z</time>
      </trkpt>
      <trkpt lat="45.90516" lon="4.73645">
        <ele>178</ele>
        <time>2018-03-22T14:11:52Z</time>
      </trkpt>
      <trkpt lat="45.90511" lon="4.73648">
        <ele>178</ele>
        <time>2018-03-22T14:11:53Z</time>
      </trkpt>
      <trkpt lat="45.90506" lon="4.73651">
        <ele>178</ele>
        <time>2018-03-22T14:11:54Z</time>
      </trkpt>
      <trkpt lat="45.905" lon="4.73653">
        <ele>178</ele>
        <time>2018-03-22T14:11:55Z</time>
      </trkpt>
      <trkpt lat="45.90495" lon="4.73655">
        <ele>177</ele>
        <time>2018-03-22T14:11:56Z</time>
      </trkpt>
      <trkpt lat="45.90489" lon="4.73658">
        <ele>177</ele>
        <time>2018-03-22T14:11:57Z</time>
      </trkpt>
      <trkpt lat="45.90484" lon="4.7366">
        <ele>177</ele>
        <time>2018-03-22T14:11:58Z</time>
      </trkpt>
      <trkpt lat="45.90478" lon="4.73663">
        <ele>177</ele>
        <time>2018-03-22T14:11:59Z</time>
      </trkpt>
      <trkpt lat="45.90472" lon="4.73666">
        <ele>177</ele>
        <time>2018-03-22T14:12:00Z</time>
      </trkpt>
      <trkpt lat="45.90466" lon="4.73668">
        <ele>176</ele>
        <time>2018-03-22T14:12:01Z</time>
      </trkpt>
      <trkpt lat="45.90459" lon="4.7367">
        <ele>176</ele>
        <time>2018-03-22T14:12:02Z</time>
      </trkpt>
      <trkpt lat="45.90453" lon="4.73672">
        <ele>176</ele>
        <time>2018-03-22T14:12:03Z</time>
      </trkpt>
      <trkpt lat="45.90447" lon="4.73676">
        <ele>176</ele>
        <time>2018-03-22T14:12:04Z</time>
      </trkpt>
      <trkpt lat="45.9044" lon="4.7368">
        <ele>176</ele>
        <time>2018-03-22T14:12:05Z</time>
      </trkpt>
      <trkpt lat="45.90433" lon="4.73681">
        <ele>176</ele>
        <time>2018-03-22T14:12:06Z</time>
      </trkpt>
      <trkpt lat="45.90425" lon="4.73684">
        <ele>176</ele>
        <time>2018-03-22T14:12:07Z</time>
      </trkpt>
      <trkpt lat="45.90418" lon="4.73689">
        <ele>176</ele>
        <time>2018-03-22T14:12:08Z</time>
      </trkpt>
      <trkpt lat="45.90411" lon="4.73692">
        <ele>177</ele>
        <time>2018-03-22T14:12:09Z</time>
      </trkpt>
      <trkpt lat="45.90404" lon="4.73695">
        <ele>177</ele>
        <time>2018-03-22T14:12:10Z</time>
      </trkpt>
      <trkpt lat="45.90397" lon="4.737">
        <ele>177</ele>
        <time>2018-03-22T14:12:11Z</time>
      </trkpt>
      <trkpt lat="45.90389" lon="4.73704">
        <ele>177</ele>
        <time>2018-03-22T14:12:12Z</time>
      </trkpt>
      <trkpt lat="45.90381" lon="4.73708">
        <ele>177</ele>
        <time>2018-03-22T14:12:13Z</time>
      </trkpt>
      <trkpt lat="45.90373" lon="4.73711">
        <ele>177</ele>
        <time>2018-03-22T14:12:14Z</time>
      </trkpt>
      <trkpt lat="45.90365" lon="4.73714">
        <ele>177</ele>
        <time>2018-03-22T14:12:15Z</time>
      </trkpt>
      <trkpt lat="45.90357" lon="4.73717">
        <ele>177</ele>
        <time>2018-03-22T14:12:16Z</time>
      </trkpt>
      <trkpt lat="45.90348" lon="4.7372">
        <ele>177</ele>
        <time>2018-03-22T14:12:17Z</time>
      </trkpt>
      <trkpt lat="45.9034" lon="4.73724">
        <ele>177</ele>
        <time>2018-03-22T14:12:18Z</time>
      </trkpt>
      <trkpt lat="45.90332" lon="4.73727">
        <ele>177</ele>
        <time>2018-03-22T14:12:19Z</time>
      </trkpt>
      <trkpt lat="45.90323" lon="4.7373">
        <ele>177</ele>
        <time>2018-03-22T14:12:20Z</time>
      </trkpt>
      <trkpt lat="45.90315" lon="4.73733">
        <ele>177</ele>
        <time>2018-03-22T14:12:21Z</time>
      </trkpt>
      <trkpt lat="45.90305" lon="4.73736">
        <ele>177</ele>
        <time>2018-03-22T14:12:22Z</time>
      </trkpt>
      <trkpt lat="45.90297" lon="4.73739">
        <ele>177</ele>
        <time>2018-03-22T14:12:23Z</time>
      </trkpt>
      <trkpt lat="45.90288" lon="4.73742">
        <ele>177</ele>
        <time>2018-03-22T14:12:24Z</time>
      </trkpt>
      <trkpt lat="45.9028" lon="4.73746">
        <ele>177</ele>
        <time>2018-03-22T14:12:25Z</time>
      </trkpt>
      <trkpt lat="45.90272" lon="4.73749">
        <ele>177</ele>
        <time>2018-03-22T14:12:26Z</time>
      </trkpt>
      <trkpt lat="45.90265" lon="4.73752">
        <ele>177</ele>
        <time>2018-03-22T14:12:27Z</time>
      </trkpt>
      <trkpt lat="45.90258" lon="4.73755">
        <ele>178</ele>
        <time>2018-03-22T14:12:28Z</time>
      </trkpt>
      <trkpt lat="45.9025" lon="4.73758">
        <ele>178</ele>
        <time>2018-03-22T14:12:29Z</time>
      </trkpt>
      <trkpt lat="45.90243" lon="4.73761">
        <ele>178</ele>
        <time>2018-03-22T14:12:30Z</time>
      </trkpt>
      <trkpt lat="45.90236" lon="4.73763">
        <ele>177</ele>
        <time>2018-03-22T14:12:31Z</time>
      </trkpt>
      <trkpt lat="45.90229" lon="4.73767">
        <ele>177</ele>
        <time>2018-03-22T14:12:32Z</time>
      </trkpt>
      <trkpt lat="45.90221" lon="4.73771">
        <ele>177</ele>
        <time>2018-03-22T14:12:33Z</time>
      </trkpt>
      <trkpt lat="45.90214" lon="4.73774">
        <ele>177</ele>
        <time>2018-03-22T14:12:34Z</time>
      </trkpt>
      <trkpt lat="45.90208" lon="4.73777">
        <ele>177</ele>
        <time>2018-03-22T14:12:35Z</time>
      </trkpt>
      <trkpt lat="45.902" lon="4.7378">
        <ele>177</ele>
        <time>2018-03-22T14:12:36Z</time>
      </trkpt>
      <trkpt lat="45.90194" lon="4.73782">
        <ele>177</ele>
        <time>2018-03-22T14:12:37Z</time>
      </trkpt>
      <trkpt lat="45.90187" lon="4.73785">
        <ele>177</ele>
        <time>2018-03-22T14:12:38Z</time>
      </trkpt>
      <trkpt lat="45.9018" lon="4.73787">
        <ele>177</ele>
        <time>2018-03-22T14:12:39Z</time>
      </trkpt>
      <trkpt lat="45.90173" lon="4.7379">
        <ele>177</ele>
        <time>2018-03-22T14:12:40Z</time>
      </trkpt>
      <trkpt lat="45.90166" lon="4.73793">
        <ele>176</ele>
        <time>2018-03-22T14:12:41Z</time>
      </trkpt>
      <trkpt lat="45.90158" lon="4.73796">
        <ele>176</ele>
        <time>2018-03-22T14:12:42Z</time>
      </trkpt>
      <trkpt lat="45.90151" lon="4.73799">
        <ele>177</ele>
        <time>2018-03-22T14:12:43Z</time>
      </trkpt>
      <trkpt lat="45.90144" lon="4.73801">
        <ele>177</ele>
        <time>2018-03-22T14:12:44Z</time>
      </trkpt>
      <trkpt lat="45.90137" lon="4.73804">
        <ele>177</ele>
        <time>2018-03-22T14:12:45Z</time>
      </trkpt>
      <trkpt lat="45.9013" lon="4.73807">
        <ele>177</ele>
        <time>2018-03-22T14:12:46Z</time>
      </trkpt>
      <trkpt lat="45.90123" lon="4.7381">
        <ele>177</ele>
        <time>2018-03-22T14:12:47Z</time>
      </trkpt>
      <trkpt lat="45.90116" lon="4.73813">
        <ele>177</ele>
        <time>2018-03-22T14:12:48Z</time>
      </trkpt>
      <trkpt lat="45.9011" lon="4.73817">
        <ele>177</ele>
        <time>2018-03-22T14:12:49Z</time>
      </trkpt>
      <trkpt lat="45.90103" lon="4.7382">
        <ele>177</ele>
        <time>2018-03-22T14:12:50Z</time>
      </trkpt>
      <trkpt lat="45.90095" lon="4.73825">
        <ele>177</ele>
        <time>2018-03-22T14:12:51Z</time>
      </trkpt>
      <trkpt lat="45.90088" lon="4.73828">
        <ele>178</ele>
        <time>2018-03-22T14:12:52Z</time>
      </trkpt>
      <trkpt lat="45.90081" lon="4.73831">
        <ele>178</ele>
        <time>2018-03-22T14:12:53Z</time>
      </trkpt>
      <trkpt lat="45.90074" lon="4.73835">
        <ele>178</ele>
        <time>2018-03-22T14:12:54Z</time>
      </trkpt>
      <trkpt lat="45.90067" lon="4.73837">
        <ele>178</ele>
        <time>2018-03-22T14:12:55Z</time>
      </trkpt>
      <trkpt lat="45.90059" lon="4.7384">
        <ele>178</ele>
        <time>2018-03-22T14:12:56Z</time>
      </trkpt>
      <trkpt lat="45.90051" lon="4.73844">
        <ele>178</ele>
        <time>2018-03-22T14:12:57Z</time>
      </trkpt>
      <trkpt lat="45.90044" lon="4.73847">
        <ele>178</ele>
        <time>2018-03-22T14:12:58Z</time>
      </trkpt>
      <trkpt lat="45.90037" lon="4.7385">
        <ele>178</ele>
        <time>2018-03-22T14:12:59Z</time>
      </trkpt>
      <trkpt lat="45.90029" lon="4.73853">
        <ele>178</ele>
        <time>2018-03-22T14:13:00Z</time>
      </trkpt>
      <trkpt lat="45.90022" lon="4.73855">
        <ele>178</ele>
        <time>2018-03-22T14:13:01Z</time>
      </trkpt>
      <trkpt lat="45.90015" lon="4.73858">
        <ele>178</ele>
        <time>2018-03-22T14:13:02Z</time>
      </trkpt>
      <trkpt lat="45.90008" lon="4.73861">
        <ele>178</ele>
        <time>2018-03-22T14:13:03Z</time>
      </trkpt>
      <trkpt lat="45.90002" lon="4.73862">
        <ele>178</ele>
        <time>2018-03-22T14:13:04Z</time>
      </trkpt>
      <trkpt lat="45.89995" lon="4.73865">
        <ele>178</ele>
        <time>2018-03-22T14:13:05Z</time>
      </trkpt>
      <trkpt lat="45.89989" lon="4.73867">
        <ele>178</ele>
        <time>2018-03-22T14:13:06Z</time>
      </trkpt>
      <trkpt lat="45.89983" lon="4.7387">
        <ele>178</ele>
        <time>2018-03-22T14:13:07Z</time>
      </trkpt>
      <trkpt lat="45.89976" lon="4.73873">
        <ele>178</ele>
        <time>2018-03-22T14:13:08Z</time>
      </trkpt>
      <trkpt lat="45.8997" lon="4.73876">
        <ele>178</ele>
        <time>2018-03-22T14:13:09Z</time>
      </trkpt>
      <trkpt lat="45.89963" lon="4.73879">
        <ele>178</ele>
        <time>2018-03-22T14:13:10Z</time>
      </trkpt>
      <trkpt lat="45.89956" lon="4.73881">
        <ele>178</ele>
        <time>2018-03-22T14:13:11Z</time>
      </trkpt>
      <trkpt lat="45.8995" lon="4.73883">
        <ele>178</ele>
        <time>2018-03-22T14:13:12Z</time>
      </trkpt>
      <trkpt lat="45.89943" lon="4.73887">
        <ele>178</ele>
        <time>2018-03-22T14:13:13Z</time>
      </trkpt>
      <trkpt lat="45.89936" lon="4.7389">
        <ele>178</ele>
        <time>2018-03-22T14:13:14Z</time>
      </trkpt>
      <trkpt lat="45.89929" lon="4.73893">
        <ele>178</ele>
        <time>2018-03-22T14:13:15Z</time>
      </trkpt>
      <trkpt lat="45.89922" lon="4.73895">
        <ele>178</ele>
        <time>2018-03-22T14:13:16Z</time>
      </trkpt>
      <trkpt lat="45.89915" lon="4.73897">
        <ele>178</ele>
        <time>2018-03-22T14:13:17Z</time>
      </trkpt>
      <trkpt lat="45.89908" lon="4.739">
        <ele>178</ele>
        <time>2018-03-22T14:13:18Z</time>
      </trkpt>
      <trkpt lat="45.89901" lon="4.73903">
        <ele>178</ele>
        <time>2018-03-22T14:13:19Z</time>
      </trkpt>
      <trkpt lat="45.89895" lon="4.73906">
        <ele>178</ele>
        <time>2018-03-22T14:13:20Z</time>
      </trkpt>
      <trkpt lat="45.89888" lon="4.7391">
        <ele>179</ele>
        <time>2018-03-22T14:13:21Z</time>
      </trkpt>
      <trkpt lat="45.89882" lon="4.73913">
        <ele>179</ele>
        <time>2018-03-22T14:13:22Z</time>
      </trkpt>
      <trkpt lat="45.89875" lon="4.73917">
        <ele>179</ele>
        <time>2018-03-22T14:13:23Z</time>
      </trkpt>
      <trkpt lat="45.89868" lon="4.73919">
        <ele>179</ele>
        <time>2018-03-22T14:13:24Z</time>
      </trkpt>
      <trkpt lat="45.89861" lon="4.73923">
        <ele>179</ele>
        <time>2018-03-22T14:13:25Z</time>
      </trkpt>
      <trkpt lat="45.89855" lon="4.73925">
        <ele>179</ele>
        <time>2018-03-22T14:13:26Z</time>
      </trkpt>
      <trkpt lat="45.89848" lon="4.73928">
        <ele>179</ele>
        <time>2018-03-22T14:13:27Z</time>
      </trkpt>
      <trkpt lat="45.89842" lon="4.73932">
        <ele>179</ele>
        <time>2018-03-22T14:13:28Z</time>
      </trkpt>
      <trkpt lat="45.89834" lon="4.73935">
        <ele>179</ele>
        <time>2018-03-22T14:13:29Z</time>
      </trkpt>
      <trkpt lat="45.89828" lon="4.73937">
        <ele>179</ele>
        <time>2018-03-22T14:13:30Z</time>
      </trkpt>
      <trkpt lat="45.89821" lon="4.7394">
        <ele>179</ele>
        <time>2018-03-22T14:13:31Z</time>
      </trkpt>
      <trkpt lat="45.89814" lon="4.73942">
        <ele>179</ele>
        <time>2018-03-22T14:13:32Z</time>
      </trkpt>
      <trkpt lat="45.89808" lon="4.73945">
        <ele>179</ele>
        <time>2018-03-22T14:13:33Z</time>
      </trkpt>
      <trkpt lat="45.898" lon="4.73948">
        <ele>179</ele>
        <time>2018-03-22T14:13:34Z</time>
      </trkpt>
      <trkpt lat="45.89794" lon="4.7395">
        <ele>179</ele>
        <time>2018-03-22T14:13:35Z</time>
      </trkpt>
      <trkpt lat="45.89787" lon="4.73953">
        <ele>179</ele>
        <time>2018-03-22T14:13:36Z</time>
      </trkpt>
      <trkpt lat="45.89781" lon="4.73957">
        <ele>179</ele>
        <time>2018-03-22T14:13:37Z</time>
      </trkpt>
      <trkpt lat="45.89774" lon="4.73959">
        <ele>179</ele>
        <time>2018-03-22T14:13:38Z</time>
      </trkpt>
      <trkpt lat="45.89768" lon="4.73961">
        <ele>179</ele>
        <time>2018-03-22T14:13:39Z</time>
      </trkpt>
      <trkpt lat="45.89762" lon="4.73964">
        <ele>179</ele>
        <time>2018-03-22T14:13:40Z</time>
      </trkpt>
      <trkpt lat="45.89756" lon="4.73967">
        <ele>178</ele>
        <time>2018-03-22T14:13:41Z</time>
      </trkpt>
      <trkpt lat="45.89749" lon="4.7397">
        <ele>178</ele>
        <time>2018-03-22T14:13:42Z</time>
      </trkpt>
      <trkpt lat="45.89743" lon="4.73973">
        <ele>178</ele>
        <time>2018-03-22T14:13:43Z</time>
      </trkpt>
      <trkpt lat="45.89735" lon="4.73976">
        <ele>178</ele>
        <time>2018-03-22T14:13:44Z</time>
      </trkpt>
      <trkpt lat="45.89729" lon="4.7398">
        <ele>178</ele>
        <time>2018-03-22T14:13:45Z</time>
      </trkpt>
      <trkpt lat="45.89722" lon="4.73982">
        <ele>178</ele>
        <time>2018-03-22T14:13:46Z</time>
      </trkpt>
      <trkpt lat="45.89714" lon="4.73985">
        <ele>178</ele>
        <time>2018-03-22T14:13:47Z</time>
      </trkpt>
      <trkpt lat="45.89708" lon="4.73988">
        <ele>178</ele>
        <time>2018-03-22T14:13:48Z</time>
      </trkpt>
      <trkpt lat="45.89702" lon="4.7399">
        <ele>178</ele>
        <time>2018-03-22T14:13:49Z</time>
      </trkpt>
      <trkpt lat="45.89696" lon="4.73993">
        <ele>178</ele>
        <time>2018-03-22T14:13:50Z</time>
      </trkpt>
      <trkpt lat="45.89689" lon="4.73996">
        <ele>179</ele>
        <time>2018-03-22T14:13:51Z</time>
      </trkpt>
      <trkpt lat="45.89682" lon="4.73999">
        <ele>179</ele>
        <time>2018-03-22T14:13:52Z</time>
      </trkpt>
      <trkpt lat="45.89674" lon="4.74002">
        <ele>179</ele>
        <time>2018-03-22T14:13:53Z</time>
      </trkpt>
      <trkpt lat="45.89668" lon="4.74004">
        <ele>179</ele>
        <time>2018-03-22T14:13:54Z</time>
      </trkpt>
      <trkpt lat="45.8966" lon="4.74006">
        <ele>179</ele>
        <time>2018-03-22T14:13:55Z</time>
      </trkpt>
      <trkpt lat="45.89653" lon="4.7401">
        <ele>179</ele>
        <time>2018-03-22T14:13:56Z</time>
      </trkpt>
      <trkpt lat="45.89646" lon="4.74013">
        <ele>180</ele>
        <time>2018-03-22T14:13:57Z</time>
      </trkpt>
      <trkpt lat="45.8964" lon="4.74016">
        <ele>180</ele>
        <time>2018-03-22T14:13:58Z</time>
      </trkpt>
      <trkpt lat="45.89634" lon="4.74019">
        <ele>180</ele>
        <time>2018-03-22T14:13:59Z</time>
      </trkpt>
      <trkpt lat="45.89627" lon="4.74023">
        <ele>180</ele>
        <time>2018-03-22T14:14:00Z</time>
      </trkpt>
      <trkpt lat="45.8962" lon="4.74027">
        <ele>180</ele>
        <time>2018-03-22T14:14:01Z</time>
      </trkpt>
      <trkpt lat="45.89613" lon="4.74029">
        <ele>180</ele>
        <time>2018-03-22T14:14:02Z</time>
      </trkpt>
      <trkpt lat="45.89606" lon="4.74032">
        <ele>180</ele>
        <time>2018-03-22T14:14:03Z</time>
      </trkpt>
      <trkpt lat="45.896" lon="4.74034">
        <ele>180</ele>
        <time>2018-03-22T14:14:04Z</time>
      </trkpt>
      <trkpt lat="45.89593" lon="4.74037">
        <ele>180</ele>
        <time>2018-03-22T14:14:05Z</time>
      </trkpt>
      <trkpt lat="45.89586" lon="4.7404">
        <ele>180</ele>
        <time>2018-03-22T14:14:06Z</time>
      </trkpt>
      <trkpt lat="45.89579" lon="4.74043">
        <ele>181</ele>
        <time>2018-03-22T14:14:07Z</time>
      </trkpt>
      <trkpt lat="45.89573" lon="4.74045">
        <ele>181</ele>
        <time>2018-03-22T14:14:08Z</time>
      </trkpt>
      <trkpt lat="45.89565" lon="4.74048">
        <ele>181</ele>
        <time>2018-03-22T14:14:09Z</time>
      </trkpt>
      <trkpt lat="45.89558" lon="4.74051">
        <ele>181</ele>
        <time>2018-03-22T14:14:10Z</time>
      </trkpt>
      <trkpt lat="45.89552" lon="4.74054">
        <ele>181</ele>
        <time>2018-03-22T14:14:11Z</time>
      </trkpt>
      <trkpt lat="45.89545" lon="4.74058">
        <ele>181</ele>
        <time>2018-03-22T14:14:12Z</time>
      </trkpt>
      <trkpt lat="45.89538" lon="4.7406">
        <ele>181</ele>
        <time>2018-03-22T14:14:13Z</time>
      </trkpt>
      <trkpt lat="45.89532" lon="4.74063">
        <ele>181</ele>
        <time>2018-03-22T14:14:14Z</time>
      </trkpt>
      <trkpt lat="45.89526" lon="4.74067">
        <ele>181</ele>
        <time>2018-03-22T14:14:15Z</time>
      </trkpt>
      <trkpt lat="45.8952" lon="4.74069">
        <ele>181</ele>
        <time>2018-03-22T14:14:16Z</time>
      </trkpt>
      <trkpt lat="45.89514" lon="4.74071">
        <ele>181</ele>
        <time>2018-03-22T14:14:17Z</time>
      </trkpt>
      <trkpt lat="45.89508" lon="4.74073">
        <ele>181</ele>
        <time>2018-03-22T14:14:18Z</time>
      </trkpt>
      <trkpt lat="45.89502" lon="4.74075">
        <ele>181</ele>
        <time>2018-03-22T14:14:19Z</time>
      </trkpt>
      <trkpt lat="45.89496" lon="4.74078">
        <ele>181</ele>
        <time>2018-03-22T14:14:20Z</time>
      </trkpt>
      <trkpt lat="45.8949" lon="4.74082">
        <ele>181</ele>
        <time>2018-03-22T14:14:21Z</time>
      </trkpt>
      <trkpt lat="45.89484" lon="4.74085">
        <ele>182</ele>
        <time>2018-03-22T14:14:22Z</time>
      </trkpt>
      <trkpt lat="45.89478" lon="4.74088">
        <ele>182</ele>
        <time>2018-03-22T14:14:23Z</time>
      </trkpt>
      <trkpt lat="45.89473" lon="4.7409">
        <ele>182</ele>
        <time>2018-03-22T14:14:24Z</time>
      </trkpt>
      <trkpt lat="45.89467" lon="4.74093">
        <ele>182</ele>
        <time>2018-03-22T14:14:25Z</time>
      </trkpt>
      <trkpt lat="45.89462" lon="4.74095">
        <ele>182</ele>
        <time>2018-03-22T14:14:26Z</time>
      </trkpt>
      <trkpt lat="45.89456" lon="4.74098">
        <ele>182</ele>
        <time>2018-03-22T14:14:27Z</time>
      </trkpt>
      <trkpt lat="45.89449" lon="4.741">
        <ele>182</ele>
        <time>2018-03-22T14:14:28Z</time>
      </trkpt>
      <trkpt lat="45.89444" lon="4.74102">
        <ele>182</ele>
        <time>2018-03-22T14:14:29Z</time>
      </trkpt>
      <trkpt lat="45.89438" lon="4.74104">
        <ele>182</ele>
        <time>2018-03-22T14:14:30Z</time>
      </trkpt>
      <trkpt lat="45.89432" lon="4.74107">
        <ele>183</ele>
        <time>2018-03-22T14:14:31Z</time>
      </trkpt>
      <trkpt lat="45.89425" lon="4.7411">
        <ele>183</ele>
        <time>2018-03-22T14:14:32Z</time>
      </trkpt>
      <trkpt lat="45.89419" lon="4.74113">
        <ele>183</ele>
        <time>2018-03-22T14:14:33Z</time>
      </trkpt>
      <trkpt lat="45.89413" lon="4.74116">
        <ele>183</ele>
        <time>2018-03-22T14:14:34Z</time>
      </trkpt>
      <trkpt lat="45.89407" lon="4.74118">
        <ele>184</ele>
        <time>2018-03-22T14:14:35Z</time>
      </trkpt>
      <trkpt lat="45.894" lon="4.74121">
        <ele>184</ele>
        <time>2018-03-22T14:14:36Z</time>
      </trkpt>
      <trkpt lat="45.89395" lon="4.74124">
        <ele>184</ele>
        <time>2018-03-22T14:14:37Z</time>
      </trkpt>
      <trkpt lat="45.89388" lon="4.74128">
        <ele>184</ele>
        <time>2018-03-22T14:14:38Z</time>
      </trkpt>
      <trkpt lat="45.89382" lon="4.7413">
        <ele>184</ele>
        <time>2018-03-22T14:14:39Z</time>
      </trkpt>
      <trkpt lat="45.89377" lon="4.74133">
        <ele>184</ele>
        <time>2018-03-22T14:14:40Z</time>
      </trkpt>
      <trkpt lat="45.89371" lon="4.74135">
        <ele>184</ele>
        <time>2018-03-22T14:14:41Z</time>
      </trkpt>
      <trkpt lat="45.89365" lon="4.74138">
        <ele>184</ele>
        <time>2018-03-22T14:14:42Z</time>
      </trkpt>
      <trkpt lat="45.89359" lon="4.7414">
        <ele>184</ele>
        <time>2018-03-22T14:14:43Z</time>
      </trkpt>
      <trkpt lat="45.89352" lon="4.74143">
        <ele>185</ele>
        <time>2018-03-22T14:14:44Z</time>
      </trkpt>
      <trkpt lat="45.89346" lon="4.74145">
        <ele>185</ele>
        <time>2018-03-22T14:14:45Z</time>
      </trkpt>
      <trkpt lat="45.8934" lon="4.74148">
        <ele>185</ele>
        <time>2018-03-22T14:14:46Z</time>
      </trkpt>
      <trkpt lat="45.89334" lon="4.7415">
        <ele>185</ele>
        <time>2018-03-22T14:14:47Z</time>
      </trkpt>
      <trkpt lat="45.89328" lon="4.74152">
        <ele>185</ele>
        <time>2018-03-22T14:14:48Z</time>
      </trkpt>
      <trkpt lat="45.89321" lon="4.74154">
        <ele>185</ele>
        <time>2018-03-22T14:14:49Z</time>
      </trkpt>
      <trkpt lat="45.89315" lon="4.74156">
        <ele>185</ele>
        <time>2018-03-22T14:14:50Z</time>
      </trkpt>
      <trkpt lat="45.89308" lon="4.74159">
        <ele>185</ele>
        <time>2018-03-22T14:14:51Z</time>
      </trkpt>
      <trkpt lat="45.89302" lon="4.74162">
        <ele>185</ele>
        <time>2018-03-22T14:14:52Z</time>
      </trkpt>
      <trkpt lat="45.89296" lon="4.74165">
        <ele>185</ele>
        <time>2018-03-22T14:14:53Z</time>
      </trkpt>
      <trkpt lat="45.8929" lon="4.74168">
        <ele>186</ele>
        <time>2018-03-22T14:14:54Z</time>
      </trkpt>
      <trkpt lat="45.89284" lon="4.74171">
        <ele>186</ele>
        <time>2018-03-22T14:14:55Z</time>
      </trkpt>
      <trkpt lat="45.89277" lon="4.74174">
        <ele>186</ele>
        <time>2018-03-22T14:14:56Z</time>
      </trkpt>
      <trkpt lat="45.89271" lon="4.74176">
        <ele>186</ele>
        <time>2018-03-22T14:14:57Z</time>
      </trkpt>
      <trkpt lat="45.89264" lon="4.74179">
        <ele>186</ele>
        <time>2018-03-22T14:14:58Z</time>
      </trkpt>
      <trkpt lat="45.89258" lon="4.74182">
        <ele>186</ele>
        <time>2018-03-22T14:14:59Z</time>
      </trkpt>
      <trkpt lat="45.89252" lon="4.74184">
        <ele>186</ele>
        <time>2018-03-22T14:15:00Z</time>
      </trkpt>
      <trkpt lat="45.89246" lon="4.74187">
        <ele>186</ele>
        <time>2018-03-22T14:15:01Z</time>
      </trkpt>
      <trkpt lat="45.89239" lon="4.7419">
        <ele>186</ele>
        <time>2018-03-22T14:15:02Z</time>
      </trkpt>
      <trkpt lat="45.89233" lon="4.74193">
        <ele>186</ele>
        <time>2018-03-22T14:15:03Z</time>
      </trkpt>
      <trkpt lat="45.89226" lon="4.74196">
        <ele>186</ele>
        <time>2018-03-22T14:15:04Z</time>
      </trkpt>
      <trkpt lat="45.89219" lon="4.74199">
        <ele>186</ele>
        <time>2018-03-22T14:15:05Z</time>
      </trkpt>
      <trkpt lat="45.89213" lon="4.74201">
        <ele>186</ele>
        <time>2018-03-22T14:15:06Z</time>
      </trkpt>
      <trkpt lat="45.89206" lon="4.74205">
        <ele>186</ele>
        <time>2018-03-22T14:15:07Z</time>
      </trkpt>
      <trkpt lat="45.892" lon="4.74206">
        <ele>186</ele>
        <time>2018-03-22T14:15:08Z</time>
      </trkpt>
      <trkpt lat="45.89193" lon="4.74208">
        <ele>186</ele>
        <time>2018-03-22T14:15:09Z</time>
      </trkpt>
      <trkpt lat="45.89188" lon="4.74212">
        <ele>186</ele>
        <time>2018-03-22T14:15:10Z</time>
      </trkpt>
      <trkpt lat="45.8918" lon="4.74212">
        <ele>186</ele>
        <time>2018-03-22T14:15:11Z</time>
      </trkpt>
      <trkpt lat="45.89173" lon="4.74213">
        <ele>186</ele>
        <time>2018-03-22T14:15:12Z</time>
      </trkpt>
      <trkpt lat="45.89166" lon="4.74213">
        <ele>186</ele>
        <time>2018-03-22T14:15:13Z</time>
      </trkpt>
      <trkpt lat="45.8916" lon="4.74216">
        <ele>186</ele>
        <time>2018-03-22T14:15:14Z</time>
      </trkpt>
      <trkpt lat="45.89153" lon="4.74219">
        <ele>186</ele>
        <time>2018-03-22T14:15:15Z</time>
      </trkpt>
      <trkpt lat="45.89147" lon="4.74222">
        <ele>186</ele>
        <time>2018-03-22T14:15:16Z</time>
      </trkpt>
      <trkpt lat="45.89141" lon="4.74225">
        <ele>186</ele>
        <time>2018-03-22T14:15:17Z</time>
      </trkpt>
      <trkpt lat="45.89135" lon="4.74228">
        <ele>186</ele>
        <time>2018-03-22T14:15:18Z</time>
      </trkpt>
      <trkpt lat="45.89128" lon="4.74231">
        <ele>186</ele>
        <time>2018-03-22T14:15:19Z</time>
      </trkpt>
      <trkpt lat="45.89123" lon="4.74233">
        <ele>186</ele>
        <time>2018-03-22T14:15:20Z</time>
      </trkpt>
      <trkpt lat="45.89117" lon="4.74236">
        <ele>186</ele>
        <time>2018-03-22T14:15:21Z</time>
      </trkpt>
      <trkpt lat="45.89111" lon="4.74238">
        <ele>186</ele>
        <time>2018-03-22T14:15:22Z</time>
      </trkpt>
      <trkpt lat="45.89104" lon="4.74241">
        <ele>186</ele>
        <time>2018-03-22T14:15:23Z</time>
      </trkpt>
      <trkpt lat="45.89098" lon="4.74243">
        <ele>186</ele>
        <time>2018-03-22T14:15:24Z</time>
      </trkpt>
      <trkpt lat="45.89092" lon="4.74245">
        <ele>186</ele>
        <time>2018-03-22T14:15:25Z</time>
      </trkpt>
      <trkpt lat="45.89086" lon="4.74247">
        <ele>186</ele>
        <time>2018-03-22T14:15:26Z</time>
      </trkpt>
      <trkpt lat="45.89081" lon="4.74249">
        <ele>186</ele>
        <time>2018-03-22T14:15:27Z</time>
      </trkpt>
      <trkpt lat="45.89076" lon="4.74251">
        <ele>186</ele>
        <time>2018-03-22T14:15:28Z</time>
      </trkpt>
      <trkpt lat="45.8907" lon="4.74253">
        <ele>186</ele>
        <time>2018-03-22T14:15:29Z</time>
      </trkpt>
      <trkpt lat="45.89065" lon="4.74256">
        <ele>186</ele>
        <time>2018-03-22T14:15:30Z</time>
      </trkpt>
      <trkpt lat="45.89058" lon="4.74259">
        <ele>187</ele>
        <time>2018-03-22T14:15:32Z</time>
      </trkpt>
      <trkpt lat="45.89054" lon="4.74262">
        <ele>187</ele>
        <time>2018-03-22T14:15:33Z</time>
      </trkpt>
      <trkpt lat="45.89047" lon="4.74264">
        <ele>187</ele>
        <time>2018-03-22T14:15:35Z</time>
      </trkpt>
      <trkpt lat="45.89043" lon="4.74265">
        <ele>187</ele>
        <time>2018-03-22T14:15:36Z</time>
      </trkpt>
      <trkpt lat="45.89035" lon="4.74267">
        <ele>187</ele>
        <time>2018-03-22T14:15:38Z</time>
      </trkpt>
      <trkpt lat="45.8903" lon="4.74269">
        <ele>187</ele>
        <time>2018-03-22T14:15:39Z</time>
      </trkpt>
      <trkpt lat="45.89025" lon="4.74271">
        <ele>187</ele>
        <time>2018-03-22T14:15:40Z</time>
      </trkpt>
      <trkpt lat="45.8902" lon="4.74273">
        <ele>187</ele>
        <time>2018-03-22T14:15:41Z</time>
      </trkpt>
      <trkpt lat="45.89015" lon="4.74275">
        <ele>187</ele>
        <time>2018-03-22T14:15:42Z</time>
      </trkpt>
      <trkpt lat="45.8901" lon="4.74277">
        <ele>187</ele>
        <time>2018-03-22T14:15:43Z</time>
      </trkpt>
      <trkpt lat="45.89007" lon="4.74277">
        <ele>187</ele>
        <time>2018-03-22T14:15:44Z</time>
      </trkpt>
      <trkpt lat="45.89001" lon="4.74278">
        <ele>187</ele>
        <time>2018-03-22T14:15:45Z</time>
      </trkpt>
      <trkpt lat="45.88995" lon="4.74278">
        <ele>187</ele>
        <time>2018-03-22T14:15:46Z</time>
      </trkpt>
      <trkpt lat="45.88989" lon="4.74279">
        <ele>187</ele>
        <time>2018-03-22T14:15:47Z</time>
      </trkpt>
      <trkpt lat="45.88982" lon="4.74283">
        <ele>187</ele>
        <time>2018-03-22T14:15:48Z</time>
      </trkpt>
      <trkpt lat="45.88977" lon="4.74283">
        <ele>187</ele>
        <time>2018-03-22T14:15:49Z</time>
      </trkpt>
      <trkpt lat="45.88968" lon="4.74283">
        <ele>187</ele>
        <time>2018-03-22T14:15:51Z</time>
      </trkpt>
      <trkpt lat="45.88964" lon="4.74281">
        <ele>187</ele>
        <time>2018-03-22T14:15:52Z</time>
      </trkpt>
      <trkpt lat="45.88959" lon="4.74278">
        <ele>187</ele>
        <time>2018-03-22T14:15:54Z</time>
      </trkpt>
      <trkpt lat="45.88953" lon="4.74276">
        <ele>187</ele>
        <time>2018-03-22T14:15:55Z</time>
      </trkpt>
      <trkpt lat="45.88949" lon="4.74274">
        <ele>187</ele>
        <time>2018-03-22T14:15:56Z</time>
      </trkpt>
      <trkpt lat="45.88944" lon="4.74274">
        <ele>187</ele>
        <time>2018-03-22T14:15:57Z</time>
      </trkpt>
      <trkpt lat="45.88939" lon="4.74273">
        <ele>187</ele>
        <time>2018-03-22T14:15:58Z</time>
      </trkpt>
      <trkpt lat="45.88934" lon="4.74272">
        <ele>187</ele>
        <time>2018-03-22T14:15:59Z</time>
      </trkpt>
      <trkpt lat="45.8893" lon="4.7427">
        <ele>187</ele>
        <time>2018-03-22T14:16:00Z</time>
      </trkpt>
      <trkpt lat="45.88925" lon="4.74268">
        <ele>187</ele>
        <time>2018-03-22T14:16:01Z</time>
      </trkpt>
      <trkpt lat="45.8892" lon="4.74265">
        <ele>187</ele>
        <time>2018-03-22T14:16:02Z</time>
      </trkpt>
      <trkpt lat="45.88916" lon="4.74262">
        <ele>187</ele>
        <time>2018-03-22T14:16:03Z</time>
      </trkpt>
      <trkpt lat="45.88908" lon="4.74259">
        <ele>187</ele>
        <time>2018-03-22T14:16:05Z</time>
      </trkpt>
      <trkpt lat="45.88903" lon="4.74256">
        <ele>187</ele>
        <time>2018-03-22T14:16:06Z</time>
      </trkpt>
      <trkpt lat="45.88896" lon="4.74247">
        <ele>187</ele>
        <time>2018-03-22T14:16:08Z</time>
      </trkpt>
      <trkpt lat="45.88893" lon="4.74243">
        <ele>187</ele>
        <time>2018-03-22T14:16:09Z</time>
      </trkpt>
      <trkpt lat="45.88889" lon="4.74237">
        <ele>187</ele>
        <time>2018-03-22T14:16:10Z</time>
      </trkpt>
      <trkpt lat="45.88883" lon="4.74236">
        <ele>187</ele>
        <time>2018-03-22T14:16:11Z</time>
      </trkpt>
      <trkpt lat="45.88879" lon="4.74233">
        <ele>187</ele>
        <time>2018-03-22T14:16:12Z</time>
      </trkpt>
      <trkpt lat="45.88874" lon="4.74228">
        <ele>187</ele>
        <time>2018-03-22T14:16:13Z</time>
      </trkpt>
      <trkpt lat="45.88869" lon="4.74225">
        <ele>187</ele>
        <time>2018-03-22T14:16:14Z</time>
      </trkpt>
      <trkpt lat="45.88864" lon="4.74222">
        <ele>187</ele>
        <time>2018-03-22T14:16:15Z</time>
      </trkpt>
      <trkpt lat="45.88858" lon="4.74219">
        <ele>187</ele>
        <time>2018-03-22T14:16:16Z</time>
      </trkpt>
      <trkpt lat="45.88852" lon="4.74215">
        <ele>187</ele>
        <time>2018-03-22T14:16:17Z</time>
      </trkpt>
      <trkpt lat="45.88847" lon="4.74212">
        <ele>187</ele>
        <time>2018-03-22T14:16:18Z</time>
      </trkpt>
      <trkpt lat="45.88841" lon="4.7421">
        <ele>187</ele>
        <time>2018-03-22T14:16:19Z</time>
      </trkpt>
      <trkpt lat="45.88836" lon="4.74207">
        <ele>187</ele>
        <time>2018-03-22T14:16:20Z</time>
      </trkpt>
      <trkpt lat="45.88831" lon="4.74204">
        <ele>187</ele>
        <time>2018-03-22T14:16:21Z</time>
      </trkpt>
      <trkpt lat="45.88826" lon="4.74201">
        <ele>187</ele>
        <time>2018-03-22T14:16:22Z</time>
      </trkpt>
      <trkpt lat="45.88821" lon="4.74199">
        <ele>187</ele>
        <time>2018-03-22T14:16:23Z</time>
      </trkpt>
      <trkpt lat="45.88817" lon="4.74195">
        <ele>187</ele>
        <time>2018-03-22T14:16:24Z</time>
      </trkpt>
      <trkpt lat="45.88812" lon="4.74193">
        <ele>187</ele>
        <time>2018-03-22T14:16:25Z</time>
      </trkpt>
      <trkpt lat="45.88807" lon="4.74191">
        <ele>187</ele>
        <time>2018-03-22T14:16:26Z</time>
      </trkpt>
      <trkpt lat="45.88802" lon="4.74189">
        <ele>187</ele>
        <time>2018-03-22T14:16:27Z</time>
      </trkpt>
      <trkpt lat="45.88796" lon="4.74185">
        <ele>187</ele>
        <time>2018-03-22T14:16:28Z</time>
      </trkpt>
      <trkpt lat="45.8879" lon="4.74183">
        <ele>188</ele>
        <time>2018-03-22T14:16:29Z</time>
      </trkpt>
      <trkpt lat="45.88785" lon="4.7418">
        <ele>188</ele>
        <time>2018-03-22T14:16:30Z</time>
      </trkpt>
      <trkpt lat="45.8878" lon="4.74178">
        <ele>188</ele>
        <time>2018-03-22T14:16:31Z</time>
      </trkpt>
      <trkpt lat="45.88775" lon="4.74175">
        <ele>188</ele>
        <time>2018-03-22T14:16:32Z</time>
      </trkpt>
      <trkpt lat="45.8877" lon="4.74171">
        <ele>188</ele>
        <time>2018-03-22T14:16:33Z</time>
      </trkpt>
      <trkpt lat="45.88765" lon="4.74169">
        <ele>188</ele>
        <time>2018-03-22T14:16:34Z</time>
      </trkpt>
      <trkpt lat="45.8876" lon="4.74165">
        <ele>188</ele>
        <time>2018-03-22T14:16:35Z</time>
      </trkpt>
      <trkpt lat="45.88756" lon="4.74161">
        <ele>188</ele>
        <time>2018-03-22T14:16:36Z</time>
      </trkpt>
      <trkpt lat="45.88751" lon="4.74158">
        <ele>188</ele>
        <time>2018-03-22T14:16:37Z</time>
      </trkpt>
      <trkpt lat="45.88746" lon="4.74153">
        <ele>188</ele>
        <time>2018-03-22T14:16:38Z</time>
      </trkpt>
      <trkpt lat="45.88741" lon="4.74149">
        <ele>188</ele>
        <time>2018-03-22T14:16:39Z</time>
      </trkpt>
      <trkpt lat="45.88737" lon="4.74146">
        <ele>188</ele>
        <time>2018-03-22T14:16:40Z</time>
      </trkpt>
      <trkpt lat="45.88732" lon="4.74142">
        <ele>188</ele>
        <time>2018-03-22T14:16:41Z</time>
      </trkpt>
      <trkpt lat="45.88728" lon="4.74139">
        <ele>188</ele>
        <time>2018-03-22T14:16:42Z</time>
      </trkpt>
      <trkpt lat="45.88723" lon="4.74135">
        <ele>188</ele>
        <time>2018-03-22T14:16:43Z</time>
      </trkpt>
      <trkpt lat="45.88718" lon="4.7413">
        <ele>188</ele>
        <time>2018-03-22T14:16:44Z</time>
      </trkpt>
      <trkpt lat="45.88714" lon="4.74126">
        <ele>188</ele>
        <time>2018-03-22T14:16:45Z</time>
      </trkpt>
      <trkpt lat="45.88709" lon="4.74121">
        <ele>188</ele>
        <time>2018-03-22T14:16:46Z</time>
      </trkpt>
      <trkpt lat="45.88706" lon="4.74116">
        <ele>188</ele>
        <time>2018-03-22T14:16:47Z</time>
      </trkpt>
      <trkpt lat="45.88698" lon="4.7411">
        <ele>188</ele>
        <time>2018-03-22T14:16:49Z</time>
      </trkpt>
      <trkpt lat="45.88692" lon="4.7411">
        <ele>188</ele>
        <time>2018-03-22T14:16:50Z</time>
      </trkpt>
      <trkpt lat="45.88686" lon="4.74111">
        <ele>188</ele>
        <time>2018-03-22T14:16:51Z</time>
      </trkpt>
      <trkpt lat="45.8868" lon="4.74109">
        <ele>188</ele>
        <time>2018-03-22T14:16:52Z</time>
      </trkpt>
      <trkpt lat="45.88677" lon="4.74105">
        <ele>188</ele>
        <time>2018-03-22T14:16:53Z</time>
      </trkpt>
      <trkpt lat="45.88674" lon="4.74098">
        <ele>188</ele>
        <time>2018-03-22T14:16:54Z</time>
      </trkpt>
      <trkpt lat="45.88672" lon="4.74091">
        <ele>188</ele>
        <time>2018-03-22T14:16:55Z</time>
      </trkpt>
      <trkpt lat="45.8867" lon="4.74085">
        <ele>188</ele>
        <time>2018-03-22T14:16:56Z</time>
      </trkpt>
      <trkpt lat="45.88668" lon="4.74078">
        <ele>188</ele>
        <time>2018-03-22T14:16:57Z</time>
      </trkpt>
      <trkpt lat="45.88665" lon="4.7407">
        <ele>188</ele>
        <time>2018-03-22T14:16:58Z</time>
      </trkpt>
      <trkpt lat="45.88663" lon="4.74063">
        <ele>188</ele>
        <time>2018-03-22T14:16:59Z</time>
      </trkpt>
      <trkpt lat="45.88661" lon="4.74054">
        <ele>187</ele>
        <time>2018-03-22T14:17:00Z</time>
      </trkpt>
      <trkpt lat="45.8866" lon="4.74046">
        <ele>187</ele>
        <time>2018-03-22T14:17:01Z</time>
      </trkpt>
      <trkpt lat="45.88658" lon="4.74039">
        <ele>187</ele>
        <time>2018-03-22T14:17:02Z</time>
      </trkpt>
      <trkpt lat="45.88657" lon="4.7403">
        <ele>187</ele>
        <time>2018-03-22T14:17:03Z</time>
      </trkpt>
      <trkpt lat="45.88656" lon="4.74022">
        <ele>187</ele>
        <time>2018-03-22T14:17:04Z</time>
      </trkpt>
      <trkpt lat="45.88654" lon="4.74013">
        <ele>187</ele>
        <time>2018-03-22T14:17:05Z</time>
      </trkpt>
      <trkpt lat="45.88653" lon="4.74004">
        <ele>187</ele>
        <time>2018-03-22T14:17:06Z</time>
      </trkpt>
      <trkpt lat="45.88652" lon="4.73995">
        <ele>186</ele>
        <time>2018-03-22T14:17:07Z</time>
      </trkpt>
      <trkpt lat="45.8865" lon="4.73986">
        <ele>187</ele>
        <time>2018-03-22T14:17:08Z</time>
      </trkpt>
      <trkpt lat="45.8865" lon="4.73977">
        <ele>187</ele>
        <time>2018-03-22T14:17:09Z</time>
      </trkpt>
      <trkpt lat="45.88648" lon="4.73968">
        <ele>187</ele>
        <time>2018-03-22T14:17:10Z</time>
      </trkpt>
      <trkpt lat="45.88648" lon="4.7396">
        <ele>187</ele>
        <time>2018-03-22T14:17:11Z</time>
      </trkpt>
      <trkpt lat="45.88647" lon="4.73951">
        <ele>187</ele>
        <time>2018-03-22T14:17:12Z</time>
      </trkpt>
      <trkpt lat="45.88646" lon="4.73943">
        <ele>187</ele>
        <time>2018-03-22T14:17:13Z</time>
      </trkpt>
      <trkpt lat="45.88645" lon="4.73935">
        <ele>187</ele>
        <time>2018-03-22T14:17:14Z</time>
      </trkpt>
      <trkpt lat="45.88644" lon="4.73927">
        <ele>187</ele>
        <time>2018-03-22T14:17:15Z</time>
      </trkpt>
      <trkpt lat="45.88644" lon="4.73918">
        <ele>187</ele>
        <time>2018-03-22T14:17:16Z</time>
      </trkpt>
      <trkpt lat="45.88644" lon="4.7391">
        <ele>187</ele>
        <time>2018-03-22T14:17:17Z</time>
      </trkpt>
      <trkpt lat="45.88643" lon="4.73902">
        <ele>187</ele>
        <time>2018-03-22T14:17:18Z</time>
      </trkpt>
      <trkpt lat="45.88642" lon="4.73895">
        <ele>187</ele>
        <time>2018-03-22T14:17:19Z</time>
      </trkpt>
      <trkpt lat="45.88642" lon="4.73886">
        <ele>187</ele>
        <time>2018-03-22T14:17:20Z</time>
      </trkpt>
      <trkpt lat="45.88643" lon="4.73877">
        <ele>187</ele>
        <time>2018-03-22T14:17:21Z</time>
      </trkpt>
      <trkpt lat="45.88642" lon="4.73869">
        <ele>187</ele>
        <time>2018-03-22T14:17:22Z</time>
      </trkpt>
      <trkpt lat="45.88643" lon="4.73862">
        <ele>187</ele>
        <time>2018-03-22T14:17:23Z</time>
      </trkpt>
      <trkpt lat="45.88645" lon="4.73854">
        <ele>187</ele>
        <time>2018-03-22T14:17:24Z</time>
      </trkpt>
      <trkpt lat="45.88645" lon="4.73846">
        <ele>187</ele>
        <time>2018-03-22T14:17:25Z</time>
      </trkpt>
      <trkpt lat="45.88646" lon="4.73839">
        <ele>187</ele>
        <time>2018-03-22T14:17:26Z</time>
      </trkpt>
      <trkpt lat="45.88647" lon="4.73832">
        <ele>187</ele>
        <time>2018-03-22T14:17:27Z</time>
      </trkpt>
      <trkpt lat="45.88647" lon="4.73825">
        <ele>187</ele>
        <time>2018-03-22T14:17:28Z</time>
      </trkpt>
      <trkpt lat="45.88648" lon="4.73817">
        <ele>187</ele>
        <time>2018-03-22T14:17:29Z</time>
      </trkpt>
      <trkpt lat="45.88648" lon="4.7381">
        <ele>187</ele>
        <time>2018-03-22T14:17:30Z</time>
      </trkpt>
      <trkpt lat="45.88648" lon="4.73798">
        <ele>187</ele>
        <time>2018-03-22T14:17:32Z</time>
      </trkpt>
      <trkpt lat="45.88648" lon="4.73793">
        <ele>187</ele>
        <time>2018-03-22T14:17:33Z</time>
      </trkpt>
      <trkpt lat="45.88649" lon="4.73781">
        <ele>187</ele>
        <time>2018-03-22T14:17:35Z</time>
      </trkpt>
      <trkpt lat="45.88649" lon="4.73776">
        <ele>187</ele>
        <time>2018-03-22T14:17:36Z</time>
      </trkpt>
      <trkpt lat="45.88649" lon="4.73765">
        <ele>187</ele>
        <time>2018-03-22T14:17:38Z</time>
      </trkpt>
      <trkpt lat="45.88649" lon="4.73761">
        <ele>187</ele>
        <time>2018-03-22T14:17:39Z</time>
      </trkpt>
      <trkpt lat="45.88649" lon="4.7375">
        <ele>187</ele>
        <time>2018-03-22T14:17:41Z</time>
      </trkpt>
      <trkpt lat="45.88649" lon="4.73745">
        <ele>187</ele>
        <time>2018-03-22T14:17:42Z</time>
      </trkpt>
      <trkpt lat="45.8865" lon="4.73734">
        <ele>187</ele>
        <time>2018-03-22T14:17:45Z</time>
      </trkpt>
      <trkpt lat="45.8865" lon="4.7373">
        <ele>186</ele>
        <time>2018-03-22T14:17:46Z</time>
      </trkpt>
      <trkpt lat="45.8865" lon="4.73721">
        <ele>186</ele>
        <time>2018-03-22T14:17:48Z</time>
      </trkpt>
      <trkpt lat="45.8865" lon="4.73717">
        <ele>186</ele>
        <time>2018-03-22T14:17:49Z</time>
      </trkpt>
      <trkpt lat="45.8865" lon="4.73707">
        <ele>186</ele>
        <time>2018-03-22T14:17:51Z</time>
      </trkpt>
      <trkpt lat="45.8865" lon="4.73702">
        <ele>186</ele>
        <time>2018-03-22T14:17:52Z</time>
      </trkpt>
      <trkpt lat="45.8865" lon="4.73692">
        <ele>186</ele>
        <time>2018-03-22T14:17:54Z</time>
      </trkpt>
      <trkpt lat="45.8865" lon="4.73687">
        <ele>186</ele>
        <time>2018-03-22T14:17:55Z</time>
      </trkpt>
      <trkpt lat="45.88651" lon="4.73682">
        <ele>186</ele>
        <time>2018-03-22T14:17:56Z</time>
      </trkpt>
      <trkpt lat="45.88651" lon="4.7367">
        <ele>186</ele>
        <time>2018-03-22T14:17:57Z</time>
      </trkpt>
      <trkpt lat="45.88651" lon="4.73659">
        <ele>186</ele>
        <time>2018-03-22T14:17:59Z</time>
      </trkpt>
      <trkpt lat="45.88651" lon="4.73653">
        <ele>186</ele>
        <time>2018-03-22T14:18:00Z</time>
      </trkpt>
      <trkpt lat="45.8865" lon="4.7364">
        <ele>186</ele>
        <time>2018-03-22T14:18:02Z</time>
      </trkpt>
      <trkpt lat="45.8865" lon="4.73634">
        <ele>186</ele>
        <time>2018-03-22T14:18:03Z</time>
      </trkpt>
      <trkpt lat="45.88651" lon="4.73621">
        <ele>186</ele>
        <time>2018-03-22T14:18:05Z</time>
      </trkpt>
      <trkpt lat="45.88651" lon="4.73615">
        <ele>186</ele>
        <time>2018-03-22T14:18:06Z</time>
      </trkpt>
      <trkpt lat="45.8865" lon="4.73608">
        <ele>186</ele>
        <time>2018-03-22T14:18:07Z</time>
      </trkpt>
      <trkpt lat="45.88651" lon="4.736">
        <ele>185</ele>
        <time>2018-03-22T14:18:08Z</time>
      </trkpt>
      <trkpt lat="45.88651" lon="4.73592">
        <ele>185</ele>
        <time>2018-03-22T14:18:09Z</time>
      </trkpt>
      <trkpt lat="45.88652" lon="4.73583">
        <ele>185</ele>
        <time>2018-03-22T14:18:10Z</time>
      </trkpt>
      <trkpt lat="45.88651" lon="4.73575">
        <ele>185</ele>
        <time>2018-03-22T14:18:11Z</time>
      </trkpt>
      <trkpt lat="45.88651" lon="4.73564">
        <ele>185</ele>
        <time>2018-03-22T14:18:12Z</time>
      </trkpt>
      <trkpt lat="45.88651" lon="4.73554">
        <ele>185</ele>
        <time>2018-03-22T14:18:13Z</time>
      </trkpt>
      <trkpt lat="45.88651" lon="4.73545">
        <ele>185</ele>
        <time>2018-03-22T14:18:14Z</time>
      </trkpt>
      <trkpt lat="45.88651" lon="4.73535">
        <ele>185</ele>
        <time>2018-03-22T14:18:15Z</time>
      </trkpt>
      <trkpt lat="45.88652" lon="4.73524">
        <ele>185</ele>
        <time>2018-03-22T14:18:16Z</time>
      </trkpt>
      <trkpt lat="45.88654" lon="4.73513">
        <ele>185</ele>
        <time>2018-03-22T14:18:17Z</time>
      </trkpt>
      <trkpt lat="45.88656" lon="4.73504">
        <ele>184</ele>
        <time>2018-03-22T14:18:18Z</time>
      </trkpt>
      <trkpt lat="45.88657" lon="4.73495">
        <ele>184</ele>
        <time>2018-03-22T14:18:19Z</time>
      </trkpt>
      <trkpt lat="45.88657" lon="4.73487">
        <ele>184</ele>
        <time>2018-03-22T14:18:20Z</time>
      </trkpt>
      <trkpt lat="45.88655" lon="4.7348">
        <ele>184</ele>
        <time>2018-03-22T14:18:21Z</time>
      </trkpt>
      <trkpt lat="45.88652" lon="4.73475">
        <ele>184</ele>
        <time>2018-03-22T14:18:22Z</time>
      </trkpt>
      <trkpt lat="45.88645" lon="4.73473">
        <ele>184</ele>
        <time>2018-03-22T14:18:24Z</time>
      </trkpt>
      <trkpt lat="45.88641" lon="4.73471">
        <ele>184</ele>
        <time>2018-03-22T14:18:25Z</time>
      </trkpt>
      <trkpt lat="45.88636" lon="4.73461">
        <ele>184</ele>
        <time>2018-03-22T14:18:27Z</time>
      </trkpt>
      <trkpt lat="45.88636" lon="4.73454">
        <ele>184</ele>
        <time>2018-03-22T14:18:28Z</time>
      </trkpt>
      <trkpt lat="45.88637" lon="4.73447">
        <ele>184</ele>
        <time>2018-03-22T14:18:29Z</time>
      </trkpt>
      <trkpt lat="45.88639" lon="4.7344">
        <ele>184</ele>
        <time>2018-03-22T14:18:30Z</time>
      </trkpt>
      <trkpt lat="45.8864" lon="4.73432">
        <ele>184</ele>
        <time>2018-03-22T14:18:31Z</time>
      </trkpt>
      <trkpt lat="45.8864" lon="4.73423">
        <ele>184</ele>
        <time>2018-03-22T14:18:32Z</time>
      </trkpt>
      <trkpt lat="45.88639" lon="4.73416">
        <ele>184</ele>
        <time>2018-03-22T14:18:33Z</time>
      </trkpt>
      <trkpt lat="45.88638" lon="4.73408">
        <ele>184</ele>
        <time>2018-03-22T14:18:34Z</time>
      </trkpt>
      <trkpt lat="45.88635" lon="4.73401">
        <ele>184</ele>
        <time>2018-03-22T14:18:35Z</time>
      </trkpt>
      <trkpt lat="45.88631" lon="4.73395">
        <ele>183</ele>
        <time>2018-03-22T14:18:36Z</time>
      </trkpt>
      <trkpt lat="45.88626" lon="4.73392">
        <ele>183</ele>
        <time>2018-03-22T14:18:37Z</time>
      </trkpt>
      <trkpt lat="45.88621" lon="4.7339">
        <ele>183</ele>
        <time>2018-03-22T14:18:38Z</time>
      </trkpt>
      <trkpt lat="45.88616" lon="4.73389">
        <ele>183</ele>
        <time>2018-03-22T14:18:39Z</time>
      </trkpt>
      <trkpt lat="45.88611" lon="4.73389">
        <ele>183</ele>
        <time>2018-03-22T14:18:40Z</time>
      </trkpt>
      <trkpt lat="45.88605" lon="4.7339">
        <ele>183</ele>
        <time>2018-03-22T14:18:41Z</time>
      </trkpt>
      <trkpt lat="45.886" lon="4.73392">
        <ele>183</ele>
        <time>2018-03-22T14:18:42Z</time>
      </trkpt>
      <trkpt lat="45.88594" lon="4.73392">
        <ele>183</ele>
        <time>2018-03-22T14:18:43Z</time>
      </trkpt>
      <trkpt lat="45.88589" lon="4.73394">
        <ele>183</ele>
        <time>2018-03-22T14:18:44Z</time>
      </trkpt>
      <trkpt lat="45.88583" lon="4.73396">
        <ele>183</ele>
        <time>2018-03-22T14:18:45Z</time>
      </trkpt>
      <trkpt lat="45.88578" lon="4.73397">
        <ele>183</ele>
        <time>2018-03-22T14:18:46Z</time>
      </trkpt>
      <trkpt lat="45.88572" lon="4.73397">
        <ele>183</ele>
        <time>2018-03-22T14:18:47Z</time>
      </trkpt>
      <trkpt lat="45.88567" lon="4.73398">
        <ele>183</ele>
        <time>2018-03-22T14:18:48Z</time>
      </trkpt>
      <trkpt lat="45.88561" lon="4.734">
        <ele>183</ele>
        <time>2018-03-22T14:18:49Z</time>
      </trkpt>
      <trkpt lat="45.88555" lon="4.73402">
        <ele>183</ele>
        <time>2018-03-22T14:18:50Z</time>
      </trkpt>
      <trkpt lat="45.88549" lon="4.73403">
        <ele>183</ele>
        <time>2018-03-22T14:18:51Z</time>
      </trkpt>
      <trkpt lat="45.88544" lon="4.73405">
        <ele>183</ele>
        <time>2018-03-22T14:18:52Z</time>
      </trkpt>
      <trkpt lat="45.88537" lon="4.73406">
        <ele>183</ele>
        <time>2018-03-22T14:18:53Z</time>
      </trkpt>
      <trkpt lat="45.88532" lon="4.73407">
        <ele>183</ele>
        <time>2018-03-22T14:18:54Z</time>
      </trkpt>
      <trkpt lat="45.88528" lon="4.73408">
        <ele>183</ele>
        <time>2018-03-22T14:18:55Z</time>
      </trkpt>
      <trkpt lat="45.88523" lon="4.73409">
        <ele>183</ele>
        <time>2018-03-22T14:18:56Z</time>
      </trkpt>
      <trkpt lat="45.88518" lon="4.73411">
        <ele>184</ele>
        <time>2018-03-22T14:18:57Z</time>
      </trkpt>
      <trkpt lat="45.88514" lon="4.73414">
        <ele>184</ele>
        <time>2018-03-22T14:18:58Z</time>
      </trkpt>
      <trkpt lat="45.88509" lon="4.73414">
        <ele>184</ele>
        <time>2018-03-22T14:18:59Z</time>
      </trkpt>
      <trkpt lat="45.88504" lon="4.73416">
        <ele>184</ele>
        <time>2018-03-22T14:19:00Z</time>
      </trkpt>
      <trkpt lat="45.88499" lon="4.73416">
        <ele>184</ele>
        <time>2018-03-22T14:19:01Z</time>
      </trkpt>
      <trkpt lat="45.88495" lon="4.73417">
        <ele>184</ele>
        <time>2018-03-22T14:19:02Z</time>
      </trkpt>
      <trkpt lat="45.8849" lon="4.73418">
        <ele>184</ele>
        <time>2018-03-22T14:19:03Z</time>
      </trkpt>
      <trkpt lat="45.88484" lon="4.7342">
        <ele>184</ele>
        <time>2018-03-22T14:19:04Z</time>
      </trkpt>
      <trkpt lat="45.88478" lon="4.73422">
        <ele>184</ele>
        <time>2018-03-22T14:19:05Z</time>
      </trkpt>
      <trkpt lat="45.88473" lon="4.73423">
        <ele>184</ele>
        <time>2018-03-22T14:19:06Z</time>
      </trkpt>
      <trkpt lat="45.88467" lon="4.73425">
        <ele>184</ele>
        <time>2018-03-22T14:19:07Z</time>
      </trkpt>
      <trkpt lat="45.88461" lon="4.73426">
        <ele>184</ele>
        <time>2018-03-22T14:19:08Z</time>
      </trkpt>
      <trkpt lat="45.88456" lon="4.73428">
        <ele>184</ele>
        <time>2018-03-22T14:19:09Z</time>
      </trkpt>
      <trkpt lat="45.88451" lon="4.7343">
        <ele>184</ele>
        <time>2018-03-22T14:19:10Z</time>
      </trkpt>
      <trkpt lat="45.88445" lon="4.73432">
        <ele>184</ele>
        <time>2018-03-22T14:19:11Z</time>
      </trkpt>
      <trkpt lat="45.8844" lon="4.73433">
        <ele>184</ele>
        <time>2018-03-22T14:19:12Z</time>
      </trkpt>
      <trkpt lat="45.88435" lon="4.73435">
        <ele>184</ele>
        <time>2018-03-22T14:19:13Z</time>
      </trkpt>
      <trkpt lat="45.88428" lon="4.73436">
        <ele>184</ele>
        <time>2018-03-22T14:19:14Z</time>
      </trkpt>
      <trkpt lat="45.88424" lon="4.73436">
        <ele>184</ele>
        <time>2018-03-22T14:19:15Z</time>
      </trkpt>
      <trkpt lat="45.88418" lon="4.73438">
        <ele>184</ele>
        <time>2018-03-22T14:19:16Z</time>
      </trkpt>
      <trkpt lat="45.88413" lon="4.73439">
        <ele>184</ele>
        <time>2018-03-22T14:19:17Z</time>
      </trkpt>
      <trkpt lat="45.88408" lon="4.73441">
        <ele>184</ele>
        <time>2018-03-22T14:19:18Z</time>
      </trkpt>
      <trkpt lat="45.88403" lon="4.73443">
        <ele>184</ele>
        <time>2018-03-22T14:19:19Z</time>
      </trkpt>
      <trkpt lat="45.88397" lon="4.73446">
        <ele>184</ele>
        <time>2018-03-22T14:19:20Z</time>
      </trkpt>
      <trkpt lat="45.88391" lon="4.73448">
        <ele>184</ele>
        <time>2018-03-22T14:19:21Z</time>
      </trkpt>
      <trkpt lat="45.88386" lon="4.73451">
        <ele>184</ele>
        <time>2018-03-22T14:19:22Z</time>
      </trkpt>
      <trkpt lat="45.8838" lon="4.73453">
        <ele>184</ele>
        <time>2018-03-22T14:19:23Z</time>
      </trkpt>
      <trkpt lat="45.88374" lon="4.73455">
        <ele>184</ele>
        <time>2018-03-22T14:19:24Z</time>
      </trkpt>
      <trkpt lat="45.88369" lon="4.73457">
        <ele>184</ele>
        <time>2018-03-22T14:19:25Z</time>
      </trkpt>
      <trkpt lat="45.88364" lon="4.73459">
        <ele>184</ele>
        <time>2018-03-22T14:19:26Z</time>
      </trkpt>
      <trkpt lat="45.88359" lon="4.7346">
        <ele>184</ele>
        <time>2018-03-22T14:19:27Z</time>
      </trkpt>
      <trkpt lat="45.88354" lon="4.73461">
        <ele>184</ele>
        <time>2018-03-22T14:19:28Z</time>
      </trkpt>
      <trkpt lat="45.88348" lon="4.73463">
        <ele>184</ele>
        <time>2018-03-22T14:19:29Z</time>
      </trkpt>
      <trkpt lat="45.88342" lon="4.73465">
        <ele>184</ele>
        <time>2018-03-22T14:19:30Z</time>
      </trkpt>
      <trkpt lat="45.88337" lon="4.73466">
        <ele>184</ele>
        <time>2018-03-22T14:19:31Z</time>
      </trkpt>
      <trkpt lat="45.88331" lon="4.73469">
        <ele>184</ele>
        <time>2018-03-22T14:19:32Z</time>
      </trkpt>
      <trkpt lat="45.88326" lon="4.73469">
        <ele>184</ele>
        <time>2018-03-22T14:19:33Z</time>
      </trkpt>
      <trkpt lat="45.88321" lon="4.7347">
        <ele>184</ele>
        <time>2018-03-22T14:19:34Z</time>
      </trkpt>
      <trkpt lat="45.88316" lon="4.73471">
        <ele>184</ele>
        <time>2018-03-22T14:19:35Z</time>
      </trkpt>
      <trkpt lat="45.88311" lon="4.73474">
        <ele>184</ele>
        <time>2018-03-22T14:19:36Z</time>
      </trkpt>
      <trkpt lat="45.88305" lon="4.73476">
        <ele>184</ele>
        <time>2018-03-22T14:19:37Z</time>
      </trkpt>
      <trkpt lat="45.883" lon="4.73478">
        <ele>184</ele>
        <time>2018-03-22T14:19:38Z</time>
      </trkpt>
      <trkpt lat="45.88295" lon="4.7348">
        <ele>184</ele>
        <time>2018-03-22T14:19:39Z</time>
      </trkpt>
      <trkpt lat="45.8829" lon="4.73483">
        <ele>184</ele>
        <time>2018-03-22T14:19:40Z</time>
      </trkpt>
      <trkpt lat="45.88285" lon="4.73487">
        <ele>184</ele>
        <time>2018-03-22T14:19:41Z</time>
      </trkpt>
      <trkpt lat="45.8828" lon="4.73491">
        <ele>184</ele>
        <time>2018-03-22T14:19:42Z</time>
      </trkpt>
      <trkpt lat="45.88275" lon="4.73494">
        <ele>184</ele>
        <time>2018-03-22T14:19:43Z</time>
      </trkpt>
      <trkpt lat="45.8827" lon="4.73498">
        <ele>184</ele>
        <time>2018-03-22T14:19:44Z</time>
      </trkpt>
      <trkpt lat="45.88265" lon="4.73501">
        <ele>185</ele>
        <time>2018-03-22T14:19:45Z</time>
      </trkpt>
      <trkpt lat="45.88261" lon="4.73505">
        <ele>185</ele>
        <time>2018-03-22T14:19:46Z</time>
      </trkpt>
      <trkpt lat="45.88255" lon="4.73509">
        <ele>185</ele>
        <time>2018-03-22T14:19:47Z</time>
      </trkpt>
      <trkpt lat="45.8825" lon="4.73512">
        <ele>185</ele>
        <time>2018-03-22T14:19:48Z</time>
      </trkpt>
      <trkpt lat="45.88245" lon="4.73514">
        <ele>185</ele>
        <time>2018-03-22T14:19:49Z</time>
      </trkpt>
      <trkpt lat="45.88241" lon="4.73518">
        <ele>185</ele>
        <time>2018-03-22T14:19:50Z</time>
      </trkpt>
      <trkpt lat="45.88235" lon="4.73522">
        <ele>185</ele>
        <time>2018-03-22T14:19:51Z</time>
      </trkpt>
      <trkpt lat="45.88231" lon="4.73525">
        <ele>185</ele>
        <time>2018-03-22T14:19:52Z</time>
      </trkpt>
      <trkpt lat="45.88226" lon="4.73529">
        <ele>185</ele>
        <time>2018-03-22T14:19:53Z</time>
      </trkpt>
      <trkpt lat="45.88221" lon="4.73532">
        <ele>185</ele>
        <time>2018-03-22T14:19:54Z</time>
      </trkpt>
      <trkpt lat="45.88215" lon="4.73533">
        <ele>185</ele>
        <time>2018-03-22T14:19:55Z</time>
      </trkpt>
      <trkpt lat="45.8821" lon="4.73536">
        <ele>185</ele>
        <time>2018-03-22T14:19:56Z</time>
      </trkpt>
      <trkpt lat="45.88205" lon="4.7354">
        <ele>186</ele>
        <time>2018-03-22T14:19:57Z</time>
      </trkpt>
      <trkpt lat="45.88199" lon="4.73544">
        <ele>186</ele>
        <time>2018-03-22T14:19:58Z</time>
      </trkpt>
      <trkpt lat="45.88194" lon="4.73547">
        <ele>186</ele>
        <time>2018-03-22T14:19:59Z</time>
      </trkpt>
      <trkpt lat="45.88189" lon="4.7355">
        <ele>186</ele>
        <time>2018-03-22T14:20:00Z</time>
      </trkpt>
      <trkpt lat="45.88184" lon="4.73553">
        <ele>186</ele>
        <time>2018-03-22T14:20:01Z</time>
      </trkpt>
      <trkpt lat="45.88179" lon="4.73556">
        <ele>186</ele>
        <time>2018-03-22T14:20:02Z</time>
      </trkpt>
      <trkpt lat="45.88174" lon="4.73561">
        <ele>186</ele>
        <time>2018-03-22T14:20:03Z</time>
      </trkpt>
      <trkpt lat="45.88169" lon="4.73564">
        <ele>186</ele>
        <time>2018-03-22T14:20:04Z</time>
      </trkpt>
      <trkpt lat="45.88164" lon="4.73569">
        <ele>186</ele>
        <time>2018-03-22T14:20:05Z</time>
      </trkpt>
      <trkpt lat="45.88159" lon="4.73572">
        <ele>186</ele>
        <time>2018-03-22T14:20:06Z</time>
      </trkpt>
      <trkpt lat="45.88154" lon="4.73575">
        <ele>186</ele>
        <time>2018-03-22T14:20:07Z</time>
      </trkpt>
      <trkpt lat="45.88149" lon="4.73579">
        <ele>186</ele>
        <time>2018-03-22T14:20:08Z</time>
      </trkpt>
      <trkpt lat="45.88143" lon="4.73583">
        <ele>186</ele>
        <time>2018-03-22T14:20:09Z</time>
      </trkpt>
      <trkpt lat="45.88138" lon="4.73586">
        <ele>187</ele>
        <time>2018-03-22T14:20:10Z</time>
      </trkpt>
      <trkpt lat="45.88134" lon="4.73588">
        <ele>187</ele>
        <time>2018-03-22T14:20:11Z</time>
      </trkpt>
      <trkpt lat="45.88129" lon="4.73591">
        <ele>187</ele>
        <time>2018-03-22T14:20:12Z</time>
      </trkpt>
      <trkpt lat="45.88125" lon="4.73594">
        <ele>187</ele>
        <time>2018-03-22T14:20:13Z</time>
      </trkpt>
      <trkpt lat="45.8812" lon="4.73597">
        <ele>187</ele>
        <time>2018-03-22T14:20:14Z</time>
      </trkpt>
      <trkpt lat="45.88116" lon="4.736">
        <ele>187</ele>
        <time>2018-03-22T14:20:15Z</time>
      </trkpt>
      <trkpt lat="45.88112" lon="4.73602">
        <ele>188</ele>
        <time>2018-03-22T14:20:16Z</time>
      </trkpt>
      <trkpt lat="45.88107" lon="4.73605">
        <ele>188</ele>
        <time>2018-03-22T14:20:17Z</time>
      </trkpt>
      <trkpt lat="45.88103" lon="4.73608">
        <ele>188</ele>
        <time>2018-03-22T14:20:18Z</time>
      </trkpt>
      <trkpt lat="45.88097" lon="4.7361">
        <ele>188</ele>
        <time>2018-03-22T14:20:19Z</time>
      </trkpt>
      <trkpt lat="45.88093" lon="4.73614">
        <ele>188</ele>
        <time>2018-03-22T14:20:20Z</time>
      </trkpt>
      <trkpt lat="45.88089" lon="4.73617">
        <ele>188</ele>
        <time>2018-03-22T14:20:21Z</time>
      </trkpt>
      <trkpt lat="45.88084" lon="4.7362">
        <ele>188</ele>
        <time>2018-03-22T14:20:22Z</time>
      </trkpt>
      <trkpt lat="45.8808" lon="4.73623">
        <ele>189</ele>
        <time>2018-03-22T14:20:23Z</time>
      </trkpt>
      <trkpt lat="45.88075" lon="4.73626">
        <ele>189</ele>
        <time>2018-03-22T14:20:24Z</time>
      </trkpt>
      <trkpt lat="45.8807" lon="4.7363">
        <ele>189</ele>
        <time>2018-03-22T14:20:25Z</time>
      </trkpt>
      <trkpt lat="45.88066" lon="4.73632">
        <ele>189</ele>
        <time>2018-03-22T14:20:26Z</time>
      </trkpt>
      <trkpt lat="45.8806" lon="4.73634">
        <ele>189</ele>
        <time>2018-03-22T14:20:27Z</time>
      </trkpt>
      <trkpt lat="45.88056" lon="4.73637">
        <ele>189</ele>
        <time>2018-03-22T14:20:28Z</time>
      </trkpt>
      <trkpt lat="45.88052" lon="4.73641">
        <ele>189</ele>
        <time>2018-03-22T14:20:29Z</time>
      </trkpt>
      <trkpt lat="45.88048" lon="4.73644">
        <ele>189</ele>
        <time>2018-03-22T14:20:30Z</time>
      </trkpt>
      <trkpt lat="45.88043" lon="4.73646">
        <ele>189</ele>
        <time>2018-03-22T14:20:31Z</time>
      </trkpt>
      <trkpt lat="45.88038" lon="4.73648">
        <ele>189</ele>
        <time>2018-03-22T14:20:32Z</time>
      </trkpt>
      <trkpt lat="45.88034" lon="4.73649">
        <ele>189</ele>
        <time>2018-03-22T14:20:33Z</time>
      </trkpt>
      <trkpt lat="45.88029" lon="4.73652">
        <ele>189</ele>
        <time>2018-03-22T14:20:34Z</time>
      </trkpt>
      <trkpt lat="45.88023" lon="4.73654">
        <ele>189</ele>
        <time>2018-03-22T14:20:35Z</time>
      </trkpt>
      <trkpt lat="45.88017" lon="4.73655">
        <ele>189</ele>
        <time>2018-03-22T14:20:36Z</time>
      </trkpt>
      <trkpt lat="45.88011" lon="4.73655">
        <ele>189</ele>
        <time>2018-03-22T14:20:37Z</time>
      </trkpt>
      <trkpt lat="45.88006" lon="4.73654">
        <ele>189</ele>
        <time>2018-03-22T14:20:38Z</time>
      </trkpt>
      <trkpt lat="45.88" lon="4.73653">
        <ele>189</ele>
        <time>2018-03-22T14:20:39Z</time>
      </trkpt>
      <trkpt lat="45.87994" lon="4.73652">
        <ele>190</ele>
        <time>2018-03-22T14:20:40Z</time>
      </trkpt>
      <trkpt lat="45.87989" lon="4.7365">
        <ele>190</ele>
        <time>2018-03-22T14:20:41Z</time>
      </trkpt>
      <trkpt lat="45.87983" lon="4.73648">
        <ele>190</ele>
        <time>2018-03-22T14:20:42Z</time>
      </trkpt>
      <trkpt lat="45.87978" lon="4.73646">
        <ele>189</ele>
        <time>2018-03-22T14:20:43Z</time>
      </trkpt>
      <trkpt lat="45.87973" lon="4.73644">
        <ele>189</ele>
        <time>2018-03-22T14:20:44Z</time>
      </trkpt>
      <trkpt lat="45.87968" lon="4.73641">
        <ele>189</ele>
        <time>2018-03-22T14:20:45Z</time>
      </trkpt>
      <trkpt lat="45.87963" lon="4.7364">
        <ele>189</ele>
        <time>2018-03-22T14:20:46Z</time>
      </trkpt>
      <trkpt lat="45.87958" lon="4.73639">
        <ele>189</ele>
        <time>2018-03-22T14:20:47Z</time>
      </trkpt>
      <trkpt lat="45.87953" lon="4.73637">
        <ele>189</ele>
        <time>2018-03-22T14:20:48Z</time>
      </trkpt>
      <trkpt lat="45.87948" lon="4.73636">
        <ele>189</ele>
        <time>2018-03-22T14:20:49Z</time>
      </trkpt>
      <trkpt lat="45.87942" lon="4.73634">
        <ele>189</ele>
        <time>2018-03-22T14:20:50Z</time>
      </trkpt>
      <trkpt lat="45.87937" lon="4.73633">
        <ele>189</ele>
        <time>2018-03-22T14:20:51Z</time>
      </trkpt>
      <trkpt lat="45.87931" lon="4.73632">
        <ele>189</ele>
        <time>2018-03-22T14:20:52Z</time>
      </trkpt>
      <trkpt lat="45.87926" lon="4.73631">
        <ele>189</ele>
        <time>2018-03-22T14:20:53Z</time>
      </trkpt>
      <trkpt lat="45.8792" lon="4.7363">
        <ele>189</ele>
        <time>2018-03-22T14:20:54Z</time>
      </trkpt>
      <trkpt lat="45.87914" lon="4.73628">
        <ele>190</ele>
        <time>2018-03-22T14:20:55Z</time>
      </trkpt>
      <trkpt lat="45.87909" lon="4.73627">
        <ele>190</ele>
        <time>2018-03-22T14:20:56Z</time>
      </trkpt>
      <trkpt lat="45.87903" lon="4.73625">
        <ele>190</ele>
        <time>2018-03-22T14:20:57Z</time>
      </trkpt>
      <trkpt lat="45.87897" lon="4.73623">
        <ele>190</ele>
        <time>2018-03-22T14:20:58Z</time>
      </trkpt>
      <trkpt lat="45.87892" lon="4.73621">
        <ele>190</ele>
        <time>2018-03-22T14:20:59Z</time>
      </trkpt>
      <trkpt lat="45.87887" lon="4.7362">
        <ele>190</ele>
        <time>2018-03-22T14:21:00Z</time>
      </trkpt>
      <trkpt lat="45.87881" lon="4.73618">
        <ele>190</ele>
        <time>2018-03-22T14:21:01Z</time>
      </trkpt>
      <trkpt lat="45.87876" lon="4.73618">
        <ele>190</ele>
        <time>2018-03-22T14:21:02Z</time>
      </trkpt>
      <trkpt lat="45.87871" lon="4.73619">
        <ele>190</ele>
        <time>2018-03-22T14:21:03Z</time>
      </trkpt>
      <trkpt lat="45.87866" lon="4.73622">
        <ele>190</ele>
        <time>2018-03-22T14:21:04Z</time>
      </trkpt>
      <trkpt lat="45.87859" lon="4.73629">
        <ele>190</ele>
        <time>2018-03-22T14:21:06Z</time>
      </trkpt>
      <trkpt lat="45.87854" lon="4.73633">
        <ele>191</ele>
        <time>2018-03-22T14:21:07Z</time>
      </trkpt>
      <trkpt lat="45.87849" lon="4.73636">
        <ele>191</ele>
        <time>2018-03-22T14:21:08Z</time>
      </trkpt>
      <trkpt lat="45.87846" lon="4.73641">
        <ele>191</ele>
        <time>2018-03-22T14:21:09Z</time>
      </trkpt>
      <trkpt lat="45.87839" lon="4.7364">
        <ele>191</ele>
        <time>2018-03-22T14:21:11Z</time>
      </trkpt>
      <trkpt lat="45.87835" lon="4.73634">
        <ele>191</ele>
        <time>2018-03-22T14:21:12Z</time>
      </trkpt>
      <trkpt lat="45.87831" lon="4.73623">
        <ele>190</ele>
        <time>2018-03-22T14:21:14Z</time>
      </trkpt>
      <trkpt lat="45.87829" lon="4.73618">
        <ele>190</ele>
        <time>2018-03-22T14:21:15Z</time>
      </trkpt>
      <trkpt lat="45.87826" lon="4.73611">
        <ele>190</ele>
        <time>2018-03-22T14:21:16Z</time>
      </trkpt>
      <trkpt lat="45.87824" lon="4.73603">
        <ele>190</ele>
        <time>2018-03-22T14:21:17Z</time>
      </trkpt>
      <trkpt lat="45.87821" lon="4.73597">
        <ele>190</ele>
        <time>2018-03-22T14:21:18Z</time>
      </trkpt>
      <trkpt lat="45.87818" lon="4.73589">
        <ele>190</ele>
        <time>2018-03-22T14:21:19Z</time>
      </trkpt>
      <trkpt lat="45.87816" lon="4.73583">
        <ele>189</ele>
        <time>2018-03-22T14:21:20Z</time>
      </trkpt>
      <trkpt lat="45.87811" lon="4.73576">
        <ele>189</ele>
        <time>2018-03-22T14:21:21Z</time>
      </trkpt>
      <trkpt lat="45.87808" lon="4.73569">
        <ele>189</ele>
        <time>2018-03-22T14:21:22Z</time>
      </trkpt>
      <trkpt lat="45.87805" lon="4.73563">
        <ele>189</ele>
        <time>2018-03-22T14:21:23Z</time>
      </trkpt>
      <trkpt lat="45.87801" lon="4.73556">
        <ele>189</ele>
        <time>2018-03-22T14:21:24Z</time>
      </trkpt>
      <trkpt lat="45.87798" lon="4.7355">
        <ele>189</ele>
        <time>2018-03-22T14:21:25Z</time>
      </trkpt>
      <trkpt lat="45.87794" lon="4.73544">
        <ele>189</ele>
        <time>2018-03-22T14:21:26Z</time>
      </trkpt>
      <trkpt lat="45.87791" lon="4.73537">
        <ele>189</ele>
        <time>2018-03-22T14:21:27Z</time>
      </trkpt>
      <trkpt lat="45.87788" lon="4.7353">
        <ele>189</ele>
        <time>2018-03-22T14:21:28Z</time>
      </trkpt>
      <trkpt lat="45.87785" lon="4.73524">
        <ele>189</ele>
        <time>2018-03-22T14:21:29Z</time>
      </trkpt>
      <trkpt lat="45.87782" lon="4.73518">
        <ele>189</ele>
        <time>2018-03-22T14:21:30Z</time>
      </trkpt>
      <trkpt lat="45.87779" lon="4.73511">
        <ele>189</ele>
        <time>2018-03-22T14:21:31Z</time>
      </trkpt>
      <trkpt lat="45.87776" lon="4.73505">
        <ele>189</ele>
        <time>2018-03-22T14:21:32Z</time>
      </trkpt>
      <trkpt lat="45.87772" lon="4.73498">
        <ele>189</ele>
        <time>2018-03-22T14:21:33Z</time>
      </trkpt>
      <trkpt lat="45.8777" lon="4.73491">
        <ele>189</ele>
        <time>2018-03-22T14:21:34Z</time>
      </trkpt>
      <trkpt lat="45.87767" lon="4.73484">
        <ele>188</ele>
        <time>2018-03-22T14:21:35Z</time>
      </trkpt>
      <trkpt lat="45.87765" lon="4.73477">
        <ele>188</ele>
        <time>2018-03-22T14:21:36Z</time>
      </trkpt>
      <trkpt lat="45.87762" lon="4.7347">
        <ele>188</ele>
        <time>2018-03-22T14:21:37Z</time>
      </trkpt>
      <trkpt lat="45.87758" lon="4.73464">
        <ele>188</ele>
        <time>2018-03-22T14:21:38Z</time>
      </trkpt>
      <trkpt lat="45.87756" lon="4.73457">
        <ele>188</ele>
        <time>2018-03-22T14:21:39Z</time>
      </trkpt>
      <trkpt lat="45.87752" lon="4.7345">
        <ele>188</ele>
        <time>2018-03-22T14:21:40Z</time>
      </trkpt>
      <trkpt lat="45.87749" lon="4.73444">
        <ele>189</ele>
        <time>2018-03-22T14:21:41Z</time>
      </trkpt>
      <trkpt lat="45.87745" lon="4.73436">
        <ele>188</ele>
        <time>2018-03-22T14:21:42Z</time>
      </trkpt>
      <trkpt lat="45.87742" lon="4.7343">
        <ele>188</ele>
        <time>2018-03-22T14:21:43Z</time>
      </trkpt>
      <trkpt lat="45.8774" lon="4.73424">
        <ele>188</ele>
        <time>2018-03-22T14:21:44Z</time>
      </trkpt>
      <trkpt lat="45.87736" lon="4.73418">
        <ele>188</ele>
        <time>2018-03-22T14:21:45Z</time>
      </trkpt>
      <trkpt lat="45.87733" lon="4.73412">
        <ele>188</ele>
        <time>2018-03-22T14:21:46Z</time>
      </trkpt>
      <trkpt lat="45.8773" lon="4.73405">
        <ele>188</ele>
        <time>2018-03-22T14:21:47Z</time>
      </trkpt>
      <trkpt lat="45.87727" lon="4.73399">
        <ele>188</ele>
        <time>2018-03-22T14:21:48Z</time>
      </trkpt>
      <trkpt lat="45.87725" lon="4.73393">
        <ele>188</ele>
        <time>2018-03-22T14:21:49Z</time>
      </trkpt>
      <trkpt lat="45.87722" lon="4.73386">
        <ele>188</ele>
        <time>2018-03-22T14:21:50Z</time>
      </trkpt>
      <trkpt lat="45.87719" lon="4.73379">
        <ele>187</ele>
        <time>2018-03-22T14:21:51Z</time>
      </trkpt>
      <trkpt lat="45.87715" lon="4.73372">
        <ele>187</ele>
        <time>2018-03-22T14:21:52Z</time>
      </trkpt>
      <trkpt lat="45.87712" lon="4.73366">
        <ele>187</ele>
        <time>2018-03-22T14:21:53Z</time>
      </trkpt>
      <trkpt lat="45.87709" lon="4.73359">
        <ele>187</ele>
        <time>2018-03-22T14:21:54Z</time>
      </trkpt>
      <trkpt lat="45.87706" lon="4.73352">
        <ele>187</ele>
        <time>2018-03-22T14:21:55Z</time>
      </trkpt>
      <trkpt lat="45.87703" lon="4.73346">
        <ele>187</ele>
        <time>2018-03-22T14:21:56Z</time>
      </trkpt>
      <trkpt lat="45.87699" lon="4.73339">
        <ele>187</ele>
        <time>2018-03-22T14:21:57Z</time>
      </trkpt>
      <trkpt lat="45.87695" lon="4.73331">
        <ele>188</ele>
        <time>2018-03-22T14:21:58Z</time>
      </trkpt>
      <trkpt lat="45.87692" lon="4.73324">
        <ele>188</ele>
        <time>2018-03-22T14:21:59Z</time>
      </trkpt>
      <trkpt lat="45.87688" lon="4.73317">
        <ele>188</ele>
        <time>2018-03-22T14:22:00Z</time>
      </trkpt>
      <trkpt lat="45.87684" lon="4.7331">
        <ele>188</ele>
        <time>2018-03-22T14:22:01Z</time>
      </trkpt>
      <trkpt lat="45.87682" lon="4.73305">
        <ele>188</ele>
        <time>2018-03-22T14:22:02Z</time>
      </trkpt>
      <trkpt lat="45.87679" lon="4.73298">
        <ele>188</ele>
        <time>2018-03-22T14:22:03Z</time>
      </trkpt>
      <trkpt lat="45.87676" lon="4.73292">
        <ele>188</ele>
        <time>2018-03-22T14:22:04Z</time>
      </trkpt>
      <trkpt lat="45.87673" lon="4.73285">
        <ele>188</ele>
        <time>2018-03-22T14:22:05Z</time>
      </trkpt>
      <trkpt lat="45.8767" lon="4.73279">
        <ele>188</ele>
        <time>2018-03-22T14:22:06Z</time>
      </trkpt>
      <trkpt lat="45.87667" lon="4.73273">
        <ele>189</ele>
        <time>2018-03-22T14:22:07Z</time>
      </trkpt>
      <trkpt lat="45.87664" lon="4.73266">
        <ele>189</ele>
        <time>2018-03-22T14:22:08Z</time>
      </trkpt>
      <trkpt lat="45.87661" lon="4.73259">
        <ele>189</ele>
        <time>2018-03-22T14:22:09Z</time>
      </trkpt>
      <trkpt lat="45.87657" lon="4.73254">
        <ele>189</ele>
        <time>2018-03-22T14:22:10Z</time>
      </trkpt>
      <trkpt lat="45.87654" lon="4.73247">
        <ele>188</ele>
        <time>2018-03-22T14:22:11Z</time>
      </trkpt>
      <trkpt lat="45.87651" lon="4.73241">
        <ele>188</ele>
        <time>2018-03-22T14:22:12Z</time>
      </trkpt>
      <trkpt lat="45.87648" lon="4.73234">
        <ele>188</ele>
        <time>2018-03-22T14:22:13Z</time>
      </trkpt>
      <trkpt lat="45.87646" lon="4.73228">
        <ele>188</ele>
        <time>2018-03-22T14:22:14Z</time>
      </trkpt>
      <trkpt lat="45.87642" lon="4.73222">
        <ele>188</ele>
        <time>2018-03-22T14:22:15Z</time>
      </trkpt>
      <trkpt lat="45.8764" lon="4.73216">
        <ele>188</ele>
        <time>2018-03-22T14:22:16Z</time>
      </trkpt>
      <trkpt lat="45.87636" lon="4.73209">
        <ele>188</ele>
        <time>2018-03-22T14:22:17Z</time>
      </trkpt>
      <trkpt lat="45.87633" lon="4.73202">
        <ele>188</ele>
        <time>2018-03-22T14:22:18Z</time>
      </trkpt>
      <trkpt lat="45.8763" lon="4.73197">
        <ele>188</ele>
        <time>2018-03-22T14:22:19Z</time>
      </trkpt>
      <trkpt lat="45.87627" lon="4.7319">
        <ele>188</ele>
        <time>2018-03-22T14:22:20Z</time>
      </trkpt>
      <trkpt lat="45.87623" lon="4.73183">
        <ele>188</ele>
        <time>2018-03-22T14:22:21Z</time>
      </trkpt>
      <trkpt lat="45.8762" lon="4.73176">
        <ele>187</ele>
        <time>2018-03-22T14:22:22Z</time>
      </trkpt>
      <trkpt lat="45.87617" lon="4.73169">
        <ele>187</ele>
        <time>2018-03-22T14:22:23Z</time>
      </trkpt>
      <trkpt lat="45.87613" lon="4.73161">
        <ele>187</ele>
        <time>2018-03-22T14:22:24Z</time>
      </trkpt>
      <trkpt lat="45.87612" lon="4.73153">
        <ele>187</ele>
        <time>2018-03-22T14:22:25Z</time>
      </trkpt>
      <trkpt lat="45.87607" lon="4.73146">
        <ele>187</ele>
        <time>2018-03-22T14:22:26Z</time>
      </trkpt>
      <trkpt lat="45.87603" lon="4.73138">
        <ele>187</ele>
        <time>2018-03-22T14:22:27Z</time>
      </trkpt>
      <trkpt lat="45.87599" lon="4.73129">
        <ele>187</ele>
        <time>2018-03-22T14:22:28Z</time>
      </trkpt>
      <trkpt lat="45.87594" lon="4.73121">
        <ele>188</ele>
        <time>2018-03-22T14:22:29Z</time>
      </trkpt>
      <trkpt lat="45.87591" lon="4.73113">
        <ele>188</ele>
        <time>2018-03-22T14:22:30Z</time>
      </trkpt>
      <trkpt lat="45.87586" lon="4.73106">
        <ele>188</ele>
        <time>2018-03-22T14:22:31Z</time>
      </trkpt>
      <trkpt lat="45.87582" lon="4.73098">
        <ele>188</ele>
        <time>2018-03-22T14:22:32Z</time>
      </trkpt>
      <trkpt lat="45.87578" lon="4.73091">
        <ele>188</ele>
        <time>2018-03-22T14:22:33Z</time>
      </trkpt>
      <trkpt lat="45.87574" lon="4.73083">
        <ele>188</ele>
        <time>2018-03-22T14:22:34Z</time>
      </trkpt>
      <trkpt lat="45.8757" lon="4.73075">
        <ele>188</ele>
        <time>2018-03-22T14:22:35Z</time>
      </trkpt>
      <trkpt lat="45.87566" lon="4.73068">
        <ele>188</ele>
        <time>2018-03-22T14:22:36Z</time>
      </trkpt>
      <trkpt lat="45.87562" lon="4.73061">
        <ele>188</ele>
        <time>2018-03-22T14:22:37Z</time>
      </trkpt>
      <trkpt lat="45.87558" lon="4.73053">
        <ele>188</ele>
        <time>2018-03-22T14:22:38Z</time>
      </trkpt>
      <trkpt lat="45.87557" lon="4.73047">
        <ele>188</ele>
        <time>2018-03-22T14:22:39Z</time>
      </trkpt>
      <trkpt lat="45.87553" lon="4.7304">
        <ele>188</ele>
        <time>2018-03-22T14:22:40Z</time>
      </trkpt>
      <trkpt lat="45.8755" lon="4.73032">
        <ele>188</ele>
        <time>2018-03-22T14:22:41Z</time>
      </trkpt>
      <trkpt lat="45.87546" lon="4.73026">
        <ele>188</ele>
        <time>2018-03-22T14:22:42Z</time>
      </trkpt>
      <trkpt lat="45.87543" lon="4.7302">
        <ele>188</ele>
        <time>2018-03-22T14:22:43Z</time>
      </trkpt>
      <trkpt lat="45.87539" lon="4.73013">
        <ele>187</ele>
        <time>2018-03-22T14:22:44Z</time>
      </trkpt>
      <trkpt lat="45.87537" lon="4.73006">
        <ele>187</ele>
        <time>2018-03-22T14:22:45Z</time>
      </trkpt>
      <trkpt lat="45.87534" lon="4.73">
        <ele>187</ele>
        <time>2018-03-22T14:22:46Z</time>
      </trkpt>
      <trkpt lat="45.87531" lon="4.72994">
        <ele>187</ele>
        <time>2018-03-22T14:22:47Z</time>
      </trkpt>
      <trkpt lat="45.87528" lon="4.72987">
        <ele>187</ele>
        <time>2018-03-22T14:22:48Z</time>
      </trkpt>
      <trkpt lat="45.87525" lon="4.72981">
        <ele>187</ele>
        <time>2018-03-22T14:22:49Z</time>
      </trkpt>
      <trkpt lat="45.87522" lon="4.72974">
        <ele>187</ele>
        <time>2018-03-22T14:22:50Z</time>
      </trkpt>
      <trkpt lat="45.87518" lon="4.72968">
        <ele>187</ele>
        <time>2018-03-22T14:22:51Z</time>
      </trkpt>
      <trkpt lat="45.87514" lon="4.72962">
        <ele>187</ele>
        <time>2018-03-22T14:22:52Z</time>
      </trkpt>
      <trkpt lat="45.8751" lon="4.72956">
        <ele>187</ele>
        <time>2018-03-22T14:22:53Z</time>
      </trkpt>
      <trkpt lat="45.87505" lon="4.72951">
        <ele>187</ele>
        <time>2018-03-22T14:22:54Z</time>
      </trkpt>
      <trkpt lat="45.875" lon="4.72946">
        <ele>188</ele>
        <time>2018-03-22T14:22:55Z</time>
      </trkpt>
      <trkpt lat="45.87495" lon="4.72943">
        <ele>188</ele>
        <time>2018-03-22T14:22:56Z</time>
      </trkpt>
      <trkpt lat="45.8749" lon="4.72939">
        <ele>188</ele>
        <time>2018-03-22T14:22:57Z</time>
      </trkpt>
      <trkpt lat="45.87485" lon="4.72935">
        <ele>188</ele>
        <time>2018-03-22T14:22:58Z</time>
      </trkpt>
      <trkpt lat="45.8748" lon="4.7293">
        <ele>188</ele>
        <time>2018-03-22T14:22:59Z</time>
      </trkpt>
      <trkpt lat="45.87477" lon="4.72925">
        <ele>188</ele>
        <time>2018-03-22T14:23:00Z</time>
      </trkpt>
      <trkpt lat="45.87474" lon="4.72919">
        <ele>188</ele>
        <time>2018-03-22T14:23:01Z</time>
      </trkpt>
      <trkpt lat="45.87472" lon="4.72913">
        <ele>188</ele>
        <time>2018-03-22T14:23:02Z</time>
      </trkpt>
      <trkpt lat="45.87471" lon="4.72907">
        <ele>188</ele>
        <time>2018-03-22T14:23:03Z</time>
      </trkpt>
      <trkpt lat="45.87467" lon="4.72896">
        <ele>188</ele>
        <time>2018-03-22T14:23:05Z</time>
      </trkpt>
      <trkpt lat="45.87466" lon="4.72891">
        <ele>188</ele>
        <time>2018-03-22T14:23:06Z</time>
      </trkpt>
      <trkpt lat="45.87463" lon="4.72885">
        <ele>188</ele>
        <time>2018-03-22T14:23:07Z</time>
      </trkpt>
      <trkpt lat="45.87462" lon="4.72879">
        <ele>188</ele>
        <time>2018-03-22T14:23:08Z</time>
      </trkpt>
      <trkpt lat="45.8746" lon="4.72871">
        <ele>188</ele>
        <time>2018-03-22T14:23:09Z</time>
      </trkpt>
      <trkpt lat="45.87458" lon="4.72864">
        <ele>188</ele>
        <time>2018-03-22T14:23:10Z</time>
      </trkpt>
      <trkpt lat="45.87455" lon="4.72858">
        <ele>188</ele>
        <time>2018-03-22T14:23:11Z</time>
      </trkpt>
      <trkpt lat="45.87453" lon="4.72851">
        <ele>188</ele>
        <time>2018-03-22T14:23:12Z</time>
      </trkpt>
      <trkpt lat="45.8745" lon="4.72845">
        <ele>188</ele>
        <time>2018-03-22T14:23:13Z</time>
      </trkpt>
      <trkpt lat="45.87447" lon="4.72838">
        <ele>188</ele>
        <time>2018-03-22T14:23:14Z</time>
      </trkpt>
      <trkpt lat="45.87443" lon="4.72831">
        <ele>189</ele>
        <time>2018-03-22T14:23:15Z</time>
      </trkpt>
      <trkpt lat="45.87441" lon="4.72825">
        <ele>189</ele>
        <time>2018-03-22T14:23:16Z</time>
      </trkpt>
      <trkpt lat="45.87438" lon="4.72817">
        <ele>189</ele>
        <time>2018-03-22T14:23:17Z</time>
      </trkpt>
      <trkpt lat="45.87435" lon="4.7281">
        <ele>189</ele>
        <time>2018-03-22T14:23:18Z</time>
      </trkpt>
      <trkpt lat="45.87432" lon="4.72803">
        <ele>189</ele>
        <time>2018-03-22T14:23:19Z</time>
      </trkpt>
      <trkpt lat="45.87428" lon="4.72796">
        <ele>189</ele>
        <time>2018-03-22T14:23:20Z</time>
      </trkpt>
      <trkpt lat="45.87425" lon="4.7279">
        <ele>189</ele>
        <time>2018-03-22T14:23:21Z</time>
      </trkpt>
      <trkpt lat="45.87422" lon="4.72784">
        <ele>189</ele>
        <time>2018-03-22T14:23:22Z</time>
      </trkpt>
      <trkpt lat="45.87419" lon="4.72777">
        <ele>189</ele>
        <time>2018-03-22T14:23:23Z</time>
      </trkpt>
      <trkpt lat="45.87416" lon="4.72769">
        <ele>189</ele>
        <time>2018-03-22T14:23:24Z</time>
      </trkpt>
      <trkpt lat="45.87412" lon="4.72763">
        <ele>189</ele>
        <time>2018-03-22T14:23:25Z</time>
      </trkpt>
      <trkpt lat="45.87409" lon="4.72756">
        <ele>189</ele>
        <time>2018-03-22T14:23:26Z</time>
      </trkpt>
      <trkpt lat="45.87405" lon="4.7275">
        <ele>189</ele>
        <time>2018-03-22T14:23:27Z</time>
      </trkpt>
      <trkpt lat="45.87401" lon="4.72745">
        <ele>189</ele>
        <time>2018-03-22T14:23:28Z</time>
      </trkpt>
      <trkpt lat="45.87397" lon="4.7274">
        <ele>189</ele>
        <time>2018-03-22T14:23:29Z</time>
      </trkpt>
      <trkpt lat="45.87393" lon="4.72735">
        <ele>190</ele>
        <time>2018-03-22T14:23:30Z</time>
      </trkpt>
      <trkpt lat="45.8739" lon="4.7273">
        <ele>190</ele>
        <time>2018-03-22T14:23:31Z</time>
      </trkpt>
      <trkpt lat="45.87388" lon="4.72723">
        <ele>190</ele>
        <time>2018-03-22T14:23:32Z</time>
      </trkpt>
      <trkpt lat="45.87386" lon="4.72717">
        <ele>190</ele>
        <time>2018-03-22T14:23:33Z</time>
      </trkpt>
      <trkpt lat="45.87384" lon="4.72711">
        <ele>190</ele>
        <time>2018-03-22T14:23:34Z</time>
      </trkpt>
      <trkpt lat="45.8738" lon="4.72705">
        <ele>190</ele>
        <time>2018-03-22T14:23:35Z</time>
      </trkpt>
      <trkpt lat="45.87377" lon="4.727">
        <ele>190</ele>
        <time>2018-03-22T14:23:36Z</time>
      </trkpt>
      <trkpt lat="45.87374" lon="4.72694">
        <ele>190</ele>
        <time>2018-03-22T14:23:37Z</time>
      </trkpt>
      <trkpt lat="45.87369" lon="4.72689">
        <ele>190</ele>
        <time>2018-03-22T14:23:38Z</time>
      </trkpt>
      <trkpt lat="45.87365" lon="4.72683">
        <ele>190</ele>
        <time>2018-03-22T14:23:39Z</time>
      </trkpt>
      <trkpt lat="45.87361" lon="4.72678">
        <ele>190</ele>
        <time>2018-03-22T14:23:40Z</time>
      </trkpt>
      <trkpt lat="45.87356" lon="4.72674">
        <ele>190</ele>
        <time>2018-03-22T14:23:41Z</time>
      </trkpt>
      <trkpt lat="45.87351" lon="4.72669">
        <ele>190</ele>
        <time>2018-03-22T14:23:42Z</time>
      </trkpt>
      <trkpt lat="45.87347" lon="4.72665">
        <ele>190</ele>
        <time>2018-03-22T14:23:43Z</time>
      </trkpt>
      <trkpt lat="45.87341" lon="4.72661">
        <ele>190</ele>
        <time>2018-03-22T14:23:44Z</time>
      </trkpt>
      <trkpt lat="45.87336" lon="4.72657">
        <ele>190</ele>
        <time>2018-03-22T14:23:45Z</time>
      </trkpt>
      <trkpt lat="45.87332" lon="4.72653">
        <ele>192</ele>
        <time>2018-03-22T14:23:46Z</time>
      </trkpt>
      <trkpt lat="45.87327" lon="4.72648">
        <ele>192</ele>
        <time>2018-03-22T14:23:47Z</time>
      </trkpt>
      <trkpt lat="45.87323" lon="4.72643">
        <ele>192</ele>
        <time>2018-03-22T14:23:48Z</time>
      </trkpt>
      <trkpt lat="45.8732" lon="4.72639">
        <ele>193</ele>
        <time>2018-03-22T14:23:49Z</time>
      </trkpt>
      <trkpt lat="45.87316" lon="4.72634">
        <ele>193</ele>
        <time>2018-03-22T14:23:50Z</time>
      </trkpt>
      <trkpt lat="45.87312" lon="4.72629">
        <ele>193</ele>
        <time>2018-03-22T14:23:51Z</time>
      </trkpt>
      <trkpt lat="45.87308" lon="4.72625">
        <ele>193</ele>
        <time>2018-03-22T14:23:52Z</time>
      </trkpt>
      <trkpt lat="45.87304" lon="4.7262">
        <ele>193</ele>
        <time>2018-03-22T14:23:53Z</time>
      </trkpt>
      <trkpt lat="45.873" lon="4.72616">
        <ele>194</ele>
        <time>2018-03-22T14:23:54Z</time>
      </trkpt>
      <trkpt lat="45.87297" lon="4.72611">
        <ele>194</ele>
        <time>2018-03-22T14:23:55Z</time>
      </trkpt>
      <trkpt lat="45.87293" lon="4.72607">
        <ele>194</ele>
        <time>2018-03-22T14:23:56Z</time>
      </trkpt>
      <trkpt lat="45.87289" lon="4.72603">
        <ele>194</ele>
        <time>2018-03-22T14:23:57Z</time>
      </trkpt>
      <trkpt lat="45.87286" lon="4.72598">
        <ele>194</ele>
        <time>2018-03-22T14:23:58Z</time>
      </trkpt>
      <trkpt lat="45.87282" lon="4.72593">
        <ele>194</ele>
        <time>2018-03-22T14:23:59Z</time>
      </trkpt>
      <trkpt lat="45.87278" lon="4.72589">
        <ele>195</ele>
        <time>2018-03-22T14:24:00Z</time>
      </trkpt>
      <trkpt lat="45.87275" lon="4.72583">
        <ele>194</ele>
        <time>2018-03-22T14:24:01Z</time>
      </trkpt>
      <trkpt lat="45.87272" lon="4.72578">
        <ele>195</ele>
        <time>2018-03-22T14:24:02Z</time>
      </trkpt>
      <trkpt lat="45.87265" lon="4.72571">
        <ele>195</ele>
        <time>2018-03-22T14:24:04Z</time>
      </trkpt>
      <trkpt lat="45.87261" lon="4.72568">
        <ele>195</ele>
        <time>2018-03-22T14:24:05Z</time>
      </trkpt>
      <trkpt lat="45.87256" lon="4.72558">
        <ele>194</ele>
        <time>2018-03-22T14:24:07Z</time>
      </trkpt>
      <trkpt lat="45.87256" lon="4.72557">
        <ele>194</ele>
        <time>2018-03-22T14:24:08Z</time>
      </trkpt>
      <trkpt lat="45.87252" lon="4.72548">
        <ele>194</ele>
        <time>2018-03-22T14:24:11Z</time>
      </trkpt>
      <trkpt lat="45.87251" lon="4.72545">
        <ele>194</ele>
        <time>2018-03-22T14:24:12Z</time>
      </trkpt>
      <trkpt lat="45.87247" lon="4.72534">
        <ele>197</ele>
        <time>2018-03-22T14:24:15Z</time>
      </trkpt>
      <trkpt lat="45.87243" lon="4.72523">
        <ele>196</ele>
        <time>2018-03-22T14:24:16Z</time>
      </trkpt>
      <trkpt lat="45.87237" lon="4.72513">
        <ele>196</ele>
        <time>2018-03-22T14:24:18Z</time>
      </trkpt>
      <trkpt lat="45.87234" lon="4.72508">
        <ele>196</ele>
        <time>2018-03-22T14:24:19Z</time>
      </trkpt>
      <trkpt lat="45.87229" lon="4.72498">
        <ele>194</ele>
        <time>2018-03-22T14:24:21Z</time>
      </trkpt>
      <trkpt lat="45.87227" lon="4.72493">
        <ele>194</ele>
        <time>2018-03-22T14:24:22Z</time>
      </trkpt>
      <trkpt lat="45.87223" lon="4.72488">
        <ele>194</ele>
        <time>2018-03-22T14:24:23Z</time>
      </trkpt>
      <trkpt lat="45.87219" lon="4.72481">
        <ele>194</ele>
        <time>2018-03-22T14:24:24Z</time>
      </trkpt>
      <trkpt lat="45.87213" lon="4.72473">
        <ele>194</ele>
        <time>2018-03-22T14:24:26Z</time>
      </trkpt>
      <trkpt lat="45.87209" lon="4.72468">
        <ele>194</ele>
        <time>2018-03-22T14:24:27Z</time>
      </trkpt>
      <trkpt lat="45.87206" lon="4.72465">
        <ele>194</ele>
        <time>2018-03-22T14:24:28Z</time>
      </trkpt>
      <trkpt lat="45.87202" lon="4.72459">
        <ele>194</ele>
        <time>2018-03-22T14:24:29Z</time>
      </trkpt>
      <trkpt lat="45.87198" lon="4.72449">
        <ele>194</ele>
        <time>2018-03-22T14:24:31Z</time>
      </trkpt>
      <trkpt lat="45.87195" lon="4.72444">
        <ele>194</ele>
        <time>2018-03-22T14:24:32Z</time>
      </trkpt>
      <trkpt lat="45.87189" lon="4.72436">
        <ele>194</ele>
        <time>2018-03-22T14:24:35Z</time>
      </trkpt>
      <trkpt lat="45.87187" lon="4.72433">
        <ele>194</ele>
        <time>2018-03-22T14:24:36Z</time>
      </trkpt>
      <trkpt lat="45.87182" lon="4.72424">
        <ele>194</ele>
        <time>2018-03-22T14:24:39Z</time>
      </trkpt>
      <trkpt lat="45.8718" lon="4.72421">
        <ele>194</ele>
        <time>2018-03-22T14:24:40Z</time>
      </trkpt>
      <trkpt lat="45.87174" lon="4.72412">
        <ele>193</ele>
        <time>2018-03-22T14:24:41Z</time>
      </trkpt>
      <trkpt lat="45.87171" lon="4.72408">
        <ele>192</ele>
        <time>2018-03-22T14:24:42Z</time>
      </trkpt>
      <trkpt lat="45.87169" lon="4.72403">
        <ele>192</ele>
        <time>2018-03-22T14:24:43Z</time>
      </trkpt>
      <trkpt lat="45.87167" lon="4.72396">
        <ele>196</ele>
        <time>2018-03-22T14:24:44Z</time>
      </trkpt>
      <trkpt lat="45.87164" lon="4.72391">
        <ele>197</ele>
        <time>2018-03-22T14:24:45Z</time>
      </trkpt>
      <trkpt lat="45.87161" lon="4.72385">
        <ele>197</ele>
        <time>2018-03-22T14:24:46Z</time>
      </trkpt>
      <trkpt lat="45.87159" lon="4.72378">
        <ele>197</ele>
        <time>2018-03-22T14:24:47Z</time>
      </trkpt>
      <trkpt lat="45.87156" lon="4.72372">
        <ele>197</ele>
        <time>2018-03-22T14:24:48Z</time>
      </trkpt>
      <trkpt lat="45.87154" lon="4.72365">
        <ele>197</ele>
        <time>2018-03-22T14:24:49Z</time>
      </trkpt>
      <trkpt lat="45.87151" lon="4.72359">
        <ele>196</ele>
        <time>2018-03-22T14:24:50Z</time>
      </trkpt>
      <trkpt lat="45.87148" lon="4.72352">
        <ele>196</ele>
        <time>2018-03-22T14:24:51Z</time>
      </trkpt>
      <trkpt lat="45.87146" lon="4.72347">
        <ele>196</ele>
        <time>2018-03-22T14:24:52Z</time>
      </trkpt>
      <trkpt lat="45.87142" lon="4.72341">
        <ele>196</ele>
        <time>2018-03-22T14:24:53Z</time>
      </trkpt>
      <trkpt lat="45.87141" lon="4.72336">
        <ele>196</ele>
        <time>2018-03-22T14:24:54Z</time>
      </trkpt>
      <trkpt lat="45.87138" lon="4.72329">
        <ele>195</ele>
        <time>2018-03-22T14:24:55Z</time>
      </trkpt>
      <trkpt lat="45.87135" lon="4.72323">
        <ele>195</ele>
        <time>2018-03-22T14:24:56Z</time>
      </trkpt>
      <trkpt lat="45.87133" lon="4.72316">
        <ele>196</ele>
        <time>2018-03-22T14:24:57Z</time>
      </trkpt>
      <trkpt lat="45.87129" lon="4.7231">
        <ele>196</ele>
        <time>2018-03-22T14:24:58Z</time>
      </trkpt>
      <trkpt lat="45.87127" lon="4.72304">
        <ele>196</ele>
        <time>2018-03-22T14:24:59Z</time>
      </trkpt>
      <trkpt lat="45.87123" lon="4.72297">
        <ele>196</ele>
        <time>2018-03-22T14:25:00Z</time>
      </trkpt>
      <trkpt lat="45.87119" lon="4.72291">
        <ele>196</ele>
        <time>2018-03-22T14:25:01Z</time>
      </trkpt>
      <trkpt lat="45.87115" lon="4.72285">
        <ele>197</ele>
        <time>2018-03-22T14:25:02Z</time>
      </trkpt>
      <trkpt lat="45.8711" lon="4.72279">
        <ele>197</ele>
        <time>2018-03-22T14:25:03Z</time>
      </trkpt>
      <trkpt lat="45.87106" lon="4.72274">
        <ele>197</ele>
        <time>2018-03-22T14:25:04Z</time>
      </trkpt>
      <trkpt lat="45.871" lon="4.72266">
        <ele>197</ele>
        <time>2018-03-22T14:25:06Z</time>
      </trkpt>
      <trkpt lat="45.87097" lon="4.72262">
        <ele>198</ele>
        <time>2018-03-22T14:25:07Z</time>
      </trkpt>
      <trkpt lat="45.87092" lon="4.72257">
        <ele>198</ele>
        <time>2018-03-22T14:25:08Z</time>
      </trkpt>
      <trkpt lat="45.87088" lon="4.72253">
        <ele>198</ele>
        <time>2018-03-22T14:25:09Z</time>
      </trkpt>
      <trkpt lat="45.87083" lon="4.72247">
        <ele>199</ele>
        <time>2018-03-22T14:25:10Z</time>
      </trkpt>
      <trkpt lat="45.87079" lon="4.72242">
        <ele>200</ele>
        <time>2018-03-22T14:25:11Z</time>
      </trkpt>
      <trkpt lat="45.87073" lon="4.72237">
        <ele>200</ele>
        <time>2018-03-22T14:25:12Z</time>
      </trkpt>
      <trkpt lat="45.87068" lon="4.72233">
        <ele>200</ele>
        <time>2018-03-22T14:25:13Z</time>
      </trkpt>
      <trkpt lat="45.87063" lon="4.72229">
        <ele>200</ele>
        <time>2018-03-22T14:25:14Z</time>
      </trkpt>
      <trkpt lat="45.87057" lon="4.72224">
        <ele>200</ele>
        <time>2018-03-22T14:25:15Z</time>
      </trkpt>
      <trkpt lat="45.87052" lon="4.7222">
        <ele>201</ele>
        <time>2018-03-22T14:25:16Z</time>
      </trkpt>
      <trkpt lat="45.87047" lon="4.72216">
        <ele>201</ele>
        <time>2018-03-22T14:25:17Z</time>
      </trkpt>
      <trkpt lat="45.87042" lon="4.72211">
        <ele>201</ele>
        <time>2018-03-22T14:25:18Z</time>
      </trkpt>
      <trkpt lat="45.87037" lon="4.72208">
        <ele>201</ele>
        <time>2018-03-22T14:25:19Z</time>
      </trkpt>
      <trkpt lat="45.87032" lon="4.72204">
        <ele>201</ele>
        <time>2018-03-22T14:25:20Z</time>
      </trkpt>
      <trkpt lat="45.87027" lon="4.722">
        <ele>201</ele>
        <time>2018-03-22T14:25:21Z</time>
      </trkpt>
      <trkpt lat="45.87021" lon="4.72196">
        <ele>201</ele>
        <time>2018-03-22T14:25:22Z</time>
      </trkpt>
      <trkpt lat="45.87016" lon="4.72193">
        <ele>201</ele>
        <time>2018-03-22T14:25:23Z</time>
      </trkpt>
      <trkpt lat="45.8701" lon="4.72189">
        <ele>201</ele>
        <time>2018-03-22T14:25:24Z</time>
      </trkpt>
      <trkpt lat="45.87004" lon="4.72185">
        <ele>201</ele>
        <time>2018-03-22T14:25:25Z</time>
      </trkpt>
      <trkpt lat="45.86998" lon="4.72182">
        <ele>206</ele>
        <time>2018-03-22T14:25:26Z</time>
      </trkpt>
      <trkpt lat="45.86991" lon="4.72178">
        <ele>206</ele>
        <time>2018-03-22T14:25:27Z</time>
      </trkpt>
      <trkpt lat="45.86986" lon="4.72174">
        <ele>207</ele>
        <time>2018-03-22T14:25:28Z</time>
      </trkpt>
      <trkpt lat="45.86979" lon="4.72171">
        <ele>208</ele>
        <time>2018-03-22T14:25:29Z</time>
      </trkpt>
      <trkpt lat="45.86975" lon="4.72167">
        <ele>208</ele>
        <time>2018-03-22T14:25:30Z</time>
      </trkpt>
      <trkpt lat="45.86968" lon="4.72163">
        <ele>201</ele>
        <time>2018-03-22T14:25:31Z</time>
      </trkpt>
      <trkpt lat="45.86962" lon="4.7216">
        <ele>201</ele>
        <time>2018-03-22T14:25:32Z</time>
      </trkpt>
      <trkpt lat="45.86957" lon="4.72155">
        <ele>202</ele>
        <time>2018-03-22T14:25:33Z</time>
      </trkpt>
      <trkpt lat="45.86951" lon="4.72152">
        <ele>202</ele>
        <time>2018-03-22T14:25:34Z</time>
      </trkpt>
      <trkpt lat="45.86945" lon="4.72148">
        <ele>202</ele>
        <time>2018-03-22T14:25:35Z</time>
      </trkpt>
      <trkpt lat="45.8694" lon="4.72145">
        <ele>202</ele>
        <time>2018-03-22T14:25:36Z</time>
      </trkpt>
      <trkpt lat="45.86934" lon="4.72141">
        <ele>202</ele>
        <time>2018-03-22T14:25:37Z</time>
      </trkpt>
      <trkpt lat="45.86929" lon="4.72139">
        <ele>202</ele>
        <time>2018-03-22T14:25:38Z</time>
      </trkpt>
      <trkpt lat="45.86923" lon="4.72137">
        <ele>202</ele>
        <time>2018-03-22T14:25:39Z</time>
      </trkpt>
      <trkpt lat="45.86918" lon="4.72134">
        <ele>202</ele>
        <time>2018-03-22T14:25:40Z</time>
      </trkpt>
      <trkpt lat="45.86913" lon="4.7213">
        <ele>203</ele>
        <time>2018-03-22T14:25:41Z</time>
      </trkpt>
      <trkpt lat="45.86905" lon="4.72127">
        <ele>203</ele>
        <time>2018-03-22T14:25:42Z</time>
      </trkpt>
      <trkpt lat="45.86899" lon="4.72125">
        <ele>202</ele>
        <time>2018-03-22T14:25:43Z</time>
      </trkpt>
      <trkpt lat="45.86893" lon="4.72123">
        <ele>202</ele>
        <time>2018-03-22T14:25:44Z</time>
      </trkpt>
      <trkpt lat="45.86887" lon="4.7212">
        <ele>202</ele>
        <time>2018-03-22T14:25:45Z</time>
      </trkpt>
      <trkpt lat="45.86881" lon="4.72117">
        <ele>202</ele>
        <time>2018-03-22T14:25:46Z</time>
      </trkpt>
      <trkpt lat="45.86875" lon="4.72115">
        <ele>201</ele>
        <time>2018-03-22T14:25:47Z</time>
      </trkpt>
      <trkpt lat="45.86869" lon="4.72112">
        <ele>201</ele>
        <time>2018-03-22T14:25:48Z</time>
      </trkpt>
      <trkpt lat="45.86864" lon="4.72109">
        <ele>201</ele>
        <time>2018-03-22T14:25:49Z</time>
      </trkpt>
      <trkpt lat="45.86857" lon="4.72106">
        <ele>200</ele>
        <time>2018-03-22T14:25:50Z</time>
      </trkpt>
      <trkpt lat="45.86851" lon="4.72104">
        <ele>200</ele>
        <time>2018-03-22T14:25:51Z</time>
      </trkpt>
      <trkpt lat="45.86845" lon="4.72101">
        <ele>199</ele>
        <time>2018-03-22T14:25:52Z</time>
      </trkpt>
      <trkpt lat="45.86838" lon="4.72099">
        <ele>198</ele>
        <time>2018-03-22T14:25:53Z</time>
      </trkpt>
      <trkpt lat="45.86831" lon="4.72096">
        <ele>198</ele>
        <time>2018-03-22T14:25:54Z</time>
      </trkpt>
      <trkpt lat="45.86825" lon="4.72094">
        <ele>198</ele>
        <time>2018-03-22T14:25:55Z</time>
      </trkpt>
      <trkpt lat="45.86819" lon="4.72092">
        <ele>199</ele>
        <time>2018-03-22T14:25:56Z</time>
      </trkpt>
      <trkpt lat="45.86814" lon="4.7209">
        <ele>200</ele>
        <time>2018-03-22T14:25:57Z</time>
      </trkpt>
      <trkpt lat="45.86807" lon="4.72087">
        <ele>200</ele>
        <time>2018-03-22T14:25:58Z</time>
      </trkpt>
      <trkpt lat="45.86802" lon="4.72085">
        <ele>201</ele>
        <time>2018-03-22T14:25:59Z</time>
      </trkpt>
      <trkpt lat="45.86795" lon="4.72082">
        <ele>194</ele>
        <time>2018-03-22T14:26:00Z</time>
      </trkpt>
      <trkpt lat="45.86788" lon="4.72077">
        <ele>194</ele>
        <time>2018-03-22T14:26:01Z</time>
      </trkpt>
      <trkpt lat="45.86782" lon="4.72075">
        <ele>194</ele>
        <time>2018-03-22T14:26:02Z</time>
      </trkpt>
      <trkpt lat="45.86775" lon="4.72072">
        <ele>195</ele>
        <time>2018-03-22T14:26:03Z</time>
      </trkpt>
      <trkpt lat="45.86769" lon="4.72068">
        <ele>195</ele>
        <time>2018-03-22T14:26:04Z</time>
      </trkpt>
      <trkpt lat="45.86762" lon="4.72064">
        <ele>195</ele>
        <time>2018-03-22T14:26:05Z</time>
      </trkpt>
      <trkpt lat="45.86756" lon="4.72061">
        <ele>195</ele>
        <time>2018-03-22T14:26:06Z</time>
      </trkpt>
      <trkpt lat="45.8675" lon="4.72059">
        <ele>195</ele>
        <time>2018-03-22T14:26:07Z</time>
      </trkpt>
      <trkpt lat="45.86744" lon="4.72057">
        <ele>197</ele>
        <time>2018-03-22T14:26:08Z</time>
      </trkpt>
      <trkpt lat="45.86738" lon="4.72054">
        <ele>197</ele>
        <time>2018-03-22T14:26:09Z</time>
      </trkpt>
      <trkpt lat="45.86733" lon="4.72052">
        <ele>197</ele>
        <time>2018-03-22T14:26:10Z</time>
      </trkpt>
      <trkpt lat="45.86728" lon="4.72048">
        <ele>197</ele>
        <time>2018-03-22T14:26:11Z</time>
      </trkpt>
      <trkpt lat="45.86722" lon="4.72045">
        <ele>197</ele>
        <time>2018-03-22T14:26:12Z</time>
      </trkpt>
      <trkpt lat="45.86717" lon="4.72041">
        <ele>197</ele>
        <time>2018-03-22T14:26:13Z</time>
      </trkpt>
      <trkpt lat="45.86711" lon="4.72037">
        <ele>197</ele>
        <time>2018-03-22T14:26:14Z</time>
      </trkpt>
      <trkpt lat="45.86705" lon="4.72034">
        <ele>197</ele>
        <time>2018-03-22T14:26:15Z</time>
      </trkpt>
      <trkpt lat="45.86699" lon="4.7203">
        <ele>197</ele>
        <time>2018-03-22T14:26:16Z</time>
      </trkpt>
      <trkpt lat="45.86693" lon="4.72026">
        <ele>197</ele>
        <time>2018-03-22T14:26:17Z</time>
      </trkpt>
      <trkpt lat="45.86688" lon="4.72022">
        <ele>197</ele>
        <time>2018-03-22T14:26:18Z</time>
      </trkpt>
      <trkpt lat="45.86683" lon="4.72017">
        <ele>196</ele>
        <time>2018-03-22T14:26:19Z</time>
      </trkpt>
      <trkpt lat="45.86677" lon="4.72013">
        <ele>196</ele>
        <time>2018-03-22T14:26:20Z</time>
      </trkpt>
      <trkpt lat="45.86673" lon="4.72009">
        <ele>196</ele>
        <time>2018-03-22T14:26:21Z</time>
      </trkpt>
      <trkpt lat="45.86667" lon="4.72004">
        <ele>195</ele>
        <time>2018-03-22T14:26:22Z</time>
      </trkpt>
      <trkpt lat="45.86661" lon="4.72">
        <ele>195</ele>
        <time>2018-03-22T14:26:23Z</time>
      </trkpt>
      <trkpt lat="45.86654" lon="4.71995">
        <ele>195</ele>
        <time>2018-03-22T14:26:24Z</time>
      </trkpt>
      <trkpt lat="45.86649" lon="4.71991">
        <ele>195</ele>
        <time>2018-03-22T14:26:25Z</time>
      </trkpt>
      <trkpt lat="45.86644" lon="4.71987">
        <ele>195</ele>
        <time>2018-03-22T14:26:26Z</time>
      </trkpt>
      <trkpt lat="45.8664" lon="4.71983">
        <ele>195</ele>
        <time>2018-03-22T14:26:27Z</time>
      </trkpt>
      <trkpt lat="45.86635" lon="4.7198">
        <ele>195</ele>
        <time>2018-03-22T14:26:28Z</time>
      </trkpt>
      <trkpt lat="45.86631" lon="4.71977">
        <ele>195</ele>
        <time>2018-03-22T14:26:29Z</time>
      </trkpt>
      <trkpt lat="45.86627" lon="4.71973">
        <ele>195</ele>
        <time>2018-03-22T14:26:30Z</time>
      </trkpt>
      <trkpt lat="45.86623" lon="4.71969">
        <ele>195</ele>
        <time>2018-03-22T14:26:31Z</time>
      </trkpt>
      <trkpt lat="45.86618" lon="4.71965">
        <ele>195</ele>
        <time>2018-03-22T14:26:32Z</time>
      </trkpt>
      <trkpt lat="45.86613" lon="4.71962">
        <ele>195</ele>
        <time>2018-03-22T14:26:33Z</time>
      </trkpt>
      <trkpt lat="45.86608" lon="4.71956">
        <ele>194</ele>
        <time>2018-03-22T14:26:34Z</time>
      </trkpt>
      <trkpt lat="45.86604" lon="4.71953">
        <ele>194</ele>
        <time>2018-03-22T14:26:35Z</time>
      </trkpt>
      <trkpt lat="45.86599" lon="4.7195">
        <ele>194</ele>
        <time>2018-03-22T14:26:36Z</time>
      </trkpt>
      <trkpt lat="45.86594" lon="4.71946">
        <ele>194</ele>
        <time>2018-03-22T14:26:37Z</time>
      </trkpt>
      <trkpt lat="45.8659" lon="4.71942">
        <ele>194</ele>
        <time>2018-03-22T14:26:38Z</time>
      </trkpt>
      <trkpt lat="45.86585" lon="4.71938">
        <ele>194</ele>
        <time>2018-03-22T14:26:39Z</time>
      </trkpt>
      <trkpt lat="45.86581" lon="4.71935">
        <ele>195</ele>
        <time>2018-03-22T14:26:40Z</time>
      </trkpt>
      <trkpt lat="45.86576" lon="4.71932">
        <ele>195</ele>
        <time>2018-03-22T14:26:41Z</time>
      </trkpt>
      <trkpt lat="45.86571" lon="4.71927">
        <ele>195</ele>
        <time>2018-03-22T14:26:42Z</time>
      </trkpt>
      <trkpt lat="45.86566" lon="4.71922">
        <ele>195</ele>
        <time>2018-03-22T14:26:43Z</time>
      </trkpt>
      <trkpt lat="45.86561" lon="4.71918">
        <ele>196</ele>
        <time>2018-03-22T14:26:44Z</time>
      </trkpt>
      <trkpt lat="45.86556" lon="4.71914">
        <ele>195</ele>
        <time>2018-03-22T14:26:45Z</time>
      </trkpt>
      <trkpt lat="45.86551" lon="4.7191">
        <ele>195</ele>
        <time>2018-03-22T14:26:46Z</time>
      </trkpt>
      <trkpt lat="45.86547" lon="4.71906">
        <ele>195</ele>
        <time>2018-03-22T14:26:47Z</time>
      </trkpt>
      <trkpt lat="45.86542" lon="4.71903">
        <ele>195</ele>
        <time>2018-03-22T14:26:48Z</time>
      </trkpt>
      <trkpt lat="45.86539" lon="4.719">
        <ele>195</ele>
        <time>2018-03-22T14:26:49Z</time>
      </trkpt>
      <trkpt lat="45.86534" lon="4.71897">
        <ele>195</ele>
        <time>2018-03-22T14:26:50Z</time>
      </trkpt>
      <trkpt lat="45.86529" lon="4.71893">
        <ele>195</ele>
        <time>2018-03-22T14:26:51Z</time>
      </trkpt>
      <trkpt lat="45.86524" lon="4.71889">
        <ele>195</ele>
        <time>2018-03-22T14:26:52Z</time>
      </trkpt>
      <trkpt lat="45.86519" lon="4.71884">
        <ele>195</ele>
        <time>2018-03-22T14:26:53Z</time>
      </trkpt>
      <trkpt lat="45.86514" lon="4.71879">
        <ele>195</ele>
        <time>2018-03-22T14:26:54Z</time>
      </trkpt>
      <trkpt lat="45.86509" lon="4.71875">
        <ele>195</ele>
        <time>2018-03-22T14:26:55Z</time>
      </trkpt>
      <trkpt lat="45.86505" lon="4.71872">
        <ele>195</ele>
        <time>2018-03-22T14:26:56Z</time>
      </trkpt>
      <trkpt lat="45.865" lon="4.71868">
        <ele>198</ele>
        <time>2018-03-22T14:26:57Z</time>
      </trkpt>
      <trkpt lat="45.86495" lon="4.71864">
        <ele>198</ele>
        <time>2018-03-22T14:26:58Z</time>
      </trkpt>
      <trkpt lat="45.8649" lon="4.7186">
        <ele>198</ele>
        <time>2018-03-22T14:26:59Z</time>
      </trkpt>
      <trkpt lat="45.86485" lon="4.71856">
        <ele>198</ele>
        <time>2018-03-22T14:27:00Z</time>
      </trkpt>
      <trkpt lat="45.8648" lon="4.71853">
        <ele>198</ele>
        <time>2018-03-22T14:27:01Z</time>
      </trkpt>
      <trkpt lat="45.86476" lon="4.71849">
        <ele>198</ele>
        <time>2018-03-22T14:27:02Z</time>
      </trkpt>
      <trkpt lat="45.86471" lon="4.71845">
        <ele>199</ele>
        <time>2018-03-22T14:27:03Z</time>
      </trkpt>
      <trkpt lat="45.86467" lon="4.71842">
        <ele>199</ele>
        <time>2018-03-22T14:27:04Z</time>
      </trkpt>
      <trkpt lat="45.86462" lon="4.71838">
        <ele>199</ele>
        <time>2018-03-22T14:27:05Z</time>
      </trkpt>
      <trkpt lat="45.86457" lon="4.71835">
        <ele>200</ele>
        <time>2018-03-22T14:27:06Z</time>
      </trkpt>
      <trkpt lat="45.86452" lon="4.7183">
        <ele>197</ele>
        <time>2018-03-22T14:27:07Z</time>
      </trkpt>
      <trkpt lat="45.86447" lon="4.71826">
        <ele>197</ele>
        <time>2018-03-22T14:27:08Z</time>
      </trkpt>
      <trkpt lat="45.86442" lon="4.71821">
        <ele>197</ele>
        <time>2018-03-22T14:27:09Z</time>
      </trkpt>
      <trkpt lat="45.86438" lon="4.71818">
        <ele>198</ele>
        <time>2018-03-22T14:27:10Z</time>
      </trkpt>
      <trkpt lat="45.86434" lon="4.71814">
        <ele>198</ele>
        <time>2018-03-22T14:27:11Z</time>
      </trkpt>
      <trkpt lat="45.8643" lon="4.7181">
        <ele>197</ele>
        <time>2018-03-22T14:27:12Z</time>
      </trkpt>
      <trkpt lat="45.86424" lon="4.71806">
        <ele>197</ele>
        <time>2018-03-22T14:27:13Z</time>
      </trkpt>
      <trkpt lat="45.8642" lon="4.71803">
        <ele>197</ele>
        <time>2018-03-22T14:27:14Z</time>
      </trkpt>
      <trkpt lat="45.86416" lon="4.71799">
        <ele>199</ele>
        <time>2018-03-22T14:27:15Z</time>
      </trkpt>
      <trkpt lat="45.86411" lon="4.71796">
        <ele>199</ele>
        <time>2018-03-22T14:27:16Z</time>
      </trkpt>
      <trkpt lat="45.86406" lon="4.71792">
        <ele>199</ele>
        <time>2018-03-22T14:27:17Z</time>
      </trkpt>
      <trkpt lat="45.86401" lon="4.71789">
        <ele>198</ele>
        <time>2018-03-22T14:27:18Z</time>
      </trkpt>
      <trkpt lat="45.86396" lon="4.71786">
        <ele>198</ele>
        <time>2018-03-22T14:27:19Z</time>
      </trkpt>
      <trkpt lat="45.86392" lon="4.71782">
        <ele>198</ele>
        <time>2018-03-22T14:27:20Z</time>
      </trkpt>
      <trkpt lat="45.86387" lon="4.71776">
        <ele>198</ele>
        <time>2018-03-22T14:27:21Z</time>
      </trkpt>
      <trkpt lat="45.86382" lon="4.71772">
        <ele>198</ele>
        <time>2018-03-22T14:27:22Z</time>
      </trkpt>
      <trkpt lat="45.86376" lon="4.71769">
        <ele>198</ele>
        <time>2018-03-22T14:27:23Z</time>
      </trkpt>
      <trkpt lat="45.86371" lon="4.71764">
        <ele>198</ele>
        <time>2018-03-22T14:27:24Z</time>
      </trkpt>
      <trkpt lat="45.86366" lon="4.7176">
        <ele>198</ele>
        <time>2018-03-22T14:27:25Z</time>
      </trkpt>
      <trkpt lat="45.86361" lon="4.71756">
        <ele>198</ele>
        <time>2018-03-22T14:27:26Z</time>
      </trkpt>
      <trkpt lat="45.86355" lon="4.71753">
        <ele>197</ele>
        <time>2018-03-22T14:27:27Z</time>
      </trkpt>
      <trkpt lat="45.8635" lon="4.71749">
        <ele>195</ele>
        <time>2018-03-22T14:27:28Z</time>
      </trkpt>
      <trkpt lat="45.86345" lon="4.71745">
        <ele>195</ele>
        <time>2018-03-22T14:27:29Z</time>
      </trkpt>
      <trkpt lat="45.8634" lon="4.71741">
        <ele>195</ele>
        <time>2018-03-22T14:27:30Z</time>
      </trkpt>
      <trkpt lat="45.86335" lon="4.71737">
        <ele>195</ele>
        <time>2018-03-22T14:27:31Z</time>
      </trkpt>
      <trkpt lat="45.8633" lon="4.71733">
        <ele>196</ele>
        <time>2018-03-22T14:27:32Z</time>
      </trkpt>
      <trkpt lat="45.86324" lon="4.7173">
        <ele>196</ele>
        <time>2018-03-22T14:27:33Z</time>
      </trkpt>
      <trkpt lat="45.86319" lon="4.71726">
        <ele>196</ele>
        <time>2018-03-22T14:27:34Z</time>
      </trkpt>
      <trkpt lat="45.86314" lon="4.71723">
        <ele>196</ele>
        <time>2018-03-22T14:27:35Z</time>
      </trkpt>
      <trkpt lat="45.86309" lon="4.71718">
        <ele>196</ele>
        <time>2018-03-22T14:27:36Z</time>
      </trkpt>
      <trkpt lat="45.86305" lon="4.71715">
        <ele>196</ele>
        <time>2018-03-22T14:27:37Z</time>
      </trkpt>
      <trkpt lat="45.863" lon="4.71711">
        <ele>195</ele>
        <time>2018-03-22T14:27:38Z</time>
      </trkpt>
      <trkpt lat="45.86295" lon="4.71707">
        <ele>195</ele>
        <time>2018-03-22T14:27:39Z</time>
      </trkpt>
      <trkpt lat="45.8629" lon="4.71703">
        <ele>195</ele>
        <time>2018-03-22T14:27:40Z</time>
      </trkpt>
      <trkpt lat="45.86285" lon="4.71698">
        <ele>195</ele>
        <time>2018-03-22T14:27:41Z</time>
      </trkpt>
      <trkpt lat="45.8628" lon="4.71694">
        <ele>195</ele>
        <time>2018-03-22T14:27:42Z</time>
      </trkpt>
      <trkpt lat="45.86277" lon="4.71691">
        <ele>195</ele>
        <time>2018-03-22T14:27:43Z</time>
      </trkpt>
      <trkpt lat="45.86271" lon="4.71687">
        <ele>195</ele>
        <time>2018-03-22T14:27:44Z</time>
      </trkpt>
      <trkpt lat="45.86267" lon="4.71684">
        <ele>195</ele>
        <time>2018-03-22T14:27:45Z</time>
      </trkpt>
      <trkpt lat="45.86262" lon="4.7168">
        <ele>195</ele>
        <time>2018-03-22T14:27:46Z</time>
      </trkpt>
      <trkpt lat="45.86257" lon="4.71677">
        <ele>195</ele>
        <time>2018-03-22T14:27:47Z</time>
      </trkpt>
      <trkpt lat="45.86252" lon="4.71674">
        <ele>195</ele>
        <time>2018-03-22T14:27:48Z</time>
      </trkpt>
      <trkpt lat="45.86248" lon="4.71671">
        <ele>195</ele>
        <time>2018-03-22T14:27:49Z</time>
      </trkpt>
      <trkpt lat="45.86244" lon="4.71667">
        <ele>195</ele>
        <time>2018-03-22T14:27:50Z</time>
      </trkpt>
      <trkpt lat="45.8624" lon="4.71664">
        <ele>195</ele>
        <time>2018-03-22T14:27:51Z</time>
      </trkpt>
      <trkpt lat="45.86232" lon="4.71659">
        <ele>195</ele>
        <time>2018-03-22T14:27:53Z</time>
      </trkpt>
      <trkpt lat="45.86228" lon="4.71657">
        <ele>195</ele>
        <time>2018-03-22T14:27:54Z</time>
      </trkpt>
      <trkpt lat="45.86221" lon="4.71649">
        <ele>195</ele>
        <time>2018-03-22T14:27:56Z</time>
      </trkpt>
      <trkpt lat="45.86218" lon="4.71644">
        <ele>195</ele>
        <time>2018-03-22T14:27:57Z</time>
      </trkpt>
      <trkpt lat="45.86215" lon="4.71638">
        <ele>195</ele>
        <time>2018-03-22T14:27:58Z</time>
      </trkpt>
      <trkpt lat="45.86214" lon="4.71632">
        <ele>195</ele>
        <time>2018-03-22T14:27:59Z</time>
      </trkpt>
      <trkpt lat="45.86212" lon="4.71625">
        <ele>195</ele>
        <time>2018-03-22T14:28:00Z</time>
      </trkpt>
      <trkpt lat="45.8621" lon="4.71618">
        <ele>195</ele>
        <time>2018-03-22T14:28:01Z</time>
      </trkpt>
      <trkpt lat="45.86205" lon="4.71607">
        <ele>195</ele>
        <time>2018-03-22T14:28:03Z</time>
      </trkpt>
      <trkpt lat="45.86201" lon="4.71601">
        <ele>195</ele>
        <time>2018-03-22T14:28:04Z</time>
      </trkpt>
      <trkpt lat="45.86197" lon="4.71597">
        <ele>195</ele>
        <time>2018-03-22T14:28:05Z</time>
      </trkpt>
      <trkpt lat="45.86193" lon="4.71591">
        <ele>195</ele>
        <time>2018-03-22T14:28:06Z</time>
      </trkpt>
      <trkpt lat="45.8619" lon="4.71586">
        <ele>195</ele>
        <time>2018-03-22T14:28:07Z</time>
      </trkpt>
      <trkpt lat="45.86186" lon="4.71581">
        <ele>195</ele>
        <time>2018-03-22T14:28:08Z</time>
      </trkpt>
      <trkpt lat="45.86183" lon="4.71576">
        <ele>195</ele>
        <time>2018-03-22T14:28:09Z</time>
      </trkpt>
      <trkpt lat="45.86179" lon="4.71571">
        <ele>195</ele>
        <time>2018-03-22T14:28:10Z</time>
      </trkpt>
      <trkpt lat="45.86176" lon="4.71566">
        <ele>195</ele>
        <time>2018-03-22T14:28:11Z</time>
      </trkpt>
      <trkpt lat="45.86174" lon="4.7156">
        <ele>195</ele>
        <time>2018-03-22T14:28:12Z</time>
      </trkpt>
      <trkpt lat="45.86169" lon="4.7155">
        <ele>195</ele>
        <time>2018-03-22T14:28:14Z</time>
      </trkpt>
      <trkpt lat="45.86167" lon="4.71545">
        <ele>195</ele>
        <time>2018-03-22T14:28:15Z</time>
      </trkpt>
      <trkpt lat="45.86161" lon="4.71536">
        <ele>195</ele>
        <time>2018-03-22T14:28:17Z</time>
      </trkpt>
      <trkpt lat="45.86159" lon="4.71531">
        <ele>195</ele>
        <time>2018-03-22T14:28:18Z</time>
      </trkpt>
      <trkpt lat="45.86156" lon="4.71525">
        <ele>195</ele>
        <time>2018-03-22T14:28:19Z</time>
      </trkpt>
      <trkpt lat="45.86153" lon="4.71519">
        <ele>195</ele>
        <time>2018-03-22T14:28:20Z</time>
      </trkpt>
      <trkpt lat="45.86151" lon="4.71514">
        <ele>195</ele>
        <time>2018-03-22T14:28:21Z</time>
      </trkpt>
      <trkpt lat="45.86148" lon="4.71509">
        <ele>195</ele>
        <time>2018-03-22T14:28:22Z</time>
      </trkpt>
      <trkpt lat="45.86145" lon="4.71503">
        <ele>195</ele>
        <time>2018-03-22T14:28:23Z</time>
      </trkpt>
      <trkpt lat="45.86142" lon="4.71497">
        <ele>195</ele>
        <time>2018-03-22T14:28:24Z</time>
      </trkpt>
      <trkpt lat="45.8614" lon="4.71492">
        <ele>195</ele>
        <time>2018-03-22T14:28:25Z</time>
      </trkpt>
      <trkpt lat="45.86137" lon="4.71486">
        <ele>195</ele>
        <time>2018-03-22T14:28:26Z</time>
      </trkpt>
      <trkpt lat="45.86136" lon="4.7148">
        <ele>195</ele>
        <time>2018-03-22T14:28:27Z</time>
      </trkpt>
      <trkpt lat="45.86133" lon="4.71474">
        <ele>195</ele>
        <time>2018-03-22T14:28:28Z</time>
      </trkpt>
      <trkpt lat="45.86129" lon="4.71464">
        <ele>195</ele>
        <time>2018-03-22T14:28:30Z</time>
      </trkpt>
      <trkpt lat="45.86127" lon="4.71457">
        <ele>195</ele>
        <time>2018-03-22T14:28:31Z</time>
      </trkpt>
      <trkpt lat="45.86126" lon="4.7145">
        <ele>195</ele>
        <time>2018-03-22T14:28:32Z</time>
      </trkpt>
      <trkpt lat="45.86124" lon="4.71444">
        <ele>195</ele>
        <time>2018-03-22T14:28:33Z</time>
      </trkpt>
      <trkpt lat="45.86123" lon="4.71436">
        <ele>195</ele>
        <time>2018-03-22T14:28:34Z</time>
      </trkpt>
      <trkpt lat="45.8612" lon="4.71429">
        <ele>195</ele>
        <time>2018-03-22T14:28:35Z</time>
      </trkpt>
      <trkpt lat="45.86119" lon="4.71423">
        <ele>195</ele>
        <time>2018-03-22T14:28:36Z</time>
      </trkpt>
      <trkpt lat="45.86118" lon="4.71415">
        <ele>196</ele>
        <time>2018-03-22T14:28:37Z</time>
      </trkpt>
      <trkpt lat="45.86117" lon="4.71408">
        <ele>196</ele>
        <time>2018-03-22T14:28:38Z</time>
      </trkpt>
      <trkpt lat="45.86116" lon="4.71401">
        <ele>196</ele>
        <time>2018-03-22T14:28:39Z</time>
      </trkpt>
      <trkpt lat="45.86115" lon="4.71394">
        <ele>196</ele>
        <time>2018-03-22T14:28:40Z</time>
      </trkpt>
      <trkpt lat="45.86115" lon="4.71387">
        <ele>196</ele>
        <time>2018-03-22T14:28:41Z</time>
      </trkpt>
      <trkpt lat="45.86115" lon="4.7138">
        <ele>196</ele>
        <time>2018-03-22T14:28:42Z</time>
      </trkpt>
      <trkpt lat="45.86115" lon="4.71373">
        <ele>196</ele>
        <time>2018-03-22T14:28:43Z</time>
      </trkpt>
      <trkpt lat="45.86115" lon="4.71366">
        <ele>196</ele>
        <time>2018-03-22T14:28:44Z</time>
      </trkpt>
      <trkpt lat="45.86113" lon="4.7136">
        <ele>196</ele>
        <time>2018-03-22T14:28:45Z</time>
      </trkpt>
      <trkpt lat="45.86111" lon="4.71353">
        <ele>196</ele>
        <time>2018-03-22T14:28:46Z</time>
      </trkpt>
      <trkpt lat="45.86111" lon="4.71347">
        <ele>196</ele>
        <time>2018-03-22T14:28:47Z</time>
      </trkpt>
      <trkpt lat="45.8611" lon="4.7134">
        <ele>196</ele>
        <time>2018-03-22T14:28:48Z</time>
      </trkpt>
      <trkpt lat="45.86109" lon="4.71334">
        <ele>196</ele>
        <time>2018-03-22T14:28:49Z</time>
      </trkpt>
      <trkpt lat="45.86108" lon="4.71326">
        <ele>196</ele>
        <time>2018-03-22T14:28:50Z</time>
      </trkpt>
      <trkpt lat="45.86106" lon="4.71318">
        <ele>196</ele>
        <time>2018-03-22T14:28:51Z</time>
      </trkpt>
      <trkpt lat="45.86104" lon="4.71312">
        <ele>197</ele>
        <time>2018-03-22T14:28:52Z</time>
      </trkpt>
      <trkpt lat="45.86103" lon="4.71305">
        <ele>197</ele>
        <time>2018-03-22T14:28:53Z</time>
      </trkpt>
      <trkpt lat="45.861" lon="4.71293">
        <ele>197</ele>
        <time>2018-03-22T14:28:55Z</time>
      </trkpt>
      <trkpt lat="45.86099" lon="4.71287">
        <ele>197</ele>
        <time>2018-03-22T14:28:56Z</time>
      </trkpt>
      <trkpt lat="45.86096" lon="4.71276">
        <ele>197</ele>
        <time>2018-03-22T14:28:58Z</time>
      </trkpt>
      <trkpt lat="45.86094" lon="4.71271">
        <ele>197</ele>
        <time>2018-03-22T14:28:59Z</time>
      </trkpt>
      <trkpt lat="45.86089" lon="4.71262">
        <ele>197</ele>
        <time>2018-03-22T14:29:01Z</time>
      </trkpt>
      <trkpt lat="45.86088" lon="4.7126">
        <ele>197</ele>
        <time>2018-03-22T14:29:02Z</time>
      </trkpt>
      <trkpt lat="45.86086" lon="4.71248">
        <ele>198</ele>
        <time>2018-03-22T14:29:04Z</time>
      </trkpt>
      <trkpt lat="45.86085" lon="4.71243">
        <ele>198</ele>
        <time>2018-03-22T14:29:05Z</time>
      </trkpt>
      <trkpt lat="45.86084" lon="4.71236">
        <ele>197</ele>
        <time>2018-03-22T14:29:06Z</time>
      </trkpt>
      <trkpt lat="45.86085" lon="4.71229">
        <ele>197</ele>
        <time>2018-03-22T14:29:07Z</time>
      </trkpt>
      <trkpt lat="45.86087" lon="4.71216">
        <ele>197</ele>
        <time>2018-03-22T14:29:09Z</time>
      </trkpt>
      <trkpt lat="45.86088" lon="4.7121">
        <ele>197</ele>
        <time>2018-03-22T14:29:10Z</time>
      </trkpt>
      <trkpt lat="45.86089" lon="4.71203">
        <ele>197</ele>
        <time>2018-03-22T14:29:11Z</time>
      </trkpt>
      <trkpt lat="45.8609" lon="4.71197">
        <ele>197</ele>
        <time>2018-03-22T14:29:12Z</time>
      </trkpt>
      <trkpt lat="45.86091" lon="4.71185">
        <ele>197</ele>
        <time>2018-03-22T14:29:14Z</time>
      </trkpt>
      <trkpt lat="45.86091" lon="4.7118">
        <ele>197</ele>
        <time>2018-03-22T14:29:15Z</time>
      </trkpt>
      <trkpt lat="45.86092" lon="4.71173">
        <ele>197</ele>
        <time>2018-03-22T14:29:16Z</time>
      </trkpt>
      <trkpt lat="45.86093" lon="4.71166">
        <ele>197</ele>
        <time>2018-03-22T14:29:17Z</time>
      </trkpt>
      <trkpt lat="45.86091" lon="4.71154">
        <ele>197</ele>
        <time>2018-03-22T14:29:19Z</time>
      </trkpt>
      <trkpt lat="45.86091" lon="4.71148">
        <ele>197</ele>
        <time>2018-03-22T14:29:20Z</time>
      </trkpt>
      <trkpt lat="45.86085" lon="4.71138">
        <ele>197</ele>
        <time>2018-03-22T14:29:22Z</time>
      </trkpt>
      <trkpt lat="45.86082" lon="4.71137">
        <ele>197</ele>
        <time>2018-03-22T14:29:23Z</time>
      </trkpt>
      <trkpt lat="45.86076" lon="4.7113">
        <ele>197</ele>
        <time>2018-03-22T14:29:25Z</time>
      </trkpt>
      <trkpt lat="45.86071" lon="4.71125">
        <ele>197</ele>
        <time>2018-03-22T14:29:26Z</time>
      </trkpt>
      <trkpt lat="45.86066" lon="4.71121">
        <ele>197</ele>
        <time>2018-03-22T14:29:27Z</time>
      </trkpt>
      <trkpt lat="45.86062" lon="4.71117">
        <ele>197</ele>
        <time>2018-03-22T14:29:28Z</time>
      </trkpt>
      <trkpt lat="45.86056" lon="4.71108">
        <ele>197</ele>
        <time>2018-03-22T14:29:30Z</time>
      </trkpt>
      <trkpt lat="45.86053" lon="4.71103">
        <ele>197</ele>
        <time>2018-03-22T14:29:31Z</time>
      </trkpt>
      <trkpt lat="45.86049" lon="4.71097">
        <ele>197</ele>
        <time>2018-03-22T14:29:32Z</time>
      </trkpt>
      <trkpt lat="45.86046" lon="4.71092">
        <ele>197</ele>
        <time>2018-03-22T14:29:33Z</time>
      </trkpt>
      <trkpt lat="45.86044" lon="4.71086">
        <ele>197</ele>
        <time>2018-03-22T14:29:34Z</time>
      </trkpt>
      <trkpt lat="45.86042" lon="4.71079">
        <ele>197</ele>
        <time>2018-03-22T14:29:35Z</time>
      </trkpt>
      <trkpt lat="45.8604" lon="4.71072">
        <ele>197</ele>
        <time>2018-03-22T14:29:36Z</time>
      </trkpt>
      <trkpt lat="45.8604" lon="4.71065">
        <ele>197</ele>
        <time>2018-03-22T14:29:37Z</time>
      </trkpt>
      <trkpt lat="45.86039" lon="4.71056">
        <ele>197</ele>
        <time>2018-03-22T14:29:38Z</time>
      </trkpt>
      <trkpt lat="45.86038" lon="4.71049">
        <ele>197</ele>
        <time>2018-03-22T14:29:39Z</time>
      </trkpt>
      <trkpt lat="45.86036" lon="4.71042">
        <ele>197</ele>
        <time>2018-03-22T14:29:40Z</time>
      </trkpt>
      <trkpt lat="45.86034" lon="4.71035">
        <ele>197</ele>
        <time>2018-03-22T14:29:41Z</time>
      </trkpt>
      <trkpt lat="45.86033" lon="4.71028">
        <ele>197</ele>
        <time>2018-03-22T14:29:42Z</time>
      </trkpt>
      <trkpt lat="45.8603" lon="4.71022">
        <ele>197</ele>
        <time>2018-03-22T14:29:43Z</time>
      </trkpt>
      <trkpt lat="45.86027" lon="4.71017">
        <ele>197</ele>
        <time>2018-03-22T14:29:44Z</time>
      </trkpt>
      <trkpt lat="45.86024" lon="4.71011">
        <ele>197</ele>
        <time>2018-03-22T14:29:45Z</time>
      </trkpt>
      <trkpt lat="45.86021" lon="4.71007">
        <ele>197</ele>
        <time>2018-03-22T14:29:46Z</time>
      </trkpt>
      <trkpt lat="45.86018" lon="4.71002">
        <ele>197</ele>
        <time>2018-03-22T14:29:47Z</time>
      </trkpt>
      <trkpt lat="45.86011" lon="4.70994">
        <ele>197</ele>
        <time>2018-03-22T14:29:49Z</time>
      </trkpt>
      <trkpt lat="45.86006" lon="4.7099">
        <ele>197</ele>
        <time>2018-03-22T14:29:50Z</time>
      </trkpt>
      <trkpt lat="45.86002" lon="4.70986">
        <ele>197</ele>
        <time>2018-03-22T14:29:51Z</time>
      </trkpt>
      <trkpt lat="45.85998" lon="4.70983">
        <ele>197</ele>
        <time>2018-03-22T14:29:52Z</time>
      </trkpt>
      <trkpt lat="45.85993" lon="4.7098">
        <ele>197</ele>
        <time>2018-03-22T14:29:53Z</time>
      </trkpt>
      <trkpt lat="45.85989" lon="4.70977">
        <ele>197</ele>
        <time>2018-03-22T14:29:54Z</time>
      </trkpt>
      <trkpt lat="45.85983" lon="4.70975">
        <ele>197</ele>
        <time>2018-03-22T14:29:55Z</time>
      </trkpt>
      <trkpt lat="45.85978" lon="4.70972">
        <ele>197</ele>
        <time>2018-03-22T14:29:56Z</time>
      </trkpt>
      <trkpt lat="45.85973" lon="4.70971">
        <ele>197</ele>
        <time>2018-03-22T14:29:57Z</time>
      </trkpt>
      <trkpt lat="45.85968" lon="4.70969">
        <ele>197</ele>
        <time>2018-03-22T14:29:58Z</time>
      </trkpt>
      <trkpt lat="45.85963" lon="4.70969">
        <ele>197</ele>
        <time>2018-03-22T14:29:59Z</time>
      </trkpt>
      <trkpt lat="45.85957" lon="4.70969">
        <ele>197</ele>
        <time>2018-03-22T14:30:00Z</time>
      </trkpt>
      <trkpt lat="45.85952" lon="4.70969">
        <ele>197</ele>
        <time>2018-03-22T14:30:01Z</time>
      </trkpt>
      <trkpt lat="45.85947" lon="4.70969">
        <ele>197</ele>
        <time>2018-03-22T14:30:02Z</time>
      </trkpt>
      <trkpt lat="45.8594" lon="4.70962">
        <ele>197</ele>
        <time>2018-03-22T14:30:04Z</time>
      </trkpt>
      <trkpt lat="45.85939" lon="4.70955">
        <ele>197</ele>
        <time>2018-03-22T14:30:05Z</time>
      </trkpt>
      <trkpt lat="45.8594" lon="4.70949">
        <ele>197</ele>
        <time>2018-03-22T14:30:06Z</time>
      </trkpt>
      <trkpt lat="45.85942" lon="4.70942">
        <ele>197</ele>
        <time>2018-03-22T14:30:07Z</time>
      </trkpt>
      <trkpt lat="45.85944" lon="4.70936">
        <ele>197</ele>
        <time>2018-03-22T14:30:08Z</time>
      </trkpt>
      <trkpt lat="45.85947" lon="4.7093">
        <ele>197</ele>
        <time>2018-03-22T14:30:09Z</time>
      </trkpt>
      <trkpt lat="45.85949" lon="4.70922">
        <ele>197</ele>
        <time>2018-03-22T14:30:10Z</time>
      </trkpt>
      <trkpt lat="45.8595" lon="4.70915">
        <ele>197</ele>
        <time>2018-03-22T14:30:11Z</time>
      </trkpt>
      <trkpt lat="45.85952" lon="4.70908">
        <ele>197</ele>
        <time>2018-03-22T14:30:12Z</time>
      </trkpt>
      <trkpt lat="45.85954" lon="4.709">
        <ele>197</ele>
        <time>2018-03-22T14:30:13Z</time>
      </trkpt>
      <trkpt lat="45.85956" lon="4.70893">
        <ele>197</ele>
        <time>2018-03-22T14:30:14Z</time>
      </trkpt>
      <trkpt lat="45.85957" lon="4.70885">
        <ele>197</ele>
        <time>2018-03-22T14:30:15Z</time>
      </trkpt>
      <trkpt lat="45.85958" lon="4.70878">
        <ele>197</ele>
        <time>2018-03-22T14:30:16Z</time>
      </trkpt>
      <trkpt lat="45.8596" lon="4.70869">
        <ele>196</ele>
        <time>2018-03-22T14:30:17Z</time>
      </trkpt>
      <trkpt lat="45.85961" lon="4.70861">
        <ele>196</ele>
        <time>2018-03-22T14:30:18Z</time>
      </trkpt>
      <trkpt lat="45.85961" lon="4.70854">
        <ele>196</ele>
        <time>2018-03-22T14:30:19Z</time>
      </trkpt>
      <trkpt lat="45.85962" lon="4.70845">
        <ele>196</ele>
        <time>2018-03-22T14:30:20Z</time>
      </trkpt>
      <trkpt lat="45.85962" lon="4.70838">
        <ele>196</ele>
        <time>2018-03-22T14:30:21Z</time>
      </trkpt>
      <trkpt lat="45.85961" lon="4.7083">
        <ele>196</ele>
        <time>2018-03-22T14:30:22Z</time>
      </trkpt>
      <trkpt lat="45.8596" lon="4.70824">
        <ele>195</ele>
        <time>2018-03-22T14:30:23Z</time>
      </trkpt>
      <trkpt lat="45.85958" lon="4.70817">
        <ele>195</ele>
        <time>2018-03-22T14:30:24Z</time>
      </trkpt>
      <trkpt lat="45.85956" lon="4.70811">
        <ele>195</ele>
        <time>2018-03-22T14:30:25Z</time>
      </trkpt>
      <trkpt lat="45.85955" lon="4.70805">
        <ele>195</ele>
        <time>2018-03-22T14:30:26Z</time>
      </trkpt>
      <trkpt lat="45.85954" lon="4.70797">
        <ele>195</ele>
        <time>2018-03-22T14:30:27Z</time>
      </trkpt>
      <trkpt lat="45.85954" lon="4.70789">
        <ele>195</ele>
        <time>2018-03-22T14:30:28Z</time>
      </trkpt>
      <trkpt lat="45.85955" lon="4.70781">
        <ele>195</ele>
        <time>2018-03-22T14:30:29Z</time>
      </trkpt>
      <trkpt lat="45.85955" lon="4.70775">
        <ele>195</ele>
        <time>2018-03-22T14:30:30Z</time>
      </trkpt>
      <trkpt lat="45.85956" lon="4.70768">
        <ele>195</ele>
        <time>2018-03-22T14:30:31Z</time>
      </trkpt>
      <trkpt lat="45.85957" lon="4.70761">
        <ele>195</ele>
        <time>2018-03-22T14:30:32Z</time>
      </trkpt>
      <trkpt lat="45.85957" lon="4.70755">
        <ele>195</ele>
        <time>2018-03-22T14:30:33Z</time>
      </trkpt>
      <trkpt lat="45.85959" lon="4.70748">
        <ele>194</ele>
        <time>2018-03-22T14:30:34Z</time>
      </trkpt>
      <trkpt lat="45.85958" lon="4.7074">
        <ele>194</ele>
        <time>2018-03-22T14:30:35Z</time>
      </trkpt>
      <trkpt lat="45.8596" lon="4.70728">
        <ele>194</ele>
        <time>2018-03-22T14:30:37Z</time>
      </trkpt>
      <trkpt lat="45.85961" lon="4.70721">
        <ele>194</ele>
        <time>2018-03-22T14:30:38Z</time>
      </trkpt>
      <trkpt lat="45.85962" lon="4.70716">
        <ele>194</ele>
        <time>2018-03-22T14:30:39Z</time>
      </trkpt>
      <trkpt lat="45.85962" lon="4.70708">
        <ele>194</ele>
        <time>2018-03-22T14:30:40Z</time>
      </trkpt>
      <trkpt lat="45.85962" lon="4.70702">
        <ele>194</ele>
        <time>2018-03-22T14:30:41Z</time>
      </trkpt>
      <trkpt lat="45.85962" lon="4.70694">
        <ele>194</ele>
        <time>2018-03-22T14:30:42Z</time>
      </trkpt>
      <trkpt lat="45.85962" lon="4.70687">
        <ele>194</ele>
        <time>2018-03-22T14:30:43Z</time>
      </trkpt>
      <trkpt lat="45.85961" lon="4.7068">
        <ele>194</ele>
        <time>2018-03-22T14:30:44Z</time>
      </trkpt>
      <trkpt lat="45.85959" lon="4.70674">
        <ele>194</ele>
        <time>2018-03-22T14:30:45Z</time>
      </trkpt>
      <trkpt lat="45.85956" lon="4.70667">
        <ele>194</ele>
        <time>2018-03-22T14:30:46Z</time>
      </trkpt>
      <trkpt lat="45.85953" lon="4.70661">
        <ele>194</ele>
        <time>2018-03-22T14:30:47Z</time>
      </trkpt>
      <trkpt lat="45.85951" lon="4.70654">
        <ele>194</ele>
        <time>2018-03-22T14:30:48Z</time>
      </trkpt>
      <trkpt lat="45.85947" lon="4.70649">
        <ele>194</ele>
        <time>2018-03-22T14:30:49Z</time>
      </trkpt>
      <trkpt lat="45.85943" lon="4.70644">
        <ele>194</ele>
        <time>2018-03-22T14:30:50Z</time>
      </trkpt>
      <trkpt lat="45.8594" lon="4.70639">
        <ele>194</ele>
        <time>2018-03-22T14:30:51Z</time>
      </trkpt>
      <trkpt lat="45.85937" lon="4.70634">
        <ele>194</ele>
        <time>2018-03-22T14:30:52Z</time>
      </trkpt>
      <trkpt lat="45.85932" lon="4.70624">
        <ele>194</ele>
        <time>2018-03-22T14:30:54Z</time>
      </trkpt>
      <trkpt lat="45.85929" lon="4.70619">
        <ele>194</ele>
        <time>2018-03-22T14:30:55Z</time>
      </trkpt>
      <trkpt lat="45.85925" lon="4.70614">
        <ele>194</ele>
        <time>2018-03-22T14:30:56Z</time>
      </trkpt>
      <trkpt lat="45.85922" lon="4.70609">
        <ele>194</ele>
        <time>2018-03-22T14:30:57Z</time>
      </trkpt>
      <trkpt lat="45.85918" lon="4.70604">
        <ele>194</ele>
        <time>2018-03-22T14:30:58Z</time>
      </trkpt>
      <trkpt lat="45.85914" lon="4.70599">
        <ele>195</ele>
        <time>2018-03-22T14:30:59Z</time>
      </trkpt>
      <trkpt lat="45.85911" lon="4.70593">
        <ele>195</ele>
        <time>2018-03-22T14:31:00Z</time>
      </trkpt>
      <trkpt lat="45.85907" lon="4.70589">
        <ele>195</ele>
        <time>2018-03-22T14:31:01Z</time>
      </trkpt>
      <trkpt lat="45.85902" lon="4.70584">
        <ele>195</ele>
        <time>2018-03-22T14:31:02Z</time>
      </trkpt>
      <trkpt lat="45.85898" lon="4.70581">
        <ele>195</ele>
        <time>2018-03-22T14:31:03Z</time>
      </trkpt>
      <trkpt lat="45.85893" lon="4.70578">
        <ele>195</ele>
        <time>2018-03-22T14:31:04Z</time>
      </trkpt>
      <trkpt lat="45.85888" lon="4.70577">
        <ele>195</ele>
        <time>2018-03-22T14:31:05Z</time>
      </trkpt>
      <trkpt lat="45.85883" lon="4.70577">
        <ele>195</ele>
        <time>2018-03-22T14:31:06Z</time>
      </trkpt>
      <trkpt lat="45.85878" lon="4.70574">
        <ele>195</ele>
        <time>2018-03-22T14:31:07Z</time>
      </trkpt>
      <trkpt lat="45.85873" lon="4.70573">
        <ele>195</ele>
        <time>2018-03-22T14:31:08Z</time>
      </trkpt>
      <trkpt lat="45.85867" lon="4.70572">
        <ele>195</ele>
        <time>2018-03-22T14:31:09Z</time>
      </trkpt>
      <trkpt lat="45.85861" lon="4.7057">
        <ele>195</ele>
        <time>2018-03-22T14:31:10Z</time>
      </trkpt>
      <trkpt lat="45.85856" lon="4.70568">
        <ele>195</ele>
        <time>2018-03-22T14:31:11Z</time>
      </trkpt>
      <trkpt lat="45.85851" lon="4.70567">
        <ele>195</ele>
        <time>2018-03-22T14:31:12Z</time>
      </trkpt>
      <trkpt lat="45.85846" lon="4.70565">
        <ele>195</ele>
        <time>2018-03-22T14:31:13Z</time>
      </trkpt>
      <trkpt lat="45.85841" lon="4.70563">
        <ele>195</ele>
        <time>2018-03-22T14:31:14Z</time>
      </trkpt>
      <trkpt lat="45.85836" lon="4.70561">
        <ele>195</ele>
        <time>2018-03-22T14:31:15Z</time>
      </trkpt>
      <trkpt lat="45.85831" lon="4.70559">
        <ele>195</ele>
        <time>2018-03-22T14:31:16Z</time>
      </trkpt>
      <trkpt lat="45.85826" lon="4.70556">
        <ele>195</ele>
        <time>2018-03-22T14:31:17Z</time>
      </trkpt>
      <trkpt lat="45.85822" lon="4.70555">
        <ele>195</ele>
        <time>2018-03-22T14:31:18Z</time>
      </trkpt>
      <trkpt lat="45.85817" lon="4.70553">
        <ele>195</ele>
        <time>2018-03-22T14:31:19Z</time>
      </trkpt>
      <trkpt lat="45.85813" lon="4.70551">
        <ele>195</ele>
        <time>2018-03-22T14:31:20Z</time>
      </trkpt>
      <trkpt lat="45.85808" lon="4.70549">
        <ele>195</ele>
        <time>2018-03-22T14:31:21Z</time>
      </trkpt>
      <trkpt lat="45.85804" lon="4.70548">
        <ele>195</ele>
        <time>2018-03-22T14:31:22Z</time>
      </trkpt>
      <trkpt lat="45.85799" lon="4.70544">
        <ele>195</ele>
        <time>2018-03-22T14:31:23Z</time>
      </trkpt>
      <trkpt lat="45.85795" lon="4.70541">
        <ele>195</ele>
        <time>2018-03-22T14:31:24Z</time>
      </trkpt>
      <trkpt lat="45.8579" lon="4.70538">
        <ele>196</ele>
        <time>2018-03-22T14:31:25Z</time>
      </trkpt>
      <trkpt lat="45.85785" lon="4.70536">
        <ele>196</ele>
        <time>2018-03-22T14:31:26Z</time>
      </trkpt>
      <trkpt lat="45.85781" lon="4.70532">
        <ele>196</ele>
        <time>2018-03-22T14:31:27Z</time>
      </trkpt>
      <trkpt lat="45.85777" lon="4.70528">
        <ele>196</ele>
        <time>2018-03-22T14:31:28Z</time>
      </trkpt>
      <trkpt lat="45.85772" lon="4.70524">
        <ele>196</ele>
        <time>2018-03-22T14:31:29Z</time>
      </trkpt>
      <trkpt lat="45.85764" lon="4.70519">
        <ele>196</ele>
        <time>2018-03-22T14:31:31Z</time>
      </trkpt>
      <trkpt lat="45.85759" lon="4.70515">
        <ele>196</ele>
        <time>2018-03-22T14:31:32Z</time>
      </trkpt>
      <trkpt lat="45.85755" lon="4.70512">
        <ele>196</ele>
        <time>2018-03-22T14:31:33Z</time>
      </trkpt>
      <trkpt lat="45.85751" lon="4.70509">
        <ele>196</ele>
        <time>2018-03-22T14:31:34Z</time>
      </trkpt>
      <trkpt lat="45.85747" lon="4.70506">
        <ele>196</ele>
        <time>2018-03-22T14:31:35Z</time>
      </trkpt>
      <trkpt lat="45.85743" lon="4.70502">
        <ele>196</ele>
        <time>2018-03-22T14:31:36Z</time>
      </trkpt>
      <trkpt lat="45.85737" lon="4.70494">
        <ele>196</ele>
        <time>2018-03-22T14:31:38Z</time>
      </trkpt>
      <trkpt lat="45.85734" lon="4.70488">
        <ele>196</ele>
        <time>2018-03-22T14:31:39Z</time>
      </trkpt>
      <trkpt lat="45.85731" lon="4.70482">
        <ele>196</ele>
        <time>2018-03-22T14:31:40Z</time>
      </trkpt>
      <trkpt lat="45.85728" lon="4.70477">
        <ele>196</ele>
        <time>2018-03-22T14:31:41Z</time>
      </trkpt>
      <trkpt lat="45.85726" lon="4.70465">
        <ele>196</ele>
        <time>2018-03-22T14:31:43Z</time>
      </trkpt>
      <trkpt lat="45.85725" lon="4.70458">
        <ele>196</ele>
        <time>2018-03-22T14:31:44Z</time>
      </trkpt>
      <trkpt lat="45.85724" lon="4.70452">
        <ele>196</ele>
        <time>2018-03-22T14:31:45Z</time>
      </trkpt>
      <trkpt lat="45.85723" lon="4.70444">
        <ele>196</ele>
        <time>2018-03-22T14:31:46Z</time>
      </trkpt>
      <trkpt lat="45.85722" lon="4.70436">
        <ele>196</ele>
        <time>2018-03-22T14:31:47Z</time>
      </trkpt>
      <trkpt lat="45.8572" lon="4.70429">
        <ele>196</ele>
        <time>2018-03-22T14:31:48Z</time>
      </trkpt>
      <trkpt lat="45.85719" lon="4.70421">
        <ele>196</ele>
        <time>2018-03-22T14:31:49Z</time>
      </trkpt>
      <trkpt lat="45.85718" lon="4.70414">
        <ele>196</ele>
        <time>2018-03-22T14:31:50Z</time>
      </trkpt>
      <trkpt lat="45.85717" lon="4.70406">
        <ele>196</ele>
        <time>2018-03-22T14:31:51Z</time>
      </trkpt>
      <trkpt lat="45.85716" lon="4.70398">
        <ele>196</ele>
        <time>2018-03-22T14:31:52Z</time>
      </trkpt>
      <trkpt lat="45.85715" lon="4.7039">
        <ele>196</ele>
        <time>2018-03-22T14:31:53Z</time>
      </trkpt>
      <trkpt lat="45.85715" lon="4.70383">
        <ele>196</ele>
        <time>2018-03-22T14:31:54Z</time>
      </trkpt>
      <trkpt lat="45.85713" lon="4.70375">
        <ele>196</ele>
        <time>2018-03-22T14:31:55Z</time>
      </trkpt>
      <trkpt lat="45.85712" lon="4.70369">
        <ele>196</ele>
        <time>2018-03-22T14:31:56Z</time>
      </trkpt>
      <trkpt lat="45.85712" lon="4.70362">
        <ele>196</ele>
        <time>2018-03-22T14:31:57Z</time>
      </trkpt>
      <trkpt lat="45.85711" lon="4.70354">
        <ele>196</ele>
        <time>2018-03-22T14:31:58Z</time>
      </trkpt>
      <trkpt lat="45.8571" lon="4.70346">
        <ele>196</ele>
        <time>2018-03-22T14:31:59Z</time>
      </trkpt>
      <trkpt lat="45.8571" lon="4.70339">
        <ele>196</ele>
        <time>2018-03-22T14:32:00Z</time>
      </trkpt>
      <trkpt lat="45.85709" lon="4.70332">
        <ele>197</ele>
        <time>2018-03-22T14:32:01Z</time>
      </trkpt>
      <trkpt lat="45.85708" lon="4.70326">
        <ele>197</ele>
        <time>2018-03-22T14:32:02Z</time>
      </trkpt>
      <trkpt lat="45.85708" lon="4.70318">
        <ele>197</ele>
        <time>2018-03-22T14:32:03Z</time>
      </trkpt>
      <trkpt lat="45.85707" lon="4.70311">
        <ele>197</ele>
        <time>2018-03-22T14:32:04Z</time>
      </trkpt>
      <trkpt lat="45.85707" lon="4.70303">
        <ele>197</ele>
        <time>2018-03-22T14:32:05Z</time>
      </trkpt>
      <trkpt lat="45.85706" lon="4.70295">
        <ele>197</ele>
        <time>2018-03-22T14:32:06Z</time>
      </trkpt>
      <trkpt lat="45.85705" lon="4.70287">
        <ele>197</ele>
        <time>2018-03-22T14:32:07Z</time>
      </trkpt>
      <trkpt lat="45.85704" lon="4.70279">
        <ele>197</ele>
        <time>2018-03-22T14:32:08Z</time>
      </trkpt>
      <trkpt lat="45.85704" lon="4.7027">
        <ele>197</ele>
        <time>2018-03-22T14:32:09Z</time>
      </trkpt>
      <trkpt lat="45.85703" lon="4.70261">
        <ele>197</ele>
        <time>2018-03-22T14:32:10Z</time>
      </trkpt>
      <trkpt lat="45.85702" lon="4.70254">
        <ele>197</ele>
        <time>2018-03-22T14:32:11Z</time>
      </trkpt>
      <trkpt lat="45.85701" lon="4.70246">
        <ele>197</ele>
        <time>2018-03-22T14:32:12Z</time>
      </trkpt>
      <trkpt lat="45.85699" lon="4.70238">
        <ele>197</ele>
        <time>2018-03-22T14:32:13Z</time>
      </trkpt>
      <trkpt lat="45.85696" lon="4.7023">
        <ele>197</ele>
        <time>2018-03-22T14:32:14Z</time>
      </trkpt>
      <trkpt lat="45.85697" lon="4.70221">
        <ele>197</ele>
        <time>2018-03-22T14:32:15Z</time>
      </trkpt>
      <trkpt lat="45.85696" lon="4.70212">
        <ele>197</ele>
        <time>2018-03-22T14:32:16Z</time>
      </trkpt>
      <trkpt lat="45.85694" lon="4.70204">
        <ele>197</ele>
        <time>2018-03-22T14:32:17Z</time>
      </trkpt>
      <trkpt lat="45.85693" lon="4.70196">
        <ele>197</ele>
        <time>2018-03-22T14:32:18Z</time>
      </trkpt>
      <trkpt lat="45.85692" lon="4.7019">
        <ele>197</ele>
        <time>2018-03-22T14:32:19Z</time>
      </trkpt>
      <trkpt lat="45.85689" lon="4.70183">
        <ele>197</ele>
        <time>2018-03-22T14:32:20Z</time>
      </trkpt>
      <trkpt lat="45.85686" lon="4.70172">
        <ele>197</ele>
        <time>2018-03-22T14:32:22Z</time>
      </trkpt>
      <trkpt lat="45.85686" lon="4.70164">
        <ele>197</ele>
        <time>2018-03-22T14:32:23Z</time>
      </trkpt>
      <trkpt lat="45.85685" lon="4.70158">
        <ele>197</ele>
        <time>2018-03-22T14:32:24Z</time>
      </trkpt>
      <trkpt lat="45.85683" lon="4.70151">
        <ele>197</ele>
        <time>2018-03-22T14:32:25Z</time>
      </trkpt>
      <trkpt lat="45.85682" lon="4.70142">
        <ele>197</ele>
        <time>2018-03-22T14:32:26Z</time>
      </trkpt>
      <trkpt lat="45.85682" lon="4.70134">
        <ele>197</ele>
        <time>2018-03-22T14:32:27Z</time>
      </trkpt>
      <trkpt lat="45.8568" lon="4.70127">
        <ele>197</ele>
        <time>2018-03-22T14:32:28Z</time>
      </trkpt>
      <trkpt lat="45.8568" lon="4.7012">
        <ele>197</ele>
        <time>2018-03-22T14:32:29Z</time>
      </trkpt>
      <trkpt lat="45.85679" lon="4.70112">
        <ele>197</ele>
        <time>2018-03-22T14:32:30Z</time>
      </trkpt>
      <trkpt lat="45.8568" lon="4.70105">
        <ele>196</ele>
        <time>2018-03-22T14:32:31Z</time>
      </trkpt>
      <trkpt lat="45.8568" lon="4.70098">
        <ele>196</ele>
        <time>2018-03-22T14:32:32Z</time>
      </trkpt>
      <trkpt lat="45.85681" lon="4.7009">
        <ele>196</ele>
        <time>2018-03-22T14:32:33Z</time>
      </trkpt>
      <trkpt lat="45.85682" lon="4.70078">
        <ele>196</ele>
        <time>2018-03-22T14:32:35Z</time>
      </trkpt>
      <trkpt lat="45.85683" lon="4.70073">
        <ele>196</ele>
        <time>2018-03-22T14:32:36Z</time>
      </trkpt>
      <trkpt lat="45.85685" lon="4.70061">
        <ele>196</ele>
        <time>2018-03-22T14:32:38Z</time>
      </trkpt>
      <trkpt lat="45.85685" lon="4.70056">
        <ele>195</ele>
        <time>2018-03-22T14:32:39Z</time>
      </trkpt>
      <trkpt lat="45.85688" lon="4.70044">
        <ele>195</ele>
        <time>2018-03-22T14:32:41Z</time>
      </trkpt>
      <trkpt lat="45.85689" lon="4.70037">
        <ele>195</ele>
        <time>2018-03-22T14:32:42Z</time>
      </trkpt>
      <trkpt lat="45.85691" lon="4.70031">
        <ele>195</ele>
        <time>2018-03-22T14:32:43Z</time>
      </trkpt>
      <trkpt lat="45.85692" lon="4.70024">
        <ele>195</ele>
        <time>2018-03-22T14:32:44Z</time>
      </trkpt>
      <trkpt lat="45.85694" lon="4.70018">
        <ele>195</ele>
        <time>2018-03-22T14:32:45Z</time>
      </trkpt>
      <trkpt lat="45.85694" lon="4.70011">
        <ele>195</ele>
        <time>2018-03-22T14:32:46Z</time>
      </trkpt>
      <trkpt lat="45.85695" lon="4.70004">
        <ele>195</ele>
        <time>2018-03-22T14:32:47Z</time>
      </trkpt>
      <trkpt lat="45.85695" lon="4.69997">
        <ele>195</ele>
        <time>2018-03-22T14:32:48Z</time>
      </trkpt>
      <trkpt lat="45.85695" lon="4.69989">
        <ele>195</ele>
        <time>2018-03-22T14:32:49Z</time>
      </trkpt>
      <trkpt lat="45.85694" lon="4.69982">
        <ele>195</ele>
        <time>2018-03-22T14:32:50Z</time>
      </trkpt>
      <trkpt lat="45.85693" lon="4.69973">
        <ele>195</ele>
        <time>2018-03-22T14:32:51Z</time>
      </trkpt>
      <trkpt lat="45.85692" lon="4.69965">
        <ele>195</ele>
        <time>2018-03-22T14:32:52Z</time>
      </trkpt>
      <trkpt lat="45.85689" lon="4.69957">
        <ele>195</ele>
        <time>2018-03-22T14:32:53Z</time>
      </trkpt>
      <trkpt lat="45.85687" lon="4.69949">
        <ele>195</ele>
        <time>2018-03-22T14:32:54Z</time>
      </trkpt>
      <trkpt lat="45.85685" lon="4.69942">
        <ele>195</ele>
        <time>2018-03-22T14:32:55Z</time>
      </trkpt>
      <trkpt lat="45.85683" lon="4.69934">
        <ele>195</ele>
        <time>2018-03-22T14:32:56Z</time>
      </trkpt>
      <trkpt lat="45.85681" lon="4.69925">
        <ele>195</ele>
        <time>2018-03-22T14:32:57Z</time>
      </trkpt>
      <trkpt lat="45.85679" lon="4.69918">
        <ele>195</ele>
        <time>2018-03-22T14:32:58Z</time>
      </trkpt>
      <trkpt lat="45.85677" lon="4.6991">
        <ele>195</ele>
        <time>2018-03-22T14:32:59Z</time>
      </trkpt>
      <trkpt lat="45.85675" lon="4.69902">
        <ele>195</ele>
        <time>2018-03-22T14:33:00Z</time>
      </trkpt>
      <trkpt lat="45.85673" lon="4.69894">
        <ele>195</ele>
        <time>2018-03-22T14:33:01Z</time>
      </trkpt>
      <trkpt lat="45.85671" lon="4.69887">
        <ele>195</ele>
        <time>2018-03-22T14:33:02Z</time>
      </trkpt>
      <trkpt lat="45.8567" lon="4.6988">
        <ele>195</ele>
        <time>2018-03-22T14:33:03Z</time>
      </trkpt>
      <trkpt lat="45.85669" lon="4.69873">
        <ele>195</ele>
        <time>2018-03-22T14:33:04Z</time>
      </trkpt>
      <trkpt lat="45.85668" lon="4.69864">
        <ele>195</ele>
        <time>2018-03-22T14:33:05Z</time>
      </trkpt>
      <trkpt lat="45.85667" lon="4.69857">
        <ele>195</ele>
        <time>2018-03-22T14:33:06Z</time>
      </trkpt>
      <trkpt lat="45.85666" lon="4.69849">
        <ele>195</ele>
        <time>2018-03-22T14:33:07Z</time>
      </trkpt>
      <trkpt lat="45.85664" lon="4.6984">
        <ele>195</ele>
        <time>2018-03-22T14:33:08Z</time>
      </trkpt>
      <trkpt lat="45.85664" lon="4.69833">
        <ele>195</ele>
        <time>2018-03-22T14:33:09Z</time>
      </trkpt>
      <trkpt lat="45.85663" lon="4.69825">
        <ele>195</ele>
        <time>2018-03-22T14:33:10Z</time>
      </trkpt>
      <trkpt lat="45.85663" lon="4.69817">
        <ele>195</ele>
        <time>2018-03-22T14:33:11Z</time>
      </trkpt>
      <trkpt lat="45.85662" lon="4.6981">
        <ele>195</ele>
        <time>2018-03-22T14:33:12Z</time>
      </trkpt>
      <trkpt lat="45.85661" lon="4.69802">
        <ele>195</ele>
        <time>2018-03-22T14:33:13Z</time>
      </trkpt>
      <trkpt lat="45.8566" lon="4.69795">
        <ele>195</ele>
        <time>2018-03-22T14:33:14Z</time>
      </trkpt>
      <trkpt lat="45.85659" lon="4.69788">
        <ele>195</ele>
        <time>2018-03-22T14:33:15Z</time>
      </trkpt>
      <trkpt lat="45.85659" lon="4.69781">
        <ele>195</ele>
        <time>2018-03-22T14:33:16Z</time>
      </trkpt>
      <trkpt lat="45.85659" lon="4.69774">
        <ele>195</ele>
        <time>2018-03-22T14:33:17Z</time>
      </trkpt>
      <trkpt lat="45.85658" lon="4.69767">
        <ele>195</ele>
        <time>2018-03-22T14:33:18Z</time>
      </trkpt>
      <trkpt lat="45.85657" lon="4.69761">
        <ele>195</ele>
        <time>2018-03-22T14:33:19Z</time>
      </trkpt>
      <trkpt lat="45.85657" lon="4.69754">
        <ele>194</ele>
        <time>2018-03-22T14:33:20Z</time>
      </trkpt>
      <trkpt lat="45.85655" lon="4.69747">
        <ele>195</ele>
        <time>2018-03-22T14:33:21Z</time>
      </trkpt>
      <trkpt lat="45.85654" lon="4.6974">
        <ele>195</ele>
        <time>2018-03-22T14:33:22Z</time>
      </trkpt>
      <trkpt lat="45.85653" lon="4.69732">
        <ele>195</ele>
        <time>2018-03-22T14:33:23Z</time>
      </trkpt>
      <trkpt lat="45.85652" lon="4.69725">
        <ele>195</ele>
        <time>2018-03-22T14:33:24Z</time>
      </trkpt>
      <trkpt lat="45.85652" lon="4.69718">
        <ele>196</ele>
        <time>2018-03-22T14:33:25Z</time>
      </trkpt>
      <trkpt lat="45.85651" lon="4.6971">
        <ele>196</ele>
        <time>2018-03-22T14:33:26Z</time>
      </trkpt>
      <trkpt lat="45.85651" lon="4.69704">
        <ele>196</ele>
        <time>2018-03-22T14:33:27Z</time>
      </trkpt>
      <trkpt lat="45.8565" lon="4.69696">
        <ele>196</ele>
        <time>2018-03-22T14:33:28Z</time>
      </trkpt>
      <trkpt lat="45.85649" lon="4.69684">
        <ele>196</ele>
        <time>2018-03-22T14:33:30Z</time>
      </trkpt>
      <trkpt lat="45.85648" lon="4.69678">
        <ele>196</ele>
        <time>2018-03-22T14:33:31Z</time>
      </trkpt>
      <trkpt lat="45.85647" lon="4.69665">
        <ele>197</ele>
        <time>2018-03-22T14:33:33Z</time>
      </trkpt>
      <trkpt lat="45.85646" lon="4.69658">
        <ele>197</ele>
        <time>2018-03-22T14:33:34Z</time>
      </trkpt>
      <trkpt lat="45.85646" lon="4.69651">
        <ele>197</ele>
        <time>2018-03-22T14:33:35Z</time>
      </trkpt>
      <trkpt lat="45.85645" lon="4.69645">
        <ele>197</ele>
        <time>2018-03-22T14:33:36Z</time>
      </trkpt>
      <trkpt lat="45.85644" lon="4.69638">
        <ele>197</ele>
        <time>2018-03-22T14:33:37Z</time>
      </trkpt>
      <trkpt lat="45.85643" lon="4.69631">
        <ele>197</ele>
        <time>2018-03-22T14:33:38Z</time>
      </trkpt>
      <trkpt lat="45.85642" lon="4.69619">
        <ele>197</ele>
        <time>2018-03-22T14:33:40Z</time>
      </trkpt>
      <trkpt lat="45.85641" lon="4.69612">
        <ele>197</ele>
        <time>2018-03-22T14:33:41Z</time>
      </trkpt>
      <trkpt lat="45.85641" lon="4.696">
        <ele>197</ele>
        <time>2018-03-22T14:33:43Z</time>
      </trkpt>
      <trkpt lat="45.8564" lon="4.69594">
        <ele>197</ele>
        <time>2018-03-22T14:33:44Z</time>
      </trkpt>
      <trkpt lat="45.8564" lon="4.69588">
        <ele>197</ele>
        <time>2018-03-22T14:33:45Z</time>
      </trkpt>
      <trkpt lat="45.85639" lon="4.69581">
        <ele>198</ele>
        <time>2018-03-22T14:33:46Z</time>
      </trkpt>
      <trkpt lat="45.85638" lon="4.69569">
        <ele>198</ele>
        <time>2018-03-22T14:33:48Z</time>
      </trkpt>
      <trkpt lat="45.85637" lon="4.69563">
        <ele>198</ele>
        <time>2018-03-22T14:33:49Z</time>
      </trkpt>
      <trkpt lat="45.85636" lon="4.6955">
        <ele>198</ele>
        <time>2018-03-22T14:33:51Z</time>
      </trkpt>
      <trkpt lat="45.85635" lon="4.69543">
        <ele>198</ele>
        <time>2018-03-22T14:33:52Z</time>
      </trkpt>
      <trkpt lat="45.85635" lon="4.69537">
        <ele>198</ele>
        <time>2018-03-22T14:33:53Z</time>
      </trkpt>
      <trkpt lat="45.85634" lon="4.69529">
        <ele>198</ele>
        <time>2018-03-22T14:33:54Z</time>
      </trkpt>
      <trkpt lat="45.85633" lon="4.69523">
        <ele>198</ele>
        <time>2018-03-22T14:33:55Z</time>
      </trkpt>
      <trkpt lat="45.85632" lon="4.69516">
        <ele>198</ele>
        <time>2018-03-22T14:33:56Z</time>
      </trkpt>
      <trkpt lat="45.85631" lon="4.69503">
        <ele>198</ele>
        <time>2018-03-22T14:33:58Z</time>
      </trkpt>
      <trkpt lat="45.85631" lon="4.69496">
        <ele>198</ele>
        <time>2018-03-22T14:33:59Z</time>
      </trkpt>
      <trkpt lat="45.8563" lon="4.6949">
        <ele>198</ele>
        <time>2018-03-22T14:34:00Z</time>
      </trkpt>
      <trkpt lat="45.85629" lon="4.69483">
        <ele>198</ele>
        <time>2018-03-22T14:34:01Z</time>
      </trkpt>
      <trkpt lat="45.85628" lon="4.69476">
        <ele>198</ele>
        <time>2018-03-22T14:34:02Z</time>
      </trkpt>
      <trkpt lat="45.85628" lon="4.6947">
        <ele>198</ele>
        <time>2018-03-22T14:34:03Z</time>
      </trkpt>
      <trkpt lat="45.85626" lon="4.69457">
        <ele>198</ele>
        <time>2018-03-22T14:34:05Z</time>
      </trkpt>
      <trkpt lat="45.85625" lon="4.69452">
        <ele>198</ele>
        <time>2018-03-22T14:34:06Z</time>
      </trkpt>
      <trkpt lat="45.85624" lon="4.6944">
        <ele>198</ele>
        <time>2018-03-22T14:34:08Z</time>
      </trkpt>
      <trkpt lat="45.85623" lon="4.69433">
        <ele>198</ele>
        <time>2018-03-22T14:34:09Z</time>
      </trkpt>
      <trkpt lat="45.85623" lon="4.69422">
        <ele>198</ele>
        <time>2018-03-22T14:34:11Z</time>
      </trkpt>
      <trkpt lat="45.85622" lon="4.69415">
        <ele>198</ele>
        <time>2018-03-22T14:34:12Z</time>
      </trkpt>
      <trkpt lat="45.8562" lon="4.69403">
        <ele>198</ele>
        <time>2018-03-22T14:34:14Z</time>
      </trkpt>
      <trkpt lat="45.8562" lon="4.69396">
        <ele>198</ele>
        <time>2018-03-22T14:34:15Z</time>
      </trkpt>
      <trkpt lat="45.85619" lon="4.69389">
        <ele>198</ele>
        <time>2018-03-22T14:34:16Z</time>
      </trkpt>
      <trkpt lat="45.85618" lon="4.69382">
        <ele>198</ele>
        <time>2018-03-22T14:34:17Z</time>
      </trkpt>
      <trkpt lat="45.85617" lon="4.69374">
        <ele>198</ele>
        <time>2018-03-22T14:34:18Z</time>
      </trkpt>
      <trkpt lat="45.85617" lon="4.69368">
        <ele>198</ele>
        <time>2018-03-22T14:34:19Z</time>
      </trkpt>
      <trkpt lat="45.85616" lon="4.69362">
        <ele>198</ele>
        <time>2018-03-22T14:34:20Z</time>
      </trkpt>
      <trkpt lat="45.85615" lon="4.69355">
        <ele>198</ele>
        <time>2018-03-22T14:34:21Z</time>
      </trkpt>
      <trkpt lat="45.85614" lon="4.69348">
        <ele>198</ele>
        <time>2018-03-22T14:34:22Z</time>
      </trkpt>
      <trkpt lat="45.85614" lon="4.69342">
        <ele>198</ele>
        <time>2018-03-22T14:34:23Z</time>
      </trkpt>
      <trkpt lat="45.85613" lon="4.6933">
        <ele>198</ele>
        <time>2018-03-22T14:34:25Z</time>
      </trkpt>
      <trkpt lat="45.85612" lon="4.69324">
        <ele>198</ele>
        <time>2018-03-22T14:34:26Z</time>
      </trkpt>
      <trkpt lat="45.85611" lon="4.69312">
        <ele>198</ele>
        <time>2018-03-22T14:34:28Z</time>
      </trkpt>
      <trkpt lat="45.8561" lon="4.69306">
        <ele>198</ele>
        <time>2018-03-22T14:34:29Z</time>
      </trkpt>
      <trkpt lat="45.85609" lon="4.69294">
        <ele>198</ele>
        <time>2018-03-22T14:34:31Z</time>
      </trkpt>
      <trkpt lat="45.85608" lon="4.69287">
        <ele>198</ele>
        <time>2018-03-22T14:34:32Z</time>
      </trkpt>
      <trkpt lat="45.85609" lon="4.69275">
        <ele>198</ele>
        <time>2018-03-22T14:34:34Z</time>
      </trkpt>
      <trkpt lat="45.8561" lon="4.69269">
        <ele>198</ele>
        <time>2018-03-22T14:34:35Z</time>
      </trkpt>
      <trkpt lat="45.85611" lon="4.69257">
        <ele>198</ele>
        <time>2018-03-22T14:34:37Z</time>
      </trkpt>
      <trkpt lat="45.8561" lon="4.69251">
        <ele>198</ele>
        <time>2018-03-22T14:34:38Z</time>
      </trkpt>
      <trkpt lat="45.85606" lon="4.6924">
        <ele>199</ele>
        <time>2018-03-22T14:34:40Z</time>
      </trkpt>
      <trkpt lat="45.85604" lon="4.69234">
        <ele>199</ele>
        <time>2018-03-22T14:34:41Z</time>
      </trkpt>
      <trkpt lat="45.85603" lon="4.69228">
        <ele>199</ele>
        <time>2018-03-22T14:34:42Z</time>
      </trkpt>
      <trkpt lat="45.85602" lon="4.69221">
        <ele>199</ele>
        <time>2018-03-22T14:34:43Z</time>
      </trkpt>
      <trkpt lat="45.85601" lon="4.69215">
        <ele>199</ele>
        <time>2018-03-22T14:34:44Z</time>
      </trkpt>
      <trkpt lat="45.85602" lon="4.69207">
        <ele>199</ele>
        <time>2018-03-22T14:34:45Z</time>
      </trkpt>
      <trkpt lat="45.85601" lon="4.692">
        <ele>199</ele>
        <time>2018-03-22T14:34:46Z</time>
      </trkpt>
      <trkpt lat="45.85601" lon="4.69194">
        <ele>199</ele>
        <time>2018-03-22T14:34:47Z</time>
      </trkpt>
      <trkpt lat="45.85601" lon="4.69186">
        <ele>199</ele>
        <time>2018-03-22T14:34:48Z</time>
      </trkpt>
      <trkpt lat="45.856" lon="4.69179">
        <ele>199</ele>
        <time>2018-03-22T14:34:49Z</time>
      </trkpt>
      <trkpt lat="45.85599" lon="4.69172">
        <ele>199</ele>
        <time>2018-03-22T14:34:50Z</time>
      </trkpt>
      <trkpt lat="45.85599" lon="4.69164">
        <ele>199</ele>
        <time>2018-03-22T14:34:51Z</time>
      </trkpt>
      <trkpt lat="45.85598" lon="4.69158">
        <ele>199</ele>
        <time>2018-03-22T14:34:52Z</time>
      </trkpt>
      <trkpt lat="45.85598" lon="4.6915">
        <ele>199</ele>
        <time>2018-03-22T14:34:53Z</time>
      </trkpt>
      <trkpt lat="45.85596" lon="4.69143">
        <ele>199</ele>
        <time>2018-03-22T14:34:54Z</time>
      </trkpt>
      <trkpt lat="45.85596" lon="4.69137">
        <ele>199</ele>
        <time>2018-03-22T14:34:55Z</time>
      </trkpt>
      <trkpt lat="45.85595" lon="4.6913">
        <ele>198</ele>
        <time>2018-03-22T14:34:56Z</time>
      </trkpt>
      <trkpt lat="45.85595" lon="4.69122">
        <ele>198</ele>
        <time>2018-03-22T14:34:57Z</time>
      </trkpt>
      <trkpt lat="45.85594" lon="4.69115">
        <ele>198</ele>
        <time>2018-03-22T14:34:58Z</time>
      </trkpt>
      <trkpt lat="45.85594" lon="4.69109">
        <ele>199</ele>
        <time>2018-03-22T14:34:59Z</time>
      </trkpt>
      <trkpt lat="45.85593" lon="4.69102">
        <ele>199</ele>
        <time>2018-03-22T14:35:00Z</time>
      </trkpt>
      <trkpt lat="45.85592" lon="4.69093">
        <ele>199</ele>
        <time>2018-03-22T14:35:01Z</time>
      </trkpt>
      <trkpt lat="45.85591" lon="4.69086">
        <ele>199</ele>
        <time>2018-03-22T14:35:02Z</time>
      </trkpt>
      <trkpt lat="45.85591" lon="4.69079">
        <ele>199</ele>
        <time>2018-03-22T14:35:03Z</time>
      </trkpt>
      <trkpt lat="45.8559" lon="4.69071">
        <ele>199</ele>
        <time>2018-03-22T14:35:04Z</time>
      </trkpt>
      <trkpt lat="45.85589" lon="4.69064">
        <ele>199</ele>
        <time>2018-03-22T14:35:05Z</time>
      </trkpt>
      <trkpt lat="45.85589" lon="4.69057">
        <ele>199</ele>
        <time>2018-03-22T14:35:06Z</time>
      </trkpt>
      <trkpt lat="45.85588" lon="4.69049">
        <ele>199</ele>
        <time>2018-03-22T14:35:07Z</time>
      </trkpt>
      <trkpt lat="45.85587" lon="4.69041">
        <ele>199</ele>
        <time>2018-03-22T14:35:08Z</time>
      </trkpt>
      <trkpt lat="45.85587" lon="4.69034">
        <ele>199</ele>
        <time>2018-03-22T14:35:09Z</time>
      </trkpt>
      <trkpt lat="45.85586" lon="4.69026">
        <ele>199</ele>
        <time>2018-03-22T14:35:10Z</time>
      </trkpt>
      <trkpt lat="45.85585" lon="4.69018">
        <ele>199</ele>
        <time>2018-03-22T14:35:11Z</time>
      </trkpt>
      <trkpt lat="45.85584" lon="4.69011">
        <ele>200</ele>
        <time>2018-03-22T14:35:12Z</time>
      </trkpt>
      <trkpt lat="45.85583" lon="4.69004">
        <ele>200</ele>
        <time>2018-03-22T14:35:13Z</time>
      </trkpt>
      <trkpt lat="45.85583" lon="4.68997">
        <ele>200</ele>
        <time>2018-03-22T14:35:14Z</time>
      </trkpt>
      <trkpt lat="45.85582" lon="4.68991">
        <ele>200</ele>
        <time>2018-03-22T14:35:15Z</time>
      </trkpt>
      <trkpt lat="45.85582" lon="4.68983">
        <ele>200</ele>
        <time>2018-03-22T14:35:16Z</time>
      </trkpt>
      <trkpt lat="45.85581" lon="4.68976">
        <ele>200</ele>
        <time>2018-03-22T14:35:17Z</time>
      </trkpt>
      <trkpt lat="45.85581" lon="4.6897">
        <ele>200</ele>
        <time>2018-03-22T14:35:18Z</time>
      </trkpt>
      <trkpt lat="45.85581" lon="4.68962">
        <ele>200</ele>
        <time>2018-03-22T14:35:19Z</time>
      </trkpt>
      <trkpt lat="45.8558" lon="4.68955">
        <ele>200</ele>
        <time>2018-03-22T14:35:20Z</time>
      </trkpt>
      <trkpt lat="45.8558" lon="4.68948">
        <ele>200</ele>
        <time>2018-03-22T14:35:21Z</time>
      </trkpt>
      <trkpt lat="45.85579" lon="4.68941">
        <ele>200</ele>
        <time>2018-03-22T14:35:22Z</time>
      </trkpt>
      <trkpt lat="45.85578" lon="4.68934">
        <ele>200</ele>
        <time>2018-03-22T14:35:23Z</time>
      </trkpt>
      <trkpt lat="45.85577" lon="4.68927">
        <ele>200</ele>
        <time>2018-03-22T14:35:24Z</time>
      </trkpt>
      <trkpt lat="45.85576" lon="4.6892">
        <ele>200</ele>
        <time>2018-03-22T14:35:25Z</time>
      </trkpt>
      <trkpt lat="45.85575" lon="4.68913">
        <ele>200</ele>
        <time>2018-03-22T14:35:26Z</time>
      </trkpt>
      <trkpt lat="45.85575" lon="4.68906">
        <ele>200</ele>
        <time>2018-03-22T14:35:27Z</time>
      </trkpt>
      <trkpt lat="45.85574" lon="4.68899">
        <ele>200</ele>
        <time>2018-03-22T14:35:28Z</time>
      </trkpt>
      <trkpt lat="45.85574" lon="4.68893">
        <ele>200</ele>
        <time>2018-03-22T14:35:29Z</time>
      </trkpt>
      <trkpt lat="45.85573" lon="4.68886">
        <ele>200</ele>
        <time>2018-03-22T14:35:30Z</time>
      </trkpt>
      <trkpt lat="45.85572" lon="4.6888">
        <ele>200</ele>
        <time>2018-03-22T14:35:31Z</time>
      </trkpt>
      <trkpt lat="45.85571" lon="4.68868">
        <ele>200</ele>
        <time>2018-03-22T14:35:33Z</time>
      </trkpt>
      <trkpt lat="45.8557" lon="4.68861">
        <ele>200</ele>
        <time>2018-03-22T14:35:34Z</time>
      </trkpt>
      <trkpt lat="45.8557" lon="4.68854">
        <ele>200</ele>
        <time>2018-03-22T14:35:35Z</time>
      </trkpt>
      <trkpt lat="45.85569" lon="4.68848">
        <ele>200</ele>
        <time>2018-03-22T14:35:36Z</time>
      </trkpt>
      <trkpt lat="45.85568" lon="4.68841">
        <ele>200</ele>
        <time>2018-03-22T14:35:37Z</time>
      </trkpt>
      <trkpt lat="45.85567" lon="4.68834">
        <ele>200</ele>
        <time>2018-03-22T14:35:38Z</time>
      </trkpt>
      <trkpt lat="45.85566" lon="4.68827">
        <ele>200</ele>
        <time>2018-03-22T14:35:39Z</time>
      </trkpt>
      <trkpt lat="45.85566" lon="4.6882">
        <ele>200</ele>
        <time>2018-03-22T14:35:40Z</time>
      </trkpt>
      <trkpt lat="45.85566" lon="4.68812">
        <ele>200</ele>
        <time>2018-03-22T14:35:41Z</time>
      </trkpt>
      <trkpt lat="45.85565" lon="4.68804">
        <ele>200</ele>
        <time>2018-03-22T14:35:42Z</time>
      </trkpt>
      <trkpt lat="45.85564" lon="4.68795">
        <ele>200</ele>
        <time>2018-03-22T14:35:43Z</time>
      </trkpt>
      <trkpt lat="45.85563" lon="4.68787">
        <ele>200</ele>
        <time>2018-03-22T14:35:44Z</time>
      </trkpt>
      <trkpt lat="45.85563" lon="4.68779">
        <ele>200</ele>
        <time>2018-03-22T14:35:45Z</time>
      </trkpt>
      <trkpt lat="45.85562" lon="4.68771">
        <ele>200</ele>
        <time>2018-03-22T14:35:46Z</time>
      </trkpt>
      <trkpt lat="45.85562" lon="4.68763">
        <ele>200</ele>
        <time>2018-03-22T14:35:47Z</time>
      </trkpt>
      <trkpt lat="45.85561" lon="4.68755">
        <ele>200</ele>
        <time>2018-03-22T14:35:48Z</time>
      </trkpt>
      <trkpt lat="45.85561" lon="4.68746">
        <ele>200</ele>
        <time>2018-03-22T14:35:49Z</time>
      </trkpt>
      <trkpt lat="45.8556" lon="4.68738">
        <ele>200</ele>
        <time>2018-03-22T14:35:50Z</time>
      </trkpt>
      <trkpt lat="45.85559" lon="4.68731">
        <ele>200</ele>
        <time>2018-03-22T14:35:51Z</time>
      </trkpt>
      <trkpt lat="45.85558" lon="4.68723">
        <ele>200</ele>
        <time>2018-03-22T14:35:52Z</time>
      </trkpt>
      <trkpt lat="45.85557" lon="4.68716">
        <ele>200</ele>
        <time>2018-03-22T14:35:53Z</time>
      </trkpt>
      <trkpt lat="45.85556" lon="4.68708">
        <ele>200</ele>
        <time>2018-03-22T14:35:54Z</time>
      </trkpt>
      <trkpt lat="45.85555" lon="4.68701">
        <ele>200</ele>
        <time>2018-03-22T14:35:55Z</time>
      </trkpt>
      <trkpt lat="45.85555" lon="4.68693">
        <ele>200</ele>
        <time>2018-03-22T14:35:56Z</time>
      </trkpt>
      <trkpt lat="45.85555" lon="4.68684">
        <ele>200</ele>
        <time>2018-03-22T14:35:57Z</time>
      </trkpt>
      <trkpt lat="45.85554" lon="4.68676">
        <ele>200</ele>
        <time>2018-03-22T14:35:58Z</time>
      </trkpt>
      <trkpt lat="45.85553" lon="4.68668">
        <ele>200</ele>
        <time>2018-03-22T14:35:59Z</time>
      </trkpt>
      <trkpt lat="45.85552" lon="4.6866">
        <ele>200</ele>
        <time>2018-03-22T14:36:00Z</time>
      </trkpt>
      <trkpt lat="45.85551" lon="4.68652">
        <ele>201</ele>
        <time>2018-03-22T14:36:01Z</time>
      </trkpt>
      <trkpt lat="45.8555" lon="4.68644">
        <ele>201</ele>
        <time>2018-03-22T14:36:02Z</time>
      </trkpt>
      <trkpt lat="45.85549" lon="4.68637">
        <ele>201</ele>
        <time>2018-03-22T14:36:03Z</time>
      </trkpt>
      <trkpt lat="45.85548" lon="4.68629">
        <ele>201</ele>
        <time>2018-03-22T14:36:04Z</time>
      </trkpt>
      <trkpt lat="45.85548" lon="4.68617">
        <ele>201</ele>
        <time>2018-03-22T14:36:06Z</time>
      </trkpt>
      <trkpt lat="45.85547" lon="4.6861">
        <ele>201</ele>
        <time>2018-03-22T14:36:07Z</time>
      </trkpt>
      <trkpt lat="45.85547" lon="4.68602">
        <ele>201</ele>
        <time>2018-03-22T14:36:08Z</time>
      </trkpt>
      <trkpt lat="45.85547" lon="4.68593">
        <ele>201</ele>
        <time>2018-03-22T14:36:09Z</time>
      </trkpt>
      <trkpt lat="45.85546" lon="4.68586">
        <ele>201</ele>
        <time>2018-03-22T14:36:10Z</time>
      </trkpt>
      <trkpt lat="45.85545" lon="4.68578">
        <ele>201</ele>
        <time>2018-03-22T14:36:11Z</time>
      </trkpt>
      <trkpt lat="45.85544" lon="4.6857">
        <ele>201</ele>
        <time>2018-03-22T14:36:12Z</time>
      </trkpt>
      <trkpt lat="45.85542" lon="4.68562">
        <ele>201</ele>
        <time>2018-03-22T14:36:13Z</time>
      </trkpt>
      <trkpt lat="45.85541" lon="4.68555">
        <ele>201</ele>
        <time>2018-03-22T14:36:14Z</time>
      </trkpt>
      <trkpt lat="45.8554" lon="4.68547">
        <ele>201</ele>
        <time>2018-03-22T14:36:15Z</time>
      </trkpt>
      <trkpt lat="45.85542" lon="4.68539">
        <ele>201</ele>
        <time>2018-03-22T14:36:16Z</time>
      </trkpt>
      <trkpt lat="45.85541" lon="4.6853">
        <ele>201</ele>
        <time>2018-03-22T14:36:17Z</time>
      </trkpt>
      <trkpt lat="45.85541" lon="4.68522">
        <ele>201</ele>
        <time>2018-03-22T14:36:18Z</time>
      </trkpt>
      <trkpt lat="45.85539" lon="4.68515">
        <ele>201</ele>
        <time>2018-03-22T14:36:19Z</time>
      </trkpt>
      <trkpt lat="45.85539" lon="4.68506">
        <ele>201</ele>
        <time>2018-03-22T14:36:20Z</time>
      </trkpt>
      <trkpt lat="45.85538" lon="4.68499">
        <ele>200</ele>
        <time>2018-03-22T14:36:21Z</time>
      </trkpt>
      <trkpt lat="45.85537" lon="4.68491">
        <ele>200</ele>
        <time>2018-03-22T14:36:22Z</time>
      </trkpt>
      <trkpt lat="45.85537" lon="4.68484">
        <ele>200</ele>
        <time>2018-03-22T14:36:23Z</time>
      </trkpt>
      <trkpt lat="45.85536" lon="4.68477">
        <ele>200</ele>
        <time>2018-03-22T14:36:24Z</time>
      </trkpt>
      <trkpt lat="45.85535" lon="4.68469">
        <ele>200</ele>
        <time>2018-03-22T14:36:25Z</time>
      </trkpt>
      <trkpt lat="45.85534" lon="4.68461">
        <ele>200</ele>
        <time>2018-03-22T14:36:26Z</time>
      </trkpt>
      <trkpt lat="45.85534" lon="4.68454">
        <ele>200</ele>
        <time>2018-03-22T14:36:27Z</time>
      </trkpt>
      <trkpt lat="45.85532" lon="4.68447">
        <ele>200</ele>
        <time>2018-03-22T14:36:28Z</time>
      </trkpt>
      <trkpt lat="45.85531" lon="4.6844">
        <ele>200</ele>
        <time>2018-03-22T14:36:29Z</time>
      </trkpt>
      <trkpt lat="45.85531" lon="4.68433">
        <ele>200</ele>
        <time>2018-03-22T14:36:30Z</time>
      </trkpt>
      <trkpt lat="45.85531" lon="4.68426">
        <ele>200</ele>
        <time>2018-03-22T14:36:31Z</time>
      </trkpt>
      <trkpt lat="45.8553" lon="4.68419">
        <ele>200</ele>
        <time>2018-03-22T14:36:32Z</time>
      </trkpt>
      <trkpt lat="45.8553" lon="4.68412">
        <ele>200</ele>
        <time>2018-03-22T14:36:33Z</time>
      </trkpt>
      <trkpt lat="45.85529" lon="4.68405">
        <ele>200</ele>
        <time>2018-03-22T14:36:34Z</time>
      </trkpt>
      <trkpt lat="45.85529" lon="4.68398">
        <ele>200</ele>
        <time>2018-03-22T14:36:35Z</time>
      </trkpt>
      <trkpt lat="45.85528" lon="4.6839">
        <ele>200</ele>
        <time>2018-03-22T14:36:36Z</time>
      </trkpt>
      <trkpt lat="45.85527" lon="4.68383">
        <ele>200</ele>
        <time>2018-03-22T14:36:37Z</time>
      </trkpt>
      <trkpt lat="45.85526" lon="4.68376">
        <ele>201</ele>
        <time>2018-03-22T14:36:38Z</time>
      </trkpt>
      <trkpt lat="45.85525" lon="4.68369">
        <ele>201</ele>
        <time>2018-03-22T14:36:39Z</time>
      </trkpt>
      <trkpt lat="45.85524" lon="4.68362">
        <ele>201</ele>
        <time>2018-03-22T14:36:40Z</time>
      </trkpt>
      <trkpt lat="45.85524" lon="4.68354">
        <ele>201</ele>
        <time>2018-03-22T14:36:41Z</time>
      </trkpt>
      <trkpt lat="45.85524" lon="4.68348">
        <ele>201</ele>
        <time>2018-03-22T14:36:42Z</time>
      </trkpt>
      <trkpt lat="45.85523" lon="4.68339">
        <ele>201</ele>
        <time>2018-03-22T14:36:43Z</time>
      </trkpt>
      <trkpt lat="45.85522" lon="4.68333">
        <ele>202</ele>
        <time>2018-03-22T14:36:44Z</time>
      </trkpt>
      <trkpt lat="45.85521" lon="4.68326">
        <ele>202</ele>
        <time>2018-03-22T14:36:45Z</time>
      </trkpt>
      <trkpt lat="45.8552" lon="4.68319">
        <ele>202</ele>
        <time>2018-03-22T14:36:46Z</time>
      </trkpt>
      <trkpt lat="45.85519" lon="4.68312">
        <ele>202</ele>
        <time>2018-03-22T14:36:47Z</time>
      </trkpt>
      <trkpt lat="45.85518" lon="4.68306">
        <ele>202</ele>
        <time>2018-03-22T14:36:48Z</time>
      </trkpt>
      <trkpt lat="45.85517" lon="4.68299">
        <ele>202</ele>
        <time>2018-03-22T14:36:49Z</time>
      </trkpt>
      <trkpt lat="45.85516" lon="4.68293">
        <ele>202</ele>
        <time>2018-03-22T14:36:50Z</time>
      </trkpt>
      <trkpt lat="45.85516" lon="4.68286">
        <ele>202</ele>
        <time>2018-03-22T14:36:51Z</time>
      </trkpt>
      <trkpt lat="45.85515" lon="4.68279">
        <ele>202</ele>
        <time>2018-03-22T14:36:52Z</time>
      </trkpt>
      <trkpt lat="45.85514" lon="4.68272">
        <ele>202</ele>
        <time>2018-03-22T14:36:53Z</time>
      </trkpt>
      <trkpt lat="45.85515" lon="4.68264">
        <ele>202</ele>
        <time>2018-03-22T14:36:54Z</time>
      </trkpt>
      <trkpt lat="45.85514" lon="4.68256">
        <ele>203</ele>
        <time>2018-03-22T14:36:55Z</time>
      </trkpt>
      <trkpt lat="45.85513" lon="4.68244">
        <ele>203</ele>
        <time>2018-03-22T14:36:57Z</time>
      </trkpt>
      <trkpt lat="45.85512" lon="4.68238">
        <ele>203</ele>
        <time>2018-03-22T14:36:58Z</time>
      </trkpt>
      <trkpt lat="45.85512" lon="4.68231">
        <ele>203</ele>
        <time>2018-03-22T14:36:59Z</time>
      </trkpt>
      <trkpt lat="45.85511" lon="4.68224">
        <ele>203</ele>
        <time>2018-03-22T14:37:00Z</time>
      </trkpt>
      <trkpt lat="45.85511" lon="4.68217">
        <ele>203</ele>
        <time>2018-03-22T14:37:01Z</time>
      </trkpt>
      <trkpt lat="45.85511" lon="4.6821">
        <ele>203</ele>
        <time>2018-03-22T14:37:02Z</time>
      </trkpt>
      <trkpt lat="45.85509" lon="4.68198">
        <ele>203</ele>
        <time>2018-03-22T14:37:04Z</time>
      </trkpt>
      <trkpt lat="45.85508" lon="4.68191">
        <ele>203</ele>
        <time>2018-03-22T14:37:05Z</time>
      </trkpt>
      <trkpt lat="45.85507" lon="4.68184">
        <ele>203</ele>
        <time>2018-03-22T14:37:06Z</time>
      </trkpt>
      <trkpt lat="45.85506" lon="4.68176">
        <ele>204</ele>
        <time>2018-03-22T14:37:07Z</time>
      </trkpt>
      <trkpt lat="45.85505" lon="4.68169">
        <ele>204</ele>
        <time>2018-03-22T14:37:08Z</time>
      </trkpt>
      <trkpt lat="45.85505" lon="4.68161">
        <ele>204</ele>
        <time>2018-03-22T14:37:09Z</time>
      </trkpt>
      <trkpt lat="45.85506" lon="4.68149">
        <ele>203</ele>
        <time>2018-03-22T14:37:11Z</time>
      </trkpt>
      <trkpt lat="45.85506" lon="4.68143">
        <ele>203</ele>
        <time>2018-03-22T14:37:12Z</time>
      </trkpt>
      <trkpt lat="45.85505" lon="4.6813">
        <ele>203</ele>
        <time>2018-03-22T14:37:14Z</time>
      </trkpt>
      <trkpt lat="45.85505" lon="4.68125">
        <ele>203</ele>
        <time>2018-03-22T14:37:15Z</time>
      </trkpt>
      <trkpt lat="45.85504" lon="4.68112">
        <ele>203</ele>
        <time>2018-03-22T14:37:17Z</time>
      </trkpt>
      <trkpt lat="45.85503" lon="4.68106">
        <ele>203</ele>
        <time>2018-03-22T14:37:18Z</time>
      </trkpt>
      <trkpt lat="45.85502" lon="4.68099">
        <ele>203</ele>
        <time>2018-03-22T14:37:19Z</time>
      </trkpt>
      <trkpt lat="45.85501" lon="4.68093">
        <ele>203</ele>
        <time>2018-03-22T14:37:20Z</time>
      </trkpt>
      <trkpt lat="45.855" lon="4.68086">
        <ele>204</ele>
        <time>2018-03-22T14:37:21Z</time>
      </trkpt>
      <trkpt lat="45.85499" lon="4.6808">
        <ele>204</ele>
        <time>2018-03-22T14:37:22Z</time>
      </trkpt>
      <trkpt lat="45.85498" lon="4.68068">
        <ele>205</ele>
        <time>2018-03-22T14:37:24Z</time>
      </trkpt>
      <trkpt lat="45.85497" lon="4.68062">
        <ele>206</ele>
        <time>2018-03-22T14:37:25Z</time>
      </trkpt>
      <trkpt lat="45.85495" lon="4.6805">
        <ele>206</ele>
        <time>2018-03-22T14:37:27Z</time>
      </trkpt>
      <trkpt lat="45.85494" lon="4.68044">
        <ele>206</ele>
        <time>2018-03-22T14:37:28Z</time>
      </trkpt>
      <trkpt lat="45.85494" lon="4.68034">
        <ele>207</ele>
        <time>2018-03-22T14:37:30Z</time>
      </trkpt>
      <trkpt lat="45.85493" lon="4.68028">
        <ele>207</ele>
        <time>2018-03-22T14:37:31Z</time>
      </trkpt>
      <trkpt lat="45.85494" lon="4.68016">
        <ele>207</ele>
        <time>2018-03-22T14:37:33Z</time>
      </trkpt>
      <trkpt lat="45.85495" lon="4.6801">
        <ele>206</ele>
        <time>2018-03-22T14:37:34Z</time>
      </trkpt>
      <trkpt lat="45.85499" lon="4.68">
        <ele>206</ele>
        <time>2018-03-22T14:37:36Z</time>
      </trkpt>
      <trkpt lat="45.85504" lon="4.67996">
        <ele>206</ele>
        <time>2018-03-22T14:37:37Z</time>
      </trkpt>
      <trkpt lat="45.85507" lon="4.67991">
        <ele>206</ele>
        <time>2018-03-22T14:37:38Z</time>
      </trkpt>
      <trkpt lat="45.85511" lon="4.67986">
        <ele>206</ele>
        <time>2018-03-22T14:37:39Z</time>
      </trkpt>
      <trkpt lat="45.85515" lon="4.67983">
        <ele>206</ele>
        <time>2018-03-22T14:37:40Z</time>
      </trkpt>
      <trkpt lat="45.85519" lon="4.67979">
        <ele>206</ele>
        <time>2018-03-22T14:37:41Z</time>
      </trkpt>
      <trkpt lat="45.85523" lon="4.67975">
        <ele>206</ele>
        <time>2018-03-22T14:37:42Z</time>
      </trkpt>
      <trkpt lat="45.85527" lon="4.67971">
        <ele>205</ele>
        <time>2018-03-22T14:37:43Z</time>
      </trkpt>
      <trkpt lat="45.85533" lon="4.67962">
        <ele>205</ele>
        <time>2018-03-22T14:37:46Z</time>
      </trkpt>
      <trkpt lat="45.85535" lon="4.6796">
        <ele>205</ele>
        <time>2018-03-22T14:37:47Z</time>
      </trkpt>
      <trkpt lat="45.85541" lon="4.67952">
        <ele>205</ele>
        <time>2018-03-22T14:37:50Z</time>
      </trkpt>
      <trkpt lat="45.85543" lon="4.6795">
        <ele>205</ele>
        <time>2018-03-22T14:37:51Z</time>
      </trkpt>
      <trkpt lat="45.85549" lon="4.67944">
        <ele>205</ele>
        <time>2018-03-22T14:37:54Z</time>
      </trkpt>
      <trkpt lat="45.85551" lon="4.67942">
        <ele>205</ele>
        <time>2018-03-22T14:37:55Z</time>
      </trkpt>
      <trkpt lat="45.85559" lon="4.67936">
        <ele>205</ele>
        <time>2018-03-22T14:37:59Z</time>
      </trkpt>
      <trkpt lat="45.85561" lon="4.67934">
        <ele>205</ele>
        <time>2018-03-22T14:38:00Z</time>
      </trkpt>
      <trkpt lat="45.85566" lon="4.67932">
        <ele>205</ele>
        <time>2018-03-22T14:38:02Z</time>
      </trkpt>
      <trkpt lat="45.85573" lon="4.67927">
        <ele>205</ele>
        <time>2018-03-22T14:38:03Z</time>
      </trkpt>
      <trkpt lat="45.85575" lon="4.67917">
        <ele>204</ele>
        <time>2018-03-22T14:38:05Z</time>
      </trkpt>
      <trkpt lat="45.85575" lon="4.67911">
        <ele>205</ele>
        <time>2018-03-22T14:38:06Z</time>
      </trkpt>
      <trkpt lat="45.85574" lon="4.679">
        <ele>206</ele>
        <time>2018-03-22T14:38:08Z</time>
      </trkpt>
      <trkpt lat="45.85574" lon="4.67894">
        <ele>206</ele>
        <time>2018-03-22T14:38:09Z</time>
      </trkpt>
      <trkpt lat="45.85576" lon="4.67886">
        <ele>206</ele>
        <time>2018-03-22T14:38:10Z</time>
      </trkpt>
      <trkpt lat="45.85576" lon="4.67878">
        <ele>206</ele>
        <time>2018-03-22T14:38:11Z</time>
      </trkpt>
      <trkpt lat="45.85576" lon="4.67871">
        <ele>206</ele>
        <time>2018-03-22T14:38:12Z</time>
      </trkpt>
      <trkpt lat="45.85576" lon="4.67864">
        <ele>206</ele>
        <time>2018-03-22T14:38:13Z</time>
      </trkpt>
      <trkpt lat="45.85577" lon="4.67857">
        <ele>206</ele>
        <time>2018-03-22T14:38:14Z</time>
      </trkpt>
      <trkpt lat="45.85577" lon="4.67848">
        <ele>206</ele>
        <time>2018-03-22T14:38:15Z</time>
      </trkpt>
      <trkpt lat="45.85579" lon="4.67842">
        <ele>206</ele>
        <time>2018-03-22T14:38:16Z</time>
      </trkpt>
      <trkpt lat="45.8558" lon="4.67834">
        <ele>205</ele>
        <time>2018-03-22T14:38:17Z</time>
      </trkpt>
      <trkpt lat="45.85582" lon="4.67827">
        <ele>205</ele>
        <time>2018-03-22T14:38:18Z</time>
      </trkpt>
      <trkpt lat="45.85583" lon="4.67819">
        <ele>206</ele>
        <time>2018-03-22T14:38:19Z</time>
      </trkpt>
      <trkpt lat="45.85585" lon="4.67814">
        <ele>209</ele>
        <time>2018-03-22T14:38:20Z</time>
      </trkpt>
      <trkpt lat="45.85587" lon="4.67807">
        <ele>209</ele>
        <time>2018-03-22T14:38:21Z</time>
      </trkpt>
      <trkpt lat="45.85589" lon="4.678">
        <ele>210</ele>
        <time>2018-03-22T14:38:22Z</time>
      </trkpt>
      <trkpt lat="45.8559" lon="4.67792">
        <ele>210</ele>
        <time>2018-03-22T14:38:23Z</time>
      </trkpt>
      <trkpt lat="45.85593" lon="4.67784">
        <ele>210</ele>
        <time>2018-03-22T14:38:24Z</time>
      </trkpt>
      <trkpt lat="45.85596" lon="4.67778">
        <ele>209</ele>
        <time>2018-03-22T14:38:25Z</time>
      </trkpt>
      <trkpt lat="45.85597" lon="4.67771">
        <ele>209</ele>
        <time>2018-03-22T14:38:26Z</time>
      </trkpt>
      <trkpt lat="45.85599" lon="4.67765">
        <ele>209</ele>
        <time>2018-03-22T14:38:27Z</time>
      </trkpt>
      <trkpt lat="45.85601" lon="4.67758">
        <ele>208</ele>
        <time>2018-03-22T14:38:28Z</time>
      </trkpt>
      <trkpt lat="45.85604" lon="4.67752">
        <ele>209</ele>
        <time>2018-03-22T14:38:29Z</time>
      </trkpt>
      <trkpt lat="45.85607" lon="4.67745">
        <ele>208</ele>
        <time>2018-03-22T14:38:30Z</time>
      </trkpt>
      <trkpt lat="45.85611" lon="4.67739">
        <ele>208</ele>
        <time>2018-03-22T14:38:31Z</time>
      </trkpt>
      <trkpt lat="45.85615" lon="4.67733">
        <ele>209</ele>
        <time>2018-03-22T14:38:32Z</time>
      </trkpt>
      <trkpt lat="45.85619" lon="4.67728">
        <ele>209</ele>
        <time>2018-03-22T14:38:33Z</time>
      </trkpt>
      <trkpt lat="45.85623" lon="4.67722">
        <ele>209</ele>
        <time>2018-03-22T14:38:34Z</time>
      </trkpt>
      <trkpt lat="45.85627" lon="4.67717">
        <ele>209</ele>
        <time>2018-03-22T14:38:35Z</time>
      </trkpt>
      <trkpt lat="45.8563" lon="4.67713">
        <ele>210</ele>
        <time>2018-03-22T14:38:36Z</time>
      </trkpt>
      <trkpt lat="45.85634" lon="4.67708">
        <ele>210</ele>
        <time>2018-03-22T14:38:37Z</time>
      </trkpt>
      <trkpt lat="45.85639" lon="4.67703">
        <ele>210</ele>
        <time>2018-03-22T14:38:38Z</time>
      </trkpt>
      <trkpt lat="45.85644" lon="4.67698">
        <ele>210</ele>
        <time>2018-03-22T14:38:39Z</time>
      </trkpt>
      <trkpt lat="45.85648" lon="4.67695">
        <ele>210</ele>
        <time>2018-03-22T14:38:40Z</time>
      </trkpt>
      <trkpt lat="45.85653" lon="4.67691">
        <ele>210</ele>
        <time>2018-03-22T14:38:41Z</time>
      </trkpt>
      <trkpt lat="45.85657" lon="4.67687">
        <ele>210</ele>
        <time>2018-03-22T14:38:42Z</time>
      </trkpt>
      <trkpt lat="45.85662" lon="4.67683">
        <ele>209</ele>
        <time>2018-03-22T14:38:43Z</time>
      </trkpt>
      <trkpt lat="45.85667" lon="4.6768">
        <ele>215</ele>
        <time>2018-03-22T14:38:44Z</time>
      </trkpt>
      <trkpt lat="45.85672" lon="4.67677">
        <ele>214</ele>
        <time>2018-03-22T14:38:45Z</time>
      </trkpt>
      <trkpt lat="45.85676" lon="4.67673">
        <ele>214</ele>
        <time>2018-03-22T14:38:46Z</time>
      </trkpt>
      <trkpt lat="45.85681" lon="4.67671">
        <ele>215</ele>
        <time>2018-03-22T14:38:47Z</time>
      </trkpt>
      <trkpt lat="45.85685" lon="4.67668">
        <ele>216</ele>
        <time>2018-03-22T14:38:48Z</time>
      </trkpt>
      <trkpt lat="45.8569" lon="4.67665">
        <ele>211</ele>
        <time>2018-03-22T14:38:49Z</time>
      </trkpt>
      <trkpt lat="45.85695" lon="4.67662">
        <ele>211</ele>
        <time>2018-03-22T14:38:50Z</time>
      </trkpt>
      <trkpt lat="45.857" lon="4.6766">
        <ele>211</ele>
        <time>2018-03-22T14:38:51Z</time>
      </trkpt>
      <trkpt lat="45.85705" lon="4.67657">
        <ele>212</ele>
        <time>2018-03-22T14:38:52Z</time>
      </trkpt>
      <trkpt lat="45.8571" lon="4.67654">
        <ele>212</ele>
        <time>2018-03-22T14:38:53Z</time>
      </trkpt>
      <trkpt lat="45.85715" lon="4.6765">
        <ele>213</ele>
        <time>2018-03-22T14:38:54Z</time>
      </trkpt>
      <trkpt lat="45.85719" lon="4.67647">
        <ele>213</ele>
        <time>2018-03-22T14:38:55Z</time>
      </trkpt>
      <trkpt lat="45.85724" lon="4.67644">
        <ele>213</ele>
        <time>2018-03-22T14:38:56Z</time>
      </trkpt>
      <trkpt lat="45.85729" lon="4.67641">
        <ele>213</ele>
        <time>2018-03-22T14:38:57Z</time>
      </trkpt>
      <trkpt lat="45.85734" lon="4.67638">
        <ele>213</ele>
        <time>2018-03-22T14:38:58Z</time>
      </trkpt>
      <trkpt lat="45.85739" lon="4.67635">
        <ele>213</ele>
        <time>2018-03-22T14:38:59Z</time>
      </trkpt>
      <trkpt lat="45.85743" lon="4.67632">
        <ele>213</ele>
        <time>2018-03-22T14:39:00Z</time>
      </trkpt>
      <trkpt lat="45.85748" lon="4.67629">
        <ele>212</ele>
        <time>2018-03-22T14:39:01Z</time>
      </trkpt>
      <trkpt lat="45.85753" lon="4.67626">
        <ele>220</ele>
        <time>2018-03-22T14:39:02Z</time>
      </trkpt>
      <trkpt lat="45.85758" lon="4.67623">
        <ele>219</ele>
        <time>2018-03-22T14:39:03Z</time>
      </trkpt>
      <trkpt lat="45.85763" lon="4.67619">
        <ele>219</ele>
        <time>2018-03-22T14:39:04Z</time>
      </trkpt>
      <trkpt lat="45.85767" lon="4.67614">
        <ele>219</ele>
        <time>2018-03-22T14:39:05Z</time>
      </trkpt>
      <trkpt lat="45.85771" lon="4.6761">
        <ele>219</ele>
        <time>2018-03-22T14:39:06Z</time>
      </trkpt>
      <trkpt lat="45.85776" lon="4.67606">
        <ele>219</ele>
        <time>2018-03-22T14:39:07Z</time>
      </trkpt>
      <trkpt lat="45.85781" lon="4.67603">
        <ele>219</ele>
        <time>2018-03-22T14:39:08Z</time>
      </trkpt>
      <trkpt lat="45.85785" lon="4.67599">
        <ele>219</ele>
        <time>2018-03-22T14:39:09Z</time>
      </trkpt>
      <trkpt lat="45.8579" lon="4.67594">
        <ele>220</ele>
        <time>2018-03-22T14:39:10Z</time>
      </trkpt>
      <trkpt lat="45.85794" lon="4.67591">
        <ele>220</ele>
        <time>2018-03-22T14:39:11Z</time>
      </trkpt>
      <trkpt lat="45.85798" lon="4.67586">
        <ele>220</ele>
        <time>2018-03-22T14:39:12Z</time>
      </trkpt>
      <trkpt lat="45.85802" lon="4.67581">
        <ele>213</ele>
        <time>2018-03-22T14:39:13Z</time>
      </trkpt>
      <trkpt lat="45.85807" lon="4.67578">
        <ele>213</ele>
        <time>2018-03-22T14:39:14Z</time>
      </trkpt>
      <trkpt lat="45.85811" lon="4.67573">
        <ele>214</ele>
        <time>2018-03-22T14:39:15Z</time>
      </trkpt>
      <trkpt lat="45.85815" lon="4.67569">
        <ele>214</ele>
        <time>2018-03-22T14:39:16Z</time>
      </trkpt>
      <trkpt lat="45.85819" lon="4.67564">
        <ele>214</ele>
        <time>2018-03-22T14:39:17Z</time>
      </trkpt>
      <trkpt lat="45.85823" lon="4.67558">
        <ele>213</ele>
        <time>2018-03-22T14:39:18Z</time>
      </trkpt>
      <trkpt lat="45.85826" lon="4.67552">
        <ele>212</ele>
        <time>2018-03-22T14:39:19Z</time>
      </trkpt>
      <trkpt lat="45.8583" lon="4.67547">
        <ele>212</ele>
        <time>2018-03-22T14:39:20Z</time>
      </trkpt>
      <trkpt lat="45.85832" lon="4.67541">
        <ele>211</ele>
        <time>2018-03-22T14:39:21Z</time>
      </trkpt>
      <trkpt lat="45.85836" lon="4.67535">
        <ele>221</ele>
        <time>2018-03-22T14:39:22Z</time>
      </trkpt>
      <trkpt lat="45.8584" lon="4.67529">
        <ele>220</ele>
        <time>2018-03-22T14:39:23Z</time>
      </trkpt>
      <trkpt lat="45.85843" lon="4.67524">
        <ele>219</ele>
        <time>2018-03-22T14:39:24Z</time>
      </trkpt>
      <trkpt lat="45.85845" lon="4.67517">
        <ele>217</ele>
        <time>2018-03-22T14:39:25Z</time>
      </trkpt>
      <trkpt lat="45.85847" lon="4.6751">
        <ele>216</ele>
        <time>2018-03-22T14:39:26Z</time>
      </trkpt>
      <trkpt lat="45.85849" lon="4.67504">
        <ele>216</ele>
        <time>2018-03-22T14:39:27Z</time>
      </trkpt>
      <trkpt lat="45.85851" lon="4.67498">
        <ele>211</ele>
        <time>2018-03-22T14:39:28Z</time>
      </trkpt>
      <trkpt lat="45.85853" lon="4.67491">
        <ele>212</ele>
        <time>2018-03-22T14:39:29Z</time>
      </trkpt>
      <trkpt lat="45.85856" lon="4.67485">
        <ele>213</ele>
        <time>2018-03-22T14:39:30Z</time>
      </trkpt>
      <trkpt lat="45.85857" lon="4.67479">
        <ele>213</ele>
        <time>2018-03-22T14:39:31Z</time>
      </trkpt>
      <trkpt lat="45.85859" lon="4.67472">
        <ele>213</ele>
        <time>2018-03-22T14:39:32Z</time>
      </trkpt>
      <trkpt lat="45.8586" lon="4.67466">
        <ele>213</ele>
        <time>2018-03-22T14:39:33Z</time>
      </trkpt>
      <trkpt lat="45.85862" lon="4.67459">
        <ele>213</ele>
        <time>2018-03-22T14:39:34Z</time>
      </trkpt>
      <trkpt lat="45.85863" lon="4.67452">
        <ele>213</ele>
        <time>2018-03-22T14:39:35Z</time>
      </trkpt>
      <trkpt lat="45.85864" lon="4.67446">
        <ele>213</ele>
        <time>2018-03-22T14:39:36Z</time>
      </trkpt>
      <trkpt lat="45.85865" lon="4.67439">
        <ele>213</ele>
        <time>2018-03-22T14:39:37Z</time>
      </trkpt>
      <trkpt lat="45.85866" lon="4.67431">
        <ele>213</ele>
        <time>2018-03-22T14:39:38Z</time>
      </trkpt>
      <trkpt lat="45.85867" lon="4.67424">
        <ele>213</ele>
        <time>2018-03-22T14:39:39Z</time>
      </trkpt>
      <trkpt lat="45.85868" lon="4.67416">
        <ele>209</ele>
        <time>2018-03-22T14:39:40Z</time>
      </trkpt>
      <trkpt lat="45.85868" lon="4.67408">
        <ele>209</ele>
        <time>2018-03-22T14:39:41Z</time>
      </trkpt>
      <trkpt lat="45.85868" lon="4.67401">
        <ele>209</ele>
        <time>2018-03-22T14:39:42Z</time>
      </trkpt>
      <trkpt lat="45.85869" lon="4.67391">
        <ele>209</ele>
        <time>2018-03-22T14:39:43Z</time>
      </trkpt>
      <trkpt lat="45.85869" lon="4.67383">
        <ele>209</ele>
        <time>2018-03-22T14:39:44Z</time>
      </trkpt>
      <trkpt lat="45.85871" lon="4.67376">
        <ele>209</ele>
        <time>2018-03-22T14:39:45Z</time>
      </trkpt>
      <trkpt lat="45.85871" lon="4.67369">
        <ele>209</ele>
        <time>2018-03-22T14:39:46Z</time>
      </trkpt>
      <trkpt lat="45.85872" lon="4.67361">
        <ele>209</ele>
        <time>2018-03-22T14:39:47Z</time>
      </trkpt>
      <trkpt lat="45.85873" lon="4.67354">
        <ele>208</ele>
        <time>2018-03-22T14:39:48Z</time>
      </trkpt>
      <trkpt lat="45.85873" lon="4.67346">
        <ele>208</ele>
        <time>2018-03-22T14:39:49Z</time>
      </trkpt>
      <trkpt lat="45.85874" lon="4.6734">
        <ele>208</ele>
        <time>2018-03-22T14:39:50Z</time>
      </trkpt>
      <trkpt lat="45.85874" lon="4.67333">
        <ele>206</ele>
        <time>2018-03-22T14:39:51Z</time>
      </trkpt>
      <trkpt lat="45.85876" lon="4.67326">
        <ele>206</ele>
        <time>2018-03-22T14:39:52Z</time>
      </trkpt>
      <trkpt lat="45.85877" lon="4.67321">
        <ele>206</ele>
        <time>2018-03-22T14:39:53Z</time>
      </trkpt>
      <trkpt lat="45.85878" lon="4.67313">
        <ele>206</ele>
        <time>2018-03-22T14:39:54Z</time>
      </trkpt>
      <trkpt lat="45.85878" lon="4.67306">
        <ele>206</ele>
        <time>2018-03-22T14:39:55Z</time>
      </trkpt>
      <trkpt lat="45.85879" lon="4.67299">
        <ele>206</ele>
        <time>2018-03-22T14:39:56Z</time>
      </trkpt>
      <trkpt lat="45.8588" lon="4.67292">
        <ele>205</ele>
        <time>2018-03-22T14:39:57Z</time>
      </trkpt>
      <trkpt lat="45.85881" lon="4.67284">
        <ele>205</ele>
        <time>2018-03-22T14:39:58Z</time>
      </trkpt>
      <trkpt lat="45.85881" lon="4.67275">
        <ele>205</ele>
        <time>2018-03-22T14:39:59Z</time>
      </trkpt>
      <trkpt lat="45.85881" lon="4.67268">
        <ele>205</ele>
        <time>2018-03-22T14:40:00Z</time>
      </trkpt>
      <trkpt lat="45.85882" lon="4.6726">
        <ele>205</ele>
        <time>2018-03-22T14:40:01Z</time>
      </trkpt>
      <trkpt lat="45.85883" lon="4.67253">
        <ele>205</ele>
        <time>2018-03-22T14:40:02Z</time>
      </trkpt>
      <trkpt lat="45.85883" lon="4.67246">
        <ele>204</ele>
        <time>2018-03-22T14:40:03Z</time>
      </trkpt>
      <trkpt lat="45.85884" lon="4.67237">
        <ele>204</ele>
        <time>2018-03-22T14:40:04Z</time>
      </trkpt>
      <trkpt lat="45.85885" lon="4.6723">
        <ele>204</ele>
        <time>2018-03-22T14:40:05Z</time>
      </trkpt>
      <trkpt lat="45.85885" lon="4.67223">
        <ele>204</ele>
        <time>2018-03-22T14:40:06Z</time>
      </trkpt>
      <trkpt lat="45.85886" lon="4.67216">
        <ele>204</ele>
        <time>2018-03-22T14:40:07Z</time>
      </trkpt>
      <trkpt lat="45.85887" lon="4.67209">
        <ele>204</ele>
        <time>2018-03-22T14:40:08Z</time>
      </trkpt>
      <trkpt lat="45.85888" lon="4.67202">
        <ele>204</ele>
        <time>2018-03-22T14:40:09Z</time>
      </trkpt>
      <trkpt lat="45.85887" lon="4.67195">
        <ele>204</ele>
        <time>2018-03-22T14:40:10Z</time>
      </trkpt>
      <trkpt lat="45.85888" lon="4.67187">
        <ele>204</ele>
        <time>2018-03-22T14:40:11Z</time>
      </trkpt>
      <trkpt lat="45.85888" lon="4.6718">
        <ele>204</ele>
        <time>2018-03-22T14:40:12Z</time>
      </trkpt>
      <trkpt lat="45.85889" lon="4.67173">
        <ele>205</ele>
        <time>2018-03-22T14:40:13Z</time>
      </trkpt>
      <trkpt lat="45.85891" lon="4.67166">
        <ele>204</ele>
        <time>2018-03-22T14:40:14Z</time>
      </trkpt>
      <trkpt lat="45.85892" lon="4.67158">
        <ele>204</ele>
        <time>2018-03-22T14:40:15Z</time>
      </trkpt>
      <trkpt lat="45.85894" lon="4.67152">
        <ele>204</ele>
        <time>2018-03-22T14:40:16Z</time>
      </trkpt>
      <trkpt lat="45.85895" lon="4.67146">
        <ele>204</ele>
        <time>2018-03-22T14:40:17Z</time>
      </trkpt>
      <trkpt lat="45.85895" lon="4.67138">
        <ele>204</ele>
        <time>2018-03-22T14:40:18Z</time>
      </trkpt>
      <trkpt lat="45.85896" lon="4.6713">
        <ele>204</ele>
        <time>2018-03-22T14:40:19Z</time>
      </trkpt>
      <trkpt lat="45.85896" lon="4.67123">
        <ele>204</ele>
        <time>2018-03-22T14:40:20Z</time>
      </trkpt>
      <trkpt lat="45.85896" lon="4.67115">
        <ele>204</ele>
        <time>2018-03-22T14:40:21Z</time>
      </trkpt>
      <trkpt lat="45.85897" lon="4.67107">
        <ele>204</ele>
        <time>2018-03-22T14:40:22Z</time>
      </trkpt>
      <trkpt lat="45.85898" lon="4.671">
        <ele>204</ele>
        <time>2018-03-22T14:40:23Z</time>
      </trkpt>
      <trkpt lat="45.85898" lon="4.67093">
        <ele>204</ele>
        <time>2018-03-22T14:40:24Z</time>
      </trkpt>
      <trkpt lat="45.85899" lon="4.67086">
        <ele>204</ele>
        <time>2018-03-22T14:40:25Z</time>
      </trkpt>
      <trkpt lat="45.859" lon="4.67079">
        <ele>204</ele>
        <time>2018-03-22T14:40:26Z</time>
      </trkpt>
      <trkpt lat="45.85901" lon="4.67072">
        <ele>205</ele>
        <time>2018-03-22T14:40:27Z</time>
      </trkpt>
      <trkpt lat="45.85902" lon="4.67064">
        <ele>205</ele>
        <time>2018-03-22T14:40:28Z</time>
      </trkpt>
      <trkpt lat="45.85903" lon="4.67058">
        <ele>205</ele>
        <time>2018-03-22T14:40:29Z</time>
      </trkpt>
      <trkpt lat="45.85904" lon="4.6705">
        <ele>205</ele>
        <time>2018-03-22T14:40:30Z</time>
      </trkpt>
      <trkpt lat="45.85905" lon="4.67044">
        <ele>205</ele>
        <time>2018-03-22T14:40:31Z</time>
      </trkpt>
      <trkpt lat="45.85906" lon="4.67037">
        <ele>205</ele>
        <time>2018-03-22T14:40:32Z</time>
      </trkpt>
      <trkpt lat="45.85907" lon="4.6703">
        <ele>205</ele>
        <time>2018-03-22T14:40:33Z</time>
      </trkpt>
      <trkpt lat="45.85908" lon="4.67024">
        <ele>205</ele>
        <time>2018-03-22T14:40:34Z</time>
      </trkpt>
      <trkpt lat="45.85909" lon="4.67018">
        <ele>205</ele>
        <time>2018-03-22T14:40:35Z</time>
      </trkpt>
      <trkpt lat="45.85911" lon="4.67011">
        <ele>206</ele>
        <time>2018-03-22T14:40:36Z</time>
      </trkpt>
      <trkpt lat="45.85913" lon="4.67005">
        <ele>206</ele>
        <time>2018-03-22T14:40:37Z</time>
      </trkpt>
      <trkpt lat="45.85917" lon="4.66996">
        <ele>207</ele>
        <time>2018-03-22T14:40:39Z</time>
      </trkpt>
      <trkpt lat="45.8592" lon="4.66992">
        <ele>207</ele>
        <time>2018-03-22T14:40:40Z</time>
      </trkpt>
      <trkpt lat="45.85923" lon="4.66981">
        <ele>208</ele>
        <time>2018-03-22T14:40:42Z</time>
      </trkpt>
      <trkpt lat="45.85924" lon="4.66973">
        <ele>208</ele>
        <time>2018-03-22T14:40:43Z</time>
      </trkpt>
      <trkpt lat="45.85923" lon="4.66966">
        <ele>209</ele>
        <time>2018-03-22T14:40:44Z</time>
      </trkpt>
      <trkpt lat="45.85922" lon="4.66957">
        <ele>209</ele>
        <time>2018-03-22T14:40:45Z</time>
      </trkpt>
      <trkpt lat="45.85922" lon="4.66947">
        <ele>209</ele>
        <time>2018-03-22T14:40:46Z</time>
      </trkpt>
      <trkpt lat="45.85922" lon="4.66938">
        <ele>208</ele>
        <time>2018-03-22T14:40:47Z</time>
      </trkpt>
      <trkpt lat="45.85923" lon="4.66929">
        <ele>208</ele>
        <time>2018-03-22T14:40:48Z</time>
      </trkpt>
      <trkpt lat="45.85924" lon="4.66921">
        <ele>208</ele>
        <time>2018-03-22T14:40:49Z</time>
      </trkpt>
      <trkpt lat="45.85926" lon="4.66913">
        <ele>208</ele>
        <time>2018-03-22T14:40:50Z</time>
      </trkpt>
      <trkpt lat="45.85928" lon="4.66905">
        <ele>209</ele>
        <time>2018-03-22T14:40:51Z</time>
      </trkpt>
      <trkpt lat="45.8593" lon="4.66898">
        <ele>209</ele>
        <time>2018-03-22T14:40:52Z</time>
      </trkpt>
      <trkpt lat="45.85932" lon="4.66891">
        <ele>210</ele>
        <time>2018-03-22T14:40:53Z</time>
      </trkpt>
      <trkpt lat="45.85934" lon="4.66882">
        <ele>210</ele>
        <time>2018-03-22T14:40:54Z</time>
      </trkpt>
      <trkpt lat="45.85935" lon="4.66875">
        <ele>210</ele>
        <time>2018-03-22T14:40:55Z</time>
      </trkpt>
      <trkpt lat="45.85936" lon="4.66868">
        <ele>210</ele>
        <time>2018-03-22T14:40:56Z</time>
      </trkpt>
      <trkpt lat="45.85938" lon="4.66861">
        <ele>210</ele>
        <time>2018-03-22T14:40:57Z</time>
      </trkpt>
      <trkpt lat="45.8594" lon="4.66854">
        <ele>210</ele>
        <time>2018-03-22T14:40:58Z</time>
      </trkpt>
      <trkpt lat="45.85943" lon="4.66845">
        <ele>210</ele>
        <time>2018-03-22T14:40:59Z</time>
      </trkpt>
      <trkpt lat="45.85945" lon="4.66838">
        <ele>210</ele>
        <time>2018-03-22T14:41:00Z</time>
      </trkpt>
      <trkpt lat="45.85947" lon="4.6683">
        <ele>212</ele>
        <time>2018-03-22T14:41:01Z</time>
      </trkpt>
      <trkpt lat="45.8595" lon="4.66823">
        <ele>212</ele>
        <time>2018-03-22T14:41:02Z</time>
      </trkpt>
      <trkpt lat="45.85951" lon="4.66816">
        <ele>213</ele>
        <time>2018-03-22T14:41:03Z</time>
      </trkpt>
      <trkpt lat="45.85954" lon="4.66809">
        <ele>213</ele>
        <time>2018-03-22T14:41:04Z</time>
      </trkpt>
      <trkpt lat="45.85956" lon="4.66801">
        <ele>213</ele>
        <time>2018-03-22T14:41:05Z</time>
      </trkpt>
      <trkpt lat="45.85958" lon="4.66795">
        <ele>213</ele>
        <time>2018-03-22T14:41:06Z</time>
      </trkpt>
      <trkpt lat="45.8596" lon="4.66789">
        <ele>213</ele>
        <time>2018-03-22T14:41:07Z</time>
      </trkpt>
      <trkpt lat="45.85962" lon="4.66782">
        <ele>214</ele>
        <time>2018-03-22T14:41:08Z</time>
      </trkpt>
      <trkpt lat="45.85965" lon="4.66775">
        <ele>214</ele>
        <time>2018-03-22T14:41:09Z</time>
      </trkpt>
      <trkpt lat="45.85967" lon="4.66768">
        <ele>214</ele>
        <time>2018-03-22T14:41:10Z</time>
      </trkpt>
      <trkpt lat="45.8597" lon="4.66762">
        <ele>214</ele>
        <time>2018-03-22T14:41:11Z</time>
      </trkpt>
      <trkpt lat="45.85973" lon="4.66756">
        <ele>214</ele>
        <time>2018-03-22T14:41:12Z</time>
      </trkpt>
      <trkpt lat="45.85976" lon="4.6675">
        <ele>216</ele>
        <time>2018-03-22T14:41:13Z</time>
      </trkpt>
      <trkpt lat="45.85978" lon="4.66744">
        <ele>216</ele>
        <time>2018-03-22T14:41:14Z</time>
      </trkpt>
      <trkpt lat="45.85981" lon="4.66737">
        <ele>216</ele>
        <time>2018-03-22T14:41:15Z</time>
      </trkpt>
      <trkpt lat="45.85983" lon="4.66732">
        <ele>216</ele>
        <time>2018-03-22T14:41:16Z</time>
      </trkpt>
      <trkpt lat="45.85985" lon="4.66725">
        <ele>216</ele>
        <time>2018-03-22T14:41:17Z</time>
      </trkpt>
      <trkpt lat="45.85988" lon="4.66719">
        <ele>215</ele>
        <time>2018-03-22T14:41:18Z</time>
      </trkpt>
      <trkpt lat="45.8599" lon="4.66714">
        <ele>215</ele>
        <time>2018-03-22T14:41:19Z</time>
      </trkpt>
      <trkpt lat="45.85994" lon="4.66709">
        <ele>215</ele>
        <time>2018-03-22T14:41:20Z</time>
      </trkpt>
      <trkpt lat="45.85997" lon="4.66704">
        <ele>215</ele>
        <time>2018-03-22T14:41:21Z</time>
      </trkpt>
      <trkpt lat="45.86001" lon="4.66699">
        <ele>219</ele>
        <time>2018-03-22T14:41:22Z</time>
      </trkpt>
      <trkpt lat="45.86003" lon="4.66694">
        <ele>218</ele>
        <time>2018-03-22T14:41:23Z</time>
      </trkpt>
      <trkpt lat="45.86006" lon="4.66688">
        <ele>217</ele>
        <time>2018-03-22T14:41:24Z</time>
      </trkpt>
      <trkpt lat="45.8601" lon="4.66683">
        <ele>217</ele>
        <time>2018-03-22T14:41:25Z</time>
      </trkpt>
      <trkpt lat="45.86016" lon="4.66674">
        <ele>217</ele>
        <time>2018-03-22T14:41:27Z</time>
      </trkpt>
      <trkpt lat="45.86019" lon="4.6667">
        <ele>217</ele>
        <time>2018-03-22T14:41:28Z</time>
      </trkpt>
      <trkpt lat="45.86024" lon="4.66668">
        <ele>218</ele>
        <time>2018-03-22T14:41:29Z</time>
      </trkpt>
      <trkpt lat="45.86027" lon="4.66664">
        <ele>213</ele>
        <time>2018-03-22T14:41:30Z</time>
      </trkpt>
      <trkpt lat="45.86031" lon="4.6666">
        <ele>214</ele>
        <time>2018-03-22T14:41:31Z</time>
      </trkpt>
      <trkpt lat="45.86035" lon="4.66656">
        <ele>214</ele>
        <time>2018-03-22T14:41:32Z</time>
      </trkpt>
      <trkpt lat="45.86039" lon="4.66651">
        <ele>214</ele>
        <time>2018-03-22T14:41:33Z</time>
      </trkpt>
      <trkpt lat="45.86043" lon="4.66647">
        <ele>214</ele>
        <time>2018-03-22T14:41:34Z</time>
      </trkpt>
      <trkpt lat="45.86047" lon="4.66643">
        <ele>215</ele>
        <time>2018-03-22T14:41:35Z</time>
      </trkpt>
      <trkpt lat="45.8605" lon="4.66639">
        <ele>215</ele>
        <time>2018-03-22T14:41:36Z</time>
      </trkpt>
      <trkpt lat="45.86055" lon="4.66635">
        <ele>215</ele>
        <time>2018-03-22T14:41:37Z</time>
      </trkpt>
      <trkpt lat="45.86059" lon="4.6663">
        <ele>214</ele>
        <time>2018-03-22T14:41:38Z</time>
      </trkpt>
      <trkpt lat="45.86064" lon="4.66626">
        <ele>214</ele>
        <time>2018-03-22T14:41:39Z</time>
      </trkpt>
      <trkpt lat="45.86068" lon="4.66623">
        <ele>214</ele>
        <time>2018-03-22T14:41:40Z</time>
      </trkpt>
      <trkpt lat="45.86073" lon="4.66619">
        <ele>214</ele>
        <time>2018-03-22T14:41:41Z</time>
      </trkpt>
      <trkpt lat="45.86077" lon="4.66617">
        <ele>214</ele>
        <time>2018-03-22T14:41:42Z</time>
      </trkpt>
      <trkpt lat="45.86082" lon="4.66614">
        <ele>213</ele>
        <time>2018-03-22T14:41:43Z</time>
      </trkpt>
      <trkpt lat="45.86087" lon="4.66611">
        <ele>219</ele>
        <time>2018-03-22T14:41:44Z</time>
      </trkpt>
      <trkpt lat="45.86091" lon="4.66608">
        <ele>219</ele>
        <time>2018-03-22T14:41:45Z</time>
      </trkpt>
      <trkpt lat="45.86096" lon="4.66606">
        <ele>219</ele>
        <time>2018-03-22T14:41:46Z</time>
      </trkpt>
      <trkpt lat="45.86101" lon="4.66603">
        <ele>219</ele>
        <time>2018-03-22T14:41:47Z</time>
      </trkpt>
      <trkpt lat="45.86106" lon="4.666">
        <ele>220</ele>
        <time>2018-03-22T14:41:48Z</time>
      </trkpt>
      <trkpt lat="45.86111" lon="4.66598">
        <ele>220</ele>
        <time>2018-03-22T14:41:49Z</time>
      </trkpt>
      <trkpt lat="45.86115" lon="4.66595">
        <ele>220</ele>
        <time>2018-03-22T14:41:50Z</time>
      </trkpt>
      <trkpt lat="45.8612" lon="4.66592">
        <ele>221</ele>
        <time>2018-03-22T14:41:51Z</time>
      </trkpt>
      <trkpt lat="45.86124" lon="4.66589">
        <ele>221</ele>
        <time>2018-03-22T14:41:52Z</time>
      </trkpt>
      <trkpt lat="45.86128" lon="4.66586">
        <ele>222</ele>
        <time>2018-03-22T14:41:53Z</time>
      </trkpt>
      <trkpt lat="45.86132" lon="4.66583">
        <ele>215</ele>
        <time>2018-03-22T14:41:54Z</time>
      </trkpt>
      <trkpt lat="45.86136" lon="4.66579">
        <ele>215</ele>
        <time>2018-03-22T14:41:55Z</time>
      </trkpt>
      <trkpt lat="45.8614" lon="4.66573">
        <ele>215</ele>
        <time>2018-03-22T14:41:56Z</time>
      </trkpt>
      <trkpt lat="45.86145" lon="4.6657">
        <ele>216</ele>
        <time>2018-03-22T14:41:57Z</time>
      </trkpt>
      <trkpt lat="45.86149" lon="4.66566">
        <ele>216</ele>
        <time>2018-03-22T14:41:58Z</time>
      </trkpt>
      <trkpt lat="45.86154" lon="4.66561">
        <ele>216</ele>
        <time>2018-03-22T14:41:59Z</time>
      </trkpt>
      <trkpt lat="45.86159" lon="4.66558">
        <ele>216</ele>
        <time>2018-03-22T14:42:00Z</time>
      </trkpt>
      <trkpt lat="45.86164" lon="4.66551">
        <ele>215</ele>
        <time>2018-03-22T14:42:01Z</time>
      </trkpt>
      <trkpt lat="45.86167" lon="4.66544">
        <ele>220</ele>
        <time>2018-03-22T14:42:02Z</time>
      </trkpt>
      <trkpt lat="45.86171" lon="4.66537">
        <ele>219</ele>
        <time>2018-03-22T14:42:03Z</time>
      </trkpt>
      <trkpt lat="45.86174" lon="4.66531">
        <ele>218</ele>
        <time>2018-03-22T14:42:04Z</time>
      </trkpt>
      <trkpt lat="45.86178" lon="4.66525">
        <ele>218</ele>
        <time>2018-03-22T14:42:05Z</time>
      </trkpt>
      <trkpt lat="45.86182" lon="4.66519">
        <ele>217</ele>
        <time>2018-03-22T14:42:06Z</time>
      </trkpt>
      <trkpt lat="45.86186" lon="4.66512">
        <ele>217</ele>
        <time>2018-03-22T14:42:07Z</time>
      </trkpt>
      <trkpt lat="45.86189" lon="4.66506">
        <ele>217</ele>
        <time>2018-03-22T14:42:08Z</time>
      </trkpt>
      <trkpt lat="45.86192" lon="4.665">
        <ele>217</ele>
        <time>2018-03-22T14:42:09Z</time>
      </trkpt>
      <trkpt lat="45.86196" lon="4.66494">
        <ele>213</ele>
        <time>2018-03-22T14:42:10Z</time>
      </trkpt>
      <trkpt lat="45.862" lon="4.66486">
        <ele>213</ele>
        <time>2018-03-22T14:42:11Z</time>
      </trkpt>
      <trkpt lat="45.86203" lon="4.6648">
        <ele>213</ele>
        <time>2018-03-22T14:42:12Z</time>
      </trkpt>
      <trkpt lat="45.86207" lon="4.66472">
        <ele>213</ele>
        <time>2018-03-22T14:42:13Z</time>
      </trkpt>
      <trkpt lat="45.86211" lon="4.66466">
        <ele>213</ele>
        <time>2018-03-22T14:42:14Z</time>
      </trkpt>
      <trkpt lat="45.86214" lon="4.66461">
        <ele>214</ele>
        <time>2018-03-22T14:42:15Z</time>
      </trkpt>
      <trkpt lat="45.86217" lon="4.66454">
        <ele>214</ele>
        <time>2018-03-22T14:42:16Z</time>
      </trkpt>
      <trkpt lat="45.86221" lon="4.66449">
        <ele>214</ele>
        <time>2018-03-22T14:42:17Z</time>
      </trkpt>
      <trkpt lat="45.86225" lon="4.66444">
        <ele>214</ele>
        <time>2018-03-22T14:42:18Z</time>
      </trkpt>
      <trkpt lat="45.86228" lon="4.66438">
        <ele>214</ele>
        <time>2018-03-22T14:42:19Z</time>
      </trkpt>
      <trkpt lat="45.86232" lon="4.66433">
        <ele>214</ele>
        <time>2018-03-22T14:42:20Z</time>
      </trkpt>
      <trkpt lat="45.86235" lon="4.66427">
        <ele>214</ele>
        <time>2018-03-22T14:42:21Z</time>
      </trkpt>
      <trkpt lat="45.86237" lon="4.66422">
        <ele>214</ele>
        <time>2018-03-22T14:42:22Z</time>
      </trkpt>
      <trkpt lat="45.86239" lon="4.66413">
        <ele>213</ele>
        <time>2018-03-22T14:42:23Z</time>
      </trkpt>
      <trkpt lat="45.86243" lon="4.66407">
        <ele>213</ele>
        <time>2018-03-22T14:42:24Z</time>
      </trkpt>
      <trkpt lat="45.86246" lon="4.66401">
        <ele>213</ele>
        <time>2018-03-22T14:42:25Z</time>
      </trkpt>
      <trkpt lat="45.86248" lon="4.66395">
        <ele>213</ele>
        <time>2018-03-22T14:42:26Z</time>
      </trkpt>
      <trkpt lat="45.86251" lon="4.6639">
        <ele>216</ele>
        <time>2018-03-22T14:42:27Z</time>
      </trkpt>
      <trkpt lat="45.86254" lon="4.66385">
        <ele>216</ele>
        <time>2018-03-22T14:42:28Z</time>
      </trkpt>
      <trkpt lat="45.86257" lon="4.6638">
        <ele>216</ele>
        <time>2018-03-22T14:42:29Z</time>
      </trkpt>
      <trkpt lat="45.8626" lon="4.66375">
        <ele>216</ele>
        <time>2018-03-22T14:42:30Z</time>
      </trkpt>
      <trkpt lat="45.86263" lon="4.66369">
        <ele>216</ele>
        <time>2018-03-22T14:42:31Z</time>
      </trkpt>
      <trkpt lat="45.86267" lon="4.66365">
        <ele>216</ele>
        <time>2018-03-22T14:42:32Z</time>
      </trkpt>
      <trkpt lat="45.8627" lon="4.6636">
        <ele>216</ele>
        <time>2018-03-22T14:42:33Z</time>
      </trkpt>
      <trkpt lat="45.86273" lon="4.66356">
        <ele>216</ele>
        <time>2018-03-22T14:42:34Z</time>
      </trkpt>
      <trkpt lat="45.86276" lon="4.66351">
        <ele>216</ele>
        <time>2018-03-22T14:42:35Z</time>
      </trkpt>
      <trkpt lat="45.8628" lon="4.66347">
        <ele>216</ele>
        <time>2018-03-22T14:42:36Z</time>
      </trkpt>
      <trkpt lat="45.86283" lon="4.66342">
        <ele>217</ele>
        <time>2018-03-22T14:42:37Z</time>
      </trkpt>
      <trkpt lat="45.86286" lon="4.66337">
        <ele>217</ele>
        <time>2018-03-22T14:42:38Z</time>
      </trkpt>
      <trkpt lat="45.86293" lon="4.66328">
        <ele>215</ele>
        <time>2018-03-22T14:42:40Z</time>
      </trkpt>
      <trkpt lat="45.86296" lon="4.66323">
        <ele>215</ele>
        <time>2018-03-22T14:42:41Z</time>
      </trkpt>
      <trkpt lat="45.86299" lon="4.66319">
        <ele>215</ele>
        <time>2018-03-22T14:42:42Z</time>
      </trkpt>
      <trkpt lat="45.86302" lon="4.66314">
        <ele>215</ele>
        <time>2018-03-22T14:42:43Z</time>
      </trkpt>
      <trkpt lat="45.86307" lon="4.66309">
        <ele>215</ele>
        <time>2018-03-22T14:42:44Z</time>
      </trkpt>
      <trkpt lat="45.8631" lon="4.66305">
        <ele>215</ele>
        <time>2018-03-22T14:42:45Z</time>
      </trkpt>
      <trkpt lat="45.86316" lon="4.66298">
        <ele>215</ele>
        <time>2018-03-22T14:42:47Z</time>
      </trkpt>
      <trkpt lat="45.86319" lon="4.66294">
        <ele>215</ele>
        <time>2018-03-22T14:42:48Z</time>
      </trkpt>
      <trkpt lat="45.86326" lon="4.66288">
        <ele>215</ele>
        <time>2018-03-22T14:42:50Z</time>
      </trkpt>
      <trkpt lat="45.86329" lon="4.66284">
        <ele>214</ele>
        <time>2018-03-22T14:42:51Z</time>
      </trkpt>
      <trkpt lat="45.86336" lon="4.66278">
        <ele>218</ele>
        <time>2018-03-22T14:42:53Z</time>
      </trkpt>
      <trkpt lat="45.8634" lon="4.66275">
        <ele>218</ele>
        <time>2018-03-22T14:42:54Z</time>
      </trkpt>
      <trkpt lat="45.86346" lon="4.6627">
        <ele>218</ele>
        <time>2018-03-22T14:42:56Z</time>
      </trkpt>
      <trkpt lat="45.8635" lon="4.66267">
        <ele>218</ele>
        <time>2018-03-22T14:42:57Z</time>
      </trkpt>
      <trkpt lat="45.86357" lon="4.66262">
        <ele>218</ele>
        <time>2018-03-22T14:42:59Z</time>
      </trkpt>
      <trkpt lat="45.8636" lon="4.6626">
        <ele>218</ele>
        <time>2018-03-22T14:43:00Z</time>
      </trkpt>
      <trkpt lat="45.86368" lon="4.66255">
        <ele>219</ele>
        <time>2018-03-22T14:43:02Z</time>
      </trkpt>
      <trkpt lat="45.8637" lon="4.66254">
        <ele>219</ele>
        <time>2018-03-22T14:43:03Z</time>
      </trkpt>
      <trkpt lat="45.86372" lon="4.66253">
        <ele>219</ele>
        <time>2018-03-22T14:43:04Z</time>
      </trkpt>
      <trkpt lat="45.86379" lon="4.6625">
        <ele>214</ele>
        <time>2018-03-22T14:43:05Z</time>
      </trkpt>
      <trkpt lat="45.86386" lon="4.66246">
        <ele>215</ele>
        <time>2018-03-22T14:43:07Z</time>
      </trkpt>
      <trkpt lat="45.8639" lon="4.66245">
        <ele>215</ele>
        <time>2018-03-22T14:43:08Z</time>
      </trkpt>
      <trkpt lat="45.86398" lon="4.66241">
        <ele>216</ele>
        <time>2018-03-22T14:43:10Z</time>
      </trkpt>
      <trkpt lat="45.86402" lon="4.66239">
        <ele>216</ele>
        <time>2018-03-22T14:43:11Z</time>
      </trkpt>
      <trkpt lat="45.86409" lon="4.66236">
        <ele>217</ele>
        <time>2018-03-22T14:43:13Z</time>
      </trkpt>
      <trkpt lat="45.86413" lon="4.66234">
        <ele>217</ele>
        <time>2018-03-22T14:43:14Z</time>
      </trkpt>
      <trkpt lat="45.86421" lon="4.66232">
        <ele>219</ele>
        <time>2018-03-22T14:43:16Z</time>
      </trkpt>
      <trkpt lat="45.86425" lon="4.66231">
        <ele>219</ele>
        <time>2018-03-22T14:43:17Z</time>
      </trkpt>
      <trkpt lat="45.86432" lon="4.66229">
        <ele>219</ele>
        <time>2018-03-22T14:43:19Z</time>
      </trkpt>
      <trkpt lat="45.86436" lon="4.66228">
        <ele>218</ele>
        <time>2018-03-22T14:43:20Z</time>
      </trkpt>
      <trkpt lat="45.86444" lon="4.66225">
        <ele>218</ele>
        <time>2018-03-22T14:43:22Z</time>
      </trkpt>
      <trkpt lat="45.86447" lon="4.66224">
        <ele>218</ele>
        <time>2018-03-22T14:43:23Z</time>
      </trkpt>
      <trkpt lat="45.86455" lon="4.66221">
        <ele>218</ele>
        <time>2018-03-22T14:43:25Z</time>
      </trkpt>
      <trkpt lat="45.86458" lon="4.66219">
        <ele>218</ele>
        <time>2018-03-22T14:43:26Z</time>
      </trkpt>
      <trkpt lat="45.86466" lon="4.66216">
        <ele>218</ele>
        <time>2018-03-22T14:43:28Z</time>
      </trkpt>
      <trkpt lat="45.86468" lon="4.66216">
        <ele>218</ele>
        <time>2018-03-22T14:43:29Z</time>
      </trkpt>
      <trkpt lat="45.86472" lon="4.66215">
        <ele>218</ele>
        <time>2018-03-22T14:43:31Z</time>
      </trkpt>
      <trkpt lat="45.86479" lon="4.66214">
        <ele>219</ele>
        <time>2018-03-22T14:43:32Z</time>
      </trkpt>
      <trkpt lat="45.86487" lon="4.66211">
        <ele>219</ele>
        <time>2018-03-22T14:43:35Z</time>
      </trkpt>
      <trkpt lat="45.86493" lon="4.66208">
        <ele>219</ele>
        <time>2018-03-22T14:43:36Z</time>
      </trkpt>
      <trkpt lat="45.86499" lon="4.66206">
        <ele>218</ele>
        <time>2018-03-22T14:43:38Z</time>
      </trkpt>
      <trkpt lat="45.86503" lon="4.66204">
        <ele>224</ele>
        <time>2018-03-22T14:43:39Z</time>
      </trkpt>
      <trkpt lat="45.86509" lon="4.662">
        <ele>224</ele>
        <time>2018-03-22T14:43:41Z</time>
      </trkpt>
      <trkpt lat="45.86513" lon="4.66198">
        <ele>224</ele>
        <time>2018-03-22T14:43:42Z</time>
      </trkpt>
      <trkpt lat="45.8652" lon="4.66194">
        <ele>224</ele>
        <time>2018-03-22T14:43:44Z</time>
      </trkpt>
      <trkpt lat="45.86524" lon="4.66192">
        <ele>224</ele>
        <time>2018-03-22T14:43:45Z</time>
      </trkpt>
      <trkpt lat="45.86531" lon="4.66187">
        <ele>225</ele>
        <time>2018-03-22T14:43:47Z</time>
      </trkpt>
      <trkpt lat="45.86535" lon="4.66185">
        <ele>225</ele>
        <time>2018-03-22T14:43:48Z</time>
      </trkpt>
      <trkpt lat="45.86542" lon="4.66179">
        <ele>225</ele>
        <time>2018-03-22T14:43:50Z</time>
      </trkpt>
      <trkpt lat="45.86544" lon="4.66178">
        <ele>225</ele>
        <time>2018-03-22T14:43:51Z</time>
      </trkpt>
      <trkpt lat="45.86549" lon="4.66173">
        <ele>226</ele>
        <time>2018-03-22T14:43:52Z</time>
      </trkpt>
      <trkpt lat="45.86553" lon="4.66169">
        <ele>226</ele>
        <time>2018-03-22T14:43:53Z</time>
      </trkpt>
      <trkpt lat="45.86556" lon="4.66166">
        <ele>219</ele>
        <time>2018-03-22T14:43:54Z</time>
      </trkpt>
      <trkpt lat="45.86561" lon="4.66162">
        <ele>220</ele>
        <time>2018-03-22T14:43:55Z</time>
      </trkpt>
      <trkpt lat="45.86564" lon="4.66159">
        <ele>221</ele>
        <time>2018-03-22T14:43:56Z</time>
      </trkpt>
      <trkpt lat="45.86569" lon="4.66154">
        <ele>221</ele>
        <time>2018-03-22T14:43:57Z</time>
      </trkpt>
      <trkpt lat="45.86573" lon="4.66151">
        <ele>221</ele>
        <time>2018-03-22T14:43:58Z</time>
      </trkpt>
      <trkpt lat="45.86577" lon="4.66147">
        <ele>220</ele>
        <time>2018-03-22T14:43:59Z</time>
      </trkpt>
      <trkpt lat="45.86581" lon="4.66143">
        <ele>220</ele>
        <time>2018-03-22T14:44:00Z</time>
      </trkpt>
      <trkpt lat="45.86586" lon="4.66139">
        <ele>225</ele>
        <time>2018-03-22T14:44:01Z</time>
      </trkpt>
      <trkpt lat="45.8659" lon="4.66136">
        <ele>225</ele>
        <time>2018-03-22T14:44:02Z</time>
      </trkpt>
      <trkpt lat="45.86594" lon="4.66131">
        <ele>225</ele>
        <time>2018-03-22T14:44:03Z</time>
      </trkpt>
      <trkpt lat="45.86598" lon="4.66128">
        <ele>224</ele>
        <time>2018-03-22T14:44:04Z</time>
      </trkpt>
      <trkpt lat="45.86602" lon="4.66124">
        <ele>224</ele>
        <time>2018-03-22T14:44:05Z</time>
      </trkpt>
      <trkpt lat="45.86606" lon="4.66122">
        <ele>224</ele>
        <time>2018-03-22T14:44:06Z</time>
      </trkpt>
      <trkpt lat="45.86611" lon="4.6612">
        <ele>224</ele>
        <time>2018-03-22T14:44:07Z</time>
      </trkpt>
      <trkpt lat="45.86615" lon="4.66117">
        <ele>224</ele>
        <time>2018-03-22T14:44:08Z</time>
      </trkpt>
      <trkpt lat="45.86619" lon="4.66114">
        <ele>224</ele>
        <time>2018-03-22T14:44:09Z</time>
      </trkpt>
      <trkpt lat="45.86627" lon="4.66109">
        <ele>224</ele>
        <time>2018-03-22T14:44:11Z</time>
      </trkpt>
      <trkpt lat="45.86632" lon="4.66106">
        <ele>224</ele>
        <time>2018-03-22T14:44:12Z</time>
      </trkpt>
      <trkpt lat="45.8664" lon="4.66103">
        <ele>224</ele>
        <time>2018-03-22T14:44:14Z</time>
      </trkpt>
      <trkpt lat="45.86644" lon="4.661">
        <ele>224</ele>
        <time>2018-03-22T14:44:15Z</time>
      </trkpt>
      <trkpt lat="45.86652" lon="4.66097">
        <ele>223</ele>
        <time>2018-03-22T14:44:17Z</time>
      </trkpt>
      <trkpt lat="45.86656" lon="4.66095">
        <ele>222</ele>
        <time>2018-03-22T14:44:18Z</time>
      </trkpt>
      <trkpt lat="45.86665" lon="4.66092">
        <ele>221</ele>
        <time>2018-03-22T14:44:20Z</time>
      </trkpt>
      <trkpt lat="45.8667" lon="4.6609">
        <ele>225</ele>
        <time>2018-03-22T14:44:21Z</time>
      </trkpt>
      <trkpt lat="45.86678" lon="4.66087">
        <ele>228</ele>
        <time>2018-03-22T14:44:23Z</time>
      </trkpt>
      <trkpt lat="45.86683" lon="4.66085">
        <ele>230</ele>
        <time>2018-03-22T14:44:24Z</time>
      </trkpt>
      <trkpt lat="45.86687" lon="4.66083">
        <ele>221</ele>
        <time>2018-03-22T14:44:25Z</time>
      </trkpt>
      <trkpt lat="45.86692" lon="4.66081">
        <ele>222</ele>
        <time>2018-03-22T14:44:26Z</time>
      </trkpt>
      <trkpt lat="45.86696" lon="4.66079">
        <ele>222</ele>
        <time>2018-03-22T14:44:27Z</time>
      </trkpt>
      <trkpt lat="45.86701" lon="4.66077">
        <ele>223</ele>
        <time>2018-03-22T14:44:28Z</time>
      </trkpt>
      <trkpt lat="45.86706" lon="4.66074">
        <ele>224</ele>
        <time>2018-03-22T14:44:29Z</time>
      </trkpt>
      <trkpt lat="45.8671" lon="4.66072">
        <ele>224</ele>
        <time>2018-03-22T14:44:30Z</time>
      </trkpt>
      <trkpt lat="45.86715" lon="4.66069">
        <ele>225</ele>
        <time>2018-03-22T14:44:31Z</time>
      </trkpt>
      <trkpt lat="45.86719" lon="4.66067">
        <ele>225</ele>
        <time>2018-03-22T14:44:32Z</time>
      </trkpt>
      <trkpt lat="45.86723" lon="4.66064">
        <ele>226</ele>
        <time>2018-03-22T14:44:33Z</time>
      </trkpt>
      <trkpt lat="45.86727" lon="4.66062">
        <ele>226</ele>
        <time>2018-03-22T14:44:34Z</time>
      </trkpt>
      <trkpt lat="45.86732" lon="4.66058">
        <ele>226</ele>
        <time>2018-03-22T14:44:35Z</time>
      </trkpt>
      <trkpt lat="45.86736" lon="4.66055">
        <ele>226</ele>
        <time>2018-03-22T14:44:36Z</time>
      </trkpt>
      <trkpt lat="45.86741" lon="4.66052">
        <ele>226</ele>
        <time>2018-03-22T14:44:37Z</time>
      </trkpt>
      <trkpt lat="45.86745" lon="4.66049">
        <ele>225</ele>
        <time>2018-03-22T14:44:38Z</time>
      </trkpt>
      <trkpt lat="45.8675" lon="4.66045">
        <ele>225</ele>
        <time>2018-03-22T14:44:39Z</time>
      </trkpt>
      <trkpt lat="45.86754" lon="4.66041">
        <ele>234</ele>
        <time>2018-03-22T14:44:40Z</time>
      </trkpt>
      <trkpt lat="45.86759" lon="4.66037">
        <ele>233</ele>
        <time>2018-03-22T14:44:41Z</time>
      </trkpt>
      <trkpt lat="45.86763" lon="4.66033">
        <ele>233</ele>
        <time>2018-03-22T14:44:42Z</time>
      </trkpt>
      <trkpt lat="45.86767" lon="4.66029">
        <ele>232</ele>
        <time>2018-03-22T14:44:43Z</time>
      </trkpt>
      <trkpt lat="45.8677" lon="4.66026">
        <ele>232</ele>
        <time>2018-03-22T14:44:44Z</time>
      </trkpt>
      <trkpt lat="45.86774" lon="4.66022">
        <ele>232</ele>
        <time>2018-03-22T14:44:45Z</time>
      </trkpt>
      <trkpt lat="45.86778" lon="4.66017">
        <ele>232</ele>
        <time>2018-03-22T14:44:46Z</time>
      </trkpt>
      <trkpt lat="45.86781" lon="4.66013">
        <ele>232</ele>
        <time>2018-03-22T14:44:47Z</time>
      </trkpt>
      <trkpt lat="45.86785" lon="4.66008">
        <ele>232</ele>
        <time>2018-03-22T14:44:48Z</time>
      </trkpt>
      <trkpt lat="45.86791" lon="4.65999">
        <ele>223</ele>
        <time>2018-03-22T14:44:50Z</time>
      </trkpt>
      <trkpt lat="45.86795" lon="4.65995">
        <ele>223</ele>
        <time>2018-03-22T14:44:51Z</time>
      </trkpt>
      <trkpt lat="45.86798" lon="4.6599">
        <ele>224</ele>
        <time>2018-03-22T14:44:52Z</time>
      </trkpt>
      <trkpt lat="45.86802" lon="4.65985">
        <ele>224</ele>
        <time>2018-03-22T14:44:53Z</time>
      </trkpt>
      <trkpt lat="45.86805" lon="4.65978">
        <ele>224</ele>
        <time>2018-03-22T14:44:54Z</time>
      </trkpt>
      <trkpt lat="45.86809" lon="4.65973">
        <ele>224</ele>
        <time>2018-03-22T14:44:55Z</time>
      </trkpt>
      <trkpt lat="45.86812" lon="4.65967">
        <ele>224</ele>
        <time>2018-03-22T14:44:56Z</time>
      </trkpt>
      <trkpt lat="45.86815" lon="4.65962">
        <ele>223</ele>
        <time>2018-03-22T14:44:57Z</time>
      </trkpt>
      <trkpt lat="45.86819" lon="4.65956">
        <ele>223</ele>
        <time>2018-03-22T14:44:58Z</time>
      </trkpt>
      <trkpt lat="45.86822" lon="4.65949">
        <ele>223</ele>
        <time>2018-03-22T14:44:59Z</time>
      </trkpt>
      <trkpt lat="45.86825" lon="4.65942">
        <ele>222</ele>
        <time>2018-03-22T14:45:00Z</time>
      </trkpt>
      <trkpt lat="45.86828" lon="4.65936">
        <ele>222</ele>
        <time>2018-03-22T14:45:01Z</time>
      </trkpt>
      <trkpt lat="45.86831" lon="4.65929">
        <ele>221</ele>
        <time>2018-03-22T14:45:02Z</time>
      </trkpt>
      <trkpt lat="45.86835" lon="4.65922">
        <ele>225</ele>
        <time>2018-03-22T14:45:03Z</time>
      </trkpt>
      <trkpt lat="45.86838" lon="4.65916">
        <ele>223</ele>
        <time>2018-03-22T14:45:04Z</time>
      </trkpt>
      <trkpt lat="45.86841" lon="4.65909">
        <ele>224</ele>
        <time>2018-03-22T14:45:05Z</time>
      </trkpt>
      <trkpt lat="45.86844" lon="4.65904">
        <ele>225</ele>
        <time>2018-03-22T14:45:06Z</time>
      </trkpt>
      <trkpt lat="45.86848" lon="4.65897">
        <ele>226</ele>
        <time>2018-03-22T14:45:07Z</time>
      </trkpt>
      <trkpt lat="45.8685" lon="4.65891">
        <ele>227</ele>
        <time>2018-03-22T14:45:08Z</time>
      </trkpt>
      <trkpt lat="45.86853" lon="4.65885">
        <ele>227</ele>
        <time>2018-03-22T14:45:09Z</time>
      </trkpt>
      <trkpt lat="45.86856" lon="4.65878">
        <ele>227</ele>
        <time>2018-03-22T14:45:10Z</time>
      </trkpt>
      <trkpt lat="45.86858" lon="4.65872">
        <ele>227</ele>
        <time>2018-03-22T14:45:11Z</time>
      </trkpt>
      <trkpt lat="45.86861" lon="4.65866">
        <ele>227</ele>
        <time>2018-03-22T14:45:12Z</time>
      </trkpt>
      <trkpt lat="45.86864" lon="4.6586">
        <ele>226</ele>
        <time>2018-03-22T14:45:13Z</time>
      </trkpt>
      <trkpt lat="45.86866" lon="4.65853">
        <ele>226</ele>
        <time>2018-03-22T14:45:14Z</time>
      </trkpt>
      <trkpt lat="45.86868" lon="4.65847">
        <ele>226</ele>
        <time>2018-03-22T14:45:15Z</time>
      </trkpt>
      <trkpt lat="45.8687" lon="4.6584">
        <ele>226</ele>
        <time>2018-03-22T14:45:16Z</time>
      </trkpt>
      <trkpt lat="45.86872" lon="4.65833">
        <ele>222</ele>
        <time>2018-03-22T14:45:17Z</time>
      </trkpt>
      <trkpt lat="45.86874" lon="4.65827">
        <ele>222</ele>
        <time>2018-03-22T14:45:18Z</time>
      </trkpt>
      <trkpt lat="45.86875" lon="4.6582">
        <ele>223</ele>
        <time>2018-03-22T14:45:19Z</time>
      </trkpt>
      <trkpt lat="45.86877" lon="4.65813">
        <ele>223</ele>
        <time>2018-03-22T14:45:20Z</time>
      </trkpt>
      <trkpt lat="45.86879" lon="4.65807">
        <ele>223</ele>
        <time>2018-03-22T14:45:21Z</time>
      </trkpt>
      <trkpt lat="45.86881" lon="4.658">
        <ele>223</ele>
        <time>2018-03-22T14:45:22Z</time>
      </trkpt>
      <trkpt lat="45.86883" lon="4.65793">
        <ele>223</ele>
        <time>2018-03-22T14:45:23Z</time>
      </trkpt>
      <trkpt lat="45.86885" lon="4.65786">
        <ele>223</ele>
        <time>2018-03-22T14:45:24Z</time>
      </trkpt>
      <trkpt lat="45.86885" lon="4.6578">
        <ele>223</ele>
        <time>2018-03-22T14:45:25Z</time>
      </trkpt>
      <trkpt lat="45.86888" lon="4.65772">
        <ele>223</ele>
        <time>2018-03-22T14:45:26Z</time>
      </trkpt>
      <trkpt lat="45.86887" lon="4.65765">
        <ele>223</ele>
        <time>2018-03-22T14:45:27Z</time>
      </trkpt>
      <trkpt lat="45.86888" lon="4.65758">
        <ele>224</ele>
        <time>2018-03-22T14:45:28Z</time>
      </trkpt>
      <trkpt lat="45.86888" lon="4.65751">
        <ele>224</ele>
        <time>2018-03-22T14:45:29Z</time>
      </trkpt>
      <trkpt lat="45.86889" lon="4.65744">
        <ele>223</ele>
        <time>2018-03-22T14:45:30Z</time>
      </trkpt>
      <trkpt lat="45.86889" lon="4.65737">
        <ele>223</ele>
        <time>2018-03-22T14:45:31Z</time>
      </trkpt>
      <trkpt lat="45.86889" lon="4.65729">
        <ele>223</ele>
        <time>2018-03-22T14:45:32Z</time>
      </trkpt>
      <trkpt lat="45.86889" lon="4.65722">
        <ele>223</ele>
        <time>2018-03-22T14:45:33Z</time>
      </trkpt>
      <trkpt lat="45.8689" lon="4.65716">
        <ele>223</ele>
        <time>2018-03-22T14:45:34Z</time>
      </trkpt>
      <trkpt lat="45.86891" lon="4.65708">
        <ele>223</ele>
        <time>2018-03-22T14:45:35Z</time>
      </trkpt>
      <trkpt lat="45.86892" lon="4.65701">
        <ele>223</ele>
        <time>2018-03-22T14:45:36Z</time>
      </trkpt>
      <trkpt lat="45.86892" lon="4.65694">
        <ele>223</ele>
        <time>2018-03-22T14:45:37Z</time>
      </trkpt>
      <trkpt lat="45.86892" lon="4.65687">
        <ele>224</ele>
        <time>2018-03-22T14:45:38Z</time>
      </trkpt>
      <trkpt lat="45.86893" lon="4.6568">
        <ele>224</ele>
        <time>2018-03-22T14:45:39Z</time>
      </trkpt>
      <trkpt lat="45.86895" lon="4.65673">
        <ele>225</ele>
        <time>2018-03-22T14:45:40Z</time>
      </trkpt>
      <trkpt lat="45.86896" lon="4.65665">
        <ele>225</ele>
        <time>2018-03-22T14:45:41Z</time>
      </trkpt>
      <trkpt lat="45.86896" lon="4.65657">
        <ele>225</ele>
        <time>2018-03-22T14:45:42Z</time>
      </trkpt>
      <trkpt lat="45.86898" lon="4.65648">
        <ele>224</ele>
        <time>2018-03-22T14:45:43Z</time>
      </trkpt>
      <trkpt lat="45.869" lon="4.6564">
        <ele>224</ele>
        <time>2018-03-22T14:45:44Z</time>
      </trkpt>
      <trkpt lat="45.86901" lon="4.65631">
        <ele>223</ele>
        <time>2018-03-22T14:45:45Z</time>
      </trkpt>
      <trkpt lat="45.86902" lon="4.65622">
        <ele>223</ele>
        <time>2018-03-22T14:45:46Z</time>
      </trkpt>
      <trkpt lat="45.86903" lon="4.65613">
        <ele>223</ele>
        <time>2018-03-22T14:45:47Z</time>
      </trkpt>
      <trkpt lat="45.86904" lon="4.65603">
        <ele>223</ele>
        <time>2018-03-22T14:45:48Z</time>
      </trkpt>
      <trkpt lat="45.86906" lon="4.65594">
        <ele>224</ele>
        <time>2018-03-22T14:45:49Z</time>
      </trkpt>
      <trkpt lat="45.86909" lon="4.65585">
        <ele>225</ele>
        <time>2018-03-22T14:45:50Z</time>
      </trkpt>
      <trkpt lat="45.8691" lon="4.65576">
        <ele>223</ele>
        <time>2018-03-22T14:45:51Z</time>
      </trkpt>
      <trkpt lat="45.86913" lon="4.65567">
        <ele>222</ele>
        <time>2018-03-22T14:45:52Z</time>
      </trkpt>
      <trkpt lat="45.86916" lon="4.65559">
        <ele>220</ele>
        <time>2018-03-22T14:45:53Z</time>
      </trkpt>
      <trkpt lat="45.86919" lon="4.65551">
        <ele>230</ele>
        <time>2018-03-22T14:45:54Z</time>
      </trkpt>
      <trkpt lat="45.86922" lon="4.65543">
        <ele>230</ele>
        <time>2018-03-22T14:45:55Z</time>
      </trkpt>
      <trkpt lat="45.86925" lon="4.65535">
        <ele>229</ele>
        <time>2018-03-22T14:45:56Z</time>
      </trkpt>
      <trkpt lat="45.86928" lon="4.65528">
        <ele>229</ele>
        <time>2018-03-22T14:45:57Z</time>
      </trkpt>
      <trkpt lat="45.86932" lon="4.65521">
        <ele>228</ele>
        <time>2018-03-22T14:45:58Z</time>
      </trkpt>
      <trkpt lat="45.86935" lon="4.65513">
        <ele>227</ele>
        <time>2018-03-22T14:45:59Z</time>
      </trkpt>
      <trkpt lat="45.86938" lon="4.65507">
        <ele>227</ele>
        <time>2018-03-22T14:46:00Z</time>
      </trkpt>
      <trkpt lat="45.86943" lon="4.65499">
        <ele>222</ele>
        <time>2018-03-22T14:46:01Z</time>
      </trkpt>
      <trkpt lat="45.86946" lon="4.65494">
        <ele>222</ele>
        <time>2018-03-22T14:46:02Z</time>
      </trkpt>
      <trkpt lat="45.86949" lon="4.65487">
        <ele>222</ele>
        <time>2018-03-22T14:46:03Z</time>
      </trkpt>
      <trkpt lat="45.86953" lon="4.65481">
        <ele>223</ele>
        <time>2018-03-22T14:46:04Z</time>
      </trkpt>
      <trkpt lat="45.86957" lon="4.65475">
        <ele>223</ele>
        <time>2018-03-22T14:46:05Z</time>
      </trkpt>
      <trkpt lat="45.86961" lon="4.6547">
        <ele>223</ele>
        <time>2018-03-22T14:46:06Z</time>
      </trkpt>
      <trkpt lat="45.86965" lon="4.65466">
        <ele>223</ele>
        <time>2018-03-22T14:46:07Z</time>
      </trkpt>
      <trkpt lat="45.86969" lon="4.6546">
        <ele>223</ele>
        <time>2018-03-22T14:46:08Z</time>
      </trkpt>
      <trkpt lat="45.86973" lon="4.65456">
        <ele>223</ele>
        <time>2018-03-22T14:46:09Z</time>
      </trkpt>
      <trkpt lat="45.86977" lon="4.65451">
        <ele>223</ele>
        <time>2018-03-22T14:46:10Z</time>
      </trkpt>
      <trkpt lat="45.86981" lon="4.65446">
        <ele>223</ele>
        <time>2018-03-22T14:46:11Z</time>
      </trkpt>
      <trkpt lat="45.86986" lon="4.6544">
        <ele>222</ele>
        <time>2018-03-22T14:46:12Z</time>
      </trkpt>
      <trkpt lat="45.86991" lon="4.65434">
        <ele>222</ele>
        <time>2018-03-22T14:46:13Z</time>
      </trkpt>
      <trkpt lat="45.86996" lon="4.65428">
        <ele>222</ele>
        <time>2018-03-22T14:46:14Z</time>
      </trkpt>
      <trkpt lat="45.87" lon="4.65423">
        <ele>225</ele>
        <time>2018-03-22T14:46:15Z</time>
      </trkpt>
      <trkpt lat="45.87004" lon="4.65417">
        <ele>224</ele>
        <time>2018-03-22T14:46:16Z</time>
      </trkpt>
      <trkpt lat="45.8701" lon="4.65412">
        <ele>222</ele>
        <time>2018-03-22T14:46:17Z</time>
      </trkpt>
      <trkpt lat="45.87014" lon="4.65406">
        <ele>223</ele>
        <time>2018-03-22T14:46:18Z</time>
      </trkpt>
      <trkpt lat="45.87018" lon="4.65401">
        <ele>223</ele>
        <time>2018-03-22T14:46:19Z</time>
      </trkpt>
      <trkpt lat="45.87022" lon="4.65396">
        <ele>224</ele>
        <time>2018-03-22T14:46:20Z</time>
      </trkpt>
      <trkpt lat="45.87026" lon="4.6539">
        <ele>224</ele>
        <time>2018-03-22T14:46:21Z</time>
      </trkpt>
      <trkpt lat="45.8703" lon="4.65384">
        <ele>224</ele>
        <time>2018-03-22T14:46:22Z</time>
      </trkpt>
      <trkpt lat="45.87033" lon="4.6538">
        <ele>224</ele>
        <time>2018-03-22T14:46:23Z</time>
      </trkpt>
      <trkpt lat="45.87036" lon="4.65374">
        <ele>224</ele>
        <time>2018-03-22T14:46:24Z</time>
      </trkpt>
      <trkpt lat="45.8704" lon="4.65368">
        <ele>224</ele>
        <time>2018-03-22T14:46:25Z</time>
      </trkpt>
      <trkpt lat="45.87044" lon="4.65362">
        <ele>224</ele>
        <time>2018-03-22T14:46:26Z</time>
      </trkpt>
      <trkpt lat="45.87047" lon="4.65357">
        <ele>224</ele>
        <time>2018-03-22T14:46:27Z</time>
      </trkpt>
      <trkpt lat="45.8705" lon="4.6535">
        <ele>224</ele>
        <time>2018-03-22T14:46:28Z</time>
      </trkpt>
      <trkpt lat="45.87054" lon="4.65344">
        <ele>224</ele>
        <time>2018-03-22T14:46:29Z</time>
      </trkpt>
      <trkpt lat="45.87057" lon="4.65338">
        <ele>224</ele>
        <time>2018-03-22T14:46:30Z</time>
      </trkpt>
      <trkpt lat="45.8706" lon="4.65332">
        <ele>218</ele>
        <time>2018-03-22T14:46:31Z</time>
      </trkpt>
      <trkpt lat="45.87063" lon="4.65325">
        <ele>219</ele>
        <time>2018-03-22T14:46:32Z</time>
      </trkpt>
      <trkpt lat="45.87065" lon="4.6532">
        <ele>219</ele>
        <time>2018-03-22T14:46:33Z</time>
      </trkpt>
      <trkpt lat="45.87068" lon="4.65315">
        <ele>218</ele>
        <time>2018-03-22T14:46:34Z</time>
      </trkpt>
      <trkpt lat="45.8707" lon="4.65309">
        <ele>218</ele>
        <time>2018-03-22T14:46:35Z</time>
      </trkpt>
      <trkpt lat="45.87073" lon="4.65303">
        <ele>217</ele>
        <time>2018-03-22T14:46:36Z</time>
      </trkpt>
      <trkpt lat="45.87076" lon="4.65297">
        <ele>217</ele>
        <time>2018-03-22T14:46:37Z</time>
      </trkpt>
      <trkpt lat="45.87078" lon="4.65291">
        <ele>216</ele>
        <time>2018-03-22T14:46:38Z</time>
      </trkpt>
      <trkpt lat="45.87081" lon="4.65284">
        <ele>216</ele>
        <time>2018-03-22T14:46:39Z</time>
      </trkpt>
      <trkpt lat="45.87083" lon="4.65278">
        <ele>215</ele>
        <time>2018-03-22T14:46:40Z</time>
      </trkpt>
      <trkpt lat="45.87085" lon="4.65272">
        <ele>224</ele>
        <time>2018-03-22T14:46:41Z</time>
      </trkpt>
      <trkpt lat="45.87088" lon="4.65267">
        <ele>223</ele>
        <time>2018-03-22T14:46:42Z</time>
      </trkpt>
      <trkpt lat="45.87091" lon="4.65261">
        <ele>221</ele>
        <time>2018-03-22T14:46:43Z</time>
      </trkpt>
      <trkpt lat="45.87095" lon="4.65256">
        <ele>221</ele>
        <time>2018-03-22T14:46:44Z</time>
      </trkpt>
      <trkpt lat="45.87097" lon="4.65251">
        <ele>221</ele>
        <time>2018-03-22T14:46:45Z</time>
      </trkpt>
      <trkpt lat="45.87102" lon="4.65241">
        <ele>218</ele>
        <time>2018-03-22T14:46:47Z</time>
      </trkpt>
      <trkpt lat="45.87106" lon="4.65236">
        <ele>219</ele>
        <time>2018-03-22T14:46:48Z</time>
      </trkpt>
      <trkpt lat="45.87112" lon="4.65228">
        <ele>219</ele>
        <time>2018-03-22T14:46:50Z</time>
      </trkpt>
      <trkpt lat="45.87115" lon="4.65224">
        <ele>220</ele>
        <time>2018-03-22T14:46:51Z</time>
      </trkpt>
      <trkpt lat="45.87121" lon="4.65215">
        <ele>220</ele>
        <time>2018-03-22T14:46:53Z</time>
      </trkpt>
      <trkpt lat="45.87124" lon="4.65211">
        <ele>220</ele>
        <time>2018-03-22T14:46:54Z</time>
      </trkpt>
      <trkpt lat="45.87131" lon="4.65204">
        <ele>221</ele>
        <time>2018-03-22T14:46:56Z</time>
      </trkpt>
      <trkpt lat="45.87133" lon="4.65199">
        <ele>220</ele>
        <time>2018-03-22T14:46:57Z</time>
      </trkpt>
      <trkpt lat="45.87139" lon="4.65191">
        <ele>220</ele>
        <time>2018-03-22T14:46:59Z</time>
      </trkpt>
      <trkpt lat="45.87143" lon="4.65187">
        <ele>220</ele>
        <time>2018-03-22T14:47:00Z</time>
      </trkpt>
      <trkpt lat="45.87149" lon="4.6518">
        <ele>220</ele>
        <time>2018-03-22T14:47:02Z</time>
      </trkpt>
      <trkpt lat="45.87153" lon="4.65177">
        <ele>220</ele>
        <time>2018-03-22T14:47:03Z</time>
      </trkpt>
      <trkpt lat="45.87159" lon="4.65171">
        <ele>220</ele>
        <time>2018-03-22T14:47:05Z</time>
      </trkpt>
      <trkpt lat="45.87161" lon="4.65169">
        <ele>220</ele>
        <time>2018-03-22T14:47:06Z</time>
      </trkpt>
      <trkpt lat="45.87167" lon="4.65161">
        <ele>220</ele>
        <time>2018-03-22T14:47:08Z</time>
      </trkpt>
      <trkpt lat="45.8717" lon="4.65159">
        <ele>221</ele>
        <time>2018-03-22T14:47:09Z</time>
      </trkpt>
      <trkpt lat="45.87177" lon="4.65153">
        <ele>221</ele>
        <time>2018-03-22T14:47:11Z</time>
      </trkpt>
      <trkpt lat="45.87181" lon="4.65149">
        <ele>221</ele>
        <time>2018-03-22T14:47:12Z</time>
      </trkpt>
      <trkpt lat="45.87187" lon="4.65147">
        <ele>222</ele>
        <time>2018-03-22T14:47:13Z</time>
      </trkpt>
      <trkpt lat="45.87191" lon="4.65144">
        <ele>222</ele>
        <time>2018-03-22T14:47:14Z</time>
      </trkpt>
      <trkpt lat="45.87198" lon="4.65137">
        <ele>222</ele>
        <time>2018-03-22T14:47:16Z</time>
      </trkpt>
      <trkpt lat="45.87201" lon="4.65134">
        <ele>222</ele>
        <time>2018-03-22T14:47:17Z</time>
      </trkpt>
      <trkpt lat="45.87208" lon="4.65127">
        <ele>222</ele>
        <time>2018-03-22T14:47:19Z</time>
      </trkpt>
      <trkpt lat="45.87212" lon="4.65124">
        <ele>222</ele>
        <time>2018-03-22T14:47:20Z</time>
      </trkpt>
      <trkpt lat="45.87216" lon="4.65121">
        <ele>222</ele>
        <time>2018-03-22T14:47:21Z</time>
      </trkpt>
      <trkpt lat="45.8722" lon="4.65117">
        <ele>222</ele>
        <time>2018-03-22T14:47:22Z</time>
      </trkpt>
      <trkpt lat="45.87227" lon="4.65111">
        <ele>222</ele>
        <time>2018-03-22T14:47:24Z</time>
      </trkpt>
      <trkpt lat="45.8723" lon="4.65108">
        <ele>222</ele>
        <time>2018-03-22T14:47:25Z</time>
      </trkpt>
      <trkpt lat="45.87237" lon="4.65102">
        <ele>221</ele>
        <time>2018-03-22T14:47:27Z</time>
      </trkpt>
      <trkpt lat="45.87241" lon="4.65099">
        <ele>221</ele>
        <time>2018-03-22T14:47:28Z</time>
      </trkpt>
      <trkpt lat="45.87248" lon="4.65092">
        <ele>219</ele>
        <time>2018-03-22T14:47:30Z</time>
      </trkpt>
      <trkpt lat="45.87251" lon="4.65088">
        <ele>221</ele>
        <time>2018-03-22T14:47:31Z</time>
      </trkpt>
      <trkpt lat="45.87256" lon="4.65083">
        <ele>219</ele>
        <time>2018-03-22T14:47:33Z</time>
      </trkpt>
      <trkpt lat="45.87261" lon="4.65078">
        <ele>219</ele>
        <time>2018-03-22T14:47:34Z</time>
      </trkpt>
      <trkpt lat="45.87266" lon="4.65073">
        <ele>219</ele>
        <time>2018-03-22T14:47:36Z</time>
      </trkpt>
      <trkpt lat="45.87271" lon="4.65068">
        <ele>220</ele>
        <time>2018-03-22T14:47:37Z</time>
      </trkpt>
      <trkpt lat="45.87278" lon="4.65061">
        <ele>220</ele>
        <time>2018-03-22T14:47:39Z</time>
      </trkpt>
      <trkpt lat="45.87281" lon="4.65057">
        <ele>220</ele>
        <time>2018-03-22T14:47:40Z</time>
      </trkpt>
      <trkpt lat="45.87287" lon="4.6505">
        <ele>220</ele>
        <time>2018-03-22T14:47:42Z</time>
      </trkpt>
      <trkpt lat="45.87291" lon="4.65046">
        <ele>220</ele>
        <time>2018-03-22T14:47:43Z</time>
      </trkpt>
      <trkpt lat="45.87293" lon="4.65042">
        <ele>220</ele>
        <time>2018-03-22T14:47:44Z</time>
      </trkpt>
      <trkpt lat="45.87297" lon="4.65037">
        <ele>220</ele>
        <time>2018-03-22T14:47:45Z</time>
      </trkpt>
      <trkpt lat="45.87302" lon="4.65027">
        <ele>219</ele>
        <time>2018-03-22T14:47:47Z</time>
      </trkpt>
      <trkpt lat="45.87305" lon="4.65022">
        <ele>219</ele>
        <time>2018-03-22T14:47:48Z</time>
      </trkpt>
      <trkpt lat="45.87308" lon="4.65017">
        <ele>219</ele>
        <time>2018-03-22T14:47:49Z</time>
      </trkpt>
      <trkpt lat="45.87311" lon="4.65012">
        <ele>219</ele>
        <time>2018-03-22T14:47:50Z</time>
      </trkpt>
      <trkpt lat="45.87314" lon="4.65006">
        <ele>219</ele>
        <time>2018-03-22T14:47:51Z</time>
      </trkpt>
      <trkpt lat="45.87317" lon="4.65001">
        <ele>219</ele>
        <time>2018-03-22T14:47:52Z</time>
      </trkpt>
      <trkpt lat="45.87322" lon="4.6499">
        <ele>216</ele>
        <time>2018-03-22T14:47:54Z</time>
      </trkpt>
      <trkpt lat="45.87325" lon="4.64985">
        <ele>215</ele>
        <time>2018-03-22T14:47:55Z</time>
      </trkpt>
      <trkpt lat="45.87331" lon="4.64975">
        <ele>215</ele>
        <time>2018-03-22T14:47:57Z</time>
      </trkpt>
      <trkpt lat="45.87334" lon="4.6497">
        <ele>219</ele>
        <time>2018-03-22T14:47:58Z</time>
      </trkpt>
      <trkpt lat="45.87337" lon="4.64961">
        <ele>218</ele>
        <time>2018-03-22T14:48:00Z</time>
      </trkpt>
      <trkpt lat="45.87344" lon="4.64955">
        <ele>218</ele>
        <time>2018-03-22T14:48:01Z</time>
      </trkpt>
      <trkpt lat="45.87349" lon="4.64945">
        <ele>218</ele>
        <time>2018-03-22T14:48:03Z</time>
      </trkpt>
      <trkpt lat="45.87351" lon="4.6494">
        <ele>217</ele>
        <time>2018-03-22T14:48:04Z</time>
      </trkpt>
      <trkpt lat="45.87357" lon="4.64931">
        <ele>217</ele>
        <time>2018-03-22T14:48:06Z</time>
      </trkpt>
      <trkpt lat="45.87359" lon="4.64929">
        <ele>217</ele>
        <time>2018-03-22T14:48:07Z</time>
      </trkpt>
      <trkpt lat="45.87363" lon="4.64923">
        <ele>218</ele>
        <time>2018-03-22T14:48:08Z</time>
      </trkpt>
      <trkpt lat="45.87366" lon="4.64919">
        <ele>218</ele>
        <time>2018-03-22T14:48:09Z</time>
      </trkpt>
      <trkpt lat="45.87371" lon="4.64911">
        <ele>215</ele>
        <time>2018-03-22T14:48:11Z</time>
      </trkpt>
      <trkpt lat="45.87374" lon="4.64906">
        <ele>215</ele>
        <time>2018-03-22T14:48:12Z</time>
      </trkpt>
      <trkpt lat="45.87379" lon="4.64899">
        <ele>215</ele>
        <time>2018-03-22T14:48:15Z</time>
      </trkpt>
      <trkpt lat="45.87381" lon="4.64897">
        <ele>215</ele>
        <time>2018-03-22T14:48:16Z</time>
      </trkpt>
      <trkpt lat="45.87385" lon="4.64893">
        <ele>215</ele>
        <time>2018-03-22T14:48:18Z</time>
      </trkpt>
      <trkpt lat="45.87392" lon="4.64886">
        <ele>216</ele>
        <time>2018-03-22T14:48:19Z</time>
      </trkpt>
      <trkpt lat="45.87397" lon="4.64878">
        <ele>215</ele>
        <time>2018-03-22T14:48:21Z</time>
      </trkpt>
      <trkpt lat="45.874" lon="4.64874">
        <ele>215</ele>
        <time>2018-03-22T14:48:22Z</time>
      </trkpt>
      <trkpt lat="45.87406" lon="4.64867">
        <ele>215</ele>
        <time>2018-03-22T14:48:24Z</time>
      </trkpt>
      <trkpt lat="45.87409" lon="4.64863">
        <ele>215</ele>
        <time>2018-03-22T14:48:25Z</time>
      </trkpt>
      <trkpt lat="45.87415" lon="4.64855">
        <ele>215</ele>
        <time>2018-03-22T14:48:27Z</time>
      </trkpt>
      <trkpt lat="45.87418" lon="4.64851">
        <ele>218</ele>
        <time>2018-03-22T14:48:28Z</time>
      </trkpt>
      <trkpt lat="45.87425" lon="4.64843">
        <ele>218</ele>
        <time>2018-03-22T14:48:30Z</time>
      </trkpt>
      <trkpt lat="45.87429" lon="4.64839">
        <ele>218</ele>
        <time>2018-03-22T14:48:31Z</time>
      </trkpt>
      <trkpt lat="45.87432" lon="4.64834">
        <ele>218</ele>
        <time>2018-03-22T14:48:32Z</time>
      </trkpt>
      <trkpt lat="45.87437" lon="4.6483">
        <ele>215</ele>
        <time>2018-03-22T14:48:33Z</time>
      </trkpt>
      <trkpt lat="45.87443" lon="4.64823">
        <ele>215</ele>
        <time>2018-03-22T14:48:35Z</time>
      </trkpt>
      <trkpt lat="45.87447" lon="4.6482">
        <ele>215</ele>
        <time>2018-03-22T14:48:36Z</time>
      </trkpt>
      <trkpt lat="45.87451" lon="4.64816">
        <ele>215</ele>
        <time>2018-03-22T14:48:38Z</time>
      </trkpt>
      <trkpt lat="45.87455" lon="4.64809">
        <ele>215</ele>
        <time>2018-03-22T14:48:39Z</time>
      </trkpt>
      <trkpt lat="45.8746" lon="4.64801">
        <ele>215</ele>
        <time>2018-03-22T14:48:41Z</time>
      </trkpt>
      <trkpt lat="45.87463" lon="4.64797">
        <ele>214</ele>
        <time>2018-03-22T14:48:42Z</time>
      </trkpt>
      <trkpt lat="45.87469" lon="4.64788">
        <ele>214</ele>
        <time>2018-03-22T14:48:44Z</time>
      </trkpt>
      <trkpt lat="45.87471" lon="4.64783">
        <ele>214</ele>
        <time>2018-03-22T14:48:45Z</time>
      </trkpt>
      <trkpt lat="45.87477" lon="4.64774">
        <ele>214</ele>
        <time>2018-03-22T14:48:47Z</time>
      </trkpt>
      <trkpt lat="45.87479" lon="4.6477">
        <ele>214</ele>
        <time>2018-03-22T14:48:48Z</time>
      </trkpt>
      <trkpt lat="45.87486" lon="4.64761">
        <ele>214</ele>
        <time>2018-03-22T14:48:50Z</time>
      </trkpt>
      <trkpt lat="45.87488" lon="4.64757">
        <ele>214</ele>
        <time>2018-03-22T14:48:51Z</time>
      </trkpt>
      <trkpt lat="45.87495" lon="4.64749">
        <ele>213</ele>
        <time>2018-03-22T14:48:53Z</time>
      </trkpt>
      <trkpt lat="45.87498" lon="4.64745">
        <ele>213</ele>
        <time>2018-03-22T14:48:54Z</time>
      </trkpt>
      <trkpt lat="45.87504" lon="4.64736">
        <ele>213</ele>
        <time>2018-03-22T14:48:56Z</time>
      </trkpt>
      <trkpt lat="45.87507" lon="4.64732">
        <ele>213</ele>
        <time>2018-03-22T14:48:57Z</time>
      </trkpt>
      <trkpt lat="45.87512" lon="4.64723">
        <ele>213</ele>
        <time>2018-03-22T14:48:59Z</time>
      </trkpt>
      <trkpt lat="45.87515" lon="4.6472">
        <ele>212</ele>
        <time>2018-03-22T14:49:00Z</time>
      </trkpt>
      <trkpt lat="45.87521" lon="4.64712">
        <ele>212</ele>
        <time>2018-03-22T14:49:02Z</time>
      </trkpt>
      <trkpt lat="45.87525" lon="4.64708">
        <ele>212</ele>
        <time>2018-03-22T14:49:03Z</time>
      </trkpt>
      <trkpt lat="45.87531" lon="4.647">
        <ele>212</ele>
        <time>2018-03-22T14:49:05Z</time>
      </trkpt>
      <trkpt lat="45.87534" lon="4.64696">
        <ele>212</ele>
        <time>2018-03-22T14:49:06Z</time>
      </trkpt>
      <trkpt lat="45.8754" lon="4.64688">
        <ele>212</ele>
        <time>2018-03-22T14:49:08Z</time>
      </trkpt>
      <trkpt lat="45.87543" lon="4.64684">
        <ele>212</ele>
        <time>2018-03-22T14:49:09Z</time>
      </trkpt>
      <trkpt lat="45.87547" lon="4.64679">
        <ele>212</ele>
        <time>2018-03-22T14:49:10Z</time>
      </trkpt>
      <trkpt lat="45.8755" lon="4.64675">
        <ele>212</ele>
        <time>2018-03-22T14:49:11Z</time>
      </trkpt>
      <trkpt lat="45.87556" lon="4.64667">
        <ele>212</ele>
        <time>2018-03-22T14:49:13Z</time>
      </trkpt>
      <trkpt lat="45.87559" lon="4.64663">
        <ele>212</ele>
        <time>2018-03-22T14:49:14Z</time>
      </trkpt>
      <trkpt lat="45.87562" lon="4.64658">
        <ele>212</ele>
        <time>2018-03-22T14:49:15Z</time>
      </trkpt>
      <trkpt lat="45.87566" lon="4.64653">
        <ele>212</ele>
        <time>2018-03-22T14:49:16Z</time>
      </trkpt>
      <trkpt lat="45.87572" lon="4.64644">
        <ele>212</ele>
        <time>2018-03-22T14:49:18Z</time>
      </trkpt>
      <trkpt lat="45.87575" lon="4.6464">
        <ele>212</ele>
        <time>2018-03-22T14:49:19Z</time>
      </trkpt>
      <trkpt lat="45.87581" lon="4.64632">
        <ele>212</ele>
        <time>2018-03-22T14:49:21Z</time>
      </trkpt>
      <trkpt lat="45.87584" lon="4.64628">
        <ele>212</ele>
        <time>2018-03-22T14:49:22Z</time>
      </trkpt>
      <trkpt lat="45.8759" lon="4.64619">
        <ele>212</ele>
        <time>2018-03-22T14:49:24Z</time>
      </trkpt>
      <trkpt lat="45.87593" lon="4.64615">
        <ele>212</ele>
        <time>2018-03-22T14:49:25Z</time>
      </trkpt>
      <trkpt lat="45.87599" lon="4.64605">
        <ele>212</ele>
        <time>2018-03-22T14:49:27Z</time>
      </trkpt>
      <trkpt lat="45.87602" lon="4.64602">
        <ele>212</ele>
        <time>2018-03-22T14:49:28Z</time>
      </trkpt>
      <trkpt lat="45.87608" lon="4.64594">
        <ele>212</ele>
        <time>2018-03-22T14:49:30Z</time>
      </trkpt>
      <trkpt lat="45.87612" lon="4.6459">
        <ele>212</ele>
        <time>2018-03-22T14:49:31Z</time>
      </trkpt>
      <trkpt lat="45.87618" lon="4.64584">
        <ele>212</ele>
        <time>2018-03-22T14:49:33Z</time>
      </trkpt>
      <trkpt lat="45.87621" lon="4.6458">
        <ele>212</ele>
        <time>2018-03-22T14:49:34Z</time>
      </trkpt>
      <trkpt lat="45.87627" lon="4.64573">
        <ele>212</ele>
        <time>2018-03-22T14:49:36Z</time>
      </trkpt>
      <trkpt lat="45.87629" lon="4.64569">
        <ele>212</ele>
        <time>2018-03-22T14:49:37Z</time>
      </trkpt>
      <trkpt lat="45.87635" lon="4.64561">
        <ele>212</ele>
        <time>2018-03-22T14:49:39Z</time>
      </trkpt>
      <trkpt lat="45.87638" lon="4.64557">
        <ele>212</ele>
        <time>2018-03-22T14:49:40Z</time>
      </trkpt>
      <trkpt lat="45.87644" lon="4.6455">
        <ele>212</ele>
        <time>2018-03-22T14:49:42Z</time>
      </trkpt>
      <trkpt lat="45.87647" lon="4.64546">
        <ele>213</ele>
        <time>2018-03-22T14:49:43Z</time>
      </trkpt>
      <trkpt lat="45.87653" lon="4.64538">
        <ele>213</ele>
        <time>2018-03-22T14:49:45Z</time>
      </trkpt>
      <trkpt lat="45.87655" lon="4.64535">
        <ele>213</ele>
        <time>2018-03-22T14:49:46Z</time>
      </trkpt>
      <trkpt lat="45.87661" lon="4.64528">
        <ele>213</ele>
        <time>2018-03-22T14:49:49Z</time>
      </trkpt>
      <trkpt lat="45.87666" lon="4.64522">
        <ele>213</ele>
        <time>2018-03-22T14:49:50Z</time>
      </trkpt>
      <trkpt lat="45.87672" lon="4.64515">
        <ele>215</ele>
        <time>2018-03-22T14:49:52Z</time>
      </trkpt>
      <trkpt lat="45.87675" lon="4.64511">
        <ele>215</ele>
        <time>2018-03-22T14:49:53Z</time>
      </trkpt>
      <trkpt lat="45.8768" lon="4.64504">
        <ele>215</ele>
        <time>2018-03-22T14:49:56Z</time>
      </trkpt>
      <trkpt lat="45.87682" lon="4.64502">
        <ele>215</ele>
        <time>2018-03-22T14:49:57Z</time>
      </trkpt>
      <trkpt lat="45.8769" lon="4.64503">
        <ele>215</ele>
        <time>2018-03-22T14:50:00Z</time>
      </trkpt>
      <trkpt lat="45.87697" lon="4.64511">
        <ele>215</ele>
        <time>2018-03-22T14:50:01Z</time>
      </trkpt>
      <trkpt lat="45.87701" lon="4.64519">
        <ele>215</ele>
        <time>2018-03-22T14:50:02Z</time>
      </trkpt>
      <trkpt lat="45.87703" lon="4.64524">
        <ele>215</ele>
        <time>2018-03-22T14:50:03Z</time>
      </trkpt>
      <trkpt lat="45.8771" lon="4.64531">
        <ele>216</ele>
        <time>2018-03-22T14:50:05Z</time>
      </trkpt>
      <trkpt lat="45.87712" lon="4.64536">
        <ele>216</ele>
        <time>2018-03-22T14:50:06Z</time>
      </trkpt>
      <trkpt lat="45.87717" lon="4.64544">
        <ele>216</ele>
        <time>2018-03-22T14:50:08Z</time>
      </trkpt>
      <trkpt lat="45.8772" lon="4.64548">
        <ele>216</ele>
        <time>2018-03-22T14:50:09Z</time>
      </trkpt>
      <trkpt lat="45.87724" lon="4.64559">
        <ele>217</ele>
        <time>2018-03-22T14:50:11Z</time>
      </trkpt>
      <trkpt lat="45.87726" lon="4.64564">
        <ele>217</ele>
        <time>2018-03-22T14:50:12Z</time>
      </trkpt>
      <trkpt lat="45.87726" lon="4.64576">
        <ele>217</ele>
        <time>2018-03-22T14:50:14Z</time>
      </trkpt>
      <trkpt lat="45.87726" lon="4.64582">
        <ele>217</ele>
        <time>2018-03-22T14:50:15Z</time>
      </trkpt>
      <trkpt lat="45.87728" lon="4.64593">
        <ele>218</ele>
        <time>2018-03-22T14:50:17Z</time>
      </trkpt>
      <trkpt lat="45.87729" lon="4.64598">
        <ele>218</ele>
        <time>2018-03-22T14:50:18Z</time>
      </trkpt>
      <trkpt lat="45.87729" lon="4.64609">
        <ele>217</ele>
        <time>2018-03-22T14:50:20Z</time>
      </trkpt>
      <trkpt lat="45.87728" lon="4.64615">
        <ele>217</ele>
        <time>2018-03-22T14:50:21Z</time>
      </trkpt>
      <trkpt lat="45.87729" lon="4.64621">
        <ele>217</ele>
        <time>2018-03-22T14:50:22Z</time>
      </trkpt>
      <trkpt lat="45.87732" lon="4.64627">
        <ele>217</ele>
        <time>2018-03-22T14:50:23Z</time>
      </trkpt>
      <trkpt lat="45.87735" lon="4.64638">
        <ele>217</ele>
        <time>2018-03-22T14:50:25Z</time>
      </trkpt>
      <trkpt lat="45.87734" lon="4.64645">
        <ele>217</ele>
        <time>2018-03-22T14:50:26Z</time>
      </trkpt>
      <trkpt lat="45.87732" lon="4.64656">
        <ele>217</ele>
        <time>2018-03-22T14:50:28Z</time>
      </trkpt>
      <trkpt lat="45.87731" lon="4.64662">
        <ele>217</ele>
        <time>2018-03-22T14:50:29Z</time>
      </trkpt>
      <trkpt lat="45.87731" lon="4.64673">
        <ele>216</ele>
        <time>2018-03-22T14:50:31Z</time>
      </trkpt>
      <trkpt lat="45.87731" lon="4.64679">
        <ele>216</ele>
        <time>2018-03-22T14:50:32Z</time>
      </trkpt>
      <trkpt lat="45.87729" lon="4.64691">
        <ele>216</ele>
        <time>2018-03-22T14:50:34Z</time>
      </trkpt>
      <trkpt lat="45.87729" lon="4.64696">
        <ele>216</ele>
        <time>2018-03-22T14:50:35Z</time>
      </trkpt>
      <trkpt lat="45.87728" lon="4.64708">
        <ele>215</ele>
        <time>2018-03-22T14:50:37Z</time>
      </trkpt>
      <trkpt lat="45.87728" lon="4.64714">
        <ele>215</ele>
        <time>2018-03-22T14:50:38Z</time>
      </trkpt>
      <trkpt lat="45.87729" lon="4.64724">
        <ele>215</ele>
        <time>2018-03-22T14:50:40Z</time>
      </trkpt>
      <trkpt lat="45.8773" lon="4.6473">
        <ele>214</ele>
        <time>2018-03-22T14:50:41Z</time>
      </trkpt>
      <trkpt lat="45.87733" lon="4.64741">
        <ele>214</ele>
        <time>2018-03-22T14:50:43Z</time>
      </trkpt>
      <trkpt lat="45.87734" lon="4.64746">
        <ele>214</ele>
        <time>2018-03-22T14:50:44Z</time>
      </trkpt>
      <trkpt lat="45.87736" lon="4.64757">
        <ele>213</ele>
        <time>2018-03-22T14:50:46Z</time>
      </trkpt>
      <trkpt lat="45.87737" lon="4.64762">
        <ele>213</ele>
        <time>2018-03-22T14:50:47Z</time>
      </trkpt>
      <trkpt lat="45.87739" lon="4.64772">
        <ele>213</ele>
        <time>2018-03-22T14:50:49Z</time>
      </trkpt>
      <trkpt lat="45.8774" lon="4.64775">
        <ele>213</ele>
        <time>2018-03-22T14:50:50Z</time>
      </trkpt>
      <trkpt lat="45.87741" lon="4.6478">
        <ele>213</ele>
        <time>2018-03-22T14:50:52Z</time>
      </trkpt>
      <trkpt lat="45.87745" lon="4.6479">
        <ele>213</ele>
        <time>2018-03-22T14:50:53Z</time>
      </trkpt>
      <trkpt lat="45.8775" lon="4.648">
        <ele>214</ele>
        <time>2018-03-22T14:50:56Z</time>
      </trkpt>
      <trkpt lat="45.87752" lon="4.64803">
        <ele>214</ele>
        <time>2018-03-22T14:50:57Z</time>
      </trkpt>
      <trkpt lat="45.87756" lon="4.6481">
        <ele>214</ele>
        <time>2018-03-22T14:50:59Z</time>
      </trkpt>
      <trkpt lat="45.87758" lon="4.64813">
        <ele>214</ele>
        <time>2018-03-22T14:51:00Z</time>
      </trkpt>
      <trkpt lat="45.87763" lon="4.64821">
        <ele>214</ele>
        <time>2018-03-22T14:51:03Z</time>
      </trkpt>
      <trkpt lat="45.87764" lon="4.64824">
        <ele>214</ele>
        <time>2018-03-22T14:51:04Z</time>
      </trkpt>
      <trkpt lat="45.87769" lon="4.64833">
        <ele>214</ele>
        <time>2018-03-22T14:51:07Z</time>
      </trkpt>
      <trkpt lat="45.8777" lon="4.64836">
        <ele>216</ele>
        <time>2018-03-22T14:51:08Z</time>
      </trkpt>
      <trkpt lat="45.87776" lon="4.64843">
        <ele>217</ele>
        <time>2018-03-22T14:51:11Z</time>
      </trkpt>
      <trkpt lat="45.87777" lon="4.64846">
        <ele>217</ele>
        <time>2018-03-22T14:51:12Z</time>
      </trkpt>
      <trkpt lat="45.87783" lon="4.64856">
        <ele>218</ele>
        <time>2018-03-22T14:51:16Z</time>
      </trkpt>
      <trkpt lat="45.87784" lon="4.64858">
        <ele>218</ele>
        <time>2018-03-22T14:51:17Z</time>
      </trkpt>
      <trkpt lat="45.8779" lon="4.64866">
        <ele>218</ele>
        <time>2018-03-22T14:51:21Z</time>
      </trkpt>
      <trkpt lat="45.87792" lon="4.64868">
        <ele>218</ele>
        <time>2018-03-22T14:51:22Z</time>
      </trkpt>
      <trkpt lat="45.87796" lon="4.64877">
        <ele>219</ele>
        <time>2018-03-22T14:51:26Z</time>
      </trkpt>
      <trkpt lat="45.87797" lon="4.64879">
        <ele>219</ele>
        <time>2018-03-22T14:51:27Z</time>
      </trkpt>
      <trkpt lat="45.87801" lon="4.64889">
        <ele>219</ele>
        <time>2018-03-22T14:51:32Z</time>
      </trkpt>
      <trkpt lat="45.87802" lon="4.64891">
        <ele>219</ele>
        <time>2018-03-22T14:51:33Z</time>
      </trkpt>
      <trkpt lat="45.87806" lon="4.649">
        <ele>220</ele>
        <time>2018-03-22T14:51:37Z</time>
      </trkpt>
      <trkpt lat="45.87807" lon="4.64902">
        <ele>220</ele>
        <time>2018-03-22T14:51:38Z</time>
      </trkpt>
      <trkpt lat="45.87812" lon="4.64913">
        <ele>220</ele>
        <time>2018-03-22T14:51:43Z</time>
      </trkpt>
      <trkpt lat="45.87813" lon="4.64916">
        <ele>220</ele>
        <time>2018-03-22T14:51:44Z</time>
      </trkpt>
      <trkpt lat="45.87816" lon="4.64925">
        <ele>224</ele>
        <time>2018-03-22T14:51:48Z</time>
      </trkpt>
      <trkpt lat="45.87817" lon="4.64928">
        <ele>224</ele>
        <time>2018-03-22T14:51:49Z</time>
      </trkpt>
      <trkpt lat="45.87821" lon="4.64939">
        <ele>225</ele>
        <time>2018-03-22T14:51:54Z</time>
      </trkpt>
      <trkpt lat="45.87822" lon="4.64941">
        <ele>225</ele>
        <time>2018-03-22T14:51:55Z</time>
      </trkpt>
      <trkpt lat="45.87828" lon="4.64947">
        <ele>225</ele>
        <time>2018-03-22T14:51:59Z</time>
      </trkpt>
      <trkpt lat="45.87829" lon="4.64949">
        <ele>225</ele>
        <time>2018-03-22T14:52:00Z</time>
      </trkpt>
      <trkpt lat="45.87836" lon="4.64957">
        <ele>228</ele>
        <time>2018-03-22T14:52:05Z</time>
      </trkpt>
      <trkpt lat="45.87838" lon="4.64959">
        <ele>228</ele>
        <time>2018-03-22T14:52:06Z</time>
      </trkpt>
      <trkpt lat="45.87845" lon="4.64965">
        <ele>228</ele>
        <time>2018-03-22T14:52:11Z</time>
      </trkpt>
      <trkpt lat="45.87846" lon="4.64966">
        <ele>229</ele>
        <time>2018-03-22T14:52:12Z</time>
      </trkpt>
      <trkpt lat="45.87853" lon="4.64972">
        <ele>229</ele>
        <time>2018-03-22T14:52:17Z</time>
      </trkpt>
      <trkpt lat="45.87854" lon="4.64972">
        <ele>229</ele>
        <time>2018-03-22T14:52:18Z</time>
      </trkpt>
      <trkpt lat="45.87863" lon="4.64977">
        <ele>229</ele>
        <time>2018-03-22T14:52:23Z</time>
      </trkpt>
      <trkpt lat="45.87864" lon="4.64978">
        <ele>230</ele>
        <time>2018-03-22T14:52:24Z</time>
      </trkpt>
      <trkpt lat="45.87873" lon="4.64983">
        <ele>230</ele>
        <time>2018-03-22T14:52:29Z</time>
      </trkpt>
      <trkpt lat="45.87874" lon="4.64984">
        <ele>230</ele>
        <time>2018-03-22T14:52:30Z</time>
      </trkpt>
      <trkpt lat="45.87882" lon="4.64987">
        <ele>231</ele>
        <time>2018-03-22T14:52:34Z</time>
      </trkpt>
      <trkpt lat="45.87884" lon="4.64988">
        <ele>231</ele>
        <time>2018-03-22T14:52:35Z</time>
      </trkpt>
      <trkpt lat="45.87891" lon="4.64989">
        <ele>232</ele>
        <time>2018-03-22T14:52:39Z</time>
      </trkpt>
      <trkpt lat="45.87893" lon="4.64989">
        <ele>232</ele>
        <time>2018-03-22T14:52:40Z</time>
      </trkpt>
      <trkpt lat="45.87902" lon="4.6499">
        <ele>233</ele>
        <time>2018-03-22T14:52:45Z</time>
      </trkpt>
      <trkpt lat="45.87903" lon="4.6499">
        <ele>233</ele>
        <time>2018-03-22T14:52:46Z</time>
      </trkpt>
      <trkpt lat="45.87911" lon="4.6499">
        <ele>234</ele>
        <time>2018-03-22T14:52:51Z</time>
      </trkpt>
      <trkpt lat="45.87913" lon="4.6499">
        <ele>234</ele>
        <time>2018-03-22T14:52:52Z</time>
      </trkpt>
      <trkpt lat="45.87921" lon="4.64987">
        <ele>237</ele>
        <time>2018-03-22T14:52:56Z</time>
      </trkpt>
      <trkpt lat="45.87922" lon="4.64986">
        <ele>237</ele>
        <time>2018-03-22T14:52:57Z</time>
      </trkpt>
      <trkpt lat="45.8793" lon="4.64982">
        <ele>237</ele>
        <time>2018-03-22T14:53:01Z</time>
      </trkpt>
      <trkpt lat="45.87932" lon="4.64982">
        <ele>237</ele>
        <time>2018-03-22T14:53:02Z</time>
      </trkpt>
      <trkpt lat="45.8794" lon="4.6498">
        <ele>237</ele>
        <time>2018-03-22T14:53:06Z</time>
      </trkpt>
      <trkpt lat="45.87941" lon="4.64979">
        <ele>237</ele>
        <time>2018-03-22T14:53:07Z</time>
      </trkpt>
      <trkpt lat="45.8795" lon="4.64975">
        <ele>238</ele>
        <time>2018-03-22T14:53:12Z</time>
      </trkpt>
      <trkpt lat="45.87951" lon="4.64973">
        <ele>238</ele>
        <time>2018-03-22T14:53:13Z</time>
      </trkpt>
      <trkpt lat="45.87958" lon="4.64969">
        <ele>238</ele>
        <time>2018-03-22T14:53:17Z</time>
      </trkpt>
      <trkpt lat="45.8796" lon="4.64967">
        <ele>238</ele>
        <time>2018-03-22T14:53:18Z</time>
      </trkpt>
      <trkpt lat="45.87966" lon="4.64962">
        <ele>238</ele>
        <time>2018-03-22T14:53:22Z</time>
      </trkpt>
      <trkpt lat="45.87968" lon="4.64961">
        <ele>238</ele>
        <time>2018-03-22T14:53:23Z</time>
      </trkpt>
      <trkpt lat="45.87975" lon="4.64956">
        <ele>238</ele>
        <time>2018-03-22T14:53:27Z</time>
      </trkpt>
      <trkpt lat="45.87977" lon="4.64954">
        <ele>238</ele>
        <time>2018-03-22T14:53:28Z</time>
      </trkpt>
      <trkpt lat="45.87983" lon="4.64948">
        <ele>237</ele>
        <time>2018-03-22T14:53:32Z</time>
      </trkpt>
      <trkpt lat="45.87984" lon="4.64946">
        <ele>237</ele>
        <time>2018-03-22T14:53:33Z</time>
      </trkpt>
      <trkpt lat="45.87991" lon="4.6494">
        <ele>237</ele>
        <time>2018-03-22T14:53:37Z</time>
      </trkpt>
      <trkpt lat="45.87993" lon="4.64938">
        <ele>237</ele>
        <time>2018-03-22T14:53:38Z</time>
      </trkpt>
      <trkpt lat="45.88001" lon="4.64932">
        <ele>242</ele>
        <time>2018-03-22T14:53:42Z</time>
      </trkpt>
      <trkpt lat="45.88002" lon="4.6493">
        <ele>242</ele>
        <time>2018-03-22T14:53:43Z</time>
      </trkpt>
      <trkpt lat="45.88009" lon="4.64923">
        <ele>241</ele>
        <time>2018-03-22T14:53:47Z</time>
      </trkpt>
      <trkpt lat="45.88011" lon="4.64922">
        <ele>241</ele>
        <time>2018-03-22T14:53:48Z</time>
      </trkpt>
      <trkpt lat="45.88018" lon="4.64917">
        <ele>243</ele>
        <time>2018-03-22T14:53:52Z</time>
      </trkpt>
      <trkpt lat="45.88019" lon="4.64916">
        <ele>237</ele>
        <time>2018-03-22T14:53:53Z</time>
      </trkpt>
      <trkpt lat="45.88026" lon="4.6491">
        <ele>238</ele>
        <time>2018-03-22T14:53:57Z</time>
      </trkpt>
      <trkpt lat="45.88028" lon="4.64909">
        <ele>238</ele>
        <time>2018-03-22T14:53:58Z</time>
      </trkpt>
      <trkpt lat="45.88034" lon="4.64901">
        <ele>239</ele>
        <time>2018-03-22T14:54:03Z</time>
      </trkpt>
      <trkpt lat="45.88036" lon="4.649">
        <ele>239</ele>
        <time>2018-03-22T14:54:04Z</time>
      </trkpt>
      <trkpt lat="45.88043" lon="4.64893">
        <ele>239</ele>
        <time>2018-03-22T14:54:09Z</time>
      </trkpt>
      <trkpt lat="45.88045" lon="4.64892">
        <ele>239</ele>
        <time>2018-03-22T14:54:10Z</time>
      </trkpt>
      <trkpt lat="45.88052" lon="4.64885">
        <ele>240</ele>
        <time>2018-03-22T14:54:15Z</time>
      </trkpt>
      <trkpt lat="45.88053" lon="4.64884">
        <ele>240</ele>
        <time>2018-03-22T14:54:16Z</time>
      </trkpt>
      <trkpt lat="45.88059" lon="4.64878">
        <ele>239</ele>
        <time>2018-03-22T14:54:20Z</time>
      </trkpt>
      <trkpt lat="45.88061" lon="4.64876">
        <ele>239</ele>
        <time>2018-03-22T14:54:21Z</time>
      </trkpt>
      <trkpt lat="45.88068" lon="4.64872">
        <ele>239</ele>
        <time>2018-03-22T14:54:25Z</time>
      </trkpt>
      <trkpt lat="45.88069" lon="4.64872">
        <ele>239</ele>
        <time>2018-03-22T14:54:26Z</time>
      </trkpt>
      <trkpt lat="45.88077" lon="4.64868">
        <ele>239</ele>
        <time>2018-03-22T14:54:31Z</time>
      </trkpt>
      <trkpt lat="45.88079" lon="4.64867">
        <ele>239</ele>
        <time>2018-03-22T14:54:32Z</time>
      </trkpt>
      <trkpt lat="45.88086" lon="4.64864">
        <ele>246</ele>
        <time>2018-03-22T14:54:37Z</time>
      </trkpt>
      <trkpt lat="45.88088" lon="4.64863">
        <ele>246</ele>
        <time>2018-03-22T14:54:38Z</time>
      </trkpt>
      <trkpt lat="45.88097" lon="4.64861">
        <ele>246</ele>
        <time>2018-03-22T14:54:43Z</time>
      </trkpt>
      <trkpt lat="45.88098" lon="4.64861">
        <ele>246</ele>
        <time>2018-03-22T14:54:44Z</time>
      </trkpt>
      <trkpt lat="45.88106" lon="4.64859">
        <ele>246</ele>
        <time>2018-03-22T14:54:48Z</time>
      </trkpt>
      <trkpt lat="45.88107" lon="4.64858">
        <ele>246</ele>
        <time>2018-03-22T14:54:49Z</time>
      </trkpt>
      <trkpt lat="45.88115" lon="4.64854">
        <ele>247</ele>
        <time>2018-03-22T14:54:54Z</time>
      </trkpt>
      <trkpt lat="45.88117" lon="4.64854">
        <ele>247</ele>
        <time>2018-03-22T14:54:55Z</time>
      </trkpt>
      <trkpt lat="45.88125" lon="4.64854">
        <ele>247</ele>
        <time>2018-03-22T14:55:00Z</time>
      </trkpt>
      <trkpt lat="45.88127" lon="4.64854">
        <ele>247</ele>
        <time>2018-03-22T14:55:01Z</time>
      </trkpt>
      <trkpt lat="45.88135" lon="4.64851">
        <ele>248</ele>
        <time>2018-03-22T14:55:06Z</time>
      </trkpt>
      <trkpt lat="45.88136" lon="4.6485">
        <ele>248</ele>
        <time>2018-03-22T14:55:07Z</time>
      </trkpt>
      <trkpt lat="45.88144" lon="4.64848">
        <ele>248</ele>
        <time>2018-03-22T14:55:12Z</time>
      </trkpt>
      <trkpt lat="45.88145" lon="4.64848">
        <ele>248</ele>
        <time>2018-03-22T14:55:13Z</time>
      </trkpt>
      <trkpt lat="45.88153" lon="4.64846">
        <ele>247</ele>
        <time>2018-03-22T14:55:18Z</time>
      </trkpt>
      <trkpt lat="45.88155" lon="4.64845">
        <ele>247</ele>
        <time>2018-03-22T14:55:19Z</time>
      </trkpt>
      <trkpt lat="45.88163" lon="4.64844">
        <ele>247</ele>
        <time>2018-03-22T14:55:24Z</time>
      </trkpt>
      <trkpt lat="45.88165" lon="4.64844">
        <ele>247</ele>
        <time>2018-03-22T14:55:25Z</time>
      </trkpt>
      <trkpt lat="45.88174" lon="4.64842">
        <ele>250</ele>
        <time>2018-03-22T14:55:30Z</time>
      </trkpt>
      <trkpt lat="45.88176" lon="4.64842">
        <ele>250</ele>
        <time>2018-03-22T14:55:31Z</time>
      </trkpt>
      <trkpt lat="45.88184" lon="4.64843">
        <ele>252</ele>
        <time>2018-03-22T14:55:36Z</time>
      </trkpt>
      <trkpt lat="45.88186" lon="4.64843">
        <ele>253</ele>
        <time>2018-03-22T14:55:37Z</time>
      </trkpt>
      <trkpt lat="45.88194" lon="4.64842">
        <ele>254</ele>
        <time>2018-03-22T14:55:42Z</time>
      </trkpt>
      <trkpt lat="45.88195" lon="4.64841">
        <ele>254</ele>
        <time>2018-03-22T14:55:43Z</time>
      </trkpt>
      <trkpt lat="45.88203" lon="4.64839">
        <ele>255</ele>
        <time>2018-03-22T14:55:48Z</time>
      </trkpt>
      <trkpt lat="45.88205" lon="4.64838">
        <ele>255</ele>
        <time>2018-03-22T14:55:49Z</time>
      </trkpt>
      <trkpt lat="45.88214" lon="4.64836">
        <ele>256</ele>
        <time>2018-03-22T14:55:54Z</time>
      </trkpt>
      <trkpt lat="45.88215" lon="4.64835">
        <ele>256</ele>
        <time>2018-03-22T14:55:55Z</time>
      </trkpt>
      <trkpt lat="45.88222" lon="4.64832">
        <ele>248</ele>
        <time>2018-03-22T14:56:00Z</time>
      </trkpt>
      <trkpt lat="45.88224" lon="4.64831">
        <ele>248</ele>
        <time>2018-03-22T14:56:01Z</time>
      </trkpt>
      <trkpt lat="45.88231" lon="4.64827">
        <ele>250</ele>
        <time>2018-03-22T14:56:06Z</time>
      </trkpt>
      <trkpt lat="45.88233" lon="4.64827">
        <ele>250</ele>
        <time>2018-03-22T14:56:07Z</time>
      </trkpt>
      <trkpt lat="45.88241" lon="4.64824">
        <ele>252</ele>
        <time>2018-03-22T14:56:13Z</time>
      </trkpt>
      <trkpt lat="45.88242" lon="4.64823">
        <ele>252</ele>
        <time>2018-03-22T14:56:14Z</time>
      </trkpt>
      <trkpt lat="45.8825" lon="4.64819">
        <ele>251</ele>
        <time>2018-03-22T14:56:20Z</time>
      </trkpt>
      <trkpt lat="45.88251" lon="4.64819">
        <ele>257</ele>
        <time>2018-03-22T14:56:21Z</time>
      </trkpt>
      <trkpt lat="45.8826" lon="4.64817">
        <ele>257</ele>
        <time>2018-03-22T14:56:27Z</time>
      </trkpt>
      <trkpt lat="45.88261" lon="4.64816">
        <ele>257</ele>
        <time>2018-03-22T14:56:28Z</time>
      </trkpt>
      <trkpt lat="45.88268" lon="4.6481">
        <ele>257</ele>
        <time>2018-03-22T14:56:34Z</time>
      </trkpt>
      <trkpt lat="45.88269" lon="4.64809">
        <ele>257</ele>
        <time>2018-03-22T14:56:35Z</time>
      </trkpt>
      <trkpt lat="45.88278" lon="4.64809">
        <ele>257</ele>
        <time>2018-03-22T14:56:40Z</time>
      </trkpt>
      <trkpt lat="45.88279" lon="4.64809">
        <ele>258</ele>
        <time>2018-03-22T14:56:41Z</time>
      </trkpt>
      <trkpt lat="45.88287" lon="4.64807">
        <ele>258</ele>
        <time>2018-03-22T14:56:46Z</time>
      </trkpt>
      <trkpt lat="45.88289" lon="4.64807">
        <ele>258</ele>
        <time>2018-03-22T14:56:47Z</time>
      </trkpt>
      <trkpt lat="45.88296" lon="4.64804">
        <ele>259</ele>
        <time>2018-03-22T14:56:52Z</time>
      </trkpt>
      <trkpt lat="45.88298" lon="4.64803">
        <ele>259</ele>
        <time>2018-03-22T14:56:53Z</time>
      </trkpt>
      <trkpt lat="45.88306" lon="4.648">
        <ele>259</ele>
        <time>2018-03-22T14:57:00Z</time>
      </trkpt>
      <trkpt lat="45.88307" lon="4.648">
        <ele>260</ele>
        <time>2018-03-22T14:57:01Z</time>
      </trkpt>
      <trkpt lat="45.88316" lon="4.648">
        <ele>260</ele>
        <time>2018-03-22T14:57:07Z</time>
      </trkpt>
      <trkpt lat="45.88317" lon="4.64799">
        <ele>260</ele>
        <time>2018-03-22T14:57:08Z</time>
      </trkpt>
      <trkpt lat="45.88325" lon="4.64799">
        <ele>261</ele>
        <time>2018-03-22T14:57:14Z</time>
      </trkpt>
      <trkpt lat="45.88326" lon="4.64799">
        <ele>261</ele>
        <time>2018-03-22T14:57:15Z</time>
      </trkpt>
      <trkpt lat="45.88334" lon="4.64797">
        <ele>267</ele>
        <time>2018-03-22T14:57:20Z</time>
      </trkpt>
      <trkpt lat="45.88336" lon="4.64797">
        <ele>267</ele>
        <time>2018-03-22T14:57:21Z</time>
      </trkpt>
      <trkpt lat="45.88344" lon="4.64794">
        <ele>267</ele>
        <time>2018-03-22T14:57:26Z</time>
      </trkpt>
      <trkpt lat="45.88346" lon="4.64794">
        <ele>267</ele>
        <time>2018-03-22T14:57:27Z</time>
      </trkpt>
      <trkpt lat="45.88353" lon="4.64791">
        <ele>267</ele>
        <time>2018-03-22T14:57:32Z</time>
      </trkpt>
      <trkpt lat="45.88355" lon="4.6479">
        <ele>267</ele>
        <time>2018-03-22T14:57:33Z</time>
      </trkpt>
      <trkpt lat="45.88362" lon="4.64787">
        <ele>266</ele>
        <time>2018-03-22T14:57:39Z</time>
      </trkpt>
      <trkpt lat="45.88364" lon="4.64787">
        <ele>267</ele>
        <time>2018-03-22T14:57:40Z</time>
      </trkpt>
      <trkpt lat="45.88372" lon="4.64786">
        <ele>267</ele>
        <time>2018-03-22T14:57:46Z</time>
      </trkpt>
      <trkpt lat="45.88373" lon="4.64787">
        <ele>267</ele>
        <time>2018-03-22T14:57:47Z</time>
      </trkpt>
      <trkpt lat="45.88382" lon="4.64785">
        <ele>267</ele>
        <time>2018-03-22T14:57:53Z</time>
      </trkpt>
      <trkpt lat="45.88384" lon="4.64784">
        <ele>267</ele>
        <time>2018-03-22T14:57:54Z</time>
      </trkpt>
      <trkpt lat="45.88392" lon="4.64782">
        <ele>267</ele>
        <time>2018-03-22T14:58:00Z</time>
      </trkpt>
      <trkpt lat="45.88393" lon="4.64782">
        <ele>267</ele>
        <time>2018-03-22T14:58:01Z</time>
      </trkpt>
      <trkpt lat="45.88402" lon="4.6478">
        <ele>267</ele>
        <time>2018-03-22T14:58:07Z</time>
      </trkpt>
      <trkpt lat="45.88403" lon="4.64779">
        <ele>267</ele>
        <time>2018-03-22T14:58:08Z</time>
      </trkpt>
      <trkpt lat="45.88411" lon="4.64775">
        <ele>266</ele>
        <time>2018-03-22T14:58:14Z</time>
      </trkpt>
      <trkpt lat="45.88413" lon="4.64775">
        <ele>266</ele>
        <time>2018-03-22T14:58:15Z</time>
      </trkpt>
      <trkpt lat="45.88421" lon="4.64775">
        <ele>269</ele>
        <time>2018-03-22T14:58:21Z</time>
      </trkpt>
      <trkpt lat="45.88423" lon="4.64776">
        <ele>269</ele>
        <time>2018-03-22T14:58:22Z</time>
      </trkpt>
      <trkpt lat="45.88431" lon="4.64775">
        <ele>270</ele>
        <time>2018-03-22T14:58:28Z</time>
      </trkpt>
      <trkpt lat="45.88433" lon="4.64774">
        <ele>270</ele>
        <time>2018-03-22T14:58:29Z</time>
      </trkpt>
      <trkpt lat="45.88441" lon="4.64772">
        <ele>270</ele>
        <time>2018-03-22T14:58:35Z</time>
      </trkpt>
      <trkpt lat="45.88443" lon="4.64772">
        <ele>270</ele>
        <time>2018-03-22T14:58:36Z</time>
      </trkpt>
      <trkpt lat="45.8845" lon="4.64773">
        <ele>270</ele>
        <time>2018-03-22T14:58:41Z</time>
      </trkpt>
      <trkpt lat="45.88452" lon="4.64773">
        <ele>270</ele>
        <time>2018-03-22T14:58:42Z</time>
      </trkpt>
      <trkpt lat="45.88461" lon="4.64773">
        <ele>271</ele>
        <time>2018-03-22T14:58:47Z</time>
      </trkpt>
      <trkpt lat="45.88462" lon="4.64773">
        <ele>271</ele>
        <time>2018-03-22T14:58:48Z</time>
      </trkpt>
      <trkpt lat="45.8847" lon="4.64772">
        <ele>271</ele>
        <time>2018-03-22T14:58:53Z</time>
      </trkpt>
      <trkpt lat="45.88472" lon="4.64772">
        <ele>271</ele>
        <time>2018-03-22T14:58:54Z</time>
      </trkpt>
      <trkpt lat="45.8848" lon="4.64771">
        <ele>271</ele>
        <time>2018-03-22T14:58:59Z</time>
      </trkpt>
      <trkpt lat="45.88481" lon="4.64771">
        <ele>271</ele>
        <time>2018-03-22T14:59:00Z</time>
      </trkpt>
      <trkpt lat="45.88489" lon="4.6477">
        <ele>270</ele>
        <time>2018-03-22T14:59:05Z</time>
      </trkpt>
      <trkpt lat="45.88491" lon="4.6477">
        <ele>270</ele>
        <time>2018-03-22T14:59:06Z</time>
      </trkpt>
      <trkpt lat="45.88498" lon="4.64769">
        <ele>270</ele>
        <time>2018-03-22T14:59:10Z</time>
      </trkpt>
      <trkpt lat="45.885" lon="4.64769">
        <ele>270</ele>
        <time>2018-03-22T14:59:11Z</time>
      </trkpt>
      <trkpt lat="45.88508" lon="4.6477">
        <ele>270</ele>
        <time>2018-03-22T14:59:15Z</time>
      </trkpt>
      <trkpt lat="45.88509" lon="4.6477">
        <ele>270</ele>
        <time>2018-03-22T14:59:16Z</time>
      </trkpt>
      <trkpt lat="45.88517" lon="4.64771">
        <ele>270</ele>
        <time>2018-03-22T14:59:20Z</time>
      </trkpt>
      <trkpt lat="45.88518" lon="4.64772">
        <ele>271</ele>
        <time>2018-03-22T14:59:21Z</time>
      </trkpt>
      <trkpt lat="45.88527" lon="4.64775">
        <ele>271</ele>
        <time>2018-03-22T14:59:26Z</time>
      </trkpt>
      <trkpt lat="45.88528" lon="4.64776">
        <ele>271</ele>
        <time>2018-03-22T14:59:27Z</time>
      </trkpt>
      <trkpt lat="45.88535" lon="4.64781">
        <ele>271</ele>
        <time>2018-03-22T14:59:32Z</time>
      </trkpt>
      <trkpt lat="45.88536" lon="4.64782">
        <ele>271</ele>
        <time>2018-03-22T14:59:33Z</time>
      </trkpt>
      <trkpt lat="45.88542" lon="4.64789">
        <ele>272</ele>
        <time>2018-03-22T14:59:38Z</time>
      </trkpt>
      <trkpt lat="45.88543" lon="4.6479">
        <ele>272</ele>
        <time>2018-03-22T14:59:39Z</time>
      </trkpt>
      <trkpt lat="45.88548" lon="4.648">
        <ele>272</ele>
        <time>2018-03-22T14:59:45Z</time>
      </trkpt>
      <trkpt lat="45.88548" lon="4.64802">
        <ele>272</ele>
        <time>2018-03-22T14:59:46Z</time>
      </trkpt>
      <trkpt lat="45.88551" lon="4.64814">
        <ele>273</ele>
        <time>2018-03-22T14:59:52Z</time>
      </trkpt>
      <trkpt lat="45.88551" lon="4.64816">
        <ele>273</ele>
        <time>2018-03-22T14:59:53Z</time>
      </trkpt>
      <trkpt lat="45.88551" lon="4.64827">
        <ele>273</ele>
        <time>2018-03-22T14:59:59Z</time>
      </trkpt>
      <trkpt lat="45.88551" lon="4.6483">
        <ele>273</ele>
        <time>2018-03-22T15:00:00Z</time>
      </trkpt>
      <trkpt lat="45.88551" lon="4.64842">
        <ele>276</ele>
        <time>2018-03-22T15:00:05Z</time>
      </trkpt>
      <trkpt lat="45.88551" lon="4.64844">
        <ele>276</ele>
        <time>2018-03-22T15:00:06Z</time>
      </trkpt>
      <trkpt lat="45.8855" lon="4.64856">
        <ele>276</ele>
        <time>2018-03-22T15:00:11Z</time>
      </trkpt>
      <trkpt lat="45.8855" lon="4.64858">
        <ele>276</ele>
        <time>2018-03-22T15:00:12Z</time>
      </trkpt>
      <trkpt lat="45.88547" lon="4.64869">
        <ele>277</ele>
        <time>2018-03-22T15:00:18Z</time>
      </trkpt>
      <trkpt lat="45.88547" lon="4.64871">
        <ele>277</ele>
        <time>2018-03-22T15:00:19Z</time>
      </trkpt>
      <trkpt lat="45.88545" lon="4.64883">
        <ele>277</ele>
        <time>2018-03-22T15:00:25Z</time>
      </trkpt>
      <trkpt lat="45.88545" lon="4.64885">
        <ele>277</ele>
        <time>2018-03-22T15:00:26Z</time>
      </trkpt>
      <trkpt lat="45.88543" lon="4.64896">
        <ele>277</ele>
        <time>2018-03-22T15:00:31Z</time>
      </trkpt>
      <trkpt lat="45.88543" lon="4.64899">
        <ele>277</ele>
        <time>2018-03-22T15:00:32Z</time>
      </trkpt>
      <trkpt lat="45.88542" lon="4.6491">
        <ele>278</ele>
        <time>2018-03-22T15:00:37Z</time>
      </trkpt>
      <trkpt lat="45.88541" lon="4.64912">
        <ele>278</ele>
        <time>2018-03-22T15:00:38Z</time>
      </trkpt>
      <trkpt lat="45.88539" lon="4.64922">
        <ele>280</ele>
        <time>2018-03-22T15:00:43Z</time>
      </trkpt>
      <trkpt lat="45.88539" lon="4.64925">
        <ele>280</ele>
        <time>2018-03-22T15:00:44Z</time>
      </trkpt>
      <trkpt lat="45.88538" lon="4.64936">
        <ele>280</ele>
        <time>2018-03-22T15:00:49Z</time>
      </trkpt>
      <trkpt lat="45.88537" lon="4.64938">
        <ele>280</ele>
        <time>2018-03-22T15:00:50Z</time>
      </trkpt>
      <trkpt lat="45.88537" lon="4.6495">
        <ele>280</ele>
        <time>2018-03-22T15:00:55Z</time>
      </trkpt>
      <trkpt lat="45.88537" lon="4.64952">
        <ele>281</ele>
        <time>2018-03-22T15:00:56Z</time>
      </trkpt>
      <trkpt lat="45.88535" lon="4.64963">
        <ele>281</ele>
        <time>2018-03-22T15:01:01Z</time>
      </trkpt>
      <trkpt lat="45.88535" lon="4.64965">
        <ele>281</ele>
        <time>2018-03-22T15:01:02Z</time>
      </trkpt>
      <trkpt lat="45.88532" lon="4.64977">
        <ele>282</ele>
        <time>2018-03-22T15:01:09Z</time>
      </trkpt>
      <trkpt lat="45.88531" lon="4.64979">
        <ele>282</ele>
        <time>2018-03-22T15:01:10Z</time>
      </trkpt>
      <trkpt lat="45.88531" lon="4.64992">
        <ele>282</ele>
        <time>2018-03-22T15:01:16Z</time>
      </trkpt>
      <trkpt lat="45.88531" lon="4.64994">
        <ele>282</ele>
        <time>2018-03-22T15:01:17Z</time>
      </trkpt>
      <trkpt lat="45.88529" lon="4.65006">
        <ele>285</ele>
        <time>2018-03-22T15:01:24Z</time>
      </trkpt>
      <trkpt lat="45.88528" lon="4.65007">
        <ele>285</ele>
        <time>2018-03-22T15:01:25Z</time>
      </trkpt>
      <trkpt lat="45.88524" lon="4.65019">
        <ele>285</ele>
        <time>2018-03-22T15:01:31Z</time>
      </trkpt>
      <trkpt lat="45.88524" lon="4.65021">
        <ele>285</ele>
        <time>2018-03-22T15:01:32Z</time>
      </trkpt>
      <trkpt lat="45.88523" lon="4.65033">
        <ele>285</ele>
        <time>2018-03-22T15:01:38Z</time>
      </trkpt>
      <trkpt lat="45.88523" lon="4.65035">
        <ele>285</ele>
        <time>2018-03-22T15:01:39Z</time>
      </trkpt>
      <trkpt lat="45.88519" lon="4.65045">
        <ele>285</ele>
        <time>2018-03-22T15:01:44Z</time>
      </trkpt>
      <trkpt lat="45.88518" lon="4.65046">
        <ele>285</ele>
        <time>2018-03-22T15:01:45Z</time>
      </trkpt>
      <trkpt lat="45.88513" lon="4.65057">
        <ele>286</ele>
        <time>2018-03-22T15:01:51Z</time>
      </trkpt>
      <trkpt lat="45.88513" lon="4.65058">
        <ele>286</ele>
        <time>2018-03-22T15:01:52Z</time>
      </trkpt>
      <trkpt lat="45.88508" lon="4.65067">
        <ele>287</ele>
        <time>2018-03-22T15:01:57Z</time>
      </trkpt>
      <trkpt lat="45.88507" lon="4.65069">
        <ele>287</ele>
        <time>2018-03-22T15:01:58Z</time>
      </trkpt>
      <trkpt lat="45.88504" lon="4.6508">
        <ele>289</ele>
        <time>2018-03-22T15:02:03Z</time>
      </trkpt>
      <trkpt lat="45.88503" lon="4.65081">
        <ele>289</ele>
        <time>2018-03-22T15:02:04Z</time>
      </trkpt>
      <trkpt lat="45.88497" lon="4.65091">
        <ele>291</ele>
        <time>2018-03-22T15:02:10Z</time>
      </trkpt>
      <trkpt lat="45.88496" lon="4.65092">
        <ele>291</ele>
        <time>2018-03-22T15:02:11Z</time>
      </trkpt>
      <trkpt lat="45.88491" lon="4.65101">
        <ele>292</ele>
        <time>2018-03-22T15:02:16Z</time>
      </trkpt>
      <trkpt lat="45.8849" lon="4.65102">
        <ele>292</ele>
        <time>2018-03-22T15:02:17Z</time>
      </trkpt>
      <trkpt lat="45.88485" lon="4.65111">
        <ele>293</ele>
        <time>2018-03-22T15:02:22Z</time>
      </trkpt>
      <trkpt lat="45.88484" lon="4.65113">
        <ele>293</ele>
        <time>2018-03-22T15:02:23Z</time>
      </trkpt>
      <trkpt lat="45.88477" lon="4.6512">
        <ele>293</ele>
        <time>2018-03-22T15:02:28Z</time>
      </trkpt>
      <trkpt lat="45.88476" lon="4.65121">
        <ele>293</ele>
        <time>2018-03-22T15:02:29Z</time>
      </trkpt>
      <trkpt lat="45.8847" lon="4.65129">
        <ele>294</ele>
        <time>2018-03-22T15:02:34Z</time>
      </trkpt>
      <trkpt lat="45.88469" lon="4.65131">
        <ele>294</ele>
        <time>2018-03-22T15:02:35Z</time>
      </trkpt>
      <trkpt lat="45.88463" lon="4.65139">
        <ele>294</ele>
        <time>2018-03-22T15:02:40Z</time>
      </trkpt>
      <trkpt lat="45.88462" lon="4.6514">
        <ele>294</ele>
        <time>2018-03-22T15:02:41Z</time>
      </trkpt>
      <trkpt lat="45.88455" lon="4.65147">
        <ele>295</ele>
        <time>2018-03-22T15:02:46Z</time>
      </trkpt>
      <trkpt lat="45.88454" lon="4.65148">
        <ele>295</ele>
        <time>2018-03-22T15:02:47Z</time>
      </trkpt>
      <trkpt lat="45.88447" lon="4.65155">
        <ele>295</ele>
        <time>2018-03-22T15:02:52Z</time>
      </trkpt>
      <trkpt lat="45.88446" lon="4.65157">
        <ele>295</ele>
        <time>2018-03-22T15:02:53Z</time>
      </trkpt>
      <trkpt lat="45.8844" lon="4.65166">
        <ele>296</ele>
        <time>2018-03-22T15:02:59Z</time>
      </trkpt>
      <trkpt lat="45.88439" lon="4.65168">
        <ele>297</ele>
        <time>2018-03-22T15:03:00Z</time>
      </trkpt>
      <trkpt lat="45.88433" lon="4.65175">
        <ele>298</ele>
        <time>2018-03-22T15:03:05Z</time>
      </trkpt>
      <trkpt lat="45.88432" lon="4.65177">
        <ele>298</ele>
        <time>2018-03-22T15:03:06Z</time>
      </trkpt>
      <trkpt lat="45.88424" lon="4.65184">
        <ele>298</ele>
        <time>2018-03-22T15:03:11Z</time>
      </trkpt>
      <trkpt lat="45.88423" lon="4.65185">
        <ele>298</ele>
        <time>2018-03-22T15:03:12Z</time>
      </trkpt>
      <trkpt lat="45.88417" lon="4.65193">
        <ele>298</ele>
        <time>2018-03-22T15:03:17Z</time>
      </trkpt>
      <trkpt lat="45.88416" lon="4.65194">
        <ele>299</ele>
        <time>2018-03-22T15:03:18Z</time>
      </trkpt>
      <trkpt lat="45.88409" lon="4.652">
        <ele>299</ele>
        <time>2018-03-22T15:03:23Z</time>
      </trkpt>
      <trkpt lat="45.88407" lon="4.65202">
        <ele>299</ele>
        <time>2018-03-22T15:03:24Z</time>
      </trkpt>
      <trkpt lat="45.88401" lon="4.65208">
        <ele>300</ele>
        <time>2018-03-22T15:03:28Z</time>
      </trkpt>
      <trkpt lat="45.88399" lon="4.65209">
        <ele>300</ele>
        <time>2018-03-22T15:03:29Z</time>
      </trkpt>
      <trkpt lat="45.88393" lon="4.65216">
        <ele>300</ele>
        <time>2018-03-22T15:03:33Z</time>
      </trkpt>
      <trkpt lat="45.88391" lon="4.65217">
        <ele>300</ele>
        <time>2018-03-22T15:03:34Z</time>
      </trkpt>
      <trkpt lat="45.88384" lon="4.65225">
        <ele>300</ele>
        <time>2018-03-22T15:03:39Z</time>
      </trkpt>
      <trkpt lat="45.88383" lon="4.65226">
        <ele>300</ele>
        <time>2018-03-22T15:03:40Z</time>
      </trkpt>
      <trkpt lat="45.88377" lon="4.65234">
        <ele>300</ele>
        <time>2018-03-22T15:03:45Z</time>
      </trkpt>
      <trkpt lat="45.88376" lon="4.65235">
        <ele>300</ele>
        <time>2018-03-22T15:03:46Z</time>
      </trkpt>
      <trkpt lat="45.88369" lon="4.65243">
        <ele>300</ele>
        <time>2018-03-22T15:03:51Z</time>
      </trkpt>
      <trkpt lat="45.88368" lon="4.65244">
        <ele>300</ele>
        <time>2018-03-22T15:03:52Z</time>
      </trkpt>
      <trkpt lat="45.88361" lon="4.65251">
        <ele>301</ele>
        <time>2018-03-22T15:03:57Z</time>
      </trkpt>
      <trkpt lat="45.8836" lon="4.65252">
        <ele>301</ele>
        <time>2018-03-22T15:03:58Z</time>
      </trkpt>
      <trkpt lat="45.88352" lon="4.65259">
        <ele>301</ele>
        <time>2018-03-22T15:04:03Z</time>
      </trkpt>
      <trkpt lat="45.88351" lon="4.65261">
        <ele>301</ele>
        <time>2018-03-22T15:04:04Z</time>
      </trkpt>
      <trkpt lat="45.88345" lon="4.65267">
        <ele>301</ele>
        <time>2018-03-22T15:04:08Z</time>
      </trkpt>
      <trkpt lat="45.88343" lon="4.65269">
        <ele>301</ele>
        <time>2018-03-22T15:04:09Z</time>
      </trkpt>
      <trkpt lat="45.88338" lon="4.65276">
        <ele>302</ele>
        <time>2018-03-22T15:04:14Z</time>
      </trkpt>
      <trkpt lat="45.88337" lon="4.65278">
        <ele>302</ele>
        <time>2018-03-22T15:04:15Z</time>
      </trkpt>
      <trkpt lat="45.88331" lon="4.65284">
        <ele>304</ele>
        <time>2018-03-22T15:04:19Z</time>
      </trkpt>
      <trkpt lat="45.88329" lon="4.65286">
        <ele>304</ele>
        <time>2018-03-22T15:04:20Z</time>
      </trkpt>
      <trkpt lat="45.88323" lon="4.65293">
        <ele>304</ele>
        <time>2018-03-22T15:04:25Z</time>
      </trkpt>
      <trkpt lat="45.88322" lon="4.65294">
        <ele>304</ele>
        <time>2018-03-22T15:04:26Z</time>
      </trkpt>
      <trkpt lat="45.88317" lon="4.65303">
        <ele>305</ele>
        <time>2018-03-22T15:04:31Z</time>
      </trkpt>
      <trkpt lat="45.88316" lon="4.65305">
        <ele>305</ele>
        <time>2018-03-22T15:04:32Z</time>
      </trkpt>
      <trkpt lat="45.8831" lon="4.65314">
        <ele>305</ele>
        <time>2018-03-22T15:04:37Z</time>
      </trkpt>
      <trkpt lat="45.88309" lon="4.65316">
        <ele>305</ele>
        <time>2018-03-22T15:04:38Z</time>
      </trkpt>
      <trkpt lat="45.88306" lon="4.65327">
        <ele>305</ele>
        <time>2018-03-22T15:04:43Z</time>
      </trkpt>
      <trkpt lat="45.88305" lon="4.65329">
        <ele>305</ele>
        <time>2018-03-22T15:04:44Z</time>
      </trkpt>
      <trkpt lat="45.88301" lon="4.65339">
        <ele>307</ele>
        <time>2018-03-22T15:04:49Z</time>
      </trkpt>
      <trkpt lat="45.883" lon="4.65341">
        <ele>307</ele>
        <time>2018-03-22T15:04:50Z</time>
      </trkpt>
      <trkpt lat="45.88294" lon="4.6535">
        <ele>307</ele>
        <time>2018-03-22T15:04:55Z</time>
      </trkpt>
      <trkpt lat="45.88293" lon="4.65352">
        <ele>307</ele>
        <time>2018-03-22T15:04:56Z</time>
      </trkpt>
      <trkpt lat="45.8829" lon="4.65362">
        <ele>308</ele>
        <time>2018-03-22T15:05:01Z</time>
      </trkpt>
      <trkpt lat="45.8829" lon="4.65365">
        <ele>308</ele>
        <time>2018-03-22T15:05:02Z</time>
      </trkpt>
      <trkpt lat="45.88287" lon="4.65375">
        <ele>308</ele>
        <time>2018-03-22T15:05:07Z</time>
      </trkpt>
      <trkpt lat="45.88287" lon="4.65377">
        <ele>308</ele>
        <time>2018-03-22T15:05:08Z</time>
      </trkpt>
      <trkpt lat="45.88282" lon="4.65386">
        <ele>308</ele>
        <time>2018-03-22T15:05:13Z</time>
      </trkpt>
      <trkpt lat="45.88281" lon="4.65388">
        <ele>308</ele>
        <time>2018-03-22T15:05:14Z</time>
      </trkpt>
      <trkpt lat="45.8828" lon="4.654">
        <ele>308</ele>
        <time>2018-03-22T15:05:19Z</time>
      </trkpt>
      <trkpt lat="45.88279" lon="4.65403">
        <ele>309</ele>
        <time>2018-03-22T15:05:20Z</time>
      </trkpt>
      <trkpt lat="45.88275" lon="4.65414">
        <ele>309</ele>
        <time>2018-03-22T15:05:25Z</time>
      </trkpt>
      <trkpt lat="45.88275" lon="4.65416">
        <ele>309</ele>
        <time>2018-03-22T15:05:26Z</time>
      </trkpt>
      <trkpt lat="45.8827" lon="4.65425">
        <ele>311</ele>
        <time>2018-03-22T15:05:31Z</time>
      </trkpt>
      <trkpt lat="45.88269" lon="4.65427">
        <ele>311</ele>
        <time>2018-03-22T15:05:32Z</time>
      </trkpt>
      <trkpt lat="45.88266" lon="4.65438">
        <ele>311</ele>
        <time>2018-03-22T15:05:37Z</time>
      </trkpt>
      <trkpt lat="45.88266" lon="4.6544">
        <ele>311</ele>
        <time>2018-03-22T15:05:38Z</time>
      </trkpt>
      <trkpt lat="45.88262" lon="4.6545">
        <ele>311</ele>
        <time>2018-03-22T15:05:43Z</time>
      </trkpt>
      <trkpt lat="45.88262" lon="4.65452">
        <ele>311</ele>
        <time>2018-03-22T15:05:44Z</time>
      </trkpt>
      <trkpt lat="45.88259" lon="4.65462">
        <ele>311</ele>
        <time>2018-03-22T15:05:49Z</time>
      </trkpt>
      <trkpt lat="45.88258" lon="4.65464">
        <ele>311</ele>
        <time>2018-03-22T15:05:50Z</time>
      </trkpt>
      <trkpt lat="45.88253" lon="4.65474">
        <ele>312</ele>
        <time>2018-03-22T15:05:56Z</time>
      </trkpt>
      <trkpt lat="45.88252" lon="4.65476">
        <ele>312</ele>
        <time>2018-03-22T15:05:57Z</time>
      </trkpt>
      <trkpt lat="45.8825" lon="4.65486">
        <ele>313</ele>
        <time>2018-03-22T15:06:02Z</time>
      </trkpt>
      <trkpt lat="45.88249" lon="4.65488">
        <ele>316</ele>
        <time>2018-03-22T15:06:03Z</time>
      </trkpt>
      <trkpt lat="45.88246" lon="4.655">
        <ele>315</ele>
        <time>2018-03-22T15:06:08Z</time>
      </trkpt>
      <trkpt lat="45.88246" lon="4.65502">
        <ele>316</ele>
        <time>2018-03-22T15:06:09Z</time>
      </trkpt>
      <trkpt lat="45.88241" lon="4.65511">
        <ele>317</ele>
        <time>2018-03-22T15:06:14Z</time>
      </trkpt>
      <trkpt lat="45.88241" lon="4.65513">
        <ele>318</ele>
        <time>2018-03-22T15:06:15Z</time>
      </trkpt>
      <trkpt lat="45.88237" lon="4.65523">
        <ele>319</ele>
        <time>2018-03-22T15:06:20Z</time>
      </trkpt>
      <trkpt lat="45.88236" lon="4.65525">
        <ele>319</ele>
        <time>2018-03-22T15:06:21Z</time>
      </trkpt>
      <trkpt lat="45.88234" lon="4.65536">
        <ele>319</ele>
        <time>2018-03-22T15:06:26Z</time>
      </trkpt>
      <trkpt lat="45.88233" lon="4.65538">
        <ele>319</ele>
        <time>2018-03-22T15:06:27Z</time>
      </trkpt>
      <trkpt lat="45.88229" lon="4.65547">
        <ele>320</ele>
        <time>2018-03-22T15:06:32Z</time>
      </trkpt>
      <trkpt lat="45.88229" lon="4.65549">
        <ele>320</ele>
        <time>2018-03-22T15:06:33Z</time>
      </trkpt>
      <trkpt lat="45.88226" lon="4.6556">
        <ele>320</ele>
        <time>2018-03-22T15:06:38Z</time>
      </trkpt>
      <trkpt lat="45.88225" lon="4.65562">
        <ele>320</ele>
        <time>2018-03-22T15:06:39Z</time>
      </trkpt>
      <trkpt lat="45.88222" lon="4.65573">
        <ele>320</ele>
        <time>2018-03-22T15:06:44Z</time>
      </trkpt>
      <trkpt lat="45.88221" lon="4.65575">
        <ele>320</ele>
        <time>2018-03-22T15:06:45Z</time>
      </trkpt>
      <trkpt lat="45.88219" lon="4.65585">
        <ele>321</ele>
        <time>2018-03-22T15:06:50Z</time>
      </trkpt>
      <trkpt lat="45.88218" lon="4.65587">
        <ele>321</ele>
        <time>2018-03-22T15:06:51Z</time>
      </trkpt>
      <trkpt lat="45.88213" lon="4.65598">
        <ele>321</ele>
        <time>2018-03-22T15:06:57Z</time>
      </trkpt>
      <trkpt lat="45.88212" lon="4.65599">
        <ele>321</ele>
        <time>2018-03-22T15:06:58Z</time>
      </trkpt>
      <trkpt lat="45.88208" lon="4.6561">
        <ele>321</ele>
        <time>2018-03-22T15:07:03Z</time>
      </trkpt>
      <trkpt lat="45.88208" lon="4.65612">
        <ele>321</ele>
        <time>2018-03-22T15:07:04Z</time>
      </trkpt>
      <trkpt lat="45.88205" lon="4.65622">
        <ele>321</ele>
        <time>2018-03-22T15:07:09Z</time>
      </trkpt>
      <trkpt lat="45.88204" lon="4.65624">
        <ele>321</ele>
        <time>2018-03-22T15:07:10Z</time>
      </trkpt>
      <trkpt lat="45.882" lon="4.65634">
        <ele>321</ele>
        <time>2018-03-22T15:07:15Z</time>
      </trkpt>
      <trkpt lat="45.882" lon="4.65636">
        <ele>321</ele>
        <time>2018-03-22T15:07:16Z</time>
      </trkpt>
      <trkpt lat="45.88195" lon="4.65645">
        <ele>322</ele>
        <time>2018-03-22T15:07:21Z</time>
      </trkpt>
      <trkpt lat="45.88194" lon="4.65647">
        <ele>322</ele>
        <time>2018-03-22T15:07:22Z</time>
      </trkpt>
      <trkpt lat="45.8819" lon="4.65657">
        <ele>322</ele>
        <time>2018-03-22T15:07:27Z</time>
      </trkpt>
      <trkpt lat="45.8819" lon="4.65659">
        <ele>322</ele>
        <time>2018-03-22T15:07:28Z</time>
      </trkpt>
      <trkpt lat="45.88186" lon="4.65669">
        <ele>322</ele>
        <time>2018-03-22T15:07:33Z</time>
      </trkpt>
      <trkpt lat="45.88185" lon="4.65671">
        <ele>322</ele>
        <time>2018-03-22T15:07:34Z</time>
      </trkpt>
      <trkpt lat="45.8818" lon="4.65681">
        <ele>322</ele>
        <time>2018-03-22T15:07:39Z</time>
      </trkpt>
      <trkpt lat="45.88179" lon="4.65682">
        <ele>322</ele>
        <time>2018-03-22T15:07:40Z</time>
      </trkpt>
      <trkpt lat="45.88175" lon="4.65693">
        <ele>322</ele>
        <time>2018-03-22T15:07:46Z</time>
      </trkpt>
      <trkpt lat="45.88175" lon="4.65695">
        <ele>322</ele>
        <time>2018-03-22T15:07:47Z</time>
      </trkpt>
      <trkpt lat="45.88169" lon="4.65705">
        <ele>322</ele>
        <time>2018-03-22T15:07:53Z</time>
      </trkpt>
      <trkpt lat="45.88168" lon="4.65706">
        <ele>322</ele>
        <time>2018-03-22T15:07:54Z</time>
      </trkpt>
      <trkpt lat="45.88161" lon="4.65714">
        <ele>331</ele>
        <time>2018-03-22T15:08:00Z</time>
      </trkpt>
      <trkpt lat="45.88161" lon="4.65716">
        <ele>331</ele>
        <time>2018-03-22T15:08:01Z</time>
      </trkpt>
      <trkpt lat="45.88156" lon="4.65726">
        <ele>331</ele>
        <time>2018-03-22T15:08:07Z</time>
      </trkpt>
      <trkpt lat="45.88155" lon="4.65727">
        <ele>330</ele>
        <time>2018-03-22T15:08:08Z</time>
      </trkpt>
      <trkpt lat="45.8815" lon="4.65735">
        <ele>330</ele>
        <time>2018-03-22T15:08:13Z</time>
      </trkpt>
      <trkpt lat="45.88149" lon="4.65737">
        <ele>330</ele>
        <time>2018-03-22T15:08:14Z</time>
      </trkpt>
      <trkpt lat="45.88143" lon="4.65745">
        <ele>331</ele>
        <time>2018-03-22T15:08:19Z</time>
      </trkpt>
      <trkpt lat="45.88142" lon="4.65747">
        <ele>331</ele>
        <time>2018-03-22T15:08:20Z</time>
      </trkpt>
      <trkpt lat="45.88136" lon="4.65755">
        <ele>331</ele>
        <time>2018-03-22T15:08:25Z</time>
      </trkpt>
      <trkpt lat="45.88134" lon="4.65756">
        <ele>331</ele>
        <time>2018-03-22T15:08:26Z</time>
      </trkpt>
      <trkpt lat="45.88128" lon="4.65764">
        <ele>332</ele>
        <time>2018-03-22T15:08:31Z</time>
      </trkpt>
      <trkpt lat="45.88126" lon="4.65765">
        <ele>333</ele>
        <time>2018-03-22T15:08:32Z</time>
      </trkpt>
      <trkpt lat="45.8812" lon="4.65771">
        <ele>333</ele>
        <time>2018-03-22T15:08:36Z</time>
      </trkpt>
      <trkpt lat="45.88118" lon="4.65772">
        <ele>333</ele>
        <time>2018-03-22T15:08:37Z</time>
      </trkpt>
      <trkpt lat="45.88111" lon="4.65779">
        <ele>334</ele>
        <time>2018-03-22T15:08:42Z</time>
      </trkpt>
      <trkpt lat="45.8811" lon="4.65781">
        <ele>334</ele>
        <time>2018-03-22T15:08:43Z</time>
      </trkpt>
      <trkpt lat="45.88103" lon="4.65787">
        <ele>334</ele>
        <time>2018-03-22T15:08:48Z</time>
      </trkpt>
      <trkpt lat="45.88101" lon="4.65788">
        <ele>334</ele>
        <time>2018-03-22T15:08:49Z</time>
      </trkpt>
      <trkpt lat="45.88094" lon="4.65794">
        <ele>334</ele>
        <time>2018-03-22T15:08:54Z</time>
      </trkpt>
      <trkpt lat="45.88093" lon="4.65796">
        <ele>334</ele>
        <time>2018-03-22T15:08:55Z</time>
      </trkpt>
      <trkpt lat="45.88087" lon="4.65803">
        <ele>334</ele>
        <time>2018-03-22T15:08:59Z</time>
      </trkpt>
      <trkpt lat="45.88086" lon="4.65805">
        <ele>334</ele>
        <time>2018-03-22T15:09:00Z</time>
      </trkpt>
      <trkpt lat="45.88079" lon="4.6581">
        <ele>340</ele>
        <time>2018-03-22T15:09:05Z</time>
      </trkpt>
      <trkpt lat="45.88077" lon="4.65811">
        <ele>340</ele>
        <time>2018-03-22T15:09:06Z</time>
      </trkpt>
      <trkpt lat="45.88069" lon="4.65815">
        <ele>340</ele>
        <time>2018-03-22T15:09:11Z</time>
      </trkpt>
      <trkpt lat="45.88067" lon="4.65816">
        <ele>340</ele>
        <time>2018-03-22T15:09:12Z</time>
      </trkpt>
      <trkpt lat="45.88059" lon="4.65819">
        <ele>341</ele>
        <time>2018-03-22T15:09:16Z</time>
      </trkpt>
      <trkpt lat="45.88058" lon="4.6582">
        <ele>341</ele>
        <time>2018-03-22T15:09:17Z</time>
      </trkpt>
      <trkpt lat="45.8805" lon="4.65826">
        <ele>342</ele>
        <time>2018-03-22T15:09:21Z</time>
      </trkpt>
      <trkpt lat="45.88047" lon="4.65828">
        <ele>342</ele>
        <time>2018-03-22T15:09:22Z</time>
      </trkpt>
      <trkpt lat="45.88042" lon="4.65832">
        <ele>342</ele>
        <time>2018-03-22T15:09:24Z</time>
      </trkpt>
      <trkpt lat="45.88039" lon="4.65834">
        <ele>338</ele>
        <time>2018-03-22T15:09:25Z</time>
      </trkpt>
      <trkpt lat="45.88032" lon="4.65838">
        <ele>338</ele>
        <time>2018-03-22T15:09:28Z</time>
      </trkpt>
      <trkpt lat="45.8803" lon="4.6584">
        <ele>338</ele>
        <time>2018-03-22T15:09:29Z</time>
      </trkpt>
      <trkpt lat="45.88024" lon="4.65844">
        <ele>339</ele>
        <time>2018-03-22T15:09:32Z</time>
      </trkpt>
      <trkpt lat="45.88021" lon="4.65846">
        <ele>339</ele>
        <time>2018-03-22T15:09:33Z</time>
      </trkpt>
      <trkpt lat="45.88014" lon="4.65851">
        <ele>340</ele>
        <time>2018-03-22T15:09:36Z</time>
      </trkpt>
      <trkpt lat="45.88011" lon="4.65852">
        <ele>340</ele>
        <time>2018-03-22T15:09:37Z</time>
      </trkpt>
      <trkpt lat="45.88004" lon="4.65859">
        <ele>339</ele>
        <time>2018-03-22T15:09:40Z</time>
      </trkpt>
      <trkpt lat="45.88002" lon="4.65861">
        <ele>339</ele>
        <time>2018-03-22T15:09:41Z</time>
      </trkpt>
      <trkpt lat="45.87994" lon="4.65868">
        <ele>343</ele>
        <time>2018-03-22T15:09:44Z</time>
      </trkpt>
      <trkpt lat="45.87992" lon="4.6587">
        <ele>343</ele>
        <time>2018-03-22T15:09:45Z</time>
      </trkpt>
      <trkpt lat="45.87986" lon="4.65876">
        <ele>343</ele>
        <time>2018-03-22T15:09:48Z</time>
      </trkpt>
      <trkpt lat="45.87984" lon="4.65878">
        <ele>343</ele>
        <time>2018-03-22T15:09:49Z</time>
      </trkpt>
      <trkpt lat="45.8798" lon="4.65884">
        <ele>343</ele>
        <time>2018-03-22T15:09:51Z</time>
      </trkpt>
      <trkpt lat="45.87977" lon="4.65887">
        <ele>342</ele>
        <time>2018-03-22T15:09:52Z</time>
      </trkpt>
      <trkpt lat="45.87972" lon="4.65893">
        <ele>342</ele>
        <time>2018-03-22T15:09:54Z</time>
      </trkpt>
      <trkpt lat="45.8797" lon="4.65896">
        <ele>342</ele>
        <time>2018-03-22T15:09:55Z</time>
      </trkpt>
      <trkpt lat="45.87963" lon="4.65903">
        <ele>343</ele>
        <time>2018-03-22T15:09:58Z</time>
      </trkpt>
      <trkpt lat="45.87961" lon="4.65906">
        <ele>343</ele>
        <time>2018-03-22T15:09:59Z</time>
      </trkpt>
      <trkpt lat="45.87956" lon="4.65912">
        <ele>343</ele>
        <time>2018-03-22T15:10:01Z</time>
      </trkpt>
      <trkpt lat="45.87954" lon="4.65915">
        <ele>343</ele>
        <time>2018-03-22T15:10:02Z</time>
      </trkpt>
      <trkpt lat="45.87948" lon="4.65924">
        <ele>341</ele>
        <time>2018-03-22T15:10:05Z</time>
      </trkpt>
      <trkpt lat="45.87947" lon="4.65927">
        <ele>341</ele>
        <time>2018-03-22T15:10:06Z</time>
      </trkpt>
      <trkpt lat="45.87942" lon="4.65936">
        <ele>341</ele>
        <time>2018-03-22T15:10:09Z</time>
      </trkpt>
      <trkpt lat="45.87941" lon="4.65939">
        <ele>341</ele>
        <time>2018-03-22T15:10:10Z</time>
      </trkpt>
      <trkpt lat="45.87937" lon="4.65948">
        <ele>341</ele>
        <time>2018-03-22T15:10:13Z</time>
      </trkpt>
      <trkpt lat="45.87936" lon="4.65951">
        <ele>341</ele>
        <time>2018-03-22T15:10:14Z</time>
      </trkpt>
      <trkpt lat="45.87933" lon="4.65962">
        <ele>341</ele>
        <time>2018-03-22T15:10:18Z</time>
      </trkpt>
      <trkpt lat="45.87933" lon="4.65965">
        <ele>341</ele>
        <time>2018-03-22T15:10:19Z</time>
      </trkpt>
      <trkpt lat="45.87931" lon="4.65977">
        <ele>341</ele>
        <time>2018-03-22T15:10:23Z</time>
      </trkpt>
      <trkpt lat="45.87931" lon="4.6598">
        <ele>341</ele>
        <time>2018-03-22T15:10:24Z</time>
      </trkpt>
      <trkpt lat="45.8793" lon="4.65992">
        <ele>342</ele>
        <time>2018-03-22T15:10:28Z</time>
      </trkpt>
      <trkpt lat="45.87929" lon="4.65995">
        <ele>342</ele>
        <time>2018-03-22T15:10:29Z</time>
      </trkpt>
      <trkpt lat="45.87928" lon="4.66006">
        <ele>342</ele>
        <time>2018-03-22T15:10:33Z</time>
      </trkpt>
      <trkpt lat="45.87928" lon="4.66009">
        <ele>342</ele>
        <time>2018-03-22T15:10:34Z</time>
      </trkpt>
      <trkpt lat="45.87928" lon="4.66021">
        <ele>342</ele>
        <time>2018-03-22T15:10:38Z</time>
      </trkpt>
      <trkpt lat="45.87928" lon="4.66024">
        <ele>342</ele>
        <time>2018-03-22T15:10:39Z</time>
      </trkpt>
      <trkpt lat="45.87926" lon="4.66035">
        <ele>342</ele>
        <time>2018-03-22T15:10:43Z</time>
      </trkpt>
      <trkpt lat="45.87926" lon="4.66038">
        <ele>342</ele>
        <time>2018-03-22T15:10:44Z</time>
      </trkpt>
      <trkpt lat="45.87927" lon="4.66049">
        <ele>342</ele>
        <time>2018-03-22T15:10:48Z</time>
      </trkpt>
      <trkpt lat="45.87927" lon="4.66051">
        <ele>342</ele>
        <time>2018-03-22T15:10:49Z</time>
      </trkpt>
      <trkpt lat="45.87926" lon="4.66061">
        <ele>342</ele>
        <time>2018-03-22T15:10:53Z</time>
      </trkpt>
      <trkpt lat="45.87926" lon="4.66064">
        <ele>343</ele>
        <time>2018-03-22T15:10:54Z</time>
      </trkpt>
      <trkpt lat="45.87926" lon="4.66075">
        <ele>343</ele>
        <time>2018-03-22T15:10:58Z</time>
      </trkpt>
      <trkpt lat="45.87925" lon="4.66077">
        <ele>343</ele>
        <time>2018-03-22T15:10:59Z</time>
      </trkpt>
      <trkpt lat="45.87924" lon="4.66088">
        <ele>345</ele>
        <time>2018-03-22T15:11:03Z</time>
      </trkpt>
      <trkpt lat="45.87924" lon="4.66091">
        <ele>345</ele>
        <time>2018-03-22T15:11:04Z</time>
      </trkpt>
      <trkpt lat="45.87925" lon="4.66102">
        <ele>346</ele>
        <time>2018-03-22T15:11:08Z</time>
      </trkpt>
      <trkpt lat="45.87925" lon="4.66104">
        <ele>346</ele>
        <time>2018-03-22T15:11:09Z</time>
      </trkpt>
      <trkpt lat="45.87924" lon="4.66117">
        <ele>347</ele>
        <time>2018-03-22T15:11:14Z</time>
      </trkpt>
      <trkpt lat="45.87924" lon="4.66119">
        <ele>347</ele>
        <time>2018-03-22T15:11:15Z</time>
      </trkpt>
      <trkpt lat="45.87924" lon="4.66132">
        <ele>348</ele>
        <time>2018-03-22T15:11:20Z</time>
      </trkpt>
      <trkpt lat="45.87925" lon="4.66134">
        <ele>349</ele>
        <time>2018-03-22T15:11:21Z</time>
      </trkpt>
      <trkpt lat="45.87932" lon="4.66139">
        <ele>349</ele>
        <time>2018-03-22T15:11:25Z</time>
      </trkpt>
      <trkpt lat="45.87935" lon="4.66139">
        <ele>349</ele>
        <time>2018-03-22T15:11:26Z</time>
      </trkpt>
      <trkpt lat="45.87942" lon="4.66139">
        <ele>349</ele>
        <time>2018-03-22T15:11:29Z</time>
      </trkpt>
      <trkpt lat="45.87944" lon="4.66139">
        <ele>348</ele>
        <time>2018-03-22T15:11:30Z</time>
      </trkpt>
      <trkpt lat="45.87953" lon="4.66139">
        <ele>348</ele>
        <time>2018-03-22T15:11:34Z</time>
      </trkpt>
      <trkpt lat="45.87956" lon="4.66139">
        <ele>348</ele>
        <time>2018-03-22T15:11:35Z</time>
      </trkpt>
      <trkpt lat="45.87964" lon="4.66139">
        <ele>348</ele>
        <time>2018-03-22T15:11:38Z</time>
      </trkpt>
      <trkpt lat="45.87967" lon="4.66139">
        <ele>348</ele>
        <time>2018-03-22T15:11:39Z</time>
      </trkpt>
      <trkpt lat="45.87974" lon="4.66139">
        <ele>348</ele>
        <time>2018-03-22T15:11:42Z</time>
      </trkpt>
      <trkpt lat="45.87976" lon="4.66139">
        <ele>348</ele>
        <time>2018-03-22T15:11:43Z</time>
      </trkpt>
      <trkpt lat="45.87984" lon="4.66138">
        <ele>348</ele>
        <time>2018-03-22T15:11:47Z</time>
      </trkpt>
      <trkpt lat="45.87987" lon="4.66139">
        <ele>348</ele>
        <time>2018-03-22T15:11:48Z</time>
      </trkpt>
      <trkpt lat="45.87995" lon="4.66139">
        <ele>348</ele>
        <time>2018-03-22T15:11:51Z</time>
      </trkpt>
      <trkpt lat="45.87999" lon="4.66139">
        <ele>348</ele>
        <time>2018-03-22T15:11:52Z</time>
      </trkpt>
      <trkpt lat="45.88005" lon="4.66138">
        <ele>348</ele>
        <time>2018-03-22T15:11:54Z</time>
      </trkpt>
      <trkpt lat="45.88008" lon="4.66139">
        <ele>348</ele>
        <time>2018-03-22T15:11:55Z</time>
      </trkpt>
      <trkpt lat="45.88015" lon="4.66139">
        <ele>348</ele>
        <time>2018-03-22T15:11:57Z</time>
      </trkpt>
      <trkpt lat="45.88018" lon="4.66139">
        <ele>348</ele>
        <time>2018-03-22T15:11:58Z</time>
      </trkpt>
      <trkpt lat="45.88024" lon="4.66139">
        <ele>348</ele>
        <time>2018-03-22T15:12:00Z</time>
      </trkpt>
      <trkpt lat="45.88027" lon="4.66138">
        <ele>348</ele>
        <time>2018-03-22T15:12:01Z</time>
      </trkpt>
      <trkpt lat="45.88035" lon="4.66138">
        <ele>347</ele>
        <time>2018-03-22T15:12:04Z</time>
      </trkpt>
      <trkpt lat="45.88038" lon="4.66138">
        <ele>347</ele>
        <time>2018-03-22T15:12:05Z</time>
      </trkpt>
      <trkpt lat="45.88047" lon="4.66138">
        <ele>347</ele>
        <time>2018-03-22T15:12:08Z</time>
      </trkpt>
      <trkpt lat="45.8805" lon="4.66137">
        <ele>347</ele>
        <time>2018-03-22T15:12:09Z</time>
      </trkpt>
      <trkpt lat="45.88056" lon="4.66137">
        <ele>348</ele>
        <time>2018-03-22T15:12:11Z</time>
      </trkpt>
      <trkpt lat="45.88059" lon="4.66137">
        <ele>348</ele>
        <time>2018-03-22T15:12:12Z</time>
      </trkpt>
      <trkpt lat="45.88065" lon="4.66136">
        <ele>348</ele>
        <time>2018-03-22T15:12:14Z</time>
      </trkpt>
      <trkpt lat="45.88068" lon="4.66136">
        <ele>348</ele>
        <time>2018-03-22T15:12:15Z</time>
      </trkpt>
      <trkpt lat="45.88075" lon="4.66136">
        <ele>348</ele>
        <time>2018-03-22T15:12:17Z</time>
      </trkpt>
      <trkpt lat="45.88078" lon="4.66136">
        <ele>348</ele>
        <time>2018-03-22T15:12:18Z</time>
      </trkpt>
      <trkpt lat="45.88085" lon="4.66136">
        <ele>349</ele>
        <time>2018-03-22T15:12:20Z</time>
      </trkpt>
      <trkpt lat="45.88088" lon="4.66136">
        <ele>349</ele>
        <time>2018-03-22T15:12:21Z</time>
      </trkpt>
      <trkpt lat="45.88096" lon="4.66135">
        <ele>349</ele>
        <time>2018-03-22T15:12:24Z</time>
      </trkpt>
      <trkpt lat="45.881" lon="4.66135">
        <ele>349</ele>
        <time>2018-03-22T15:12:25Z</time>
      </trkpt>
      <trkpt lat="45.88106" lon="4.66134">
        <ele>349</ele>
        <time>2018-03-22T15:12:27Z</time>
      </trkpt>
      <trkpt lat="45.88109" lon="4.66133">
        <ele>349</ele>
        <time>2018-03-22T15:12:28Z</time>
      </trkpt>
      <trkpt lat="45.88115" lon="4.66133">
        <ele>349</ele>
        <time>2018-03-22T15:12:30Z</time>
      </trkpt>
      <trkpt lat="45.88118" lon="4.66132">
        <ele>349</ele>
        <time>2018-03-22T15:12:31Z</time>
      </trkpt>
      <trkpt lat="45.88126" lon="4.66131">
        <ele>349</ele>
        <time>2018-03-22T15:12:34Z</time>
      </trkpt>
      <trkpt lat="45.88129" lon="4.6613">
        <ele>349</ele>
        <time>2018-03-22T15:12:35Z</time>
      </trkpt>
      <trkpt lat="45.88135" lon="4.66129">
        <ele>349</ele>
        <time>2018-03-22T15:12:37Z</time>
      </trkpt>
      <trkpt lat="45.88138" lon="4.66129">
        <ele>349</ele>
        <time>2018-03-22T15:12:38Z</time>
      </trkpt>
      <trkpt lat="45.88144" lon="4.66129">
        <ele>349</ele>
        <time>2018-03-22T15:12:40Z</time>
      </trkpt>
      <trkpt lat="45.88147" lon="4.66129">
        <ele>349</ele>
        <time>2018-03-22T15:12:41Z</time>
      </trkpt>
      <trkpt lat="45.88154" lon="4.66128">
        <ele>349</ele>
        <time>2018-03-22T15:12:43Z</time>
      </trkpt>
      <trkpt lat="45.88157" lon="4.66127">
        <ele>349</ele>
        <time>2018-03-22T15:12:44Z</time>
      </trkpt>
      <trkpt lat="45.88163" lon="4.66127">
        <ele>349</ele>
        <time>2018-03-22T15:12:46Z</time>
      </trkpt>
      <trkpt lat="45.88166" lon="4.66127">
        <ele>349</ele>
        <time>2018-03-22T15:12:47Z</time>
      </trkpt>
      <trkpt lat="45.88174" lon="4.66127">
        <ele>350</ele>
        <time>2018-03-22T15:12:50Z</time>
      </trkpt>
      <trkpt lat="45.88177" lon="4.66127">
        <ele>350</ele>
        <time>2018-03-22T15:12:51Z</time>
      </trkpt>
      <trkpt lat="45.88185" lon="4.66128">
        <ele>350</ele>
        <time>2018-03-22T15:12:54Z</time>
      </trkpt>
      <trkpt lat="45.88187" lon="4.66128">
        <ele>350</ele>
        <time>2018-03-22T15:12:55Z</time>
      </trkpt>
      <trkpt lat="45.88195" lon="4.66128">
        <ele>350</ele>
        <time>2018-03-22T15:12:58Z</time>
      </trkpt>
      <trkpt lat="45.88198" lon="4.66128">
        <ele>350</ele>
        <time>2018-03-22T15:12:59Z</time>
      </trkpt>
      <trkpt lat="45.88205" lon="4.66129">
        <ele>350</ele>
        <time>2018-03-22T15:13:02Z</time>
      </trkpt>
      <trkpt lat="45.88208" lon="4.6613">
        <ele>350</ele>
        <time>2018-03-22T15:13:03Z</time>
      </trkpt>
      <trkpt lat="45.88215" lon="4.66132">
        <ele>350</ele>
        <time>2018-03-22T15:13:06Z</time>
      </trkpt>
      <trkpt lat="45.88218" lon="4.66132">
        <ele>350</ele>
        <time>2018-03-22T15:13:07Z</time>
      </trkpt>
      <trkpt lat="45.88225" lon="4.66132">
        <ele>350</ele>
        <time>2018-03-22T15:13:10Z</time>
      </trkpt>
      <trkpt lat="45.88228" lon="4.66133">
        <ele>350</ele>
        <time>2018-03-22T15:13:11Z</time>
      </trkpt>
      <trkpt lat="45.88236" lon="4.66133">
        <ele>350</ele>
        <time>2018-03-22T15:13:14Z</time>
      </trkpt>
      <trkpt lat="45.88238" lon="4.66133">
        <ele>350</ele>
        <time>2018-03-22T15:13:15Z</time>
      </trkpt>
      <trkpt lat="45.88245" lon="4.66134">
        <ele>350</ele>
        <time>2018-03-22T15:13:18Z</time>
      </trkpt>
      <trkpt lat="45.88248" lon="4.66134">
        <ele>350</ele>
        <time>2018-03-22T15:13:19Z</time>
      </trkpt>
      <trkpt lat="45.88256" lon="4.66134">
        <ele>352</ele>
        <time>2018-03-22T15:13:22Z</time>
      </trkpt>
      <trkpt lat="45.88259" lon="4.66134">
        <ele>352</ele>
        <time>2018-03-22T15:13:23Z</time>
      </trkpt>
      <trkpt lat="45.88267" lon="4.66134">
        <ele>352</ele>
        <time>2018-03-22T15:13:26Z</time>
      </trkpt>
      <trkpt lat="45.8827" lon="4.66134">
        <ele>352</ele>
        <time>2018-03-22T15:13:27Z</time>
      </trkpt>
      <trkpt lat="45.88278" lon="4.66134">
        <ele>352</ele>
        <time>2018-03-22T15:13:30Z</time>
      </trkpt>
      <trkpt lat="45.8828" lon="4.66134">
        <ele>352</ele>
        <time>2018-03-22T15:13:31Z</time>
      </trkpt>
      <trkpt lat="45.88288" lon="4.66134">
        <ele>352</ele>
        <time>2018-03-22T15:13:34Z</time>
      </trkpt>
      <trkpt lat="45.8829" lon="4.66135">
        <ele>352</ele>
        <time>2018-03-22T15:13:35Z</time>
      </trkpt>
      <trkpt lat="45.88298" lon="4.66135">
        <ele>352</ele>
        <time>2018-03-22T15:13:38Z</time>
      </trkpt>
      <trkpt lat="45.88301" lon="4.66136">
        <ele>353</ele>
        <time>2018-03-22T15:13:39Z</time>
      </trkpt>
      <trkpt lat="45.8831" lon="4.66135">
        <ele>353</ele>
        <time>2018-03-22T15:13:43Z</time>
      </trkpt>
      <trkpt lat="45.88312" lon="4.66135">
        <ele>353</ele>
        <time>2018-03-22T15:13:44Z</time>
      </trkpt>
      <trkpt lat="45.8832" lon="4.66135">
        <ele>353</ele>
        <time>2018-03-22T15:13:48Z</time>
      </trkpt>
      <trkpt lat="45.88322" lon="4.66135">
        <ele>353</ele>
        <time>2018-03-22T15:13:49Z</time>
      </trkpt>
      <trkpt lat="45.88331" lon="4.66135">
        <ele>354</ele>
        <time>2018-03-22T15:13:53Z</time>
      </trkpt>
      <trkpt lat="45.88333" lon="4.66136">
        <ele>354</ele>
        <time>2018-03-22T15:13:54Z</time>
      </trkpt>
      <trkpt lat="45.88341" lon="4.66138">
        <ele>356</ele>
        <time>2018-03-22T15:13:58Z</time>
      </trkpt>
      <trkpt lat="45.88343" lon="4.66138">
        <ele>356</ele>
        <time>2018-03-22T15:13:59Z</time>
      </trkpt>
      <trkpt lat="45.88352" lon="4.66138">
        <ele>356</ele>
        <time>2018-03-22T15:14:03Z</time>
      </trkpt>
      <trkpt lat="45.88354" lon="4.66138">
        <ele>356</ele>
        <time>2018-03-22T15:14:04Z</time>
      </trkpt>
      <trkpt lat="45.88362" lon="4.66139">
        <ele>357</ele>
        <time>2018-03-22T15:14:08Z</time>
      </trkpt>
      <trkpt lat="45.88364" lon="4.66139">
        <ele>357</ele>
        <time>2018-03-22T15:14:09Z</time>
      </trkpt>
      <trkpt lat="45.88372" lon="4.6614">
        <ele>357</ele>
        <time>2018-03-22T15:14:13Z</time>
      </trkpt>
      <trkpt lat="45.88374" lon="4.6614">
        <ele>357</ele>
        <time>2018-03-22T15:14:14Z</time>
      </trkpt>
      <trkpt lat="45.88381" lon="4.6614">
        <ele>357</ele>
        <time>2018-03-22T15:14:18Z</time>
      </trkpt>
      <trkpt lat="45.88383" lon="4.6614">
        <ele>357</ele>
        <time>2018-03-22T15:14:19Z</time>
      </trkpt>
      <trkpt lat="45.88392" lon="4.6614">
        <ele>357</ele>
        <time>2018-03-22T15:14:24Z</time>
      </trkpt>
      <trkpt lat="45.88393" lon="4.6614">
        <ele>358</ele>
        <time>2018-03-22T15:14:25Z</time>
      </trkpt>
      <trkpt lat="45.88401" lon="4.66141">
        <ele>358</ele>
        <time>2018-03-22T15:14:30Z</time>
      </trkpt>
      <trkpt lat="45.88403" lon="4.66141">
        <ele>358</ele>
        <time>2018-03-22T15:14:31Z</time>
      </trkpt>
      <trkpt lat="45.88412" lon="4.66142">
        <ele>359</ele>
        <time>2018-03-22T15:14:37Z</time>
      </trkpt>
      <trkpt lat="45.88413" lon="4.66142">
        <ele>359</ele>
        <time>2018-03-22T15:14:38Z</time>
      </trkpt>
      <trkpt lat="45.88421" lon="4.66143">
        <ele>361</ele>
        <time>2018-03-22T15:14:43Z</time>
      </trkpt>
      <trkpt lat="45.88423" lon="4.66143">
        <ele>361</ele>
        <time>2018-03-22T15:14:44Z</time>
      </trkpt>
      <trkpt lat="45.88431" lon="4.66144">
        <ele>361</ele>
        <time>2018-03-22T15:14:50Z</time>
      </trkpt>
      <trkpt lat="45.88432" lon="4.66144">
        <ele>361</ele>
        <time>2018-03-22T15:14:51Z</time>
      </trkpt>
      <trkpt lat="45.88441" lon="4.66147">
        <ele>361</ele>
        <time>2018-03-22T15:14:57Z</time>
      </trkpt>
      <trkpt lat="45.88442" lon="4.66147">
        <ele>361</ele>
        <time>2018-03-22T15:14:58Z</time>
      </trkpt>
      <trkpt lat="45.8845" lon="4.66148">
        <ele>361</ele>
        <time>2018-03-22T15:15:04Z</time>
      </trkpt>
      <trkpt lat="45.88452" lon="4.66148">
        <ele>361</ele>
        <time>2018-03-22T15:15:05Z</time>
      </trkpt>
      <trkpt lat="45.8846" lon="4.6615">
        <ele>361</ele>
        <time>2018-03-22T15:15:11Z</time>
      </trkpt>
      <trkpt lat="45.88462" lon="4.6615">
        <ele>361</ele>
        <time>2018-03-22T15:15:12Z</time>
      </trkpt>
      <trkpt lat="45.88469" lon="4.66152">
        <ele>362</ele>
        <time>2018-03-22T15:15:17Z</time>
      </trkpt>
      <trkpt lat="45.88471" lon="4.66152">
        <ele>362</ele>
        <time>2018-03-22T15:15:18Z</time>
      </trkpt>
      <trkpt lat="45.88479" lon="4.66155">
        <ele>363</ele>
        <time>2018-03-22T15:15:25Z</time>
      </trkpt>
      <trkpt lat="45.8848" lon="4.66155">
        <ele>363</ele>
        <time>2018-03-22T15:15:26Z</time>
      </trkpt>
      <trkpt lat="45.88487" lon="4.66161">
        <ele>364</ele>
        <time>2018-03-22T15:15:32Z</time>
      </trkpt>
      <trkpt lat="45.88488" lon="4.66162">
        <ele>364</ele>
        <time>2018-03-22T15:15:33Z</time>
      </trkpt>
      <trkpt lat="45.88495" lon="4.66169">
        <ele>368</ele>
        <time>2018-03-22T15:15:39Z</time>
      </trkpt>
      <trkpt lat="45.88496" lon="4.6617">
        <ele>368</ele>
        <time>2018-03-22T15:15:40Z</time>
      </trkpt>
      <trkpt lat="45.88504" lon="4.66174">
        <ele>368</ele>
        <time>2018-03-22T15:15:46Z</time>
      </trkpt>
      <trkpt lat="45.88505" lon="4.66175">
        <ele>368</ele>
        <time>2018-03-22T15:15:47Z</time>
      </trkpt>
      <trkpt lat="45.88512" lon="4.66181">
        <ele>369</ele>
        <time>2018-03-22T15:15:53Z</time>
      </trkpt>
      <trkpt lat="45.88513" lon="4.66183">
        <ele>369</ele>
        <time>2018-03-22T15:15:54Z</time>
      </trkpt>
      <trkpt lat="45.8852" lon="4.66189">
        <ele>369</ele>
        <time>2018-03-22T15:16:00Z</time>
      </trkpt>
      <trkpt lat="45.88522" lon="4.6619">
        <ele>369</ele>
        <time>2018-03-22T15:16:01Z</time>
      </trkpt>
      <trkpt lat="45.8853" lon="4.66194">
        <ele>370</ele>
        <time>2018-03-22T15:16:07Z</time>
      </trkpt>
      <trkpt lat="45.88531" lon="4.66195">
        <ele>370</ele>
        <time>2018-03-22T15:16:08Z</time>
      </trkpt>
      <trkpt lat="45.88538" lon="4.662">
        <ele>370</ele>
        <time>2018-03-22T15:16:13Z</time>
      </trkpt>
      <trkpt lat="45.8854" lon="4.66201">
        <ele>370</ele>
        <time>2018-03-22T15:16:14Z</time>
      </trkpt>
      <trkpt lat="45.88546" lon="4.66207">
        <ele>370</ele>
        <time>2018-03-22T15:16:19Z</time>
      </trkpt>
      <trkpt lat="45.88547" lon="4.66209">
        <ele>370</ele>
        <time>2018-03-22T15:16:20Z</time>
      </trkpt>
      <trkpt lat="45.88552" lon="4.66216">
        <ele>370</ele>
        <time>2018-03-22T15:16:24Z</time>
      </trkpt>
      <trkpt lat="45.88554" lon="4.66217">
        <ele>370</ele>
        <time>2018-03-22T15:16:25Z</time>
      </trkpt>
      <trkpt lat="45.88561" lon="4.66225">
        <ele>370</ele>
        <time>2018-03-22T15:16:30Z</time>
      </trkpt>
      <trkpt lat="45.88563" lon="4.66226">
        <ele>370</ele>
        <time>2018-03-22T15:16:31Z</time>
      </trkpt>
      <trkpt lat="45.88569" lon="4.66232">
        <ele>370</ele>
        <time>2018-03-22T15:16:35Z</time>
      </trkpt>
      <trkpt lat="45.88571" lon="4.66234">
        <ele>370</ele>
        <time>2018-03-22T15:16:36Z</time>
      </trkpt>
      <trkpt lat="45.88578" lon="4.66242">
        <ele>371</ele>
        <time>2018-03-22T15:16:40Z</time>
      </trkpt>
      <trkpt lat="45.88579" lon="4.66244">
        <ele>371</ele>
        <time>2018-03-22T15:16:41Z</time>
      </trkpt>
      <trkpt lat="45.88584" lon="4.66252">
        <ele>371</ele>
        <time>2018-03-22T15:16:45Z</time>
      </trkpt>
      <trkpt lat="45.88586" lon="4.66254">
        <ele>371</ele>
        <time>2018-03-22T15:16:46Z</time>
      </trkpt>
      <trkpt lat="45.8859" lon="4.66262">
        <ele>372</ele>
        <time>2018-03-22T15:16:50Z</time>
      </trkpt>
      <trkpt lat="45.88591" lon="4.66264">
        <ele>372</ele>
        <time>2018-03-22T15:16:51Z</time>
      </trkpt>
      <trkpt lat="45.88598" lon="4.66272">
        <ele>372</ele>
        <time>2018-03-22T15:16:56Z</time>
      </trkpt>
      <trkpt lat="45.88599" lon="4.66274">
        <ele>372</ele>
        <time>2018-03-22T15:16:57Z</time>
      </trkpt>
      <trkpt lat="45.88605" lon="4.66281">
        <ele>372</ele>
        <time>2018-03-22T15:17:01Z</time>
      </trkpt>
      <trkpt lat="45.88606" lon="4.66283">
        <ele>372</ele>
        <time>2018-03-22T15:17:02Z</time>
      </trkpt>
      <trkpt lat="45.8861" lon="4.66293">
        <ele>373</ele>
        <time>2018-03-22T15:17:06Z</time>
      </trkpt>
      <trkpt lat="45.88611" lon="4.66295">
        <ele>373</ele>
        <time>2018-03-22T15:17:07Z</time>
      </trkpt>
      <trkpt lat="45.88615" lon="4.66304">
        <ele>373</ele>
        <time>2018-03-22T15:17:11Z</time>
      </trkpt>
      <trkpt lat="45.88617" lon="4.66307">
        <ele>373</ele>
        <time>2018-03-22T15:17:12Z</time>
      </trkpt>
      <trkpt lat="45.88622" lon="4.66316">
        <ele>374</ele>
        <time>2018-03-22T15:17:16Z</time>
      </trkpt>
      <trkpt lat="45.88624" lon="4.66318">
        <ele>374</ele>
        <time>2018-03-22T15:17:17Z</time>
      </trkpt>
      <trkpt lat="45.88628" lon="4.66326">
        <ele>373</ele>
        <time>2018-03-22T15:17:20Z</time>
      </trkpt>
      <trkpt lat="45.88629" lon="4.66329">
        <ele>373</ele>
        <time>2018-03-22T15:17:21Z</time>
      </trkpt>
      <trkpt lat="45.88633" lon="4.66337">
        <ele>380</ele>
        <time>2018-03-22T15:17:24Z</time>
      </trkpt>
      <trkpt lat="45.88635" lon="4.6634">
        <ele>379</ele>
        <time>2018-03-22T15:17:25Z</time>
      </trkpt>
      <trkpt lat="45.88639" lon="4.66348">
        <ele>379</ele>
        <time>2018-03-22T15:17:28Z</time>
      </trkpt>
      <trkpt lat="45.8864" lon="4.6635">
        <ele>379</ele>
        <time>2018-03-22T15:17:29Z</time>
      </trkpt>
      <trkpt lat="45.88646" lon="4.66359">
        <ele>380</ele>
        <time>2018-03-22T15:17:33Z</time>
      </trkpt>
      <trkpt lat="45.88648" lon="4.66361">
        <ele>380</ele>
        <time>2018-03-22T15:17:34Z</time>
      </trkpt>
      <trkpt lat="45.88653" lon="4.66367">
        <ele>380</ele>
        <time>2018-03-22T15:17:37Z</time>
      </trkpt>
      <trkpt lat="45.88655" lon="4.6637">
        <ele>380</ele>
        <time>2018-03-22T15:17:38Z</time>
      </trkpt>
      <trkpt lat="45.88661" lon="4.66379">
        <ele>381</ele>
        <time>2018-03-22T15:17:42Z</time>
      </trkpt>
      <trkpt lat="45.88662" lon="4.66382">
        <ele>381</ele>
        <time>2018-03-22T15:17:43Z</time>
      </trkpt>
      <trkpt lat="45.88669" lon="4.6639">
        <ele>378</ele>
        <time>2018-03-22T15:17:47Z</time>
      </trkpt>
      <trkpt lat="45.88671" lon="4.66392">
        <ele>378</ele>
        <time>2018-03-22T15:17:48Z</time>
      </trkpt>
      <trkpt lat="45.88678" lon="4.66398">
        <ele>379</ele>
        <time>2018-03-22T15:17:52Z</time>
      </trkpt>
      <trkpt lat="45.8868" lon="4.664">
        <ele>379</ele>
        <time>2018-03-22T15:17:53Z</time>
      </trkpt>
      <trkpt lat="45.88687" lon="4.66406">
        <ele>378</ele>
        <time>2018-03-22T15:17:57Z</time>
      </trkpt>
      <trkpt lat="45.88689" lon="4.66407">
        <ele>378</ele>
        <time>2018-03-22T15:17:58Z</time>
      </trkpt>
      <trkpt lat="45.88696" lon="4.66413">
        <ele>378</ele>
        <time>2018-03-22T15:18:02Z</time>
      </trkpt>
      <trkpt lat="45.88698" lon="4.66414">
        <ele>378</ele>
        <time>2018-03-22T15:18:03Z</time>
      </trkpt>
      <trkpt lat="45.88705" lon="4.6642">
        <ele>383</ele>
        <time>2018-03-22T15:18:07Z</time>
      </trkpt>
      <trkpt lat="45.88707" lon="4.66422">
        <ele>383</ele>
        <time>2018-03-22T15:18:08Z</time>
      </trkpt>
      <trkpt lat="45.88714" lon="4.66427">
        <ele>383</ele>
        <time>2018-03-22T15:18:12Z</time>
      </trkpt>
      <trkpt lat="45.88715" lon="4.66429">
        <ele>383</ele>
        <time>2018-03-22T15:18:13Z</time>
      </trkpt>
      <trkpt lat="45.88721" lon="4.66438">
        <ele>383</ele>
        <time>2018-03-22T15:18:17Z</time>
      </trkpt>
      <trkpt lat="45.88723" lon="4.6644">
        <ele>383</ele>
        <time>2018-03-22T15:18:18Z</time>
      </trkpt>
      <trkpt lat="45.88728" lon="4.66447">
        <ele>383</ele>
        <time>2018-03-22T15:18:22Z</time>
      </trkpt>
      <trkpt lat="45.8873" lon="4.66449">
        <ele>384</ele>
        <time>2018-03-22T15:18:23Z</time>
      </trkpt>
      <trkpt lat="45.88736" lon="4.66455">
        <ele>384</ele>
        <time>2018-03-22T15:18:27Z</time>
      </trkpt>
      <trkpt lat="45.88737" lon="4.66456">
        <ele>384</ele>
        <time>2018-03-22T15:18:28Z</time>
      </trkpt>
      <trkpt lat="45.88744" lon="4.66465">
        <ele>384</ele>
        <time>2018-03-22T15:18:33Z</time>
      </trkpt>
      <trkpt lat="45.88745" lon="4.66467">
        <ele>385</ele>
        <time>2018-03-22T15:18:34Z</time>
      </trkpt>
      <trkpt lat="45.88751" lon="4.66476">
        <ele>383</ele>
        <time>2018-03-22T15:18:39Z</time>
      </trkpt>
      <trkpt lat="45.88752" lon="4.66478">
        <ele>383</ele>
        <time>2018-03-22T15:18:40Z</time>
      </trkpt>
      <trkpt lat="45.88758" lon="4.66486">
        <ele>384</ele>
        <time>2018-03-22T15:18:45Z</time>
      </trkpt>
      <trkpt lat="45.88759" lon="4.66487">
        <ele>384</ele>
        <time>2018-03-22T15:18:46Z</time>
      </trkpt>
      <trkpt lat="45.88766" lon="4.66495">
        <ele>384</ele>
        <time>2018-03-22T15:18:52Z</time>
      </trkpt>
      <trkpt lat="45.88767" lon="4.66496">
        <ele>384</ele>
        <time>2018-03-22T15:18:53Z</time>
      </trkpt>
      <trkpt lat="45.88773" lon="4.66504">
        <ele>389</ele>
        <time>2018-03-22T15:18:59Z</time>
      </trkpt>
      <trkpt lat="45.88774" lon="4.66505">
        <ele>389</ele>
        <time>2018-03-22T15:19:00Z</time>
      </trkpt>
      <trkpt lat="45.88781" lon="4.66513">
        <ele>390</ele>
        <time>2018-03-22T15:19:06Z</time>
      </trkpt>
      <trkpt lat="45.88782" lon="4.66514">
        <ele>390</ele>
        <time>2018-03-22T15:19:07Z</time>
      </trkpt>
      <trkpt lat="45.88788" lon="4.66522">
        <ele>390</ele>
        <time>2018-03-22T15:19:13Z</time>
      </trkpt>
      <trkpt lat="45.88789" lon="4.66524">
        <ele>390</ele>
        <time>2018-03-22T15:19:14Z</time>
      </trkpt>
      <trkpt lat="45.88796" lon="4.66531">
        <ele>391</ele>
        <time>2018-03-22T15:19:20Z</time>
      </trkpt>
      <trkpt lat="45.88797" lon="4.66532">
        <ele>391</ele>
        <time>2018-03-22T15:19:21Z</time>
      </trkpt>
      <trkpt lat="45.88803" lon="4.66539">
        <ele>391</ele>
        <time>2018-03-22T15:19:27Z</time>
      </trkpt>
      <trkpt lat="45.88805" lon="4.66541">
        <ele>391</ele>
        <time>2018-03-22T15:19:28Z</time>
      </trkpt>
      <trkpt lat="45.88812" lon="4.66546">
        <ele>392</ele>
        <time>2018-03-22T15:19:34Z</time>
      </trkpt>
      <trkpt lat="45.88813" lon="4.66547">
        <ele>392</ele>
        <time>2018-03-22T15:19:35Z</time>
      </trkpt>
      <trkpt lat="45.8882" lon="4.66551">
        <ele>392</ele>
        <time>2018-03-22T15:19:41Z</time>
      </trkpt>
      <trkpt lat="45.88822" lon="4.66552">
        <ele>392</ele>
        <time>2018-03-22T15:19:42Z</time>
      </trkpt>
      <trkpt lat="45.88829" lon="4.66557">
        <ele>393</ele>
        <time>2018-03-22T15:19:48Z</time>
      </trkpt>
      <trkpt lat="45.8883" lon="4.66557">
        <ele>393</ele>
        <time>2018-03-22T15:19:49Z</time>
      </trkpt>
      <trkpt lat="45.88838" lon="4.66561">
        <ele>392</ele>
        <time>2018-03-22T15:19:55Z</time>
      </trkpt>
      <trkpt lat="45.88839" lon="4.66562">
        <ele>392</ele>
        <time>2018-03-22T15:19:56Z</time>
      </trkpt>
      <trkpt lat="45.88847" lon="4.66567">
        <ele>392</ele>
        <time>2018-03-22T15:20:03Z</time>
      </trkpt>
      <trkpt lat="45.88848" lon="4.66569">
        <ele>392</ele>
        <time>2018-03-22T15:20:04Z</time>
      </trkpt>
      <trkpt lat="45.88855" lon="4.66575">
        <ele>392</ele>
        <time>2018-03-22T15:20:10Z</time>
      </trkpt>
      <trkpt lat="45.88857" lon="4.66576">
        <ele>392</ele>
        <time>2018-03-22T15:20:11Z</time>
      </trkpt>
      <trkpt lat="45.88864" lon="4.66582">
        <ele>392</ele>
        <time>2018-03-22T15:20:17Z</time>
      </trkpt>
      <trkpt lat="45.88866" lon="4.66583">
        <ele>392</ele>
        <time>2018-03-22T15:20:18Z</time>
      </trkpt>
      <trkpt lat="45.88872" lon="4.6659">
        <ele>399</ele>
        <time>2018-03-22T15:20:23Z</time>
      </trkpt>
      <trkpt lat="45.88873" lon="4.66592">
        <ele>399</ele>
        <time>2018-03-22T15:20:24Z</time>
      </trkpt>
      <trkpt lat="45.88879" lon="4.666">
        <ele>400</ele>
        <time>2018-03-22T15:20:30Z</time>
      </trkpt>
      <trkpt lat="45.8888" lon="4.66601">
        <ele>400</ele>
        <time>2018-03-22T15:20:31Z</time>
      </trkpt>
      <trkpt lat="45.88886" lon="4.6661">
        <ele>400</ele>
        <time>2018-03-22T15:20:38Z</time>
      </trkpt>
      <trkpt lat="45.88887" lon="4.66612">
        <ele>400</ele>
        <time>2018-03-22T15:20:39Z</time>
      </trkpt>
      <trkpt lat="45.88893" lon="4.66622">
        <ele>401</ele>
        <time>2018-03-22T15:20:45Z</time>
      </trkpt>
      <trkpt lat="45.88894" lon="4.66623">
        <ele>401</ele>
        <time>2018-03-22T15:20:46Z</time>
      </trkpt>
      <trkpt lat="45.889" lon="4.66632">
        <ele>401</ele>
        <time>2018-03-22T15:20:52Z</time>
      </trkpt>
      <trkpt lat="45.889" lon="4.66634">
        <ele>402</ele>
        <time>2018-03-22T15:20:53Z</time>
      </trkpt>
      <trkpt lat="45.88906" lon="4.66642">
        <ele>402</ele>
        <time>2018-03-22T15:20:58Z</time>
      </trkpt>
      <trkpt lat="45.88907" lon="4.66643">
        <ele>403</ele>
        <time>2018-03-22T15:20:59Z</time>
      </trkpt>
      <trkpt lat="45.88914" lon="4.6665">
        <ele>403</ele>
        <time>2018-03-22T15:21:03Z</time>
      </trkpt>
      <trkpt lat="45.88916" lon="4.66651">
        <ele>404</ele>
        <time>2018-03-22T15:21:04Z</time>
      </trkpt>
      <trkpt lat="45.88921" lon="4.66657">
        <ele>404</ele>
        <time>2018-03-22T15:21:07Z</time>
      </trkpt>
      <trkpt lat="45.88923" lon="4.66659">
        <ele>404</ele>
        <time>2018-03-22T15:21:08Z</time>
      </trkpt>
      <trkpt lat="45.8893" lon="4.66666">
        <ele>403</ele>
        <time>2018-03-22T15:21:12Z</time>
      </trkpt>
      <trkpt lat="45.88931" lon="4.66667">
        <ele>407</ele>
        <time>2018-03-22T15:21:13Z</time>
      </trkpt>
      <trkpt lat="45.88939" lon="4.66674">
        <ele>408</ele>
        <time>2018-03-22T15:21:18Z</time>
      </trkpt>
      <trkpt lat="45.8894" lon="4.66675">
        <ele>408</ele>
        <time>2018-03-22T15:21:19Z</time>
      </trkpt>
      <trkpt lat="45.88947" lon="4.6668">
        <ele>408</ele>
        <time>2018-03-22T15:21:24Z</time>
      </trkpt>
      <trkpt lat="45.88949" lon="4.66681">
        <ele>408</ele>
        <time>2018-03-22T15:21:25Z</time>
      </trkpt>
      <trkpt lat="45.88956" lon="4.66688">
        <ele>409</ele>
        <time>2018-03-22T15:21:30Z</time>
      </trkpt>
      <trkpt lat="45.88958" lon="4.6669">
        <ele>409</ele>
        <time>2018-03-22T15:21:31Z</time>
      </trkpt>
      <trkpt lat="45.88965" lon="4.66695">
        <ele>409</ele>
        <time>2018-03-22T15:21:35Z</time>
      </trkpt>
      <trkpt lat="45.88967" lon="4.66696">
        <ele>409</ele>
        <time>2018-03-22T15:21:36Z</time>
      </trkpt>
      <trkpt lat="45.88975" lon="4.66699">
        <ele>409</ele>
        <time>2018-03-22T15:21:40Z</time>
      </trkpt>
      <trkpt lat="45.88977" lon="4.667">
        <ele>409</ele>
        <time>2018-03-22T15:21:41Z</time>
      </trkpt>
      <trkpt lat="45.88984" lon="4.66704">
        <ele>409</ele>
        <time>2018-03-22T15:21:44Z</time>
      </trkpt>
      <trkpt lat="45.88986" lon="4.66705">
        <ele>409</ele>
        <time>2018-03-22T15:21:45Z</time>
      </trkpt>
      <trkpt lat="45.88994" lon="4.66708">
        <ele>409</ele>
        <time>2018-03-22T15:21:48Z</time>
      </trkpt>
      <trkpt lat="45.88997" lon="4.6671">
        <ele>409</ele>
        <time>2018-03-22T15:21:49Z</time>
      </trkpt>
      <trkpt lat="45.89004" lon="4.66713">
        <ele>407</ele>
        <time>2018-03-22T15:21:52Z</time>
      </trkpt>
      <trkpt lat="45.89006" lon="4.66714">
        <ele>407</ele>
        <time>2018-03-22T15:21:53Z</time>
      </trkpt>
      <trkpt lat="45.89012" lon="4.66717">
        <ele>407</ele>
        <time>2018-03-22T15:21:56Z</time>
      </trkpt>
      <trkpt lat="45.89014" lon="4.66718">
        <ele>407</ele>
        <time>2018-03-22T15:21:57Z</time>
      </trkpt>
      <trkpt lat="45.89023" lon="4.66721">
        <ele>407</ele>
        <time>2018-03-22T15:22:01Z</time>
      </trkpt>
      <trkpt lat="45.89025" lon="4.66721">
        <ele>407</ele>
        <time>2018-03-22T15:22:02Z</time>
      </trkpt>
      <trkpt lat="45.89032" lon="4.66724">
        <ele>407</ele>
        <time>2018-03-22T15:22:05Z</time>
      </trkpt>
      <trkpt lat="45.89034" lon="4.66726">
        <ele>407</ele>
        <time>2018-03-22T15:22:06Z</time>
      </trkpt>
      <trkpt lat="45.89041" lon="4.66732">
        <ele>407</ele>
        <time>2018-03-22T15:22:09Z</time>
      </trkpt>
      <trkpt lat="45.89044" lon="4.66734">
        <ele>407</ele>
        <time>2018-03-22T15:22:10Z</time>
      </trkpt>
      <trkpt lat="45.89051" lon="4.66739">
        <ele>407</ele>
        <time>2018-03-22T15:22:13Z</time>
      </trkpt>
      <trkpt lat="45.89053" lon="4.6674">
        <ele>407</ele>
        <time>2018-03-22T15:22:14Z</time>
      </trkpt>
      <trkpt lat="45.89059" lon="4.66743">
        <ele>407</ele>
        <time>2018-03-22T15:22:17Z</time>
      </trkpt>
      <trkpt lat="45.89062" lon="4.66745">
        <ele>407</ele>
        <time>2018-03-22T15:22:18Z</time>
      </trkpt>
      <trkpt lat="45.89069" lon="4.66751">
        <ele>411</ele>
        <time>2018-03-22T15:22:22Z</time>
      </trkpt>
      <trkpt lat="45.8907" lon="4.66753">
        <ele>411</ele>
        <time>2018-03-22T15:22:23Z</time>
      </trkpt>
      <trkpt lat="45.89076" lon="4.66763">
        <ele>411</ele>
        <time>2018-03-22T15:22:27Z</time>
      </trkpt>
      <trkpt lat="45.89078" lon="4.66764">
        <ele>411</ele>
        <time>2018-03-22T15:22:28Z</time>
      </trkpt>
      <trkpt lat="45.89085" lon="4.66767">
        <ele>409</ele>
        <time>2018-03-22T15:22:32Z</time>
      </trkpt>
      <trkpt lat="45.89087" lon="4.66767">
        <ele>409</ele>
        <time>2018-03-22T15:22:33Z</time>
      </trkpt>
      <trkpt lat="45.89094" lon="4.66773">
        <ele>410</ele>
        <time>2018-03-22T15:22:36Z</time>
      </trkpt>
      <trkpt lat="45.89096" lon="4.66776">
        <ele>410</ele>
        <time>2018-03-22T15:22:37Z</time>
      </trkpt>
      <trkpt lat="45.89101" lon="4.66783">
        <ele>410</ele>
        <time>2018-03-22T15:22:40Z</time>
      </trkpt>
      <trkpt lat="45.89103" lon="4.66786">
        <ele>410</ele>
        <time>2018-03-22T15:22:41Z</time>
      </trkpt>
      <trkpt lat="45.89108" lon="4.66793">
        <ele>410</ele>
        <time>2018-03-22T15:22:44Z</time>
      </trkpt>
      <trkpt lat="45.8911" lon="4.66795">
        <ele>410</ele>
        <time>2018-03-22T15:22:45Z</time>
      </trkpt>
      <trkpt lat="45.89118" lon="4.66799">
        <ele>410</ele>
        <time>2018-03-22T15:22:48Z</time>
      </trkpt>
      <trkpt lat="45.8912" lon="4.668">
        <ele>410</ele>
        <time>2018-03-22T15:22:49Z</time>
      </trkpt>
      <trkpt lat="45.89127" lon="4.66805">
        <ele>410</ele>
        <time>2018-03-22T15:22:52Z</time>
      </trkpt>
      <trkpt lat="45.89128" lon="4.66806">
        <ele>410</ele>
        <time>2018-03-22T15:22:53Z</time>
      </trkpt>
      <trkpt lat="45.89126" lon="4.66818">
        <ele>411</ele>
        <time>2018-03-22T15:23:01Z</time>
      </trkpt>
      <trkpt lat="45.89126" lon="4.66819">
        <ele>411</ele>
        <time>2018-03-22T15:23:02Z</time>
      </trkpt>
      <trkpt lat="45.89126" lon="4.66825">
        <ele>411</ele>
        <time>2018-03-22T15:23:17Z</time>
      </trkpt>
      <trkpt lat="45.89126" lon="4.66825">
        <ele>411</ele>
        <time>2018-03-22T15:23:18Z</time>
      </trkpt>
      <trkpt lat="45.89124" lon="4.66833">
        <ele>412</ele>
        <time>2018-03-22T15:23:47Z</time>
      </trkpt>
      <trkpt lat="45.89124" lon="4.66833">
        <ele>412</ele>
        <time>2018-03-22T15:23:48Z</time>
      </trkpt>
      <trkpt lat="45.89123" lon="4.66823">
        <ele>411</ele>
        <time>2018-03-22T15:25:27Z</time>
      </trkpt>
      <trkpt lat="45.89123" lon="4.66822">
        <ele>411</ele>
        <time>2018-03-22T15:25:28Z</time>
      </trkpt>
      <trkpt lat="45.89123" lon="4.66819">
        <ele>411</ele>
        <time>2018-03-22T15:26:26Z</time>
      </trkpt>
      <trkpt lat="45.89123" lon="4.66819">
        <ele>411</ele>
        <time>2018-03-22T15:26:27Z</time>
      </trkpt>
      <trkpt lat="45.89125" lon="4.66817">
        <ele>411</ele>
        <time>2018-03-22T15:26:38Z</time>
      </trkpt>
      <trkpt lat="45.89125" lon="4.66817">
        <ele>411</ele>
        <time>2018-03-22T15:26:39Z</time>
      </trkpt>
      <trkpt lat="45.89125" lon="4.66817">
        <ele>411</ele>
        <time>2018-03-22T15:26:40Z</time>
      </trkpt>
      <trkpt lat="45.89123" lon="4.66829">
        <ele>412</ele>
        <time>2018-03-22T15:26:59Z</time>
      </trkpt>
      <trkpt lat="45.89123" lon="4.6683">
        <ele>412</ele>
        <time>2018-03-22T15:27:00Z</time>
      </trkpt>
      <trkpt lat="45.89124" lon="4.6683">
        <ele>412</ele>
        <time>2018-03-22T15:27:01Z</time>
      </trkpt>
      <trkpt lat="45.89124" lon="4.6683">
        <ele>412</ele>
        <time>2018-03-22T15:27:02Z</time>
      </trkpt>
      <trkpt lat="45.89126" lon="4.66831">
        <ele>412</ele>
        <time>2018-03-22T15:31:18.317Z</time>
      </trkpt>
      <trkpt lat="45.89125" lon="4.66812">
        <ele>411</ele>
        <time>2018-03-22T15:31:25.78Z</time>
      </trkpt>
      <trkpt lat="45.89125" lon="4.66816">
        <ele>411</ele>
        <time>2018-03-22T15:31:27Z</time>
      </trkpt>
      <trkpt lat="45.89124" lon="4.66817">
        <ele>411</ele>
        <time>2018-03-22T15:31:28Z</time>
      </trkpt>
      <trkpt lat="45.89118" lon="4.66827">
        <ele>412</ele>
        <time>2018-03-22T15:32:04Z</time>
      </trkpt>
      <trkpt lat="45.89118" lon="4.66827">
        <ele>412</ele>
        <time>2018-03-22T15:32:05Z</time>
      </trkpt>
      <trkpt lat="45.89109" lon="4.66829">
        <ele>412</ele>
        <time>2018-03-22T15:32:15Z</time>
      </trkpt>
      <trkpt lat="45.89108" lon="4.66829">
        <ele>412</ele>
        <time>2018-03-22T15:32:16Z</time>
      </trkpt>
      <trkpt lat="45.89116" lon="4.66825">
        <ele>412</ele>
        <time>2018-03-22T15:34:05Z</time>
      </trkpt>
      <trkpt lat="45.89117" lon="4.66825">
        <ele>412</ele>
        <time>2018-03-22T15:34:06Z</time>
      </trkpt>
      <trkpt lat="45.89123" lon="4.66821">
        <ele>411</ele>
        <time>2018-03-22T15:34:16Z</time>
      </trkpt>
      <trkpt lat="45.89124" lon="4.66818">
        <ele>411</ele>
        <time>2018-03-22T15:34:17Z</time>
      </trkpt>
      <trkpt lat="45.8913" lon="4.66814">
        <ele>411</ele>
        <time>2018-03-22T15:34:19Z</time>
      </trkpt>
      <trkpt lat="45.89133" lon="4.66814">
        <ele>411</ele>
        <time>2018-03-22T15:34:20Z</time>
      </trkpt>
      <trkpt lat="45.89137" lon="4.66814">
        <ele>411</ele>
        <time>2018-03-22T15:34:21Z</time>
      </trkpt>
      <trkpt lat="45.89146" lon="4.66818">
        <ele>411</ele>
        <time>2018-03-22T15:34:22Z</time>
      </trkpt>
      <trkpt lat="45.89152" lon="4.66827">
        <ele>412</ele>
        <time>2018-03-22T15:34:25Z</time>
      </trkpt>
      <trkpt lat="45.89153" lon="4.6683">
        <ele>412</ele>
        <time>2018-03-22T15:34:26Z</time>
      </trkpt>
      <trkpt lat="45.89153" lon="4.66843">
        <ele>414</ele>
        <time>2018-03-22T15:34:30Z</time>
      </trkpt>
      <trkpt lat="45.89153" lon="4.66845">
        <ele>414</ele>
        <time>2018-03-22T15:34:31Z</time>
      </trkpt>
      <trkpt lat="45.89152" lon="4.66857">
        <ele>414</ele>
        <time>2018-03-22T15:34:36Z</time>
      </trkpt>
      <trkpt lat="45.89152" lon="4.6686">
        <ele>414</ele>
        <time>2018-03-22T15:34:37Z</time>
      </trkpt>
      <trkpt lat="45.89152" lon="4.66871">
        <ele>414</ele>
        <time>2018-03-22T15:34:40Z</time>
      </trkpt>
      <trkpt lat="45.89152" lon="4.66876">
        <ele>414</ele>
        <time>2018-03-22T15:34:41Z</time>
      </trkpt>
      <trkpt lat="45.89153" lon="4.66885">
        <ele>414</ele>
        <time>2018-03-22T15:34:43Z</time>
      </trkpt>
      <trkpt lat="45.89153" lon="4.66889">
        <ele>414</ele>
        <time>2018-03-22T15:34:44Z</time>
      </trkpt>
      <trkpt lat="45.89155" lon="4.66898">
        <ele>414</ele>
        <time>2018-03-22T15:34:46Z</time>
      </trkpt>
      <trkpt lat="45.89156" lon="4.66902">
        <ele>415</ele>
        <time>2018-03-22T15:34:47Z</time>
      </trkpt>
      <trkpt lat="45.89159" lon="4.6691">
        <ele>415</ele>
        <time>2018-03-22T15:34:49Z</time>
      </trkpt>
      <trkpt lat="45.8916" lon="4.66914">
        <ele>415</ele>
        <time>2018-03-22T15:34:50Z</time>
      </trkpt>
      <trkpt lat="45.89163" lon="4.66923">
        <ele>414</ele>
        <time>2018-03-22T15:34:52Z</time>
      </trkpt>
      <trkpt lat="45.89165" lon="4.66928">
        <ele>414</ele>
        <time>2018-03-22T15:34:53Z</time>
      </trkpt>
      <trkpt lat="45.89167" lon="4.66936">
        <ele>415</ele>
        <time>2018-03-22T15:34:55Z</time>
      </trkpt>
      <trkpt lat="45.89169" lon="4.6694">
        <ele>415</ele>
        <time>2018-03-22T15:34:56Z</time>
      </trkpt>
      <trkpt lat="45.89171" lon="4.66949">
        <ele>415</ele>
        <time>2018-03-22T15:34:58Z</time>
      </trkpt>
      <trkpt lat="45.89173" lon="4.66953">
        <ele>415</ele>
        <time>2018-03-22T15:34:59Z</time>
      </trkpt>
      <trkpt lat="45.89175" lon="4.66961">
        <ele>415</ele>
        <time>2018-03-22T15:35:01Z</time>
      </trkpt>
      <trkpt lat="45.89176" lon="4.66966">
        <ele>415</ele>
        <time>2018-03-22T15:35:02Z</time>
      </trkpt>
      <trkpt lat="45.89179" lon="4.66978">
        <ele>414</ele>
        <time>2018-03-22T15:35:03Z</time>
      </trkpt>
      <trkpt lat="45.89181" lon="4.66989">
        <ele>414</ele>
        <time>2018-03-22T15:35:05Z</time>
      </trkpt>
      <trkpt lat="45.89183" lon="4.66994">
        <ele>414</ele>
        <time>2018-03-22T15:35:06Z</time>
      </trkpt>
      <trkpt lat="45.89185" lon="4.67004">
        <ele>412</ele>
        <time>2018-03-22T15:35:09Z</time>
      </trkpt>
      <trkpt lat="45.89186" lon="4.67008">
        <ele>412</ele>
        <time>2018-03-22T15:35:10Z</time>
      </trkpt>
      <trkpt lat="45.89188" lon="4.67013">
        <ele>413</ele>
        <time>2018-03-22T15:35:11Z</time>
      </trkpt>
      <trkpt lat="45.8919" lon="4.67023">
        <ele>413</ele>
        <time>2018-03-22T15:35:12Z</time>
      </trkpt>
      <trkpt lat="45.89192" lon="4.67034">
        <ele>413</ele>
        <time>2018-03-22T15:35:14Z</time>
      </trkpt>
      <trkpt lat="45.89194" lon="4.67039">
        <ele>413</ele>
        <time>2018-03-22T15:35:15Z</time>
      </trkpt>
      <trkpt lat="45.89196" lon="4.67049">
        <ele>412</ele>
        <time>2018-03-22T15:35:17Z</time>
      </trkpt>
      <trkpt lat="45.89197" lon="4.67055">
        <ele>412</ele>
        <time>2018-03-22T15:35:18Z</time>
      </trkpt>
      <trkpt lat="45.892" lon="4.67065">
        <ele>412</ele>
        <time>2018-03-22T15:35:20Z</time>
      </trkpt>
      <trkpt lat="45.89202" lon="4.6707">
        <ele>412</ele>
        <time>2018-03-22T15:35:21Z</time>
      </trkpt>
      <trkpt lat="45.89207" lon="4.6708">
        <ele>412</ele>
        <time>2018-03-22T15:35:23Z</time>
      </trkpt>
      <trkpt lat="45.89209" lon="4.67086">
        <ele>410</ele>
        <time>2018-03-22T15:35:24Z</time>
      </trkpt>
      <trkpt lat="45.89212" lon="4.67096">
        <ele>410</ele>
        <time>2018-03-22T15:35:26Z</time>
      </trkpt>
      <trkpt lat="45.89215" lon="4.671">
        <ele>410</ele>
        <time>2018-03-22T15:35:27Z</time>
      </trkpt>
      <trkpt lat="45.8922" lon="4.67109">
        <ele>411</ele>
        <time>2018-03-22T15:35:29Z</time>
      </trkpt>
      <trkpt lat="45.89222" lon="4.67113">
        <ele>411</ele>
        <time>2018-03-22T15:35:30Z</time>
      </trkpt>
      <trkpt lat="45.89228" lon="4.67121">
        <ele>411</ele>
        <time>2018-03-22T15:35:32Z</time>
      </trkpt>
      <trkpt lat="45.8923" lon="4.67126">
        <ele>411</ele>
        <time>2018-03-22T15:35:33Z</time>
      </trkpt>
      <trkpt lat="45.89235" lon="4.67135">
        <ele>411</ele>
        <time>2018-03-22T15:35:35Z</time>
      </trkpt>
      <trkpt lat="45.89239" lon="4.6714">
        <ele>411</ele>
        <time>2018-03-22T15:35:36Z</time>
      </trkpt>
      <trkpt lat="45.89242" lon="4.67144">
        <ele>411</ele>
        <time>2018-03-22T15:35:37Z</time>
      </trkpt>
      <trkpt lat="45.89246" lon="4.6715">
        <ele>411</ele>
        <time>2018-03-22T15:35:38Z</time>
      </trkpt>
      <trkpt lat="45.89249" lon="4.67155">
        <ele>412</ele>
        <time>2018-03-22T15:35:39Z</time>
      </trkpt>
      <trkpt lat="45.89253" lon="4.6716">
        <ele>414</ele>
        <time>2018-03-22T15:35:40Z</time>
      </trkpt>
      <trkpt lat="45.89257" lon="4.67165">
        <ele>414</ele>
        <time>2018-03-22T15:35:41Z</time>
      </trkpt>
      <trkpt lat="45.89261" lon="4.67168">
        <ele>412</ele>
        <time>2018-03-22T15:35:42Z</time>
      </trkpt>
      <trkpt lat="45.89265" lon="4.67173">
        <ele>412</ele>
        <time>2018-03-22T15:35:43Z</time>
      </trkpt>
      <trkpt lat="45.89269" lon="4.67177">
        <ele>412</ele>
        <time>2018-03-22T15:35:44Z</time>
      </trkpt>
      <trkpt lat="45.89274" lon="4.6718">
        <ele>412</ele>
        <time>2018-03-22T15:35:45Z</time>
      </trkpt>
      <trkpt lat="45.89279" lon="4.67183">
        <ele>412</ele>
        <time>2018-03-22T15:35:46Z</time>
      </trkpt>
      <trkpt lat="45.89283" lon="4.67186">
        <ele>412</ele>
        <time>2018-03-22T15:35:47Z</time>
      </trkpt>
      <trkpt lat="45.89288" lon="4.67188">
        <ele>412</ele>
        <time>2018-03-22T15:35:48Z</time>
      </trkpt>
      <trkpt lat="45.89293" lon="4.67192">
        <ele>412</ele>
        <time>2018-03-22T15:35:49Z</time>
      </trkpt>
      <trkpt lat="45.89297" lon="4.67195">
        <ele>412</ele>
        <time>2018-03-22T15:35:50Z</time>
      </trkpt>
      <trkpt lat="45.89301" lon="4.67197">
        <ele>412</ele>
        <time>2018-03-22T15:35:51Z</time>
      </trkpt>
      <trkpt lat="45.89305" lon="4.67201">
        <ele>412</ele>
        <time>2018-03-22T15:35:52Z</time>
      </trkpt>
      <trkpt lat="45.89309" lon="4.67203">
        <ele>412</ele>
        <time>2018-03-22T15:35:53Z</time>
      </trkpt>
      <trkpt lat="45.89314" lon="4.67205">
        <ele>412</ele>
        <time>2018-03-22T15:35:54Z</time>
      </trkpt>
      <trkpt lat="45.89322" lon="4.67208">
        <ele>412</ele>
        <time>2018-03-22T15:35:56Z</time>
      </trkpt>
      <trkpt lat="45.89326" lon="4.6721">
        <ele>412</ele>
        <time>2018-03-22T15:35:57Z</time>
      </trkpt>
      <trkpt lat="45.89331" lon="4.67212">
        <ele>411</ele>
        <time>2018-03-22T15:35:58Z</time>
      </trkpt>
      <trkpt lat="45.89335" lon="4.67215">
        <ele>415</ele>
        <time>2018-03-22T15:35:59Z</time>
      </trkpt>
      <trkpt lat="45.8934" lon="4.67218">
        <ele>415</ele>
        <time>2018-03-22T15:36:00Z</time>
      </trkpt>
      <trkpt lat="45.89345" lon="4.67221">
        <ele>415</ele>
        <time>2018-03-22T15:36:01Z</time>
      </trkpt>
      <trkpt lat="45.89349" lon="4.67225">
        <ele>415</ele>
        <time>2018-03-22T15:36:02Z</time>
      </trkpt>
      <trkpt lat="45.89354" lon="4.67229">
        <ele>415</ele>
        <time>2018-03-22T15:36:03Z</time>
      </trkpt>
      <trkpt lat="45.89358" lon="4.67235">
        <ele>415</ele>
        <time>2018-03-22T15:36:04Z</time>
      </trkpt>
      <trkpt lat="45.89362" lon="4.6724">
        <ele>415</ele>
        <time>2018-03-22T15:36:05Z</time>
      </trkpt>
      <trkpt lat="45.89366" lon="4.67247">
        <ele>415</ele>
        <time>2018-03-22T15:36:06Z</time>
      </trkpt>
      <trkpt lat="45.89369" lon="4.67254">
        <ele>409</ele>
        <time>2018-03-22T15:36:07Z</time>
      </trkpt>
      <trkpt lat="45.89372" lon="4.6726">
        <ele>409</ele>
        <time>2018-03-22T15:36:08Z</time>
      </trkpt>
      <trkpt lat="45.89376" lon="4.67267">
        <ele>409</ele>
        <time>2018-03-22T15:36:09Z</time>
      </trkpt>
      <trkpt lat="45.89379" lon="4.67273">
        <ele>409</ele>
        <time>2018-03-22T15:36:10Z</time>
      </trkpt>
      <trkpt lat="45.89382" lon="4.67279">
        <ele>409</ele>
        <time>2018-03-22T15:36:11Z</time>
      </trkpt>
      <trkpt lat="45.89386" lon="4.67286">
        <ele>408</ele>
        <time>2018-03-22T15:36:12Z</time>
      </trkpt>
      <trkpt lat="45.8939" lon="4.67291">
        <ele>408</ele>
        <time>2018-03-22T15:36:13Z</time>
      </trkpt>
      <trkpt lat="45.89393" lon="4.67298">
        <ele>408</ele>
        <time>2018-03-22T15:36:14Z</time>
      </trkpt>
      <trkpt lat="45.89397" lon="4.67304">
        <ele>408</ele>
        <time>2018-03-22T15:36:15Z</time>
      </trkpt>
      <trkpt lat="45.89401" lon="4.67308">
        <ele>408</ele>
        <time>2018-03-22T15:36:16Z</time>
      </trkpt>
      <trkpt lat="45.89405" lon="4.67314">
        <ele>407</ele>
        <time>2018-03-22T15:36:17Z</time>
      </trkpt>
      <trkpt lat="45.89408" lon="4.67319">
        <ele>407</ele>
        <time>2018-03-22T15:36:18Z</time>
      </trkpt>
      <trkpt lat="45.89413" lon="4.67325">
        <ele>407</ele>
        <time>2018-03-22T15:36:19Z</time>
      </trkpt>
      <trkpt lat="45.89417" lon="4.67329">
        <ele>409</ele>
        <time>2018-03-22T15:36:20Z</time>
      </trkpt>
      <trkpt lat="45.89421" lon="4.67334">
        <ele>407</ele>
        <time>2018-03-22T15:36:21Z</time>
      </trkpt>
      <trkpt lat="45.89427" lon="4.67339">
        <ele>407</ele>
        <time>2018-03-22T15:36:22Z</time>
      </trkpt>
      <trkpt lat="45.89431" lon="4.67343">
        <ele>407</ele>
        <time>2018-03-22T15:36:23Z</time>
      </trkpt>
      <trkpt lat="45.89435" lon="4.67348">
        <ele>407</ele>
        <time>2018-03-22T15:36:24Z</time>
      </trkpt>
      <trkpt lat="45.89439" lon="4.67352">
        <ele>407</ele>
        <time>2018-03-22T15:36:25Z</time>
      </trkpt>
      <trkpt lat="45.89444" lon="4.67357">
        <ele>407</ele>
        <time>2018-03-22T15:36:26Z</time>
      </trkpt>
      <trkpt lat="45.89449" lon="4.6736">
        <ele>407</ele>
        <time>2018-03-22T15:36:27Z</time>
      </trkpt>
      <trkpt lat="45.89453" lon="4.67365">
        <ele>407</ele>
        <time>2018-03-22T15:36:28Z</time>
      </trkpt>
      <trkpt lat="45.89458" lon="4.67369">
        <ele>407</ele>
        <time>2018-03-22T15:36:29Z</time>
      </trkpt>
      <trkpt lat="45.89462" lon="4.67373">
        <ele>407</ele>
        <time>2018-03-22T15:36:30Z</time>
      </trkpt>
      <trkpt lat="45.89468" lon="4.67377">
        <ele>407</ele>
        <time>2018-03-22T15:36:31Z</time>
      </trkpt>
      <trkpt lat="45.89474" lon="4.67382">
        <ele>407</ele>
        <time>2018-03-22T15:36:32Z</time>
      </trkpt>
      <trkpt lat="45.89479" lon="4.67385">
        <ele>407</ele>
        <time>2018-03-22T15:36:33Z</time>
      </trkpt>
      <trkpt lat="45.89484" lon="4.67389">
        <ele>407</ele>
        <time>2018-03-22T15:36:34Z</time>
      </trkpt>
      <trkpt lat="45.8949" lon="4.67393">
        <ele>407</ele>
        <time>2018-03-22T15:36:35Z</time>
      </trkpt>
      <trkpt lat="45.89496" lon="4.67397">
        <ele>406</ele>
        <time>2018-03-22T15:36:36Z</time>
      </trkpt>
      <trkpt lat="45.89502" lon="4.67401">
        <ele>408</ele>
        <time>2018-03-22T15:36:37Z</time>
      </trkpt>
      <trkpt lat="45.89507" lon="4.67405">
        <ele>408</ele>
        <time>2018-03-22T15:36:38Z</time>
      </trkpt>
      <trkpt lat="45.89512" lon="4.67409">
        <ele>408</ele>
        <time>2018-03-22T15:36:39Z</time>
      </trkpt>
      <trkpt lat="45.89516" lon="4.67414">
        <ele>408</ele>
        <time>2018-03-22T15:36:40Z</time>
      </trkpt>
      <trkpt lat="45.89521" lon="4.67416">
        <ele>409</ele>
        <time>2018-03-22T15:36:41Z</time>
      </trkpt>
      <trkpt lat="45.89526" lon="4.67419">
        <ele>402</ele>
        <time>2018-03-22T15:36:42Z</time>
      </trkpt>
      <trkpt lat="45.89532" lon="4.67423">
        <ele>402</ele>
        <time>2018-03-22T15:36:43Z</time>
      </trkpt>
      <trkpt lat="45.89539" lon="4.67426">
        <ele>402</ele>
        <time>2018-03-22T15:36:44Z</time>
      </trkpt>
      <trkpt lat="45.89545" lon="4.67428">
        <ele>402</ele>
        <time>2018-03-22T15:36:45Z</time>
      </trkpt>
      <trkpt lat="45.8955" lon="4.6743">
        <ele>402</ele>
        <time>2018-03-22T15:36:46Z</time>
      </trkpt>
      <trkpt lat="45.89556" lon="4.67431">
        <ele>403</ele>
        <time>2018-03-22T15:36:47Z</time>
      </trkpt>
      <trkpt lat="45.89561" lon="4.67433">
        <ele>403</ele>
        <time>2018-03-22T15:36:48Z</time>
      </trkpt>
      <trkpt lat="45.89567" lon="4.67434">
        <ele>403</ele>
        <time>2018-03-22T15:36:49Z</time>
      </trkpt>
      <trkpt lat="45.89573" lon="4.67436">
        <ele>404</ele>
        <time>2018-03-22T15:36:50Z</time>
      </trkpt>
      <trkpt lat="45.89579" lon="4.67439">
        <ele>404</ele>
        <time>2018-03-22T15:36:51Z</time>
      </trkpt>
      <trkpt lat="45.89585" lon="4.6744">
        <ele>405</ele>
        <time>2018-03-22T15:36:52Z</time>
      </trkpt>
      <trkpt lat="45.8959" lon="4.67442">
        <ele>405</ele>
        <time>2018-03-22T15:36:53Z</time>
      </trkpt>
      <trkpt lat="45.89595" lon="4.67444">
        <ele>404</ele>
        <time>2018-03-22T15:36:54Z</time>
      </trkpt>
      <trkpt lat="45.89602" lon="4.67446">
        <ele>404</ele>
        <time>2018-03-22T15:36:55Z</time>
      </trkpt>
      <trkpt lat="45.89608" lon="4.67448">
        <ele>404</ele>
        <time>2018-03-22T15:36:56Z</time>
      </trkpt>
      <trkpt lat="45.89614" lon="4.67451">
        <ele>404</ele>
        <time>2018-03-22T15:36:57Z</time>
      </trkpt>
      <trkpt lat="45.8962" lon="4.67453">
        <ele>404</ele>
        <time>2018-03-22T15:36:58Z</time>
      </trkpt>
      <trkpt lat="45.89627" lon="4.67455">
        <ele>404</ele>
        <time>2018-03-22T15:36:59Z</time>
      </trkpt>
      <trkpt lat="45.89633" lon="4.67457">
        <ele>403</ele>
        <time>2018-03-22T15:37:00Z</time>
      </trkpt>
      <trkpt lat="45.89638" lon="4.6746">
        <ele>403</ele>
        <time>2018-03-22T15:37:01Z</time>
      </trkpt>
      <trkpt lat="45.89644" lon="4.67462">
        <ele>403</ele>
        <time>2018-03-22T15:37:02Z</time>
      </trkpt>
      <trkpt lat="45.8965" lon="4.67463">
        <ele>403</ele>
        <time>2018-03-22T15:37:03Z</time>
      </trkpt>
      <trkpt lat="45.89655" lon="4.67464">
        <ele>403</ele>
        <time>2018-03-22T15:37:04Z</time>
      </trkpt>
      <trkpt lat="45.89662" lon="4.67466">
        <ele>403</ele>
        <time>2018-03-22T15:37:05Z</time>
      </trkpt>
      <trkpt lat="45.89668" lon="4.67469">
        <ele>403</ele>
        <time>2018-03-22T15:37:06Z</time>
      </trkpt>
      <trkpt lat="45.89674" lon="4.67471">
        <ele>403</ele>
        <time>2018-03-22T15:37:07Z</time>
      </trkpt>
      <trkpt lat="45.8968" lon="4.67473">
        <ele>403</ele>
        <time>2018-03-22T15:37:08Z</time>
      </trkpt>
      <trkpt lat="45.89686" lon="4.67477">
        <ele>403</ele>
        <time>2018-03-22T15:37:09Z</time>
      </trkpt>
      <trkpt lat="45.89692" lon="4.67481">
        <ele>402</ele>
        <time>2018-03-22T15:37:10Z</time>
      </trkpt>
      <trkpt lat="45.89697" lon="4.67483">
        <ele>402</ele>
        <time>2018-03-22T15:37:11Z</time>
      </trkpt>
      <trkpt lat="45.89703" lon="4.67485">
        <ele>402</ele>
        <time>2018-03-22T15:37:12Z</time>
      </trkpt>
      <trkpt lat="45.89709" lon="4.67487">
        <ele>402</ele>
        <time>2018-03-22T15:37:13Z</time>
      </trkpt>
      <trkpt lat="45.89715" lon="4.67489">
        <ele>402</ele>
        <time>2018-03-22T15:37:14Z</time>
      </trkpt>
      <trkpt lat="45.89722" lon="4.6749">
        <ele>402</ele>
        <time>2018-03-22T15:37:15Z</time>
      </trkpt>
      <trkpt lat="45.89729" lon="4.67492">
        <ele>402</ele>
        <time>2018-03-22T15:37:16Z</time>
      </trkpt>
      <trkpt lat="45.89736" lon="4.67493">
        <ele>401</ele>
        <time>2018-03-22T15:37:17Z</time>
      </trkpt>
      <trkpt lat="45.89744" lon="4.67493">
        <ele>400</ele>
        <time>2018-03-22T15:37:18Z</time>
      </trkpt>
      <trkpt lat="45.8975" lon="4.67493">
        <ele>399</ele>
        <time>2018-03-22T15:37:19Z</time>
      </trkpt>
      <trkpt lat="45.89756" lon="4.67493">
        <ele>399</ele>
        <time>2018-03-22T15:37:20Z</time>
      </trkpt>
      <trkpt lat="45.89763" lon="4.67493">
        <ele>399</ele>
        <time>2018-03-22T15:37:21Z</time>
      </trkpt>
      <trkpt lat="45.89769" lon="4.67491">
        <ele>399</ele>
        <time>2018-03-22T15:37:22Z</time>
      </trkpt>
      <trkpt lat="45.89776" lon="4.6749">
        <ele>399</ele>
        <time>2018-03-22T15:37:23Z</time>
      </trkpt>
      <trkpt lat="45.89783" lon="4.6749">
        <ele>399</ele>
        <time>2018-03-22T15:37:24Z</time>
      </trkpt>
      <trkpt lat="45.8979" lon="4.67487">
        <ele>399</ele>
        <time>2018-03-22T15:37:25Z</time>
      </trkpt>
      <trkpt lat="45.89796" lon="4.67484">
        <ele>399</ele>
        <time>2018-03-22T15:37:26Z</time>
      </trkpt>
      <trkpt lat="45.89803" lon="4.67477">
        <ele>399</ele>
        <time>2018-03-22T15:37:27Z</time>
      </trkpt>
      <trkpt lat="45.89807" lon="4.67469">
        <ele>399</ele>
        <time>2018-03-22T15:37:28Z</time>
      </trkpt>
      <trkpt lat="45.89811" lon="4.6746">
        <ele>399</ele>
        <time>2018-03-22T15:37:29Z</time>
      </trkpt>
      <trkpt lat="45.89814" lon="4.6745">
        <ele>399</ele>
        <time>2018-03-22T15:37:30Z</time>
      </trkpt>
      <trkpt lat="45.89817" lon="4.67441">
        <ele>399</ele>
        <time>2018-03-22T15:37:31Z</time>
      </trkpt>
      <trkpt lat="45.8982" lon="4.67431">
        <ele>399</ele>
        <time>2018-03-22T15:37:32Z</time>
      </trkpt>
      <trkpt lat="45.89821" lon="4.67421">
        <ele>398</ele>
        <time>2018-03-22T15:37:33Z</time>
      </trkpt>
      <trkpt lat="45.89824" lon="4.67411">
        <ele>400</ele>
        <time>2018-03-22T15:37:34Z</time>
      </trkpt>
      <trkpt lat="45.89827" lon="4.67403">
        <ele>401</ele>
        <time>2018-03-22T15:37:35Z</time>
      </trkpt>
      <trkpt lat="45.89829" lon="4.67393">
        <ele>403</ele>
        <time>2018-03-22T15:37:36Z</time>
      </trkpt>
      <trkpt lat="45.89833" lon="4.67385">
        <ele>403</ele>
        <time>2018-03-22T15:37:37Z</time>
      </trkpt>
      <trkpt lat="45.89837" lon="4.67377">
        <ele>398</ele>
        <time>2018-03-22T15:37:38Z</time>
      </trkpt>
      <trkpt lat="45.89842" lon="4.6737">
        <ele>399</ele>
        <time>2018-03-22T15:37:39Z</time>
      </trkpt>
      <trkpt lat="45.89847" lon="4.67364">
        <ele>399</ele>
        <time>2018-03-22T15:37:40Z</time>
      </trkpt>
      <trkpt lat="45.89853" lon="4.67359">
        <ele>399</ele>
        <time>2018-03-22T15:37:41Z</time>
      </trkpt>
      <trkpt lat="45.8986" lon="4.67355">
        <ele>399</ele>
        <time>2018-03-22T15:37:42Z</time>
      </trkpt>
      <trkpt lat="45.89866" lon="4.67351">
        <ele>399</ele>
        <time>2018-03-22T15:37:43Z</time>
      </trkpt>
      <trkpt lat="45.89872" lon="4.67349">
        <ele>399</ele>
        <time>2018-03-22T15:37:44Z</time>
      </trkpt>
      <trkpt lat="45.89879" lon="4.67347">
        <ele>398</ele>
        <time>2018-03-22T15:37:45Z</time>
      </trkpt>
      <trkpt lat="45.89886" lon="4.67347">
        <ele>398</ele>
        <time>2018-03-22T15:37:46Z</time>
      </trkpt>
      <trkpt lat="45.89894" lon="4.67347">
        <ele>398</ele>
        <time>2018-03-22T15:37:47Z</time>
      </trkpt>
      <trkpt lat="45.89901" lon="4.67348">
        <ele>398</ele>
        <time>2018-03-22T15:37:48Z</time>
      </trkpt>
      <trkpt lat="45.89908" lon="4.6735">
        <ele>398</ele>
        <time>2018-03-22T15:37:49Z</time>
      </trkpt>
      <trkpt lat="45.89915" lon="4.67352">
        <ele>398</ele>
        <time>2018-03-22T15:37:50Z</time>
      </trkpt>
      <trkpt lat="45.89923" lon="4.67353">
        <ele>396</ele>
        <time>2018-03-22T15:37:51Z</time>
      </trkpt>
      <trkpt lat="45.8993" lon="4.67355">
        <ele>396</ele>
        <time>2018-03-22T15:37:52Z</time>
      </trkpt>
      <trkpt lat="45.89939" lon="4.67356">
        <ele>396</ele>
        <time>2018-03-22T15:37:53Z</time>
      </trkpt>
      <trkpt lat="45.89946" lon="4.67359">
        <ele>395</ele>
        <time>2018-03-22T15:37:54Z</time>
      </trkpt>
      <trkpt lat="45.89954" lon="4.67361">
        <ele>395</ele>
        <time>2018-03-22T15:37:55Z</time>
      </trkpt>
      <trkpt lat="45.89962" lon="4.67364">
        <ele>395</ele>
        <time>2018-03-22T15:37:56Z</time>
      </trkpt>
      <trkpt lat="45.8997" lon="4.67366">
        <ele>395</ele>
        <time>2018-03-22T15:37:57Z</time>
      </trkpt>
      <trkpt lat="45.89978" lon="4.67369">
        <ele>395</ele>
        <time>2018-03-22T15:37:58Z</time>
      </trkpt>
      <trkpt lat="45.89986" lon="4.67372">
        <ele>394</ele>
        <time>2018-03-22T15:37:59Z</time>
      </trkpt>
      <trkpt lat="45.89994" lon="4.67375">
        <ele>394</ele>
        <time>2018-03-22T15:38:00Z</time>
      </trkpt>
      <trkpt lat="45.90002" lon="4.67379">
        <ele>396</ele>
        <time>2018-03-22T15:38:01Z</time>
      </trkpt>
      <trkpt lat="45.90009" lon="4.67384">
        <ele>395</ele>
        <time>2018-03-22T15:38:02Z</time>
      </trkpt>
      <trkpt lat="45.90017" lon="4.67391">
        <ele>395</ele>
        <time>2018-03-22T15:38:03Z</time>
      </trkpt>
      <trkpt lat="45.90025" lon="4.67398">
        <ele>395</ele>
        <time>2018-03-22T15:38:04Z</time>
      </trkpt>
      <trkpt lat="45.90032" lon="4.67404">
        <ele>395</ele>
        <time>2018-03-22T15:38:05Z</time>
      </trkpt>
      <trkpt lat="45.90039" lon="4.67411">
        <ele>395</ele>
        <time>2018-03-22T15:38:06Z</time>
      </trkpt>
      <trkpt lat="45.90046" lon="4.67418">
        <ele>385</ele>
        <time>2018-03-22T15:38:07Z</time>
      </trkpt>
      <trkpt lat="45.90053" lon="4.67426">
        <ele>386</ele>
        <time>2018-03-22T15:38:08Z</time>
      </trkpt>
      <trkpt lat="45.90059" lon="4.67433">
        <ele>386</ele>
        <time>2018-03-22T15:38:09Z</time>
      </trkpt>
      <trkpt lat="45.90065" lon="4.67441">
        <ele>385</ele>
        <time>2018-03-22T15:38:10Z</time>
      </trkpt>
      <trkpt lat="45.90071" lon="4.67449">
        <ele>384</ele>
        <time>2018-03-22T15:38:11Z</time>
      </trkpt>
      <trkpt lat="45.90078" lon="4.67456">
        <ele>383</ele>
        <time>2018-03-22T15:38:12Z</time>
      </trkpt>
      <trkpt lat="45.90084" lon="4.67464">
        <ele>387</ele>
        <time>2018-03-22T15:38:13Z</time>
      </trkpt>
      <trkpt lat="45.9009" lon="4.67471">
        <ele>386</ele>
        <time>2018-03-22T15:38:14Z</time>
      </trkpt>
      <trkpt lat="45.90096" lon="4.67479">
        <ele>385</ele>
        <time>2018-03-22T15:38:15Z</time>
      </trkpt>
      <trkpt lat="45.90102" lon="4.67486">
        <ele>385</ele>
        <time>2018-03-22T15:38:16Z</time>
      </trkpt>
      <trkpt lat="45.90107" lon="4.67494">
        <ele>385</ele>
        <time>2018-03-22T15:38:17Z</time>
      </trkpt>
      <trkpt lat="45.90112" lon="4.67503">
        <ele>377</ele>
        <time>2018-03-22T15:38:18Z</time>
      </trkpt>
      <trkpt lat="45.90117" lon="4.67511">
        <ele>378</ele>
        <time>2018-03-22T15:38:19Z</time>
      </trkpt>
      <trkpt lat="45.90122" lon="4.6752">
        <ele>378</ele>
        <time>2018-03-22T15:38:20Z</time>
      </trkpt>
      <trkpt lat="45.90127" lon="4.67529">
        <ele>378</ele>
        <time>2018-03-22T15:38:21Z</time>
      </trkpt>
      <trkpt lat="45.90132" lon="4.67537">
        <ele>377</ele>
        <time>2018-03-22T15:38:22Z</time>
      </trkpt>
      <trkpt lat="45.90137" lon="4.67546">
        <ele>377</ele>
        <time>2018-03-22T15:38:23Z</time>
      </trkpt>
      <trkpt lat="45.90142" lon="4.67556">
        <ele>377</ele>
        <time>2018-03-22T15:38:24Z</time>
      </trkpt>
      <trkpt lat="45.90148" lon="4.67564">
        <ele>376</ele>
        <time>2018-03-22T15:38:25Z</time>
      </trkpt>
      <trkpt lat="45.90155" lon="4.67573">
        <ele>376</ele>
        <time>2018-03-22T15:38:26Z</time>
      </trkpt>
      <trkpt lat="45.90161" lon="4.67581">
        <ele>376</ele>
        <time>2018-03-22T15:38:27Z</time>
      </trkpt>
      <trkpt lat="45.90166" lon="4.67588">
        <ele>375</ele>
        <time>2018-03-22T15:38:28Z</time>
      </trkpt>
      <trkpt lat="45.90172" lon="4.67595">
        <ele>376</ele>
        <time>2018-03-22T15:38:29Z</time>
      </trkpt>
      <trkpt lat="45.90178" lon="4.67602">
        <ele>376</ele>
        <time>2018-03-22T15:38:30Z</time>
      </trkpt>
      <trkpt lat="45.90185" lon="4.67609">
        <ele>376</ele>
        <time>2018-03-22T15:38:31Z</time>
      </trkpt>
      <trkpt lat="45.90191" lon="4.67616">
        <ele>376</ele>
        <time>2018-03-22T15:38:32Z</time>
      </trkpt>
      <trkpt lat="45.90197" lon="4.67623">
        <ele>376</ele>
        <time>2018-03-22T15:38:33Z</time>
      </trkpt>
      <trkpt lat="45.90201" lon="4.67631">
        <ele>375</ele>
        <time>2018-03-22T15:38:34Z</time>
      </trkpt>
      <trkpt lat="45.90208" lon="4.67637">
        <ele>375</ele>
        <time>2018-03-22T15:38:35Z</time>
      </trkpt>
      <trkpt lat="45.90214" lon="4.67643">
        <ele>375</ele>
        <time>2018-03-22T15:38:36Z</time>
      </trkpt>
      <trkpt lat="45.90221" lon="4.6765">
        <ele>375</ele>
        <time>2018-03-22T15:38:37Z</time>
      </trkpt>
      <trkpt lat="45.90226" lon="4.67656">
        <ele>375</ele>
        <time>2018-03-22T15:38:38Z</time>
      </trkpt>
      <trkpt lat="45.90232" lon="4.67661">
        <ele>375</ele>
        <time>2018-03-22T15:38:39Z</time>
      </trkpt>
      <trkpt lat="45.90238" lon="4.67666">
        <ele>375</ele>
        <time>2018-03-22T15:38:40Z</time>
      </trkpt>
      <trkpt lat="45.90245" lon="4.6767">
        <ele>374</ele>
        <time>2018-03-22T15:38:41Z</time>
      </trkpt>
      <trkpt lat="45.9025" lon="4.67675">
        <ele>374</ele>
        <time>2018-03-22T15:38:42Z</time>
      </trkpt>
      <trkpt lat="45.90256" lon="4.67678">
        <ele>374</ele>
        <time>2018-03-22T15:38:43Z</time>
      </trkpt>
      <trkpt lat="45.90263" lon="4.6768">
        <ele>374</ele>
        <time>2018-03-22T15:38:44Z</time>
      </trkpt>
      <trkpt lat="45.90268" lon="4.67683">
        <ele>374</ele>
        <time>2018-03-22T15:38:45Z</time>
      </trkpt>
      <trkpt lat="45.90275" lon="4.67686">
        <ele>374</ele>
        <time>2018-03-22T15:38:46Z</time>
      </trkpt>
      <trkpt lat="45.90281" lon="4.67688">
        <ele>374</ele>
        <time>2018-03-22T15:38:47Z</time>
      </trkpt>
      <trkpt lat="45.90288" lon="4.6769">
        <ele>374</ele>
        <time>2018-03-22T15:38:48Z</time>
      </trkpt>
      <trkpt lat="45.90294" lon="4.67692">
        <ele>374</ele>
        <time>2018-03-22T15:38:49Z</time>
      </trkpt>
      <trkpt lat="45.903" lon="4.67694">
        <ele>374</ele>
        <time>2018-03-22T15:38:50Z</time>
      </trkpt>
      <trkpt lat="45.90307" lon="4.67696">
        <ele>374</ele>
        <time>2018-03-22T15:38:51Z</time>
      </trkpt>
      <trkpt lat="45.90313" lon="4.67699">
        <ele>374</ele>
        <time>2018-03-22T15:38:52Z</time>
      </trkpt>
      <trkpt lat="45.90319" lon="4.67702">
        <ele>374</ele>
        <time>2018-03-22T15:38:53Z</time>
      </trkpt>
      <trkpt lat="45.90325" lon="4.67704">
        <ele>374</ele>
        <time>2018-03-22T15:38:54Z</time>
      </trkpt>
      <trkpt lat="45.9033" lon="4.67707">
        <ele>374</ele>
        <time>2018-03-22T15:38:55Z</time>
      </trkpt>
      <trkpt lat="45.90336" lon="4.67709">
        <ele>372</ele>
        <time>2018-03-22T15:38:56Z</time>
      </trkpt>
      <trkpt lat="45.90343" lon="4.67711">
        <ele>372</ele>
        <time>2018-03-22T15:38:57Z</time>
      </trkpt>
      <trkpt lat="45.90349" lon="4.67713">
        <ele>372</ele>
        <time>2018-03-22T15:38:58Z</time>
      </trkpt>
      <trkpt lat="45.90355" lon="4.67715">
        <ele>371</ele>
        <time>2018-03-22T15:38:59Z</time>
      </trkpt>
      <trkpt lat="45.90362" lon="4.67718">
        <ele>371</ele>
        <time>2018-03-22T15:39:00Z</time>
      </trkpt>
      <trkpt lat="45.90368" lon="4.67719">
        <ele>371</ele>
        <time>2018-03-22T15:39:01Z</time>
      </trkpt>
      <trkpt lat="45.90376" lon="4.67721">
        <ele>371</ele>
        <time>2018-03-22T15:39:02Z</time>
      </trkpt>
      <trkpt lat="45.90382" lon="4.67724">
        <ele>370</ele>
        <time>2018-03-22T15:39:03Z</time>
      </trkpt>
      <trkpt lat="45.90389" lon="4.67727">
        <ele>370</ele>
        <time>2018-03-22T15:39:04Z</time>
      </trkpt>
      <trkpt lat="45.90397" lon="4.67731">
        <ele>369</ele>
        <time>2018-03-22T15:39:05Z</time>
      </trkpt>
      <trkpt lat="45.90403" lon="4.67733">
        <ele>369</ele>
        <time>2018-03-22T15:39:06Z</time>
      </trkpt>
      <trkpt lat="45.9041" lon="4.67735">
        <ele>368</ele>
        <time>2018-03-22T15:39:07Z</time>
      </trkpt>
      <trkpt lat="45.90417" lon="4.67738">
        <ele>366</ele>
        <time>2018-03-22T15:39:08Z</time>
      </trkpt>
      <trkpt lat="45.90424" lon="4.67741">
        <ele>366</ele>
        <time>2018-03-22T15:39:09Z</time>
      </trkpt>
      <trkpt lat="45.9043" lon="4.67743">
        <ele>366</ele>
        <time>2018-03-22T15:39:10Z</time>
      </trkpt>
      <trkpt lat="45.90436" lon="4.67745">
        <ele>366</ele>
        <time>2018-03-22T15:39:11Z</time>
      </trkpt>
      <trkpt lat="45.90442" lon="4.67747">
        <ele>366</ele>
        <time>2018-03-22T15:39:12Z</time>
      </trkpt>
      <trkpt lat="45.90448" lon="4.67749">
        <ele>367</ele>
        <time>2018-03-22T15:39:13Z</time>
      </trkpt>
      <trkpt lat="45.90455" lon="4.6775">
        <ele>364</ele>
        <time>2018-03-22T15:39:14Z</time>
      </trkpt>
      <trkpt lat="45.9046" lon="4.67753">
        <ele>364</ele>
        <time>2018-03-22T15:39:15Z</time>
      </trkpt>
      <trkpt lat="45.90466" lon="4.67756">
        <ele>364</ele>
        <time>2018-03-22T15:39:16Z</time>
      </trkpt>
      <trkpt lat="45.90472" lon="4.67758">
        <ele>364</ele>
        <time>2018-03-22T15:39:17Z</time>
      </trkpt>
      <trkpt lat="45.90478" lon="4.67759">
        <ele>364</ele>
        <time>2018-03-22T15:39:18Z</time>
      </trkpt>
      <trkpt lat="45.90484" lon="4.67762">
        <ele>364</ele>
        <time>2018-03-22T15:39:19Z</time>
      </trkpt>
      <trkpt lat="45.9049" lon="4.67764">
        <ele>364</ele>
        <time>2018-03-22T15:39:20Z</time>
      </trkpt>
      <trkpt lat="45.90496" lon="4.67767">
        <ele>364</ele>
        <time>2018-03-22T15:39:21Z</time>
      </trkpt>
      <trkpt lat="45.90501" lon="4.6777">
        <ele>364</ele>
        <time>2018-03-22T15:39:22Z</time>
      </trkpt>
      <trkpt lat="45.90507" lon="4.67772">
        <ele>364</ele>
        <time>2018-03-22T15:39:23Z</time>
      </trkpt>
      <trkpt lat="45.90512" lon="4.67775">
        <ele>365</ele>
        <time>2018-03-22T15:39:24Z</time>
      </trkpt>
      <trkpt lat="45.90517" lon="4.67776">
        <ele>365</ele>
        <time>2018-03-22T15:39:25Z</time>
      </trkpt>
      <trkpt lat="45.90522" lon="4.67778">
        <ele>365</ele>
        <time>2018-03-22T15:39:26Z</time>
      </trkpt>
      <trkpt lat="45.90527" lon="4.67781">
        <ele>365</ele>
        <time>2018-03-22T15:39:27Z</time>
      </trkpt>
      <trkpt lat="45.90532" lon="4.67781">
        <ele>365</ele>
        <time>2018-03-22T15:39:28Z</time>
      </trkpt>
      <trkpt lat="45.90537" lon="4.67782">
        <ele>365</ele>
        <time>2018-03-22T15:39:29Z</time>
      </trkpt>
      <trkpt lat="45.90542" lon="4.67784">
        <ele>365</ele>
        <time>2018-03-22T15:39:30Z</time>
      </trkpt>
      <trkpt lat="45.90546" lon="4.67786">
        <ele>365</ele>
        <time>2018-03-22T15:39:31Z</time>
      </trkpt>
      <trkpt lat="45.9055" lon="4.67787">
        <ele>365</ele>
        <time>2018-03-22T15:39:32Z</time>
      </trkpt>
      <trkpt lat="45.90559" lon="4.67789">
        <ele>365</ele>
        <time>2018-03-22T15:39:34Z</time>
      </trkpt>
      <trkpt lat="45.90563" lon="4.6779">
        <ele>365</ele>
        <time>2018-03-22T15:39:35Z</time>
      </trkpt>
      <trkpt lat="45.90572" lon="4.67792">
        <ele>365</ele>
        <time>2018-03-22T15:39:37Z</time>
      </trkpt>
      <trkpt lat="45.90575" lon="4.67792">
        <ele>366</ele>
        <time>2018-03-22T15:39:38Z</time>
      </trkpt>
      <trkpt lat="45.90583" lon="4.67793">
        <ele>366</ele>
        <time>2018-03-22T15:39:40Z</time>
      </trkpt>
      <trkpt lat="45.90587" lon="4.67793">
        <ele>367</ele>
        <time>2018-03-22T15:39:41Z</time>
      </trkpt>
      <trkpt lat="45.90594" lon="4.67795">
        <ele>367</ele>
        <time>2018-03-22T15:39:43Z</time>
      </trkpt>
      <trkpt lat="45.90597" lon="4.67795">
        <ele>367</ele>
        <time>2018-03-22T15:39:44Z</time>
      </trkpt>
      <trkpt lat="45.90604" lon="4.67795">
        <ele>367</ele>
        <time>2018-03-22T15:39:47Z</time>
      </trkpt>
      <trkpt lat="45.90607" lon="4.67795">
        <ele>367</ele>
        <time>2018-03-22T15:39:48Z</time>
      </trkpt>
      <trkpt lat="45.90616" lon="4.67795">
        <ele>367</ele>
        <time>2018-03-22T15:39:51Z</time>
      </trkpt>
      <trkpt lat="45.90619" lon="4.67795">
        <ele>367</ele>
        <time>2018-03-22T15:39:52Z</time>
      </trkpt>
      <trkpt lat="45.90625" lon="4.67795">
        <ele>367</ele>
        <time>2018-03-22T15:39:54Z</time>
      </trkpt>
      <trkpt lat="45.90628" lon="4.67796">
        <ele>367</ele>
        <time>2018-03-22T15:39:55Z</time>
      </trkpt>
      <trkpt lat="45.90635" lon="4.67796">
        <ele>367</ele>
        <time>2018-03-22T15:39:57Z</time>
      </trkpt>
      <trkpt lat="45.90638" lon="4.67796">
        <ele>367</ele>
        <time>2018-03-22T15:39:58Z</time>
      </trkpt>
      <trkpt lat="45.90645" lon="4.67796">
        <ele>367</ele>
        <time>2018-03-22T15:40:00Z</time>
      </trkpt>
      <trkpt lat="45.90648" lon="4.67796">
        <ele>368</ele>
        <time>2018-03-22T15:40:01Z</time>
      </trkpt>
      <trkpt lat="45.90654" lon="4.67797">
        <ele>368</ele>
        <time>2018-03-22T15:40:03Z</time>
      </trkpt>
      <trkpt lat="45.90658" lon="4.67797">
        <ele>368</ele>
        <time>2018-03-22T15:40:04Z</time>
      </trkpt>
      <trkpt lat="45.90664" lon="4.67797">
        <ele>368</ele>
        <time>2018-03-22T15:40:06Z</time>
      </trkpt>
      <trkpt lat="45.90667" lon="4.67798">
        <ele>368</ele>
        <time>2018-03-22T15:40:07Z</time>
      </trkpt>
      <trkpt lat="45.90673" lon="4.67799">
        <ele>368</ele>
        <time>2018-03-22T15:40:09Z</time>
      </trkpt>
      <trkpt lat="45.90676" lon="4.678">
        <ele>368</ele>
        <time>2018-03-22T15:40:10Z</time>
      </trkpt>
      <trkpt lat="45.90685" lon="4.67802">
        <ele>368</ele>
        <time>2018-03-22T15:40:13Z</time>
      </trkpt>
      <trkpt lat="45.90688" lon="4.67803">
        <ele>368</ele>
        <time>2018-03-22T15:40:14Z</time>
      </trkpt>
      <trkpt lat="45.90694" lon="4.67805">
        <ele>368</ele>
        <time>2018-03-22T15:40:16Z</time>
      </trkpt>
      <trkpt lat="45.90697" lon="4.67806">
        <ele>368</ele>
        <time>2018-03-22T15:40:17Z</time>
      </trkpt>
      <trkpt lat="45.90705" lon="4.67808">
        <ele>368</ele>
        <time>2018-03-22T15:40:20Z</time>
      </trkpt>
      <trkpt lat="45.90708" lon="4.67809">
        <ele>368</ele>
        <time>2018-03-22T15:40:21Z</time>
      </trkpt>
      <trkpt lat="45.90716" lon="4.67811">
        <ele>369</ele>
        <time>2018-03-22T15:40:24Z</time>
      </trkpt>
      <trkpt lat="45.90718" lon="4.67812">
        <ele>369</ele>
        <time>2018-03-22T15:40:25Z</time>
      </trkpt>
      <trkpt lat="45.90727" lon="4.67816">
        <ele>369</ele>
        <time>2018-03-22T15:40:28Z</time>
      </trkpt>
      <trkpt lat="45.90729" lon="4.67817">
        <ele>369</ele>
        <time>2018-03-22T15:40:29Z</time>
      </trkpt>
      <trkpt lat="45.90737" lon="4.6782">
        <ele>369</ele>
        <time>2018-03-22T15:40:32Z</time>
      </trkpt>
      <trkpt lat="45.9074" lon="4.67821">
        <ele>369</ele>
        <time>2018-03-22T15:40:33Z</time>
      </trkpt>
      <trkpt lat="45.90749" lon="4.67824">
        <ele>370</ele>
        <time>2018-03-22T15:40:36Z</time>
      </trkpt>
      <trkpt lat="45.90751" lon="4.67825">
        <ele>370</ele>
        <time>2018-03-22T15:40:37Z</time>
      </trkpt>
      <trkpt lat="45.9076" lon="4.67829">
        <ele>370</ele>
        <time>2018-03-22T15:40:40Z</time>
      </trkpt>
      <trkpt lat="45.90763" lon="4.6783">
        <ele>370</ele>
        <time>2018-03-22T15:40:41Z</time>
      </trkpt>
      <trkpt lat="45.90769" lon="4.67832">
        <ele>369</ele>
        <time>2018-03-22T15:40:43Z</time>
      </trkpt>
      <trkpt lat="45.90772" lon="4.67834">
        <ele>371</ele>
        <time>2018-03-22T15:40:44Z</time>
      </trkpt>
      <trkpt lat="45.90778" lon="4.67836">
        <ele>371</ele>
        <time>2018-03-22T15:40:46Z</time>
      </trkpt>
      <trkpt lat="45.90781" lon="4.67838">
        <ele>371</ele>
        <time>2018-03-22T15:40:47Z</time>
      </trkpt>
      <trkpt lat="45.90787" lon="4.67841">
        <ele>371</ele>
        <time>2018-03-22T15:40:49Z</time>
      </trkpt>
      <trkpt lat="45.9079" lon="4.67842">
        <ele>371</ele>
        <time>2018-03-22T15:40:50Z</time>
      </trkpt>
      <trkpt lat="45.90798" lon="4.67844">
        <ele>371</ele>
        <time>2018-03-22T15:40:52Z</time>
      </trkpt>
      <trkpt lat="45.90807" lon="4.67847">
        <ele>371</ele>
        <time>2018-03-22T15:40:53Z</time>
      </trkpt>
      <trkpt lat="45.90814" lon="4.6785">
        <ele>371</ele>
        <time>2018-03-22T15:40:55Z</time>
      </trkpt>
      <trkpt lat="45.90818" lon="4.67851">
        <ele>371</ele>
        <time>2018-03-22T15:40:56Z</time>
      </trkpt>
      <trkpt lat="45.90826" lon="4.67854">
        <ele>371</ele>
        <time>2018-03-22T15:40:58Z</time>
      </trkpt>
      <trkpt lat="45.90829" lon="4.67855">
        <ele>371</ele>
        <time>2018-03-22T15:40:59Z</time>
      </trkpt>
      <trkpt lat="45.90837" lon="4.67858">
        <ele>370</ele>
        <time>2018-03-22T15:41:01Z</time>
      </trkpt>
      <trkpt lat="45.9084" lon="4.67859">
        <ele>370</ele>
        <time>2018-03-22T15:41:02Z</time>
      </trkpt>
      <trkpt lat="45.90848" lon="4.67861">
        <ele>370</ele>
        <time>2018-03-22T15:41:04Z</time>
      </trkpt>
      <trkpt lat="45.90852" lon="4.67863">
        <ele>370</ele>
        <time>2018-03-22T15:41:05Z</time>
      </trkpt>
      <trkpt lat="45.9086" lon="4.67865">
        <ele>370</ele>
        <time>2018-03-22T15:41:07Z</time>
      </trkpt>
      <trkpt lat="45.90864" lon="4.67866">
        <ele>370</ele>
        <time>2018-03-22T15:41:08Z</time>
      </trkpt>
      <trkpt lat="45.90873" lon="4.6787">
        <ele>370</ele>
        <time>2018-03-22T15:41:10Z</time>
      </trkpt>
      <trkpt lat="45.90877" lon="4.67871">
        <ele>370</ele>
        <time>2018-03-22T15:41:11Z</time>
      </trkpt>
      <trkpt lat="45.90885" lon="4.67875">
        <ele>370</ele>
        <time>2018-03-22T15:41:13Z</time>
      </trkpt>
      <trkpt lat="45.90889" lon="4.67877">
        <ele>370</ele>
        <time>2018-03-22T15:41:14Z</time>
      </trkpt>
      <trkpt lat="45.90897" lon="4.6788">
        <ele>370</ele>
        <time>2018-03-22T15:41:16Z</time>
      </trkpt>
      <trkpt lat="45.90901" lon="4.67881">
        <ele>370</ele>
        <time>2018-03-22T15:41:17Z</time>
      </trkpt>
      <trkpt lat="45.90908" lon="4.67885">
        <ele>370</ele>
        <time>2018-03-22T15:41:19Z</time>
      </trkpt>
      <trkpt lat="45.90912" lon="4.67886">
        <ele>370</ele>
        <time>2018-03-22T15:41:20Z</time>
      </trkpt>
      <trkpt lat="45.90917" lon="4.67888">
        <ele>370</ele>
        <time>2018-03-22T15:41:22Z</time>
      </trkpt>
      <trkpt lat="45.90922" lon="4.6789">
        <ele>370</ele>
        <time>2018-03-22T15:41:23Z</time>
      </trkpt>
      <trkpt lat="45.9093" lon="4.67893">
        <ele>370</ele>
        <time>2018-03-22T15:41:25Z</time>
      </trkpt>
      <trkpt lat="45.90933" lon="4.67895">
        <ele>370</ele>
        <time>2018-03-22T15:41:26Z</time>
      </trkpt>
      <trkpt lat="45.9094" lon="4.67897">
        <ele>370</ele>
        <time>2018-03-22T15:41:28Z</time>
      </trkpt>
      <trkpt lat="45.90944" lon="4.67899">
        <ele>370</ele>
        <time>2018-03-22T15:41:29Z</time>
      </trkpt>
      <trkpt lat="45.90951" lon="4.67902">
        <ele>370</ele>
        <time>2018-03-22T15:41:31Z</time>
      </trkpt>
      <trkpt lat="45.90955" lon="4.67904">
        <ele>370</ele>
        <time>2018-03-22T15:41:32Z</time>
      </trkpt>
      <trkpt lat="45.90962" lon="4.67907">
        <ele>370</ele>
        <time>2018-03-22T15:41:34Z</time>
      </trkpt>
      <trkpt lat="45.90965" lon="4.67908">
        <ele>370</ele>
        <time>2018-03-22T15:41:35Z</time>
      </trkpt>
      <trkpt lat="45.90973" lon="4.67911">
        <ele>370</ele>
        <time>2018-03-22T15:41:38Z</time>
      </trkpt>
      <trkpt lat="45.90975" lon="4.67912">
        <ele>370</ele>
        <time>2018-03-22T15:41:39Z</time>
      </trkpt>
      <trkpt lat="45.90981" lon="4.67914">
        <ele>371</ele>
        <time>2018-03-22T15:41:41Z</time>
      </trkpt>
      <trkpt lat="45.90984" lon="4.67915">
        <ele>371</ele>
        <time>2018-03-22T15:41:42Z</time>
      </trkpt>
      <trkpt lat="45.9099" lon="4.67918">
        <ele>372</ele>
        <time>2018-03-22T15:41:44Z</time>
      </trkpt>
      <trkpt lat="45.90993" lon="4.6792">
        <ele>372</ele>
        <time>2018-03-22T15:41:45Z</time>
      </trkpt>
      <trkpt lat="45.90999" lon="4.67922">
        <ele>372</ele>
        <time>2018-03-22T15:41:47Z</time>
      </trkpt>
      <trkpt lat="45.91002" lon="4.67924">
        <ele>373</ele>
        <time>2018-03-22T15:41:48Z</time>
      </trkpt>
      <trkpt lat="45.91008" lon="4.67927">
        <ele>373</ele>
        <time>2018-03-22T15:41:50Z</time>
      </trkpt>
      <trkpt lat="45.91011" lon="4.67929">
        <ele>373</ele>
        <time>2018-03-22T15:41:51Z</time>
      </trkpt>
      <trkpt lat="45.91017" lon="4.67932">
        <ele>373</ele>
        <time>2018-03-22T15:41:53Z</time>
      </trkpt>
      <trkpt lat="45.9102" lon="4.67934">
        <ele>374</ele>
        <time>2018-03-22T15:41:54Z</time>
      </trkpt>
      <trkpt lat="45.91025" lon="4.67937">
        <ele>374</ele>
        <time>2018-03-22T15:41:56Z</time>
      </trkpt>
      <trkpt lat="45.91028" lon="4.67939">
        <ele>374</ele>
        <time>2018-03-22T15:41:57Z</time>
      </trkpt>
      <trkpt lat="45.91034" lon="4.67942">
        <ele>374</ele>
        <time>2018-03-22T15:41:59Z</time>
      </trkpt>
      <trkpt lat="45.91037" lon="4.67943">
        <ele>374</ele>
        <time>2018-03-22T15:42:00Z</time>
      </trkpt>
      <trkpt lat="45.91045" lon="4.67947">
        <ele>374</ele>
        <time>2018-03-22T15:42:03Z</time>
      </trkpt>
      <trkpt lat="45.91048" lon="4.67948">
        <ele>374</ele>
        <time>2018-03-22T15:42:04Z</time>
      </trkpt>
      <trkpt lat="45.91056" lon="4.67952">
        <ele>375</ele>
        <time>2018-03-22T15:42:07Z</time>
      </trkpt>
      <trkpt lat="45.91059" lon="4.67952">
        <ele>375</ele>
        <time>2018-03-22T15:42:08Z</time>
      </trkpt>
      <trkpt lat="45.91065" lon="4.67954">
        <ele>375</ele>
        <time>2018-03-22T15:42:10Z</time>
      </trkpt>
      <trkpt lat="45.91068" lon="4.67954">
        <ele>375</ele>
        <time>2018-03-22T15:42:11Z</time>
      </trkpt>
      <trkpt lat="45.91074" lon="4.67956">
        <ele>375</ele>
        <time>2018-03-22T15:42:13Z</time>
      </trkpt>
      <trkpt lat="45.91077" lon="4.67956">
        <ele>375</ele>
        <time>2018-03-22T15:42:14Z</time>
      </trkpt>
      <trkpt lat="45.91083" lon="4.67957">
        <ele>375</ele>
        <time>2018-03-22T15:42:16Z</time>
      </trkpt>
      <trkpt lat="45.91086" lon="4.67958">
        <ele>376</ele>
        <time>2018-03-22T15:42:17Z</time>
      </trkpt>
      <trkpt lat="45.91095" lon="4.6796">
        <ele>377</ele>
        <time>2018-03-22T15:42:20Z</time>
      </trkpt>
      <trkpt lat="45.91098" lon="4.6796">
        <ele>377</ele>
        <time>2018-03-22T15:42:21Z</time>
      </trkpt>
      <trkpt lat="45.91104" lon="4.67962">
        <ele>377</ele>
        <time>2018-03-22T15:42:23Z</time>
      </trkpt>
      <trkpt lat="45.91107" lon="4.67963">
        <ele>377</ele>
        <time>2018-03-22T15:42:24Z</time>
      </trkpt>
      <trkpt lat="45.91115" lon="4.67966">
        <ele>377</ele>
        <time>2018-03-22T15:42:27Z</time>
      </trkpt>
      <trkpt lat="45.91118" lon="4.67967">
        <ele>377</ele>
        <time>2018-03-22T15:42:28Z</time>
      </trkpt>
      <trkpt lat="45.91126" lon="4.6797">
        <ele>377</ele>
        <time>2018-03-22T15:42:31Z</time>
      </trkpt>
      <trkpt lat="45.91129" lon="4.6797">
        <ele>377</ele>
        <time>2018-03-22T15:42:32Z</time>
      </trkpt>
      <trkpt lat="45.91138" lon="4.67973">
        <ele>377</ele>
        <time>2018-03-22T15:42:35Z</time>
      </trkpt>
      <trkpt lat="45.9114" lon="4.67974">
        <ele>378</ele>
        <time>2018-03-22T15:42:36Z</time>
      </trkpt>
      <trkpt lat="45.91149" lon="4.67977">
        <ele>378</ele>
        <time>2018-03-22T15:42:39Z</time>
      </trkpt>
      <trkpt lat="45.91151" lon="4.67979">
        <ele>378</ele>
        <time>2018-03-22T15:42:40Z</time>
      </trkpt>
      <trkpt lat="45.91159" lon="4.67982">
        <ele>379</ele>
        <time>2018-03-22T15:42:43Z</time>
      </trkpt>
      <trkpt lat="45.91162" lon="4.67984">
        <ele>379</ele>
        <time>2018-03-22T15:42:44Z</time>
      </trkpt>
      <trkpt lat="45.9117" lon="4.67989">
        <ele>380</ele>
        <time>2018-03-22T15:42:47Z</time>
      </trkpt>
      <trkpt lat="45.91173" lon="4.67991">
        <ele>380</ele>
        <time>2018-03-22T15:42:48Z</time>
      </trkpt>
      <trkpt lat="45.91181" lon="4.67997">
        <ele>380</ele>
        <time>2018-03-22T15:42:51Z</time>
      </trkpt>
      <trkpt lat="45.91183" lon="4.67998">
        <ele>380</ele>
        <time>2018-03-22T15:42:52Z</time>
      </trkpt>
      <trkpt lat="45.91191" lon="4.68003">
        <ele>382</ele>
        <time>2018-03-22T15:42:55Z</time>
      </trkpt>
      <trkpt lat="45.91194" lon="4.68004">
        <ele>383</ele>
        <time>2018-03-22T15:42:56Z</time>
      </trkpt>
      <trkpt lat="45.912" lon="4.68008">
        <ele>383</ele>
        <time>2018-03-22T15:42:58Z</time>
      </trkpt>
      <trkpt lat="45.91202" lon="4.6801">
        <ele>383</ele>
        <time>2018-03-22T15:42:59Z</time>
      </trkpt>
      <trkpt lat="45.91208" lon="4.68013">
        <ele>383</ele>
        <time>2018-03-22T15:43:01Z</time>
      </trkpt>
      <trkpt lat="45.91211" lon="4.68015">
        <ele>383</ele>
        <time>2018-03-22T15:43:02Z</time>
      </trkpt>
      <trkpt lat="45.91217" lon="4.68018">
        <ele>383</ele>
        <time>2018-03-22T15:43:04Z</time>
      </trkpt>
      <trkpt lat="45.9122" lon="4.68019">
        <ele>384</ele>
        <time>2018-03-22T15:43:05Z</time>
      </trkpt>
      <trkpt lat="45.91225" lon="4.68022">
        <ele>384</ele>
        <time>2018-03-22T15:43:07Z</time>
      </trkpt>
      <trkpt lat="45.91228" lon="4.68024">
        <ele>384</ele>
        <time>2018-03-22T15:43:08Z</time>
      </trkpt>
      <trkpt lat="45.91234" lon="4.68027">
        <ele>384</ele>
        <time>2018-03-22T15:43:10Z</time>
      </trkpt>
      <trkpt lat="45.91237" lon="4.68028">
        <ele>384</ele>
        <time>2018-03-22T15:43:11Z</time>
      </trkpt>
      <trkpt lat="45.91243" lon="4.68031">
        <ele>384</ele>
        <time>2018-03-22T15:43:13Z</time>
      </trkpt>
      <trkpt lat="45.91246" lon="4.68033">
        <ele>384</ele>
        <time>2018-03-22T15:43:14Z</time>
      </trkpt>
      <trkpt lat="45.91252" lon="4.68035">
        <ele>385</ele>
        <time>2018-03-22T15:43:16Z</time>
      </trkpt>
      <trkpt lat="45.91255" lon="4.68037">
        <ele>385</ele>
        <time>2018-03-22T15:43:17Z</time>
      </trkpt>
      <trkpt lat="45.91261" lon="4.68039">
        <ele>385</ele>
        <time>2018-03-22T15:43:19Z</time>
      </trkpt>
      <trkpt lat="45.91264" lon="4.6804">
        <ele>385</ele>
        <time>2018-03-22T15:43:20Z</time>
      </trkpt>
      <trkpt lat="45.9127" lon="4.68043">
        <ele>385</ele>
        <time>2018-03-22T15:43:22Z</time>
      </trkpt>
      <trkpt lat="45.91273" lon="4.68045">
        <ele>385</ele>
        <time>2018-03-22T15:43:23Z</time>
      </trkpt>
      <trkpt lat="45.9128" lon="4.68047">
        <ele>385</ele>
        <time>2018-03-22T15:43:25Z</time>
      </trkpt>
      <trkpt lat="45.91283" lon="4.68049">
        <ele>385</ele>
        <time>2018-03-22T15:43:26Z</time>
      </trkpt>
      <trkpt lat="45.91289" lon="4.68052">
        <ele>385</ele>
        <time>2018-03-22T15:43:28Z</time>
      </trkpt>
      <trkpt lat="45.91292" lon="4.68054">
        <ele>385</ele>
        <time>2018-03-22T15:43:29Z</time>
      </trkpt>
      <trkpt lat="45.91298" lon="4.68057">
        <ele>385</ele>
        <time>2018-03-22T15:43:31Z</time>
      </trkpt>
      <trkpt lat="45.91301" lon="4.68058">
        <ele>385</ele>
        <time>2018-03-22T15:43:32Z</time>
      </trkpt>
      <trkpt lat="45.91308" lon="4.68061">
        <ele>385</ele>
        <time>2018-03-22T15:43:34Z</time>
      </trkpt>
      <trkpt lat="45.91311" lon="4.68062">
        <ele>385</ele>
        <time>2018-03-22T15:43:35Z</time>
      </trkpt>
      <trkpt lat="45.9132" lon="4.68066">
        <ele>385</ele>
        <time>2018-03-22T15:43:36Z</time>
      </trkpt>
      <trkpt lat="45.91327" lon="4.6807">
        <ele>385</ele>
        <time>2018-03-22T15:43:38Z</time>
      </trkpt>
      <trkpt lat="45.9133" lon="4.68072">
        <ele>385</ele>
        <time>2018-03-22T15:43:39Z</time>
      </trkpt>
      <trkpt lat="45.91337" lon="4.68076">
        <ele>385</ele>
        <time>2018-03-22T15:43:41Z</time>
      </trkpt>
      <trkpt lat="45.91341" lon="4.68078">
        <ele>385</ele>
        <time>2018-03-22T15:43:42Z</time>
      </trkpt>
      <trkpt lat="45.91348" lon="4.68081">
        <ele>385</ele>
        <time>2018-03-22T15:43:44Z</time>
      </trkpt>
      <trkpt lat="45.91352" lon="4.68083">
        <ele>385</ele>
        <time>2018-03-22T15:43:45Z</time>
      </trkpt>
      <trkpt lat="45.91358" lon="4.68085">
        <ele>386</ele>
        <time>2018-03-22T15:43:47Z</time>
      </trkpt>
      <trkpt lat="45.91363" lon="4.68086">
        <ele>386</ele>
        <time>2018-03-22T15:43:48Z</time>
      </trkpt>
      <trkpt lat="45.91371" lon="4.68088">
        <ele>386</ele>
        <time>2018-03-22T15:43:50Z</time>
      </trkpt>
      <trkpt lat="45.91375" lon="4.68089">
        <ele>386</ele>
        <time>2018-03-22T15:43:51Z</time>
      </trkpt>
      <trkpt lat="45.91383" lon="4.6809">
        <ele>386</ele>
        <time>2018-03-22T15:43:53Z</time>
      </trkpt>
      <trkpt lat="45.91387" lon="4.68091">
        <ele>386</ele>
        <time>2018-03-22T15:43:54Z</time>
      </trkpt>
      <trkpt lat="45.91393" lon="4.68091">
        <ele>386</ele>
        <time>2018-03-22T15:43:56Z</time>
      </trkpt>
      <trkpt lat="45.91398" lon="4.6809">
        <ele>386</ele>
        <time>2018-03-22T15:43:57Z</time>
      </trkpt>
      <trkpt lat="45.91405" lon="4.68089">
        <ele>386</ele>
        <time>2018-03-22T15:43:59Z</time>
      </trkpt>
      <trkpt lat="45.91409" lon="4.68088">
        <ele>386</ele>
        <time>2018-03-22T15:44:00Z</time>
      </trkpt>
      <trkpt lat="45.91417" lon="4.68085">
        <ele>386</ele>
        <time>2018-03-22T15:44:02Z</time>
      </trkpt>
      <trkpt lat="45.91421" lon="4.68084">
        <ele>386</ele>
        <time>2018-03-22T15:44:03Z</time>
      </trkpt>
      <trkpt lat="45.9143" lon="4.68083">
        <ele>385</ele>
        <time>2018-03-22T15:44:05Z</time>
      </trkpt>
      <trkpt lat="45.91434" lon="4.68083">
        <ele>385</ele>
        <time>2018-03-22T15:44:06Z</time>
      </trkpt>
      <trkpt lat="45.91442" lon="4.68085">
        <ele>385</ele>
        <time>2018-03-22T15:44:08Z</time>
      </trkpt>
      <trkpt lat="45.91446" lon="4.68087">
        <ele>384</ele>
        <time>2018-03-22T15:44:09Z</time>
      </trkpt>
      <trkpt lat="45.9145" lon="4.6809">
        <ele>384</ele>
        <time>2018-03-22T15:44:10Z</time>
      </trkpt>
      <trkpt lat="45.91455" lon="4.68091">
        <ele>384</ele>
        <time>2018-03-22T15:44:11Z</time>
      </trkpt>
      <trkpt lat="45.9146" lon="4.68094">
        <ele>384</ele>
        <time>2018-03-22T15:44:12Z</time>
      </trkpt>
      <trkpt lat="45.91465" lon="4.68096">
        <ele>384</ele>
        <time>2018-03-22T15:44:13Z</time>
      </trkpt>
      <trkpt lat="45.9147" lon="4.68099">
        <ele>384</ele>
        <time>2018-03-22T15:44:14Z</time>
      </trkpt>
      <trkpt lat="45.91476" lon="4.68101">
        <ele>383</ele>
        <time>2018-03-22T15:44:15Z</time>
      </trkpt>
      <trkpt lat="45.91481" lon="4.68104">
        <ele>383</ele>
        <time>2018-03-22T15:44:16Z</time>
      </trkpt>
      <trkpt lat="45.91486" lon="4.68107">
        <ele>383</ele>
        <time>2018-03-22T15:44:17Z</time>
      </trkpt>
      <trkpt lat="45.91491" lon="4.68111">
        <ele>383</ele>
        <time>2018-03-22T15:44:18Z</time>
      </trkpt>
      <trkpt lat="45.91497" lon="4.68114">
        <ele>383</ele>
        <time>2018-03-22T15:44:19Z</time>
      </trkpt>
      <trkpt lat="45.91503" lon="4.68117">
        <ele>380</ele>
        <time>2018-03-22T15:44:20Z</time>
      </trkpt>
      <trkpt lat="45.91508" lon="4.6812">
        <ele>380</ele>
        <time>2018-03-22T15:44:21Z</time>
      </trkpt>
      <trkpt lat="45.91514" lon="4.68124">
        <ele>380</ele>
        <time>2018-03-22T15:44:22Z</time>
      </trkpt>
      <trkpt lat="45.9152" lon="4.68127">
        <ele>380</ele>
        <time>2018-03-22T15:44:23Z</time>
      </trkpt>
      <trkpt lat="45.91526" lon="4.6813">
        <ele>379</ele>
        <time>2018-03-22T15:44:24Z</time>
      </trkpt>
      <trkpt lat="45.91532" lon="4.68133">
        <ele>379</ele>
        <time>2018-03-22T15:44:25Z</time>
      </trkpt>
      <trkpt lat="45.91538" lon="4.68137">
        <ele>379</ele>
        <time>2018-03-22T15:44:26Z</time>
      </trkpt>
      <trkpt lat="45.91544" lon="4.68141">
        <ele>379</ele>
        <time>2018-03-22T15:44:27Z</time>
      </trkpt>
      <trkpt lat="45.91551" lon="4.68144">
        <ele>379</ele>
        <time>2018-03-22T15:44:28Z</time>
      </trkpt>
      <trkpt lat="45.91558" lon="4.68147">
        <ele>379</ele>
        <time>2018-03-22T15:44:29Z</time>
      </trkpt>
      <trkpt lat="45.91564" lon="4.68152">
        <ele>378</ele>
        <time>2018-03-22T15:44:30Z</time>
      </trkpt>
      <trkpt lat="45.91571" lon="4.68155">
        <ele>378</ele>
        <time>2018-03-22T15:44:31Z</time>
      </trkpt>
      <trkpt lat="45.91578" lon="4.6816">
        <ele>378</ele>
        <time>2018-03-22T15:44:32Z</time>
      </trkpt>
      <trkpt lat="45.91585" lon="4.68164">
        <ele>377</ele>
        <time>2018-03-22T15:44:33Z</time>
      </trkpt>
      <trkpt lat="45.91592" lon="4.68169">
        <ele>377</ele>
        <time>2018-03-22T15:44:34Z</time>
      </trkpt>
      <trkpt lat="45.91598" lon="4.68173">
        <ele>376</ele>
        <time>2018-03-22T15:44:35Z</time>
      </trkpt>
      <trkpt lat="45.91604" lon="4.6818">
        <ele>376</ele>
        <time>2018-03-22T15:44:36Z</time>
      </trkpt>
      <trkpt lat="45.91611" lon="4.68185">
        <ele>375</ele>
        <time>2018-03-22T15:44:37Z</time>
      </trkpt>
      <trkpt lat="45.91617" lon="4.68191">
        <ele>375</ele>
        <time>2018-03-22T15:44:38Z</time>
      </trkpt>
      <trkpt lat="45.91624" lon="4.68196">
        <ele>375</ele>
        <time>2018-03-22T15:44:39Z</time>
      </trkpt>
      <trkpt lat="45.91632" lon="4.68201">
        <ele>375</ele>
        <time>2018-03-22T15:44:40Z</time>
      </trkpt>
      <trkpt lat="45.91639" lon="4.68204">
        <ele>374</ele>
        <time>2018-03-22T15:44:41Z</time>
      </trkpt>
      <trkpt lat="45.91647" lon="4.68209">
        <ele>374</ele>
        <time>2018-03-22T15:44:42Z</time>
      </trkpt>
      <trkpt lat="45.91654" lon="4.68215">
        <ele>374</ele>
        <time>2018-03-22T15:44:43Z</time>
      </trkpt>
      <trkpt lat="45.91661" lon="4.68219">
        <ele>374</ele>
        <time>2018-03-22T15:44:44Z</time>
      </trkpt>
      <trkpt lat="45.91668" lon="4.68225">
        <ele>371</ele>
        <time>2018-03-22T15:44:45Z</time>
      </trkpt>
      <trkpt lat="45.91675" lon="4.6823">
        <ele>371</ele>
        <time>2018-03-22T15:44:46Z</time>
      </trkpt>
      <trkpt lat="45.91682" lon="4.68235">
        <ele>371</ele>
        <time>2018-03-22T15:44:47Z</time>
      </trkpt>
      <trkpt lat="45.91689" lon="4.68239">
        <ele>371</ele>
        <time>2018-03-22T15:44:48Z</time>
      </trkpt>
      <trkpt lat="45.91695" lon="4.68244">
        <ele>371</ele>
        <time>2018-03-22T15:44:49Z</time>
      </trkpt>
      <trkpt lat="45.91702" lon="4.68248">
        <ele>370</ele>
        <time>2018-03-22T15:44:50Z</time>
      </trkpt>
      <trkpt lat="45.91709" lon="4.68251">
        <ele>373</ele>
        <time>2018-03-22T15:44:51Z</time>
      </trkpt>
      <trkpt lat="45.91716" lon="4.68253">
        <ele>373</ele>
        <time>2018-03-22T15:44:52Z</time>
      </trkpt>
      <trkpt lat="45.91723" lon="4.68256">
        <ele>372</ele>
        <time>2018-03-22T15:44:53Z</time>
      </trkpt>
      <trkpt lat="45.91729" lon="4.68258">
        <ele>372</ele>
        <time>2018-03-22T15:44:54Z</time>
      </trkpt>
      <trkpt lat="45.91735" lon="4.68259">
        <ele>372</ele>
        <time>2018-03-22T15:44:55Z</time>
      </trkpt>
      <trkpt lat="45.91741" lon="4.68261">
        <ele>372</ele>
        <time>2018-03-22T15:44:56Z</time>
      </trkpt>
      <trkpt lat="45.91747" lon="4.68263">
        <ele>371</ele>
        <time>2018-03-22T15:44:57Z</time>
      </trkpt>
      <trkpt lat="45.91752" lon="4.68263">
        <ele>371</ele>
        <time>2018-03-22T15:44:58Z</time>
      </trkpt>
      <trkpt lat="45.91757" lon="4.68265">
        <ele>371</ele>
        <time>2018-03-22T15:44:59Z</time>
      </trkpt>
      <trkpt lat="45.91762" lon="4.68266">
        <ele>372</ele>
        <time>2018-03-22T15:45:00Z</time>
      </trkpt>
      <trkpt lat="45.91768" lon="4.68267">
        <ele>372</ele>
        <time>2018-03-22T15:45:01Z</time>
      </trkpt>
      <trkpt lat="45.91773" lon="4.68268">
        <ele>372</ele>
        <time>2018-03-22T15:45:02Z</time>
      </trkpt>
      <trkpt lat="45.91778" lon="4.68269">
        <ele>372</ele>
        <time>2018-03-22T15:45:03Z</time>
      </trkpt>
      <trkpt lat="45.91783" lon="4.6827">
        <ele>372</ele>
        <time>2018-03-22T15:45:04Z</time>
      </trkpt>
      <trkpt lat="45.91787" lon="4.68272">
        <ele>372</ele>
        <time>2018-03-22T15:45:05Z</time>
      </trkpt>
      <trkpt lat="45.91792" lon="4.68272">
        <ele>372</ele>
        <time>2018-03-22T15:45:06Z</time>
      </trkpt>
      <trkpt lat="45.91796" lon="4.68273">
        <ele>372</ele>
        <time>2018-03-22T15:45:07Z</time>
      </trkpt>
      <trkpt lat="45.91804" lon="4.68275">
        <ele>372</ele>
        <time>2018-03-22T15:45:09Z</time>
      </trkpt>
      <trkpt lat="45.91808" lon="4.68276">
        <ele>372</ele>
        <time>2018-03-22T15:45:10Z</time>
      </trkpt>
      <trkpt lat="45.91814" lon="4.68279">
        <ele>372</ele>
        <time>2018-03-22T15:45:12Z</time>
      </trkpt>
      <trkpt lat="45.91819" lon="4.6828">
        <ele>373</ele>
        <time>2018-03-22T15:45:13Z</time>
      </trkpt>
      <trkpt lat="45.91827" lon="4.68283">
        <ele>373</ele>
        <time>2018-03-22T15:45:15Z</time>
      </trkpt>
      <trkpt lat="45.91831" lon="4.68284">
        <ele>373</ele>
        <time>2018-03-22T15:45:16Z</time>
      </trkpt>
      <trkpt lat="45.91838" lon="4.68285">
        <ele>374</ele>
        <time>2018-03-22T15:45:19Z</time>
      </trkpt>
      <trkpt lat="45.9184" lon="4.68285">
        <ele>375</ele>
        <time>2018-03-22T15:45:20Z</time>
      </trkpt>
      <trkpt lat="45.91846" lon="4.68287">
        <ele>375</ele>
        <time>2018-03-22T15:45:22Z</time>
      </trkpt>
      <trkpt lat="45.91849" lon="4.68288">
        <ele>375</ele>
        <time>2018-03-22T15:45:23Z</time>
      </trkpt>
      <trkpt lat="45.91856" lon="4.68289">
        <ele>375</ele>
        <time>2018-03-22T15:45:25Z</time>
      </trkpt>
      <trkpt lat="45.91859" lon="4.68289">
        <ele>375</ele>
        <time>2018-03-22T15:45:26Z</time>
      </trkpt>
      <trkpt lat="45.91866" lon="4.6829">
        <ele>375</ele>
        <time>2018-03-22T15:45:28Z</time>
      </trkpt>
      <trkpt lat="45.91869" lon="4.68291">
        <ele>376</ele>
        <time>2018-03-22T15:45:29Z</time>
      </trkpt>
      <trkpt lat="45.91878" lon="4.68291">
        <ele>376</ele>
        <time>2018-03-22T15:45:32Z</time>
      </trkpt>
      <trkpt lat="45.91881" lon="4.68291">
        <ele>376</ele>
        <time>2018-03-22T15:45:33Z</time>
      </trkpt>
      <trkpt lat="45.91888" lon="4.68291">
        <ele>376</ele>
        <time>2018-03-22T15:45:35Z</time>
      </trkpt>
      <trkpt lat="45.91891" lon="4.68291">
        <ele>376</ele>
        <time>2018-03-22T15:45:36Z</time>
      </trkpt>
      <trkpt lat="45.91897" lon="4.68291">
        <ele>376</ele>
        <time>2018-03-22T15:45:38Z</time>
      </trkpt>
      <trkpt lat="45.919" lon="4.68291">
        <ele>376</ele>
        <time>2018-03-22T15:45:39Z</time>
      </trkpt>
      <trkpt lat="45.91906" lon="4.68292">
        <ele>376</ele>
        <time>2018-03-22T15:45:41Z</time>
      </trkpt>
      <trkpt lat="45.91909" lon="4.68292">
        <ele>377</ele>
        <time>2018-03-22T15:45:42Z</time>
      </trkpt>
      <trkpt lat="45.91916" lon="4.68293">
        <ele>377</ele>
        <time>2018-03-22T15:45:44Z</time>
      </trkpt>
      <trkpt lat="45.91919" lon="4.68294">
        <ele>379</ele>
        <time>2018-03-22T15:45:45Z</time>
      </trkpt>
      <trkpt lat="45.91928" lon="4.68296">
        <ele>379</ele>
        <time>2018-03-22T15:45:48Z</time>
      </trkpt>
      <trkpt lat="45.91931" lon="4.68297">
        <ele>379</ele>
        <time>2018-03-22T15:45:49Z</time>
      </trkpt>
      <trkpt lat="45.91939" lon="4.68299">
        <ele>379</ele>
        <time>2018-03-22T15:45:52Z</time>
      </trkpt>
      <trkpt lat="45.91942" lon="4.68299">
        <ele>379</ele>
        <time>2018-03-22T15:45:53Z</time>
      </trkpt>
      <trkpt lat="45.9195" lon="4.68301">
        <ele>379</ele>
        <time>2018-03-22T15:45:56Z</time>
      </trkpt>
      <trkpt lat="45.91953" lon="4.68302">
        <ele>379</ele>
        <time>2018-03-22T15:45:57Z</time>
      </trkpt>
      <trkpt lat="45.91962" lon="4.68304">
        <ele>379</ele>
        <time>2018-03-22T15:46:00Z</time>
      </trkpt>
      <trkpt lat="45.91965" lon="4.68305">
        <ele>380</ele>
        <time>2018-03-22T15:46:01Z</time>
      </trkpt>
      <trkpt lat="45.91971" lon="4.68306">
        <ele>380</ele>
        <time>2018-03-22T15:46:03Z</time>
      </trkpt>
      <trkpt lat="45.91974" lon="4.68307">
        <ele>380</ele>
        <time>2018-03-22T15:46:04Z</time>
      </trkpt>
      <trkpt lat="45.9198" lon="4.68309">
        <ele>380</ele>
        <time>2018-03-22T15:46:06Z</time>
      </trkpt>
      <trkpt lat="45.91983" lon="4.6831">
        <ele>380</ele>
        <time>2018-03-22T15:46:07Z</time>
      </trkpt>
      <trkpt lat="45.91992" lon="4.68313">
        <ele>381</ele>
        <time>2018-03-22T15:46:10Z</time>
      </trkpt>
      <trkpt lat="45.91995" lon="4.68314">
        <ele>381</ele>
        <time>2018-03-22T15:46:11Z</time>
      </trkpt>
      <trkpt lat="45.92001" lon="4.68317">
        <ele>381</ele>
        <time>2018-03-22T15:46:13Z</time>
      </trkpt>
      <trkpt lat="45.92004" lon="4.68318">
        <ele>381</ele>
        <time>2018-03-22T15:46:14Z</time>
      </trkpt>
      <trkpt lat="45.92011" lon="4.68319">
        <ele>381</ele>
        <time>2018-03-22T15:46:16Z</time>
      </trkpt>
      <trkpt lat="45.92014" lon="4.68319">
        <ele>380</ele>
        <time>2018-03-22T15:46:17Z</time>
      </trkpt>
      <trkpt lat="45.92023" lon="4.68319">
        <ele>380</ele>
        <time>2018-03-22T15:46:18Z</time>
      </trkpt>
      <trkpt lat="45.92027" lon="4.6832">
        <ele>380</ele>
        <time>2018-03-22T15:46:19Z</time>
      </trkpt>
      <trkpt lat="45.92035" lon="4.68321">
        <ele>380</ele>
        <time>2018-03-22T15:46:21Z</time>
      </trkpt>
      <trkpt lat="45.92039" lon="4.68322">
        <ele>380</ele>
        <time>2018-03-22T15:46:22Z</time>
      </trkpt>
      <trkpt lat="45.92048" lon="4.68323">
        <ele>380</ele>
        <time>2018-03-22T15:46:24Z</time>
      </trkpt>
      <trkpt lat="45.92052" lon="4.68324">
        <ele>380</ele>
        <time>2018-03-22T15:46:25Z</time>
      </trkpt>
      <trkpt lat="45.9206" lon="4.68325">
        <ele>380</ele>
        <time>2018-03-22T15:46:27Z</time>
      </trkpt>
      <trkpt lat="45.92064" lon="4.68326">
        <ele>380</ele>
        <time>2018-03-22T15:46:28Z</time>
      </trkpt>
      <trkpt lat="45.92072" lon="4.68328">
        <ele>380</ele>
        <time>2018-03-22T15:46:30Z</time>
      </trkpt>
      <trkpt lat="45.92076" lon="4.68329">
        <ele>381</ele>
        <time>2018-03-22T15:46:31Z</time>
      </trkpt>
      <trkpt lat="45.92083" lon="4.68331">
        <ele>382</ele>
        <time>2018-03-22T15:46:34Z</time>
      </trkpt>
      <trkpt lat="45.92086" lon="4.68331">
        <ele>381</ele>
        <time>2018-03-22T15:46:35Z</time>
      </trkpt>
      <trkpt lat="45.92092" lon="4.68333">
        <ele>380</ele>
        <time>2018-03-22T15:46:37Z</time>
      </trkpt>
      <trkpt lat="45.92095" lon="4.68334">
        <ele>383</ele>
        <time>2018-03-22T15:46:38Z</time>
      </trkpt>
      <trkpt lat="45.92103" lon="4.68337">
        <ele>383</ele>
        <time>2018-03-22T15:46:39Z</time>
      </trkpt>
      <trkpt lat="45.92106" lon="4.68339">
        <ele>383</ele>
        <time>2018-03-22T15:46:40Z</time>
      </trkpt>
      <trkpt lat="45.92113" lon="4.68343">
        <ele>383</ele>
        <time>2018-03-22T15:46:42Z</time>
      </trkpt>
      <trkpt lat="45.92117" lon="4.68345">
        <ele>383</ele>
        <time>2018-03-22T15:46:43Z</time>
      </trkpt>
      <trkpt lat="45.92124" lon="4.68351">
        <ele>383</ele>
        <time>2018-03-22T15:46:45Z</time>
      </trkpt>
      <trkpt lat="45.92127" lon="4.68353">
        <ele>383</ele>
        <time>2018-03-22T15:46:46Z</time>
      </trkpt>
      <trkpt lat="45.92134" lon="4.68358">
        <ele>383</ele>
        <time>2018-03-22T15:46:48Z</time>
      </trkpt>
      <trkpt lat="45.92137" lon="4.68361">
        <ele>383</ele>
        <time>2018-03-22T15:46:49Z</time>
      </trkpt>
      <trkpt lat="45.92143" lon="4.68367">
        <ele>383</ele>
        <time>2018-03-22T15:46:51Z</time>
      </trkpt>
      <trkpt lat="45.92146" lon="4.68369">
        <ele>383</ele>
        <time>2018-03-22T15:46:52Z</time>
      </trkpt>
      <trkpt lat="45.92152" lon="4.68375">
        <ele>384</ele>
        <time>2018-03-22T15:46:54Z</time>
      </trkpt>
      <trkpt lat="45.92154" lon="4.68377">
        <ele>384</ele>
        <time>2018-03-22T15:46:55Z</time>
      </trkpt>
      <trkpt lat="45.92158" lon="4.68381">
        <ele>384</ele>
        <time>2018-03-22T15:46:57Z</time>
      </trkpt>
      <trkpt lat="45.92164" lon="4.68387">
        <ele>384</ele>
        <time>2018-03-22T15:46:58Z</time>
      </trkpt>
      <trkpt lat="45.92169" lon="4.68395">
        <ele>383</ele>
        <time>2018-03-22T15:47:00Z</time>
      </trkpt>
      <trkpt lat="45.92172" lon="4.68399">
        <ele>384</ele>
        <time>2018-03-22T15:47:01Z</time>
      </trkpt>
      <trkpt lat="45.92178" lon="4.68407">
        <ele>384</ele>
        <time>2018-03-22T15:47:03Z</time>
      </trkpt>
      <trkpt lat="45.9218" lon="4.68411">
        <ele>384</ele>
        <time>2018-03-22T15:47:04Z</time>
      </trkpt>
      <trkpt lat="45.92187" lon="4.68418">
        <ele>386</ele>
        <time>2018-03-22T15:47:06Z</time>
      </trkpt>
      <trkpt lat="45.92191" lon="4.68421">
        <ele>386</ele>
        <time>2018-03-22T15:47:07Z</time>
      </trkpt>
      <trkpt lat="45.92195" lon="4.68423">
        <ele>386</ele>
        <time>2018-03-22T15:47:08Z</time>
      </trkpt>
      <trkpt lat="45.922" lon="4.68425">
        <ele>386</ele>
        <time>2018-03-22T15:47:09Z</time>
      </trkpt>
      <trkpt lat="45.92208" lon="4.68429">
        <ele>386</ele>
        <time>2018-03-22T15:47:11Z</time>
      </trkpt>
      <trkpt lat="45.92212" lon="4.68431">
        <ele>386</ele>
        <time>2018-03-22T15:47:12Z</time>
      </trkpt>
      <trkpt lat="45.9222" lon="4.68438">
        <ele>386</ele>
        <time>2018-03-22T15:47:14Z</time>
      </trkpt>
      <trkpt lat="45.92223" lon="4.68441">
        <ele>386</ele>
        <time>2018-03-22T15:47:15Z</time>
      </trkpt>
      <trkpt lat="45.92231" lon="4.68447">
        <ele>386</ele>
        <time>2018-03-22T15:47:17Z</time>
      </trkpt>
      <trkpt lat="45.92234" lon="4.68451">
        <ele>386</ele>
        <time>2018-03-22T15:47:18Z</time>
      </trkpt>
      <trkpt lat="45.9224" lon="4.68458">
        <ele>386</ele>
        <time>2018-03-22T15:47:20Z</time>
      </trkpt>
      <trkpt lat="45.92243" lon="4.68461">
        <ele>386</ele>
        <time>2018-03-22T15:47:21Z</time>
      </trkpt>
      <trkpt lat="45.9225" lon="4.68468">
        <ele>386</ele>
        <time>2018-03-22T15:47:23Z</time>
      </trkpt>
      <trkpt lat="45.92253" lon="4.68472">
        <ele>384</ele>
        <time>2018-03-22T15:47:24Z</time>
      </trkpt>
      <trkpt lat="45.92259" lon="4.68479">
        <ele>384</ele>
        <time>2018-03-22T15:47:26Z</time>
      </trkpt>
      <trkpt lat="45.92263" lon="4.68482">
        <ele>384</ele>
        <time>2018-03-22T15:47:27Z</time>
      </trkpt>
      <trkpt lat="45.9227" lon="4.68489">
        <ele>384</ele>
        <time>2018-03-22T15:47:30Z</time>
      </trkpt>
      <trkpt lat="45.92275" lon="4.68494">
        <ele>384</ele>
        <time>2018-03-22T15:47:31Z</time>
      </trkpt>
      <trkpt lat="45.92281" lon="4.685">
        <ele>384</ele>
        <time>2018-03-22T15:47:33Z</time>
      </trkpt>
      <trkpt lat="45.92284" lon="4.68503">
        <ele>387</ele>
        <time>2018-03-22T15:47:34Z</time>
      </trkpt>
      <trkpt lat="45.92291" lon="4.6851">
        <ele>387</ele>
        <time>2018-03-22T15:47:36Z</time>
      </trkpt>
      <trkpt lat="45.92295" lon="4.68513">
        <ele>387</ele>
        <time>2018-03-22T15:47:37Z</time>
      </trkpt>
      <trkpt lat="45.92302" lon="4.6852">
        <ele>387</ele>
        <time>2018-03-22T15:47:39Z</time>
      </trkpt>
      <trkpt lat="45.92306" lon="4.68523">
        <ele>387</ele>
        <time>2018-03-22T15:47:40Z</time>
      </trkpt>
      <trkpt lat="45.92311" lon="4.68527">
        <ele>387</ele>
        <time>2018-03-22T15:47:41Z</time>
      </trkpt>
      <trkpt lat="45.92314" lon="4.68531">
        <ele>387</ele>
        <time>2018-03-22T15:47:42Z</time>
      </trkpt>
      <trkpt lat="45.92322" lon="4.68536">
        <ele>387</ele>
        <time>2018-03-22T15:47:44Z</time>
      </trkpt>
      <trkpt lat="45.92325" lon="4.68539">
        <ele>388</ele>
        <time>2018-03-22T15:47:45Z</time>
      </trkpt>
      <trkpt lat="45.92329" lon="4.68543">
        <ele>388</ele>
        <time>2018-03-22T15:47:46Z</time>
      </trkpt>
      <trkpt lat="45.92333" lon="4.68546">
        <ele>388</ele>
        <time>2018-03-22T15:47:47Z</time>
      </trkpt>
      <trkpt lat="45.9234" lon="4.68552">
        <ele>385</ele>
        <time>2018-03-22T15:47:49Z</time>
      </trkpt>
      <trkpt lat="45.92344" lon="4.68555">
        <ele>385</ele>
        <time>2018-03-22T15:47:50Z</time>
      </trkpt>
      <trkpt lat="45.92349" lon="4.68558">
        <ele>385</ele>
        <time>2018-03-22T15:47:51Z</time>
      </trkpt>
      <trkpt lat="45.92353" lon="4.68561">
        <ele>385</ele>
        <time>2018-03-22T15:47:52Z</time>
      </trkpt>
      <trkpt lat="45.92357" lon="4.68564">
        <ele>385</ele>
        <time>2018-03-22T15:47:53Z</time>
      </trkpt>
      <trkpt lat="45.92361" lon="4.68567">
        <ele>385</ele>
        <time>2018-03-22T15:47:54Z</time>
      </trkpt>
      <trkpt lat="45.92366" lon="4.6857">
        <ele>385</ele>
        <time>2018-03-22T15:47:55Z</time>
      </trkpt>
      <trkpt lat="45.92371" lon="4.68572">
        <ele>384</ele>
        <time>2018-03-22T15:47:56Z</time>
      </trkpt>
      <trkpt lat="45.92376" lon="4.68575">
        <ele>384</ele>
        <time>2018-03-22T15:47:57Z</time>
      </trkpt>
      <trkpt lat="45.92381" lon="4.68578">
        <ele>384</ele>
        <time>2018-03-22T15:47:58Z</time>
      </trkpt>
      <trkpt lat="45.92385" lon="4.68582">
        <ele>383</ele>
        <time>2018-03-22T15:47:59Z</time>
      </trkpt>
      <trkpt lat="45.9239" lon="4.68585">
        <ele>386</ele>
        <time>2018-03-22T15:48:00Z</time>
      </trkpt>
      <trkpt lat="45.92396" lon="4.68587">
        <ele>386</ele>
        <time>2018-03-22T15:48:01Z</time>
      </trkpt>
      <trkpt lat="45.924" lon="4.6859">
        <ele>385</ele>
        <time>2018-03-22T15:48:02Z</time>
      </trkpt>
      <trkpt lat="45.92405" lon="4.68592">
        <ele>385</ele>
        <time>2018-03-22T15:48:03Z</time>
      </trkpt>
      <trkpt lat="45.92409" lon="4.68594">
        <ele>385</ele>
        <time>2018-03-22T15:48:04Z</time>
      </trkpt>
      <trkpt lat="45.92415" lon="4.68597">
        <ele>385</ele>
        <time>2018-03-22T15:48:05Z</time>
      </trkpt>
      <trkpt lat="45.9242" lon="4.68599">
        <ele>381</ele>
        <time>2018-03-22T15:48:06Z</time>
      </trkpt>
      <trkpt lat="45.92424" lon="4.68602">
        <ele>381</ele>
        <time>2018-03-22T15:48:07Z</time>
      </trkpt>
      <trkpt lat="45.92428" lon="4.68605">
        <ele>381</ele>
        <time>2018-03-22T15:48:08Z</time>
      </trkpt>
      <trkpt lat="45.92434" lon="4.68608">
        <ele>381</ele>
        <time>2018-03-22T15:48:09Z</time>
      </trkpt>
      <trkpt lat="45.92439" lon="4.68611">
        <ele>381</ele>
        <time>2018-03-22T15:48:10Z</time>
      </trkpt>
      <trkpt lat="45.92444" lon="4.68614">
        <ele>380</ele>
        <time>2018-03-22T15:48:11Z</time>
      </trkpt>
      <trkpt lat="45.92449" lon="4.68618">
        <ele>380</ele>
        <time>2018-03-22T15:48:12Z</time>
      </trkpt>
      <trkpt lat="45.92454" lon="4.68621">
        <ele>380</ele>
        <time>2018-03-22T15:48:13Z</time>
      </trkpt>
      <trkpt lat="45.92459" lon="4.68625">
        <ele>380</ele>
        <time>2018-03-22T15:48:14Z</time>
      </trkpt>
      <trkpt lat="45.92465" lon="4.68628">
        <ele>380</ele>
        <time>2018-03-22T15:48:15Z</time>
      </trkpt>
      <trkpt lat="45.92471" lon="4.6863">
        <ele>380</ele>
        <time>2018-03-22T15:48:16Z</time>
      </trkpt>
      <trkpt lat="45.92478" lon="4.68632">
        <ele>379</ele>
        <time>2018-03-22T15:48:17Z</time>
      </trkpt>
      <trkpt lat="45.92485" lon="4.68634">
        <ele>379</ele>
        <time>2018-03-22T15:48:18Z</time>
      </trkpt>
      <trkpt lat="45.92492" lon="4.68636">
        <ele>379</ele>
        <time>2018-03-22T15:48:19Z</time>
      </trkpt>
      <trkpt lat="45.92498" lon="4.68638">
        <ele>379</ele>
        <time>2018-03-22T15:48:20Z</time>
      </trkpt>
      <trkpt lat="45.92505" lon="4.6864">
        <ele>375</ele>
        <time>2018-03-22T15:48:21Z</time>
      </trkpt>
      <trkpt lat="45.92512" lon="4.68642">
        <ele>375</ele>
        <time>2018-03-22T15:48:22Z</time>
      </trkpt>
      <trkpt lat="45.9252" lon="4.68643">
        <ele>375</ele>
        <time>2018-03-22T15:48:23Z</time>
      </trkpt>
      <trkpt lat="45.92526" lon="4.68645">
        <ele>375</ele>
        <time>2018-03-22T15:48:24Z</time>
      </trkpt>
      <trkpt lat="45.92532" lon="4.68646">
        <ele>375</ele>
        <time>2018-03-22T15:48:25Z</time>
      </trkpt>
      <trkpt lat="45.92539" lon="4.68647">
        <ele>374</ele>
        <time>2018-03-22T15:48:26Z</time>
      </trkpt>
      <trkpt lat="45.92544" lon="4.68647">
        <ele>374</ele>
        <time>2018-03-22T15:48:27Z</time>
      </trkpt>
      <trkpt lat="45.9255" lon="4.68648">
        <ele>374</ele>
        <time>2018-03-22T15:48:28Z</time>
      </trkpt>
      <trkpt lat="45.92559" lon="4.68649">
        <ele>374</ele>
        <time>2018-03-22T15:48:30Z</time>
      </trkpt>
      <trkpt lat="45.92564" lon="4.68647">
        <ele>374</ele>
        <time>2018-03-22T15:48:31Z</time>
      </trkpt>
      <trkpt lat="45.9257" lon="4.68645">
        <ele>374</ele>
        <time>2018-03-22T15:48:32Z</time>
      </trkpt>
      <trkpt lat="45.92574" lon="4.68642">
        <ele>374</ele>
        <time>2018-03-22T15:48:33Z</time>
      </trkpt>
      <trkpt lat="45.92579" lon="4.68641">
        <ele>373</ele>
        <time>2018-03-22T15:48:34Z</time>
      </trkpt>
      <trkpt lat="45.92584" lon="4.68639">
        <ele>370</ele>
        <time>2018-03-22T15:48:35Z</time>
      </trkpt>
      <trkpt lat="45.92592" lon="4.68634">
        <ele>370</ele>
        <time>2018-03-22T15:48:37Z</time>
      </trkpt>
      <trkpt lat="45.92594" lon="4.68633">
        <ele>370</ele>
        <time>2018-03-22T15:48:38Z</time>
      </trkpt>
      <trkpt lat="45.92599" lon="4.68631">
        <ele>369</ele>
        <time>2018-03-22T15:48:40Z</time>
      </trkpt>
      <trkpt lat="45.92609" lon="4.68628">
        <ele>369</ele>
        <time>2018-03-22T15:48:41Z</time>
      </trkpt>
      <trkpt lat="45.92614" lon="4.68625">
        <ele>369</ele>
        <time>2018-03-22T15:48:42Z</time>
      </trkpt>
      <trkpt lat="45.92619" lon="4.68623">
        <ele>369</ele>
        <time>2018-03-22T15:48:43Z</time>
      </trkpt>
      <trkpt lat="45.92627" lon="4.6862">
        <ele>368</ele>
        <time>2018-03-22T15:48:45Z</time>
      </trkpt>
      <trkpt lat="45.92631" lon="4.68619">
        <ele>368</ele>
        <time>2018-03-22T15:48:46Z</time>
      </trkpt>
      <trkpt lat="45.92636" lon="4.68617">
        <ele>368</ele>
        <time>2018-03-22T15:48:47Z</time>
      </trkpt>
      <trkpt lat="45.9264" lon="4.68615">
        <ele>368</ele>
        <time>2018-03-22T15:48:48Z</time>
      </trkpt>
      <trkpt lat="45.92645" lon="4.68613">
        <ele>367</ele>
        <time>2018-03-22T15:48:49Z</time>
      </trkpt>
      <trkpt lat="45.92649" lon="4.6861">
        <ele>367</ele>
        <time>2018-03-22T15:48:50Z</time>
      </trkpt>
      <trkpt lat="45.92655" lon="4.68608">
        <ele>367</ele>
        <time>2018-03-22T15:48:51Z</time>
      </trkpt>
      <trkpt lat="45.92658" lon="4.68606">
        <ele>367</ele>
        <time>2018-03-22T15:48:52Z</time>
      </trkpt>
      <trkpt lat="45.92662" lon="4.68605">
        <ele>367</ele>
        <time>2018-03-22T15:48:53Z</time>
      </trkpt>
      <trkpt lat="45.92667" lon="4.68602">
        <ele>364</ele>
        <time>2018-03-22T15:48:54Z</time>
      </trkpt>
      <trkpt lat="45.92672" lon="4.686">
        <ele>364</ele>
        <time>2018-03-22T15:48:55Z</time>
      </trkpt>
      <trkpt lat="45.92676" lon="4.68598">
        <ele>364</ele>
        <time>2018-03-22T15:48:56Z</time>
      </trkpt>
      <trkpt lat="45.92685" lon="4.68594">
        <ele>364</ele>
        <time>2018-03-22T15:48:58Z</time>
      </trkpt>
      <trkpt lat="45.92689" lon="4.68593">
        <ele>364</ele>
        <time>2018-03-22T15:48:59Z</time>
      </trkpt>
      <trkpt lat="45.92697" lon="4.6859">
        <ele>364</ele>
        <time>2018-03-22T15:49:01Z</time>
      </trkpt>
      <trkpt lat="45.92702" lon="4.68589">
        <ele>364</ele>
        <time>2018-03-22T15:49:02Z</time>
      </trkpt>
      <trkpt lat="45.92707" lon="4.68586">
        <ele>364</ele>
        <time>2018-03-22T15:49:03Z</time>
      </trkpt>
      <trkpt lat="45.92712" lon="4.68583">
        <ele>364</ele>
        <time>2018-03-22T15:49:04Z</time>
      </trkpt>
      <trkpt lat="45.92717" lon="4.68581">
        <ele>366</ele>
        <time>2018-03-22T15:49:05Z</time>
      </trkpt>
      <trkpt lat="45.92722" lon="4.68579">
        <ele>366</ele>
        <time>2018-03-22T15:49:06Z</time>
      </trkpt>
      <trkpt lat="45.92727" lon="4.68577">
        <ele>366</ele>
        <time>2018-03-22T15:49:07Z</time>
      </trkpt>
      <trkpt lat="45.92731" lon="4.68575">
        <ele>366</ele>
        <time>2018-03-22T15:49:08Z</time>
      </trkpt>
      <trkpt lat="45.92737" lon="4.68573">
        <ele>366</ele>
        <time>2018-03-22T15:49:09Z</time>
      </trkpt>
      <trkpt lat="45.92741" lon="4.68572">
        <ele>366</ele>
        <time>2018-03-22T15:49:10Z</time>
      </trkpt>
      <trkpt lat="45.92746" lon="4.6857">
        <ele>366</ele>
        <time>2018-03-22T15:49:11Z</time>
      </trkpt>
      <trkpt lat="45.92751" lon="4.6857">
        <ele>366</ele>
        <time>2018-03-22T15:49:12Z</time>
      </trkpt>
      <trkpt lat="45.92756" lon="4.6857">
        <ele>366</ele>
        <time>2018-03-22T15:49:13Z</time>
      </trkpt>
      <trkpt lat="45.92762" lon="4.6857">
        <ele>365</ele>
        <time>2018-03-22T15:49:14Z</time>
      </trkpt>
      <trkpt lat="45.92768" lon="4.6857">
        <ele>365</ele>
        <time>2018-03-22T15:49:15Z</time>
      </trkpt>
      <trkpt lat="45.92773" lon="4.6857">
        <ele>365</ele>
        <time>2018-03-22T15:49:16Z</time>
      </trkpt>
      <trkpt lat="45.92779" lon="4.6857">
        <ele>365</ele>
        <time>2018-03-22T15:49:17Z</time>
      </trkpt>
      <trkpt lat="45.92785" lon="4.68572">
        <ele>365</ele>
        <time>2018-03-22T15:49:18Z</time>
      </trkpt>
      <trkpt lat="45.92791" lon="4.68573">
        <ele>364</ele>
        <time>2018-03-22T15:49:19Z</time>
      </trkpt>
      <trkpt lat="45.92797" lon="4.68574">
        <ele>364</ele>
        <time>2018-03-22T15:49:20Z</time>
      </trkpt>
      <trkpt lat="45.92804" lon="4.68574">
        <ele>364</ele>
        <time>2018-03-22T15:49:21Z</time>
      </trkpt>
      <trkpt lat="45.92811" lon="4.68575">
        <ele>363</ele>
        <time>2018-03-22T15:49:22Z</time>
      </trkpt>
      <trkpt lat="45.92817" lon="4.68576">
        <ele>363</ele>
        <time>2018-03-22T15:49:23Z</time>
      </trkpt>
      <trkpt lat="45.92822" lon="4.68577">
        <ele>362</ele>
        <time>2018-03-22T15:49:24Z</time>
      </trkpt>
      <trkpt lat="45.9283" lon="4.68579">
        <ele>362</ele>
        <time>2018-03-22T15:49:25Z</time>
      </trkpt>
      <trkpt lat="45.92836" lon="4.6858">
        <ele>361</ele>
        <time>2018-03-22T15:49:26Z</time>
      </trkpt>
      <trkpt lat="45.92843" lon="4.68581">
        <ele>361</ele>
        <time>2018-03-22T15:49:27Z</time>
      </trkpt>
      <trkpt lat="45.92849" lon="4.68583">
        <ele>361</ele>
        <time>2018-03-22T15:49:28Z</time>
      </trkpt>
      <trkpt lat="45.92855" lon="4.68584">
        <ele>359</ele>
        <time>2018-03-22T15:49:29Z</time>
      </trkpt>
      <trkpt lat="45.92862" lon="4.68585">
        <ele>359</ele>
        <time>2018-03-22T15:49:30Z</time>
      </trkpt>
      <trkpt lat="45.92869" lon="4.68586">
        <ele>359</ele>
        <time>2018-03-22T15:49:31Z</time>
      </trkpt>
      <trkpt lat="45.92875" lon="4.68588">
        <ele>359</ele>
        <time>2018-03-22T15:49:32Z</time>
      </trkpt>
      <trkpt lat="45.9288" lon="4.68589">
        <ele>358</ele>
        <time>2018-03-22T15:49:33Z</time>
      </trkpt>
      <trkpt lat="45.92887" lon="4.68589">
        <ele>358</ele>
        <time>2018-03-22T15:49:34Z</time>
      </trkpt>
      <trkpt lat="45.92892" lon="4.6859">
        <ele>358</ele>
        <time>2018-03-22T15:49:35Z</time>
      </trkpt>
      <trkpt lat="45.92899" lon="4.6859">
        <ele>358</ele>
        <time>2018-03-22T15:49:36Z</time>
      </trkpt>
      <trkpt lat="45.92905" lon="4.68592">
        <ele>359</ele>
        <time>2018-03-22T15:49:37Z</time>
      </trkpt>
      <trkpt lat="45.92912" lon="4.68593">
        <ele>359</ele>
        <time>2018-03-22T15:49:38Z</time>
      </trkpt>
      <trkpt lat="45.92919" lon="4.68594">
        <ele>359</ele>
        <time>2018-03-22T15:49:39Z</time>
      </trkpt>
      <trkpt lat="45.92926" lon="4.68595">
        <ele>359</ele>
        <time>2018-03-22T15:49:40Z</time>
      </trkpt>
      <trkpt lat="45.92932" lon="4.68595">
        <ele>359</ele>
        <time>2018-03-22T15:49:41Z</time>
      </trkpt>
      <trkpt lat="45.92938" lon="4.68597">
        <ele>358</ele>
        <time>2018-03-22T15:49:42Z</time>
      </trkpt>
      <trkpt lat="45.92945" lon="4.68598">
        <ele>358</ele>
        <time>2018-03-22T15:49:43Z</time>
      </trkpt>
      <trkpt lat="45.92951" lon="4.68599">
        <ele>358</ele>
        <time>2018-03-22T15:49:44Z</time>
      </trkpt>
      <trkpt lat="45.92958" lon="4.68601">
        <ele>358</ele>
        <time>2018-03-22T15:49:45Z</time>
      </trkpt>
      <trkpt lat="45.92964" lon="4.68603">
        <ele>358</ele>
        <time>2018-03-22T15:49:46Z</time>
      </trkpt>
      <trkpt lat="45.92971" lon="4.68604">
        <ele>358</ele>
        <time>2018-03-22T15:49:47Z</time>
      </trkpt>
      <trkpt lat="45.92978" lon="4.68605">
        <ele>358</ele>
        <time>2018-03-22T15:49:48Z</time>
      </trkpt>
      <trkpt lat="45.92985" lon="4.68606">
        <ele>358</ele>
        <time>2018-03-22T15:49:49Z</time>
      </trkpt>
      <trkpt lat="45.92992" lon="4.68608">
        <ele>358</ele>
        <time>2018-03-22T15:49:50Z</time>
      </trkpt>
      <trkpt lat="45.93" lon="4.68609">
        <ele>358</ele>
        <time>2018-03-22T15:49:51Z</time>
      </trkpt>
      <trkpt lat="45.93007" lon="4.6861">
        <ele>356</ele>
        <time>2018-03-22T15:49:52Z</time>
      </trkpt>
      <trkpt lat="45.93014" lon="4.68612">
        <ele>356</ele>
        <time>2018-03-22T15:49:53Z</time>
      </trkpt>
      <trkpt lat="45.9302" lon="4.68615">
        <ele>356</ele>
        <time>2018-03-22T15:49:54Z</time>
      </trkpt>
      <trkpt lat="45.93027" lon="4.68617">
        <ele>355</ele>
        <time>2018-03-22T15:49:55Z</time>
      </trkpt>
      <trkpt lat="45.93034" lon="4.68619">
        <ele>355</ele>
        <time>2018-03-22T15:49:56Z</time>
      </trkpt>
      <trkpt lat="45.93042" lon="4.6862">
        <ele>355</ele>
        <time>2018-03-22T15:49:57Z</time>
      </trkpt>
      <trkpt lat="45.93048" lon="4.68622">
        <ele>355</ele>
        <time>2018-03-22T15:49:58Z</time>
      </trkpt>
      <trkpt lat="45.93055" lon="4.68624">
        <ele>354</ele>
        <time>2018-03-22T15:49:59Z</time>
      </trkpt>
      <trkpt lat="45.93062" lon="4.68626">
        <ele>354</ele>
        <time>2018-03-22T15:50:00Z</time>
      </trkpt>
      <trkpt lat="45.93068" lon="4.68627">
        <ele>354</ele>
        <time>2018-03-22T15:50:01Z</time>
      </trkpt>
      <trkpt lat="45.93076" lon="4.68628">
        <ele>354</ele>
        <time>2018-03-22T15:50:02Z</time>
      </trkpt>
      <trkpt lat="45.93084" lon="4.6863">
        <ele>349</ele>
        <time>2018-03-22T15:50:03Z</time>
      </trkpt>
      <trkpt lat="45.93092" lon="4.68631">
        <ele>349</ele>
        <time>2018-03-22T15:50:04Z</time>
      </trkpt>
      <trkpt lat="45.931" lon="4.68633">
        <ele>349</ele>
        <time>2018-03-22T15:50:05Z</time>
      </trkpt>
      <trkpt lat="45.93107" lon="4.68635">
        <ele>348</ele>
        <time>2018-03-22T15:50:06Z</time>
      </trkpt>
      <trkpt lat="45.93115" lon="4.68637">
        <ele>348</ele>
        <time>2018-03-22T15:50:07Z</time>
      </trkpt>
      <trkpt lat="45.93124" lon="4.68639">
        <ele>348</ele>
        <time>2018-03-22T15:50:08Z</time>
      </trkpt>
      <trkpt lat="45.93132" lon="4.68641">
        <ele>348</ele>
        <time>2018-03-22T15:50:09Z</time>
      </trkpt>
      <trkpt lat="45.93141" lon="4.68643">
        <ele>347</ele>
        <time>2018-03-22T15:50:10Z</time>
      </trkpt>
      <trkpt lat="45.9315" lon="4.68645">
        <ele>347</ele>
        <time>2018-03-22T15:50:11Z</time>
      </trkpt>
      <trkpt lat="45.93158" lon="4.68647">
        <ele>347</ele>
        <time>2018-03-22T15:50:12Z</time>
      </trkpt>
      <trkpt lat="45.93165" lon="4.6865">
        <ele>347</ele>
        <time>2018-03-22T15:50:13Z</time>
      </trkpt>
      <trkpt lat="45.93174" lon="4.68652">
        <ele>345</ele>
        <time>2018-03-22T15:50:14Z</time>
      </trkpt>
      <trkpt lat="45.93182" lon="4.68654">
        <ele>345</ele>
        <time>2018-03-22T15:50:15Z</time>
      </trkpt>
      <trkpt lat="45.9319" lon="4.68656">
        <ele>345</ele>
        <time>2018-03-22T15:50:16Z</time>
      </trkpt>
      <trkpt lat="45.93198" lon="4.68658">
        <ele>345</ele>
        <time>2018-03-22T15:50:17Z</time>
      </trkpt>
      <trkpt lat="45.93206" lon="4.6866">
        <ele>344</ele>
        <time>2018-03-22T15:50:18Z</time>
      </trkpt>
      <trkpt lat="45.93214" lon="4.68662">
        <ele>344</ele>
        <time>2018-03-22T15:50:19Z</time>
      </trkpt>
      <trkpt lat="45.93222" lon="4.68663">
        <ele>344</ele>
        <time>2018-03-22T15:50:20Z</time>
      </trkpt>
      <trkpt lat="45.9323" lon="4.68664">
        <ele>344</ele>
        <time>2018-03-22T15:50:21Z</time>
      </trkpt>
      <trkpt lat="45.93237" lon="4.68666">
        <ele>344</ele>
        <time>2018-03-22T15:50:22Z</time>
      </trkpt>
      <trkpt lat="45.93245" lon="4.68669">
        <ele>344</ele>
        <time>2018-03-22T15:50:23Z</time>
      </trkpt>
      <trkpt lat="45.93252" lon="4.68671">
        <ele>344</ele>
        <time>2018-03-22T15:50:24Z</time>
      </trkpt>
      <trkpt lat="45.93259" lon="4.68673">
        <ele>344</ele>
        <time>2018-03-22T15:50:25Z</time>
      </trkpt>
      <trkpt lat="45.93266" lon="4.68675">
        <ele>344</ele>
        <time>2018-03-22T15:50:26Z</time>
      </trkpt>
      <trkpt lat="45.93272" lon="4.68676">
        <ele>344</ele>
        <time>2018-03-22T15:50:27Z</time>
      </trkpt>
      <trkpt lat="45.93279" lon="4.68678">
        <ele>344</ele>
        <time>2018-03-22T15:50:28Z</time>
      </trkpt>
      <trkpt lat="45.93286" lon="4.68679">
        <ele>344</ele>
        <time>2018-03-22T15:50:29Z</time>
      </trkpt>
      <trkpt lat="45.93293" lon="4.6868">
        <ele>344</ele>
        <time>2018-03-22T15:50:30Z</time>
      </trkpt>
      <trkpt lat="45.933" lon="4.68682">
        <ele>344</ele>
        <time>2018-03-22T15:50:31Z</time>
      </trkpt>
      <trkpt lat="45.93308" lon="4.68684">
        <ele>344</ele>
        <time>2018-03-22T15:50:32Z</time>
      </trkpt>
      <trkpt lat="45.93316" lon="4.68685">
        <ele>344</ele>
        <time>2018-03-22T15:50:33Z</time>
      </trkpt>
      <trkpt lat="45.93323" lon="4.68687">
        <ele>344</ele>
        <time>2018-03-22T15:50:34Z</time>
      </trkpt>
      <trkpt lat="45.9333" lon="4.68688">
        <ele>344</ele>
        <time>2018-03-22T15:50:35Z</time>
      </trkpt>
      <trkpt lat="45.93337" lon="4.6869">
        <ele>344</ele>
        <time>2018-03-22T15:50:36Z</time>
      </trkpt>
      <trkpt lat="45.93344" lon="4.68692">
        <ele>344</ele>
        <time>2018-03-22T15:50:37Z</time>
      </trkpt>
      <trkpt lat="45.93352" lon="4.68693">
        <ele>344</ele>
        <time>2018-03-22T15:50:38Z</time>
      </trkpt>
      <trkpt lat="45.93358" lon="4.68694">
        <ele>344</ele>
        <time>2018-03-22T15:50:39Z</time>
      </trkpt>
      <trkpt lat="45.93365" lon="4.68695">
        <ele>344</ele>
        <time>2018-03-22T15:50:40Z</time>
      </trkpt>
      <trkpt lat="45.93372" lon="4.68697">
        <ele>344</ele>
        <time>2018-03-22T15:50:41Z</time>
      </trkpt>
      <trkpt lat="45.93378" lon="4.68699">
        <ele>344</ele>
        <time>2018-03-22T15:50:42Z</time>
      </trkpt>
      <trkpt lat="45.93385" lon="4.687">
        <ele>344</ele>
        <time>2018-03-22T15:50:43Z</time>
      </trkpt>
      <trkpt lat="45.93391" lon="4.68702">
        <ele>344</ele>
        <time>2018-03-22T15:50:44Z</time>
      </trkpt>
      <trkpt lat="45.93398" lon="4.68704">
        <ele>344</ele>
        <time>2018-03-22T15:50:45Z</time>
      </trkpt>
      <trkpt lat="45.93404" lon="4.68705">
        <ele>344</ele>
        <time>2018-03-22T15:50:46Z</time>
      </trkpt>
      <trkpt lat="45.93411" lon="4.68707">
        <ele>344</ele>
        <time>2018-03-22T15:50:47Z</time>
      </trkpt>
      <trkpt lat="45.93418" lon="4.68708">
        <ele>343</ele>
        <time>2018-03-22T15:50:48Z</time>
      </trkpt>
      <trkpt lat="45.93424" lon="4.6871">
        <ele>343</ele>
        <time>2018-03-22T15:50:49Z</time>
      </trkpt>
      <trkpt lat="45.93431" lon="4.6871">
        <ele>343</ele>
        <time>2018-03-22T15:50:50Z</time>
      </trkpt>
      <trkpt lat="45.93437" lon="4.68712">
        <ele>343</ele>
        <time>2018-03-22T15:50:51Z</time>
      </trkpt>
      <trkpt lat="45.93443" lon="4.68714">
        <ele>343</ele>
        <time>2018-03-22T15:50:52Z</time>
      </trkpt>
      <trkpt lat="45.93449" lon="4.68715">
        <ele>343</ele>
        <time>2018-03-22T15:50:53Z</time>
      </trkpt>
      <trkpt lat="45.93456" lon="4.68717">
        <ele>342</ele>
        <time>2018-03-22T15:50:54Z</time>
      </trkpt>
      <trkpt lat="45.93462" lon="4.68718">
        <ele>342</ele>
        <time>2018-03-22T15:50:55Z</time>
      </trkpt>
      <trkpt lat="45.93468" lon="4.68719">
        <ele>342</ele>
        <time>2018-03-22T15:50:56Z</time>
      </trkpt>
      <trkpt lat="45.93475" lon="4.68721">
        <ele>342</ele>
        <time>2018-03-22T15:50:57Z</time>
      </trkpt>
      <trkpt lat="45.93481" lon="4.68723">
        <ele>342</ele>
        <time>2018-03-22T15:50:58Z</time>
      </trkpt>
      <trkpt lat="45.93488" lon="4.68725">
        <ele>342</ele>
        <time>2018-03-22T15:50:59Z</time>
      </trkpt>
      <trkpt lat="45.93494" lon="4.68726">
        <ele>342</ele>
        <time>2018-03-22T15:51:00Z</time>
      </trkpt>
      <trkpt lat="45.935" lon="4.68727">
        <ele>342</ele>
        <time>2018-03-22T15:51:01Z</time>
      </trkpt>
      <trkpt lat="45.93506" lon="4.68728">
        <ele>342</ele>
        <time>2018-03-22T15:51:02Z</time>
      </trkpt>
      <trkpt lat="45.93512" lon="4.68729">
        <ele>342</ele>
        <time>2018-03-22T15:51:03Z</time>
      </trkpt>
      <trkpt lat="45.93517" lon="4.6873">
        <ele>342</ele>
        <time>2018-03-22T15:51:04Z</time>
      </trkpt>
      <trkpt lat="45.93523" lon="4.68732">
        <ele>342</ele>
        <time>2018-03-22T15:51:05Z</time>
      </trkpt>
      <trkpt lat="45.93529" lon="4.68733">
        <ele>342</ele>
        <time>2018-03-22T15:51:06Z</time>
      </trkpt>
      <trkpt lat="45.93534" lon="4.68734">
        <ele>342</ele>
        <time>2018-03-22T15:51:07Z</time>
      </trkpt>
      <trkpt lat="45.9354" lon="4.68735">
        <ele>342</ele>
        <time>2018-03-22T15:51:08Z</time>
      </trkpt>
      <trkpt lat="45.93545" lon="4.68737">
        <ele>342</ele>
        <time>2018-03-22T15:51:09Z</time>
      </trkpt>
      <trkpt lat="45.9355" lon="4.68738">
        <ele>342</ele>
        <time>2018-03-22T15:51:10Z</time>
      </trkpt>
      <trkpt lat="45.93555" lon="4.68739">
        <ele>342</ele>
        <time>2018-03-22T15:51:11Z</time>
      </trkpt>
      <trkpt lat="45.93561" lon="4.68741">
        <ele>342</ele>
        <time>2018-03-22T15:51:12Z</time>
      </trkpt>
      <trkpt lat="45.93566" lon="4.68742">
        <ele>343</ele>
        <time>2018-03-22T15:51:13Z</time>
      </trkpt>
      <trkpt lat="45.93571" lon="4.68744">
        <ele>343</ele>
        <time>2018-03-22T15:51:14Z</time>
      </trkpt>
      <trkpt lat="45.93577" lon="4.68745">
        <ele>343</ele>
        <time>2018-03-22T15:51:15Z</time>
      </trkpt>
      <trkpt lat="45.93583" lon="4.68747">
        <ele>344</ele>
        <time>2018-03-22T15:51:16Z</time>
      </trkpt>
      <trkpt lat="45.93588" lon="4.68748">
        <ele>343</ele>
        <time>2018-03-22T15:51:17Z</time>
      </trkpt>
      <trkpt lat="45.93594" lon="4.6875">
        <ele>343</ele>
        <time>2018-03-22T15:51:18Z</time>
      </trkpt>
      <trkpt lat="45.93599" lon="4.68751">
        <ele>344</ele>
        <time>2018-03-22T15:51:19Z</time>
      </trkpt>
      <trkpt lat="45.93604" lon="4.68752">
        <ele>344</ele>
        <time>2018-03-22T15:51:20Z</time>
      </trkpt>
      <trkpt lat="45.9361" lon="4.68754">
        <ele>344</ele>
        <time>2018-03-22T15:51:21Z</time>
      </trkpt>
      <trkpt lat="45.93615" lon="4.68755">
        <ele>343</ele>
        <time>2018-03-22T15:51:22Z</time>
      </trkpt>
      <trkpt lat="45.9362" lon="4.68756">
        <ele>343</ele>
        <time>2018-03-22T15:51:23Z</time>
      </trkpt>
      <trkpt lat="45.93625" lon="4.68757">
        <ele>343</ele>
        <time>2018-03-22T15:51:24Z</time>
      </trkpt>
      <trkpt lat="45.9363" lon="4.68759">
        <ele>343</ele>
        <time>2018-03-22T15:51:25Z</time>
      </trkpt>
      <trkpt lat="45.93634" lon="4.68761">
        <ele>343</ele>
        <time>2018-03-22T15:51:26Z</time>
      </trkpt>
      <trkpt lat="45.93639" lon="4.68764">
        <ele>343</ele>
        <time>2018-03-22T15:51:27Z</time>
      </trkpt>
      <trkpt lat="45.93643" lon="4.68767">
        <ele>343</ele>
        <time>2018-03-22T15:51:28Z</time>
      </trkpt>
      <trkpt lat="45.93648" lon="4.6877">
        <ele>343</ele>
        <time>2018-03-22T15:51:29Z</time>
      </trkpt>
      <trkpt lat="45.93653" lon="4.68771">
        <ele>343</ele>
        <time>2018-03-22T15:51:30Z</time>
      </trkpt>
      <trkpt lat="45.93658" lon="4.68771">
        <ele>343</ele>
        <time>2018-03-22T15:51:31Z</time>
      </trkpt>
      <trkpt lat="45.93663" lon="4.68771">
        <ele>343</ele>
        <time>2018-03-22T15:51:32Z</time>
      </trkpt>
      <trkpt lat="45.93668" lon="4.68771">
        <ele>342</ele>
        <time>2018-03-22T15:51:33Z</time>
      </trkpt>
      <trkpt lat="45.93673" lon="4.68772">
        <ele>342</ele>
        <time>2018-03-22T15:51:34Z</time>
      </trkpt>
      <trkpt lat="45.93682" lon="4.68774">
        <ele>342</ele>
        <time>2018-03-22T15:51:36Z</time>
      </trkpt>
      <trkpt lat="45.93687" lon="4.68776">
        <ele>342</ele>
        <time>2018-03-22T15:51:37Z</time>
      </trkpt>
      <trkpt lat="45.93692" lon="4.68777">
        <ele>342</ele>
        <time>2018-03-22T15:51:38Z</time>
      </trkpt>
      <trkpt lat="45.93697" lon="4.68779">
        <ele>342</ele>
        <time>2018-03-22T15:51:39Z</time>
      </trkpt>
      <trkpt lat="45.93702" lon="4.6878">
        <ele>342</ele>
        <time>2018-03-22T15:51:40Z</time>
      </trkpt>
      <trkpt lat="45.93707" lon="4.68782">
        <ele>342</ele>
        <time>2018-03-22T15:51:41Z</time>
      </trkpt>
      <trkpt lat="45.93712" lon="4.68783">
        <ele>342</ele>
        <time>2018-03-22T15:51:42Z</time>
      </trkpt>
      <trkpt lat="45.93717" lon="4.68785">
        <ele>342</ele>
        <time>2018-03-22T15:51:43Z</time>
      </trkpt>
      <trkpt lat="45.93722" lon="4.68786">
        <ele>342</ele>
        <time>2018-03-22T15:51:44Z</time>
      </trkpt>
      <trkpt lat="45.93728" lon="4.68786">
        <ele>342</ele>
        <time>2018-03-22T15:51:45Z</time>
      </trkpt>
      <trkpt lat="45.93733" lon="4.68787">
        <ele>342</ele>
        <time>2018-03-22T15:51:46Z</time>
      </trkpt>
      <trkpt lat="45.93738" lon="4.68789">
        <ele>342</ele>
        <time>2018-03-22T15:51:47Z</time>
      </trkpt>
      <trkpt lat="45.93744" lon="4.6879">
        <ele>342</ele>
        <time>2018-03-22T15:51:48Z</time>
      </trkpt>
      <trkpt lat="45.93748" lon="4.68792">
        <ele>342</ele>
        <time>2018-03-22T15:51:49Z</time>
      </trkpt>
      <trkpt lat="45.93753" lon="4.68794">
        <ele>341</ele>
        <time>2018-03-22T15:51:50Z</time>
      </trkpt>
      <trkpt lat="45.93759" lon="4.68795">
        <ele>341</ele>
        <time>2018-03-22T15:51:51Z</time>
      </trkpt>
      <trkpt lat="45.93765" lon="4.68797">
        <ele>341</ele>
        <time>2018-03-22T15:51:52Z</time>
      </trkpt>
      <trkpt lat="45.9377" lon="4.68799">
        <ele>341</ele>
        <time>2018-03-22T15:51:53Z</time>
      </trkpt>
      <trkpt lat="45.93776" lon="4.68801">
        <ele>341</ele>
        <time>2018-03-22T15:51:54Z</time>
      </trkpt>
      <trkpt lat="45.93781" lon="4.68803">
        <ele>341</ele>
        <time>2018-03-22T15:51:55Z</time>
      </trkpt>
      <trkpt lat="45.93787" lon="4.68805">
        <ele>341</ele>
        <time>2018-03-22T15:51:56Z</time>
      </trkpt>
      <trkpt lat="45.93793" lon="4.68808">
        <ele>341</ele>
        <time>2018-03-22T15:51:57Z</time>
      </trkpt>
      <trkpt lat="45.93799" lon="4.68812">
        <ele>341</ele>
        <time>2018-03-22T15:51:58Z</time>
      </trkpt>
      <trkpt lat="45.93804" lon="4.68816">
        <ele>341</ele>
        <time>2018-03-22T15:51:59Z</time>
      </trkpt>
      <trkpt lat="45.93809" lon="4.6882">
        <ele>341</ele>
        <time>2018-03-22T15:52:00Z</time>
      </trkpt>
      <trkpt lat="45.93814" lon="4.68823">
        <ele>341</ele>
        <time>2018-03-22T15:52:01Z</time>
      </trkpt>
      <trkpt lat="45.9382" lon="4.68827">
        <ele>341</ele>
        <time>2018-03-22T15:52:02Z</time>
      </trkpt>
      <trkpt lat="45.93826" lon="4.68832">
        <ele>342</ele>
        <time>2018-03-22T15:52:03Z</time>
      </trkpt>
      <trkpt lat="45.93832" lon="4.68835">
        <ele>342</ele>
        <time>2018-03-22T15:52:04Z</time>
      </trkpt>
      <trkpt lat="45.93837" lon="4.68838">
        <ele>342</ele>
        <time>2018-03-22T15:52:05Z</time>
      </trkpt>
      <trkpt lat="45.93842" lon="4.68841">
        <ele>342</ele>
        <time>2018-03-22T15:52:06Z</time>
      </trkpt>
      <trkpt lat="45.93846" lon="4.68845">
        <ele>342</ele>
        <time>2018-03-22T15:52:07Z</time>
      </trkpt>
      <trkpt lat="45.93851" lon="4.68849">
        <ele>342</ele>
        <time>2018-03-22T15:52:08Z</time>
      </trkpt>
      <trkpt lat="45.93856" lon="4.68852">
        <ele>342</ele>
        <time>2018-03-22T15:52:09Z</time>
      </trkpt>
      <trkpt lat="45.93861" lon="4.68855">
        <ele>342</ele>
        <time>2018-03-22T15:52:10Z</time>
      </trkpt>
      <trkpt lat="45.93866" lon="4.68859">
        <ele>342</ele>
        <time>2018-03-22T15:52:11Z</time>
      </trkpt>
      <trkpt lat="45.9387" lon="4.68863">
        <ele>342</ele>
        <time>2018-03-22T15:52:12Z</time>
      </trkpt>
      <trkpt lat="45.93875" lon="4.68867">
        <ele>342</ele>
        <time>2018-03-22T15:52:13Z</time>
      </trkpt>
      <trkpt lat="45.93879" lon="4.6887">
        <ele>343</ele>
        <time>2018-03-22T15:52:14Z</time>
      </trkpt>
      <trkpt lat="45.93884" lon="4.68873">
        <ele>343</ele>
        <time>2018-03-22T15:52:15Z</time>
      </trkpt>
      <trkpt lat="45.93889" lon="4.68876">
        <ele>342</ele>
        <time>2018-03-22T15:52:16Z</time>
      </trkpt>
      <trkpt lat="45.93894" lon="4.68879">
        <ele>342</ele>
        <time>2018-03-22T15:52:17Z</time>
      </trkpt>
      <trkpt lat="45.93898" lon="4.68882">
        <ele>342</ele>
        <time>2018-03-22T15:52:18Z</time>
      </trkpt>
      <trkpt lat="45.93903" lon="4.68884">
        <ele>342</ele>
        <time>2018-03-22T15:52:19Z</time>
      </trkpt>
      <trkpt lat="45.93908" lon="4.68886">
        <ele>342</ele>
        <time>2018-03-22T15:52:20Z</time>
      </trkpt>
      <trkpt lat="45.93913" lon="4.68887">
        <ele>342</ele>
        <time>2018-03-22T15:52:21Z</time>
      </trkpt>
      <trkpt lat="45.93918" lon="4.68888">
        <ele>342</ele>
        <time>2018-03-22T15:52:22Z</time>
      </trkpt>
      <trkpt lat="45.93923" lon="4.68888">
        <ele>342</ele>
        <time>2018-03-22T15:52:23Z</time>
      </trkpt>
      <trkpt lat="45.93931" lon="4.68889">
        <ele>342</ele>
        <time>2018-03-22T15:52:25Z</time>
      </trkpt>
      <trkpt lat="45.93935" lon="4.6889">
        <ele>342</ele>
        <time>2018-03-22T15:52:26Z</time>
      </trkpt>
      <trkpt lat="45.9394" lon="4.68892">
        <ele>342</ele>
        <time>2018-03-22T15:52:27Z</time>
      </trkpt>
      <trkpt lat="45.93945" lon="4.68894">
        <ele>342</ele>
        <time>2018-03-22T15:52:28Z</time>
      </trkpt>
      <trkpt lat="45.93953" lon="4.68897">
        <ele>342</ele>
        <time>2018-03-22T15:52:30Z</time>
      </trkpt>
      <trkpt lat="45.93957" lon="4.68899">
        <ele>342</ele>
        <time>2018-03-22T15:52:31Z</time>
      </trkpt>
      <trkpt lat="45.93961" lon="4.689">
        <ele>342</ele>
        <time>2018-03-22T15:52:32Z</time>
      </trkpt>
      <trkpt lat="45.93966" lon="4.68902">
        <ele>342</ele>
        <time>2018-03-22T15:52:33Z</time>
      </trkpt>
      <trkpt lat="45.9397" lon="4.68903">
        <ele>342</ele>
        <time>2018-03-22T15:52:34Z</time>
      </trkpt>
      <trkpt lat="45.93976" lon="4.68905">
        <ele>342</ele>
        <time>2018-03-22T15:52:35Z</time>
      </trkpt>
      <trkpt lat="45.9398" lon="4.68907">
        <ele>342</ele>
        <time>2018-03-22T15:52:36Z</time>
      </trkpt>
      <trkpt lat="45.93985" lon="4.68909">
        <ele>342</ele>
        <time>2018-03-22T15:52:37Z</time>
      </trkpt>
      <trkpt lat="45.9399" lon="4.68911">
        <ele>342</ele>
        <time>2018-03-22T15:52:38Z</time>
      </trkpt>
      <trkpt lat="45.93995" lon="4.68913">
        <ele>342</ele>
        <time>2018-03-22T15:52:39Z</time>
      </trkpt>
      <trkpt lat="45.94" lon="4.68915">
        <ele>342</ele>
        <time>2018-03-22T15:52:40Z</time>
      </trkpt>
      <trkpt lat="45.94005" lon="4.68917">
        <ele>342</ele>
        <time>2018-03-22T15:52:41Z</time>
      </trkpt>
      <trkpt lat="45.94009" lon="4.68918">
        <ele>342</ele>
        <time>2018-03-22T15:52:42Z</time>
      </trkpt>
      <trkpt lat="45.94014" lon="4.68919">
        <ele>342</ele>
        <time>2018-03-22T15:52:43Z</time>
      </trkpt>
      <trkpt lat="45.94019" lon="4.68922">
        <ele>341</ele>
        <time>2018-03-22T15:52:44Z</time>
      </trkpt>
      <trkpt lat="45.94024" lon="4.68924">
        <ele>341</ele>
        <time>2018-03-22T15:52:45Z</time>
      </trkpt>
      <trkpt lat="45.94029" lon="4.68926">
        <ele>341</ele>
        <time>2018-03-22T15:52:46Z</time>
      </trkpt>
      <trkpt lat="45.94034" lon="4.68928">
        <ele>341</ele>
        <time>2018-03-22T15:52:47Z</time>
      </trkpt>
      <trkpt lat="45.94039" lon="4.6893">
        <ele>341</ele>
        <time>2018-03-22T15:52:48Z</time>
      </trkpt>
      <trkpt lat="45.94045" lon="4.68932">
        <ele>341</ele>
        <time>2018-03-22T15:52:49Z</time>
      </trkpt>
      <trkpt lat="45.9405" lon="4.68935">
        <ele>341</ele>
        <time>2018-03-22T15:52:50Z</time>
      </trkpt>
      <trkpt lat="45.94055" lon="4.68939">
        <ele>341</ele>
        <time>2018-03-22T15:52:51Z</time>
      </trkpt>
      <trkpt lat="45.9406" lon="4.68942">
        <ele>341</ele>
        <time>2018-03-22T15:52:52Z</time>
      </trkpt>
      <trkpt lat="45.94065" lon="4.68946">
        <ele>341</ele>
        <time>2018-03-22T15:52:53Z</time>
      </trkpt>
      <trkpt lat="45.94071" lon="4.68948">
        <ele>341</ele>
        <time>2018-03-22T15:52:54Z</time>
      </trkpt>
      <trkpt lat="45.94076" lon="4.6895">
        <ele>341</ele>
        <time>2018-03-22T15:52:55Z</time>
      </trkpt>
      <trkpt lat="45.94082" lon="4.68951">
        <ele>341</ele>
        <time>2018-03-22T15:52:56Z</time>
      </trkpt>
      <trkpt lat="45.94087" lon="4.68951">
        <ele>340</ele>
        <time>2018-03-22T15:52:57Z</time>
      </trkpt>
      <trkpt lat="45.94092" lon="4.68952">
        <ele>340</ele>
        <time>2018-03-22T15:52:58Z</time>
      </trkpt>
      <trkpt lat="45.94097" lon="4.68953">
        <ele>340</ele>
        <time>2018-03-22T15:52:59Z</time>
      </trkpt>
      <trkpt lat="45.94102" lon="4.68954">
        <ele>340</ele>
        <time>2018-03-22T15:53:00Z</time>
      </trkpt>
      <trkpt lat="45.94108" lon="4.68956">
        <ele>340</ele>
        <time>2018-03-22T15:53:01Z</time>
      </trkpt>
      <trkpt lat="45.94112" lon="4.68957">
        <ele>340</ele>
        <time>2018-03-22T15:53:02Z</time>
      </trkpt>
      <trkpt lat="45.94117" lon="4.68959">
        <ele>340</ele>
        <time>2018-03-22T15:53:03Z</time>
      </trkpt>
      <trkpt lat="45.94122" lon="4.6896">
        <ele>340</ele>
        <time>2018-03-22T15:53:04Z</time>
      </trkpt>
      <trkpt lat="45.94128" lon="4.68961">
        <ele>340</ele>
        <time>2018-03-22T15:53:05Z</time>
      </trkpt>
      <trkpt lat="45.94134" lon="4.68962">
        <ele>340</ele>
        <time>2018-03-22T15:53:06Z</time>
      </trkpt>
      <trkpt lat="45.94138" lon="4.68965">
        <ele>340</ele>
        <time>2018-03-22T15:53:07Z</time>
      </trkpt>
      <trkpt lat="45.94144" lon="4.68967">
        <ele>340</ele>
        <time>2018-03-22T15:53:08Z</time>
      </trkpt>
      <trkpt lat="45.94149" lon="4.68969">
        <ele>340</ele>
        <time>2018-03-22T15:53:09Z</time>
      </trkpt>
      <trkpt lat="45.94154" lon="4.68972">
        <ele>340</ele>
        <time>2018-03-22T15:53:10Z</time>
      </trkpt>
      <trkpt lat="45.94159" lon="4.68974">
        <ele>340</ele>
        <time>2018-03-22T15:53:11Z</time>
      </trkpt>
      <trkpt lat="45.94165" lon="4.68975">
        <ele>340</ele>
        <time>2018-03-22T15:53:12Z</time>
      </trkpt>
      <trkpt lat="45.94172" lon="4.68977">
        <ele>339</ele>
        <time>2018-03-22T15:53:13Z</time>
      </trkpt>
      <trkpt lat="45.94177" lon="4.68978">
        <ele>339</ele>
        <time>2018-03-22T15:53:14Z</time>
      </trkpt>
      <trkpt lat="45.94183" lon="4.6898">
        <ele>339</ele>
        <time>2018-03-22T15:53:15Z</time>
      </trkpt>
      <trkpt lat="45.94188" lon="4.68982">
        <ele>338</ele>
        <time>2018-03-22T15:53:16Z</time>
      </trkpt>
      <trkpt lat="45.94194" lon="4.68983">
        <ele>338</ele>
        <time>2018-03-22T15:53:17Z</time>
      </trkpt>
      <trkpt lat="45.942" lon="4.68985">
        <ele>338</ele>
        <time>2018-03-22T15:53:18Z</time>
      </trkpt>
      <trkpt lat="45.94205" lon="4.68987">
        <ele>338</ele>
        <time>2018-03-22T15:53:19Z</time>
      </trkpt>
      <trkpt lat="45.9421" lon="4.68988">
        <ele>338</ele>
        <time>2018-03-22T15:53:20Z</time>
      </trkpt>
      <trkpt lat="45.94215" lon="4.68989">
        <ele>338</ele>
        <time>2018-03-22T15:53:21Z</time>
      </trkpt>
      <trkpt lat="45.94221" lon="4.6899">
        <ele>338</ele>
        <time>2018-03-22T15:53:22Z</time>
      </trkpt>
      <trkpt lat="45.94226" lon="4.68991">
        <ele>338</ele>
        <time>2018-03-22T15:53:23Z</time>
      </trkpt>
      <trkpt lat="45.94231" lon="4.68992">
        <ele>338</ele>
        <time>2018-03-22T15:53:24Z</time>
      </trkpt>
      <trkpt lat="45.94236" lon="4.68993">
        <ele>338</ele>
        <time>2018-03-22T15:53:25Z</time>
      </trkpt>
      <trkpt lat="45.94241" lon="4.68994">
        <ele>338</ele>
        <time>2018-03-22T15:53:26Z</time>
      </trkpt>
      <trkpt lat="45.94245" lon="4.68996">
        <ele>338</ele>
        <time>2018-03-22T15:53:27Z</time>
      </trkpt>
      <trkpt lat="45.94251" lon="4.68997">
        <ele>338</ele>
        <time>2018-03-22T15:53:28Z</time>
      </trkpt>
      <trkpt lat="45.94256" lon="4.68998">
        <ele>338</ele>
        <time>2018-03-22T15:53:29Z</time>
      </trkpt>
      <trkpt lat="45.94261" lon="4.68999">
        <ele>337</ele>
        <time>2018-03-22T15:53:30Z</time>
      </trkpt>
      <trkpt lat="45.94267" lon="4.69001">
        <ele>338</ele>
        <time>2018-03-22T15:53:31Z</time>
      </trkpt>
      <trkpt lat="45.94273" lon="4.69002">
        <ele>337</ele>
        <time>2018-03-22T15:53:32Z</time>
      </trkpt>
      <trkpt lat="45.94277" lon="4.69002">
        <ele>337</ele>
        <time>2018-03-22T15:53:33Z</time>
      </trkpt>
      <trkpt lat="45.94282" lon="4.69003">
        <ele>337</ele>
        <time>2018-03-22T15:53:34Z</time>
      </trkpt>
      <trkpt lat="45.94287" lon="4.69004">
        <ele>337</ele>
        <time>2018-03-22T15:53:35Z</time>
      </trkpt>
      <trkpt lat="45.94292" lon="4.69004">
        <ele>337</ele>
        <time>2018-03-22T15:53:36Z</time>
      </trkpt>
      <trkpt lat="45.94297" lon="4.69006">
        <ele>337</ele>
        <time>2018-03-22T15:53:37Z</time>
      </trkpt>
      <trkpt lat="45.94302" lon="4.69006">
        <ele>337</ele>
        <time>2018-03-22T15:53:38Z</time>
      </trkpt>
      <trkpt lat="45.94306" lon="4.69006">
        <ele>337</ele>
        <time>2018-03-22T15:53:39Z</time>
      </trkpt>
      <trkpt lat="45.94315" lon="4.69008">
        <ele>337</ele>
        <time>2018-03-22T15:53:41Z</time>
      </trkpt>
      <trkpt lat="45.94319" lon="4.69008">
        <ele>337</ele>
        <time>2018-03-22T15:53:42Z</time>
      </trkpt>
      <trkpt lat="45.94327" lon="4.69009">
        <ele>337</ele>
        <time>2018-03-22T15:53:44Z</time>
      </trkpt>
      <trkpt lat="45.94332" lon="4.69009">
        <ele>337</ele>
        <time>2018-03-22T15:53:45Z</time>
      </trkpt>
      <trkpt lat="45.9434" lon="4.69009">
        <ele>337</ele>
        <time>2018-03-22T15:53:47Z</time>
      </trkpt>
      <trkpt lat="45.94344" lon="4.6901">
        <ele>338</ele>
        <time>2018-03-22T15:53:48Z</time>
      </trkpt>
      <trkpt lat="45.94352" lon="4.6901">
        <ele>338</ele>
        <time>2018-03-22T15:53:50Z</time>
      </trkpt>
      <trkpt lat="45.94355" lon="4.6901">
        <ele>338</ele>
        <time>2018-03-22T15:53:51Z</time>
      </trkpt>
      <trkpt lat="45.9436" lon="4.6901">
        <ele>338</ele>
        <time>2018-03-22T15:53:52Z</time>
      </trkpt>
      <trkpt lat="45.94364" lon="4.6901">
        <ele>338</ele>
        <time>2018-03-22T15:53:53Z</time>
      </trkpt>
      <trkpt lat="45.94369" lon="4.6901">
        <ele>338</ele>
        <time>2018-03-22T15:53:54Z</time>
      </trkpt>
      <trkpt lat="45.94373" lon="4.69011">
        <ele>338</ele>
        <time>2018-03-22T15:53:55Z</time>
      </trkpt>
      <trkpt lat="45.94382" lon="4.69011">
        <ele>338</ele>
        <time>2018-03-22T15:53:57Z</time>
      </trkpt>
      <trkpt lat="45.94386" lon="4.69012">
        <ele>338</ele>
        <time>2018-03-22T15:53:58Z</time>
      </trkpt>
      <trkpt lat="45.94395" lon="4.69011">
        <ele>339</ele>
        <time>2018-03-22T15:54:00Z</time>
      </trkpt>
      <trkpt lat="45.944" lon="4.6901">
        <ele>339</ele>
        <time>2018-03-22T15:54:01Z</time>
      </trkpt>
      <trkpt lat="45.94408" lon="4.6901">
        <ele>339</ele>
        <time>2018-03-22T15:54:03Z</time>
      </trkpt>
      <trkpt lat="45.94412" lon="4.6901">
        <ele>339</ele>
        <time>2018-03-22T15:54:04Z</time>
      </trkpt>
      <trkpt lat="45.94421" lon="4.6901">
        <ele>340</ele>
        <time>2018-03-22T15:54:06Z</time>
      </trkpt>
      <trkpt lat="45.94425" lon="4.6901">
        <ele>340</ele>
        <time>2018-03-22T15:54:07Z</time>
      </trkpt>
      <trkpt lat="45.94433" lon="4.69009">
        <ele>340</ele>
        <time>2018-03-22T15:54:09Z</time>
      </trkpt>
      <trkpt lat="45.94437" lon="4.69008">
        <ele>340</ele>
        <time>2018-03-22T15:54:10Z</time>
      </trkpt>
      <trkpt lat="45.94445" lon="4.69008">
        <ele>340</ele>
        <time>2018-03-22T15:54:12Z</time>
      </trkpt>
      <trkpt lat="45.94449" lon="4.69009">
        <ele>340</ele>
        <time>2018-03-22T15:54:13Z</time>
      </trkpt>
      <trkpt lat="45.94457" lon="4.6901">
        <ele>340</ele>
        <time>2018-03-22T15:54:15Z</time>
      </trkpt>
      <trkpt lat="45.9446" lon="4.69011">
        <ele>341</ele>
        <time>2018-03-22T15:54:16Z</time>
      </trkpt>
      <trkpt lat="45.94466" lon="4.69012">
        <ele>341</ele>
        <time>2018-03-22T15:54:18Z</time>
      </trkpt>
      <trkpt lat="45.94472" lon="4.69013">
        <ele>341</ele>
        <time>2018-03-22T15:54:19Z</time>
      </trkpt>
      <trkpt lat="45.9448" lon="4.69014">
        <ele>341</ele>
        <time>2018-03-22T15:54:21Z</time>
      </trkpt>
      <trkpt lat="45.94484" lon="4.69015">
        <ele>341</ele>
        <time>2018-03-22T15:54:22Z</time>
      </trkpt>
      <trkpt lat="45.94492" lon="4.69016">
        <ele>341</ele>
        <time>2018-03-22T15:54:24Z</time>
      </trkpt>
      <trkpt lat="45.94496" lon="4.69017">
        <ele>341</ele>
        <time>2018-03-22T15:54:25Z</time>
      </trkpt>
      <trkpt lat="45.94505" lon="4.69019">
        <ele>342</ele>
        <time>2018-03-22T15:54:27Z</time>
      </trkpt>
      <trkpt lat="45.94509" lon="4.69021">
        <ele>342</ele>
        <time>2018-03-22T15:54:28Z</time>
      </trkpt>
      <trkpt lat="45.94517" lon="4.69023">
        <ele>342</ele>
        <time>2018-03-22T15:54:30Z</time>
      </trkpt>
      <trkpt lat="45.94521" lon="4.69024">
        <ele>342</ele>
        <time>2018-03-22T15:54:31Z</time>
      </trkpt>
      <trkpt lat="45.94529" lon="4.69026">
        <ele>342</ele>
        <time>2018-03-22T15:54:33Z</time>
      </trkpt>
      <trkpt lat="45.94534" lon="4.69027">
        <ele>342</ele>
        <time>2018-03-22T15:54:34Z</time>
      </trkpt>
      <trkpt lat="45.94542" lon="4.69029">
        <ele>342</ele>
        <time>2018-03-22T15:54:36Z</time>
      </trkpt>
      <trkpt lat="45.94546" lon="4.6903">
        <ele>342</ele>
        <time>2018-03-22T15:54:37Z</time>
      </trkpt>
      <trkpt lat="45.94554" lon="4.69032">
        <ele>342</ele>
        <time>2018-03-22T15:54:39Z</time>
      </trkpt>
      <trkpt lat="45.94558" lon="4.69033">
        <ele>342</ele>
        <time>2018-03-22T15:54:40Z</time>
      </trkpt>
      <trkpt lat="45.94567" lon="4.69035">
        <ele>342</ele>
        <time>2018-03-22T15:54:42Z</time>
      </trkpt>
      <trkpt lat="45.94571" lon="4.69036">
        <ele>342</ele>
        <time>2018-03-22T15:54:43Z</time>
      </trkpt>
      <trkpt lat="45.94579" lon="4.69038">
        <ele>342</ele>
        <time>2018-03-22T15:54:45Z</time>
      </trkpt>
      <trkpt lat="45.94583" lon="4.6904">
        <ele>342</ele>
        <time>2018-03-22T15:54:46Z</time>
      </trkpt>
      <trkpt lat="45.94591" lon="4.69042">
        <ele>342</ele>
        <time>2018-03-22T15:54:48Z</time>
      </trkpt>
      <trkpt lat="45.94595" lon="4.69043">
        <ele>342</ele>
        <time>2018-03-22T15:54:49Z</time>
      </trkpt>
      <trkpt lat="45.94602" lon="4.69045">
        <ele>342</ele>
        <time>2018-03-22T15:54:51Z</time>
      </trkpt>
      <trkpt lat="45.94606" lon="4.69047">
        <ele>342</ele>
        <time>2018-03-22T15:54:52Z</time>
      </trkpt>
      <trkpt lat="45.94613" lon="4.6905">
        <ele>342</ele>
        <time>2018-03-22T15:54:54Z</time>
      </trkpt>
      <trkpt lat="45.94617" lon="4.69051">
        <ele>342</ele>
        <time>2018-03-22T15:54:55Z</time>
      </trkpt>
      <trkpt lat="45.94624" lon="4.69053">
        <ele>342</ele>
        <time>2018-03-22T15:54:57Z</time>
      </trkpt>
      <trkpt lat="45.94628" lon="4.69055">
        <ele>342</ele>
        <time>2018-03-22T15:54:58Z</time>
      </trkpt>
      <trkpt lat="45.94636" lon="4.69058">
        <ele>342</ele>
        <time>2018-03-22T15:55:01Z</time>
      </trkpt>
      <trkpt lat="45.94639" lon="4.69059">
        <ele>342</ele>
        <time>2018-03-22T15:55:02Z</time>
      </trkpt>
      <trkpt lat="45.94645" lon="4.69061">
        <ele>342</ele>
        <time>2018-03-22T15:55:04Z</time>
      </trkpt>
      <trkpt lat="45.94652" lon="4.69064">
        <ele>342</ele>
        <time>2018-03-22T15:55:05Z</time>
      </trkpt>
      <trkpt lat="45.94659" lon="4.69067">
        <ele>342</ele>
        <time>2018-03-22T15:55:07Z</time>
      </trkpt>
      <trkpt lat="45.94663" lon="4.69068">
        <ele>342</ele>
        <time>2018-03-22T15:55:08Z</time>
      </trkpt>
      <trkpt lat="45.9467" lon="4.6907">
        <ele>342</ele>
        <time>2018-03-22T15:55:10Z</time>
      </trkpt>
      <trkpt lat="45.94673" lon="4.69072">
        <ele>342</ele>
        <time>2018-03-22T15:55:11Z</time>
      </trkpt>
      <trkpt lat="45.94679" lon="4.69073">
        <ele>342</ele>
        <time>2018-03-22T15:55:13Z</time>
      </trkpt>
      <trkpt lat="45.94684" lon="4.69075">
        <ele>342</ele>
        <time>2018-03-22T15:55:14Z</time>
      </trkpt>
      <trkpt lat="45.94692" lon="4.69078">
        <ele>342</ele>
        <time>2018-03-22T15:55:16Z</time>
      </trkpt>
      <trkpt lat="45.94695" lon="4.69079">
        <ele>342</ele>
        <time>2018-03-22T15:55:17Z</time>
      </trkpt>
      <trkpt lat="45.94703" lon="4.69082">
        <ele>342</ele>
        <time>2018-03-22T15:55:19Z</time>
      </trkpt>
      <trkpt lat="45.94707" lon="4.69083">
        <ele>343</ele>
        <time>2018-03-22T15:55:20Z</time>
      </trkpt>
      <trkpt lat="45.94714" lon="4.69085">
        <ele>344</ele>
        <time>2018-03-22T15:55:22Z</time>
      </trkpt>
      <trkpt lat="45.94718" lon="4.69086">
        <ele>344</ele>
        <time>2018-03-22T15:55:23Z</time>
      </trkpt>
      <trkpt lat="45.94726" lon="4.69089">
        <ele>344</ele>
        <time>2018-03-22T15:55:25Z</time>
      </trkpt>
      <trkpt lat="45.9473" lon="4.69091">
        <ele>344</ele>
        <time>2018-03-22T15:55:26Z</time>
      </trkpt>
      <trkpt lat="45.94738" lon="4.69094">
        <ele>344</ele>
        <time>2018-03-22T15:55:28Z</time>
      </trkpt>
      <trkpt lat="45.94742" lon="4.69095">
        <ele>344</ele>
        <time>2018-03-22T15:55:29Z</time>
      </trkpt>
      <trkpt lat="45.9475" lon="4.69098">
        <ele>345</ele>
        <time>2018-03-22T15:55:31Z</time>
      </trkpt>
      <trkpt lat="45.94754" lon="4.69099">
        <ele>345</ele>
        <time>2018-03-22T15:55:32Z</time>
      </trkpt>
      <trkpt lat="45.94762" lon="4.69102">
        <ele>344</ele>
        <time>2018-03-22T15:55:34Z</time>
      </trkpt>
      <trkpt lat="45.94767" lon="4.69103">
        <ele>344</ele>
        <time>2018-03-22T15:55:35Z</time>
      </trkpt>
      <trkpt lat="45.94774" lon="4.69106">
        <ele>344</ele>
        <time>2018-03-22T15:55:37Z</time>
      </trkpt>
      <trkpt lat="45.94778" lon="4.69107">
        <ele>344</ele>
        <time>2018-03-22T15:55:38Z</time>
      </trkpt>
      <trkpt lat="45.94786" lon="4.6911">
        <ele>344</ele>
        <time>2018-03-22T15:55:40Z</time>
      </trkpt>
      <trkpt lat="45.94791" lon="4.69111">
        <ele>344</ele>
        <time>2018-03-22T15:55:41Z</time>
      </trkpt>
      <trkpt lat="45.94799" lon="4.69114">
        <ele>344</ele>
        <time>2018-03-22T15:55:43Z</time>
      </trkpt>
      <trkpt lat="45.94803" lon="4.69116">
        <ele>344</ele>
        <time>2018-03-22T15:55:44Z</time>
      </trkpt>
      <trkpt lat="45.94808" lon="4.69117">
        <ele>344</ele>
        <time>2018-03-22T15:55:45Z</time>
      </trkpt>
      <trkpt lat="45.94813" lon="4.69118">
        <ele>344</ele>
        <time>2018-03-22T15:55:46Z</time>
      </trkpt>
      <trkpt lat="45.94818" lon="4.69119">
        <ele>344</ele>
        <time>2018-03-22T15:55:47Z</time>
      </trkpt>
      <trkpt lat="45.94822" lon="4.69121">
        <ele>344</ele>
        <time>2018-03-22T15:55:48Z</time>
      </trkpt>
      <trkpt lat="45.94827" lon="4.69124">
        <ele>344</ele>
        <time>2018-03-22T15:55:49Z</time>
      </trkpt>
      <trkpt lat="45.94832" lon="4.69126">
        <ele>344</ele>
        <time>2018-03-22T15:55:50Z</time>
      </trkpt>
      <trkpt lat="45.94837" lon="4.69128">
        <ele>342</ele>
        <time>2018-03-22T15:55:51Z</time>
      </trkpt>
      <trkpt lat="45.94842" lon="4.69129">
        <ele>342</ele>
        <time>2018-03-22T15:55:52Z</time>
      </trkpt>
      <trkpt lat="45.94847" lon="4.69131">
        <ele>342</ele>
        <time>2018-03-22T15:55:53Z</time>
      </trkpt>
      <trkpt lat="45.94851" lon="4.69133">
        <ele>342</ele>
        <time>2018-03-22T15:55:54Z</time>
      </trkpt>
      <trkpt lat="45.94856" lon="4.69135">
        <ele>342</ele>
        <time>2018-03-22T15:55:55Z</time>
      </trkpt>
      <trkpt lat="45.94861" lon="4.69136">
        <ele>342</ele>
        <time>2018-03-22T15:55:56Z</time>
      </trkpt>
      <trkpt lat="45.94866" lon="4.69138">
        <ele>342</ele>
        <time>2018-03-22T15:55:57Z</time>
      </trkpt>
      <trkpt lat="45.94871" lon="4.69139">
        <ele>342</ele>
        <time>2018-03-22T15:55:58Z</time>
      </trkpt>
      <trkpt lat="45.94875" lon="4.69143">
        <ele>342</ele>
        <time>2018-03-22T15:55:59Z</time>
      </trkpt>
      <trkpt lat="45.9488" lon="4.69145">
        <ele>342</ele>
        <time>2018-03-22T15:56:00Z</time>
      </trkpt>
      <trkpt lat="45.94886" lon="4.69146">
        <ele>342</ele>
        <time>2018-03-22T15:56:01Z</time>
      </trkpt>
      <trkpt lat="45.9489" lon="4.69149">
        <ele>342</ele>
        <time>2018-03-22T15:56:02Z</time>
      </trkpt>
      <trkpt lat="45.94895" lon="4.69152">
        <ele>342</ele>
        <time>2018-03-22T15:56:03Z</time>
      </trkpt>
      <trkpt lat="45.949" lon="4.69154">
        <ele>342</ele>
        <time>2018-03-22T15:56:04Z</time>
      </trkpt>
      <trkpt lat="45.94906" lon="4.69156">
        <ele>342</ele>
        <time>2018-03-22T15:56:05Z</time>
      </trkpt>
      <trkpt lat="45.94911" lon="4.69159">
        <ele>342</ele>
        <time>2018-03-22T15:56:06Z</time>
      </trkpt>
      <trkpt lat="45.94916" lon="4.69161">
        <ele>342</ele>
        <time>2018-03-22T15:56:07Z</time>
      </trkpt>
      <trkpt lat="45.94922" lon="4.69164">
        <ele>341</ele>
        <time>2018-03-22T15:56:08Z</time>
      </trkpt>
      <trkpt lat="45.94928" lon="4.69168">
        <ele>341</ele>
        <time>2018-03-22T15:56:09Z</time>
      </trkpt>
      <trkpt lat="45.94935" lon="4.69171">
        <ele>341</ele>
        <time>2018-03-22T15:56:10Z</time>
      </trkpt>
      <trkpt lat="45.94941" lon="4.69174">
        <ele>341</ele>
        <time>2018-03-22T15:56:11Z</time>
      </trkpt>
      <trkpt lat="45.94947" lon="4.69178">
        <ele>340</ele>
        <time>2018-03-22T15:56:12Z</time>
      </trkpt>
      <trkpt lat="45.94953" lon="4.69182">
        <ele>340</ele>
        <time>2018-03-22T15:56:13Z</time>
      </trkpt>
      <trkpt lat="45.94959" lon="4.69186">
        <ele>340</ele>
        <time>2018-03-22T15:56:14Z</time>
      </trkpt>
      <trkpt lat="45.94965" lon="4.69192">
        <ele>340</ele>
        <time>2018-03-22T15:56:15Z</time>
      </trkpt>
      <trkpt lat="45.9497" lon="4.69198">
        <ele>340</ele>
        <time>2018-03-22T15:56:16Z</time>
      </trkpt>
      <trkpt lat="45.94976" lon="4.69204">
        <ele>340</ele>
        <time>2018-03-22T15:56:17Z</time>
      </trkpt>
      <trkpt lat="45.94982" lon="4.69209">
        <ele>340</ele>
        <time>2018-03-22T15:56:18Z</time>
      </trkpt>
      <trkpt lat="45.9499" lon="4.69212">
        <ele>340</ele>
        <time>2018-03-22T15:56:19Z</time>
      </trkpt>
      <trkpt lat="45.94997" lon="4.69214">
        <ele>340</ele>
        <time>2018-03-22T15:56:20Z</time>
      </trkpt>
      <trkpt lat="45.95003" lon="4.69216">
        <ele>337</ele>
        <time>2018-03-22T15:56:21Z</time>
      </trkpt>
      <trkpt lat="45.9501" lon="4.6922">
        <ele>337</ele>
        <time>2018-03-22T15:56:22Z</time>
      </trkpt>
      <trkpt lat="45.95017" lon="4.69225">
        <ele>337</ele>
        <time>2018-03-22T15:56:23Z</time>
      </trkpt>
      <trkpt lat="45.95023" lon="4.6923">
        <ele>337</ele>
        <time>2018-03-22T15:56:24Z</time>
      </trkpt>
      <trkpt lat="45.95029" lon="4.69235">
        <ele>337</ele>
        <time>2018-03-22T15:56:25Z</time>
      </trkpt>
      <trkpt lat="45.95036" lon="4.69241">
        <ele>336</ele>
        <time>2018-03-22T15:56:26Z</time>
      </trkpt>
      <trkpt lat="45.95042" lon="4.69247">
        <ele>336</ele>
        <time>2018-03-22T15:56:27Z</time>
      </trkpt>
      <trkpt lat="45.95048" lon="4.69253">
        <ele>337</ele>
        <time>2018-03-22T15:56:28Z</time>
      </trkpt>
      <trkpt lat="45.95054" lon="4.6926">
        <ele>336</ele>
        <time>2018-03-22T15:56:29Z</time>
      </trkpt>
      <trkpt lat="45.95061" lon="4.69266">
        <ele>336</ele>
        <time>2018-03-22T15:56:30Z</time>
      </trkpt>
      <trkpt lat="45.95067" lon="4.69272">
        <ele>336</ele>
        <time>2018-03-22T15:56:31Z</time>
      </trkpt>
      <trkpt lat="45.95072" lon="4.69279">
        <ele>336</ele>
        <time>2018-03-22T15:56:32Z</time>
      </trkpt>
      <trkpt lat="45.95078" lon="4.69285">
        <ele>336</ele>
        <time>2018-03-22T15:56:33Z</time>
      </trkpt>
      <trkpt lat="45.95084" lon="4.69292">
        <ele>334</ele>
        <time>2018-03-22T15:56:34Z</time>
      </trkpt>
      <trkpt lat="45.95088" lon="4.69297">
        <ele>334</ele>
        <time>2018-03-22T15:56:35Z</time>
      </trkpt>
      <trkpt lat="45.95093" lon="4.69304">
        <ele>334</ele>
        <time>2018-03-22T15:56:36Z</time>
      </trkpt>
      <trkpt lat="45.95099" lon="4.69309">
        <ele>334</ele>
        <time>2018-03-22T15:56:37Z</time>
      </trkpt>
      <trkpt lat="45.95104" lon="4.69315">
        <ele>334</ele>
        <time>2018-03-22T15:56:38Z</time>
      </trkpt>
      <trkpt lat="45.95109" lon="4.69321">
        <ele>334</ele>
        <time>2018-03-22T15:56:39Z</time>
      </trkpt>
      <trkpt lat="45.95114" lon="4.69326">
        <ele>334</ele>
        <time>2018-03-22T15:56:40Z</time>
      </trkpt>
      <trkpt lat="45.95119" lon="4.6933">
        <ele>334</ele>
        <time>2018-03-22T15:56:41Z</time>
      </trkpt>
      <trkpt lat="45.95123" lon="4.69335">
        <ele>336</ele>
        <time>2018-03-22T15:56:42Z</time>
      </trkpt>
      <trkpt lat="45.95128" lon="4.69339">
        <ele>336</ele>
        <time>2018-03-22T15:56:43Z</time>
      </trkpt>
      <trkpt lat="45.95133" lon="4.69345">
        <ele>337</ele>
        <time>2018-03-22T15:56:44Z</time>
      </trkpt>
      <trkpt lat="45.95138" lon="4.69349">
        <ele>337</ele>
        <time>2018-03-22T15:56:45Z</time>
      </trkpt>
      <trkpt lat="45.95143" lon="4.69354">
        <ele>337</ele>
        <time>2018-03-22T15:56:46Z</time>
      </trkpt>
      <trkpt lat="45.95147" lon="4.69359">
        <ele>337</ele>
        <time>2018-03-22T15:56:47Z</time>
      </trkpt>
      <trkpt lat="45.95151" lon="4.69366">
        <ele>337</ele>
        <time>2018-03-22T15:56:48Z</time>
      </trkpt>
      <trkpt lat="45.95155" lon="4.6937">
        <ele>337</ele>
        <time>2018-03-22T15:56:49Z</time>
      </trkpt>
      <trkpt lat="45.9516" lon="4.69373">
        <ele>337</ele>
        <time>2018-03-22T15:56:50Z</time>
      </trkpt>
      <trkpt lat="45.95161" lon="4.69375">
        <ele>337</ele>
        <time>2018-03-22T15:56:51Z</time>
      </trkpt>
      <trkpt lat="45.95168" lon="4.6938">
        <ele>337</ele>
        <time>2018-03-22T15:56:52Z</time>
      </trkpt>
      <trkpt lat="45.95174" lon="4.69387">
        <ele>337</ele>
        <time>2018-03-22T15:56:54Z</time>
      </trkpt>
      <trkpt lat="45.95176" lon="4.69391">
        <ele>337</ele>
        <time>2018-03-22T15:56:55Z</time>
      </trkpt>
      <trkpt lat="45.95181" lon="4.69394">
        <ele>337</ele>
        <time>2018-03-22T15:56:56Z</time>
      </trkpt>
      <trkpt lat="45.95185" lon="4.69397">
        <ele>337</ele>
        <time>2018-03-22T15:56:57Z</time>
      </trkpt>
      <trkpt lat="45.95189" lon="4.694">
        <ele>337</ele>
        <time>2018-03-22T15:56:58Z</time>
      </trkpt>
      <trkpt lat="45.95193" lon="4.69404">
        <ele>337</ele>
        <time>2018-03-22T15:56:59Z</time>
      </trkpt>
      <trkpt lat="45.95201" lon="4.69409">
        <ele>337</ele>
        <time>2018-03-22T15:57:01Z</time>
      </trkpt>
      <trkpt lat="45.95205" lon="4.69411">
        <ele>337</ele>
        <time>2018-03-22T15:57:02Z</time>
      </trkpt>
      <trkpt lat="45.95212" lon="4.69416">
        <ele>337</ele>
        <time>2018-03-22T15:57:04Z</time>
      </trkpt>
      <trkpt lat="45.95216" lon="4.69418">
        <ele>340</ele>
        <time>2018-03-22T15:57:05Z</time>
      </trkpt>
      <trkpt lat="45.95224" lon="4.69422">
        <ele>340</ele>
        <time>2018-03-22T15:57:07Z</time>
      </trkpt>
      <trkpt lat="45.95228" lon="4.69423">
        <ele>340</ele>
        <time>2018-03-22T15:57:08Z</time>
      </trkpt>
      <trkpt lat="45.95236" lon="4.69426">
        <ele>339</ele>
        <time>2018-03-22T15:57:10Z</time>
      </trkpt>
      <trkpt lat="45.9524" lon="4.69428">
        <ele>339</ele>
        <time>2018-03-22T15:57:11Z</time>
      </trkpt>
      <trkpt lat="45.95249" lon="4.69431">
        <ele>339</ele>
        <time>2018-03-22T15:57:13Z</time>
      </trkpt>
      <trkpt lat="45.95253" lon="4.69433">
        <ele>338</ele>
        <time>2018-03-22T15:57:14Z</time>
      </trkpt>
      <trkpt lat="45.95257" lon="4.69435">
        <ele>338</ele>
        <time>2018-03-22T15:57:15Z</time>
      </trkpt>
      <trkpt lat="45.95261" lon="4.69437">
        <ele>339</ele>
        <time>2018-03-22T15:57:16Z</time>
      </trkpt>
      <trkpt lat="45.95265" lon="4.69439">
        <ele>339</ele>
        <time>2018-03-22T15:57:17Z</time>
      </trkpt>
      <trkpt lat="45.9527" lon="4.69442">
        <ele>339</ele>
        <time>2018-03-22T15:57:18Z</time>
      </trkpt>
      <trkpt lat="45.95278" lon="4.69445">
        <ele>339</ele>
        <time>2018-03-22T15:57:20Z</time>
      </trkpt>
      <trkpt lat="45.95282" lon="4.69447">
        <ele>339</ele>
        <time>2018-03-22T15:57:21Z</time>
      </trkpt>
      <trkpt lat="45.95287" lon="4.69449">
        <ele>339</ele>
        <time>2018-03-22T15:57:22Z</time>
      </trkpt>
      <trkpt lat="45.95291" lon="4.69451">
        <ele>338</ele>
        <time>2018-03-22T15:57:23Z</time>
      </trkpt>
      <trkpt lat="45.95296" lon="4.69453">
        <ele>338</ele>
        <time>2018-03-22T15:57:24Z</time>
      </trkpt>
      <trkpt lat="45.95301" lon="4.69455">
        <ele>338</ele>
        <time>2018-03-22T15:57:25Z</time>
      </trkpt>
      <trkpt lat="45.95305" lon="4.69456">
        <ele>338</ele>
        <time>2018-03-22T15:57:26Z</time>
      </trkpt>
      <trkpt lat="45.9531" lon="4.69458">
        <ele>338</ele>
        <time>2018-03-22T15:57:27Z</time>
      </trkpt>
      <trkpt lat="45.95314" lon="4.6946">
        <ele>338</ele>
        <time>2018-03-22T15:57:28Z</time>
      </trkpt>
      <trkpt lat="45.95318" lon="4.69463">
        <ele>339</ele>
        <time>2018-03-22T15:57:29Z</time>
      </trkpt>
      <trkpt lat="45.95326" lon="4.69467">
        <ele>339</ele>
        <time>2018-03-22T15:57:31Z</time>
      </trkpt>
      <trkpt lat="45.9533" lon="4.69469">
        <ele>339</ele>
        <time>2018-03-22T15:57:32Z</time>
      </trkpt>
      <trkpt lat="45.95338" lon="4.69474">
        <ele>337</ele>
        <time>2018-03-22T15:57:34Z</time>
      </trkpt>
      <trkpt lat="45.95343" lon="4.69477">
        <ele>337</ele>
        <time>2018-03-22T15:57:35Z</time>
      </trkpt>
      <trkpt lat="45.95347" lon="4.6948">
        <ele>337</ele>
        <time>2018-03-22T15:57:36Z</time>
      </trkpt>
      <trkpt lat="45.95351" lon="4.69483">
        <ele>337</ele>
        <time>2018-03-22T15:57:37Z</time>
      </trkpt>
      <trkpt lat="45.95359" lon="4.69489">
        <ele>337</ele>
        <time>2018-03-22T15:57:39Z</time>
      </trkpt>
      <trkpt lat="45.95363" lon="4.69491">
        <ele>337</ele>
        <time>2018-03-22T15:57:40Z</time>
      </trkpt>
      <trkpt lat="45.95367" lon="4.69494">
        <ele>337</ele>
        <time>2018-03-22T15:57:41Z</time>
      </trkpt>
      <trkpt lat="45.95371" lon="4.69497">
        <ele>337</ele>
        <time>2018-03-22T15:57:42Z</time>
      </trkpt>
      <trkpt lat="45.95376" lon="4.69501">
        <ele>340</ele>
        <time>2018-03-22T15:57:43Z</time>
      </trkpt>
      <trkpt lat="45.9538" lon="4.69502">
        <ele>340</ele>
        <time>2018-03-22T15:57:44Z</time>
      </trkpt>
      <trkpt lat="45.95385" lon="4.69504">
        <ele>340</ele>
        <time>2018-03-22T15:57:45Z</time>
      </trkpt>
      <trkpt lat="45.95389" lon="4.69508">
        <ele>340</ele>
        <time>2018-03-22T15:57:46Z</time>
      </trkpt>
      <trkpt lat="45.95394" lon="4.69512">
        <ele>339</ele>
        <time>2018-03-22T15:57:47Z</time>
      </trkpt>
      <trkpt lat="45.95398" lon="4.69516">
        <ele>339</ele>
        <time>2018-03-22T15:57:48Z</time>
      </trkpt>
      <trkpt lat="45.95403" lon="4.69519">
        <ele>339</ele>
        <time>2018-03-22T15:57:49Z</time>
      </trkpt>
      <trkpt lat="45.95408" lon="4.69523">
        <ele>339</ele>
        <time>2018-03-22T15:57:50Z</time>
      </trkpt>
      <trkpt lat="45.95412" lon="4.69527">
        <ele>339</ele>
        <time>2018-03-22T15:57:51Z</time>
      </trkpt>
      <trkpt lat="45.95418" lon="4.69529">
        <ele>337</ele>
        <time>2018-03-22T15:57:52Z</time>
      </trkpt>
      <trkpt lat="45.95424" lon="4.69532">
        <ele>337</ele>
        <time>2018-03-22T15:57:53Z</time>
      </trkpt>
      <trkpt lat="45.9543" lon="4.69534">
        <ele>337</ele>
        <time>2018-03-22T15:57:54Z</time>
      </trkpt>
      <trkpt lat="45.95436" lon="4.69536">
        <ele>337</ele>
        <time>2018-03-22T15:57:55Z</time>
      </trkpt>
      <trkpt lat="45.95442" lon="4.69538">
        <ele>337</ele>
        <time>2018-03-22T15:57:56Z</time>
      </trkpt>
      <trkpt lat="45.95448" lon="4.69541">
        <ele>337</ele>
        <time>2018-03-22T15:57:57Z</time>
      </trkpt>
      <trkpt lat="45.95453" lon="4.69544">
        <ele>337</ele>
        <time>2018-03-22T15:57:58Z</time>
      </trkpt>
      <trkpt lat="45.95459" lon="4.69547">
        <ele>337</ele>
        <time>2018-03-22T15:57:59Z</time>
      </trkpt>
      <trkpt lat="45.95465" lon="4.69551">
        <ele>337</ele>
        <time>2018-03-22T15:58:00Z</time>
      </trkpt>
      <trkpt lat="45.95471" lon="4.69553">
        <ele>336</ele>
        <time>2018-03-22T15:58:01Z</time>
      </trkpt>
      <trkpt lat="45.95478" lon="4.69556">
        <ele>336</ele>
        <time>2018-03-22T15:58:02Z</time>
      </trkpt>
      <trkpt lat="45.95483" lon="4.69559">
        <ele>336</ele>
        <time>2018-03-22T15:58:03Z</time>
      </trkpt>
      <trkpt lat="45.95489" lon="4.69562">
        <ele>336</ele>
        <time>2018-03-22T15:58:04Z</time>
      </trkpt>
      <trkpt lat="45.95495" lon="4.69565">
        <ele>337</ele>
        <time>2018-03-22T15:58:05Z</time>
      </trkpt>
      <trkpt lat="45.95501" lon="4.69569">
        <ele>334</ele>
        <time>2018-03-22T15:58:06Z</time>
      </trkpt>
      <trkpt lat="45.95508" lon="4.69573">
        <ele>335</ele>
        <time>2018-03-22T15:58:07Z</time>
      </trkpt>
      <trkpt lat="45.95515" lon="4.69576">
        <ele>334</ele>
        <time>2018-03-22T15:58:08Z</time>
      </trkpt>
      <trkpt lat="45.95521" lon="4.69579">
        <ele>333</ele>
        <time>2018-03-22T15:58:09Z</time>
      </trkpt>
      <trkpt lat="45.95527" lon="4.69582">
        <ele>333</ele>
        <time>2018-03-22T15:58:10Z</time>
      </trkpt>
      <trkpt lat="45.95533" lon="4.69586">
        <ele>332</ele>
        <time>2018-03-22T15:58:11Z</time>
      </trkpt>
      <trkpt lat="45.95541" lon="4.69588">
        <ele>332</ele>
        <time>2018-03-22T15:58:12Z</time>
      </trkpt>
      <trkpt lat="45.95548" lon="4.6959">
        <ele>331</ele>
        <time>2018-03-22T15:58:13Z</time>
      </trkpt>
      <trkpt lat="45.95555" lon="4.69593">
        <ele>331</ele>
        <time>2018-03-22T15:58:14Z</time>
      </trkpt>
      <trkpt lat="45.95562" lon="4.69597">
        <ele>330</ele>
        <time>2018-03-22T15:58:15Z</time>
      </trkpt>
      <trkpt lat="45.9557" lon="4.696">
        <ele>330</ele>
        <time>2018-03-22T15:58:16Z</time>
      </trkpt>
      <trkpt lat="45.95578" lon="4.69602">
        <ele>330</ele>
        <time>2018-03-22T15:58:17Z</time>
      </trkpt>
      <trkpt lat="45.95586" lon="4.69605">
        <ele>328</ele>
        <time>2018-03-22T15:58:18Z</time>
      </trkpt>
      <trkpt lat="45.95594" lon="4.69607">
        <ele>328</ele>
        <time>2018-03-22T15:58:19Z</time>
      </trkpt>
      <trkpt lat="45.95602" lon="4.6961">
        <ele>328</ele>
        <time>2018-03-22T15:58:20Z</time>
      </trkpt>
      <trkpt lat="45.95609" lon="4.69612">
        <ele>328</ele>
        <time>2018-03-22T15:58:21Z</time>
      </trkpt>
      <trkpt lat="45.95616" lon="4.69616">
        <ele>328</ele>
        <time>2018-03-22T15:58:22Z</time>
      </trkpt>
      <trkpt lat="45.95622" lon="4.69619">
        <ele>328</ele>
        <time>2018-03-22T15:58:23Z</time>
      </trkpt>
      <trkpt lat="45.95629" lon="4.69622">
        <ele>328</ele>
        <time>2018-03-22T15:58:24Z</time>
      </trkpt>
      <trkpt lat="45.95637" lon="4.69626">
        <ele>328</ele>
        <time>2018-03-22T15:58:25Z</time>
      </trkpt>
      <trkpt lat="45.95644" lon="4.69629">
        <ele>328</ele>
        <time>2018-03-22T15:58:26Z</time>
      </trkpt>
      <trkpt lat="45.95651" lon="4.69631">
        <ele>328</ele>
        <time>2018-03-22T15:58:27Z</time>
      </trkpt>
      <trkpt lat="45.95658" lon="4.69634">
        <ele>327</ele>
        <time>2018-03-22T15:58:28Z</time>
      </trkpt>
      <trkpt lat="45.95665" lon="4.69637">
        <ele>327</ele>
        <time>2018-03-22T15:58:29Z</time>
      </trkpt>
      <trkpt lat="45.95672" lon="4.6964">
        <ele>326</ele>
        <time>2018-03-22T15:58:30Z</time>
      </trkpt>
      <trkpt lat="45.95679" lon="4.69643">
        <ele>326</ele>
        <time>2018-03-22T15:58:31Z</time>
      </trkpt>
      <trkpt lat="45.95686" lon="4.69646">
        <ele>326</ele>
        <time>2018-03-22T15:58:32Z</time>
      </trkpt>
      <trkpt lat="45.95692" lon="4.69649">
        <ele>326</ele>
        <time>2018-03-22T15:58:33Z</time>
      </trkpt>
      <trkpt lat="45.95699" lon="4.69652">
        <ele>326</ele>
        <time>2018-03-22T15:58:34Z</time>
      </trkpt>
      <trkpt lat="45.95705" lon="4.69655">
        <ele>326</ele>
        <time>2018-03-22T15:58:35Z</time>
      </trkpt>
      <trkpt lat="45.95712" lon="4.69657">
        <ele>326</ele>
        <time>2018-03-22T15:58:36Z</time>
      </trkpt>
      <trkpt lat="45.95719" lon="4.6966">
        <ele>326</ele>
        <time>2018-03-22T15:58:37Z</time>
      </trkpt>
      <trkpt lat="45.95726" lon="4.69662">
        <ele>326</ele>
        <time>2018-03-22T15:58:38Z</time>
      </trkpt>
      <trkpt lat="45.95731" lon="4.69665">
        <ele>326</ele>
        <time>2018-03-22T15:58:39Z</time>
      </trkpt>
      <trkpt lat="45.95738" lon="4.69669">
        <ele>326</ele>
        <time>2018-03-22T15:58:40Z</time>
      </trkpt>
      <trkpt lat="45.95744" lon="4.69672">
        <ele>326</ele>
        <time>2018-03-22T15:58:41Z</time>
      </trkpt>
      <trkpt lat="45.9575" lon="4.69676">
        <ele>326</ele>
        <time>2018-03-22T15:58:42Z</time>
      </trkpt>
      <trkpt lat="45.95755" lon="4.69679">
        <ele>326</ele>
        <time>2018-03-22T15:58:43Z</time>
      </trkpt>
      <trkpt lat="45.95761" lon="4.69682">
        <ele>326</ele>
        <time>2018-03-22T15:58:44Z</time>
      </trkpt>
      <trkpt lat="45.95766" lon="4.69684">
        <ele>326</ele>
        <time>2018-03-22T15:58:45Z</time>
      </trkpt>
      <trkpt lat="45.95772" lon="4.69686">
        <ele>326</ele>
        <time>2018-03-22T15:58:46Z</time>
      </trkpt>
      <trkpt lat="45.95777" lon="4.6969">
        <ele>326</ele>
        <time>2018-03-22T15:58:47Z</time>
      </trkpt>
      <trkpt lat="45.95781" lon="4.69694">
        <ele>326</ele>
        <time>2018-03-22T15:58:48Z</time>
      </trkpt>
      <trkpt lat="45.95785" lon="4.69699">
        <ele>326</ele>
        <time>2018-03-22T15:58:49Z</time>
      </trkpt>
      <trkpt lat="45.9579" lon="4.69703">
        <ele>326</ele>
        <time>2018-03-22T15:58:50Z</time>
      </trkpt>
      <trkpt lat="45.95794" lon="4.69708">
        <ele>326</ele>
        <time>2018-03-22T15:58:51Z</time>
      </trkpt>
      <trkpt lat="45.95798" lon="4.69713">
        <ele>326</ele>
        <time>2018-03-22T15:58:52Z</time>
      </trkpt>
      <trkpt lat="45.95801" lon="4.69718">
        <ele>326</ele>
        <time>2018-03-22T15:58:53Z</time>
      </trkpt>
      <trkpt lat="45.95804" lon="4.69723">
        <ele>326</ele>
        <time>2018-03-22T15:58:54Z</time>
      </trkpt>
      <trkpt lat="45.95808" lon="4.69728">
        <ele>326</ele>
        <time>2018-03-22T15:58:55Z</time>
      </trkpt>
      <trkpt lat="45.9581" lon="4.69734">
        <ele>326</ele>
        <time>2018-03-22T15:58:56Z</time>
      </trkpt>
      <trkpt lat="45.95815" lon="4.69743">
        <ele>327</ele>
        <time>2018-03-22T15:58:58Z</time>
      </trkpt>
      <trkpt lat="45.95818" lon="4.69747">
        <ele>327</ele>
        <time>2018-03-22T15:58:59Z</time>
      </trkpt>
      <trkpt lat="45.95821" lon="4.69751">
        <ele>328</ele>
        <time>2018-03-22T15:59:00Z</time>
      </trkpt>
      <trkpt lat="45.95825" lon="4.69756">
        <ele>328</ele>
        <time>2018-03-22T15:59:01Z</time>
      </trkpt>
      <trkpt lat="45.95831" lon="4.69765">
        <ele>328</ele>
        <time>2018-03-22T15:59:03Z</time>
      </trkpt>
      <trkpt lat="45.95833" lon="4.69769">
        <ele>328</ele>
        <time>2018-03-22T15:59:04Z</time>
      </trkpt>
      <trkpt lat="45.95839" lon="4.69778">
        <ele>327</ele>
        <time>2018-03-22T15:59:06Z</time>
      </trkpt>
      <trkpt lat="45.95841" lon="4.69782">
        <ele>327</ele>
        <time>2018-03-22T15:59:07Z</time>
      </trkpt>
      <trkpt lat="45.95846" lon="4.69791">
        <ele>327</ele>
        <time>2018-03-22T15:59:09Z</time>
      </trkpt>
      <trkpt lat="45.95848" lon="4.69795">
        <ele>327</ele>
        <time>2018-03-22T15:59:10Z</time>
      </trkpt>
      <trkpt lat="45.95853" lon="4.69805">
        <ele>327</ele>
        <time>2018-03-22T15:59:12Z</time>
      </trkpt>
      <trkpt lat="45.95855" lon="4.6981">
        <ele>327</ele>
        <time>2018-03-22T15:59:13Z</time>
      </trkpt>
      <trkpt lat="45.95859" lon="4.69819">
        <ele>328</ele>
        <time>2018-03-22T15:59:15Z</time>
      </trkpt>
      <trkpt lat="45.95861" lon="4.69824">
        <ele>328</ele>
        <time>2018-03-22T15:59:16Z</time>
      </trkpt>
      <trkpt lat="45.95865" lon="4.69834">
        <ele>329</ele>
        <time>2018-03-22T15:59:18Z</time>
      </trkpt>
      <trkpt lat="45.95868" lon="4.69839">
        <ele>329</ele>
        <time>2018-03-22T15:59:19Z</time>
      </trkpt>
      <trkpt lat="45.95871" lon="4.6985">
        <ele>329</ele>
        <time>2018-03-22T15:59:21Z</time>
      </trkpt>
      <trkpt lat="45.95873" lon="4.69856">
        <ele>329</ele>
        <time>2018-03-22T15:59:22Z</time>
      </trkpt>
      <trkpt lat="45.95874" lon="4.69861">
        <ele>329</ele>
        <time>2018-03-22T15:59:23Z</time>
      </trkpt>
      <trkpt lat="45.95876" lon="4.69868">
        <ele>329</ele>
        <time>2018-03-22T15:59:24Z</time>
      </trkpt>
      <trkpt lat="45.95878" lon="4.69874">
        <ele>329</ele>
        <time>2018-03-22T15:59:25Z</time>
      </trkpt>
      <trkpt lat="45.95879" lon="4.6988">
        <ele>329</ele>
        <time>2018-03-22T15:59:26Z</time>
      </trkpt>
      <trkpt lat="45.95881" lon="4.69887">
        <ele>329</ele>
        <time>2018-03-22T15:59:27Z</time>
      </trkpt>
      <trkpt lat="45.95882" lon="4.69893">
        <ele>329</ele>
        <time>2018-03-22T15:59:28Z</time>
      </trkpt>
      <trkpt lat="45.95883" lon="4.699">
        <ele>329</ele>
        <time>2018-03-22T15:59:29Z</time>
      </trkpt>
      <trkpt lat="45.95884" lon="4.69907">
        <ele>329</ele>
        <time>2018-03-22T15:59:30Z</time>
      </trkpt>
      <trkpt lat="45.95885" lon="4.69913">
        <ele>329</ele>
        <time>2018-03-22T15:59:31Z</time>
      </trkpt>
      <trkpt lat="45.95888" lon="4.6992">
        <ele>328</ele>
        <time>2018-03-22T15:59:32Z</time>
      </trkpt>
      <trkpt lat="45.9589" lon="4.69926">
        <ele>328</ele>
        <time>2018-03-22T15:59:33Z</time>
      </trkpt>
      <trkpt lat="45.95891" lon="4.69933">
        <ele>328</ele>
        <time>2018-03-22T15:59:34Z</time>
      </trkpt>
      <trkpt lat="45.95894" lon="4.69945">
        <ele>328</ele>
        <time>2018-03-22T15:59:36Z</time>
      </trkpt>
      <trkpt lat="45.95895" lon="4.69951">
        <ele>328</ele>
        <time>2018-03-22T15:59:37Z</time>
      </trkpt>
      <trkpt lat="45.95897" lon="4.69957">
        <ele>328</ele>
        <time>2018-03-22T15:59:38Z</time>
      </trkpt>
      <trkpt lat="45.95899" lon="4.69963">
        <ele>328</ele>
        <time>2018-03-22T15:59:39Z</time>
      </trkpt>
      <trkpt lat="45.959" lon="4.69969">
        <ele>328</ele>
        <time>2018-03-22T15:59:40Z</time>
      </trkpt>
      <trkpt lat="45.95902" lon="4.69975">
        <ele>328</ele>
        <time>2018-03-22T15:59:41Z</time>
      </trkpt>
      <trkpt lat="45.95904" lon="4.69982">
        <ele>328</ele>
        <time>2018-03-22T15:59:42Z</time>
      </trkpt>
      <trkpt lat="45.95906" lon="4.69989">
        <ele>328</ele>
        <time>2018-03-22T15:59:43Z</time>
      </trkpt>
      <trkpt lat="45.95908" lon="4.69995">
        <ele>328</ele>
        <time>2018-03-22T15:59:44Z</time>
      </trkpt>
      <trkpt lat="45.95911" lon="4.70001">
        <ele>328</ele>
        <time>2018-03-22T15:59:45Z</time>
      </trkpt>
      <trkpt lat="45.95913" lon="4.70008">
        <ele>328</ele>
        <time>2018-03-22T15:59:46Z</time>
      </trkpt>
      <trkpt lat="45.95915" lon="4.70014">
        <ele>328</ele>
        <time>2018-03-22T15:59:47Z</time>
      </trkpt>
      <trkpt lat="45.95917" lon="4.7002">
        <ele>328</ele>
        <time>2018-03-22T15:59:48Z</time>
      </trkpt>
      <trkpt lat="45.9592" lon="4.70026">
        <ele>328</ele>
        <time>2018-03-22T15:59:49Z</time>
      </trkpt>
      <trkpt lat="45.95923" lon="4.70032">
        <ele>328</ele>
        <time>2018-03-22T15:59:50Z</time>
      </trkpt>
      <trkpt lat="45.95926" lon="4.70037">
        <ele>328</ele>
        <time>2018-03-22T15:59:51Z</time>
      </trkpt>
      <trkpt lat="45.9593" lon="4.70043">
        <ele>328</ele>
        <time>2018-03-22T15:59:52Z</time>
      </trkpt>
      <trkpt lat="45.95933" lon="4.70047">
        <ele>328</ele>
        <time>2018-03-22T15:59:53Z</time>
      </trkpt>
      <trkpt lat="45.95937" lon="4.70053">
        <ele>328</ele>
        <time>2018-03-22T15:59:54Z</time>
      </trkpt>
      <trkpt lat="45.95941" lon="4.70058">
        <ele>328</ele>
        <time>2018-03-22T15:59:55Z</time>
      </trkpt>
      <trkpt lat="45.95945" lon="4.70062">
        <ele>328</ele>
        <time>2018-03-22T15:59:56Z</time>
      </trkpt>
      <trkpt lat="45.95949" lon="4.70067">
        <ele>328</ele>
        <time>2018-03-22T15:59:57Z</time>
      </trkpt>
      <trkpt lat="45.95955" lon="4.70074">
        <ele>328</ele>
        <time>2018-03-22T15:59:59Z</time>
      </trkpt>
      <trkpt lat="45.95959" lon="4.70077">
        <ele>327</ele>
        <time>2018-03-22T16:00:00Z</time>
      </trkpt>
      <trkpt lat="45.95963" lon="4.70081">
        <ele>327</ele>
        <time>2018-03-22T16:00:01Z</time>
      </trkpt>
      <trkpt lat="45.95967" lon="4.70084">
        <ele>328</ele>
        <time>2018-03-22T16:00:02Z</time>
      </trkpt>
      <trkpt lat="45.95974" lon="4.70092">
        <ele>328</ele>
        <time>2018-03-22T16:00:04Z</time>
      </trkpt>
      <trkpt lat="45.95976" lon="4.70096">
        <ele>328</ele>
        <time>2018-03-22T16:00:05Z</time>
      </trkpt>
      <trkpt lat="45.95981" lon="4.70101">
        <ele>328</ele>
        <time>2018-03-22T16:00:06Z</time>
      </trkpt>
      <trkpt lat="45.95984" lon="4.70104">
        <ele>328</ele>
        <time>2018-03-22T16:00:07Z</time>
      </trkpt>
      <trkpt lat="45.95988" lon="4.70108">
        <ele>328</ele>
        <time>2018-03-22T16:00:08Z</time>
      </trkpt>
      <trkpt lat="45.95991" lon="4.70112">
        <ele>328</ele>
        <time>2018-03-22T16:00:09Z</time>
      </trkpt>
      <trkpt lat="45.95997" lon="4.7012">
        <ele>328</ele>
        <time>2018-03-22T16:00:11Z</time>
      </trkpt>
      <trkpt lat="45.96001" lon="4.70124">
        <ele>328</ele>
        <time>2018-03-22T16:00:12Z</time>
      </trkpt>
      <trkpt lat="45.96008" lon="4.70132">
        <ele>328</ele>
        <time>2018-03-22T16:00:14Z</time>
      </trkpt>
      <trkpt lat="45.96011" lon="4.70135">
        <ele>328</ele>
        <time>2018-03-22T16:00:15Z</time>
      </trkpt>
      <trkpt lat="45.96018" lon="4.70142">
        <ele>329</ele>
        <time>2018-03-22T16:00:17Z</time>
      </trkpt>
      <trkpt lat="45.96022" lon="4.70145">
        <ele>329</ele>
        <time>2018-03-22T16:00:18Z</time>
      </trkpt>
      <trkpt lat="45.96025" lon="4.7015">
        <ele>329</ele>
        <time>2018-03-22T16:00:19Z</time>
      </trkpt>
      <trkpt lat="45.96029" lon="4.70153">
        <ele>329</ele>
        <time>2018-03-22T16:00:20Z</time>
      </trkpt>
      <trkpt lat="45.96033" lon="4.70157">
        <ele>329</ele>
        <time>2018-03-22T16:00:21Z</time>
      </trkpt>
      <trkpt lat="45.96037" lon="4.7016">
        <ele>329</ele>
        <time>2018-03-22T16:00:22Z</time>
      </trkpt>
      <trkpt lat="45.96042" lon="4.70164">
        <ele>329</ele>
        <time>2018-03-22T16:00:23Z</time>
      </trkpt>
      <trkpt lat="45.96047" lon="4.70168">
        <ele>327</ele>
        <time>2018-03-22T16:00:24Z</time>
      </trkpt>
      <trkpt lat="45.96051" lon="4.70172">
        <ele>327</ele>
        <time>2018-03-22T16:00:25Z</time>
      </trkpt>
      <trkpt lat="45.96056" lon="4.70177">
        <ele>327</ele>
        <time>2018-03-22T16:00:26Z</time>
      </trkpt>
      <trkpt lat="45.9606" lon="4.7018">
        <ele>327</ele>
        <time>2018-03-22T16:00:27Z</time>
      </trkpt>
      <trkpt lat="45.96064" lon="4.70184">
        <ele>327</ele>
        <time>2018-03-22T16:00:28Z</time>
      </trkpt>
      <trkpt lat="45.96069" lon="4.70187">
        <ele>327</ele>
        <time>2018-03-22T16:00:29Z</time>
      </trkpt>
      <trkpt lat="45.96074" lon="4.70192">
        <ele>327</ele>
        <time>2018-03-22T16:00:30Z</time>
      </trkpt>
      <trkpt lat="45.96078" lon="4.70195">
        <ele>327</ele>
        <time>2018-03-22T16:00:31Z</time>
      </trkpt>
      <trkpt lat="45.96083" lon="4.70199">
        <ele>327</ele>
        <time>2018-03-22T16:00:32Z</time>
      </trkpt>
      <trkpt lat="45.96088" lon="4.70203">
        <ele>327</ele>
        <time>2018-03-22T16:00:33Z</time>
      </trkpt>
      <trkpt lat="45.96093" lon="4.70207">
        <ele>327</ele>
        <time>2018-03-22T16:00:34Z</time>
      </trkpt>
      <trkpt lat="45.96098" lon="4.70212">
        <ele>327</ele>
        <time>2018-03-22T16:00:35Z</time>
      </trkpt>
      <trkpt lat="45.96103" lon="4.70217">
        <ele>327</ele>
        <time>2018-03-22T16:00:36Z</time>
      </trkpt>
      <trkpt lat="45.96108" lon="4.70221">
        <ele>327</ele>
        <time>2018-03-22T16:00:37Z</time>
      </trkpt>
      <trkpt lat="45.96113" lon="4.70225">
        <ele>327</ele>
        <time>2018-03-22T16:00:38Z</time>
      </trkpt>
      <trkpt lat="45.96119" lon="4.70231">
        <ele>327</ele>
        <time>2018-03-22T16:00:39Z</time>
      </trkpt>
      <trkpt lat="45.96125" lon="4.70234">
        <ele>327</ele>
        <time>2018-03-22T16:00:40Z</time>
      </trkpt>
      <trkpt lat="45.9613" lon="4.70238">
        <ele>327</ele>
        <time>2018-03-22T16:00:41Z</time>
      </trkpt>
      <trkpt lat="45.96136" lon="4.70243">
        <ele>327</ele>
        <time>2018-03-22T16:00:42Z</time>
      </trkpt>
      <trkpt lat="45.96141" lon="4.70248">
        <ele>327</ele>
        <time>2018-03-22T16:00:43Z</time>
      </trkpt>
      <trkpt lat="45.96146" lon="4.70253">
        <ele>324</ele>
        <time>2018-03-22T16:00:44Z</time>
      </trkpt>
      <trkpt lat="45.9615" lon="4.70259">
        <ele>325</ele>
        <time>2018-03-22T16:00:45Z</time>
      </trkpt>
      <trkpt lat="45.96156" lon="4.70264">
        <ele>324</ele>
        <time>2018-03-22T16:00:46Z</time>
      </trkpt>
      <trkpt lat="45.96161" lon="4.70269">
        <ele>324</ele>
        <time>2018-03-22T16:00:47Z</time>
      </trkpt>
      <trkpt lat="45.96165" lon="4.70275">
        <ele>324</ele>
        <time>2018-03-22T16:00:48Z</time>
      </trkpt>
      <trkpt lat="45.9617" lon="4.70281">
        <ele>327</ele>
        <time>2018-03-22T16:00:49Z</time>
      </trkpt>
      <trkpt lat="45.96175" lon="4.70288">
        <ele>326</ele>
        <time>2018-03-22T16:00:50Z</time>
      </trkpt>
      <trkpt lat="45.9618" lon="4.70293">
        <ele>326</ele>
        <time>2018-03-22T16:00:51Z</time>
      </trkpt>
      <trkpt lat="45.96184" lon="4.70299">
        <ele>326</ele>
        <time>2018-03-22T16:00:52Z</time>
      </trkpt>
      <trkpt lat="45.96188" lon="4.70305">
        <ele>326</ele>
        <time>2018-03-22T16:00:53Z</time>
      </trkpt>
      <trkpt lat="45.96193" lon="4.70312">
        <ele>325</ele>
        <time>2018-03-22T16:00:54Z</time>
      </trkpt>
      <trkpt lat="45.96197" lon="4.70318">
        <ele>325</ele>
        <time>2018-03-22T16:00:55Z</time>
      </trkpt>
      <trkpt lat="45.96202" lon="4.70325">
        <ele>326</ele>
        <time>2018-03-22T16:00:56Z</time>
      </trkpt>
      <trkpt lat="45.96206" lon="4.70331">
        <ele>326</ele>
        <time>2018-03-22T16:00:57Z</time>
      </trkpt>
      <trkpt lat="45.9621" lon="4.70338">
        <ele>321</ele>
        <time>2018-03-22T16:00:58Z</time>
      </trkpt>
      <trkpt lat="45.96214" lon="4.70346">
        <ele>321</ele>
        <time>2018-03-22T16:00:59Z</time>
      </trkpt>
      <trkpt lat="45.96218" lon="4.70352">
        <ele>321</ele>
        <time>2018-03-22T16:01:00Z</time>
      </trkpt>
      <trkpt lat="45.96222" lon="4.70359">
        <ele>321</ele>
        <time>2018-03-22T16:01:01Z</time>
      </trkpt>
      <trkpt lat="45.96227" lon="4.70366">
        <ele>321</ele>
        <time>2018-03-22T16:01:02Z</time>
      </trkpt>
      <trkpt lat="45.9623" lon="4.70373">
        <ele>321</ele>
        <time>2018-03-22T16:01:03Z</time>
      </trkpt>
      <trkpt lat="45.96234" lon="4.7038">
        <ele>320</ele>
        <time>2018-03-22T16:01:04Z</time>
      </trkpt>
      <trkpt lat="45.96239" lon="4.70386">
        <ele>320</ele>
        <time>2018-03-22T16:01:05Z</time>
      </trkpt>
      <trkpt lat="45.96244" lon="4.70394">
        <ele>320</ele>
        <time>2018-03-22T16:01:06Z</time>
      </trkpt>
      <trkpt lat="45.96248" lon="4.704">
        <ele>320</ele>
        <time>2018-03-22T16:01:07Z</time>
      </trkpt>
      <trkpt lat="45.96252" lon="4.70406">
        <ele>323</ele>
        <time>2018-03-22T16:01:08Z</time>
      </trkpt>
      <trkpt lat="45.96256" lon="4.70412">
        <ele>322</ele>
        <time>2018-03-22T16:01:09Z</time>
      </trkpt>
      <trkpt lat="45.96261" lon="4.70419">
        <ele>320</ele>
        <time>2018-03-22T16:01:10Z</time>
      </trkpt>
      <trkpt lat="45.96264" lon="4.70424">
        <ele>321</ele>
        <time>2018-03-22T16:01:11Z</time>
      </trkpt>
      <trkpt lat="45.96268" lon="4.70431">
        <ele>321</ele>
        <time>2018-03-22T16:01:12Z</time>
      </trkpt>
      <trkpt lat="45.96273" lon="4.70438">
        <ele>321</ele>
        <time>2018-03-22T16:01:13Z</time>
      </trkpt>
      <trkpt lat="45.96277" lon="4.70444">
        <ele>321</ele>
        <time>2018-03-22T16:01:14Z</time>
      </trkpt>
      <trkpt lat="45.96281" lon="4.70451">
        <ele>321</ele>
        <time>2018-03-22T16:01:15Z</time>
      </trkpt>
      <trkpt lat="45.96286" lon="4.70458">
        <ele>321</ele>
        <time>2018-03-22T16:01:16Z</time>
      </trkpt>
      <trkpt lat="45.9629" lon="4.70464">
        <ele>320</ele>
        <time>2018-03-22T16:01:17Z</time>
      </trkpt>
      <trkpt lat="45.96294" lon="4.7047">
        <ele>320</ele>
        <time>2018-03-22T16:01:18Z</time>
      </trkpt>
      <trkpt lat="45.96299" lon="4.70476">
        <ele>320</ele>
        <time>2018-03-22T16:01:19Z</time>
      </trkpt>
      <trkpt lat="45.96304" lon="4.70484">
        <ele>320</ele>
        <time>2018-03-22T16:01:20Z</time>
      </trkpt>
      <trkpt lat="45.96308" lon="4.70489">
        <ele>320</ele>
        <time>2018-03-22T16:01:21Z</time>
      </trkpt>
      <trkpt lat="45.96312" lon="4.70495">
        <ele>320</ele>
        <time>2018-03-22T16:01:22Z</time>
      </trkpt>
      <trkpt lat="45.96316" lon="4.70501">
        <ele>316</ele>
        <time>2018-03-22T16:01:23Z</time>
      </trkpt>
      <trkpt lat="45.96321" lon="4.70507">
        <ele>317</ele>
        <time>2018-03-22T16:01:24Z</time>
      </trkpt>
      <trkpt lat="45.96326" lon="4.70514">
        <ele>316</ele>
        <time>2018-03-22T16:01:25Z</time>
      </trkpt>
      <trkpt lat="45.96331" lon="4.7052">
        <ele>316</ele>
        <time>2018-03-22T16:01:26Z</time>
      </trkpt>
      <trkpt lat="45.96336" lon="4.70526">
        <ele>319</ele>
        <time>2018-03-22T16:01:27Z</time>
      </trkpt>
      <trkpt lat="45.96341" lon="4.70534">
        <ele>319</ele>
        <time>2018-03-22T16:01:28Z</time>
      </trkpt>
      <trkpt lat="45.96346" lon="4.7054">
        <ele>318</ele>
        <time>2018-03-22T16:01:29Z</time>
      </trkpt>
      <trkpt lat="45.96351" lon="4.70546">
        <ele>318</ele>
        <time>2018-03-22T16:01:30Z</time>
      </trkpt>
      <trkpt lat="45.96356" lon="4.70553">
        <ele>318</ele>
        <time>2018-03-22T16:01:31Z</time>
      </trkpt>
      <trkpt lat="45.96361" lon="4.7056">
        <ele>318</ele>
        <time>2018-03-22T16:01:32Z</time>
      </trkpt>
      <trkpt lat="45.96367" lon="4.70567">
        <ele>318</ele>
        <time>2018-03-22T16:01:33Z</time>
      </trkpt>
      <trkpt lat="45.96372" lon="4.70573">
        <ele>318</ele>
        <time>2018-03-22T16:01:34Z</time>
      </trkpt>
      <trkpt lat="45.96377" lon="4.7058">
        <ele>318</ele>
        <time>2018-03-22T16:01:35Z</time>
      </trkpt>
      <trkpt lat="45.96383" lon="4.70585">
        <ele>312</ele>
        <time>2018-03-22T16:01:36Z</time>
      </trkpt>
      <trkpt lat="45.96389" lon="4.70592">
        <ele>312</ele>
        <time>2018-03-22T16:01:37Z</time>
      </trkpt>
      <trkpt lat="45.96395" lon="4.70599">
        <ele>312</ele>
        <time>2018-03-22T16:01:38Z</time>
      </trkpt>
      <trkpt lat="45.96401" lon="4.70607">
        <ele>312</ele>
        <time>2018-03-22T16:01:39Z</time>
      </trkpt>
      <trkpt lat="45.96407" lon="4.70614">
        <ele>312</ele>
        <time>2018-03-22T16:01:40Z</time>
      </trkpt>
      <trkpt lat="45.96413" lon="4.70621">
        <ele>311</ele>
        <time>2018-03-22T16:01:41Z</time>
      </trkpt>
      <trkpt lat="45.9642" lon="4.70627">
        <ele>314</ele>
        <time>2018-03-22T16:01:42Z</time>
      </trkpt>
      <trkpt lat="45.96425" lon="4.70635">
        <ele>313</ele>
        <time>2018-03-22T16:01:43Z</time>
      </trkpt>
      <trkpt lat="45.96432" lon="4.70643">
        <ele>312</ele>
        <time>2018-03-22T16:01:44Z</time>
      </trkpt>
      <trkpt lat="45.96438" lon="4.7065">
        <ele>312</ele>
        <time>2018-03-22T16:01:45Z</time>
      </trkpt>
      <trkpt lat="45.96445" lon="4.70659">
        <ele>312</ele>
        <time>2018-03-22T16:01:46Z</time>
      </trkpt>
      <trkpt lat="45.96453" lon="4.70666">
        <ele>312</ele>
        <time>2018-03-22T16:01:47Z</time>
      </trkpt>
      <trkpt lat="45.9646" lon="4.70673">
        <ele>305</ele>
        <time>2018-03-22T16:01:48Z</time>
      </trkpt>
      <trkpt lat="45.96468" lon="4.70679">
        <ele>305</ele>
        <time>2018-03-22T16:01:49Z</time>
      </trkpt>
      <trkpt lat="45.96474" lon="4.70686">
        <ele>305</ele>
        <time>2018-03-22T16:01:50Z</time>
      </trkpt>
      <trkpt lat="45.96482" lon="4.70693">
        <ele>305</ele>
        <time>2018-03-22T16:01:51Z</time>
      </trkpt>
      <trkpt lat="45.9649" lon="4.70699">
        <ele>305</ele>
        <time>2018-03-22T16:01:52Z</time>
      </trkpt>
      <trkpt lat="45.96498" lon="4.70706">
        <ele>304</ele>
        <time>2018-03-22T16:01:53Z</time>
      </trkpt>
      <trkpt lat="45.96506" lon="4.70713">
        <ele>306</ele>
        <time>2018-03-22T16:01:54Z</time>
      </trkpt>
      <trkpt lat="45.96515" lon="4.70719">
        <ele>305</ele>
        <time>2018-03-22T16:01:55Z</time>
      </trkpt>
      <trkpt lat="45.96523" lon="4.70726">
        <ele>305</ele>
        <time>2018-03-22T16:01:56Z</time>
      </trkpt>
      <trkpt lat="45.96531" lon="4.70732">
        <ele>305</ele>
        <time>2018-03-22T16:01:57Z</time>
      </trkpt>
      <trkpt lat="45.96539" lon="4.70739">
        <ele>305</ele>
        <time>2018-03-22T16:01:58Z</time>
      </trkpt>
      <trkpt lat="45.96547" lon="4.70746">
        <ele>305</ele>
        <time>2018-03-22T16:01:59Z</time>
      </trkpt>
      <trkpt lat="45.96556" lon="4.70753">
        <ele>299</ele>
        <time>2018-03-22T16:02:00Z</time>
      </trkpt>
      <trkpt lat="45.96563" lon="4.70759">
        <ele>299</ele>
        <time>2018-03-22T16:02:01Z</time>
      </trkpt>
      <trkpt lat="45.96572" lon="4.70764">
        <ele>299</ele>
        <time>2018-03-22T16:02:02Z</time>
      </trkpt>
      <trkpt lat="45.9658" lon="4.7077">
        <ele>299</ele>
        <time>2018-03-22T16:02:03Z</time>
      </trkpt>
      <trkpt lat="45.96588" lon="4.70776">
        <ele>300</ele>
        <time>2018-03-22T16:02:04Z</time>
      </trkpt>
      <trkpt lat="45.96597" lon="4.70782">
        <ele>299</ele>
        <time>2018-03-22T16:02:05Z</time>
      </trkpt>
      <trkpt lat="45.96605" lon="4.70788">
        <ele>299</ele>
        <time>2018-03-22T16:02:06Z</time>
      </trkpt>
      <trkpt lat="45.96613" lon="4.70793">
        <ele>298</ele>
        <time>2018-03-22T16:02:07Z</time>
      </trkpt>
      <trkpt lat="45.96621" lon="4.70799">
        <ele>298</ele>
        <time>2018-03-22T16:02:08Z</time>
      </trkpt>
      <trkpt lat="45.96629" lon="4.70805">
        <ele>298</ele>
        <time>2018-03-22T16:02:09Z</time>
      </trkpt>
      <trkpt lat="45.96638" lon="4.70812">
        <ele>297</ele>
        <time>2018-03-22T16:02:10Z</time>
      </trkpt>
      <trkpt lat="45.96647" lon="4.70817">
        <ele>297</ele>
        <time>2018-03-22T16:02:11Z</time>
      </trkpt>
      <trkpt lat="45.96655" lon="4.70823">
        <ele>297</ele>
        <time>2018-03-22T16:02:12Z</time>
      </trkpt>
      <trkpt lat="45.96664" lon="4.70828">
        <ele>296</ele>
        <time>2018-03-22T16:02:13Z</time>
      </trkpt>
      <trkpt lat="45.96673" lon="4.70834">
        <ele>294</ele>
        <time>2018-03-22T16:02:14Z</time>
      </trkpt>
      <trkpt lat="45.96681" lon="4.7084">
        <ele>292</ele>
        <time>2018-03-22T16:02:15Z</time>
      </trkpt>
      <trkpt lat="45.9669" lon="4.70845">
        <ele>291</ele>
        <time>2018-03-22T16:02:16Z</time>
      </trkpt>
      <trkpt lat="45.96699" lon="4.70851">
        <ele>290</ele>
        <time>2018-03-22T16:02:17Z</time>
      </trkpt>
      <trkpt lat="45.96709" lon="4.70857">
        <ele>290</ele>
        <time>2018-03-22T16:02:18Z</time>
      </trkpt>
      <trkpt lat="45.96719" lon="4.70864">
        <ele>289</ele>
        <time>2018-03-22T16:02:19Z</time>
      </trkpt>
      <trkpt lat="45.96728" lon="4.7087">
        <ele>289</ele>
        <time>2018-03-22T16:02:20Z</time>
      </trkpt>
      <trkpt lat="45.96737" lon="4.70877">
        <ele>288</ele>
        <time>2018-03-22T16:02:21Z</time>
      </trkpt>
      <trkpt lat="45.96746" lon="4.70883">
        <ele>288</ele>
        <time>2018-03-22T16:02:22Z</time>
      </trkpt>
      <trkpt lat="45.96756" lon="4.70889">
        <ele>288</ele>
        <time>2018-03-22T16:02:23Z</time>
      </trkpt>
      <trkpt lat="45.96764" lon="4.70896">
        <ele>288</ele>
        <time>2018-03-22T16:02:24Z</time>
      </trkpt>
      <trkpt lat="45.96774" lon="4.70902">
        <ele>288</ele>
        <time>2018-03-22T16:02:25Z</time>
      </trkpt>
      <trkpt lat="45.96783" lon="4.70909">
        <ele>288</ele>
        <time>2018-03-22T16:02:26Z</time>
      </trkpt>
      <trkpt lat="45.96792" lon="4.70914">
        <ele>288</ele>
        <time>2018-03-22T16:02:27Z</time>
      </trkpt>
      <trkpt lat="45.96802" lon="4.70919">
        <ele>280</ele>
        <time>2018-03-22T16:02:28Z</time>
      </trkpt>
      <trkpt lat="45.96811" lon="4.70925">
        <ele>281</ele>
        <time>2018-03-22T16:02:29Z</time>
      </trkpt>
      <trkpt lat="45.96821" lon="4.70931">
        <ele>281</ele>
        <time>2018-03-22T16:02:30Z</time>
      </trkpt>
      <trkpt lat="45.96831" lon="4.70936">
        <ele>281</ele>
        <time>2018-03-22T16:02:31Z</time>
      </trkpt>
      <trkpt lat="45.96841" lon="4.70944">
        <ele>281</ele>
        <time>2018-03-22T16:02:32Z</time>
      </trkpt>
      <trkpt lat="45.9685" lon="4.70951">
        <ele>280</ele>
        <time>2018-03-22T16:02:33Z</time>
      </trkpt>
      <trkpt lat="45.9686" lon="4.70957">
        <ele>279</ele>
        <time>2018-03-22T16:02:34Z</time>
      </trkpt>
      <trkpt lat="45.9687" lon="4.70962">
        <ele>279</ele>
        <time>2018-03-22T16:02:35Z</time>
      </trkpt>
      <trkpt lat="45.96879" lon="4.70967">
        <ele>279</ele>
        <time>2018-03-22T16:02:36Z</time>
      </trkpt>
      <trkpt lat="45.96889" lon="4.7097">
        <ele>278</ele>
        <time>2018-03-22T16:02:37Z</time>
      </trkpt>
      <trkpt lat="45.969" lon="4.70972">
        <ele>278</ele>
        <time>2018-03-22T16:02:38Z</time>
      </trkpt>
      <trkpt lat="45.9691" lon="4.70975">
        <ele>277</ele>
        <time>2018-03-22T16:02:39Z</time>
      </trkpt>
      <trkpt lat="45.96921" lon="4.70977">
        <ele>275</ele>
        <time>2018-03-22T16:02:40Z</time>
      </trkpt>
      <trkpt lat="45.9693" lon="4.7098">
        <ele>275</ele>
        <time>2018-03-22T16:02:41Z</time>
      </trkpt>
      <trkpt lat="45.96941" lon="4.70982">
        <ele>275</ele>
        <time>2018-03-22T16:02:42Z</time>
      </trkpt>
      <trkpt lat="45.96952" lon="4.70985">
        <ele>275</ele>
        <time>2018-03-22T16:02:43Z</time>
      </trkpt>
      <trkpt lat="45.96962" lon="4.70987">
        <ele>274</ele>
        <time>2018-03-22T16:02:44Z</time>
      </trkpt>
      <trkpt lat="45.96972" lon="4.70988">
        <ele>274</ele>
        <time>2018-03-22T16:02:45Z</time>
      </trkpt>
      <trkpt lat="45.96983" lon="4.7099">
        <ele>272</ele>
        <time>2018-03-22T16:02:46Z</time>
      </trkpt>
      <trkpt lat="45.96993" lon="4.7099">
        <ele>271</ele>
        <time>2018-03-22T16:02:47Z</time>
      </trkpt>
      <trkpt lat="45.97003" lon="4.7099">
        <ele>269</ele>
        <time>2018-03-22T16:02:48Z</time>
      </trkpt>
      <trkpt lat="45.97013" lon="4.70989">
        <ele>269</ele>
        <time>2018-03-22T16:02:49Z</time>
      </trkpt>
      <trkpt lat="45.97023" lon="4.70988">
        <ele>269</ele>
        <time>2018-03-22T16:02:50Z</time>
      </trkpt>
      <trkpt lat="45.97033" lon="4.70987">
        <ele>269</ele>
        <time>2018-03-22T16:02:51Z</time>
      </trkpt>
      <trkpt lat="45.97043" lon="4.70987">
        <ele>269</ele>
        <time>2018-03-22T16:02:52Z</time>
      </trkpt>
      <trkpt lat="45.97052" lon="4.70985">
        <ele>269</ele>
        <time>2018-03-22T16:02:53Z</time>
      </trkpt>
      <trkpt lat="45.97062" lon="4.70984">
        <ele>268</ele>
        <time>2018-03-22T16:02:54Z</time>
      </trkpt>
      <trkpt lat="45.97072" lon="4.70983">
        <ele>268</ele>
        <time>2018-03-22T16:02:55Z</time>
      </trkpt>
      <trkpt lat="45.97082" lon="4.70981">
        <ele>267</ele>
        <time>2018-03-22T16:02:56Z</time>
      </trkpt>
      <trkpt lat="45.97092" lon="4.70978">
        <ele>264</ele>
        <time>2018-03-22T16:02:57Z</time>
      </trkpt>
      <trkpt lat="45.97101" lon="4.70975">
        <ele>264</ele>
        <time>2018-03-22T16:02:58Z</time>
      </trkpt>
      <trkpt lat="45.9711" lon="4.70971">
        <ele>264</ele>
        <time>2018-03-22T16:02:59Z</time>
      </trkpt>
      <trkpt lat="45.9712" lon="4.70967">
        <ele>264</ele>
        <time>2018-03-22T16:03:00Z</time>
      </trkpt>
      <trkpt lat="45.97128" lon="4.70964">
        <ele>264</ele>
        <time>2018-03-22T16:03:01Z</time>
      </trkpt>
      <trkpt lat="45.97137" lon="4.7096">
        <ele>263</ele>
        <time>2018-03-22T16:03:02Z</time>
      </trkpt>
      <trkpt lat="45.97146" lon="4.70956">
        <ele>263</ele>
        <time>2018-03-22T16:03:03Z</time>
      </trkpt>
      <trkpt lat="45.97155" lon="4.70951">
        <ele>263</ele>
        <time>2018-03-22T16:03:04Z</time>
      </trkpt>
      <trkpt lat="45.97164" lon="4.70946">
        <ele>263</ele>
        <time>2018-03-22T16:03:05Z</time>
      </trkpt>
      <trkpt lat="45.97173" lon="4.70941">
        <ele>258</ele>
        <time>2018-03-22T16:03:06Z</time>
      </trkpt>
      <trkpt lat="45.97181" lon="4.70935">
        <ele>258</ele>
        <time>2018-03-22T16:03:07Z</time>
      </trkpt>
      <trkpt lat="45.9719" lon="4.7093">
        <ele>258</ele>
        <time>2018-03-22T16:03:08Z</time>
      </trkpt>
      <trkpt lat="45.97199" lon="4.70923">
        <ele>257</ele>
        <time>2018-03-22T16:03:09Z</time>
      </trkpt>
      <trkpt lat="45.97206" lon="4.70917">
        <ele>256</ele>
        <time>2018-03-22T16:03:10Z</time>
      </trkpt>
      <trkpt lat="45.97213" lon="4.7091">
        <ele>260</ele>
        <time>2018-03-22T16:03:11Z</time>
      </trkpt>
      <trkpt lat="45.9722" lon="4.70902">
        <ele>259</ele>
        <time>2018-03-22T16:03:12Z</time>
      </trkpt>
      <trkpt lat="45.97226" lon="4.70894">
        <ele>259</ele>
        <time>2018-03-22T16:03:13Z</time>
      </trkpt>
      <trkpt lat="45.97233" lon="4.70885">
        <ele>259</ele>
        <time>2018-03-22T16:03:14Z</time>
      </trkpt>
      <trkpt lat="45.9724" lon="4.70876">
        <ele>259</ele>
        <time>2018-03-22T16:03:15Z</time>
      </trkpt>
      <trkpt lat="45.97247" lon="4.70865">
        <ele>259</ele>
        <time>2018-03-22T16:03:16Z</time>
      </trkpt>
      <trkpt lat="45.97253" lon="4.70855">
        <ele>253</ele>
        <time>2018-03-22T16:03:17Z</time>
      </trkpt>
      <trkpt lat="45.9726" lon="4.70847">
        <ele>254</ele>
        <time>2018-03-22T16:03:18Z</time>
      </trkpt>
      <trkpt lat="45.97266" lon="4.70837">
        <ele>254</ele>
        <time>2018-03-22T16:03:19Z</time>
      </trkpt>
      <trkpt lat="45.97274" lon="4.70828">
        <ele>255</ele>
        <time>2018-03-22T16:03:20Z</time>
      </trkpt>
      <trkpt lat="45.9728" lon="4.70817">
        <ele>254</ele>
        <time>2018-03-22T16:03:21Z</time>
      </trkpt>
      <trkpt lat="45.97288" lon="4.70809">
        <ele>254</ele>
        <time>2018-03-22T16:03:22Z</time>
      </trkpt>
      <trkpt lat="45.97294" lon="4.708">
        <ele>253</ele>
        <time>2018-03-22T16:03:23Z</time>
      </trkpt>
      <trkpt lat="45.97301" lon="4.70792">
        <ele>253</ele>
        <time>2018-03-22T16:03:24Z</time>
      </trkpt>
      <trkpt lat="45.97308" lon="4.70785">
        <ele>253</ele>
        <time>2018-03-22T16:03:25Z</time>
      </trkpt>
      <trkpt lat="45.97315" lon="4.70779">
        <ele>252</ele>
        <time>2018-03-22T16:03:26Z</time>
      </trkpt>
      <trkpt lat="45.97323" lon="4.70773">
        <ele>252</ele>
        <time>2018-03-22T16:03:27Z</time>
      </trkpt>
      <trkpt lat="45.97331" lon="4.70769">
        <ele>251</ele>
        <time>2018-03-22T16:03:28Z</time>
      </trkpt>
      <trkpt lat="45.97339" lon="4.70764">
        <ele>247</ele>
        <time>2018-03-22T16:03:29Z</time>
      </trkpt>
      <trkpt lat="45.97347" lon="4.70759">
        <ele>246</ele>
        <time>2018-03-22T16:03:30Z</time>
      </trkpt>
      <trkpt lat="45.97356" lon="4.70755">
        <ele>246</ele>
        <time>2018-03-22T16:03:31Z</time>
      </trkpt>
      <trkpt lat="45.97364" lon="4.70751">
        <ele>245</ele>
        <time>2018-03-22T16:03:32Z</time>
      </trkpt>
      <trkpt lat="45.97373" lon="4.70747">
        <ele>244</ele>
        <time>2018-03-22T16:03:33Z</time>
      </trkpt>
      <trkpt lat="45.97382" lon="4.70745">
        <ele>244</ele>
        <time>2018-03-22T16:03:34Z</time>
      </trkpt>
      <trkpt lat="45.9739" lon="4.70744">
        <ele>243</ele>
        <time>2018-03-22T16:03:35Z</time>
      </trkpt>
      <trkpt lat="45.97399" lon="4.70745">
        <ele>242</ele>
        <time>2018-03-22T16:03:36Z</time>
      </trkpt>
      <trkpt lat="45.97408" lon="4.70747">
        <ele>241</ele>
        <time>2018-03-22T16:03:37Z</time>
      </trkpt>
      <trkpt lat="45.97417" lon="4.70748">
        <ele>240</ele>
        <time>2018-03-22T16:03:38Z</time>
      </trkpt>
      <trkpt lat="45.97426" lon="4.70749">
        <ele>239</ele>
        <time>2018-03-22T16:03:39Z</time>
      </trkpt>
      <trkpt lat="45.97434" lon="4.7075">
        <ele>239</ele>
        <time>2018-03-22T16:03:40Z</time>
      </trkpt>
      <trkpt lat="45.97442" lon="4.70751">
        <ele>238</ele>
        <time>2018-03-22T16:03:41Z</time>
      </trkpt>
      <trkpt lat="45.9745" lon="4.70752">
        <ele>238</ele>
        <time>2018-03-22T16:03:42Z</time>
      </trkpt>
      <trkpt lat="45.97457" lon="4.70751">
        <ele>237</ele>
        <time>2018-03-22T16:03:43Z</time>
      </trkpt>
      <trkpt lat="45.97464" lon="4.70751">
        <ele>237</ele>
        <time>2018-03-22T16:03:44Z</time>
      </trkpt>
      <trkpt lat="45.97469" lon="4.70748">
        <ele>238</ele>
        <time>2018-03-22T16:03:45Z</time>
      </trkpt>
      <trkpt lat="45.97473" lon="4.70747">
        <ele>237</ele>
        <time>2018-03-22T16:03:46Z</time>
      </trkpt>
      <trkpt lat="45.97478" lon="4.70746">
        <ele>237</ele>
        <time>2018-03-22T16:03:47Z</time>
      </trkpt>
      <trkpt lat="45.97483" lon="4.70745">
        <ele>237</ele>
        <time>2018-03-22T16:03:48Z</time>
      </trkpt>
      <trkpt lat="45.97488" lon="4.70744">
        <ele>237</ele>
        <time>2018-03-22T16:03:49Z</time>
      </trkpt>
      <trkpt lat="45.97493" lon="4.70743">
        <ele>237</ele>
        <time>2018-03-22T16:03:50Z</time>
      </trkpt>
      <trkpt lat="45.97499" lon="4.70742">
        <ele>237</ele>
        <time>2018-03-22T16:03:51Z</time>
      </trkpt>
      <trkpt lat="45.97504" lon="4.70739">
        <ele>235</ele>
        <time>2018-03-22T16:03:52Z</time>
      </trkpt>
      <trkpt lat="45.97509" lon="4.70738">
        <ele>235</ele>
        <time>2018-03-22T16:03:53Z</time>
      </trkpt>
      <trkpt lat="45.97515" lon="4.70736">
        <ele>235</ele>
        <time>2018-03-22T16:03:54Z</time>
      </trkpt>
      <trkpt lat="45.9752" lon="4.70736">
        <ele>234</ele>
        <time>2018-03-22T16:03:55Z</time>
      </trkpt>
      <trkpt lat="45.97525" lon="4.70736">
        <ele>234</ele>
        <time>2018-03-22T16:03:56Z</time>
      </trkpt>
      <trkpt lat="45.97534" lon="4.70734">
        <ele>234</ele>
        <time>2018-03-22T16:03:57Z</time>
      </trkpt>
      <trkpt lat="45.97541" lon="4.70734">
        <ele>234</ele>
        <time>2018-03-22T16:03:58Z</time>
      </trkpt>
      <trkpt lat="45.97548" lon="4.70732">
        <ele>233</ele>
        <time>2018-03-22T16:03:59Z</time>
      </trkpt>
      <trkpt lat="45.97555" lon="4.70731">
        <ele>233</ele>
        <time>2018-03-22T16:04:00Z</time>
      </trkpt>
      <trkpt lat="45.97562" lon="4.70731">
        <ele>233</ele>
        <time>2018-03-22T16:04:01Z</time>
      </trkpt>
      <trkpt lat="45.97569" lon="4.7073">
        <ele>233</ele>
        <time>2018-03-22T16:04:02Z</time>
      </trkpt>
      <trkpt lat="45.97576" lon="4.70728">
        <ele>232</ele>
        <time>2018-03-22T16:04:03Z</time>
      </trkpt>
      <trkpt lat="45.97583" lon="4.70727">
        <ele>229</ele>
        <time>2018-03-22T16:04:04Z</time>
      </trkpt>
      <trkpt lat="45.97593" lon="4.70725">
        <ele>229</ele>
        <time>2018-03-22T16:04:05Z</time>
      </trkpt>
      <trkpt lat="45.976" lon="4.70726">
        <ele>229</ele>
        <time>2018-03-22T16:04:06Z</time>
      </trkpt>
      <trkpt lat="45.97609" lon="4.7073">
        <ele>229</ele>
        <time>2018-03-22T16:04:07Z</time>
      </trkpt>
      <trkpt lat="45.97616" lon="4.70732">
        <ele>228</ele>
        <time>2018-03-22T16:04:08Z</time>
      </trkpt>
      <trkpt lat="45.97623" lon="4.70734">
        <ele>228</ele>
        <time>2018-03-22T16:04:09Z</time>
      </trkpt>
      <trkpt lat="45.97632" lon="4.70737">
        <ele>227</ele>
        <time>2018-03-22T16:04:10Z</time>
      </trkpt>
      <trkpt lat="45.9764" lon="4.7074">
        <ele>227</ele>
        <time>2018-03-22T16:04:11Z</time>
      </trkpt>
      <trkpt lat="45.97647" lon="4.70744">
        <ele>226</ele>
        <time>2018-03-22T16:04:12Z</time>
      </trkpt>
      <trkpt lat="45.97655" lon="4.70747">
        <ele>226</ele>
        <time>2018-03-22T16:04:13Z</time>
      </trkpt>
      <trkpt lat="45.97663" lon="4.70749">
        <ele>225</ele>
        <time>2018-03-22T16:04:14Z</time>
      </trkpt>
      <trkpt lat="45.97671" lon="4.70753">
        <ele>224</ele>
        <time>2018-03-22T16:04:15Z</time>
      </trkpt>
      <trkpt lat="45.97679" lon="4.70755">
        <ele>223</ele>
        <time>2018-03-22T16:04:16Z</time>
      </trkpt>
      <trkpt lat="45.97687" lon="4.70759">
        <ele>223</ele>
        <time>2018-03-22T16:04:17Z</time>
      </trkpt>
      <trkpt lat="45.97695" lon="4.70762">
        <ele>223</ele>
        <time>2018-03-22T16:04:18Z</time>
      </trkpt>
      <trkpt lat="45.97703" lon="4.70765">
        <ele>223</ele>
        <time>2018-03-22T16:04:19Z</time>
      </trkpt>
      <trkpt lat="45.97711" lon="4.70768">
        <ele>223</ele>
        <time>2018-03-22T16:04:20Z</time>
      </trkpt>
      <trkpt lat="45.97718" lon="4.70771">
        <ele>222</ele>
        <time>2018-03-22T16:04:21Z</time>
      </trkpt>
      <trkpt lat="45.97724" lon="4.70773">
        <ele>222</ele>
        <time>2018-03-22T16:04:22Z</time>
      </trkpt>
      <trkpt lat="45.9773" lon="4.70775">
        <ele>222</ele>
        <time>2018-03-22T16:04:23Z</time>
      </trkpt>
      <trkpt lat="45.97736" lon="4.70776">
        <ele>222</ele>
        <time>2018-03-22T16:04:24Z</time>
      </trkpt>
      <trkpt lat="45.97742" lon="4.70778">
        <ele>222</ele>
        <time>2018-03-22T16:04:25Z</time>
      </trkpt>
      <trkpt lat="45.97748" lon="4.7078">
        <ele>222</ele>
        <time>2018-03-22T16:04:26Z</time>
      </trkpt>
      <trkpt lat="45.97753" lon="4.70781">
        <ele>221</ele>
        <time>2018-03-22T16:04:27Z</time>
      </trkpt>
      <trkpt lat="45.97758" lon="4.70781">
        <ele>221</ele>
        <time>2018-03-22T16:04:28Z</time>
      </trkpt>
      <trkpt lat="45.97763" lon="4.70782">
        <ele>221</ele>
        <time>2018-03-22T16:04:29Z</time>
      </trkpt>
      <trkpt lat="45.97768" lon="4.70784">
        <ele>221</ele>
        <time>2018-03-22T16:04:30Z</time>
      </trkpt>
      <trkpt lat="45.97773" lon="4.70786">
        <ele>221</ele>
        <time>2018-03-22T16:04:31Z</time>
      </trkpt>
      <trkpt lat="45.97779" lon="4.70789">
        <ele>221</ele>
        <time>2018-03-22T16:04:32Z</time>
      </trkpt>
      <trkpt lat="45.97784" lon="4.70794">
        <ele>221</ele>
        <time>2018-03-22T16:04:33Z</time>
      </trkpt>
      <trkpt lat="45.9779" lon="4.70798">
        <ele>221</ele>
        <time>2018-03-22T16:04:34Z</time>
      </trkpt>
      <trkpt lat="45.97795" lon="4.70803">
        <ele>221</ele>
        <time>2018-03-22T16:04:35Z</time>
      </trkpt>
      <trkpt lat="45.97801" lon="4.70808">
        <ele>221</ele>
        <time>2018-03-22T16:04:36Z</time>
      </trkpt>
      <trkpt lat="45.97804" lon="4.70814">
        <ele>221</ele>
        <time>2018-03-22T16:04:37Z</time>
      </trkpt>
      <trkpt lat="45.97808" lon="4.70821">
        <ele>221</ele>
        <time>2018-03-22T16:04:38Z</time>
      </trkpt>
      <trkpt lat="45.9781" lon="4.70829">
        <ele>221</ele>
        <time>2018-03-22T16:04:39Z</time>
      </trkpt>
      <trkpt lat="45.97813" lon="4.70838">
        <ele>220</ele>
        <time>2018-03-22T16:04:40Z</time>
      </trkpt>
      <trkpt lat="45.97815" lon="4.70847">
        <ele>220</ele>
        <time>2018-03-22T16:04:41Z</time>
      </trkpt>
      <trkpt lat="45.97817" lon="4.70856">
        <ele>220</ele>
        <time>2018-03-22T16:04:42Z</time>
      </trkpt>
      <trkpt lat="45.97819" lon="4.70865">
        <ele>220</ele>
        <time>2018-03-22T16:04:43Z</time>
      </trkpt>
      <trkpt lat="45.97819" lon="4.70872">
        <ele>220</ele>
        <time>2018-03-22T16:04:44Z</time>
      </trkpt>
      <trkpt lat="45.9782" lon="4.70879">
        <ele>220</ele>
        <time>2018-03-22T16:04:45Z</time>
      </trkpt>
      <trkpt lat="45.97821" lon="4.70891">
        <ele>220</ele>
        <time>2018-03-22T16:04:48Z</time>
      </trkpt>
      <trkpt lat="45.97821" lon="4.70894">
        <ele>220</ele>
        <time>2018-03-22T16:04:49Z</time>
      </trkpt>
      <trkpt lat="45.97821" lon="4.70903">
        <ele>220</ele>
        <time>2018-03-22T16:04:52Z</time>
      </trkpt>
      <trkpt lat="45.97821" lon="4.70907">
        <ele>219</ele>
        <time>2018-03-22T16:04:53Z</time>
      </trkpt>
      <trkpt lat="45.97819" lon="4.70918">
        <ele>219</ele>
        <time>2018-03-22T16:04:54Z</time>
      </trkpt>
      <trkpt lat="45.97818" lon="4.70924">
        <ele>219</ele>
        <time>2018-03-22T16:04:55Z</time>
      </trkpt>
      <trkpt lat="45.97822" lon="4.70936">
        <ele>218</ele>
        <time>2018-03-22T16:04:57Z</time>
      </trkpt>
      <trkpt lat="45.97823" lon="4.70942">
        <ele>218</ele>
        <time>2018-03-22T16:04:58Z</time>
      </trkpt>
      <trkpt lat="45.97826" lon="4.70948">
        <ele>218</ele>
        <time>2018-03-22T16:04:59Z</time>
      </trkpt>
      <trkpt lat="45.97827" lon="4.70955">
        <ele>218</ele>
        <time>2018-03-22T16:05:00Z</time>
      </trkpt>
      <trkpt lat="45.97829" lon="4.70963">
        <ele>218</ele>
        <time>2018-03-22T16:05:01Z</time>
      </trkpt>
      <trkpt lat="45.9783" lon="4.70971">
        <ele>218</ele>
        <time>2018-03-22T16:05:02Z</time>
      </trkpt>
      <trkpt lat="45.97831" lon="4.70979">
        <ele>217</ele>
        <time>2018-03-22T16:05:03Z</time>
      </trkpt>
      <trkpt lat="45.97832" lon="4.70986">
        <ele>217</ele>
        <time>2018-03-22T16:05:04Z</time>
      </trkpt>
      <trkpt lat="45.97833" lon="4.70993">
        <ele>217</ele>
        <time>2018-03-22T16:05:05Z</time>
      </trkpt>
      <trkpt lat="45.97834" lon="4.70999">
        <ele>216</ele>
        <time>2018-03-22T16:05:06Z</time>
      </trkpt>
      <trkpt lat="45.97834" lon="4.71006">
        <ele>216</ele>
        <time>2018-03-22T16:05:07Z</time>
      </trkpt>
      <trkpt lat="45.97835" lon="4.71012">
        <ele>216</ele>
        <time>2018-03-22T16:05:08Z</time>
      </trkpt>
      <trkpt lat="45.97836" lon="4.71025">
        <ele>216</ele>
        <time>2018-03-22T16:05:10Z</time>
      </trkpt>
      <trkpt lat="45.97836" lon="4.71028">
        <ele>216</ele>
        <time>2018-03-22T16:05:11Z</time>
      </trkpt>
      <trkpt lat="45.97837" lon="4.7104">
        <ele>216</ele>
        <time>2018-03-22T16:05:14Z</time>
      </trkpt>
      <trkpt lat="45.97837" lon="4.71044">
        <ele>215</ele>
        <time>2018-03-22T16:05:15Z</time>
      </trkpt>
      <trkpt lat="45.97838" lon="4.71055">
        <ele>215</ele>
        <time>2018-03-22T16:05:18Z</time>
      </trkpt>
      <trkpt lat="45.97838" lon="4.71068">
        <ele>215</ele>
        <time>2018-03-22T16:05:19Z</time>
      </trkpt>
      <trkpt lat="45.97838" lon="4.71074">
        <ele>215</ele>
        <time>2018-03-22T16:05:20Z</time>
      </trkpt>
      <trkpt lat="45.97839" lon="4.71081">
        <ele>214</ele>
        <time>2018-03-22T16:05:21Z</time>
      </trkpt>
      <trkpt lat="45.9784" lon="4.71092">
        <ele>214</ele>
        <time>2018-03-22T16:05:23Z</time>
      </trkpt>
      <trkpt lat="45.97841" lon="4.71097">
        <ele>213</ele>
        <time>2018-03-22T16:05:24Z</time>
      </trkpt>
      <trkpt lat="45.97843" lon="4.71107">
        <ele>213</ele>
        <time>2018-03-22T16:05:27Z</time>
      </trkpt>
      <trkpt lat="45.97843" lon="4.7111">
        <ele>213</ele>
        <time>2018-03-22T16:05:28Z</time>
      </trkpt>
      <trkpt lat="45.97844" lon="4.71116">
        <ele>213</ele>
        <time>2018-03-22T16:05:30Z</time>
      </trkpt>
      <trkpt lat="45.97846" lon="4.71127">
        <ele>212</ele>
        <time>2018-03-22T16:05:31Z</time>
      </trkpt>
      <trkpt lat="45.97847" lon="4.71133">
        <ele>212</ele>
        <time>2018-03-22T16:05:32Z</time>
      </trkpt>
      <trkpt lat="45.97848" lon="4.7114">
        <ele>212</ele>
        <time>2018-03-22T16:05:33Z</time>
      </trkpt>
      <trkpt lat="45.97848" lon="4.71147">
        <ele>212</ele>
        <time>2018-03-22T16:05:34Z</time>
      </trkpt>
      <trkpt lat="45.97849" lon="4.71157">
        <ele>212</ele>
        <time>2018-03-22T16:05:35Z</time>
      </trkpt>
      <trkpt lat="45.9785" lon="4.71166">
        <ele>212</ele>
        <time>2018-03-22T16:05:36Z</time>
      </trkpt>
      <trkpt lat="45.9785" lon="4.71175">
        <ele>210</ele>
        <time>2018-03-22T16:05:37Z</time>
      </trkpt>
      <trkpt lat="45.97851" lon="4.71184">
        <ele>209</ele>
        <time>2018-03-22T16:05:38Z</time>
      </trkpt>
      <trkpt lat="45.97851" lon="4.71192">
        <ele>209</ele>
        <time>2018-03-22T16:05:39Z</time>
      </trkpt>
      <trkpt lat="45.97852" lon="4.71201">
        <ele>209</ele>
        <time>2018-03-22T16:05:40Z</time>
      </trkpt>
      <trkpt lat="45.97852" lon="4.71211">
        <ele>209</ele>
        <time>2018-03-22T16:05:41Z</time>
      </trkpt>
      <trkpt lat="45.97852" lon="4.71222">
        <ele>208</ele>
        <time>2018-03-22T16:05:42Z</time>
      </trkpt>
      <trkpt lat="45.97851" lon="4.71233">
        <ele>208</ele>
        <time>2018-03-22T16:05:43Z</time>
      </trkpt>
      <trkpt lat="45.97851" lon="4.71244">
        <ele>208</ele>
        <time>2018-03-22T16:05:44Z</time>
      </trkpt>
      <trkpt lat="45.97851" lon="4.71254">
        <ele>207</ele>
        <time>2018-03-22T16:05:45Z</time>
      </trkpt>
      <trkpt lat="45.97852" lon="4.71265">
        <ele>206</ele>
        <time>2018-03-22T16:05:46Z</time>
      </trkpt>
      <trkpt lat="45.97852" lon="4.71277">
        <ele>206</ele>
        <time>2018-03-22T16:05:47Z</time>
      </trkpt>
      <trkpt lat="45.97851" lon="4.71288">
        <ele>206</ele>
        <time>2018-03-22T16:05:48Z</time>
      </trkpt>
      <trkpt lat="45.97851" lon="4.71298">
        <ele>206</ele>
        <time>2018-03-22T16:05:49Z</time>
      </trkpt>
      <trkpt lat="45.97851" lon="4.71309">
        <ele>205</ele>
        <time>2018-03-22T16:05:50Z</time>
      </trkpt>
      <trkpt lat="45.97851" lon="4.71321">
        <ele>205</ele>
        <time>2018-03-22T16:05:51Z</time>
      </trkpt>
      <trkpt lat="45.97851" lon="4.71331">
        <ele>205</ele>
        <time>2018-03-22T16:05:52Z</time>
      </trkpt>
      <trkpt lat="45.97851" lon="4.71342">
        <ele>204</ele>
        <time>2018-03-22T16:05:53Z</time>
      </trkpt>
      <trkpt lat="45.9785" lon="4.71353">
        <ele>204</ele>
        <time>2018-03-22T16:05:54Z</time>
      </trkpt>
      <trkpt lat="45.97851" lon="4.71364">
        <ele>204</ele>
        <time>2018-03-22T16:05:55Z</time>
      </trkpt>
      <trkpt lat="45.97851" lon="4.71374">
        <ele>203</ele>
        <time>2018-03-22T16:05:56Z</time>
      </trkpt>
      <trkpt lat="45.97852" lon="4.71384">
        <ele>203</ele>
        <time>2018-03-22T16:05:57Z</time>
      </trkpt>
      <trkpt lat="45.97853" lon="4.71394">
        <ele>203</ele>
        <time>2018-03-22T16:05:58Z</time>
      </trkpt>
      <trkpt lat="45.97853" lon="4.71403">
        <ele>203</ele>
        <time>2018-03-22T16:05:59Z</time>
      </trkpt>
      <trkpt lat="45.97855" lon="4.71413">
        <ele>203</ele>
        <time>2018-03-22T16:06:00Z</time>
      </trkpt>
      <trkpt lat="45.97856" lon="4.71423">
        <ele>201</ele>
        <time>2018-03-22T16:06:01Z</time>
      </trkpt>
      <trkpt lat="45.97859" lon="4.71434">
        <ele>201</ele>
        <time>2018-03-22T16:06:02Z</time>
      </trkpt>
      <trkpt lat="45.97861" lon="4.71445">
        <ele>201</ele>
        <time>2018-03-22T16:06:03Z</time>
      </trkpt>
      <trkpt lat="45.97862" lon="4.71455">
        <ele>201</ele>
        <time>2018-03-22T16:06:04Z</time>
      </trkpt>
      <trkpt lat="45.97863" lon="4.71465">
        <ele>201</ele>
        <time>2018-03-22T16:06:05Z</time>
      </trkpt>
      <trkpt lat="45.97866" lon="4.71474">
        <ele>201</ele>
        <time>2018-03-22T16:06:06Z</time>
      </trkpt>
      <trkpt lat="45.97868" lon="4.71484">
        <ele>201</ele>
        <time>2018-03-22T16:06:07Z</time>
      </trkpt>
      <trkpt lat="45.9787" lon="4.71494">
        <ele>201</ele>
        <time>2018-03-22T16:06:08Z</time>
      </trkpt>
      <trkpt lat="45.97871" lon="4.71504">
        <ele>199</ele>
        <time>2018-03-22T16:06:09Z</time>
      </trkpt>
      <trkpt lat="45.97873" lon="4.71515">
        <ele>199</ele>
        <time>2018-03-22T16:06:10Z</time>
      </trkpt>
      <trkpt lat="45.97875" lon="4.71525">
        <ele>199</ele>
        <time>2018-03-22T16:06:11Z</time>
      </trkpt>
      <trkpt lat="45.97876" lon="4.71535">
        <ele>199</ele>
        <time>2018-03-22T16:06:12Z</time>
      </trkpt>
      <trkpt lat="45.97878" lon="4.71546">
        <ele>199</ele>
        <time>2018-03-22T16:06:13Z</time>
      </trkpt>
      <trkpt lat="45.9788" lon="4.71556">
        <ele>198</ele>
        <time>2018-03-22T16:06:14Z</time>
      </trkpt>
      <trkpt lat="45.97881" lon="4.71566">
        <ele>198</ele>
        <time>2018-03-22T16:06:15Z</time>
      </trkpt>
      <trkpt lat="45.97881" lon="4.71576">
        <ele>198</ele>
        <time>2018-03-22T16:06:16Z</time>
      </trkpt>
      <trkpt lat="45.97882" lon="4.71586">
        <ele>197</ele>
        <time>2018-03-22T16:06:17Z</time>
      </trkpt>
      <trkpt lat="45.97881" lon="4.71596">
        <ele>197</ele>
        <time>2018-03-22T16:06:18Z</time>
      </trkpt>
      <trkpt lat="45.97883" lon="4.71606">
        <ele>197</ele>
        <time>2018-03-22T16:06:19Z</time>
      </trkpt>
      <trkpt lat="45.97883" lon="4.71615">
        <ele>197</ele>
        <time>2018-03-22T16:06:20Z</time>
      </trkpt>
      <trkpt lat="45.97882" lon="4.71624">
        <ele>197</ele>
        <time>2018-03-22T16:06:21Z</time>
      </trkpt>
      <trkpt lat="45.97881" lon="4.71632">
        <ele>197</ele>
        <time>2018-03-22T16:06:22Z</time>
      </trkpt>
      <trkpt lat="45.9788" lon="4.71641">
        <ele>197</ele>
        <time>2018-03-22T16:06:23Z</time>
      </trkpt>
      <trkpt lat="45.97878" lon="4.7165">
        <ele>197</ele>
        <time>2018-03-22T16:06:24Z</time>
      </trkpt>
      <trkpt lat="45.97877" lon="4.71659">
        <ele>197</ele>
        <time>2018-03-22T16:06:25Z</time>
      </trkpt>
      <trkpt lat="45.97873" lon="4.71667">
        <ele>196</ele>
        <time>2018-03-22T16:06:26Z</time>
      </trkpt>
      <trkpt lat="45.9787" lon="4.71675">
        <ele>196</ele>
        <time>2018-03-22T16:06:27Z</time>
      </trkpt>
      <trkpt lat="45.97868" lon="4.71684">
        <ele>196</ele>
        <time>2018-03-22T16:06:28Z</time>
      </trkpt>
      <trkpt lat="45.97867" lon="4.71693">
        <ele>196</ele>
        <time>2018-03-22T16:06:29Z</time>
      </trkpt>
      <trkpt lat="45.97866" lon="4.71702">
        <ele>196</ele>
        <time>2018-03-22T16:06:30Z</time>
      </trkpt>
      <trkpt lat="45.97865" lon="4.7171">
        <ele>196</ele>
        <time>2018-03-22T16:06:31Z</time>
      </trkpt>
      <trkpt lat="45.97861" lon="4.71716">
        <ele>196</ele>
        <time>2018-03-22T16:06:32Z</time>
      </trkpt>
      <trkpt lat="45.97857" lon="4.71722">
        <ele>196</ele>
        <time>2018-03-22T16:06:33Z</time>
      </trkpt>
      <trkpt lat="45.97852" lon="4.71728">
        <ele>196</ele>
        <time>2018-03-22T16:06:34Z</time>
      </trkpt>
      <trkpt lat="45.97848" lon="4.71734">
        <ele>196</ele>
        <time>2018-03-22T16:06:35Z</time>
      </trkpt>
      <trkpt lat="45.97843" lon="4.7174">
        <ele>195</ele>
        <time>2018-03-22T16:06:36Z</time>
      </trkpt>
      <trkpt lat="45.97838" lon="4.71743">
        <ele>195</ele>
        <time>2018-03-22T16:06:37Z</time>
      </trkpt>
      <trkpt lat="45.97831" lon="4.71745">
        <ele>195</ele>
        <time>2018-03-22T16:06:38Z</time>
      </trkpt>
      <trkpt lat="45.97825" lon="4.71744">
        <ele>195</ele>
        <time>2018-03-22T16:06:39Z</time>
      </trkpt>
      <trkpt lat="45.97818" lon="4.71743">
        <ele>196</ele>
        <time>2018-03-22T16:06:40Z</time>
      </trkpt>
      <trkpt lat="45.97812" lon="4.71742">
        <ele>196</ele>
        <time>2018-03-22T16:06:41Z</time>
      </trkpt>
      <trkpt lat="45.97806" lon="4.71742">
        <ele>196</ele>
        <time>2018-03-22T16:06:42Z</time>
      </trkpt>
      <trkpt lat="45.978" lon="4.7174">
        <ele>196</ele>
        <time>2018-03-22T16:06:43Z</time>
      </trkpt>
      <trkpt lat="45.97793" lon="4.71739">
        <ele>196</ele>
        <time>2018-03-22T16:06:44Z</time>
      </trkpt>
      <trkpt lat="45.97787" lon="4.71739">
        <ele>196</ele>
        <time>2018-03-22T16:06:45Z</time>
      </trkpt>
      <trkpt lat="45.9778" lon="4.71737">
        <ele>196</ele>
        <time>2018-03-22T16:06:46Z</time>
      </trkpt>
      <trkpt lat="45.97773" lon="4.71737">
        <ele>196</ele>
        <time>2018-03-22T16:06:47Z</time>
      </trkpt>
      <trkpt lat="45.97766" lon="4.71736">
        <ele>196</ele>
        <time>2018-03-22T16:06:48Z</time>
      </trkpt>
      <trkpt lat="45.9776" lon="4.71735">
        <ele>196</ele>
        <time>2018-03-22T16:06:49Z</time>
      </trkpt>
      <trkpt lat="45.97753" lon="4.71735">
        <ele>196</ele>
        <time>2018-03-22T16:06:50Z</time>
      </trkpt>
      <trkpt lat="45.97747" lon="4.71735">
        <ele>196</ele>
        <time>2018-03-22T16:06:51Z</time>
      </trkpt>
      <trkpt lat="45.97741" lon="4.71734">
        <ele>196</ele>
        <time>2018-03-22T16:06:52Z</time>
      </trkpt>
      <trkpt lat="45.97735" lon="4.71734">
        <ele>196</ele>
        <time>2018-03-22T16:06:53Z</time>
      </trkpt>
      <trkpt lat="45.97729" lon="4.71732">
        <ele>196</ele>
        <time>2018-03-22T16:06:54Z</time>
      </trkpt>
      <trkpt lat="45.97723" lon="4.71732">
        <ele>196</ele>
        <time>2018-03-22T16:06:55Z</time>
      </trkpt>
      <trkpt lat="45.97718" lon="4.71732">
        <ele>196</ele>
        <time>2018-03-22T16:06:56Z</time>
      </trkpt>
      <trkpt lat="45.97714" lon="4.7173">
        <ele>196</ele>
        <time>2018-03-22T16:06:57Z</time>
      </trkpt>
      <trkpt lat="45.9771" lon="4.71729">
        <ele>196</ele>
        <time>2018-03-22T16:06:58Z</time>
      </trkpt>
      <trkpt lat="45.97704" lon="4.71728">
        <ele>196</ele>
        <time>2018-03-22T16:06:59Z</time>
      </trkpt>
      <trkpt lat="45.97699" lon="4.71727">
        <ele>196</ele>
        <time>2018-03-22T16:07:00Z</time>
      </trkpt>
      <trkpt lat="45.97693" lon="4.71726">
        <ele>196</ele>
        <time>2018-03-22T16:07:01Z</time>
      </trkpt>
      <trkpt lat="45.97687" lon="4.71726">
        <ele>196</ele>
        <time>2018-03-22T16:07:02Z</time>
      </trkpt>
      <trkpt lat="45.97681" lon="4.71727">
        <ele>196</ele>
        <time>2018-03-22T16:07:03Z</time>
      </trkpt>
      <trkpt lat="45.97674" lon="4.71727">
        <ele>196</ele>
        <time>2018-03-22T16:07:04Z</time>
      </trkpt>
      <trkpt lat="45.97667" lon="4.71728">
        <ele>196</ele>
        <time>2018-03-22T16:07:05Z</time>
      </trkpt>
      <trkpt lat="45.97662" lon="4.71729">
        <ele>196</ele>
        <time>2018-03-22T16:07:06Z</time>
      </trkpt>
      <trkpt lat="45.97656" lon="4.7173">
        <ele>196</ele>
        <time>2018-03-22T16:07:07Z</time>
      </trkpt>
      <trkpt lat="45.9765" lon="4.71727">
        <ele>196</ele>
        <time>2018-03-22T16:07:08Z</time>
      </trkpt>
      <trkpt lat="45.97643" lon="4.71725">
        <ele>196</ele>
        <time>2018-03-22T16:07:09Z</time>
      </trkpt>
      <trkpt lat="45.97636" lon="4.71718">
        <ele>197</ele>
        <time>2018-03-22T16:07:11Z</time>
      </trkpt>
      <trkpt lat="45.97633" lon="4.71715">
        <ele>197</ele>
        <time>2018-03-22T16:07:12Z</time>
      </trkpt>
      <trkpt lat="45.97629" lon="4.71712">
        <ele>197</ele>
        <time>2018-03-22T16:07:13Z</time>
      </trkpt>
      <trkpt lat="45.97624" lon="4.7171">
        <ele>197</ele>
        <time>2018-03-22T16:07:14Z</time>
      </trkpt>
      <trkpt lat="45.97619" lon="4.71711">
        <ele>197</ele>
        <time>2018-03-22T16:07:15Z</time>
      </trkpt>
      <trkpt lat="45.97613" lon="4.71713">
        <ele>197</ele>
        <time>2018-03-22T16:07:16Z</time>
      </trkpt>
      <trkpt lat="45.97609" lon="4.71715">
        <ele>197</ele>
        <time>2018-03-22T16:07:17Z</time>
      </trkpt>
      <trkpt lat="45.97604" lon="4.71718">
        <ele>197</ele>
        <time>2018-03-22T16:07:18Z</time>
      </trkpt>
      <trkpt lat="45.97599" lon="4.7172">
        <ele>197</ele>
        <time>2018-03-22T16:07:19Z</time>
      </trkpt>
      <trkpt lat="45.97594" lon="4.71721">
        <ele>197</ele>
        <time>2018-03-22T16:07:20Z</time>
      </trkpt>
      <trkpt lat="45.97587" lon="4.71721">
        <ele>197</ele>
        <time>2018-03-22T16:07:21Z</time>
      </trkpt>
      <trkpt lat="45.97579" lon="4.71721">
        <ele>197</ele>
        <time>2018-03-22T16:07:22Z</time>
      </trkpt>
      <trkpt lat="45.97573" lon="4.71721">
        <ele>198</ele>
        <time>2018-03-22T16:07:23Z</time>
      </trkpt>
      <trkpt lat="45.97566" lon="4.7172">
        <ele>198</ele>
        <time>2018-03-22T16:07:24Z</time>
      </trkpt>
      <trkpt lat="45.9756" lon="4.71719">
        <ele>198</ele>
        <time>2018-03-22T16:07:25Z</time>
      </trkpt>
      <trkpt lat="45.97554" lon="4.71719">
        <ele>198</ele>
        <time>2018-03-22T16:07:26Z</time>
      </trkpt>
      <trkpt lat="45.97549" lon="4.71718">
        <ele>198</ele>
        <time>2018-03-22T16:07:27Z</time>
      </trkpt>
      <trkpt lat="45.97542" lon="4.71717">
        <ele>198</ele>
        <time>2018-03-22T16:07:28Z</time>
      </trkpt>
      <trkpt lat="45.97536" lon="4.71716">
        <ele>198</ele>
        <time>2018-03-22T16:07:29Z</time>
      </trkpt>
      <trkpt lat="45.9753" lon="4.71715">
        <ele>198</ele>
        <time>2018-03-22T16:07:30Z</time>
      </trkpt>
      <trkpt lat="45.97524" lon="4.71715">
        <ele>198</ele>
        <time>2018-03-22T16:07:31Z</time>
      </trkpt>
      <trkpt lat="45.97519" lon="4.71715">
        <ele>198</ele>
        <time>2018-03-22T16:07:32Z</time>
      </trkpt>
      <trkpt lat="45.97514" lon="4.71715">
        <ele>198</ele>
        <time>2018-03-22T16:07:33Z</time>
      </trkpt>
      <trkpt lat="45.97509" lon="4.71714">
        <ele>199</ele>
        <time>2018-03-22T16:07:34Z</time>
      </trkpt>
      <trkpt lat="45.97503" lon="4.71713">
        <ele>199</ele>
        <time>2018-03-22T16:07:35Z</time>
      </trkpt>
      <trkpt lat="45.97497" lon="4.71712">
        <ele>198</ele>
        <time>2018-03-22T16:07:36Z</time>
      </trkpt>
      <trkpt lat="45.97493" lon="4.7171">
        <ele>198</ele>
        <time>2018-03-22T16:07:37Z</time>
      </trkpt>
      <trkpt lat="45.97487" lon="4.71709">
        <ele>198</ele>
        <time>2018-03-22T16:07:38Z</time>
      </trkpt>
      <trkpt lat="45.97481" lon="4.71708">
        <ele>198</ele>
        <time>2018-03-22T16:07:39Z</time>
      </trkpt>
      <trkpt lat="45.97475" lon="4.71707">
        <ele>198</ele>
        <time>2018-03-22T16:07:40Z</time>
      </trkpt>
      <trkpt lat="45.97469" lon="4.71707">
        <ele>198</ele>
        <time>2018-03-22T16:07:41Z</time>
      </trkpt>
      <trkpt lat="45.97462" lon="4.71708">
        <ele>197</ele>
        <time>2018-03-22T16:07:42Z</time>
      </trkpt>
      <trkpt lat="45.97456" lon="4.71708">
        <ele>197</ele>
        <time>2018-03-22T16:07:43Z</time>
      </trkpt>
      <trkpt lat="45.97449" lon="4.71707">
        <ele>197</ele>
        <time>2018-03-22T16:07:44Z</time>
      </trkpt>
      <trkpt lat="45.97443" lon="4.71707">
        <ele>197</ele>
        <time>2018-03-22T16:07:45Z</time>
      </trkpt>
      <trkpt lat="45.97436" lon="4.71706">
        <ele>197</ele>
        <time>2018-03-22T16:07:46Z</time>
      </trkpt>
      <trkpt lat="45.97429" lon="4.71706">
        <ele>197</ele>
        <time>2018-03-22T16:07:47Z</time>
      </trkpt>
      <trkpt lat="45.97422" lon="4.71705">
        <ele>197</ele>
        <time>2018-03-22T16:07:48Z</time>
      </trkpt>
      <trkpt lat="45.97415" lon="4.71706">
        <ele>195</ele>
        <time>2018-03-22T16:07:49Z</time>
      </trkpt>
      <trkpt lat="45.97409" lon="4.71705">
        <ele>195</ele>
        <time>2018-03-22T16:07:50Z</time>
      </trkpt>
      <trkpt lat="45.97401" lon="4.71705">
        <ele>195</ele>
        <time>2018-03-22T16:07:51Z</time>
      </trkpt>
      <trkpt lat="45.97395" lon="4.71704">
        <ele>195</ele>
        <time>2018-03-22T16:07:52Z</time>
      </trkpt>
      <trkpt lat="45.97389" lon="4.71704">
        <ele>195</ele>
        <time>2018-03-22T16:07:53Z</time>
      </trkpt>
      <trkpt lat="45.97383" lon="4.71703">
        <ele>195</ele>
        <time>2018-03-22T16:07:54Z</time>
      </trkpt>
      <trkpt lat="45.97377" lon="4.71704">
        <ele>195</ele>
        <time>2018-03-22T16:07:55Z</time>
      </trkpt>
      <trkpt lat="45.97371" lon="4.71704">
        <ele>195</ele>
        <time>2018-03-22T16:07:56Z</time>
      </trkpt>
      <trkpt lat="45.97364" lon="4.71704">
        <ele>195</ele>
        <time>2018-03-22T16:07:57Z</time>
      </trkpt>
      <trkpt lat="45.97358" lon="4.71705">
        <ele>195</ele>
        <time>2018-03-22T16:07:58Z</time>
      </trkpt>
      <trkpt lat="45.97352" lon="4.71705">
        <ele>195</ele>
        <time>2018-03-22T16:07:59Z</time>
      </trkpt>
      <trkpt lat="45.97346" lon="4.71705">
        <ele>195</ele>
        <time>2018-03-22T16:08:00Z</time>
      </trkpt>
      <trkpt lat="45.97341" lon="4.71705">
        <ele>195</ele>
        <time>2018-03-22T16:08:01Z</time>
      </trkpt>
      <trkpt lat="45.97337" lon="4.71704">
        <ele>195</ele>
        <time>2018-03-22T16:08:02Z</time>
      </trkpt>
      <trkpt lat="45.9733" lon="4.71704">
        <ele>196</ele>
        <time>2018-03-22T16:08:05Z</time>
      </trkpt>
      <trkpt lat="45.97323" lon="4.71702">
        <ele>196</ele>
        <time>2018-03-22T16:08:06Z</time>
      </trkpt>
      <trkpt lat="45.97316" lon="4.71696">
        <ele>196</ele>
        <time>2018-03-22T16:08:08Z</time>
      </trkpt>
      <trkpt lat="45.97312" lon="4.71693">
        <ele>196</ele>
        <time>2018-03-22T16:08:09Z</time>
      </trkpt>
      <trkpt lat="45.97308" lon="4.71691">
        <ele>196</ele>
        <time>2018-03-22T16:08:10Z</time>
      </trkpt>
      <trkpt lat="45.97303" lon="4.7169">
        <ele>197</ele>
        <time>2018-03-22T16:08:11Z</time>
      </trkpt>
      <trkpt lat="45.97298" lon="4.71692">
        <ele>197</ele>
        <time>2018-03-22T16:08:12Z</time>
      </trkpt>
      <trkpt lat="45.97293" lon="4.71694">
        <ele>197</ele>
        <time>2018-03-22T16:08:13Z</time>
      </trkpt>
      <trkpt lat="45.97288" lon="4.71697">
        <ele>197</ele>
        <time>2018-03-22T16:08:14Z</time>
      </trkpt>
      <trkpt lat="45.97283" lon="4.71699">
        <ele>197</ele>
        <time>2018-03-22T16:08:15Z</time>
      </trkpt>
      <trkpt lat="45.97277" lon="4.71701">
        <ele>197</ele>
        <time>2018-03-22T16:08:16Z</time>
      </trkpt>
      <trkpt lat="45.97271" lon="4.71701">
        <ele>197</ele>
        <time>2018-03-22T16:08:17Z</time>
      </trkpt>
      <trkpt lat="45.97265" lon="4.717">
        <ele>197</ele>
        <time>2018-03-22T16:08:18Z</time>
      </trkpt>
      <trkpt lat="45.97259" lon="4.717">
        <ele>197</ele>
        <time>2018-03-22T16:08:19Z</time>
      </trkpt>
      <trkpt lat="45.97252" lon="4.71699">
        <ele>197</ele>
        <time>2018-03-22T16:08:20Z</time>
      </trkpt>
      <trkpt lat="45.97247" lon="4.71698">
        <ele>197</ele>
        <time>2018-03-22T16:08:21Z</time>
      </trkpt>
      <trkpt lat="45.97241" lon="4.71696">
        <ele>197</ele>
        <time>2018-03-22T16:08:22Z</time>
      </trkpt>
      <trkpt lat="45.97235" lon="4.71695">
        <ele>197</ele>
        <time>2018-03-22T16:08:23Z</time>
      </trkpt>
      <trkpt lat="45.9723" lon="4.71694">
        <ele>197</ele>
        <time>2018-03-22T16:08:24Z</time>
      </trkpt>
      <trkpt lat="45.97224" lon="4.71694">
        <ele>197</ele>
        <time>2018-03-22T16:08:25Z</time>
      </trkpt>
      <trkpt lat="45.97218" lon="4.71693">
        <ele>197</ele>
        <time>2018-03-22T16:08:26Z</time>
      </trkpt>
      <trkpt lat="45.97211" lon="4.71693">
        <ele>197</ele>
        <time>2018-03-22T16:08:27Z</time>
      </trkpt>
      <trkpt lat="45.97205" lon="4.71693">
        <ele>197</ele>
        <time>2018-03-22T16:08:28Z</time>
      </trkpt>
      <trkpt lat="45.97199" lon="4.71692">
        <ele>197</ele>
        <time>2018-03-22T16:08:29Z</time>
      </trkpt>
      <trkpt lat="45.97193" lon="4.71691">
        <ele>197</ele>
        <time>2018-03-22T16:08:30Z</time>
      </trkpt>
      <trkpt lat="45.97187" lon="4.7169">
        <ele>197</ele>
        <time>2018-03-22T16:08:31Z</time>
      </trkpt>
      <trkpt lat="45.97182" lon="4.71689">
        <ele>197</ele>
        <time>2018-03-22T16:08:32Z</time>
      </trkpt>
      <trkpt lat="45.97175" lon="4.71689">
        <ele>197</ele>
        <time>2018-03-22T16:08:33Z</time>
      </trkpt>
      <trkpt lat="45.9717" lon="4.71688">
        <ele>197</ele>
        <time>2018-03-22T16:08:34Z</time>
      </trkpt>
      <trkpt lat="45.97163" lon="4.71688">
        <ele>196</ele>
        <time>2018-03-22T16:08:35Z</time>
      </trkpt>
      <trkpt lat="45.97156" lon="4.71687">
        <ele>196</ele>
        <time>2018-03-22T16:08:36Z</time>
      </trkpt>
      <trkpt lat="45.9715" lon="4.71687">
        <ele>195</ele>
        <time>2018-03-22T16:08:37Z</time>
      </trkpt>
      <trkpt lat="45.97144" lon="4.71686">
        <ele>195</ele>
        <time>2018-03-22T16:08:38Z</time>
      </trkpt>
      <trkpt lat="45.97138" lon="4.71686">
        <ele>195</ele>
        <time>2018-03-22T16:08:39Z</time>
      </trkpt>
      <trkpt lat="45.97132" lon="4.71685">
        <ele>195</ele>
        <time>2018-03-22T16:08:40Z</time>
      </trkpt>
      <trkpt lat="45.97126" lon="4.71685">
        <ele>195</ele>
        <time>2018-03-22T16:08:41Z</time>
      </trkpt>
      <trkpt lat="45.9712" lon="4.71685">
        <ele>195</ele>
        <time>2018-03-22T16:08:42Z</time>
      </trkpt>
      <trkpt lat="45.97113" lon="4.71685">
        <ele>194</ele>
        <time>2018-03-22T16:08:43Z</time>
      </trkpt>
      <trkpt lat="45.97107" lon="4.71685">
        <ele>194</ele>
        <time>2018-03-22T16:08:44Z</time>
      </trkpt>
      <trkpt lat="45.97101" lon="4.71685">
        <ele>194</ele>
        <time>2018-03-22T16:08:45Z</time>
      </trkpt>
      <trkpt lat="45.97095" lon="4.71684">
        <ele>194</ele>
        <time>2018-03-22T16:08:46Z</time>
      </trkpt>
      <trkpt lat="45.97089" lon="4.71684">
        <ele>194</ele>
        <time>2018-03-22T16:08:47Z</time>
      </trkpt>
      <trkpt lat="45.97082" lon="4.71683">
        <ele>194</ele>
        <time>2018-03-22T16:08:48Z</time>
      </trkpt>
      <trkpt lat="45.97075" lon="4.71682">
        <ele>193</ele>
        <time>2018-03-22T16:08:49Z</time>
      </trkpt>
      <trkpt lat="45.97068" lon="4.7168">
        <ele>193</ele>
        <time>2018-03-22T16:08:50Z</time>
      </trkpt>
      <trkpt lat="45.97062" lon="4.7168">
        <ele>193</ele>
        <time>2018-03-22T16:08:51Z</time>
      </trkpt>
      <trkpt lat="45.97055" lon="4.71678">
        <ele>193</ele>
        <time>2018-03-22T16:08:52Z</time>
      </trkpt>
      <trkpt lat="45.97048" lon="4.71677">
        <ele>193</ele>
        <time>2018-03-22T16:08:53Z</time>
      </trkpt>
      <trkpt lat="45.97041" lon="4.71675">
        <ele>193</ele>
        <time>2018-03-22T16:08:54Z</time>
      </trkpt>
      <trkpt lat="45.97034" lon="4.71675">
        <ele>193</ele>
        <time>2018-03-22T16:08:55Z</time>
      </trkpt>
      <trkpt lat="45.97028" lon="4.71675">
        <ele>193</ele>
        <time>2018-03-22T16:08:56Z</time>
      </trkpt>
      <trkpt lat="45.9702" lon="4.71674">
        <ele>193</ele>
        <time>2018-03-22T16:08:57Z</time>
      </trkpt>
      <trkpt lat="45.97013" lon="4.71673">
        <ele>193</ele>
        <time>2018-03-22T16:08:58Z</time>
      </trkpt>
      <trkpt lat="45.97005" lon="4.71674">
        <ele>193</ele>
        <time>2018-03-22T16:08:59Z</time>
      </trkpt>
      <trkpt lat="45.96997" lon="4.71674">
        <ele>193</ele>
        <time>2018-03-22T16:09:00Z</time>
      </trkpt>
      <trkpt lat="45.96989" lon="4.71675">
        <ele>193</ele>
        <time>2018-03-22T16:09:01Z</time>
      </trkpt>
      <trkpt lat="45.96982" lon="4.71674">
        <ele>192</ele>
        <time>2018-03-22T16:09:02Z</time>
      </trkpt>
      <trkpt lat="45.96975" lon="4.71674">
        <ele>192</ele>
        <time>2018-03-22T16:09:03Z</time>
      </trkpt>
      <trkpt lat="45.96967" lon="4.71673">
        <ele>192</ele>
        <time>2018-03-22T16:09:04Z</time>
      </trkpt>
      <trkpt lat="45.96961" lon="4.71672">
        <ele>192</ele>
        <time>2018-03-22T16:09:05Z</time>
      </trkpt>
      <trkpt lat="45.96955" lon="4.71671">
        <ele>192</ele>
        <time>2018-03-22T16:09:06Z</time>
      </trkpt>
      <trkpt lat="45.96948" lon="4.71671">
        <ele>192</ele>
        <time>2018-03-22T16:09:07Z</time>
      </trkpt>
      <trkpt lat="45.9694" lon="4.7167">
        <ele>192</ele>
        <time>2018-03-22T16:09:08Z</time>
      </trkpt>
      <trkpt lat="45.96934" lon="4.71669">
        <ele>193</ele>
        <time>2018-03-22T16:09:09Z</time>
      </trkpt>
      <trkpt lat="45.96927" lon="4.7167">
        <ele>193</ele>
        <time>2018-03-22T16:09:10Z</time>
      </trkpt>
      <trkpt lat="45.96921" lon="4.71669">
        <ele>194</ele>
        <time>2018-03-22T16:09:11Z</time>
      </trkpt>
      <trkpt lat="45.96914" lon="4.71669">
        <ele>194</ele>
        <time>2018-03-22T16:09:12Z</time>
      </trkpt>
      <trkpt lat="45.96906" lon="4.71669">
        <ele>193</ele>
        <time>2018-03-22T16:09:13Z</time>
      </trkpt>
      <trkpt lat="45.96899" lon="4.71668">
        <ele>192</ele>
        <time>2018-03-22T16:09:14Z</time>
      </trkpt>
      <trkpt lat="45.96892" lon="4.71667">
        <ele>191</ele>
        <time>2018-03-22T16:09:15Z</time>
      </trkpt>
      <trkpt lat="45.96886" lon="4.71666">
        <ele>195</ele>
        <time>2018-03-22T16:09:16Z</time>
      </trkpt>
      <trkpt lat="45.96879" lon="4.71665">
        <ele>195</ele>
        <time>2018-03-22T16:09:17Z</time>
      </trkpt>
      <trkpt lat="45.96873" lon="4.71663">
        <ele>195</ele>
        <time>2018-03-22T16:09:18Z</time>
      </trkpt>
      <trkpt lat="45.96866" lon="4.71663">
        <ele>195</ele>
        <time>2018-03-22T16:09:19Z</time>
      </trkpt>
      <trkpt lat="45.96857" lon="4.71663">
        <ele>194</ele>
        <time>2018-03-22T16:09:20Z</time>
      </trkpt>
      <trkpt lat="45.96849" lon="4.7166">
        <ele>194</ele>
        <time>2018-03-22T16:09:21Z</time>
      </trkpt>
      <trkpt lat="45.96842" lon="4.71659">
        <ele>193</ele>
        <time>2018-03-22T16:09:22Z</time>
      </trkpt>
      <trkpt lat="45.96834" lon="4.71658">
        <ele>193</ele>
        <time>2018-03-22T16:09:23Z</time>
      </trkpt>
      <trkpt lat="45.96826" lon="4.71656">
        <ele>193</ele>
        <time>2018-03-22T16:09:24Z</time>
      </trkpt>
      <trkpt lat="45.96818" lon="4.71656">
        <ele>193</ele>
        <time>2018-03-22T16:09:25Z</time>
      </trkpt>
      <trkpt lat="45.9681" lon="4.71654">
        <ele>193</ele>
        <time>2018-03-22T16:09:26Z</time>
      </trkpt>
      <trkpt lat="45.96803" lon="4.71653">
        <ele>193</ele>
        <time>2018-03-22T16:09:27Z</time>
      </trkpt>
      <trkpt lat="45.96796" lon="4.71652">
        <ele>193</ele>
        <time>2018-03-22T16:09:28Z</time>
      </trkpt>
      <trkpt lat="45.96788" lon="4.71651">
        <ele>192</ele>
        <time>2018-03-22T16:09:29Z</time>
      </trkpt>
      <trkpt lat="45.96781" lon="4.7165">
        <ele>192</ele>
        <time>2018-03-22T16:09:30Z</time>
      </trkpt>
      <trkpt lat="45.96773" lon="4.71649">
        <ele>192</ele>
        <time>2018-03-22T16:09:31Z</time>
      </trkpt>
      <trkpt lat="45.96766" lon="4.71649">
        <ele>192</ele>
        <time>2018-03-22T16:09:32Z</time>
      </trkpt>
      <trkpt lat="45.96759" lon="4.71647">
        <ele>191</ele>
        <time>2018-03-22T16:09:33Z</time>
      </trkpt>
      <trkpt lat="45.96752" lon="4.71644">
        <ele>192</ele>
        <time>2018-03-22T16:09:34Z</time>
      </trkpt>
      <trkpt lat="45.96744" lon="4.71644">
        <ele>190</ele>
        <time>2018-03-22T16:09:35Z</time>
      </trkpt>
      <trkpt lat="45.96737" lon="4.71642">
        <ele>190</ele>
        <time>2018-03-22T16:09:36Z</time>
      </trkpt>
      <trkpt lat="45.9673" lon="4.71641">
        <ele>190</ele>
        <time>2018-03-22T16:09:37Z</time>
      </trkpt>
      <trkpt lat="45.96724" lon="4.7164">
        <ele>190</ele>
        <time>2018-03-22T16:09:38Z</time>
      </trkpt>
      <trkpt lat="45.96716" lon="4.71639">
        <ele>190</ele>
        <time>2018-03-22T16:09:39Z</time>
      </trkpt>
      <trkpt lat="45.96708" lon="4.71639">
        <ele>190</ele>
        <time>2018-03-22T16:09:40Z</time>
      </trkpt>
      <trkpt lat="45.96703" lon="4.71637">
        <ele>190</ele>
        <time>2018-03-22T16:09:41Z</time>
      </trkpt>
      <trkpt lat="45.96696" lon="4.71636">
        <ele>190</ele>
        <time>2018-03-22T16:09:42Z</time>
      </trkpt>
      <trkpt lat="45.96689" lon="4.71635">
        <ele>190</ele>
        <time>2018-03-22T16:09:43Z</time>
      </trkpt>
      <trkpt lat="45.96682" lon="4.71634">
        <ele>190</ele>
        <time>2018-03-22T16:09:44Z</time>
      </trkpt>
      <trkpt lat="45.96675" lon="4.71632">
        <ele>190</ele>
        <time>2018-03-22T16:09:45Z</time>
      </trkpt>
      <trkpt lat="45.96668" lon="4.71631">
        <ele>190</ele>
        <time>2018-03-22T16:09:46Z</time>
      </trkpt>
      <trkpt lat="45.96662" lon="4.71631">
        <ele>188</ele>
        <time>2018-03-22T16:09:47Z</time>
      </trkpt>
      <trkpt lat="45.96655" lon="4.71631">
        <ele>188</ele>
        <time>2018-03-22T16:09:48Z</time>
      </trkpt>
      <trkpt lat="45.96648" lon="4.71629">
        <ele>188</ele>
        <time>2018-03-22T16:09:49Z</time>
      </trkpt>
      <trkpt lat="45.96641" lon="4.71628">
        <ele>188</ele>
        <time>2018-03-22T16:09:50Z</time>
      </trkpt>
      <trkpt lat="45.96635" lon="4.71626">
        <ele>188</ele>
        <time>2018-03-22T16:09:51Z</time>
      </trkpt>
      <trkpt lat="45.96628" lon="4.71625">
        <ele>188</ele>
        <time>2018-03-22T16:09:52Z</time>
      </trkpt>
      <trkpt lat="45.96621" lon="4.71623">
        <ele>188</ele>
        <time>2018-03-22T16:09:53Z</time>
      </trkpt>
      <trkpt lat="45.96615" lon="4.71622">
        <ele>188</ele>
        <time>2018-03-22T16:09:54Z</time>
      </trkpt>
      <trkpt lat="45.96608" lon="4.71622">
        <ele>188</ele>
        <time>2018-03-22T16:09:55Z</time>
      </trkpt>
      <trkpt lat="45.966" lon="4.71622">
        <ele>187</ele>
        <time>2018-03-22T16:09:56Z</time>
      </trkpt>
      <trkpt lat="45.96593" lon="4.71622">
        <ele>187</ele>
        <time>2018-03-22T16:09:57Z</time>
      </trkpt>
      <trkpt lat="45.96585" lon="4.7162">
        <ele>187</ele>
        <time>2018-03-22T16:09:58Z</time>
      </trkpt>
      <trkpt lat="45.96579" lon="4.7162">
        <ele>185</ele>
        <time>2018-03-22T16:09:59Z</time>
      </trkpt>
      <trkpt lat="45.96573" lon="4.71617">
        <ele>185</ele>
        <time>2018-03-22T16:10:00Z</time>
      </trkpt>
      <trkpt lat="45.96567" lon="4.71617">
        <ele>185</ele>
        <time>2018-03-22T16:10:01Z</time>
      </trkpt>
      <trkpt lat="45.96561" lon="4.71615">
        <ele>185</ele>
        <time>2018-03-22T16:10:02Z</time>
      </trkpt>
      <trkpt lat="45.96556" lon="4.71612">
        <ele>185</ele>
        <time>2018-03-22T16:10:03Z</time>
      </trkpt>
      <trkpt lat="45.96551" lon="4.7161">
        <ele>185</ele>
        <time>2018-03-22T16:10:04Z</time>
      </trkpt>
      <trkpt lat="45.96547" lon="4.71606">
        <ele>185</ele>
        <time>2018-03-22T16:10:05Z</time>
      </trkpt>
      <trkpt lat="45.96542" lon="4.71603">
        <ele>185</ele>
        <time>2018-03-22T16:10:06Z</time>
      </trkpt>
      <trkpt lat="45.96536" lon="4.71601">
        <ele>185</ele>
        <time>2018-03-22T16:10:07Z</time>
      </trkpt>
      <trkpt lat="45.9653" lon="4.71599">
        <ele>185</ele>
        <time>2018-03-22T16:10:08Z</time>
      </trkpt>
      <trkpt lat="45.96525" lon="4.71601">
        <ele>185</ele>
        <time>2018-03-22T16:10:09Z</time>
      </trkpt>
      <trkpt lat="45.9652" lon="4.71603">
        <ele>185</ele>
        <time>2018-03-22T16:10:10Z</time>
      </trkpt>
      <trkpt lat="45.96514" lon="4.71606">
        <ele>184</ele>
        <time>2018-03-22T16:10:11Z</time>
      </trkpt>
      <trkpt lat="45.96507" lon="4.71606">
        <ele>184</ele>
        <time>2018-03-22T16:10:12Z</time>
      </trkpt>
      <trkpt lat="45.965" lon="4.71605">
        <ele>183</ele>
        <time>2018-03-22T16:10:13Z</time>
      </trkpt>
      <trkpt lat="45.96493" lon="4.71603">
        <ele>184</ele>
        <time>2018-03-22T16:10:14Z</time>
      </trkpt>
      <trkpt lat="45.96486" lon="4.71602">
        <ele>183</ele>
        <time>2018-03-22T16:10:15Z</time>
      </trkpt>
      <trkpt lat="45.9648" lon="4.716">
        <ele>183</ele>
        <time>2018-03-22T16:10:16Z</time>
      </trkpt>
      <trkpt lat="45.96473" lon="4.71599">
        <ele>183</ele>
        <time>2018-03-22T16:10:17Z</time>
      </trkpt>
      <trkpt lat="45.96465" lon="4.71598">
        <ele>183</ele>
        <time>2018-03-22T16:10:18Z</time>
      </trkpt>
      <trkpt lat="45.96458" lon="4.71597">
        <ele>183</ele>
        <time>2018-03-22T16:10:19Z</time>
      </trkpt>
      <trkpt lat="45.9645" lon="4.71596">
        <ele>183</ele>
        <time>2018-03-22T16:10:20Z</time>
      </trkpt>
      <trkpt lat="45.96443" lon="4.71597">
        <ele>183</ele>
        <time>2018-03-22T16:10:21Z</time>
      </trkpt>
      <trkpt lat="45.96435" lon="4.71593">
        <ele>184</ele>
        <time>2018-03-22T16:10:22Z</time>
      </trkpt>
      <trkpt lat="45.96427" lon="4.71592">
        <ele>184</ele>
        <time>2018-03-22T16:10:23Z</time>
      </trkpt>
      <trkpt lat="45.9642" lon="4.71591">
        <ele>184</ele>
        <time>2018-03-22T16:10:24Z</time>
      </trkpt>
      <trkpt lat="45.96413" lon="4.7159">
        <ele>184</ele>
        <time>2018-03-22T16:10:25Z</time>
      </trkpt>
      <trkpt lat="45.96406" lon="4.71589">
        <ele>184</ele>
        <time>2018-03-22T16:10:26Z</time>
      </trkpt>
      <trkpt lat="45.96398" lon="4.71588">
        <ele>183</ele>
        <time>2018-03-22T16:10:27Z</time>
      </trkpt>
      <trkpt lat="45.9639" lon="4.71586">
        <ele>183</ele>
        <time>2018-03-22T16:10:28Z</time>
      </trkpt>
      <trkpt lat="45.96382" lon="4.71585">
        <ele>183</ele>
        <time>2018-03-22T16:10:29Z</time>
      </trkpt>
      <trkpt lat="45.96375" lon="4.71584">
        <ele>182</ele>
        <time>2018-03-22T16:10:30Z</time>
      </trkpt>
      <trkpt lat="45.96368" lon="4.71583">
        <ele>186</ele>
        <time>2018-03-22T16:10:31Z</time>
      </trkpt>
      <trkpt lat="45.9636" lon="4.71582">
        <ele>185</ele>
        <time>2018-03-22T16:10:32Z</time>
      </trkpt>
      <trkpt lat="45.96353" lon="4.71581">
        <ele>185</ele>
        <time>2018-03-22T16:10:33Z</time>
      </trkpt>
      <trkpt lat="45.96345" lon="4.7158">
        <ele>184</ele>
        <time>2018-03-22T16:10:34Z</time>
      </trkpt>
      <trkpt lat="45.96338" lon="4.71579">
        <ele>184</ele>
        <time>2018-03-22T16:10:35Z</time>
      </trkpt>
      <trkpt lat="45.9633" lon="4.71578">
        <ele>183</ele>
        <time>2018-03-22T16:10:36Z</time>
      </trkpt>
      <trkpt lat="45.96323" lon="4.71577">
        <ele>184</ele>
        <time>2018-03-22T16:10:37Z</time>
      </trkpt>
      <trkpt lat="45.96316" lon="4.71576">
        <ele>184</ele>
        <time>2018-03-22T16:10:38Z</time>
      </trkpt>
      <trkpt lat="45.96309" lon="4.71575">
        <ele>184</ele>
        <time>2018-03-22T16:10:39Z</time>
      </trkpt>
      <trkpt lat="45.96302" lon="4.71574">
        <ele>184</ele>
        <time>2018-03-22T16:10:40Z</time>
      </trkpt>
      <trkpt lat="45.96295" lon="4.71572">
        <ele>184</ele>
        <time>2018-03-22T16:10:41Z</time>
      </trkpt>
      <trkpt lat="45.96288" lon="4.71572">
        <ele>184</ele>
        <time>2018-03-22T16:10:42Z</time>
      </trkpt>
      <trkpt lat="45.96281" lon="4.7157">
        <ele>184</ele>
        <time>2018-03-22T16:10:43Z</time>
      </trkpt>
      <trkpt lat="45.96274" lon="4.7157">
        <ele>184</ele>
        <time>2018-03-22T16:10:44Z</time>
      </trkpt>
      <trkpt lat="45.96267" lon="4.71569">
        <ele>184</ele>
        <time>2018-03-22T16:10:45Z</time>
      </trkpt>
      <trkpt lat="45.9626" lon="4.71568">
        <ele>183</ele>
        <time>2018-03-22T16:10:46Z</time>
      </trkpt>
      <trkpt lat="45.96252" lon="4.71568">
        <ele>183</ele>
        <time>2018-03-22T16:10:47Z</time>
      </trkpt>
      <trkpt lat="45.96245" lon="4.71568">
        <ele>183</ele>
        <time>2018-03-22T16:10:48Z</time>
      </trkpt>
      <trkpt lat="45.96239" lon="4.71567">
        <ele>183</ele>
        <time>2018-03-22T16:10:49Z</time>
      </trkpt>
      <trkpt lat="45.96233" lon="4.71566">
        <ele>183</ele>
        <time>2018-03-22T16:10:50Z</time>
      </trkpt>
      <trkpt lat="45.96227" lon="4.71565">
        <ele>183</ele>
        <time>2018-03-22T16:10:51Z</time>
      </trkpt>
      <trkpt lat="45.96222" lon="4.71563">
        <ele>183</ele>
        <time>2018-03-22T16:10:52Z</time>
      </trkpt>
      <trkpt lat="45.96216" lon="4.71562">
        <ele>183</ele>
        <time>2018-03-22T16:10:53Z</time>
      </trkpt>
      <trkpt lat="45.9621" lon="4.7156">
        <ele>183</ele>
        <time>2018-03-22T16:10:54Z</time>
      </trkpt>
      <trkpt lat="45.96205" lon="4.71559">
        <ele>183</ele>
        <time>2018-03-22T16:10:55Z</time>
      </trkpt>
      <trkpt lat="45.962" lon="4.71558">
        <ele>183</ele>
        <time>2018-03-22T16:10:56Z</time>
      </trkpt>
      <trkpt lat="45.96194" lon="4.71556">
        <ele>183</ele>
        <time>2018-03-22T16:10:57Z</time>
      </trkpt>
      <trkpt lat="45.96188" lon="4.71555">
        <ele>183</ele>
        <time>2018-03-22T16:10:58Z</time>
      </trkpt>
      <trkpt lat="45.96183" lon="4.71554">
        <ele>183</ele>
        <time>2018-03-22T16:10:59Z</time>
      </trkpt>
      <trkpt lat="45.96176" lon="4.71553">
        <ele>183</ele>
        <time>2018-03-22T16:11:00Z</time>
      </trkpt>
      <trkpt lat="45.9617" lon="4.71552">
        <ele>183</ele>
        <time>2018-03-22T16:11:01Z</time>
      </trkpt>
      <trkpt lat="45.96165" lon="4.71551">
        <ele>184</ele>
        <time>2018-03-22T16:11:02Z</time>
      </trkpt>
      <trkpt lat="45.96159" lon="4.7155">
        <ele>184</ele>
        <time>2018-03-22T16:11:03Z</time>
      </trkpt>
      <trkpt lat="45.96153" lon="4.71549">
        <ele>184</ele>
        <time>2018-03-22T16:11:04Z</time>
      </trkpt>
      <trkpt lat="45.96148" lon="4.71548">
        <ele>184</ele>
        <time>2018-03-22T16:11:05Z</time>
      </trkpt>
      <trkpt lat="45.96142" lon="4.71546">
        <ele>184</ele>
        <time>2018-03-22T16:11:06Z</time>
      </trkpt>
      <trkpt lat="45.96137" lon="4.71546">
        <ele>184</ele>
        <time>2018-03-22T16:11:07Z</time>
      </trkpt>
      <trkpt lat="45.96131" lon="4.71544">
        <ele>185</ele>
        <time>2018-03-22T16:11:08Z</time>
      </trkpt>
      <trkpt lat="45.96125" lon="4.71543">
        <ele>185</ele>
        <time>2018-03-22T16:11:09Z</time>
      </trkpt>
      <trkpt lat="45.96118" lon="4.71543">
        <ele>185</ele>
        <time>2018-03-22T16:11:10Z</time>
      </trkpt>
      <trkpt lat="45.96112" lon="4.71541">
        <ele>185</ele>
        <time>2018-03-22T16:11:11Z</time>
      </trkpt>
      <trkpt lat="45.96106" lon="4.7154">
        <ele>185</ele>
        <time>2018-03-22T16:11:12Z</time>
      </trkpt>
      <trkpt lat="45.961" lon="4.7154">
        <ele>185</ele>
        <time>2018-03-22T16:11:13Z</time>
      </trkpt>
      <trkpt lat="45.96095" lon="4.71538">
        <ele>185</ele>
        <time>2018-03-22T16:11:14Z</time>
      </trkpt>
      <trkpt lat="45.96089" lon="4.71537">
        <ele>185</ele>
        <time>2018-03-22T16:11:15Z</time>
      </trkpt>
      <trkpt lat="45.96083" lon="4.71537">
        <ele>186</ele>
        <time>2018-03-22T16:11:16Z</time>
      </trkpt>
      <trkpt lat="45.96078" lon="4.71535">
        <ele>186</ele>
        <time>2018-03-22T16:11:17Z</time>
      </trkpt>
      <trkpt lat="45.96072" lon="4.71535">
        <ele>186</ele>
        <time>2018-03-22T16:11:18Z</time>
      </trkpt>
      <trkpt lat="45.96067" lon="4.71533">
        <ele>186</ele>
        <time>2018-03-22T16:11:19Z</time>
      </trkpt>
      <trkpt lat="45.96062" lon="4.71531">
        <ele>186</ele>
        <time>2018-03-22T16:11:20Z</time>
      </trkpt>
      <trkpt lat="45.96057" lon="4.7153">
        <ele>186</ele>
        <time>2018-03-22T16:11:21Z</time>
      </trkpt>
      <trkpt lat="45.96052" lon="4.71528">
        <ele>186</ele>
        <time>2018-03-22T16:11:22Z</time>
      </trkpt>
      <trkpt lat="45.96046" lon="4.71527">
        <ele>186</ele>
        <time>2018-03-22T16:11:23Z</time>
      </trkpt>
      <trkpt lat="45.9604" lon="4.71526">
        <ele>186</ele>
        <time>2018-03-22T16:11:24Z</time>
      </trkpt>
      <trkpt lat="45.96034" lon="4.71526">
        <ele>186</ele>
        <time>2018-03-22T16:11:25Z</time>
      </trkpt>
      <trkpt lat="45.96029" lon="4.71525">
        <ele>186</ele>
        <time>2018-03-22T16:11:26Z</time>
      </trkpt>
      <trkpt lat="45.96023" lon="4.71525">
        <ele>186</ele>
        <time>2018-03-22T16:11:27Z</time>
      </trkpt>
      <trkpt lat="45.96018" lon="4.71524">
        <ele>186</ele>
        <time>2018-03-22T16:11:28Z</time>
      </trkpt>
      <trkpt lat="45.96013" lon="4.71522">
        <ele>186</ele>
        <time>2018-03-22T16:11:29Z</time>
      </trkpt>
      <trkpt lat="45.96009" lon="4.7152">
        <ele>186</ele>
        <time>2018-03-22T16:11:30Z</time>
      </trkpt>
      <trkpt lat="45.96004" lon="4.71518">
        <ele>186</ele>
        <time>2018-03-22T16:11:31Z</time>
      </trkpt>
      <trkpt lat="45.96" lon="4.71516">
        <ele>186</ele>
        <time>2018-03-22T16:11:32Z</time>
      </trkpt>
      <trkpt lat="45.95995" lon="4.71513">
        <ele>186</ele>
        <time>2018-03-22T16:11:33Z</time>
      </trkpt>
      <trkpt lat="45.95991" lon="4.71511">
        <ele>186</ele>
        <time>2018-03-22T16:11:34Z</time>
      </trkpt>
      <trkpt lat="45.95985" lon="4.71509">
        <ele>186</ele>
        <time>2018-03-22T16:11:35Z</time>
      </trkpt>
      <trkpt lat="45.9598" lon="4.71511">
        <ele>185</ele>
        <time>2018-03-22T16:11:36Z</time>
      </trkpt>
      <trkpt lat="45.95975" lon="4.71513">
        <ele>185</ele>
        <time>2018-03-22T16:11:37Z</time>
      </trkpt>
      <trkpt lat="45.9597" lon="4.71516">
        <ele>185</ele>
        <time>2018-03-22T16:11:38Z</time>
      </trkpt>
      <trkpt lat="45.95966" lon="4.71519">
        <ele>184</ele>
        <time>2018-03-22T16:11:39Z</time>
      </trkpt>
      <trkpt lat="45.95961" lon="4.7152">
        <ele>184</ele>
        <time>2018-03-22T16:11:40Z</time>
      </trkpt>
      <trkpt lat="45.95955" lon="4.71521">
        <ele>184</ele>
        <time>2018-03-22T16:11:41Z</time>
      </trkpt>
      <trkpt lat="45.95948" lon="4.71521">
        <ele>184</ele>
        <time>2018-03-22T16:11:42Z</time>
      </trkpt>
      <trkpt lat="45.95942" lon="4.71522">
        <ele>184</ele>
        <time>2018-03-22T16:11:43Z</time>
      </trkpt>
      <trkpt lat="45.95935" lon="4.71522">
        <ele>184</ele>
        <time>2018-03-22T16:11:44Z</time>
      </trkpt>
      <trkpt lat="45.95928" lon="4.71523">
        <ele>184</ele>
        <time>2018-03-22T16:11:45Z</time>
      </trkpt>
      <trkpt lat="45.95921" lon="4.71522">
        <ele>184</ele>
        <time>2018-03-22T16:11:46Z</time>
      </trkpt>
      <trkpt lat="45.95913" lon="4.71522">
        <ele>183</ele>
        <time>2018-03-22T16:11:47Z</time>
      </trkpt>
      <trkpt lat="45.95905" lon="4.71521">
        <ele>183</ele>
        <time>2018-03-22T16:11:48Z</time>
      </trkpt>
      <trkpt lat="45.95898" lon="4.71521">
        <ele>182</ele>
        <time>2018-03-22T16:11:49Z</time>
      </trkpt>
      <trkpt lat="45.95891" lon="4.71521">
        <ele>182</ele>
        <time>2018-03-22T16:11:50Z</time>
      </trkpt>
      <trkpt lat="45.95884" lon="4.71521">
        <ele>182</ele>
        <time>2018-03-22T16:11:51Z</time>
      </trkpt>
      <trkpt lat="45.95876" lon="4.71522">
        <ele>182</ele>
        <time>2018-03-22T16:11:52Z</time>
      </trkpt>
      <trkpt lat="45.95868" lon="4.71521">
        <ele>182</ele>
        <time>2018-03-22T16:11:53Z</time>
      </trkpt>
      <trkpt lat="45.95861" lon="4.71521">
        <ele>182</ele>
        <time>2018-03-22T16:11:54Z</time>
      </trkpt>
      <trkpt lat="45.95854" lon="4.71521">
        <ele>182</ele>
        <time>2018-03-22T16:11:55Z</time>
      </trkpt>
      <trkpt lat="45.95846" lon="4.7152">
        <ele>182</ele>
        <time>2018-03-22T16:11:56Z</time>
      </trkpt>
      <trkpt lat="45.95839" lon="4.71519">
        <ele>182</ele>
        <time>2018-03-22T16:11:57Z</time>
      </trkpt>
      <trkpt lat="45.95832" lon="4.71519">
        <ele>182</ele>
        <time>2018-03-22T16:11:58Z</time>
      </trkpt>
      <trkpt lat="45.95825" lon="4.71518">
        <ele>182</ele>
        <time>2018-03-22T16:11:59Z</time>
      </trkpt>
      <trkpt lat="45.95818" lon="4.71517">
        <ele>182</ele>
        <time>2018-03-22T16:12:00Z</time>
      </trkpt>
      <trkpt lat="45.95811" lon="4.71518">
        <ele>181</ele>
        <time>2018-03-22T16:12:01Z</time>
      </trkpt>
      <trkpt lat="45.95803" lon="4.71517">
        <ele>181</ele>
        <time>2018-03-22T16:12:02Z</time>
      </trkpt>
      <trkpt lat="45.95795" lon="4.71517">
        <ele>181</ele>
        <time>2018-03-22T16:12:03Z</time>
      </trkpt>
      <trkpt lat="45.95788" lon="4.71516">
        <ele>181</ele>
        <time>2018-03-22T16:12:04Z</time>
      </trkpt>
      <trkpt lat="45.95781" lon="4.71517">
        <ele>181</ele>
        <time>2018-03-22T16:12:05Z</time>
      </trkpt>
      <trkpt lat="45.95773" lon="4.71516">
        <ele>181</ele>
        <time>2018-03-22T16:12:06Z</time>
      </trkpt>
      <trkpt lat="45.95766" lon="4.71515">
        <ele>181</ele>
        <time>2018-03-22T16:12:07Z</time>
      </trkpt>
      <trkpt lat="45.95758" lon="4.71513">
        <ele>181</ele>
        <time>2018-03-22T16:12:08Z</time>
      </trkpt>
      <trkpt lat="45.95749" lon="4.71512">
        <ele>181</ele>
        <time>2018-03-22T16:12:09Z</time>
      </trkpt>
      <trkpt lat="45.95742" lon="4.71512">
        <ele>181</ele>
        <time>2018-03-22T16:12:10Z</time>
      </trkpt>
      <trkpt lat="45.95733" lon="4.71511">
        <ele>181</ele>
        <time>2018-03-22T16:12:11Z</time>
      </trkpt>
      <trkpt lat="45.95725" lon="4.71511">
        <ele>180</ele>
        <time>2018-03-22T16:12:12Z</time>
      </trkpt>
      <trkpt lat="45.95717" lon="4.7151">
        <ele>180</ele>
        <time>2018-03-22T16:12:13Z</time>
      </trkpt>
      <trkpt lat="45.95709" lon="4.71509">
        <ele>180</ele>
        <time>2018-03-22T16:12:14Z</time>
      </trkpt>
      <trkpt lat="45.95701" lon="4.71508">
        <ele>180</ele>
        <time>2018-03-22T16:12:15Z</time>
      </trkpt>
      <trkpt lat="45.95692" lon="4.71507">
        <ele>181</ele>
        <time>2018-03-22T16:12:16Z</time>
      </trkpt>
      <trkpt lat="45.95684" lon="4.71507">
        <ele>181</ele>
        <time>2018-03-22T16:12:17Z</time>
      </trkpt>
      <trkpt lat="45.95676" lon="4.71506">
        <ele>181</ele>
        <time>2018-03-22T16:12:18Z</time>
      </trkpt>
      <trkpt lat="45.95667" lon="4.71506">
        <ele>181</ele>
        <time>2018-03-22T16:12:19Z</time>
      </trkpt>
      <trkpt lat="45.95659" lon="4.71505">
        <ele>181</ele>
        <time>2018-03-22T16:12:20Z</time>
      </trkpt>
      <trkpt lat="45.95651" lon="4.71504">
        <ele>180</ele>
        <time>2018-03-22T16:12:21Z</time>
      </trkpt>
      <trkpt lat="45.95642" lon="4.71504">
        <ele>180</ele>
        <time>2018-03-22T16:12:22Z</time>
      </trkpt>
      <trkpt lat="45.95632" lon="4.71504">
        <ele>180</ele>
        <time>2018-03-22T16:12:23Z</time>
      </trkpt>
      <trkpt lat="45.95624" lon="4.71504">
        <ele>180</ele>
        <time>2018-03-22T16:12:24Z</time>
      </trkpt>
      <trkpt lat="45.95616" lon="4.71503">
        <ele>179</ele>
        <time>2018-03-22T16:12:25Z</time>
      </trkpt>
      <trkpt lat="45.95607" lon="4.71502">
        <ele>179</ele>
        <time>2018-03-22T16:12:26Z</time>
      </trkpt>
      <trkpt lat="45.956" lon="4.71501">
        <ele>180</ele>
        <time>2018-03-22T16:12:27Z</time>
      </trkpt>
      <trkpt lat="45.95592" lon="4.71501">
        <ele>180</ele>
        <time>2018-03-22T16:12:28Z</time>
      </trkpt>
      <trkpt lat="45.95583" lon="4.71502">
        <ele>180</ele>
        <time>2018-03-22T16:12:29Z</time>
      </trkpt>
      <trkpt lat="45.95577" lon="4.715">
        <ele>180</ele>
        <time>2018-03-22T16:12:30Z</time>
      </trkpt>
      <trkpt lat="45.95569" lon="4.71499">
        <ele>180</ele>
        <time>2018-03-22T16:12:31Z</time>
      </trkpt>
      <trkpt lat="45.95561" lon="4.71499">
        <ele>179</ele>
        <time>2018-03-22T16:12:32Z</time>
      </trkpt>
      <trkpt lat="45.95555" lon="4.71496">
        <ele>179</ele>
        <time>2018-03-22T16:12:33Z</time>
      </trkpt>
      <trkpt lat="45.95546" lon="4.71495">
        <ele>179</ele>
        <time>2018-03-22T16:12:34Z</time>
      </trkpt>
      <trkpt lat="45.95538" lon="4.71495">
        <ele>179</ele>
        <time>2018-03-22T16:12:35Z</time>
      </trkpt>
      <trkpt lat="45.9553" lon="4.71495">
        <ele>178</ele>
        <time>2018-03-22T16:12:36Z</time>
      </trkpt>
      <trkpt lat="45.95522" lon="4.71495">
        <ele>178</ele>
        <time>2018-03-22T16:12:37Z</time>
      </trkpt>
      <trkpt lat="45.95513" lon="4.71495">
        <ele>178</ele>
        <time>2018-03-22T16:12:38Z</time>
      </trkpt>
      <trkpt lat="45.95505" lon="4.71495">
        <ele>177</ele>
        <time>2018-03-22T16:12:39Z</time>
      </trkpt>
      <trkpt lat="45.95498" lon="4.71494">
        <ele>177</ele>
        <time>2018-03-22T16:12:40Z</time>
      </trkpt>
      <trkpt lat="45.9549" lon="4.71495">
        <ele>177</ele>
        <time>2018-03-22T16:12:41Z</time>
      </trkpt>
      <trkpt lat="45.95482" lon="4.71495">
        <ele>176</ele>
        <time>2018-03-22T16:12:42Z</time>
      </trkpt>
      <trkpt lat="45.95473" lon="4.71494">
        <ele>176</ele>
        <time>2018-03-22T16:12:43Z</time>
      </trkpt>
      <trkpt lat="45.95464" lon="4.71493">
        <ele>176</ele>
        <time>2018-03-22T16:12:44Z</time>
      </trkpt>
      <trkpt lat="45.95456" lon="4.71493">
        <ele>176</ele>
        <time>2018-03-22T16:12:45Z</time>
      </trkpt>
      <trkpt lat="45.95447" lon="4.71493">
        <ele>176</ele>
        <time>2018-03-22T16:12:46Z</time>
      </trkpt>
      <trkpt lat="45.95438" lon="4.71493">
        <ele>175</ele>
        <time>2018-03-22T16:12:47Z</time>
      </trkpt>
      <trkpt lat="45.95429" lon="4.71493">
        <ele>175</ele>
        <time>2018-03-22T16:12:48Z</time>
      </trkpt>
      <trkpt lat="45.9542" lon="4.71493">
        <ele>175</ele>
        <time>2018-03-22T16:12:49Z</time>
      </trkpt>
      <trkpt lat="45.95412" lon="4.71491">
        <ele>174</ele>
        <time>2018-03-22T16:12:50Z</time>
      </trkpt>
      <trkpt lat="45.95403" lon="4.7149">
        <ele>175</ele>
        <time>2018-03-22T16:12:51Z</time>
      </trkpt>
      <trkpt lat="45.95394" lon="4.71489">
        <ele>175</ele>
        <time>2018-03-22T16:12:52Z</time>
      </trkpt>
      <trkpt lat="45.95386" lon="4.71488">
        <ele>175</ele>
        <time>2018-03-22T16:12:53Z</time>
      </trkpt>
      <trkpt lat="45.95378" lon="4.71487">
        <ele>175</ele>
        <time>2018-03-22T16:12:54Z</time>
      </trkpt>
      <trkpt lat="45.95369" lon="4.71487">
        <ele>175</ele>
        <time>2018-03-22T16:12:55Z</time>
      </trkpt>
      <trkpt lat="45.9536" lon="4.71487">
        <ele>175</ele>
        <time>2018-03-22T16:12:56Z</time>
      </trkpt>
      <trkpt lat="45.95352" lon="4.71486">
        <ele>175</ele>
        <time>2018-03-22T16:12:57Z</time>
      </trkpt>
      <trkpt lat="45.95344" lon="4.71485">
        <ele>175</ele>
        <time>2018-03-22T16:12:58Z</time>
      </trkpt>
      <trkpt lat="45.95336" lon="4.71485">
        <ele>175</ele>
        <time>2018-03-22T16:12:59Z</time>
      </trkpt>
      <trkpt lat="45.95328" lon="4.71485">
        <ele>175</ele>
        <time>2018-03-22T16:13:00Z</time>
      </trkpt>
      <trkpt lat="45.9532" lon="4.71484">
        <ele>175</ele>
        <time>2018-03-22T16:13:01Z</time>
      </trkpt>
      <trkpt lat="45.95312" lon="4.71483">
        <ele>175</ele>
        <time>2018-03-22T16:13:02Z</time>
      </trkpt>
      <trkpt lat="45.95303" lon="4.71483">
        <ele>175</ele>
        <time>2018-03-22T16:13:03Z</time>
      </trkpt>
      <trkpt lat="45.95295" lon="4.71482">
        <ele>176</ele>
        <time>2018-03-22T16:13:04Z</time>
      </trkpt>
      <trkpt lat="45.95287" lon="4.71481">
        <ele>176</ele>
        <time>2018-03-22T16:13:05Z</time>
      </trkpt>
      <trkpt lat="45.9528" lon="4.71482">
        <ele>176</ele>
        <time>2018-03-22T16:13:06Z</time>
      </trkpt>
      <trkpt lat="45.95272" lon="4.71481">
        <ele>176</ele>
        <time>2018-03-22T16:13:07Z</time>
      </trkpt>
      <trkpt lat="45.95265" lon="4.71482">
        <ele>176</ele>
        <time>2018-03-22T16:13:08Z</time>
      </trkpt>
      <trkpt lat="45.95258" lon="4.71481">
        <ele>176</ele>
        <time>2018-03-22T16:13:09Z</time>
      </trkpt>
      <trkpt lat="45.95252" lon="4.71481">
        <ele>176</ele>
        <time>2018-03-22T16:13:10Z</time>
      </trkpt>
      <trkpt lat="45.95246" lon="4.71481">
        <ele>177</ele>
        <time>2018-03-22T16:13:11Z</time>
      </trkpt>
      <trkpt lat="45.9524" lon="4.7148">
        <ele>177</ele>
        <time>2018-03-22T16:13:12Z</time>
      </trkpt>
      <trkpt lat="45.95233" lon="4.71479">
        <ele>177</ele>
        <time>2018-03-22T16:13:13Z</time>
      </trkpt>
      <trkpt lat="45.95228" lon="4.71478">
        <ele>177</ele>
        <time>2018-03-22T16:13:14Z</time>
      </trkpt>
      <trkpt lat="45.95222" lon="4.71476">
        <ele>177</ele>
        <time>2018-03-22T16:13:15Z</time>
      </trkpt>
      <trkpt lat="45.95215" lon="4.71476">
        <ele>177</ele>
        <time>2018-03-22T16:13:16Z</time>
      </trkpt>
      <trkpt lat="45.9521" lon="4.71475">
        <ele>177</ele>
        <time>2018-03-22T16:13:17Z</time>
      </trkpt>
      <trkpt lat="45.95205" lon="4.71473">
        <ele>177</ele>
        <time>2018-03-22T16:13:18Z</time>
      </trkpt>
      <trkpt lat="45.952" lon="4.71471">
        <ele>177</ele>
        <time>2018-03-22T16:13:19Z</time>
      </trkpt>
      <trkpt lat="45.95193" lon="4.71471">
        <ele>177</ele>
        <time>2018-03-22T16:13:20Z</time>
      </trkpt>
      <trkpt lat="45.95186" lon="4.71471">
        <ele>177</ele>
        <time>2018-03-22T16:13:21Z</time>
      </trkpt>
      <trkpt lat="45.95181" lon="4.71471">
        <ele>177</ele>
        <time>2018-03-22T16:13:22Z</time>
      </trkpt>
      <trkpt lat="45.95175" lon="4.71469">
        <ele>177</ele>
        <time>2018-03-22T16:13:23Z</time>
      </trkpt>
      <trkpt lat="45.95167" lon="4.71471">
        <ele>177</ele>
        <time>2018-03-22T16:13:24Z</time>
      </trkpt>
      <trkpt lat="45.95161" lon="4.7147">
        <ele>178</ele>
        <time>2018-03-22T16:13:25Z</time>
      </trkpt>
      <trkpt lat="45.95156" lon="4.7147">
        <ele>178</ele>
        <time>2018-03-22T16:13:26Z</time>
      </trkpt>
      <trkpt lat="45.9515" lon="4.71469">
        <ele>178</ele>
        <time>2018-03-22T16:13:27Z</time>
      </trkpt>
      <trkpt lat="45.95143" lon="4.71468">
        <ele>178</ele>
        <time>2018-03-22T16:13:28Z</time>
      </trkpt>
      <trkpt lat="45.95138" lon="4.71468">
        <ele>178</ele>
        <time>2018-03-22T16:13:29Z</time>
      </trkpt>
      <trkpt lat="45.95132" lon="4.71467">
        <ele>178</ele>
        <time>2018-03-22T16:13:30Z</time>
      </trkpt>
      <trkpt lat="45.95127" lon="4.71466">
        <ele>178</ele>
        <time>2018-03-22T16:13:31Z</time>
      </trkpt>
      <trkpt lat="45.95121" lon="4.71466">
        <ele>179</ele>
        <time>2018-03-22T16:13:32Z</time>
      </trkpt>
      <trkpt lat="45.95115" lon="4.71466">
        <ele>179</ele>
        <time>2018-03-22T16:13:33Z</time>
      </trkpt>
      <trkpt lat="45.95109" lon="4.71465">
        <ele>179</ele>
        <time>2018-03-22T16:13:34Z</time>
      </trkpt>
      <trkpt lat="45.95103" lon="4.71465">
        <ele>179</ele>
        <time>2018-03-22T16:13:35Z</time>
      </trkpt>
      <trkpt lat="45.95098" lon="4.71465">
        <ele>179</ele>
        <time>2018-03-22T16:13:36Z</time>
      </trkpt>
      <trkpt lat="45.95092" lon="4.71465">
        <ele>179</ele>
        <time>2018-03-22T16:13:37Z</time>
      </trkpt>
      <trkpt lat="45.95086" lon="4.71465">
        <ele>179</ele>
        <time>2018-03-22T16:13:38Z</time>
      </trkpt>
      <trkpt lat="45.95081" lon="4.71465">
        <ele>181</ele>
        <time>2018-03-22T16:13:39Z</time>
      </trkpt>
      <trkpt lat="45.95075" lon="4.71466">
        <ele>181</ele>
        <time>2018-03-22T16:13:40Z</time>
      </trkpt>
      <trkpt lat="45.95069" lon="4.71465">
        <ele>181</ele>
        <time>2018-03-22T16:13:41Z</time>
      </trkpt>
      <trkpt lat="45.95064" lon="4.71464">
        <ele>181</ele>
        <time>2018-03-22T16:13:42Z</time>
      </trkpt>
      <trkpt lat="45.95059" lon="4.71463">
        <ele>181</ele>
        <time>2018-03-22T16:13:43Z</time>
      </trkpt>
      <trkpt lat="45.95054" lon="4.71463">
        <ele>181</ele>
        <time>2018-03-22T16:13:44Z</time>
      </trkpt>
      <trkpt lat="45.9505" lon="4.71462">
        <ele>181</ele>
        <time>2018-03-22T16:13:45Z</time>
      </trkpt>
      <trkpt lat="45.95045" lon="4.71462">
        <ele>182</ele>
        <time>2018-03-22T16:13:46Z</time>
      </trkpt>
      <trkpt lat="45.9504" lon="4.71462">
        <ele>182</ele>
        <time>2018-03-22T16:13:47Z</time>
      </trkpt>
      <trkpt lat="45.95036" lon="4.71462">
        <ele>182</ele>
        <time>2018-03-22T16:13:48Z</time>
      </trkpt>
      <trkpt lat="45.95029" lon="4.71462">
        <ele>182</ele>
        <time>2018-03-22T16:13:50Z</time>
      </trkpt>
      <trkpt lat="45.95025" lon="4.71463">
        <ele>182</ele>
        <time>2018-03-22T16:13:51Z</time>
      </trkpt>
      <trkpt lat="45.95018" lon="4.71463">
        <ele>182</ele>
        <time>2018-03-22T16:13:53Z</time>
      </trkpt>
      <trkpt lat="45.95013" lon="4.71463">
        <ele>182</ele>
        <time>2018-03-22T16:13:54Z</time>
      </trkpt>
      <trkpt lat="45.95005" lon="4.71462">
        <ele>182</ele>
        <time>2018-03-22T16:13:56Z</time>
      </trkpt>
      <trkpt lat="45.95001" lon="4.71461">
        <ele>182</ele>
        <time>2018-03-22T16:13:57Z</time>
      </trkpt>
      <trkpt lat="45.94993" lon="4.71458">
        <ele>184</ele>
        <time>2018-03-22T16:13:59Z</time>
      </trkpt>
      <trkpt lat="45.9499" lon="4.71455">
        <ele>184</ele>
        <time>2018-03-22T16:14:00Z</time>
      </trkpt>
      <trkpt lat="45.94984" lon="4.71445">
        <ele>184</ele>
        <time>2018-03-22T16:14:02Z</time>
      </trkpt>
      <trkpt lat="45.94982" lon="4.7144">
        <ele>184</ele>
        <time>2018-03-22T16:14:03Z</time>
      </trkpt>
      <trkpt lat="45.94975" lon="4.71433">
        <ele>185</ele>
        <time>2018-03-22T16:14:05Z</time>
      </trkpt>
      <trkpt lat="45.94972" lon="4.71431">
        <ele>185</ele>
        <time>2018-03-22T16:14:06Z</time>
      </trkpt>
      <trkpt lat="45.94968" lon="4.7143">
        <ele>185</ele>
        <time>2018-03-22T16:14:07Z</time>
      </trkpt>
      <trkpt lat="45.94963" lon="4.71433">
        <ele>184</ele>
        <time>2018-03-22T16:14:08Z</time>
      </trkpt>
      <trkpt lat="45.94958" lon="4.71436">
        <ele>184</ele>
        <time>2018-03-22T16:14:09Z</time>
      </trkpt>
      <trkpt lat="45.94954" lon="4.7144">
        <ele>184</ele>
        <time>2018-03-22T16:14:10Z</time>
      </trkpt>
      <trkpt lat="45.9495" lon="4.71445">
        <ele>184</ele>
        <time>2018-03-22T16:14:11Z</time>
      </trkpt>
      <trkpt lat="45.94945" lon="4.7145">
        <ele>184</ele>
        <time>2018-03-22T16:14:12Z</time>
      </trkpt>
      <trkpt lat="45.94937" lon="4.71456">
        <ele>184</ele>
        <time>2018-03-22T16:14:14Z</time>
      </trkpt>
      <trkpt lat="45.94933" lon="4.71457">
        <ele>184</ele>
        <time>2018-03-22T16:14:15Z</time>
      </trkpt>
      <trkpt lat="45.94928" lon="4.71458">
        <ele>184</ele>
        <time>2018-03-22T16:14:16Z</time>
      </trkpt>
      <trkpt lat="45.94923" lon="4.71457">
        <ele>184</ele>
        <time>2018-03-22T16:14:17Z</time>
      </trkpt>
      <trkpt lat="45.94918" lon="4.71457">
        <ele>184</ele>
        <time>2018-03-22T16:14:18Z</time>
      </trkpt>
      <trkpt lat="45.94913" lon="4.71458">
        <ele>184</ele>
        <time>2018-03-22T16:14:19Z</time>
      </trkpt>
      <trkpt lat="45.94907" lon="4.71458">
        <ele>184</ele>
        <time>2018-03-22T16:14:20Z</time>
      </trkpt>
      <trkpt lat="45.94902" lon="4.71458">
        <ele>184</ele>
        <time>2018-03-22T16:14:21Z</time>
      </trkpt>
      <trkpt lat="45.94897" lon="4.71458">
        <ele>184</ele>
        <time>2018-03-22T16:14:22Z</time>
      </trkpt>
      <trkpt lat="45.94892" lon="4.71458">
        <ele>184</ele>
        <time>2018-03-22T16:14:23Z</time>
      </trkpt>
      <trkpt lat="45.94887" lon="4.71457">
        <ele>184</ele>
        <time>2018-03-22T16:14:24Z</time>
      </trkpt>
      <trkpt lat="45.94882" lon="4.71457">
        <ele>184</ele>
        <time>2018-03-22T16:14:25Z</time>
      </trkpt>
      <trkpt lat="45.94877" lon="4.71457">
        <ele>184</ele>
        <time>2018-03-22T16:14:26Z</time>
      </trkpt>
      <trkpt lat="45.94872" lon="4.71456">
        <ele>184</ele>
        <time>2018-03-22T16:14:27Z</time>
      </trkpt>
      <trkpt lat="45.94866" lon="4.71455">
        <ele>184</ele>
        <time>2018-03-22T16:14:28Z</time>
      </trkpt>
      <trkpt lat="45.94861" lon="4.71456">
        <ele>184</ele>
        <time>2018-03-22T16:14:29Z</time>
      </trkpt>
      <trkpt lat="45.94856" lon="4.71455">
        <ele>184</ele>
        <time>2018-03-22T16:14:30Z</time>
      </trkpt>
      <trkpt lat="45.9485" lon="4.71453">
        <ele>184</ele>
        <time>2018-03-22T16:14:31Z</time>
      </trkpt>
      <trkpt lat="45.94842" lon="4.71451">
        <ele>184</ele>
        <time>2018-03-22T16:14:33Z</time>
      </trkpt>
      <trkpt lat="45.94838" lon="4.71448">
        <ele>184</ele>
        <time>2018-03-22T16:14:34Z</time>
      </trkpt>
      <trkpt lat="45.94833" lon="4.71448">
        <ele>184</ele>
        <time>2018-03-22T16:14:35Z</time>
      </trkpt>
      <trkpt lat="45.94828" lon="4.71448">
        <ele>184</ele>
        <time>2018-03-22T16:14:36Z</time>
      </trkpt>
      <trkpt lat="45.94823" lon="4.71448">
        <ele>184</ele>
        <time>2018-03-22T16:14:37Z</time>
      </trkpt>
      <trkpt lat="45.94818" lon="4.71447">
        <ele>184</ele>
        <time>2018-03-22T16:14:38Z</time>
      </trkpt>
      <trkpt lat="45.94814" lon="4.71447">
        <ele>184</ele>
        <time>2018-03-22T16:14:39Z</time>
      </trkpt>
      <trkpt lat="45.94809" lon="4.71446">
        <ele>184</ele>
        <time>2018-03-22T16:14:40Z</time>
      </trkpt>
      <trkpt lat="45.94803" lon="4.71445">
        <ele>184</ele>
        <time>2018-03-22T16:14:41Z</time>
      </trkpt>
      <trkpt lat="45.94798" lon="4.71445">
        <ele>184</ele>
        <time>2018-03-22T16:14:42Z</time>
      </trkpt>
      <trkpt lat="45.94792" lon="4.71443">
        <ele>184</ele>
        <time>2018-03-22T16:14:43Z</time>
      </trkpt>
      <trkpt lat="45.94787" lon="4.71443">
        <ele>184</ele>
        <time>2018-03-22T16:14:44Z</time>
      </trkpt>
      <trkpt lat="45.94782" lon="4.71443">
        <ele>184</ele>
        <time>2018-03-22T16:14:45Z</time>
      </trkpt>
      <trkpt lat="45.94777" lon="4.71443">
        <ele>184</ele>
        <time>2018-03-22T16:14:46Z</time>
      </trkpt>
      <trkpt lat="45.94772" lon="4.71443">
        <ele>184</ele>
        <time>2018-03-22T16:14:47Z</time>
      </trkpt>
      <trkpt lat="45.94767" lon="4.71443">
        <ele>184</ele>
        <time>2018-03-22T16:14:48Z</time>
      </trkpt>
      <trkpt lat="45.94763" lon="4.71443">
        <ele>184</ele>
        <time>2018-03-22T16:14:49Z</time>
      </trkpt>
      <trkpt lat="45.94758" lon="4.71443">
        <ele>184</ele>
        <time>2018-03-22T16:14:50Z</time>
      </trkpt>
      <trkpt lat="45.94753" lon="4.71443">
        <ele>184</ele>
        <time>2018-03-22T16:14:51Z</time>
      </trkpt>
      <trkpt lat="45.94748" lon="4.71443">
        <ele>183</ele>
        <time>2018-03-22T16:14:52Z</time>
      </trkpt>
      <trkpt lat="45.94743" lon="4.71443">
        <ele>183</ele>
        <time>2018-03-22T16:14:53Z</time>
      </trkpt>
      <trkpt lat="45.94738" lon="4.71443">
        <ele>183</ele>
        <time>2018-03-22T16:14:54Z</time>
      </trkpt>
      <trkpt lat="45.94729" lon="4.71442">
        <ele>183</ele>
        <time>2018-03-22T16:14:56Z</time>
      </trkpt>
      <trkpt lat="45.94724" lon="4.71441">
        <ele>183</ele>
        <time>2018-03-22T16:14:57Z</time>
      </trkpt>
      <trkpt lat="45.94718" lon="4.7144">
        <ele>182</ele>
        <time>2018-03-22T16:14:58Z</time>
      </trkpt>
      <trkpt lat="45.94713" lon="4.7144">
        <ele>182</ele>
        <time>2018-03-22T16:14:59Z</time>
      </trkpt>
      <trkpt lat="45.94707" lon="4.7144">
        <ele>182</ele>
        <time>2018-03-22T16:15:00Z</time>
      </trkpt>
      <trkpt lat="45.947" lon="4.71441">
        <ele>182</ele>
        <time>2018-03-22T16:15:01Z</time>
      </trkpt>
      <trkpt lat="45.94694" lon="4.71441">
        <ele>182</ele>
        <time>2018-03-22T16:15:02Z</time>
      </trkpt>
      <trkpt lat="45.94689" lon="4.71441">
        <ele>182</ele>
        <time>2018-03-22T16:15:03Z</time>
      </trkpt>
      <trkpt lat="45.94684" lon="4.7144">
        <ele>182</ele>
        <time>2018-03-22T16:15:04Z</time>
      </trkpt>
      <trkpt lat="45.94679" lon="4.71439">
        <ele>182</ele>
        <time>2018-03-22T16:15:05Z</time>
      </trkpt>
      <trkpt lat="45.94673" lon="4.7144">
        <ele>182</ele>
        <time>2018-03-22T16:15:06Z</time>
      </trkpt>
      <trkpt lat="45.94668" lon="4.7144">
        <ele>182</ele>
        <time>2018-03-22T16:15:07Z</time>
      </trkpt>
      <trkpt lat="45.94663" lon="4.71439">
        <ele>182</ele>
        <time>2018-03-22T16:15:08Z</time>
      </trkpt>
      <trkpt lat="45.94657" lon="4.71438">
        <ele>182</ele>
        <time>2018-03-22T16:15:09Z</time>
      </trkpt>
      <trkpt lat="45.94651" lon="4.71437">
        <ele>182</ele>
        <time>2018-03-22T16:15:10Z</time>
      </trkpt>
      <trkpt lat="45.94646" lon="4.71436">
        <ele>182</ele>
        <time>2018-03-22T16:15:11Z</time>
      </trkpt>
      <trkpt lat="45.9464" lon="4.71436">
        <ele>182</ele>
        <time>2018-03-22T16:15:12Z</time>
      </trkpt>
      <trkpt lat="45.94634" lon="4.71437">
        <ele>181</ele>
        <time>2018-03-22T16:15:13Z</time>
      </trkpt>
      <trkpt lat="45.94628" lon="4.71438">
        <ele>181</ele>
        <time>2018-03-22T16:15:14Z</time>
      </trkpt>
      <trkpt lat="45.94621" lon="4.71438">
        <ele>181</ele>
        <time>2018-03-22T16:15:15Z</time>
      </trkpt>
      <trkpt lat="45.94614" lon="4.71439">
        <ele>181</ele>
        <time>2018-03-22T16:15:16Z</time>
      </trkpt>
      <trkpt lat="45.94608" lon="4.71437">
        <ele>182</ele>
        <time>2018-03-22T16:15:17Z</time>
      </trkpt>
      <trkpt lat="45.94601" lon="4.71437">
        <ele>182</ele>
        <time>2018-03-22T16:15:18Z</time>
      </trkpt>
      <trkpt lat="45.94595" lon="4.71437">
        <ele>182</ele>
        <time>2018-03-22T16:15:19Z</time>
      </trkpt>
      <trkpt lat="45.9459" lon="4.71436">
        <ele>182</ele>
        <time>2018-03-22T16:15:20Z</time>
      </trkpt>
      <trkpt lat="45.94584" lon="4.71437">
        <ele>182</ele>
        <time>2018-03-22T16:15:21Z</time>
      </trkpt>
      <trkpt lat="45.94578" lon="4.71437">
        <ele>182</ele>
        <time>2018-03-22T16:15:22Z</time>
      </trkpt>
      <trkpt lat="45.94571" lon="4.71438">
        <ele>182</ele>
        <time>2018-03-22T16:15:23Z</time>
      </trkpt>
      <trkpt lat="45.94564" lon="4.7144">
        <ele>181</ele>
        <time>2018-03-22T16:15:24Z</time>
      </trkpt>
      <trkpt lat="45.94559" lon="4.71442">
        <ele>181</ele>
        <time>2018-03-22T16:15:25Z</time>
      </trkpt>
      <trkpt lat="45.94552" lon="4.71444">
        <ele>181</ele>
        <time>2018-03-22T16:15:26Z</time>
      </trkpt>
      <trkpt lat="45.94545" lon="4.71446">
        <ele>181</ele>
        <time>2018-03-22T16:15:27Z</time>
      </trkpt>
      <trkpt lat="45.94537" lon="4.71447">
        <ele>180</ele>
        <time>2018-03-22T16:15:28Z</time>
      </trkpt>
      <trkpt lat="45.9453" lon="4.7145">
        <ele>180</ele>
        <time>2018-03-22T16:15:29Z</time>
      </trkpt>
      <trkpt lat="45.94521" lon="4.71452">
        <ele>180</ele>
        <time>2018-03-22T16:15:30Z</time>
      </trkpt>
      <trkpt lat="45.94514" lon="4.71455">
        <ele>180</ele>
        <time>2018-03-22T16:15:31Z</time>
      </trkpt>
      <trkpt lat="45.94507" lon="4.71458">
        <ele>180</ele>
        <time>2018-03-22T16:15:32Z</time>
      </trkpt>
      <trkpt lat="45.945" lon="4.71459">
        <ele>180</ele>
        <time>2018-03-22T16:15:33Z</time>
      </trkpt>
      <trkpt lat="45.94493" lon="4.71461">
        <ele>179</ele>
        <time>2018-03-22T16:15:34Z</time>
      </trkpt>
      <trkpt lat="45.94486" lon="4.71464">
        <ele>179</ele>
        <time>2018-03-22T16:15:35Z</time>
      </trkpt>
      <trkpt lat="45.94479" lon="4.71467">
        <ele>179</ele>
        <time>2018-03-22T16:15:36Z</time>
      </trkpt>
      <trkpt lat="45.94473" lon="4.7147">
        <ele>179</ele>
        <time>2018-03-22T16:15:37Z</time>
      </trkpt>
      <trkpt lat="45.94465" lon="4.71474">
        <ele>179</ele>
        <time>2018-03-22T16:15:38Z</time>
      </trkpt>
      <trkpt lat="45.94457" lon="4.71477">
        <ele>179</ele>
        <time>2018-03-22T16:15:39Z</time>
      </trkpt>
      <trkpt lat="45.94448" lon="4.7148">
        <ele>179</ele>
        <time>2018-03-22T16:15:40Z</time>
      </trkpt>
      <trkpt lat="45.9444" lon="4.71484">
        <ele>179</ele>
        <time>2018-03-22T16:15:41Z</time>
      </trkpt>
      <trkpt lat="45.94432" lon="4.71487">
        <ele>178</ele>
        <time>2018-03-22T16:15:42Z</time>
      </trkpt>
      <trkpt lat="45.94424" lon="4.71491">
        <ele>178</ele>
        <time>2018-03-22T16:15:43Z</time>
      </trkpt>
      <trkpt lat="45.94416" lon="4.71492">
        <ele>178</ele>
        <time>2018-03-22T16:15:44Z</time>
      </trkpt>
      <trkpt lat="45.94408" lon="4.71495">
        <ele>178</ele>
        <time>2018-03-22T16:15:45Z</time>
      </trkpt>
      <trkpt lat="45.944" lon="4.71498">
        <ele>178</ele>
        <time>2018-03-22T16:15:46Z</time>
      </trkpt>
      <trkpt lat="45.94392" lon="4.71501">
        <ele>177</ele>
        <time>2018-03-22T16:15:47Z</time>
      </trkpt>
      <trkpt lat="45.94383" lon="4.71503">
        <ele>177</ele>
        <time>2018-03-22T16:15:48Z</time>
      </trkpt>
      <trkpt lat="45.94375" lon="4.71506">
        <ele>177</ele>
        <time>2018-03-22T16:15:49Z</time>
      </trkpt>
      <trkpt lat="45.94366" lon="4.71508">
        <ele>176</ele>
        <time>2018-03-22T16:15:50Z</time>
      </trkpt>
      <trkpt lat="45.94359" lon="4.71511">
        <ele>176</ele>
        <time>2018-03-22T16:15:51Z</time>
      </trkpt>
      <trkpt lat="45.94352" lon="4.71513">
        <ele>176</ele>
        <time>2018-03-22T16:15:52Z</time>
      </trkpt>
      <trkpt lat="45.94345" lon="4.71516">
        <ele>176</ele>
        <time>2018-03-22T16:15:53Z</time>
      </trkpt>
      <trkpt lat="45.94338" lon="4.7152">
        <ele>176</ele>
        <time>2018-03-22T16:15:54Z</time>
      </trkpt>
      <trkpt lat="45.9433" lon="4.71523">
        <ele>176</ele>
        <time>2018-03-22T16:15:55Z</time>
      </trkpt>
      <trkpt lat="45.94324" lon="4.71525">
        <ele>176</ele>
        <time>2018-03-22T16:15:56Z</time>
      </trkpt>
      <trkpt lat="45.94316" lon="4.71528">
        <ele>175</ele>
        <time>2018-03-22T16:15:57Z</time>
      </trkpt>
      <trkpt lat="45.94308" lon="4.71532">
        <ele>175</ele>
        <time>2018-03-22T16:15:58Z</time>
      </trkpt>
      <trkpt lat="45.94301" lon="4.71536">
        <ele>175</ele>
        <time>2018-03-22T16:15:59Z</time>
      </trkpt>
      <trkpt lat="45.94295" lon="4.71539">
        <ele>175</ele>
        <time>2018-03-22T16:16:00Z</time>
      </trkpt>
      <trkpt lat="45.94287" lon="4.71541">
        <ele>175</ele>
        <time>2018-03-22T16:16:01Z</time>
      </trkpt>
      <trkpt lat="45.9428" lon="4.71545">
        <ele>175</ele>
        <time>2018-03-22T16:16:02Z</time>
      </trkpt>
      <trkpt lat="45.94272" lon="4.71547">
        <ele>175</ele>
        <time>2018-03-22T16:16:03Z</time>
      </trkpt>
      <trkpt lat="45.94264" lon="4.71551">
        <ele>175</ele>
        <time>2018-03-22T16:16:04Z</time>
      </trkpt>
      <trkpt lat="45.94257" lon="4.71554">
        <ele>175</ele>
        <time>2018-03-22T16:16:05Z</time>
      </trkpt>
      <trkpt lat="45.9425" lon="4.71555">
        <ele>175</ele>
        <time>2018-03-22T16:16:06Z</time>
      </trkpt>
      <trkpt lat="45.94243" lon="4.71559">
        <ele>174</ele>
        <time>2018-03-22T16:16:07Z</time>
      </trkpt>
      <trkpt lat="45.94236" lon="4.71561">
        <ele>174</ele>
        <time>2018-03-22T16:16:08Z</time>
      </trkpt>
      <trkpt lat="45.94229" lon="4.71564">
        <ele>174</ele>
        <time>2018-03-22T16:16:09Z</time>
      </trkpt>
      <trkpt lat="45.94222" lon="4.71567">
        <ele>174</ele>
        <time>2018-03-22T16:16:10Z</time>
      </trkpt>
      <trkpt lat="45.94216" lon="4.71571">
        <ele>174</ele>
        <time>2018-03-22T16:16:11Z</time>
      </trkpt>
      <trkpt lat="45.94209" lon="4.71574">
        <ele>174</ele>
        <time>2018-03-22T16:16:12Z</time>
      </trkpt>
      <trkpt lat="45.94203" lon="4.71576">
        <ele>174</ele>
        <time>2018-03-22T16:16:13Z</time>
      </trkpt>
      <trkpt lat="45.94197" lon="4.71579">
        <ele>174</ele>
        <time>2018-03-22T16:16:14Z</time>
      </trkpt>
      <trkpt lat="45.9419" lon="4.71582">
        <ele>174</ele>
        <time>2018-03-22T16:16:15Z</time>
      </trkpt>
      <trkpt lat="45.94183" lon="4.71585">
        <ele>173</ele>
        <time>2018-03-22T16:16:16Z</time>
      </trkpt>
      <trkpt lat="45.94177" lon="4.71587">
        <ele>174</ele>
        <time>2018-03-22T16:16:17Z</time>
      </trkpt>
      <trkpt lat="45.94171" lon="4.71589">
        <ele>174</ele>
        <time>2018-03-22T16:16:18Z</time>
      </trkpt>
      <trkpt lat="45.94164" lon="4.71593">
        <ele>174</ele>
        <time>2018-03-22T16:16:19Z</time>
      </trkpt>
      <trkpt lat="45.94156" lon="4.71597">
        <ele>173</ele>
        <time>2018-03-22T16:16:20Z</time>
      </trkpt>
      <trkpt lat="45.94149" lon="4.71599">
        <ele>173</ele>
        <time>2018-03-22T16:16:21Z</time>
      </trkpt>
      <trkpt lat="45.94142" lon="4.71602">
        <ele>173</ele>
        <time>2018-03-22T16:16:22Z</time>
      </trkpt>
      <trkpt lat="45.94133" lon="4.71605">
        <ele>173</ele>
        <time>2018-03-22T16:16:23Z</time>
      </trkpt>
      <trkpt lat="45.94126" lon="4.71607">
        <ele>173</ele>
        <time>2018-03-22T16:16:24Z</time>
      </trkpt>
      <trkpt lat="45.94118" lon="4.7161">
        <ele>173</ele>
        <time>2018-03-22T16:16:25Z</time>
      </trkpt>
      <trkpt lat="45.94111" lon="4.71613">
        <ele>173</ele>
        <time>2018-03-22T16:16:26Z</time>
      </trkpt>
      <trkpt lat="45.94105" lon="4.71615">
        <ele>173</ele>
        <time>2018-03-22T16:16:27Z</time>
      </trkpt>
      <trkpt lat="45.94098" lon="4.71618">
        <ele>173</ele>
        <time>2018-03-22T16:16:28Z</time>
      </trkpt>
      <trkpt lat="45.94091" lon="4.71621">
        <ele>173</ele>
        <time>2018-03-22T16:16:29Z</time>
      </trkpt>
      <trkpt lat="45.94086" lon="4.71621">
        <ele>173</ele>
        <time>2018-03-22T16:16:30Z</time>
      </trkpt>
      <trkpt lat="45.94078" lon="4.71625">
        <ele>174</ele>
        <time>2018-03-22T16:16:31Z</time>
      </trkpt>
      <trkpt lat="45.94071" lon="4.71626">
        <ele>174</ele>
        <time>2018-03-22T16:16:32Z</time>
      </trkpt>
      <trkpt lat="45.94065" lon="4.7163">
        <ele>174</ele>
        <time>2018-03-22T16:16:33Z</time>
      </trkpt>
      <trkpt lat="45.94059" lon="4.71631">
        <ele>174</ele>
        <time>2018-03-22T16:16:34Z</time>
      </trkpt>
      <trkpt lat="45.94052" lon="4.71633">
        <ele>175</ele>
        <time>2018-03-22T16:16:35Z</time>
      </trkpt>
      <trkpt lat="45.94047" lon="4.71635">
        <ele>175</ele>
        <time>2018-03-22T16:16:36Z</time>
      </trkpt>
      <trkpt lat="45.94042" lon="4.71636">
        <ele>175</ele>
        <time>2018-03-22T16:16:37Z</time>
      </trkpt>
      <trkpt lat="45.94035" lon="4.71637">
        <ele>175</ele>
        <time>2018-03-22T16:16:38Z</time>
      </trkpt>
      <trkpt lat="45.94029" lon="4.71639">
        <ele>175</ele>
        <time>2018-03-22T16:16:39Z</time>
      </trkpt>
      <trkpt lat="45.94024" lon="4.71642">
        <ele>175</ele>
        <time>2018-03-22T16:16:40Z</time>
      </trkpt>
      <trkpt lat="45.94019" lon="4.71645">
        <ele>175</ele>
        <time>2018-03-22T16:16:41Z</time>
      </trkpt>
      <trkpt lat="45.94014" lon="4.71648">
        <ele>176</ele>
        <time>2018-03-22T16:16:42Z</time>
      </trkpt>
      <trkpt lat="45.94009" lon="4.71652">
        <ele>176</ele>
        <time>2018-03-22T16:16:43Z</time>
      </trkpt>
      <trkpt lat="45.94004" lon="4.71656">
        <ele>176</ele>
        <time>2018-03-22T16:16:44Z</time>
      </trkpt>
      <trkpt lat="45.93999" lon="4.71658">
        <ele>177</ele>
        <time>2018-03-22T16:16:45Z</time>
      </trkpt>
      <trkpt lat="45.93993" lon="4.71658">
        <ele>177</ele>
        <time>2018-03-22T16:16:46Z</time>
      </trkpt>
      <trkpt lat="45.93987" lon="4.71658">
        <ele>177</ele>
        <time>2018-03-22T16:16:47Z</time>
      </trkpt>
      <trkpt lat="45.93981" lon="4.71661">
        <ele>177</ele>
        <time>2018-03-22T16:16:48Z</time>
      </trkpt>
      <trkpt lat="45.93976" lon="4.71662">
        <ele>177</ele>
        <time>2018-03-22T16:16:49Z</time>
      </trkpt>
      <trkpt lat="45.93971" lon="4.71664">
        <ele>177</ele>
        <time>2018-03-22T16:16:50Z</time>
      </trkpt>
      <trkpt lat="45.93965" lon="4.71667">
        <ele>177</ele>
        <time>2018-03-22T16:16:51Z</time>
      </trkpt>
      <trkpt lat="45.93959" lon="4.71669">
        <ele>175</ele>
        <time>2018-03-22T16:16:52Z</time>
      </trkpt>
      <trkpt lat="45.93954" lon="4.71671">
        <ele>175</ele>
        <time>2018-03-22T16:16:53Z</time>
      </trkpt>
      <trkpt lat="45.93948" lon="4.71673">
        <ele>175</ele>
        <time>2018-03-22T16:16:54Z</time>
      </trkpt>
      <trkpt lat="45.93944" lon="4.71675">
        <ele>175</ele>
        <time>2018-03-22T16:16:55Z</time>
      </trkpt>
      <trkpt lat="45.93938" lon="4.71678">
        <ele>175</ele>
        <time>2018-03-22T16:16:56Z</time>
      </trkpt>
      <trkpt lat="45.93933" lon="4.7168">
        <ele>175</ele>
        <time>2018-03-22T16:16:57Z</time>
      </trkpt>
      <trkpt lat="45.93928" lon="4.71684">
        <ele>175</ele>
        <time>2018-03-22T16:16:58Z</time>
      </trkpt>
      <trkpt lat="45.93923" lon="4.71686">
        <ele>175</ele>
        <time>2018-03-22T16:16:59Z</time>
      </trkpt>
      <trkpt lat="45.93918" lon="4.71688">
        <ele>175</ele>
        <time>2018-03-22T16:17:00Z</time>
      </trkpt>
      <trkpt lat="45.93912" lon="4.7169">
        <ele>174</ele>
        <time>2018-03-22T16:17:01Z</time>
      </trkpt>
      <trkpt lat="45.93907" lon="4.71692">
        <ele>174</ele>
        <time>2018-03-22T16:17:02Z</time>
      </trkpt>
      <trkpt lat="45.93902" lon="4.71694">
        <ele>174</ele>
        <time>2018-03-22T16:17:03Z</time>
      </trkpt>
      <trkpt lat="45.93896" lon="4.71697">
        <ele>174</ele>
        <time>2018-03-22T16:17:04Z</time>
      </trkpt>
      <trkpt lat="45.93891" lon="4.71699">
        <ele>174</ele>
        <time>2018-03-22T16:17:05Z</time>
      </trkpt>
      <trkpt lat="45.93885" lon="4.71701">
        <ele>174</ele>
        <time>2018-03-22T16:17:06Z</time>
      </trkpt>
      <trkpt lat="45.9388" lon="4.71703">
        <ele>174</ele>
        <time>2018-03-22T16:17:07Z</time>
      </trkpt>
      <trkpt lat="45.93874" lon="4.71705">
        <ele>174</ele>
        <time>2018-03-22T16:17:08Z</time>
      </trkpt>
      <trkpt lat="45.93869" lon="4.71708">
        <ele>174</ele>
        <time>2018-03-22T16:17:09Z</time>
      </trkpt>
      <trkpt lat="45.93863" lon="4.7171">
        <ele>174</ele>
        <time>2018-03-22T16:17:10Z</time>
      </trkpt>
      <trkpt lat="45.93857" lon="4.71711">
        <ele>174</ele>
        <time>2018-03-22T16:17:11Z</time>
      </trkpt>
      <trkpt lat="45.93852" lon="4.71713">
        <ele>174</ele>
        <time>2018-03-22T16:17:12Z</time>
      </trkpt>
      <trkpt lat="45.93846" lon="4.71715">
        <ele>174</ele>
        <time>2018-03-22T16:17:13Z</time>
      </trkpt>
      <trkpt lat="45.93842" lon="4.71716">
        <ele>174</ele>
        <time>2018-03-22T16:17:14Z</time>
      </trkpt>
      <trkpt lat="45.93836" lon="4.71718">
        <ele>175</ele>
        <time>2018-03-22T16:17:15Z</time>
      </trkpt>
      <trkpt lat="45.93831" lon="4.7172">
        <ele>175</ele>
        <time>2018-03-22T16:17:16Z</time>
      </trkpt>
      <trkpt lat="45.93825" lon="4.71722">
        <ele>175</ele>
        <time>2018-03-22T16:17:17Z</time>
      </trkpt>
      <trkpt lat="45.9382" lon="4.71724">
        <ele>175</ele>
        <time>2018-03-22T16:17:18Z</time>
      </trkpt>
      <trkpt lat="45.93814" lon="4.71726">
        <ele>175</ele>
        <time>2018-03-22T16:17:19Z</time>
      </trkpt>
      <trkpt lat="45.93809" lon="4.71727">
        <ele>175</ele>
        <time>2018-03-22T16:17:20Z</time>
      </trkpt>
      <trkpt lat="45.93803" lon="4.71729">
        <ele>175</ele>
        <time>2018-03-22T16:17:21Z</time>
      </trkpt>
      <trkpt lat="45.93798" lon="4.71731">
        <ele>175</ele>
        <time>2018-03-22T16:17:22Z</time>
      </trkpt>
      <trkpt lat="45.93792" lon="4.71734">
        <ele>175</ele>
        <time>2018-03-22T16:17:23Z</time>
      </trkpt>
      <trkpt lat="45.93787" lon="4.71736">
        <ele>175</ele>
        <time>2018-03-22T16:17:24Z</time>
      </trkpt>
      <trkpt lat="45.93779" lon="4.71741">
        <ele>175</ele>
        <time>2018-03-22T16:17:26Z</time>
      </trkpt>
      <trkpt lat="45.93774" lon="4.71744">
        <ele>175</ele>
        <time>2018-03-22T16:17:27Z</time>
      </trkpt>
      <trkpt lat="45.93771" lon="4.71747">
        <ele>175</ele>
        <time>2018-03-22T16:17:28Z</time>
      </trkpt>
      <trkpt lat="45.93764" lon="4.71747">
        <ele>175</ele>
        <time>2018-03-22T16:17:29Z</time>
      </trkpt>
      <trkpt lat="45.93759" lon="4.71748">
        <ele>175</ele>
        <time>2018-03-22T16:17:30Z</time>
      </trkpt>
      <trkpt lat="45.93753" lon="4.71751">
        <ele>175</ele>
        <time>2018-03-22T16:17:31Z</time>
      </trkpt>
      <trkpt lat="45.93745" lon="4.71753">
        <ele>175</ele>
        <time>2018-03-22T16:17:33Z</time>
      </trkpt>
      <trkpt lat="45.93742" lon="4.71751">
        <ele>175</ele>
        <time>2018-03-22T16:17:34Z</time>
      </trkpt>
      <trkpt lat="45.93734" lon="4.71756">
        <ele>176</ele>
        <time>2018-03-22T16:17:36Z</time>
      </trkpt>
      <trkpt lat="45.93733" lon="4.71762">
        <ele>176</ele>
        <time>2018-03-22T16:17:37Z</time>
      </trkpt>
      <trkpt lat="45.93731" lon="4.71764">
        <ele>176</ele>
        <time>2018-03-22T16:17:38Z</time>
      </trkpt>
      <trkpt lat="45.93726" lon="4.71771">
        <ele>176</ele>
        <time>2018-03-22T16:17:39Z</time>
      </trkpt>
      <trkpt lat="45.9372" lon="4.71777">
        <ele>176</ele>
        <time>2018-03-22T16:17:40Z</time>
      </trkpt>
      <trkpt lat="45.93717" lon="4.71784">
        <ele>176</ele>
        <time>2018-03-22T16:17:41Z</time>
      </trkpt>
      <trkpt lat="45.93713" lon="4.7179">
        <ele>176</ele>
        <time>2018-03-22T16:17:42Z</time>
      </trkpt>
      <trkpt lat="45.93712" lon="4.71798">
        <ele>176</ele>
        <time>2018-03-22T16:17:43Z</time>
      </trkpt>
      <trkpt lat="45.9371" lon="4.71805">
        <ele>176</ele>
        <time>2018-03-22T16:17:44Z</time>
      </trkpt>
      <trkpt lat="45.93709" lon="4.71814">
        <ele>176</ele>
        <time>2018-03-22T16:17:45Z</time>
      </trkpt>
      <trkpt lat="45.93707" lon="4.71822">
        <ele>176</ele>
        <time>2018-03-22T16:17:46Z</time>
      </trkpt>
      <trkpt lat="45.93703" lon="4.71829">
        <ele>176</ele>
        <time>2018-03-22T16:17:47Z</time>
      </trkpt>
      <trkpt lat="45.93699" lon="4.71836">
        <ele>175</ele>
        <time>2018-03-22T16:17:48Z</time>
      </trkpt>
      <trkpt lat="45.93697" lon="4.71843">
        <ele>175</ele>
        <time>2018-03-22T16:17:49Z</time>
      </trkpt>
      <trkpt lat="45.93695" lon="4.71853">
        <ele>175</ele>
        <time>2018-03-22T16:17:50Z</time>
      </trkpt>
      <trkpt lat="45.9369" lon="4.7186">
        <ele>175</ele>
        <time>2018-03-22T16:17:51Z</time>
      </trkpt>
      <trkpt lat="45.93688" lon="4.71866">
        <ele>175</ele>
        <time>2018-03-22T16:17:52Z</time>
      </trkpt>
      <trkpt lat="45.93684" lon="4.71872">
        <ele>175</ele>
        <time>2018-03-22T16:17:53Z</time>
      </trkpt>
      <trkpt lat="45.93681" lon="4.71883">
        <ele>175</ele>
        <time>2018-03-22T16:17:55Z</time>
      </trkpt>
      <trkpt lat="45.93677" lon="4.71892">
        <ele>175</ele>
        <time>2018-03-22T16:17:56Z</time>
      </trkpt>
      <trkpt lat="45.93674" lon="4.719">
        <ele>175</ele>
        <time>2018-03-22T16:17:57Z</time>
      </trkpt>
      <trkpt lat="45.93672" lon="4.71909">
        <ele>175</ele>
        <time>2018-03-22T16:17:58Z</time>
      </trkpt>
      <trkpt lat="45.93668" lon="4.71916">
        <ele>175</ele>
        <time>2018-03-22T16:17:59Z</time>
      </trkpt>
      <trkpt lat="45.93666" lon="4.71925">
        <ele>175</ele>
        <time>2018-03-22T16:18:00Z</time>
      </trkpt>
      <trkpt lat="45.93663" lon="4.71932">
        <ele>175</ele>
        <time>2018-03-22T16:18:01Z</time>
      </trkpt>
      <trkpt lat="45.93661" lon="4.7194">
        <ele>175</ele>
        <time>2018-03-22T16:18:02Z</time>
      </trkpt>
      <trkpt lat="45.93658" lon="4.71949">
        <ele>175</ele>
        <time>2018-03-22T16:18:03Z</time>
      </trkpt>
      <trkpt lat="45.93654" lon="4.71955">
        <ele>175</ele>
        <time>2018-03-22T16:18:04Z</time>
      </trkpt>
      <trkpt lat="45.93651" lon="4.71962">
        <ele>175</ele>
        <time>2018-03-22T16:18:05Z</time>
      </trkpt>
      <trkpt lat="45.93649" lon="4.71971">
        <ele>175</ele>
        <time>2018-03-22T16:18:06Z</time>
      </trkpt>
      <trkpt lat="45.93646" lon="4.71979">
        <ele>175</ele>
        <time>2018-03-22T16:18:07Z</time>
      </trkpt>
      <trkpt lat="45.93642" lon="4.71987">
        <ele>175</ele>
        <time>2018-03-22T16:18:08Z</time>
      </trkpt>
      <trkpt lat="45.9364" lon="4.71994">
        <ele>175</ele>
        <time>2018-03-22T16:18:09Z</time>
      </trkpt>
      <trkpt lat="45.93638" lon="4.72002">
        <ele>174</ele>
        <time>2018-03-22T16:18:10Z</time>
      </trkpt>
      <trkpt lat="45.93636" lon="4.7201">
        <ele>174</ele>
        <time>2018-03-22T16:18:11Z</time>
      </trkpt>
      <trkpt lat="45.93632" lon="4.72017">
        <ele>174</ele>
        <time>2018-03-22T16:18:12Z</time>
      </trkpt>
      <trkpt lat="45.93628" lon="4.72024">
        <ele>175</ele>
        <time>2018-03-22T16:18:13Z</time>
      </trkpt>
      <trkpt lat="45.93624" lon="4.72031">
        <ele>175</ele>
        <time>2018-03-22T16:18:14Z</time>
      </trkpt>
      <trkpt lat="45.93621" lon="4.72038">
        <ele>175</ele>
        <time>2018-03-22T16:18:15Z</time>
      </trkpt>
      <trkpt lat="45.9362" lon="4.72045">
        <ele>175</ele>
        <time>2018-03-22T16:18:16Z</time>
      </trkpt>
      <trkpt lat="45.93615" lon="4.7205">
        <ele>175</ele>
        <time>2018-03-22T16:18:17Z</time>
      </trkpt>
      <trkpt lat="45.93613" lon="4.72058">
        <ele>175</ele>
        <time>2018-03-22T16:18:18Z</time>
      </trkpt>
      <trkpt lat="45.93611" lon="4.72064">
        <ele>175</ele>
        <time>2018-03-22T16:18:19Z</time>
      </trkpt>
      <trkpt lat="45.93607" lon="4.72074">
        <ele>175</ele>
        <time>2018-03-22T16:18:20Z</time>
      </trkpt>
      <trkpt lat="45.93605" lon="4.7208">
        <ele>175</ele>
        <time>2018-03-22T16:18:21Z</time>
      </trkpt>
      <trkpt lat="45.93601" lon="4.72088">
        <ele>175</ele>
        <time>2018-03-22T16:18:22Z</time>
      </trkpt>
      <trkpt lat="45.93599" lon="4.72095">
        <ele>174</ele>
        <time>2018-03-22T16:18:23Z</time>
      </trkpt>
      <trkpt lat="45.93594" lon="4.72101">
        <ele>174</ele>
        <time>2018-03-22T16:18:24Z</time>
      </trkpt>
      <trkpt lat="45.93589" lon="4.72109">
        <ele>174</ele>
        <time>2018-03-22T16:18:25Z</time>
      </trkpt>
      <trkpt lat="45.93587" lon="4.72116">
        <ele>174</ele>
        <time>2018-03-22T16:18:26Z</time>
      </trkpt>
      <trkpt lat="45.93583" lon="4.72121">
        <ele>175</ele>
        <time>2018-03-22T16:18:27Z</time>
      </trkpt>
      <trkpt lat="45.9358" lon="4.72128">
        <ele>174</ele>
        <time>2018-03-22T16:18:28Z</time>
      </trkpt>
      <trkpt lat="45.93576" lon="4.72134">
        <ele>174</ele>
        <time>2018-03-22T16:18:29Z</time>
      </trkpt>
      <trkpt lat="45.93574" lon="4.72141">
        <ele>174</ele>
        <time>2018-03-22T16:18:30Z</time>
      </trkpt>
      <trkpt lat="45.93571" lon="4.72148">
        <ele>174</ele>
        <time>2018-03-22T16:18:31Z</time>
      </trkpt>
      <trkpt lat="45.93573" lon="4.72157">
        <ele>174</ele>
        <time>2018-03-22T16:18:32Z</time>
      </trkpt>
      <trkpt lat="45.93569" lon="4.72165">
        <ele>174</ele>
        <time>2018-03-22T16:18:33Z</time>
      </trkpt>
      <trkpt lat="45.93566" lon="4.72172">
        <ele>173</ele>
        <time>2018-03-22T16:18:34Z</time>
      </trkpt>
      <trkpt lat="45.93564" lon="4.72181">
        <ele>173</ele>
        <time>2018-03-22T16:18:35Z</time>
      </trkpt>
      <trkpt lat="45.93562" lon="4.7219">
        <ele>173</ele>
        <time>2018-03-22T16:18:36Z</time>
      </trkpt>
      <trkpt lat="45.93559" lon="4.72197">
        <ele>173</ele>
        <time>2018-03-22T16:18:37Z</time>
      </trkpt>
      <trkpt lat="45.93556" lon="4.72205">
        <ele>173</ele>
        <time>2018-03-22T16:18:38Z</time>
      </trkpt>
      <trkpt lat="45.93552" lon="4.72212">
        <ele>173</ele>
        <time>2018-03-22T16:18:39Z</time>
      </trkpt>
      <trkpt lat="45.93549" lon="4.72219">
        <ele>172</ele>
        <time>2018-03-22T16:18:40Z</time>
      </trkpt>
      <trkpt lat="45.93546" lon="4.72225">
        <ele>172</ele>
        <time>2018-03-22T16:18:41Z</time>
      </trkpt>
      <trkpt lat="45.93543" lon="4.72232">
        <ele>172</ele>
        <time>2018-03-22T16:18:42Z</time>
      </trkpt>
      <trkpt lat="45.9354" lon="4.72239">
        <ele>172</ele>
        <time>2018-03-22T16:18:43Z</time>
      </trkpt>
      <trkpt lat="45.93538" lon="4.72246">
        <ele>172</ele>
        <time>2018-03-22T16:18:44Z</time>
      </trkpt>
      <trkpt lat="45.93535" lon="4.72252">
        <ele>172</ele>
        <time>2018-03-22T16:18:45Z</time>
      </trkpt>
      <trkpt lat="45.93533" lon="4.72259">
        <ele>172</ele>
        <time>2018-03-22T16:18:46Z</time>
      </trkpt>
      <trkpt lat="45.9353" lon="4.72266">
        <ele>172</ele>
        <time>2018-03-22T16:18:47Z</time>
      </trkpt>
      <trkpt lat="45.93527" lon="4.72274">
        <ele>172</ele>
        <time>2018-03-22T16:18:48Z</time>
      </trkpt>
      <trkpt lat="45.93524" lon="4.72281">
        <ele>172</ele>
        <time>2018-03-22T16:18:49Z</time>
      </trkpt>
      <trkpt lat="45.9352" lon="4.72288">
        <ele>172</ele>
        <time>2018-03-22T16:18:50Z</time>
      </trkpt>
      <trkpt lat="45.93517" lon="4.72296">
        <ele>172</ele>
        <time>2018-03-22T16:18:51Z</time>
      </trkpt>
      <trkpt lat="45.93513" lon="4.72304">
        <ele>173</ele>
        <time>2018-03-22T16:18:52Z</time>
      </trkpt>
      <trkpt lat="45.93507" lon="4.72312">
        <ele>173</ele>
        <time>2018-03-22T16:18:53Z</time>
      </trkpt>
      <trkpt lat="45.93503" lon="4.72318">
        <ele>173</ele>
        <time>2018-03-22T16:18:54Z</time>
      </trkpt>
      <trkpt lat="45.93497" lon="4.72326">
        <ele>173</ele>
        <time>2018-03-22T16:18:55Z</time>
      </trkpt>
      <trkpt lat="45.93492" lon="4.72334">
        <ele>173</ele>
        <time>2018-03-22T16:18:56Z</time>
      </trkpt>
      <trkpt lat="45.93487" lon="4.72342">
        <ele>173</ele>
        <time>2018-03-22T16:18:57Z</time>
      </trkpt>
      <trkpt lat="45.93482" lon="4.72349">
        <ele>173</ele>
        <time>2018-03-22T16:18:58Z</time>
      </trkpt>
      <trkpt lat="45.93477" lon="4.72357">
        <ele>173</ele>
        <time>2018-03-22T16:18:59Z</time>
      </trkpt>
      <trkpt lat="45.9347" lon="4.72363">
        <ele>173</ele>
        <time>2018-03-22T16:19:00Z</time>
      </trkpt>
      <trkpt lat="45.93465" lon="4.7237">
        <ele>173</ele>
        <time>2018-03-22T16:19:01Z</time>
      </trkpt>
      <trkpt lat="45.93461" lon="4.72376">
        <ele>173</ele>
        <time>2018-03-22T16:19:02Z</time>
      </trkpt>
      <trkpt lat="45.93455" lon="4.72382">
        <ele>173</ele>
        <time>2018-03-22T16:19:03Z</time>
      </trkpt>
      <trkpt lat="45.93449" lon="4.72387">
        <ele>173</ele>
        <time>2018-03-22T16:19:04Z</time>
      </trkpt>
      <trkpt lat="45.93444" lon="4.72391">
        <ele>173</ele>
        <time>2018-03-22T16:19:05Z</time>
      </trkpt>
      <trkpt lat="45.9344" lon="4.72395">
        <ele>173</ele>
        <time>2018-03-22T16:19:06Z</time>
      </trkpt>
      <trkpt lat="45.93434" lon="4.72399">
        <ele>173</ele>
        <time>2018-03-22T16:19:07Z</time>
      </trkpt>
      <trkpt lat="45.93431" lon="4.72401">
        <ele>174</ele>
        <time>2018-03-22T16:19:08Z</time>
      </trkpt>
      <trkpt lat="45.93422" lon="4.72404">
        <ele>174</ele>
        <time>2018-03-22T16:19:12Z</time>
      </trkpt>
      <trkpt lat="45.93419" lon="4.72405">
        <ele>174</ele>
        <time>2018-03-22T16:19:13Z</time>
      </trkpt>
      <trkpt lat="45.93413" lon="4.72408">
        <ele>174</ele>
        <time>2018-03-22T16:19:15Z</time>
      </trkpt>
      <trkpt lat="45.93406" lon="4.72409">
        <ele>174</ele>
        <time>2018-03-22T16:19:16Z</time>
      </trkpt>
      <trkpt lat="45.93398" lon="4.72407">
        <ele>174</ele>
        <time>2018-03-22T16:19:18Z</time>
      </trkpt>
      <trkpt lat="45.93393" lon="4.72407">
        <ele>174</ele>
        <time>2018-03-22T16:19:19Z</time>
      </trkpt>
      <trkpt lat="45.93386" lon="4.7241">
        <ele>174</ele>
        <time>2018-03-22T16:19:21Z</time>
      </trkpt>
      <trkpt lat="45.93385" lon="4.72418">
        <ele>173</ele>
        <time>2018-03-22T16:19:22Z</time>
      </trkpt>
      <trkpt lat="45.93386" lon="4.7243">
        <ele>173</ele>
        <time>2018-03-22T16:19:24Z</time>
      </trkpt>
      <trkpt lat="45.93388" lon="4.72436">
        <ele>173</ele>
        <time>2018-03-22T16:19:25Z</time>
      </trkpt>
      <trkpt lat="45.9339" lon="4.72442">
        <ele>173</ele>
        <time>2018-03-22T16:19:26Z</time>
      </trkpt>
      <trkpt lat="45.9339" lon="4.72449">
        <ele>173</ele>
        <time>2018-03-22T16:19:27Z</time>
      </trkpt>
      <trkpt lat="45.93389" lon="4.72456">
        <ele>173</ele>
        <time>2018-03-22T16:19:28Z</time>
      </trkpt>
      <trkpt lat="45.93388" lon="4.72462">
        <ele>173</ele>
        <time>2018-03-22T16:19:29Z</time>
      </trkpt>
      <trkpt lat="45.93383" lon="4.72471">
        <ele>173</ele>
        <time>2018-03-22T16:19:31Z</time>
      </trkpt>
      <trkpt lat="45.9338" lon="4.72476">
        <ele>173</ele>
        <time>2018-03-22T16:19:32Z</time>
      </trkpt>
      <trkpt lat="45.93376" lon="4.7248">
        <ele>173</ele>
        <time>2018-03-22T16:19:33Z</time>
      </trkpt>
      <trkpt lat="45.93372" lon="4.72485">
        <ele>173</ele>
        <time>2018-03-22T16:19:34Z</time>
      </trkpt>
      <trkpt lat="45.93368" lon="4.7249">
        <ele>173</ele>
        <time>2018-03-22T16:19:35Z</time>
      </trkpt>
      <trkpt lat="45.93363" lon="4.72495">
        <ele>173</ele>
        <time>2018-03-22T16:19:36Z</time>
      </trkpt>
      <trkpt lat="45.93359" lon="4.725">
        <ele>172</ele>
        <time>2018-03-22T16:19:37Z</time>
      </trkpt>
      <trkpt lat="45.93355" lon="4.72505">
        <ele>172</ele>
        <time>2018-03-22T16:19:38Z</time>
      </trkpt>
      <trkpt lat="45.93351" lon="4.72511">
        <ele>172</ele>
        <time>2018-03-22T16:19:39Z</time>
      </trkpt>
      <trkpt lat="45.93347" lon="4.72515">
        <ele>172</ele>
        <time>2018-03-22T16:19:40Z</time>
      </trkpt>
      <trkpt lat="45.93342" lon="4.7252">
        <ele>172</ele>
        <time>2018-03-22T16:19:41Z</time>
      </trkpt>
      <trkpt lat="45.93338" lon="4.72524">
        <ele>172</ele>
        <time>2018-03-22T16:19:42Z</time>
      </trkpt>
      <trkpt lat="45.93335" lon="4.72529">
        <ele>172</ele>
        <time>2018-03-22T16:19:43Z</time>
      </trkpt>
      <trkpt lat="45.93331" lon="4.72534">
        <ele>172</ele>
        <time>2018-03-22T16:19:44Z</time>
      </trkpt>
      <trkpt lat="45.93327" lon="4.72538">
        <ele>172</ele>
        <time>2018-03-22T16:19:45Z</time>
      </trkpt>
      <trkpt lat="45.93323" lon="4.72543">
        <ele>172</ele>
        <time>2018-03-22T16:19:46Z</time>
      </trkpt>
      <trkpt lat="45.93319" lon="4.72547">
        <ele>172</ele>
        <time>2018-03-22T16:19:47Z</time>
      </trkpt>
      <trkpt lat="45.93315" lon="4.72552">
        <ele>172</ele>
        <time>2018-03-22T16:19:48Z</time>
      </trkpt>
      <trkpt lat="45.93309" lon="4.72557">
        <ele>172</ele>
        <time>2018-03-22T16:19:49Z</time>
      </trkpt>
      <trkpt lat="45.93306" lon="4.72562">
        <ele>172</ele>
        <time>2018-03-22T16:19:50Z</time>
      </trkpt>
      <trkpt lat="45.933" lon="4.72568">
        <ele>171</ele>
        <time>2018-03-22T16:19:51Z</time>
      </trkpt>
      <trkpt lat="45.93296" lon="4.72574">
        <ele>171</ele>
        <time>2018-03-22T16:19:52Z</time>
      </trkpt>
      <trkpt lat="45.93291" lon="4.7258">
        <ele>171</ele>
        <time>2018-03-22T16:19:53Z</time>
      </trkpt>
      <trkpt lat="45.93287" lon="4.72586">
        <ele>170</ele>
        <time>2018-03-22T16:19:54Z</time>
      </trkpt>
      <trkpt lat="45.93282" lon="4.7259">
        <ele>170</ele>
        <time>2018-03-22T16:19:55Z</time>
      </trkpt>
      <trkpt lat="45.93277" lon="4.72595">
        <ele>170</ele>
        <time>2018-03-22T16:19:56Z</time>
      </trkpt>
      <trkpt lat="45.93273" lon="4.726">
        <ele>170</ele>
        <time>2018-03-22T16:19:57Z</time>
      </trkpt>
      <trkpt lat="45.93269" lon="4.72604">
        <ele>170</ele>
        <time>2018-03-22T16:19:58Z</time>
      </trkpt>
      <trkpt lat="45.93266" lon="4.72609">
        <ele>170</ele>
        <time>2018-03-22T16:19:59Z</time>
      </trkpt>
      <trkpt lat="45.93262" lon="4.72613">
        <ele>170</ele>
        <time>2018-03-22T16:20:00Z</time>
      </trkpt>
      <trkpt lat="45.93258" lon="4.72617">
        <ele>170</ele>
        <time>2018-03-22T16:20:01Z</time>
      </trkpt>
      <trkpt lat="45.93254" lon="4.72622">
        <ele>170</ele>
        <time>2018-03-22T16:20:02Z</time>
      </trkpt>
      <trkpt lat="45.9325" lon="4.72627">
        <ele>170</ele>
        <time>2018-03-22T16:20:03Z</time>
      </trkpt>
      <trkpt lat="45.93246" lon="4.72632">
        <ele>170</ele>
        <time>2018-03-22T16:20:04Z</time>
      </trkpt>
      <trkpt lat="45.93243" lon="4.72637">
        <ele>170</ele>
        <time>2018-03-22T16:20:05Z</time>
      </trkpt>
      <trkpt lat="45.93239" lon="4.72642">
        <ele>170</ele>
        <time>2018-03-22T16:20:06Z</time>
      </trkpt>
      <trkpt lat="45.93235" lon="4.72646">
        <ele>170</ele>
        <time>2018-03-22T16:20:07Z</time>
      </trkpt>
      <trkpt lat="45.93231" lon="4.72651">
        <ele>170</ele>
        <time>2018-03-22T16:20:08Z</time>
      </trkpt>
      <trkpt lat="45.93228" lon="4.72656">
        <ele>170</ele>
        <time>2018-03-22T16:20:09Z</time>
      </trkpt>
      <trkpt lat="45.93224" lon="4.7266">
        <ele>170</ele>
        <time>2018-03-22T16:20:10Z</time>
      </trkpt>
      <trkpt lat="45.9322" lon="4.72664">
        <ele>170</ele>
        <time>2018-03-22T16:20:11Z</time>
      </trkpt>
      <trkpt lat="45.93216" lon="4.72669">
        <ele>169</ele>
        <time>2018-03-22T16:20:12Z</time>
      </trkpt>
      <trkpt lat="45.93212" lon="4.72674">
        <ele>169</ele>
        <time>2018-03-22T16:20:13Z</time>
      </trkpt>
      <trkpt lat="45.93208" lon="4.72679">
        <ele>169</ele>
        <time>2018-03-22T16:20:14Z</time>
      </trkpt>
      <trkpt lat="45.93205" lon="4.72684">
        <ele>169</ele>
        <time>2018-03-22T16:20:15Z</time>
      </trkpt>
      <trkpt lat="45.932" lon="4.7269">
        <ele>169</ele>
        <time>2018-03-22T16:20:16Z</time>
      </trkpt>
      <trkpt lat="45.93197" lon="4.72694">
        <ele>169</ele>
        <time>2018-03-22T16:20:17Z</time>
      </trkpt>
      <trkpt lat="45.93193" lon="4.727">
        <ele>169</ele>
        <time>2018-03-22T16:20:18Z</time>
      </trkpt>
      <trkpt lat="45.93189" lon="4.72705">
        <ele>169</ele>
        <time>2018-03-22T16:20:19Z</time>
      </trkpt>
      <trkpt lat="45.93184" lon="4.7271">
        <ele>169</ele>
        <time>2018-03-22T16:20:20Z</time>
      </trkpt>
      <trkpt lat="45.9318" lon="4.72716">
        <ele>169</ele>
        <time>2018-03-22T16:20:21Z</time>
      </trkpt>
      <trkpt lat="45.93174" lon="4.7272">
        <ele>170</ele>
        <time>2018-03-22T16:20:22Z</time>
      </trkpt>
      <trkpt lat="45.93168" lon="4.72726">
        <ele>170</ele>
        <time>2018-03-22T16:20:23Z</time>
      </trkpt>
      <trkpt lat="45.93162" lon="4.7273">
        <ele>170</ele>
        <time>2018-03-22T16:20:24Z</time>
      </trkpt>
      <trkpt lat="45.93158" lon="4.72735">
        <ele>170</ele>
        <time>2018-03-22T16:20:25Z</time>
      </trkpt>
      <trkpt lat="45.93154" lon="4.7274">
        <ele>170</ele>
        <time>2018-03-22T16:20:26Z</time>
      </trkpt>
      <trkpt lat="45.93149" lon="4.72745">
        <ele>170</ele>
        <time>2018-03-22T16:20:27Z</time>
      </trkpt>
      <trkpt lat="45.93144" lon="4.72751">
        <ele>170</ele>
        <time>2018-03-22T16:20:28Z</time>
      </trkpt>
      <trkpt lat="45.93139" lon="4.72756">
        <ele>171</ele>
        <time>2018-03-22T16:20:29Z</time>
      </trkpt>
      <trkpt lat="45.93134" lon="4.72762">
        <ele>171</ele>
        <time>2018-03-22T16:20:30Z</time>
      </trkpt>
      <trkpt lat="45.93129" lon="4.72768">
        <ele>171</ele>
        <time>2018-03-22T16:20:31Z</time>
      </trkpt>
      <trkpt lat="45.93124" lon="4.72775">
        <ele>171</ele>
        <time>2018-03-22T16:20:32Z</time>
      </trkpt>
      <trkpt lat="45.9312" lon="4.72781">
        <ele>171</ele>
        <time>2018-03-22T16:20:33Z</time>
      </trkpt>
      <trkpt lat="45.93115" lon="4.72787">
        <ele>171</ele>
        <time>2018-03-22T16:20:34Z</time>
      </trkpt>
      <trkpt lat="45.93109" lon="4.72793">
        <ele>171</ele>
        <time>2018-03-22T16:20:35Z</time>
      </trkpt>
      <trkpt lat="45.93105" lon="4.72798">
        <ele>171</ele>
        <time>2018-03-22T16:20:36Z</time>
      </trkpt>
      <trkpt lat="45.931" lon="4.72804">
        <ele>171</ele>
        <time>2018-03-22T16:20:37Z</time>
      </trkpt>
      <trkpt lat="45.93095" lon="4.72809">
        <ele>172</ele>
        <time>2018-03-22T16:20:38Z</time>
      </trkpt>
      <trkpt lat="45.9309" lon="4.72814">
        <ele>172</ele>
        <time>2018-03-22T16:20:39Z</time>
      </trkpt>
      <trkpt lat="45.93085" lon="4.7282">
        <ele>172</ele>
        <time>2018-03-22T16:20:40Z</time>
      </trkpt>
      <trkpt lat="45.9308" lon="4.72826">
        <ele>173</ele>
        <time>2018-03-22T16:20:41Z</time>
      </trkpt>
      <trkpt lat="45.93075" lon="4.72831">
        <ele>173</ele>
        <time>2018-03-22T16:20:42Z</time>
      </trkpt>
      <trkpt lat="45.93069" lon="4.72835">
        <ele>173</ele>
        <time>2018-03-22T16:20:43Z</time>
      </trkpt>
      <trkpt lat="45.93063" lon="4.72839">
        <ele>173</ele>
        <time>2018-03-22T16:20:44Z</time>
      </trkpt>
      <trkpt lat="45.93057" lon="4.72843">
        <ele>172</ele>
        <time>2018-03-22T16:20:45Z</time>
      </trkpt>
      <trkpt lat="45.93052" lon="4.72845">
        <ele>172</ele>
        <time>2018-03-22T16:20:46Z</time>
      </trkpt>
      <trkpt lat="45.93045" lon="4.72847">
        <ele>172</ele>
        <time>2018-03-22T16:20:47Z</time>
      </trkpt>
      <trkpt lat="45.93044" lon="4.72855">
        <ele>172</ele>
        <time>2018-03-22T16:20:48Z</time>
      </trkpt>
      <trkpt lat="45.93039" lon="4.72864">
        <ele>172</ele>
        <time>2018-03-22T16:20:49Z</time>
      </trkpt>
      <trkpt lat="45.93036" lon="4.72869">
        <ele>172</ele>
        <time>2018-03-22T16:20:50Z</time>
      </trkpt>
      <trkpt lat="45.93034" lon="4.72876">
        <ele>172</ele>
        <time>2018-03-22T16:20:51Z</time>
      </trkpt>
      <trkpt lat="45.9303" lon="4.7288">
        <ele>172</ele>
        <time>2018-03-22T16:20:52Z</time>
      </trkpt>
      <trkpt lat="45.93025" lon="4.72885">
        <ele>172</ele>
        <time>2018-03-22T16:20:53Z</time>
      </trkpt>
      <trkpt lat="45.93021" lon="4.72891">
        <ele>172</ele>
        <time>2018-03-22T16:20:54Z</time>
      </trkpt>
      <trkpt lat="45.93018" lon="4.72896">
        <ele>172</ele>
        <time>2018-03-22T16:20:55Z</time>
      </trkpt>
      <trkpt lat="45.93013" lon="4.729">
        <ele>172</ele>
        <time>2018-03-22T16:20:56Z</time>
      </trkpt>
      <trkpt lat="45.93009" lon="4.72904">
        <ele>171</ele>
        <time>2018-03-22T16:20:57Z</time>
      </trkpt>
      <trkpt lat="45.93005" lon="4.72909">
        <ele>171</ele>
        <time>2018-03-22T16:20:58Z</time>
      </trkpt>
      <trkpt lat="45.93001" lon="4.72915">
        <ele>171</ele>
        <time>2018-03-22T16:20:59Z</time>
      </trkpt>
      <trkpt lat="45.92998" lon="4.72919">
        <ele>171</ele>
        <time>2018-03-22T16:21:00Z</time>
      </trkpt>
      <trkpt lat="45.92993" lon="4.72925">
        <ele>171</ele>
        <time>2018-03-22T16:21:01Z</time>
      </trkpt>
      <trkpt lat="45.92988" lon="4.7293">
        <ele>171</ele>
        <time>2018-03-22T16:21:02Z</time>
      </trkpt>
      <trkpt lat="45.92984" lon="4.72935">
        <ele>171</ele>
        <time>2018-03-22T16:21:03Z</time>
      </trkpt>
      <trkpt lat="45.9298" lon="4.72941">
        <ele>171</ele>
        <time>2018-03-22T16:21:04Z</time>
      </trkpt>
      <trkpt lat="45.92976" lon="4.72945">
        <ele>171</ele>
        <time>2018-03-22T16:21:05Z</time>
      </trkpt>
      <trkpt lat="45.92972" lon="4.7295">
        <ele>171</ele>
        <time>2018-03-22T16:21:06Z</time>
      </trkpt>
      <trkpt lat="45.92968" lon="4.72955">
        <ele>171</ele>
        <time>2018-03-22T16:21:07Z</time>
      </trkpt>
      <trkpt lat="45.92964" lon="4.72958">
        <ele>171</ele>
        <time>2018-03-22T16:21:08Z</time>
      </trkpt>
      <trkpt lat="45.9296" lon="4.72963">
        <ele>171</ele>
        <time>2018-03-22T16:21:09Z</time>
      </trkpt>
      <trkpt lat="45.92957" lon="4.72968">
        <ele>171</ele>
        <time>2018-03-22T16:21:10Z</time>
      </trkpt>
      <trkpt lat="45.92953" lon="4.72973">
        <ele>171</ele>
        <time>2018-03-22T16:21:11Z</time>
      </trkpt>
      <trkpt lat="45.92949" lon="4.72978">
        <ele>171</ele>
        <time>2018-03-22T16:21:12Z</time>
      </trkpt>
      <trkpt lat="45.92944" lon="4.72983">
        <ele>171</ele>
        <time>2018-03-22T16:21:13Z</time>
      </trkpt>
      <trkpt lat="45.9294" lon="4.72988">
        <ele>171</ele>
        <time>2018-03-22T16:21:14Z</time>
      </trkpt>
      <trkpt lat="45.92936" lon="4.72992">
        <ele>171</ele>
        <time>2018-03-22T16:21:15Z</time>
      </trkpt>
      <trkpt lat="45.92932" lon="4.72996">
        <ele>172</ele>
        <time>2018-03-22T16:21:16Z</time>
      </trkpt>
      <trkpt lat="45.92929" lon="4.73">
        <ele>172</ele>
        <time>2018-03-22T16:21:17Z</time>
      </trkpt>
      <trkpt lat="45.92924" lon="4.73004">
        <ele>172</ele>
        <time>2018-03-22T16:21:18Z</time>
      </trkpt>
      <trkpt lat="45.92917" lon="4.73012">
        <ele>172</ele>
        <time>2018-03-22T16:21:20Z</time>
      </trkpt>
      <trkpt lat="45.92914" lon="4.73016">
        <ele>172</ele>
        <time>2018-03-22T16:21:21Z</time>
      </trkpt>
      <trkpt lat="45.9291" lon="4.7302">
        <ele>172</ele>
        <time>2018-03-22T16:21:22Z</time>
      </trkpt>
      <trkpt lat="45.92907" lon="4.73025">
        <ele>172</ele>
        <time>2018-03-22T16:21:23Z</time>
      </trkpt>
      <trkpt lat="45.92903" lon="4.73029">
        <ele>172</ele>
        <time>2018-03-22T16:21:24Z</time>
      </trkpt>
      <trkpt lat="45.929" lon="4.73034">
        <ele>172</ele>
        <time>2018-03-22T16:21:25Z</time>
      </trkpt>
      <trkpt lat="45.92896" lon="4.73039">
        <ele>172</ele>
        <time>2018-03-22T16:21:26Z</time>
      </trkpt>
      <trkpt lat="45.92893" lon="4.73045">
        <ele>172</ele>
        <time>2018-03-22T16:21:27Z</time>
      </trkpt>
      <trkpt lat="45.9289" lon="4.7305">
        <ele>172</ele>
        <time>2018-03-22T16:21:28Z</time>
      </trkpt>
      <trkpt lat="45.92887" lon="4.73055">
        <ele>172</ele>
        <time>2018-03-22T16:21:29Z</time>
      </trkpt>
      <trkpt lat="45.92882" lon="4.73059">
        <ele>172</ele>
        <time>2018-03-22T16:21:30Z</time>
      </trkpt>
      <trkpt lat="45.9288" lon="4.73064">
        <ele>172</ele>
        <time>2018-03-22T16:21:31Z</time>
      </trkpt>
      <trkpt lat="45.92877" lon="4.73069">
        <ele>172</ele>
        <time>2018-03-22T16:21:32Z</time>
      </trkpt>
      <trkpt lat="45.92873" lon="4.73073">
        <ele>172</ele>
        <time>2018-03-22T16:21:33Z</time>
      </trkpt>
      <trkpt lat="45.92866" lon="4.73081">
        <ele>172</ele>
        <time>2018-03-22T16:21:35Z</time>
      </trkpt>
      <trkpt lat="45.92863" lon="4.73087">
        <ele>171</ele>
        <time>2018-03-22T16:21:36Z</time>
      </trkpt>
      <trkpt lat="45.9286" lon="4.73093">
        <ele>171</ele>
        <time>2018-03-22T16:21:37Z</time>
      </trkpt>
      <trkpt lat="45.92856" lon="4.73097">
        <ele>171</ele>
        <time>2018-03-22T16:21:38Z</time>
      </trkpt>
      <trkpt lat="45.92849" lon="4.73099">
        <ele>171</ele>
        <time>2018-03-22T16:21:40Z</time>
      </trkpt>
      <trkpt lat="45.92847" lon="4.73098">
        <ele>171</ele>
        <time>2018-03-22T16:21:41Z</time>
      </trkpt>
      <trkpt lat="45.92843" lon="4.73088">
        <ele>171</ele>
        <time>2018-03-22T16:21:43Z</time>
      </trkpt>
      <trkpt lat="45.92843" lon="4.73081">
        <ele>171</ele>
        <time>2018-03-22T16:21:44Z</time>
      </trkpt>
      <trkpt lat="45.92842" lon="4.73075">
        <ele>171</ele>
        <time>2018-03-22T16:21:45Z</time>
      </trkpt>
      <trkpt lat="45.92841" lon="4.73068">
        <ele>171</ele>
        <time>2018-03-22T16:21:46Z</time>
      </trkpt>
      <trkpt lat="45.92839" lon="4.73056">
        <ele>171</ele>
        <time>2018-03-22T16:21:48Z</time>
      </trkpt>
      <trkpt lat="45.92838" lon="4.7305">
        <ele>171</ele>
        <time>2018-03-22T16:21:49Z</time>
      </trkpt>
      <trkpt lat="45.92838" lon="4.73041">
        <ele>171</ele>
        <time>2018-03-22T16:21:50Z</time>
      </trkpt>
      <trkpt lat="45.92838" lon="4.73034">
        <ele>171</ele>
        <time>2018-03-22T16:21:51Z</time>
      </trkpt>
      <trkpt lat="45.92835" lon="4.73027">
        <ele>171</ele>
        <time>2018-03-22T16:21:52Z</time>
      </trkpt>
      <trkpt lat="45.92834" lon="4.7302">
        <ele>171</ele>
        <time>2018-03-22T16:21:53Z</time>
      </trkpt>
      <trkpt lat="45.92833" lon="4.73014">
        <ele>170</ele>
        <time>2018-03-22T16:21:54Z</time>
      </trkpt>
      <trkpt lat="45.92832" lon="4.73007">
        <ele>170</ele>
        <time>2018-03-22T16:21:55Z</time>
      </trkpt>
      <trkpt lat="45.92831" lon="4.73">
        <ele>170</ele>
        <time>2018-03-22T16:21:56Z</time>
      </trkpt>
      <trkpt lat="45.9283" lon="4.72993">
        <ele>170</ele>
        <time>2018-03-22T16:21:57Z</time>
      </trkpt>
      <trkpt lat="45.9283" lon="4.72985">
        <ele>170</ele>
        <time>2018-03-22T16:21:58Z</time>
      </trkpt>
      <trkpt lat="45.92829" lon="4.72979">
        <ele>170</ele>
        <time>2018-03-22T16:21:59Z</time>
      </trkpt>
      <trkpt lat="45.92829" lon="4.72973">
        <ele>170</ele>
        <time>2018-03-22T16:22:00Z</time>
      </trkpt>
      <trkpt lat="45.92828" lon="4.72965">
        <ele>170</ele>
        <time>2018-03-22T16:22:01Z</time>
      </trkpt>
      <trkpt lat="45.92828" lon="4.72958">
        <ele>170</ele>
        <time>2018-03-22T16:22:02Z</time>
      </trkpt>
      <trkpt lat="45.92828" lon="4.72951">
        <ele>170</ele>
        <time>2018-03-22T16:22:03Z</time>
      </trkpt>
      <trkpt lat="45.92827" lon="4.72944">
        <ele>170</ele>
        <time>2018-03-22T16:22:04Z</time>
      </trkpt>
      <trkpt lat="45.92827" lon="4.72937">
        <ele>170</ele>
        <time>2018-03-22T16:22:05Z</time>
      </trkpt>
      <trkpt lat="45.92826" lon="4.7293">
        <ele>170</ele>
        <time>2018-03-22T16:22:06Z</time>
      </trkpt>
      <trkpt lat="45.92825" lon="4.72923">
        <ele>170</ele>
        <time>2018-03-22T16:22:07Z</time>
      </trkpt>
      <trkpt lat="45.92824" lon="4.72916">
        <ele>170</ele>
        <time>2018-03-22T16:22:08Z</time>
      </trkpt>
      <trkpt lat="45.92825" lon="4.72909">
        <ele>170</ele>
        <time>2018-03-22T16:22:09Z</time>
      </trkpt>
      <trkpt lat="45.92822" lon="4.72897">
        <ele>170</ele>
        <time>2018-03-22T16:22:11Z</time>
      </trkpt>
      <trkpt lat="45.9282" lon="4.72891">
        <ele>170</ele>
        <time>2018-03-22T16:22:12Z</time>
      </trkpt>
      <trkpt lat="45.92819" lon="4.72884">
        <ele>170</ele>
        <time>2018-03-22T16:22:13Z</time>
      </trkpt>
      <trkpt lat="45.92818" lon="4.72878">
        <ele>170</ele>
        <time>2018-03-22T16:22:14Z</time>
      </trkpt>
      <trkpt lat="45.92817" lon="4.72871">
        <ele>170</ele>
        <time>2018-03-22T16:22:15Z</time>
      </trkpt>
      <trkpt lat="45.92815" lon="4.72864">
        <ele>170</ele>
        <time>2018-03-22T16:22:16Z</time>
      </trkpt>
      <trkpt lat="45.92814" lon="4.72857">
        <ele>170</ele>
        <time>2018-03-22T16:22:17Z</time>
      </trkpt>
      <trkpt lat="45.92813" lon="4.7285">
        <ele>170</ele>
        <time>2018-03-22T16:22:18Z</time>
      </trkpt>
      <trkpt lat="45.92812" lon="4.72843">
        <ele>170</ele>
        <time>2018-03-22T16:22:19Z</time>
      </trkpt>
      <trkpt lat="45.9281" lon="4.72836">
        <ele>170</ele>
        <time>2018-03-22T16:22:20Z</time>
      </trkpt>
      <trkpt lat="45.92809" lon="4.72823">
        <ele>171</ele>
        <time>2018-03-22T16:22:22Z</time>
      </trkpt>
      <trkpt lat="45.92808" lon="4.72816">
        <ele>171</ele>
        <time>2018-03-22T16:22:23Z</time>
      </trkpt>
      <trkpt lat="45.92807" lon="4.72809">
        <ele>171</ele>
        <time>2018-03-22T16:22:24Z</time>
      </trkpt>
      <trkpt lat="45.92806" lon="4.72803">
        <ele>171</ele>
        <time>2018-03-22T16:22:25Z</time>
      </trkpt>
      <trkpt lat="45.92803" lon="4.72792">
        <ele>171</ele>
        <time>2018-03-22T16:22:27Z</time>
      </trkpt>
      <trkpt lat="45.928" lon="4.72788">
        <ele>171</ele>
        <time>2018-03-22T16:22:28Z</time>
      </trkpt>
      <trkpt lat="45.92793" lon="4.72786">
        <ele>171</ele>
        <time>2018-03-22T16:22:30Z</time>
      </trkpt>
      <trkpt lat="45.9279" lon="4.72789">
        <ele>171</ele>
        <time>2018-03-22T16:22:31Z</time>
      </trkpt>
      <trkpt lat="45.92784" lon="4.72795">
        <ele>170</ele>
        <time>2018-03-22T16:22:33Z</time>
      </trkpt>
      <trkpt lat="45.9278" lon="4.72798">
        <ele>170</ele>
        <time>2018-03-22T16:22:34Z</time>
      </trkpt>
      <trkpt lat="45.92773" lon="4.72805">
        <ele>170</ele>
        <time>2018-03-22T16:22:36Z</time>
      </trkpt>
      <trkpt lat="45.9277" lon="4.72808">
        <ele>170</ele>
        <time>2018-03-22T16:22:37Z</time>
      </trkpt>
      <trkpt lat="45.92763" lon="4.72811">
        <ele>170</ele>
        <time>2018-03-22T16:22:38Z</time>
      </trkpt>
      <trkpt lat="45.92759" lon="4.72814">
        <ele>170</ele>
        <time>2018-03-22T16:22:39Z</time>
      </trkpt>
      <trkpt lat="45.92753" lon="4.72818">
        <ele>170</ele>
        <time>2018-03-22T16:22:40Z</time>
      </trkpt>
      <trkpt lat="45.9275" lon="4.72823">
        <ele>169</ele>
        <time>2018-03-22T16:22:41Z</time>
      </trkpt>
      <trkpt lat="45.92746" lon="4.72825">
        <ele>169</ele>
        <time>2018-03-22T16:22:42Z</time>
      </trkpt>
      <trkpt lat="45.92741" lon="4.72829">
        <ele>169</ele>
        <time>2018-03-22T16:22:43Z</time>
      </trkpt>
      <trkpt lat="45.92736" lon="4.72832">
        <ele>169</ele>
        <time>2018-03-22T16:22:44Z</time>
      </trkpt>
      <trkpt lat="45.92732" lon="4.72835">
        <ele>169</ele>
        <time>2018-03-22T16:22:45Z</time>
      </trkpt>
      <trkpt lat="45.92727" lon="4.72838">
        <ele>169</ele>
        <time>2018-03-22T16:22:46Z</time>
      </trkpt>
      <trkpt lat="45.92722" lon="4.72842">
        <ele>169</ele>
        <time>2018-03-22T16:22:47Z</time>
      </trkpt>
      <trkpt lat="45.92717" lon="4.72845">
        <ele>169</ele>
        <time>2018-03-22T16:22:48Z</time>
      </trkpt>
      <trkpt lat="45.92713" lon="4.72849">
        <ele>169</ele>
        <time>2018-03-22T16:22:49Z</time>
      </trkpt>
      <trkpt lat="45.92709" lon="4.72854">
        <ele>169</ele>
        <time>2018-03-22T16:22:50Z</time>
      </trkpt>
      <trkpt lat="45.92704" lon="4.72857">
        <ele>169</ele>
        <time>2018-03-22T16:22:51Z</time>
      </trkpt>
      <trkpt lat="45.92699" lon="4.72861">
        <ele>169</ele>
        <time>2018-03-22T16:22:52Z</time>
      </trkpt>
      <trkpt lat="45.92694" lon="4.72865">
        <ele>169</ele>
        <time>2018-03-22T16:22:53Z</time>
      </trkpt>
      <trkpt lat="45.9269" lon="4.72869">
        <ele>169</ele>
        <time>2018-03-22T16:22:54Z</time>
      </trkpt>
      <trkpt lat="45.92683" lon="4.72871">
        <ele>169</ele>
        <time>2018-03-22T16:22:55Z</time>
      </trkpt>
      <trkpt lat="45.92678" lon="4.72874">
        <ele>169</ele>
        <time>2018-03-22T16:22:56Z</time>
      </trkpt>
      <trkpt lat="45.92674" lon="4.72878">
        <ele>170</ele>
        <time>2018-03-22T16:22:57Z</time>
      </trkpt>
      <trkpt lat="45.92668" lon="4.72881">
        <ele>170</ele>
        <time>2018-03-22T16:22:58Z</time>
      </trkpt>
      <trkpt lat="45.92664" lon="4.72885">
        <ele>169</ele>
        <time>2018-03-22T16:22:59Z</time>
      </trkpt>
      <trkpt lat="45.9266" lon="4.72888">
        <ele>169</ele>
        <time>2018-03-22T16:23:00Z</time>
      </trkpt>
      <trkpt lat="45.92656" lon="4.72892">
        <ele>169</ele>
        <time>2018-03-22T16:23:01Z</time>
      </trkpt>
      <trkpt lat="45.92651" lon="4.72896">
        <ele>169</ele>
        <time>2018-03-22T16:23:02Z</time>
      </trkpt>
      <trkpt lat="45.92646" lon="4.72901">
        <ele>169</ele>
        <time>2018-03-22T16:23:03Z</time>
      </trkpt>
      <trkpt lat="45.92641" lon="4.72905">
        <ele>169</ele>
        <time>2018-03-22T16:23:04Z</time>
      </trkpt>
      <trkpt lat="45.92636" lon="4.7291">
        <ele>169</ele>
        <time>2018-03-22T16:23:05Z</time>
      </trkpt>
      <trkpt lat="45.92631" lon="4.72914">
        <ele>169</ele>
        <time>2018-03-22T16:23:06Z</time>
      </trkpt>
      <trkpt lat="45.92626" lon="4.72918">
        <ele>170</ele>
        <time>2018-03-22T16:23:07Z</time>
      </trkpt>
      <trkpt lat="45.92621" lon="4.72921">
        <ele>169</ele>
        <time>2018-03-22T16:23:08Z</time>
      </trkpt>
      <trkpt lat="45.92616" lon="4.72925">
        <ele>169</ele>
        <time>2018-03-22T16:23:09Z</time>
      </trkpt>
      <trkpt lat="45.92611" lon="4.72929">
        <ele>169</ele>
        <time>2018-03-22T16:23:10Z</time>
      </trkpt>
      <trkpt lat="45.92607" lon="4.72933">
        <ele>169</ele>
        <time>2018-03-22T16:23:11Z</time>
      </trkpt>
      <trkpt lat="45.92602" lon="4.72939">
        <ele>169</ele>
        <time>2018-03-22T16:23:12Z</time>
      </trkpt>
      <trkpt lat="45.92597" lon="4.72944">
        <ele>169</ele>
        <time>2018-03-22T16:23:13Z</time>
      </trkpt>
      <trkpt lat="45.92593" lon="4.72949">
        <ele>169</ele>
        <time>2018-03-22T16:23:14Z</time>
      </trkpt>
      <trkpt lat="45.92589" lon="4.72954">
        <ele>169</ele>
        <time>2018-03-22T16:23:15Z</time>
      </trkpt>
      <trkpt lat="45.92584" lon="4.72959">
        <ele>169</ele>
        <time>2018-03-22T16:23:16Z</time>
      </trkpt>
      <trkpt lat="45.92581" lon="4.72964">
        <ele>169</ele>
        <time>2018-03-22T16:23:17Z</time>
      </trkpt>
      <trkpt lat="45.92576" lon="4.72969">
        <ele>169</ele>
        <time>2018-03-22T16:23:18Z</time>
      </trkpt>
      <trkpt lat="45.92571" lon="4.72975">
        <ele>169</ele>
        <time>2018-03-22T16:23:19Z</time>
      </trkpt>
      <trkpt lat="45.92566" lon="4.72981">
        <ele>169</ele>
        <time>2018-03-22T16:23:20Z</time>
      </trkpt>
      <trkpt lat="45.92562" lon="4.72986">
        <ele>169</ele>
        <time>2018-03-22T16:23:21Z</time>
      </trkpt>
      <trkpt lat="45.92556" lon="4.72991">
        <ele>169</ele>
        <time>2018-03-22T16:23:22Z</time>
      </trkpt>
      <trkpt lat="45.92551" lon="4.72995">
        <ele>169</ele>
        <time>2018-03-22T16:23:23Z</time>
      </trkpt>
      <trkpt lat="45.92546" lon="4.72999">
        <ele>169</ele>
        <time>2018-03-22T16:23:24Z</time>
      </trkpt>
      <trkpt lat="45.92541" lon="4.73003">
        <ele>169</ele>
        <time>2018-03-22T16:23:25Z</time>
      </trkpt>
      <trkpt lat="45.92536" lon="4.73007">
        <ele>169</ele>
        <time>2018-03-22T16:23:26Z</time>
      </trkpt>
      <trkpt lat="45.92532" lon="4.73012">
        <ele>169</ele>
        <time>2018-03-22T16:23:27Z</time>
      </trkpt>
      <trkpt lat="45.92527" lon="4.73016">
        <ele>169</ele>
        <time>2018-03-22T16:23:28Z</time>
      </trkpt>
      <trkpt lat="45.92523" lon="4.73021">
        <ele>169</ele>
        <time>2018-03-22T16:23:29Z</time>
      </trkpt>
      <trkpt lat="45.92519" lon="4.73025">
        <ele>169</ele>
        <time>2018-03-22T16:23:30Z</time>
      </trkpt>
      <trkpt lat="45.92515" lon="4.73028">
        <ele>169</ele>
        <time>2018-03-22T16:23:31Z</time>
      </trkpt>
      <trkpt lat="45.92511" lon="4.73033">
        <ele>169</ele>
        <time>2018-03-22T16:23:32Z</time>
      </trkpt>
      <trkpt lat="45.92506" lon="4.73038">
        <ele>169</ele>
        <time>2018-03-22T16:23:33Z</time>
      </trkpt>
      <trkpt lat="45.92502" lon="4.73041">
        <ele>169</ele>
        <time>2018-03-22T16:23:34Z</time>
      </trkpt>
      <trkpt lat="45.92497" lon="4.73046">
        <ele>170</ele>
        <time>2018-03-22T16:23:35Z</time>
      </trkpt>
      <trkpt lat="45.92493" lon="4.7305">
        <ele>170</ele>
        <time>2018-03-22T16:23:36Z</time>
      </trkpt>
      <trkpt lat="45.92488" lon="4.73054">
        <ele>170</ele>
        <time>2018-03-22T16:23:37Z</time>
      </trkpt>
      <trkpt lat="45.92483" lon="4.73058">
        <ele>170</ele>
        <time>2018-03-22T16:23:38Z</time>
      </trkpt>
      <trkpt lat="45.92478" lon="4.73061">
        <ele>170</ele>
        <time>2018-03-22T16:23:39Z</time>
      </trkpt>
      <trkpt lat="45.92474" lon="4.73066">
        <ele>170</ele>
        <time>2018-03-22T16:23:40Z</time>
      </trkpt>
      <trkpt lat="45.92468" lon="4.73071">
        <ele>170</ele>
        <time>2018-03-22T16:23:41Z</time>
      </trkpt>
      <trkpt lat="45.92464" lon="4.73075">
        <ele>170</ele>
        <time>2018-03-22T16:23:42Z</time>
      </trkpt>
      <trkpt lat="45.92459" lon="4.73079">
        <ele>170</ele>
        <time>2018-03-22T16:23:43Z</time>
      </trkpt>
      <trkpt lat="45.92454" lon="4.73083">
        <ele>170</ele>
        <time>2018-03-22T16:23:44Z</time>
      </trkpt>
      <trkpt lat="45.9245" lon="4.73087">
        <ele>170</ele>
        <time>2018-03-22T16:23:45Z</time>
      </trkpt>
      <trkpt lat="45.92444" lon="4.73091">
        <ele>170</ele>
        <time>2018-03-22T16:23:46Z</time>
      </trkpt>
      <trkpt lat="45.9244" lon="4.73094">
        <ele>170</ele>
        <time>2018-03-22T16:23:47Z</time>
      </trkpt>
      <trkpt lat="45.92436" lon="4.73098">
        <ele>171</ele>
        <time>2018-03-22T16:23:48Z</time>
      </trkpt>
      <trkpt lat="45.92432" lon="4.73102">
        <ele>171</ele>
        <time>2018-03-22T16:23:49Z</time>
      </trkpt>
      <trkpt lat="45.92428" lon="4.73105">
        <ele>171</ele>
        <time>2018-03-22T16:23:50Z</time>
      </trkpt>
      <trkpt lat="45.92423" lon="4.73108">
        <ele>170</ele>
        <time>2018-03-22T16:23:51Z</time>
      </trkpt>
      <trkpt lat="45.92419" lon="4.73112">
        <ele>170</ele>
        <time>2018-03-22T16:23:52Z</time>
      </trkpt>
      <trkpt lat="45.92415" lon="4.73117">
        <ele>171</ele>
        <time>2018-03-22T16:23:53Z</time>
      </trkpt>
      <trkpt lat="45.92412" lon="4.73122">
        <ele>171</ele>
        <time>2018-03-22T16:23:54Z</time>
      </trkpt>
      <trkpt lat="45.92411" lon="4.73129">
        <ele>171</ele>
        <time>2018-03-22T16:23:55Z</time>
      </trkpt>
      <trkpt lat="45.9241" lon="4.73136">
        <ele>171</ele>
        <time>2018-03-22T16:23:56Z</time>
      </trkpt>
      <trkpt lat="45.92409" lon="4.73143">
        <ele>171</ele>
        <time>2018-03-22T16:23:57Z</time>
      </trkpt>
      <trkpt lat="45.92408" lon="4.73151">
        <ele>171</ele>
        <time>2018-03-22T16:23:58Z</time>
      </trkpt>
      <trkpt lat="45.92408" lon="4.73158">
        <ele>170</ele>
        <time>2018-03-22T16:23:59Z</time>
      </trkpt>
      <trkpt lat="45.92408" lon="4.73165">
        <ele>170</ele>
        <time>2018-03-22T16:24:00Z</time>
      </trkpt>
      <trkpt lat="45.92408" lon="4.73172">
        <ele>170</ele>
        <time>2018-03-22T16:24:01Z</time>
      </trkpt>
      <trkpt lat="45.92408" lon="4.73179">
        <ele>171</ele>
        <time>2018-03-22T16:24:02Z</time>
      </trkpt>
      <trkpt lat="45.92409" lon="4.73187">
        <ele>171</ele>
        <time>2018-03-22T16:24:03Z</time>
      </trkpt>
      <trkpt lat="45.92409" lon="4.73195">
        <ele>171</ele>
        <time>2018-03-22T16:24:04Z</time>
      </trkpt>
      <trkpt lat="45.92409" lon="4.73202">
        <ele>171</ele>
        <time>2018-03-22T16:24:05Z</time>
      </trkpt>
      <trkpt lat="45.92409" lon="4.7321">
        <ele>171</ele>
        <time>2018-03-22T16:24:06Z</time>
      </trkpt>
      <trkpt lat="45.92409" lon="4.73218">
        <ele>171</ele>
        <time>2018-03-22T16:24:07Z</time>
      </trkpt>
      <trkpt lat="45.92409" lon="4.73225">
        <ele>171</ele>
        <time>2018-03-22T16:24:08Z</time>
      </trkpt>
      <trkpt lat="45.92409" lon="4.73232">
        <ele>171</ele>
        <time>2018-03-22T16:24:09Z</time>
      </trkpt>
      <trkpt lat="45.9241" lon="4.73239">
        <ele>171</ele>
        <time>2018-03-22T16:24:10Z</time>
      </trkpt>
      <trkpt lat="45.9241" lon="4.73246">
        <ele>171</ele>
        <time>2018-03-22T16:24:11Z</time>
      </trkpt>
      <trkpt lat="45.9241" lon="4.73253">
        <ele>171</ele>
        <time>2018-03-22T16:24:12Z</time>
      </trkpt>
      <trkpt lat="45.92411" lon="4.73261">
        <ele>171</ele>
        <time>2018-03-22T16:24:13Z</time>
      </trkpt>
      <trkpt lat="45.92411" lon="4.73269">
        <ele>171</ele>
        <time>2018-03-22T16:24:14Z</time>
      </trkpt>
      <trkpt lat="45.92412" lon="4.73276">
        <ele>171</ele>
        <time>2018-03-22T16:24:15Z</time>
      </trkpt>
      <trkpt lat="45.92413" lon="4.73288">
        <ele>171</ele>
        <time>2018-03-22T16:24:17Z</time>
      </trkpt>
      <trkpt lat="45.92413" lon="4.73294">
        <ele>171</ele>
        <time>2018-03-22T16:24:18Z</time>
      </trkpt>
      <trkpt lat="45.92414" lon="4.73306">
        <ele>171</ele>
        <time>2018-03-22T16:24:20Z</time>
      </trkpt>
      <trkpt lat="45.92413" lon="4.73314">
        <ele>171</ele>
        <time>2018-03-22T16:24:21Z</time>
      </trkpt>
      <trkpt lat="45.92414" lon="4.7332">
        <ele>171</ele>
        <time>2018-03-22T16:24:22Z</time>
      </trkpt>
      <trkpt lat="45.92414" lon="4.73327">
        <ele>171</ele>
        <time>2018-03-22T16:24:23Z</time>
      </trkpt>
      <trkpt lat="45.92416" lon="4.73333">
        <ele>171</ele>
        <time>2018-03-22T16:24:24Z</time>
      </trkpt>
      <trkpt lat="45.92417" lon="4.7334">
        <ele>171</ele>
        <time>2018-03-22T16:24:25Z</time>
      </trkpt>
      <trkpt lat="45.92418" lon="4.73347">
        <ele>171</ele>
        <time>2018-03-22T16:24:26Z</time>
      </trkpt>
      <trkpt lat="45.92419" lon="4.73353">
        <ele>171</ele>
        <time>2018-03-22T16:24:27Z</time>
      </trkpt>
      <trkpt lat="45.9242" lon="4.73359">
        <ele>171</ele>
        <time>2018-03-22T16:24:28Z</time>
      </trkpt>
      <trkpt lat="45.92421" lon="4.73366">
        <ele>172</ele>
        <time>2018-03-22T16:24:29Z</time>
      </trkpt>
      <trkpt lat="45.92424" lon="4.73373">
        <ele>172</ele>
        <time>2018-03-22T16:24:30Z</time>
      </trkpt>
      <trkpt lat="45.92426" lon="4.73381">
        <ele>172</ele>
        <time>2018-03-22T16:24:31Z</time>
      </trkpt>
      <trkpt lat="45.92427" lon="4.73387">
        <ele>172</ele>
        <time>2018-03-22T16:24:32Z</time>
      </trkpt>
      <trkpt lat="45.92428" lon="4.73394">
        <ele>172</ele>
        <time>2018-03-22T16:24:33Z</time>
      </trkpt>
      <trkpt lat="45.92429" lon="4.734">
        <ele>172</ele>
        <time>2018-03-22T16:24:34Z</time>
      </trkpt>
      <trkpt lat="45.92432" lon="4.73406">
        <ele>172</ele>
        <time>2018-03-22T16:24:35Z</time>
      </trkpt>
      <trkpt lat="45.92438" lon="4.73415">
        <ele>172</ele>
        <time>2018-03-22T16:24:37Z</time>
      </trkpt>
      <trkpt lat="45.92441" lon="4.73418">
        <ele>173</ele>
        <time>2018-03-22T16:24:38Z</time>
      </trkpt>
      <trkpt lat="45.92448" lon="4.73422">
        <ele>173</ele>
        <time>2018-03-22T16:24:40Z</time>
      </trkpt>
      <trkpt lat="45.9245" lon="4.73423">
        <ele>173</ele>
        <time>2018-03-22T16:24:41Z</time>
      </trkpt>
      <trkpt lat="45.92457" lon="4.7343">
        <ele>173</ele>
        <time>2018-03-22T16:24:43Z</time>
      </trkpt>
      <trkpt lat="45.9246" lon="4.73434">
        <ele>173</ele>
        <time>2018-03-22T16:24:44Z</time>
      </trkpt>
      <trkpt lat="45.92464" lon="4.73443">
        <ele>173</ele>
        <time>2018-03-22T16:24:46Z</time>
      </trkpt>
      <trkpt lat="45.92466" lon="4.73449">
        <ele>173</ele>
        <time>2018-03-22T16:24:47Z</time>
      </trkpt>
      <trkpt lat="45.92469" lon="4.7346">
        <ele>173</ele>
        <time>2018-03-22T16:24:49Z</time>
      </trkpt>
      <trkpt lat="45.9247" lon="4.73465">
        <ele>173</ele>
        <time>2018-03-22T16:24:50Z</time>
      </trkpt>
      <trkpt lat="45.92471" lon="4.73477">
        <ele>173</ele>
        <time>2018-03-22T16:24:53Z</time>
      </trkpt>
      <trkpt lat="45.92471" lon="4.73487">
        <ele>173</ele>
        <time>2018-03-22T16:24:54Z</time>
      </trkpt>
      <trkpt lat="45.92471" lon="4.73499">
        <ele>173</ele>
        <time>2018-03-22T16:24:56Z</time>
      </trkpt>
      <trkpt lat="45.92471" lon="4.73505">
        <ele>174</ele>
        <time>2018-03-22T16:24:57Z</time>
      </trkpt>
      <trkpt lat="45.9247" lon="4.73517">
        <ele>174</ele>
        <time>2018-03-22T16:24:59Z</time>
      </trkpt>
      <trkpt lat="45.9247" lon="4.73523">
        <ele>174</ele>
        <time>2018-03-22T16:25:00Z</time>
      </trkpt>
      <trkpt lat="45.92469" lon="4.73534">
        <ele>174</ele>
        <time>2018-03-22T16:25:03Z</time>
      </trkpt>
      <trkpt lat="45.92468" lon="4.73543">
        <ele>173</ele>
        <time>2018-03-22T16:25:04Z</time>
      </trkpt>
      <trkpt lat="45.92467" lon="4.73554">
        <ele>173</ele>
        <time>2018-03-22T16:25:06Z</time>
      </trkpt>
      <trkpt lat="45.92467" lon="4.73562">
        <ele>173</ele>
        <time>2018-03-22T16:25:07Z</time>
      </trkpt>
      <trkpt lat="45.92467" lon="4.73568">
        <ele>173</ele>
        <time>2018-03-22T16:25:08Z</time>
      </trkpt>
      <trkpt lat="45.92467" lon="4.73575">
        <ele>173</ele>
        <time>2018-03-22T16:25:09Z</time>
      </trkpt>
      <trkpt lat="45.92466" lon="4.73582">
        <ele>173</ele>
        <time>2018-03-22T16:25:10Z</time>
      </trkpt>
      <trkpt lat="45.92466" lon="4.7359">
        <ele>174</ele>
        <time>2018-03-22T16:25:11Z</time>
      </trkpt>
      <trkpt lat="45.92467" lon="4.73596">
        <ele>174</ele>
        <time>2018-03-22T16:25:12Z</time>
      </trkpt>
      <trkpt lat="45.92468" lon="4.73603">
        <ele>174</ele>
        <time>2018-03-22T16:25:13Z</time>
      </trkpt>
      <trkpt lat="45.92468" lon="4.7361">
        <ele>174</ele>
        <time>2018-03-22T16:25:14Z</time>
      </trkpt>
      <trkpt lat="45.92468" lon="4.73617">
        <ele>174</ele>
        <time>2018-03-22T16:25:15Z</time>
      </trkpt>
      <trkpt lat="45.92469" lon="4.73625">
        <ele>174</ele>
        <time>2018-03-22T16:25:16Z</time>
      </trkpt>
      <trkpt lat="45.92469" lon="4.73631">
        <ele>174</ele>
        <time>2018-03-22T16:25:17Z</time>
      </trkpt>
      <trkpt lat="45.92469" lon="4.73638">
        <ele>174</ele>
        <time>2018-03-22T16:25:18Z</time>
      </trkpt>
      <trkpt lat="45.92468" lon="4.73644">
        <ele>174</ele>
        <time>2018-03-22T16:25:19Z</time>
      </trkpt>
      <trkpt lat="45.92468" lon="4.73657">
        <ele>174</ele>
        <time>2018-03-22T16:25:21Z</time>
      </trkpt>
      <trkpt lat="45.92468" lon="4.73663">
        <ele>174</ele>
        <time>2018-03-22T16:25:22Z</time>
      </trkpt>
      <trkpt lat="45.92467" lon="4.73675">
        <ele>174</ele>
        <time>2018-03-22T16:25:24Z</time>
      </trkpt>
      <trkpt lat="45.92467" lon="4.73681">
        <ele>174</ele>
        <time>2018-03-22T16:25:25Z</time>
      </trkpt>
      <trkpt lat="45.92468" lon="4.73693">
        <ele>174</ele>
        <time>2018-03-22T16:25:28Z</time>
      </trkpt>
      <trkpt lat="45.92467" lon="4.73696">
        <ele>174</ele>
        <time>2018-03-22T16:25:29Z</time>
      </trkpt>
      <trkpt lat="45.92464" lon="4.73708">
        <ele>174</ele>
        <time>2018-03-22T16:25:44Z</time>
      </trkpt>
      <trkpt lat="45.92463" lon="4.73708">
        <ele>174</ele>
        <time>2018-03-22T16:25:45Z</time>
      </trkpt>
      <trkpt lat="45.92462" lon="4.73711">
        <ele>174</ele>
        <time>2018-03-22T16:26:14.704Z</time>
      </trkpt>
    </trkseg>
  </trk>
</gpx>